<?xml version="1.0" encoding="UTF-8" standalone="no" ?>
<gpx xmlns="http://www.topografix.com/GPX/1/1" xmlns:xsi="http://www.w3.org/2001/XMLSchema-instance" xsi:schemaLocation="http://www.topografix.com/GPX/1/1 http://www.topografix.com/GPX/1/1/gpx.xsd" version="1.1" creator="VisuGPX - https://www.visugpx.com">
  <metadata>
    <name>83 - V - Lorgues</name>
    <desc><![CDATA[grp_trc:]]></desc>
  </metadata>
  <trk>
    <name><![CDATA[Lorgues les Pailles 8 avr. 2022]]></name>
    <cmt><![CDATA[13:41:21]]></cmt>
    <desc><![CDATA[comment ...]]></desc>
    <trkseg>
      <trkpt lat="43.48303" lon="6.39791">
        <ele>124</ele>
        <time>2022-04-08T11:41:21Z</time>
      </trkpt>
      <trkpt lat="43.48303" lon="6.39791">
        <ele>124</ele>
        <time>2022-04-08T11:41:22Z</time>
      </trkpt>
      <trkpt lat="43.48299" lon="6.3979">
        <ele>124</ele>
        <time>2022-04-08T11:41:23Z</time>
      </trkpt>
      <trkpt lat="43.48298" lon="6.3979">
        <ele>124</ele>
        <time>2022-04-08T11:41:24Z</time>
      </trkpt>
      <trkpt lat="43.48296" lon="6.39791">
        <ele>124</ele>
        <time>2022-04-08T11:41:25Z</time>
      </trkpt>
      <trkpt lat="43.48294" lon="6.39792">
        <ele>124</ele>
        <time>2022-04-08T11:41:26Z</time>
      </trkpt>
      <trkpt lat="43.48292" lon="6.39792">
        <ele>124</ele>
        <time>2022-04-08T11:41:27Z</time>
      </trkpt>
      <trkpt lat="43.48291" lon="6.39793">
        <ele>124</ele>
        <time>2022-04-08T11:41:28Z</time>
      </trkpt>
      <trkpt lat="43.4829" lon="6.39793">
        <ele>124</ele>
        <time>2022-04-08T11:41:29Z</time>
      </trkpt>
      <trkpt lat="43.4829" lon="6.39792">
        <ele>125</ele>
        <time>2022-04-08T11:41:30Z</time>
      </trkpt>
      <trkpt lat="43.48289" lon="6.39792">
        <ele>125</ele>
        <time>2022-04-08T11:41:31Z</time>
      </trkpt>
      <trkpt lat="43.48289" lon="6.39792">
        <ele>125</ele>
        <time>2022-04-08T11:41:32Z</time>
      </trkpt>
      <trkpt lat="43.48288" lon="6.39791">
        <ele>125</ele>
        <time>2022-04-08T11:41:33Z</time>
      </trkpt>
      <trkpt lat="43.48288" lon="6.39791">
        <ele>125</ele>
        <time>2022-04-08T11:41:34Z</time>
      </trkpt>
      <trkpt lat="43.48287" lon="6.39792">
        <ele>125</ele>
        <time>2022-04-08T11:41:35Z</time>
      </trkpt>
      <trkpt lat="43.48286" lon="6.39792">
        <ele>125</ele>
        <time>2022-04-08T11:41:36Z</time>
      </trkpt>
      <trkpt lat="43.48285" lon="6.39792">
        <ele>125</ele>
        <time>2022-04-08T11:41:37Z</time>
      </trkpt>
      <trkpt lat="43.48284" lon="6.39792">
        <ele>125</ele>
        <time>2022-04-08T11:41:38Z</time>
      </trkpt>
      <trkpt lat="43.48284" lon="6.39791">
        <ele>125</ele>
        <time>2022-04-08T11:41:39Z</time>
      </trkpt>
      <trkpt lat="43.48283" lon="6.39791">
        <ele>125</ele>
        <time>2022-04-08T11:41:40Z</time>
      </trkpt>
      <trkpt lat="43.48283" lon="6.39791">
        <ele>125</ele>
        <time>2022-04-08T11:41:41Z</time>
      </trkpt>
      <trkpt lat="43.48282" lon="6.39791">
        <ele>125</ele>
        <time>2022-04-08T11:41:42Z</time>
      </trkpt>
      <trkpt lat="43.48282" lon="6.39791">
        <ele>125</ele>
        <time>2022-04-08T11:41:43Z</time>
      </trkpt>
      <trkpt lat="43.48282" lon="6.39791">
        <ele>125</ele>
        <time>2022-04-08T11:41:44Z</time>
      </trkpt>
      <trkpt lat="43.48281" lon="6.39791">
        <ele>125</ele>
        <time>2022-04-08T11:41:45Z</time>
      </trkpt>
      <trkpt lat="43.4828" lon="6.39791">
        <ele>126</ele>
        <time>2022-04-08T11:41:46Z</time>
      </trkpt>
      <trkpt lat="43.48279" lon="6.39791">
        <ele>126</ele>
        <time>2022-04-08T11:41:47Z</time>
      </trkpt>
      <trkpt lat="43.48278" lon="6.3979">
        <ele>126</ele>
        <time>2022-04-08T11:41:48Z</time>
      </trkpt>
      <trkpt lat="43.48277" lon="6.3979">
        <ele>126</ele>
        <time>2022-04-08T11:41:49Z</time>
      </trkpt>
      <trkpt lat="43.48276" lon="6.3979">
        <ele>126</ele>
        <time>2022-04-08T11:41:50Z</time>
      </trkpt>
      <trkpt lat="43.48275" lon="6.39789">
        <ele>127</ele>
        <time>2022-04-08T11:41:51Z</time>
      </trkpt>
      <trkpt lat="43.48275" lon="6.39788">
        <ele>129</ele>
        <time>2022-04-08T11:41:52Z</time>
      </trkpt>
      <trkpt lat="43.48274" lon="6.39788">
        <ele>129</ele>
        <time>2022-04-08T11:41:53Z</time>
      </trkpt>
      <trkpt lat="43.48274" lon="6.39787">
        <ele>130</ele>
        <time>2022-04-08T11:41:54Z</time>
      </trkpt>
      <trkpt lat="43.48274" lon="6.39787">
        <ele>130</ele>
        <time>2022-04-08T11:41:55Z</time>
      </trkpt>
      <trkpt lat="43.48273" lon="6.39786">
        <ele>130</ele>
        <time>2022-04-08T11:41:56Z</time>
      </trkpt>
      <trkpt lat="43.48273" lon="6.39785">
        <ele>130</ele>
        <time>2022-04-08T11:41:57Z</time>
      </trkpt>
      <trkpt lat="43.48272" lon="6.39784">
        <ele>130</ele>
        <time>2022-04-08T11:41:58Z</time>
      </trkpt>
      <trkpt lat="43.48271" lon="6.39782">
        <ele>130</ele>
        <time>2022-04-08T11:41:59Z</time>
      </trkpt>
      <trkpt lat="43.48271" lon="6.3978">
        <ele>130</ele>
        <time>2022-04-08T11:42:00Z</time>
      </trkpt>
      <trkpt lat="43.4827" lon="6.39779">
        <ele>130</ele>
        <time>2022-04-08T11:42:01Z</time>
      </trkpt>
      <trkpt lat="43.4827" lon="6.39779">
        <ele>129</ele>
        <time>2022-04-08T11:42:02Z</time>
      </trkpt>
      <trkpt lat="43.4827" lon="6.39778">
        <ele>129</ele>
        <time>2022-04-08T11:42:03Z</time>
      </trkpt>
      <trkpt lat="43.4827" lon="6.39778">
        <ele>129</ele>
        <time>2022-04-08T11:42:04Z</time>
      </trkpt>
      <trkpt lat="43.4827" lon="6.39777">
        <ele>129</ele>
        <time>2022-04-08T11:42:05Z</time>
      </trkpt>
      <trkpt lat="43.4827" lon="6.39776">
        <ele>129</ele>
        <time>2022-04-08T11:42:06Z</time>
      </trkpt>
      <trkpt lat="43.4827" lon="6.39775">
        <ele>129</ele>
        <time>2022-04-08T11:42:07Z</time>
      </trkpt>
      <trkpt lat="43.4827" lon="6.39774">
        <ele>129</ele>
        <time>2022-04-08T11:42:08Z</time>
      </trkpt>
      <trkpt lat="43.4827" lon="6.39772">
        <ele>129</ele>
        <time>2022-04-08T11:42:09Z</time>
      </trkpt>
      <trkpt lat="43.4827" lon="6.39771">
        <ele>129</ele>
        <time>2022-04-08T11:42:10Z</time>
      </trkpt>
      <trkpt lat="43.4827" lon="6.3977">
        <ele>129</ele>
        <time>2022-04-08T11:42:11Z</time>
      </trkpt>
      <trkpt lat="43.48271" lon="6.39769">
        <ele>129</ele>
        <time>2022-04-08T11:42:12Z</time>
      </trkpt>
      <trkpt lat="43.48271" lon="6.39768">
        <ele>129</ele>
        <time>2022-04-08T11:42:13Z</time>
      </trkpt>
      <trkpt lat="43.48271" lon="6.39766">
        <ele>129</ele>
        <time>2022-04-08T11:42:14Z</time>
      </trkpt>
      <trkpt lat="43.48272" lon="6.39765">
        <ele>129</ele>
        <time>2022-04-08T11:42:15Z</time>
      </trkpt>
      <trkpt lat="43.48272" lon="6.39764">
        <ele>129</ele>
        <time>2022-04-08T11:42:16Z</time>
      </trkpt>
      <trkpt lat="43.48272" lon="6.39762">
        <ele>129</ele>
        <time>2022-04-08T11:42:17Z</time>
      </trkpt>
      <trkpt lat="43.48273" lon="6.39761">
        <ele>129</ele>
        <time>2022-04-08T11:42:18Z</time>
      </trkpt>
      <trkpt lat="43.48273" lon="6.39759">
        <ele>129</ele>
        <time>2022-04-08T11:42:19Z</time>
      </trkpt>
      <trkpt lat="43.48274" lon="6.39758">
        <ele>129</ele>
        <time>2022-04-08T11:42:20Z</time>
      </trkpt>
      <trkpt lat="43.48274" lon="6.39756">
        <ele>129</ele>
        <time>2022-04-08T11:42:21Z</time>
      </trkpt>
      <trkpt lat="43.48275" lon="6.39755">
        <ele>129</ele>
        <time>2022-04-08T11:42:22Z</time>
      </trkpt>
      <trkpt lat="43.48276" lon="6.39754">
        <ele>129</ele>
        <time>2022-04-08T11:42:23Z</time>
      </trkpt>
      <trkpt lat="43.48276" lon="6.39753">
        <ele>129</ele>
        <time>2022-04-08T11:42:24Z</time>
      </trkpt>
      <trkpt lat="43.48277" lon="6.39752">
        <ele>129</ele>
        <time>2022-04-08T11:42:25Z</time>
      </trkpt>
      <trkpt lat="43.48277" lon="6.39751">
        <ele>129</ele>
        <time>2022-04-08T11:42:26Z</time>
      </trkpt>
      <trkpt lat="43.48278" lon="6.3975">
        <ele>129</ele>
        <time>2022-04-08T11:42:27Z</time>
      </trkpt>
      <trkpt lat="43.48278" lon="6.39749">
        <ele>129</ele>
        <time>2022-04-08T11:42:28Z</time>
      </trkpt>
      <trkpt lat="43.48279" lon="6.39749">
        <ele>129</ele>
        <time>2022-04-08T11:42:29Z</time>
      </trkpt>
      <trkpt lat="43.4828" lon="6.39748">
        <ele>129</ele>
        <time>2022-04-08T11:42:30Z</time>
      </trkpt>
      <trkpt lat="43.4828" lon="6.39747">
        <ele>129</ele>
        <time>2022-04-08T11:42:31Z</time>
      </trkpt>
      <trkpt lat="43.48281" lon="6.39747">
        <ele>129</ele>
        <time>2022-04-08T11:42:32Z</time>
      </trkpt>
      <trkpt lat="43.48282" lon="6.39746">
        <ele>129</ele>
        <time>2022-04-08T11:42:33Z</time>
      </trkpt>
      <trkpt lat="43.48282" lon="6.39746">
        <ele>129</ele>
        <time>2022-04-08T11:42:34Z</time>
      </trkpt>
      <trkpt lat="43.48282" lon="6.39746">
        <ele>129</ele>
        <time>2022-04-08T11:42:35Z</time>
      </trkpt>
      <trkpt lat="43.48282" lon="6.39746">
        <ele>129</ele>
        <time>2022-04-08T11:42:36Z</time>
      </trkpt>
      <trkpt lat="43.48283" lon="6.39746">
        <ele>129</ele>
        <time>2022-04-08T11:42:37Z</time>
      </trkpt>
      <trkpt lat="43.48283" lon="6.39746">
        <ele>129</ele>
        <time>2022-04-08T11:42:38Z</time>
      </trkpt>
      <trkpt lat="43.48284" lon="6.39745">
        <ele>129</ele>
        <time>2022-04-08T11:42:39Z</time>
      </trkpt>
      <trkpt lat="43.48286" lon="6.39744">
        <ele>129</ele>
        <time>2022-04-08T11:42:40Z</time>
      </trkpt>
      <trkpt lat="43.48287" lon="6.39744">
        <ele>129</ele>
        <time>2022-04-08T11:42:41Z</time>
      </trkpt>
      <trkpt lat="43.48289" lon="6.39743">
        <ele>129</ele>
        <time>2022-04-08T11:42:42Z</time>
      </trkpt>
      <trkpt lat="43.4829" lon="6.39743">
        <ele>129</ele>
        <time>2022-04-08T11:42:43Z</time>
      </trkpt>
      <trkpt lat="43.48292" lon="6.39742">
        <ele>129</ele>
        <time>2022-04-08T11:42:44Z</time>
      </trkpt>
      <trkpt lat="43.48294" lon="6.39741">
        <ele>129</ele>
        <time>2022-04-08T11:42:45Z</time>
      </trkpt>
      <trkpt lat="43.48296" lon="6.3974">
        <ele>129</ele>
        <time>2022-04-08T11:42:46Z</time>
      </trkpt>
      <trkpt lat="43.48297" lon="6.39739">
        <ele>129</ele>
        <time>2022-04-08T11:42:47Z</time>
      </trkpt>
      <trkpt lat="43.48299" lon="6.39738">
        <ele>129</ele>
        <time>2022-04-08T11:42:48Z</time>
      </trkpt>
      <trkpt lat="43.483" lon="6.39738">
        <ele>129</ele>
        <time>2022-04-08T11:42:49Z</time>
      </trkpt>
      <trkpt lat="43.48301" lon="6.39737">
        <ele>129</ele>
        <time>2022-04-08T11:42:50Z</time>
      </trkpt>
      <trkpt lat="43.48302" lon="6.39737">
        <ele>129</ele>
        <time>2022-04-08T11:42:51Z</time>
      </trkpt>
      <trkpt lat="43.48303" lon="6.39737">
        <ele>129</ele>
        <time>2022-04-08T11:42:52Z</time>
      </trkpt>
      <trkpt lat="43.48304" lon="6.39737">
        <ele>129</ele>
        <time>2022-04-08T11:42:53Z</time>
      </trkpt>
      <trkpt lat="43.48306" lon="6.39736">
        <ele>130</ele>
        <time>2022-04-08T11:42:54Z</time>
      </trkpt>
      <trkpt lat="43.48307" lon="6.39736">
        <ele>130</ele>
        <time>2022-04-08T11:42:55Z</time>
      </trkpt>
      <trkpt lat="43.48309" lon="6.39736">
        <ele>130</ele>
        <time>2022-04-08T11:42:56Z</time>
      </trkpt>
      <trkpt lat="43.4831" lon="6.39736">
        <ele>130</ele>
        <time>2022-04-08T11:42:57Z</time>
      </trkpt>
      <trkpt lat="43.48312" lon="6.39736">
        <ele>130</ele>
        <time>2022-04-08T11:42:58Z</time>
      </trkpt>
      <trkpt lat="43.48313" lon="6.39736">
        <ele>130</ele>
        <time>2022-04-08T11:42:59Z</time>
      </trkpt>
      <trkpt lat="43.48314" lon="6.39736">
        <ele>130</ele>
        <time>2022-04-08T11:43:00Z</time>
      </trkpt>
      <trkpt lat="43.48315" lon="6.39735">
        <ele>130</ele>
        <time>2022-04-08T11:43:01Z</time>
      </trkpt>
      <trkpt lat="43.48316" lon="6.39734">
        <ele>130</ele>
        <time>2022-04-08T11:43:02Z</time>
      </trkpt>
      <trkpt lat="43.48317" lon="6.39734">
        <ele>130</ele>
        <time>2022-04-08T11:43:03Z</time>
      </trkpt>
      <trkpt lat="43.48318" lon="6.39734">
        <ele>130</ele>
        <time>2022-04-08T11:43:04Z</time>
      </trkpt>
      <trkpt lat="43.48319" lon="6.39734">
        <ele>130</ele>
        <time>2022-04-08T11:43:05Z</time>
      </trkpt>
      <trkpt lat="43.4832" lon="6.39734">
        <ele>130</ele>
        <time>2022-04-08T11:43:06Z</time>
      </trkpt>
      <trkpt lat="43.48321" lon="6.39733">
        <ele>130</ele>
        <time>2022-04-08T11:43:07Z</time>
      </trkpt>
      <trkpt lat="43.48322" lon="6.39733">
        <ele>130</ele>
        <time>2022-04-08T11:43:08Z</time>
      </trkpt>
      <trkpt lat="43.48323" lon="6.39733">
        <ele>130</ele>
        <time>2022-04-08T11:43:09Z</time>
      </trkpt>
      <trkpt lat="43.48324" lon="6.39733">
        <ele>130</ele>
        <time>2022-04-08T11:43:10Z</time>
      </trkpt>
      <trkpt lat="43.48325" lon="6.39733">
        <ele>130</ele>
        <time>2022-04-08T11:43:11Z</time>
      </trkpt>
      <trkpt lat="43.48326" lon="6.39733">
        <ele>130</ele>
        <time>2022-04-08T11:43:12Z</time>
      </trkpt>
      <trkpt lat="43.48327" lon="6.39733">
        <ele>130</ele>
        <time>2022-04-08T11:43:13Z</time>
      </trkpt>
      <trkpt lat="43.48328" lon="6.39733">
        <ele>130</ele>
        <time>2022-04-08T11:43:14Z</time>
      </trkpt>
      <trkpt lat="43.4833" lon="6.39733">
        <ele>130</ele>
        <time>2022-04-08T11:43:15Z</time>
      </trkpt>
      <trkpt lat="43.48331" lon="6.39733">
        <ele>130</ele>
        <time>2022-04-08T11:43:16Z</time>
      </trkpt>
      <trkpt lat="43.48332" lon="6.39733">
        <ele>130</ele>
        <time>2022-04-08T11:43:17Z</time>
      </trkpt>
      <trkpt lat="43.48333" lon="6.39732">
        <ele>130</ele>
        <time>2022-04-08T11:43:18Z</time>
      </trkpt>
      <trkpt lat="43.48335" lon="6.39732">
        <ele>130</ele>
        <time>2022-04-08T11:43:19Z</time>
      </trkpt>
      <trkpt lat="43.48336" lon="6.39732">
        <ele>130</ele>
        <time>2022-04-08T11:43:20Z</time>
      </trkpt>
      <trkpt lat="43.48337" lon="6.39731">
        <ele>130</ele>
        <time>2022-04-08T11:43:21Z</time>
      </trkpt>
      <trkpt lat="43.48338" lon="6.39731">
        <ele>130</ele>
        <time>2022-04-08T11:43:22Z</time>
      </trkpt>
      <trkpt lat="43.48339" lon="6.3973">
        <ele>130</ele>
        <time>2022-04-08T11:43:23Z</time>
      </trkpt>
      <trkpt lat="43.4834" lon="6.3973">
        <ele>130</ele>
        <time>2022-04-08T11:43:24Z</time>
      </trkpt>
      <trkpt lat="43.48341" lon="6.3973">
        <ele>130</ele>
        <time>2022-04-08T11:43:25Z</time>
      </trkpt>
      <trkpt lat="43.48342" lon="6.39729">
        <ele>130</ele>
        <time>2022-04-08T11:43:26Z</time>
      </trkpt>
      <trkpt lat="43.48343" lon="6.39729">
        <ele>129</ele>
        <time>2022-04-08T11:43:27Z</time>
      </trkpt>
      <trkpt lat="43.48344" lon="6.39728">
        <ele>129</ele>
        <time>2022-04-08T11:43:28Z</time>
      </trkpt>
      <trkpt lat="43.48345" lon="6.39727">
        <ele>129</ele>
        <time>2022-04-08T11:43:29Z</time>
      </trkpt>
      <trkpt lat="43.48345" lon="6.39727">
        <ele>129</ele>
        <time>2022-04-08T11:43:30Z</time>
      </trkpt>
      <trkpt lat="43.48346" lon="6.39726">
        <ele>129</ele>
        <time>2022-04-08T11:43:31Z</time>
      </trkpt>
      <trkpt lat="43.48347" lon="6.39725">
        <ele>129</ele>
        <time>2022-04-08T11:43:32Z</time>
      </trkpt>
      <trkpt lat="43.48348" lon="6.39725">
        <ele>129</ele>
        <time>2022-04-08T11:43:33Z</time>
      </trkpt>
      <trkpt lat="43.48349" lon="6.39724">
        <ele>128</ele>
        <time>2022-04-08T11:43:34Z</time>
      </trkpt>
      <trkpt lat="43.48349" lon="6.39723">
        <ele>128</ele>
        <time>2022-04-08T11:43:35Z</time>
      </trkpt>
      <trkpt lat="43.4835" lon="6.39722">
        <ele>128</ele>
        <time>2022-04-08T11:43:36Z</time>
      </trkpt>
      <trkpt lat="43.48351" lon="6.39722">
        <ele>128</ele>
        <time>2022-04-08T11:43:37Z</time>
      </trkpt>
      <trkpt lat="43.48352" lon="6.39721">
        <ele>128</ele>
        <time>2022-04-08T11:43:38Z</time>
      </trkpt>
      <trkpt lat="43.48353" lon="6.3972">
        <ele>128</ele>
        <time>2022-04-08T11:43:39Z</time>
      </trkpt>
      <trkpt lat="43.48353" lon="6.39719">
        <ele>128</ele>
        <time>2022-04-08T11:43:40Z</time>
      </trkpt>
      <trkpt lat="43.48354" lon="6.39718">
        <ele>128</ele>
        <time>2022-04-08T11:43:41Z</time>
      </trkpt>
      <trkpt lat="43.48355" lon="6.39718">
        <ele>128</ele>
        <time>2022-04-08T11:43:42Z</time>
      </trkpt>
      <trkpt lat="43.48356" lon="6.39717">
        <ele>128</ele>
        <time>2022-04-08T11:43:43Z</time>
      </trkpt>
      <trkpt lat="43.48356" lon="6.39716">
        <ele>128</ele>
        <time>2022-04-08T11:43:44Z</time>
      </trkpt>
      <trkpt lat="43.48357" lon="6.39715">
        <ele>128</ele>
        <time>2022-04-08T11:43:45Z</time>
      </trkpt>
      <trkpt lat="43.48358" lon="6.39714">
        <ele>128</ele>
        <time>2022-04-08T11:43:46Z</time>
      </trkpt>
      <trkpt lat="43.48358" lon="6.39713">
        <ele>128</ele>
        <time>2022-04-08T11:43:47Z</time>
      </trkpt>
      <trkpt lat="43.48359" lon="6.39713">
        <ele>128</ele>
        <time>2022-04-08T11:43:48Z</time>
      </trkpt>
      <trkpt lat="43.4836" lon="6.39712">
        <ele>128</ele>
        <time>2022-04-08T11:43:49Z</time>
      </trkpt>
      <trkpt lat="43.4836" lon="6.39711">
        <ele>128</ele>
        <time>2022-04-08T11:43:50Z</time>
      </trkpt>
      <trkpt lat="43.48361" lon="6.3971">
        <ele>128</ele>
        <time>2022-04-08T11:43:51Z</time>
      </trkpt>
      <trkpt lat="43.48361" lon="6.39709">
        <ele>128</ele>
        <time>2022-04-08T11:43:52Z</time>
      </trkpt>
      <trkpt lat="43.48362" lon="6.39708">
        <ele>128</ele>
        <time>2022-04-08T11:43:53Z</time>
      </trkpt>
      <trkpt lat="43.48362" lon="6.39707">
        <ele>128</ele>
        <time>2022-04-08T11:43:54Z</time>
      </trkpt>
      <trkpt lat="43.48363" lon="6.39706">
        <ele>128</ele>
        <time>2022-04-08T11:43:55Z</time>
      </trkpt>
      <trkpt lat="43.48363" lon="6.39706">
        <ele>127</ele>
        <time>2022-04-08T11:43:56Z</time>
      </trkpt>
      <trkpt lat="43.48364" lon="6.39705">
        <ele>127</ele>
        <time>2022-04-08T11:43:57Z</time>
      </trkpt>
      <trkpt lat="43.48364" lon="6.39703">
        <ele>127</ele>
        <time>2022-04-08T11:43:58Z</time>
      </trkpt>
      <trkpt lat="43.48365" lon="6.39702">
        <ele>127</ele>
        <time>2022-04-08T11:43:59Z</time>
      </trkpt>
      <trkpt lat="43.48366" lon="6.39701">
        <ele>127</ele>
        <time>2022-04-08T11:44:00Z</time>
      </trkpt>
      <trkpt lat="43.48366" lon="6.397">
        <ele>127</ele>
        <time>2022-04-08T11:44:01Z</time>
      </trkpt>
      <trkpt lat="43.48367" lon="6.39699">
        <ele>127</ele>
        <time>2022-04-08T11:44:02Z</time>
      </trkpt>
      <trkpt lat="43.48368" lon="6.39698">
        <ele>126</ele>
        <time>2022-04-08T11:44:03Z</time>
      </trkpt>
      <trkpt lat="43.48368" lon="6.39697">
        <ele>126</ele>
        <time>2022-04-08T11:44:04Z</time>
      </trkpt>
      <trkpt lat="43.48369" lon="6.39695">
        <ele>126</ele>
        <time>2022-04-08T11:44:05Z</time>
      </trkpt>
      <trkpt lat="43.4837" lon="6.39694">
        <ele>125</ele>
        <time>2022-04-08T11:44:06Z</time>
      </trkpt>
      <trkpt lat="43.48371" lon="6.39694">
        <ele>125</ele>
        <time>2022-04-08T11:44:07Z</time>
      </trkpt>
      <trkpt lat="43.48372" lon="6.39693">
        <ele>124</ele>
        <time>2022-04-08T11:44:08Z</time>
      </trkpt>
      <trkpt lat="43.48372" lon="6.39692">
        <ele>124</ele>
        <time>2022-04-08T11:44:09Z</time>
      </trkpt>
      <trkpt lat="43.48373" lon="6.39691">
        <ele>124</ele>
        <time>2022-04-08T11:44:10Z</time>
      </trkpt>
      <trkpt lat="43.48374" lon="6.3969">
        <ele>124</ele>
        <time>2022-04-08T11:44:11Z</time>
      </trkpt>
      <trkpt lat="43.48375" lon="6.39689">
        <ele>125</ele>
        <time>2022-04-08T11:44:12Z</time>
      </trkpt>
      <trkpt lat="43.48375" lon="6.39688">
        <ele>125</ele>
        <time>2022-04-08T11:44:13Z</time>
      </trkpt>
      <trkpt lat="43.48376" lon="6.39687">
        <ele>125</ele>
        <time>2022-04-08T11:44:14Z</time>
      </trkpt>
      <trkpt lat="43.48377" lon="6.39686">
        <ele>125</ele>
        <time>2022-04-08T11:44:15Z</time>
      </trkpt>
      <trkpt lat="43.48378" lon="6.39684">
        <ele>125</ele>
        <time>2022-04-08T11:44:16Z</time>
      </trkpt>
      <trkpt lat="43.48378" lon="6.39683">
        <ele>125</ele>
        <time>2022-04-08T11:44:17Z</time>
      </trkpt>
      <trkpt lat="43.48379" lon="6.39682">
        <ele>125</ele>
        <time>2022-04-08T11:44:18Z</time>
      </trkpt>
      <trkpt lat="43.48379" lon="6.39682">
        <ele>125</ele>
        <time>2022-04-08T11:44:19Z</time>
      </trkpt>
      <trkpt lat="43.4838" lon="6.39681">
        <ele>125</ele>
        <time>2022-04-08T11:44:20Z</time>
      </trkpt>
      <trkpt lat="43.48381" lon="6.3968">
        <ele>125</ele>
        <time>2022-04-08T11:44:21Z</time>
      </trkpt>
      <trkpt lat="43.48381" lon="6.39679">
        <ele>125</ele>
        <time>2022-04-08T11:44:22Z</time>
      </trkpt>
      <trkpt lat="43.48382" lon="6.39678">
        <ele>125</ele>
        <time>2022-04-08T11:44:23Z</time>
      </trkpt>
      <trkpt lat="43.48383" lon="6.39677">
        <ele>125</ele>
        <time>2022-04-08T11:44:24Z</time>
      </trkpt>
      <trkpt lat="43.48383" lon="6.39676">
        <ele>125</ele>
        <time>2022-04-08T11:44:25Z</time>
      </trkpt>
      <trkpt lat="43.48384" lon="6.39675">
        <ele>125</ele>
        <time>2022-04-08T11:44:26Z</time>
      </trkpt>
      <trkpt lat="43.48385" lon="6.39674">
        <ele>125</ele>
        <time>2022-04-08T11:44:27Z</time>
      </trkpt>
      <trkpt lat="43.48385" lon="6.39673">
        <ele>125</ele>
        <time>2022-04-08T11:44:28Z</time>
      </trkpt>
      <trkpt lat="43.48386" lon="6.39672">
        <ele>125</ele>
        <time>2022-04-08T11:44:29Z</time>
      </trkpt>
      <trkpt lat="43.48387" lon="6.39671">
        <ele>126</ele>
        <time>2022-04-08T11:44:30Z</time>
      </trkpt>
      <trkpt lat="43.48387" lon="6.3967">
        <ele>126</ele>
        <time>2022-04-08T11:44:31Z</time>
      </trkpt>
      <trkpt lat="43.48388" lon="6.39669">
        <ele>126</ele>
        <time>2022-04-08T11:44:32Z</time>
      </trkpt>
      <trkpt lat="43.48389" lon="6.39668">
        <ele>126</ele>
        <time>2022-04-08T11:44:33Z</time>
      </trkpt>
      <trkpt lat="43.48389" lon="6.39667">
        <ele>126</ele>
        <time>2022-04-08T11:44:34Z</time>
      </trkpt>
      <trkpt lat="43.4839" lon="6.39666">
        <ele>126</ele>
        <time>2022-04-08T11:44:35Z</time>
      </trkpt>
      <trkpt lat="43.48391" lon="6.39665">
        <ele>126</ele>
        <time>2022-04-08T11:44:36Z</time>
      </trkpt>
      <trkpt lat="43.48391" lon="6.39664">
        <ele>126</ele>
        <time>2022-04-08T11:44:37Z</time>
      </trkpt>
      <trkpt lat="43.48392" lon="6.39663">
        <ele>126</ele>
        <time>2022-04-08T11:44:38Z</time>
      </trkpt>
      <trkpt lat="43.48392" lon="6.39662">
        <ele>126</ele>
        <time>2022-04-08T11:44:39Z</time>
      </trkpt>
      <trkpt lat="43.48393" lon="6.39661">
        <ele>126</ele>
        <time>2022-04-08T11:44:40Z</time>
      </trkpt>
      <trkpt lat="43.48394" lon="6.3966">
        <ele>127</ele>
        <time>2022-04-08T11:44:41Z</time>
      </trkpt>
      <trkpt lat="43.48394" lon="6.39659">
        <ele>128</ele>
        <time>2022-04-08T11:44:42Z</time>
      </trkpt>
      <trkpt lat="43.48395" lon="6.39658">
        <ele>128</ele>
        <time>2022-04-08T11:44:43Z</time>
      </trkpt>
      <trkpt lat="43.48396" lon="6.39657">
        <ele>128</ele>
        <time>2022-04-08T11:44:44Z</time>
      </trkpt>
      <trkpt lat="43.48396" lon="6.39656">
        <ele>128</ele>
        <time>2022-04-08T11:44:45Z</time>
      </trkpt>
      <trkpt lat="43.48397" lon="6.39655">
        <ele>128</ele>
        <time>2022-04-08T11:44:46Z</time>
      </trkpt>
      <trkpt lat="43.48398" lon="6.39654">
        <ele>128</ele>
        <time>2022-04-08T11:44:47Z</time>
      </trkpt>
      <trkpt lat="43.48399" lon="6.39653">
        <ele>128</ele>
        <time>2022-04-08T11:44:48Z</time>
      </trkpt>
      <trkpt lat="43.48399" lon="6.39652">
        <ele>129</ele>
        <time>2022-04-08T11:44:49Z</time>
      </trkpt>
      <trkpt lat="43.484" lon="6.39651">
        <ele>129</ele>
        <time>2022-04-08T11:44:50Z</time>
      </trkpt>
      <trkpt lat="43.48401" lon="6.3965">
        <ele>129</ele>
        <time>2022-04-08T11:44:51Z</time>
      </trkpt>
      <trkpt lat="43.48402" lon="6.39649">
        <ele>129</ele>
        <time>2022-04-08T11:44:52Z</time>
      </trkpt>
      <trkpt lat="43.48402" lon="6.39648">
        <ele>129</ele>
        <time>2022-04-08T11:44:53Z</time>
      </trkpt>
      <trkpt lat="43.48403" lon="6.39647">
        <ele>129</ele>
        <time>2022-04-08T11:44:54Z</time>
      </trkpt>
      <trkpt lat="43.48403" lon="6.39646">
        <ele>129</ele>
        <time>2022-04-08T11:44:55Z</time>
      </trkpt>
      <trkpt lat="43.48404" lon="6.39645">
        <ele>129</ele>
        <time>2022-04-08T11:44:56Z</time>
      </trkpt>
      <trkpt lat="43.48404" lon="6.39643">
        <ele>129</ele>
        <time>2022-04-08T11:44:57Z</time>
      </trkpt>
      <trkpt lat="43.48405" lon="6.39642">
        <ele>129</ele>
        <time>2022-04-08T11:44:58Z</time>
      </trkpt>
      <trkpt lat="43.48405" lon="6.39641">
        <ele>130</ele>
        <time>2022-04-08T11:44:59Z</time>
      </trkpt>
      <trkpt lat="43.48405" lon="6.39639">
        <ele>130</ele>
        <time>2022-04-08T11:45:00Z</time>
      </trkpt>
      <trkpt lat="43.48406" lon="6.39638">
        <ele>130</ele>
        <time>2022-04-08T11:45:01Z</time>
      </trkpt>
      <trkpt lat="43.48406" lon="6.39637">
        <ele>131</ele>
        <time>2022-04-08T11:45:02Z</time>
      </trkpt>
      <trkpt lat="43.48406" lon="6.39636">
        <ele>132</ele>
        <time>2022-04-08T11:45:03Z</time>
      </trkpt>
      <trkpt lat="43.48407" lon="6.39634">
        <ele>132</ele>
        <time>2022-04-08T11:45:04Z</time>
      </trkpt>
      <trkpt lat="43.48407" lon="6.39633">
        <ele>133</ele>
        <time>2022-04-08T11:45:05Z</time>
      </trkpt>
      <trkpt lat="43.48407" lon="6.39632">
        <ele>133</ele>
        <time>2022-04-08T11:45:06Z</time>
      </trkpt>
      <trkpt lat="43.48408" lon="6.39631">
        <ele>133</ele>
        <time>2022-04-08T11:45:07Z</time>
      </trkpt>
      <trkpt lat="43.48408" lon="6.3963">
        <ele>133</ele>
        <time>2022-04-08T11:45:08Z</time>
      </trkpt>
      <trkpt lat="43.48409" lon="6.39629">
        <ele>133</ele>
        <time>2022-04-08T11:45:09Z</time>
      </trkpt>
      <trkpt lat="43.48409" lon="6.39628">
        <ele>133</ele>
        <time>2022-04-08T11:45:10Z</time>
      </trkpt>
      <trkpt lat="43.4841" lon="6.39627">
        <ele>133</ele>
        <time>2022-04-08T11:45:11Z</time>
      </trkpt>
      <trkpt lat="43.48411" lon="6.39626">
        <ele>133</ele>
        <time>2022-04-08T11:45:12Z</time>
      </trkpt>
      <trkpt lat="43.48412" lon="6.39624">
        <ele>133</ele>
        <time>2022-04-08T11:45:13Z</time>
      </trkpt>
      <trkpt lat="43.48412" lon="6.39623">
        <ele>133</ele>
        <time>2022-04-08T11:45:14Z</time>
      </trkpt>
      <trkpt lat="43.48413" lon="6.39622">
        <ele>133</ele>
        <time>2022-04-08T11:45:15Z</time>
      </trkpt>
      <trkpt lat="43.48413" lon="6.39621">
        <ele>133</ele>
        <time>2022-04-08T11:45:16Z</time>
      </trkpt>
      <trkpt lat="43.48414" lon="6.3962">
        <ele>133</ele>
        <time>2022-04-08T11:45:17Z</time>
      </trkpt>
      <trkpt lat="43.48414" lon="6.39619">
        <ele>133</ele>
        <time>2022-04-08T11:45:18Z</time>
      </trkpt>
      <trkpt lat="43.48415" lon="6.39617">
        <ele>133</ele>
        <time>2022-04-08T11:45:19Z</time>
      </trkpt>
      <trkpt lat="43.48416" lon="6.39616">
        <ele>134</ele>
        <time>2022-04-08T11:45:20Z</time>
      </trkpt>
      <trkpt lat="43.48417" lon="6.39615">
        <ele>134</ele>
        <time>2022-04-08T11:45:21Z</time>
      </trkpt>
      <trkpt lat="43.48417" lon="6.39613">
        <ele>134</ele>
        <time>2022-04-08T11:45:22Z</time>
      </trkpt>
      <trkpt lat="43.48418" lon="6.39612">
        <ele>134</ele>
        <time>2022-04-08T11:45:23Z</time>
      </trkpt>
      <trkpt lat="43.48418" lon="6.39611">
        <ele>134</ele>
        <time>2022-04-08T11:45:24Z</time>
      </trkpt>
      <trkpt lat="43.48419" lon="6.3961">
        <ele>134</ele>
        <time>2022-04-08T11:45:25Z</time>
      </trkpt>
      <trkpt lat="43.48419" lon="6.39608">
        <ele>134</ele>
        <time>2022-04-08T11:45:26Z</time>
      </trkpt>
      <trkpt lat="43.48419" lon="6.39607">
        <ele>134</ele>
        <time>2022-04-08T11:45:27Z</time>
      </trkpt>
      <trkpt lat="43.4842" lon="6.39606">
        <ele>135</ele>
        <time>2022-04-08T11:45:28Z</time>
      </trkpt>
      <trkpt lat="43.4842" lon="6.39605">
        <ele>135</ele>
        <time>2022-04-08T11:45:29Z</time>
      </trkpt>
      <trkpt lat="43.48421" lon="6.39604">
        <ele>135</ele>
        <time>2022-04-08T11:45:30Z</time>
      </trkpt>
      <trkpt lat="43.48421" lon="6.39603">
        <ele>135</ele>
        <time>2022-04-08T11:45:31Z</time>
      </trkpt>
      <trkpt lat="43.48421" lon="6.39602">
        <ele>135</ele>
        <time>2022-04-08T11:45:32Z</time>
      </trkpt>
      <trkpt lat="43.48422" lon="6.396">
        <ele>135</ele>
        <time>2022-04-08T11:45:33Z</time>
      </trkpt>
      <trkpt lat="43.48422" lon="6.39599">
        <ele>135</ele>
        <time>2022-04-08T11:45:34Z</time>
      </trkpt>
      <trkpt lat="43.48422" lon="6.39598">
        <ele>135</ele>
        <time>2022-04-08T11:45:35Z</time>
      </trkpt>
      <trkpt lat="43.48423" lon="6.39597">
        <ele>136</ele>
        <time>2022-04-08T11:45:36Z</time>
      </trkpt>
      <trkpt lat="43.48423" lon="6.39596">
        <ele>136</ele>
        <time>2022-04-08T11:45:37Z</time>
      </trkpt>
      <trkpt lat="43.48424" lon="6.39595">
        <ele>136</ele>
        <time>2022-04-08T11:45:38Z</time>
      </trkpt>
      <trkpt lat="43.48424" lon="6.39594">
        <ele>136</ele>
        <time>2022-04-08T11:45:39Z</time>
      </trkpt>
      <trkpt lat="43.48425" lon="6.39593">
        <ele>136</ele>
        <time>2022-04-08T11:45:40Z</time>
      </trkpt>
      <trkpt lat="43.48425" lon="6.39591">
        <ele>136</ele>
        <time>2022-04-08T11:45:41Z</time>
      </trkpt>
      <trkpt lat="43.48425" lon="6.3959">
        <ele>137</ele>
        <time>2022-04-08T11:45:42Z</time>
      </trkpt>
      <trkpt lat="43.48426" lon="6.39589">
        <ele>137</ele>
        <time>2022-04-08T11:45:43Z</time>
      </trkpt>
      <trkpt lat="43.48426" lon="6.39587">
        <ele>139</ele>
        <time>2022-04-08T11:45:44Z</time>
      </trkpt>
      <trkpt lat="43.48427" lon="6.39586">
        <ele>140</ele>
        <time>2022-04-08T11:45:45Z</time>
      </trkpt>
      <trkpt lat="43.48427" lon="6.39585">
        <ele>140</ele>
        <time>2022-04-08T11:45:46Z</time>
      </trkpt>
      <trkpt lat="43.48427" lon="6.39584">
        <ele>140</ele>
        <time>2022-04-08T11:45:47Z</time>
      </trkpt>
      <trkpt lat="43.48428" lon="6.39583">
        <ele>140</ele>
        <time>2022-04-08T11:45:48Z</time>
      </trkpt>
      <trkpt lat="43.48428" lon="6.39581">
        <ele>141</ele>
        <time>2022-04-08T11:45:49Z</time>
      </trkpt>
      <trkpt lat="43.48429" lon="6.3958">
        <ele>141</ele>
        <time>2022-04-08T11:45:50Z</time>
      </trkpt>
      <trkpt lat="43.48429" lon="6.39579">
        <ele>141</ele>
        <time>2022-04-08T11:45:51Z</time>
      </trkpt>
      <trkpt lat="43.48429" lon="6.39577">
        <ele>141</ele>
        <time>2022-04-08T11:45:52Z</time>
      </trkpt>
      <trkpt lat="43.4843" lon="6.39576">
        <ele>141</ele>
        <time>2022-04-08T11:45:53Z</time>
      </trkpt>
      <trkpt lat="43.4843" lon="6.39574">
        <ele>141</ele>
        <time>2022-04-08T11:45:54Z</time>
      </trkpt>
      <trkpt lat="43.4843" lon="6.39572">
        <ele>141</ele>
        <time>2022-04-08T11:45:55Z</time>
      </trkpt>
      <trkpt lat="43.4843" lon="6.39571">
        <ele>141</ele>
        <time>2022-04-08T11:45:56Z</time>
      </trkpt>
      <trkpt lat="43.4843" lon="6.39569">
        <ele>141</ele>
        <time>2022-04-08T11:45:57Z</time>
      </trkpt>
      <trkpt lat="43.48429" lon="6.39568">
        <ele>141</ele>
        <time>2022-04-08T11:45:58Z</time>
      </trkpt>
      <trkpt lat="43.48429" lon="6.39566">
        <ele>141</ele>
        <time>2022-04-08T11:45:59Z</time>
      </trkpt>
      <trkpt lat="43.48429" lon="6.39565">
        <ele>141</ele>
        <time>2022-04-08T11:46:00Z</time>
      </trkpt>
      <trkpt lat="43.48428" lon="6.39563">
        <ele>140</ele>
        <time>2022-04-08T11:46:01Z</time>
      </trkpt>
      <trkpt lat="43.48428" lon="6.39562">
        <ele>140</ele>
        <time>2022-04-08T11:46:02Z</time>
      </trkpt>
      <trkpt lat="43.48427" lon="6.3956">
        <ele>140</ele>
        <time>2022-04-08T11:46:03Z</time>
      </trkpt>
      <trkpt lat="43.48427" lon="6.39559">
        <ele>139</ele>
        <time>2022-04-08T11:46:04Z</time>
      </trkpt>
      <trkpt lat="43.48426" lon="6.39557">
        <ele>139</ele>
        <time>2022-04-08T11:46:05Z</time>
      </trkpt>
      <trkpt lat="43.48426" lon="6.39556">
        <ele>139</ele>
        <time>2022-04-08T11:46:06Z</time>
      </trkpt>
      <trkpt lat="43.48425" lon="6.39555">
        <ele>139</ele>
        <time>2022-04-08T11:46:07Z</time>
      </trkpt>
      <trkpt lat="43.48425" lon="6.39553">
        <ele>139</ele>
        <time>2022-04-08T11:46:08Z</time>
      </trkpt>
      <trkpt lat="43.48425" lon="6.39552">
        <ele>139</ele>
        <time>2022-04-08T11:46:09Z</time>
      </trkpt>
      <trkpt lat="43.48424" lon="6.39551">
        <ele>138</ele>
        <time>2022-04-08T11:46:10Z</time>
      </trkpt>
      <trkpt lat="43.48424" lon="6.3955">
        <ele>138</ele>
        <time>2022-04-08T11:46:11Z</time>
      </trkpt>
      <trkpt lat="43.48424" lon="6.39549">
        <ele>138</ele>
        <time>2022-04-08T11:46:12Z</time>
      </trkpt>
      <trkpt lat="43.48423" lon="6.39547">
        <ele>138</ele>
        <time>2022-04-08T11:46:13Z</time>
      </trkpt>
      <trkpt lat="43.48423" lon="6.39546">
        <ele>138</ele>
        <time>2022-04-08T11:46:14Z</time>
      </trkpt>
      <trkpt lat="43.48423" lon="6.39545">
        <ele>138</ele>
        <time>2022-04-08T11:46:15Z</time>
      </trkpt>
      <trkpt lat="43.48422" lon="6.39543">
        <ele>138</ele>
        <time>2022-04-08T11:46:16Z</time>
      </trkpt>
      <trkpt lat="43.48422" lon="6.39542">
        <ele>138</ele>
        <time>2022-04-08T11:46:17Z</time>
      </trkpt>
      <trkpt lat="43.48421" lon="6.3954">
        <ele>138</ele>
        <time>2022-04-08T11:46:18Z</time>
      </trkpt>
      <trkpt lat="43.4842" lon="6.39539">
        <ele>138</ele>
        <time>2022-04-08T11:46:19Z</time>
      </trkpt>
      <trkpt lat="43.48419" lon="6.39537">
        <ele>138</ele>
        <time>2022-04-08T11:46:20Z</time>
      </trkpt>
      <trkpt lat="43.48419" lon="6.39536">
        <ele>138</ele>
        <time>2022-04-08T11:46:21Z</time>
      </trkpt>
      <trkpt lat="43.48418" lon="6.39535">
        <ele>137</ele>
        <time>2022-04-08T11:46:22Z</time>
      </trkpt>
      <trkpt lat="43.48417" lon="6.39534">
        <ele>137</ele>
        <time>2022-04-08T11:46:23Z</time>
      </trkpt>
      <trkpt lat="43.48417" lon="6.39532">
        <ele>136</ele>
        <time>2022-04-08T11:46:24Z</time>
      </trkpt>
      <trkpt lat="43.48416" lon="6.39531">
        <ele>136</ele>
        <time>2022-04-08T11:46:25Z</time>
      </trkpt>
      <trkpt lat="43.48415" lon="6.3953">
        <ele>136</ele>
        <time>2022-04-08T11:46:26Z</time>
      </trkpt>
      <trkpt lat="43.48415" lon="6.39529">
        <ele>136</ele>
        <time>2022-04-08T11:46:27Z</time>
      </trkpt>
      <trkpt lat="43.48414" lon="6.39527">
        <ele>136</ele>
        <time>2022-04-08T11:46:28Z</time>
      </trkpt>
      <trkpt lat="43.48414" lon="6.39526">
        <ele>136</ele>
        <time>2022-04-08T11:46:29Z</time>
      </trkpt>
      <trkpt lat="43.48413" lon="6.39525">
        <ele>136</ele>
        <time>2022-04-08T11:46:30Z</time>
      </trkpt>
      <trkpt lat="43.48413" lon="6.39523">
        <ele>136</ele>
        <time>2022-04-08T11:46:31Z</time>
      </trkpt>
      <trkpt lat="43.48412" lon="6.39522">
        <ele>136</ele>
        <time>2022-04-08T11:46:32Z</time>
      </trkpt>
      <trkpt lat="43.48412" lon="6.39521">
        <ele>136</ele>
        <time>2022-04-08T11:46:33Z</time>
      </trkpt>
      <trkpt lat="43.48411" lon="6.3952">
        <ele>135</ele>
        <time>2022-04-08T11:46:34Z</time>
      </trkpt>
      <trkpt lat="43.48411" lon="6.39518">
        <ele>135</ele>
        <time>2022-04-08T11:46:35Z</time>
      </trkpt>
      <trkpt lat="43.48411" lon="6.39517">
        <ele>135</ele>
        <time>2022-04-08T11:46:36Z</time>
      </trkpt>
      <trkpt lat="43.4841" lon="6.39516">
        <ele>135</ele>
        <time>2022-04-08T11:46:37Z</time>
      </trkpt>
      <trkpt lat="43.4841" lon="6.39514">
        <ele>135</ele>
        <time>2022-04-08T11:46:38Z</time>
      </trkpt>
      <trkpt lat="43.4841" lon="6.39513">
        <ele>135</ele>
        <time>2022-04-08T11:46:39Z</time>
      </trkpt>
      <trkpt lat="43.4841" lon="6.39512">
        <ele>135</ele>
        <time>2022-04-08T11:46:40Z</time>
      </trkpt>
      <trkpt lat="43.4841" lon="6.3951">
        <ele>135</ele>
        <time>2022-04-08T11:46:41Z</time>
      </trkpt>
      <trkpt lat="43.48409" lon="6.39509">
        <ele>134</ele>
        <time>2022-04-08T11:46:42Z</time>
      </trkpt>
      <trkpt lat="43.48409" lon="6.39508">
        <ele>134</ele>
        <time>2022-04-08T11:46:43Z</time>
      </trkpt>
      <trkpt lat="43.48409" lon="6.39506">
        <ele>134</ele>
        <time>2022-04-08T11:46:44Z</time>
      </trkpt>
      <trkpt lat="43.48409" lon="6.39504">
        <ele>134</ele>
        <time>2022-04-08T11:46:45Z</time>
      </trkpt>
      <trkpt lat="43.48409" lon="6.39503">
        <ele>133</ele>
        <time>2022-04-08T11:46:46Z</time>
      </trkpt>
      <trkpt lat="43.48409" lon="6.39501">
        <ele>133</ele>
        <time>2022-04-08T11:46:47Z</time>
      </trkpt>
      <trkpt lat="43.48409" lon="6.395">
        <ele>133</ele>
        <time>2022-04-08T11:46:48Z</time>
      </trkpt>
      <trkpt lat="43.48409" lon="6.39499">
        <ele>133</ele>
        <time>2022-04-08T11:46:49Z</time>
      </trkpt>
      <trkpt lat="43.48409" lon="6.39497">
        <ele>133</ele>
        <time>2022-04-08T11:46:50Z</time>
      </trkpt>
      <trkpt lat="43.48409" lon="6.39496">
        <ele>133</ele>
        <time>2022-04-08T11:46:51Z</time>
      </trkpt>
      <trkpt lat="43.48409" lon="6.39494">
        <ele>132</ele>
        <time>2022-04-08T11:46:52Z</time>
      </trkpt>
      <trkpt lat="43.48409" lon="6.39493">
        <ele>132</ele>
        <time>2022-04-08T11:46:53Z</time>
      </trkpt>
      <trkpt lat="43.48409" lon="6.39491">
        <ele>132</ele>
        <time>2022-04-08T11:46:54Z</time>
      </trkpt>
      <trkpt lat="43.48409" lon="6.3949">
        <ele>132</ele>
        <time>2022-04-08T11:46:55Z</time>
      </trkpt>
      <trkpt lat="43.48409" lon="6.39489">
        <ele>132</ele>
        <time>2022-04-08T11:46:56Z</time>
      </trkpt>
      <trkpt lat="43.4841" lon="6.39488">
        <ele>132</ele>
        <time>2022-04-08T11:46:57Z</time>
      </trkpt>
      <trkpt lat="43.4841" lon="6.39486">
        <ele>131</ele>
        <time>2022-04-08T11:46:58Z</time>
      </trkpt>
      <trkpt lat="43.4841" lon="6.39485">
        <ele>130</ele>
        <time>2022-04-08T11:46:59Z</time>
      </trkpt>
      <trkpt lat="43.4841" lon="6.39483">
        <ele>130</ele>
        <time>2022-04-08T11:47:00Z</time>
      </trkpt>
      <trkpt lat="43.4841" lon="6.39481">
        <ele>130</ele>
        <time>2022-04-08T11:47:01Z</time>
      </trkpt>
      <trkpt lat="43.48411" lon="6.3948">
        <ele>130</ele>
        <time>2022-04-08T11:47:02Z</time>
      </trkpt>
      <trkpt lat="43.48411" lon="6.39479">
        <ele>130</ele>
        <time>2022-04-08T11:47:03Z</time>
      </trkpt>
      <trkpt lat="43.48411" lon="6.39477">
        <ele>129</ele>
        <time>2022-04-08T11:47:04Z</time>
      </trkpt>
      <trkpt lat="43.48411" lon="6.39476">
        <ele>129</ele>
        <time>2022-04-08T11:47:05Z</time>
      </trkpt>
      <trkpt lat="43.4841" lon="6.39474">
        <ele>129</ele>
        <time>2022-04-08T11:47:06Z</time>
      </trkpt>
      <trkpt lat="43.4841" lon="6.39473">
        <ele>129</ele>
        <time>2022-04-08T11:47:07Z</time>
      </trkpt>
      <trkpt lat="43.4841" lon="6.39472">
        <ele>129</ele>
        <time>2022-04-08T11:47:08Z</time>
      </trkpt>
      <trkpt lat="43.4841" lon="6.39471">
        <ele>129</ele>
        <time>2022-04-08T11:47:09Z</time>
      </trkpt>
      <trkpt lat="43.4841" lon="6.39469">
        <ele>129</ele>
        <time>2022-04-08T11:47:10Z</time>
      </trkpt>
      <trkpt lat="43.4841" lon="6.39468">
        <ele>129</ele>
        <time>2022-04-08T11:47:11Z</time>
      </trkpt>
      <trkpt lat="43.4841" lon="6.39466">
        <ele>129</ele>
        <time>2022-04-08T11:47:12Z</time>
      </trkpt>
      <trkpt lat="43.4841" lon="6.39465">
        <ele>129</ele>
        <time>2022-04-08T11:47:13Z</time>
      </trkpt>
      <trkpt lat="43.4841" lon="6.39464">
        <ele>129</ele>
        <time>2022-04-08T11:47:14Z</time>
      </trkpt>
      <trkpt lat="43.4841" lon="6.39463">
        <ele>130</ele>
        <time>2022-04-08T11:47:15Z</time>
      </trkpt>
      <trkpt lat="43.4841" lon="6.39462">
        <ele>130</ele>
        <time>2022-04-08T11:47:16Z</time>
      </trkpt>
      <trkpt lat="43.4841" lon="6.39462">
        <ele>130</ele>
        <time>2022-04-08T11:47:17Z</time>
      </trkpt>
      <trkpt lat="43.4841" lon="6.39461">
        <ele>130</ele>
        <time>2022-04-08T11:47:18Z</time>
      </trkpt>
      <trkpt lat="43.4841" lon="6.3946">
        <ele>130</ele>
        <time>2022-04-08T11:47:19Z</time>
      </trkpt>
      <trkpt lat="43.4841" lon="6.39459">
        <ele>130</ele>
        <time>2022-04-08T11:47:20Z</time>
      </trkpt>
      <trkpt lat="43.4841" lon="6.39458">
        <ele>130</ele>
        <time>2022-04-08T11:47:21Z</time>
      </trkpt>
      <trkpt lat="43.4841" lon="6.39457">
        <ele>130</ele>
        <time>2022-04-08T11:47:22Z</time>
      </trkpt>
      <trkpt lat="43.4841" lon="6.39455">
        <ele>130</ele>
        <time>2022-04-08T11:47:23Z</time>
      </trkpt>
      <trkpt lat="43.4841" lon="6.39454">
        <ele>130</ele>
        <time>2022-04-08T11:47:24Z</time>
      </trkpt>
      <trkpt lat="43.4841" lon="6.39452">
        <ele>130</ele>
        <time>2022-04-08T11:47:25Z</time>
      </trkpt>
      <trkpt lat="43.4841" lon="6.39451">
        <ele>130</ele>
        <time>2022-04-08T11:47:26Z</time>
      </trkpt>
      <trkpt lat="43.4841" lon="6.39449">
        <ele>130</ele>
        <time>2022-04-08T11:47:27Z</time>
      </trkpt>
      <trkpt lat="43.4841" lon="6.39448">
        <ele>130</ele>
        <time>2022-04-08T11:47:28Z</time>
      </trkpt>
      <trkpt lat="43.4841" lon="6.39447">
        <ele>130</ele>
        <time>2022-04-08T11:47:29Z</time>
      </trkpt>
      <trkpt lat="43.4841" lon="6.39445">
        <ele>130</ele>
        <time>2022-04-08T11:47:30Z</time>
      </trkpt>
      <trkpt lat="43.4841" lon="6.39444">
        <ele>130</ele>
        <time>2022-04-08T11:47:31Z</time>
      </trkpt>
      <trkpt lat="43.4841" lon="6.39443">
        <ele>130</ele>
        <time>2022-04-08T11:47:32Z</time>
      </trkpt>
      <trkpt lat="43.4841" lon="6.39442">
        <ele>130</ele>
        <time>2022-04-08T11:47:33Z</time>
      </trkpt>
      <trkpt lat="43.4841" lon="6.39441">
        <ele>130</ele>
        <time>2022-04-08T11:47:34Z</time>
      </trkpt>
      <trkpt lat="43.4841" lon="6.3944">
        <ele>130</ele>
        <time>2022-04-08T11:47:35Z</time>
      </trkpt>
      <trkpt lat="43.4841" lon="6.39439">
        <ele>130</ele>
        <time>2022-04-08T11:47:36Z</time>
      </trkpt>
      <trkpt lat="43.4841" lon="6.39438">
        <ele>130</ele>
        <time>2022-04-08T11:47:37Z</time>
      </trkpt>
      <trkpt lat="43.4841" lon="6.39437">
        <ele>130</ele>
        <time>2022-04-08T11:47:38Z</time>
      </trkpt>
      <trkpt lat="43.4841" lon="6.39436">
        <ele>130</ele>
        <time>2022-04-08T11:47:39Z</time>
      </trkpt>
      <trkpt lat="43.4841" lon="6.39435">
        <ele>130</ele>
        <time>2022-04-08T11:47:40Z</time>
      </trkpt>
      <trkpt lat="43.48411" lon="6.39434">
        <ele>130</ele>
        <time>2022-04-08T11:47:41Z</time>
      </trkpt>
      <trkpt lat="43.48411" lon="6.39433">
        <ele>130</ele>
        <time>2022-04-08T11:47:42Z</time>
      </trkpt>
      <trkpt lat="43.48412" lon="6.39432">
        <ele>130</ele>
        <time>2022-04-08T11:47:43Z</time>
      </trkpt>
      <trkpt lat="43.48412" lon="6.3943">
        <ele>130</ele>
        <time>2022-04-08T11:47:44Z</time>
      </trkpt>
      <trkpt lat="43.48412" lon="6.39429">
        <ele>130</ele>
        <time>2022-04-08T11:47:45Z</time>
      </trkpt>
      <trkpt lat="43.48412" lon="6.39428">
        <ele>130</ele>
        <time>2022-04-08T11:47:46Z</time>
      </trkpt>
      <trkpt lat="43.48413" lon="6.39426">
        <ele>130</ele>
        <time>2022-04-08T11:47:47Z</time>
      </trkpt>
      <trkpt lat="43.48413" lon="6.39425">
        <ele>130</ele>
        <time>2022-04-08T11:47:48Z</time>
      </trkpt>
      <trkpt lat="43.48413" lon="6.39423">
        <ele>130</ele>
        <time>2022-04-08T11:47:49Z</time>
      </trkpt>
      <trkpt lat="43.48413" lon="6.39422">
        <ele>130</ele>
        <time>2022-04-08T11:47:50Z</time>
      </trkpt>
      <trkpt lat="43.48414" lon="6.39421">
        <ele>130</ele>
        <time>2022-04-08T11:47:51Z</time>
      </trkpt>
      <trkpt lat="43.48414" lon="6.39419">
        <ele>130</ele>
        <time>2022-04-08T11:47:52Z</time>
      </trkpt>
      <trkpt lat="43.48414" lon="6.39418">
        <ele>129</ele>
        <time>2022-04-08T11:47:53Z</time>
      </trkpt>
      <trkpt lat="43.48415" lon="6.39417">
        <ele>129</ele>
        <time>2022-04-08T11:47:54Z</time>
      </trkpt>
      <trkpt lat="43.48415" lon="6.39416">
        <ele>129</ele>
        <time>2022-04-08T11:47:55Z</time>
      </trkpt>
      <trkpt lat="43.48415" lon="6.39415">
        <ele>129</ele>
        <time>2022-04-08T11:47:56Z</time>
      </trkpt>
      <trkpt lat="43.48415" lon="6.39414">
        <ele>129</ele>
        <time>2022-04-08T11:47:57Z</time>
      </trkpt>
      <trkpt lat="43.48416" lon="6.39413">
        <ele>129</ele>
        <time>2022-04-08T11:47:58Z</time>
      </trkpt>
      <trkpt lat="43.48416" lon="6.39412">
        <ele>129</ele>
        <time>2022-04-08T11:47:59Z</time>
      </trkpt>
      <trkpt lat="43.48416" lon="6.3941">
        <ele>129</ele>
        <time>2022-04-08T11:48:00Z</time>
      </trkpt>
      <trkpt lat="43.48416" lon="6.39409">
        <ele>129</ele>
        <time>2022-04-08T11:48:01Z</time>
      </trkpt>
      <trkpt lat="43.48416" lon="6.39408">
        <ele>129</ele>
        <time>2022-04-08T11:48:02Z</time>
      </trkpt>
      <trkpt lat="43.48417" lon="6.39407">
        <ele>129</ele>
        <time>2022-04-08T11:48:03Z</time>
      </trkpt>
      <trkpt lat="43.48417" lon="6.39405">
        <ele>129</ele>
        <time>2022-04-08T11:48:04Z</time>
      </trkpt>
      <trkpt lat="43.48417" lon="6.39404">
        <ele>130</ele>
        <time>2022-04-08T11:48:05Z</time>
      </trkpt>
      <trkpt lat="43.48417" lon="6.39403">
        <ele>130</ele>
        <time>2022-04-08T11:48:06Z</time>
      </trkpt>
      <trkpt lat="43.48418" lon="6.39401">
        <ele>130</ele>
        <time>2022-04-08T11:48:07Z</time>
      </trkpt>
      <trkpt lat="43.48418" lon="6.394">
        <ele>130</ele>
        <time>2022-04-08T11:48:08Z</time>
      </trkpt>
      <trkpt lat="43.48418" lon="6.39399">
        <ele>130</ele>
        <time>2022-04-08T11:48:09Z</time>
      </trkpt>
      <trkpt lat="43.48419" lon="6.39398">
        <ele>130</ele>
        <time>2022-04-08T11:48:10Z</time>
      </trkpt>
      <trkpt lat="43.48419" lon="6.39396">
        <ele>130</ele>
        <time>2022-04-08T11:48:11Z</time>
      </trkpt>
      <trkpt lat="43.48419" lon="6.39395">
        <ele>130</ele>
        <time>2022-04-08T11:48:12Z</time>
      </trkpt>
      <trkpt lat="43.4842" lon="6.39394">
        <ele>130</ele>
        <time>2022-04-08T11:48:13Z</time>
      </trkpt>
      <trkpt lat="43.4842" lon="6.39393">
        <ele>130</ele>
        <time>2022-04-08T11:48:14Z</time>
      </trkpt>
      <trkpt lat="43.4842" lon="6.39392">
        <ele>130</ele>
        <time>2022-04-08T11:48:15Z</time>
      </trkpt>
      <trkpt lat="43.4842" lon="6.39391">
        <ele>130</ele>
        <time>2022-04-08T11:48:16Z</time>
      </trkpt>
      <trkpt lat="43.48421" lon="6.39389">
        <ele>130</ele>
        <time>2022-04-08T11:48:17Z</time>
      </trkpt>
      <trkpt lat="43.48421" lon="6.39388">
        <ele>130</ele>
        <time>2022-04-08T11:48:18Z</time>
      </trkpt>
      <trkpt lat="43.48421" lon="6.39386">
        <ele>130</ele>
        <time>2022-04-08T11:48:19Z</time>
      </trkpt>
      <trkpt lat="43.48421" lon="6.39385">
        <ele>130</ele>
        <time>2022-04-08T11:48:20Z</time>
      </trkpt>
      <trkpt lat="43.48421" lon="6.39384">
        <ele>130</ele>
        <time>2022-04-08T11:48:21Z</time>
      </trkpt>
      <trkpt lat="43.48421" lon="6.39383">
        <ele>130</ele>
        <time>2022-04-08T11:48:22Z</time>
      </trkpt>
      <trkpt lat="43.48421" lon="6.39381">
        <ele>130</ele>
        <time>2022-04-08T11:48:23Z</time>
      </trkpt>
      <trkpt lat="43.48422" lon="6.3938">
        <ele>130</ele>
        <time>2022-04-08T11:48:24Z</time>
      </trkpt>
      <trkpt lat="43.48422" lon="6.39378">
        <ele>130</ele>
        <time>2022-04-08T11:48:25Z</time>
      </trkpt>
      <trkpt lat="43.48422" lon="6.39377">
        <ele>130</ele>
        <time>2022-04-08T11:48:26Z</time>
      </trkpt>
      <trkpt lat="43.48422" lon="6.39376">
        <ele>131</ele>
        <time>2022-04-08T11:48:27Z</time>
      </trkpt>
      <trkpt lat="43.48422" lon="6.39374">
        <ele>131</ele>
        <time>2022-04-08T11:48:28Z</time>
      </trkpt>
      <trkpt lat="43.48423" lon="6.39373">
        <ele>131</ele>
        <time>2022-04-08T11:48:29Z</time>
      </trkpt>
      <trkpt lat="43.48423" lon="6.39372">
        <ele>131</ele>
        <time>2022-04-08T11:48:30Z</time>
      </trkpt>
      <trkpt lat="43.48423" lon="6.3937">
        <ele>131</ele>
        <time>2022-04-08T11:48:31Z</time>
      </trkpt>
      <trkpt lat="43.48424" lon="6.39368">
        <ele>131</ele>
        <time>2022-04-08T11:48:32Z</time>
      </trkpt>
      <trkpt lat="43.48424" lon="6.39367">
        <ele>131</ele>
        <time>2022-04-08T11:48:33Z</time>
      </trkpt>
      <trkpt lat="43.48424" lon="6.39366">
        <ele>132</ele>
        <time>2022-04-08T11:48:34Z</time>
      </trkpt>
      <trkpt lat="43.48424" lon="6.39364">
        <ele>132</ele>
        <time>2022-04-08T11:48:35Z</time>
      </trkpt>
      <trkpt lat="43.48425" lon="6.39362">
        <ele>132</ele>
        <time>2022-04-08T11:48:36Z</time>
      </trkpt>
      <trkpt lat="43.48425" lon="6.39361">
        <ele>132</ele>
        <time>2022-04-08T11:48:37Z</time>
      </trkpt>
      <trkpt lat="43.48425" lon="6.39359">
        <ele>132</ele>
        <time>2022-04-08T11:48:38Z</time>
      </trkpt>
      <trkpt lat="43.48425" lon="6.39357">
        <ele>132</ele>
        <time>2022-04-08T11:48:39Z</time>
      </trkpt>
      <trkpt lat="43.48425" lon="6.39356">
        <ele>132</ele>
        <time>2022-04-08T11:48:40Z</time>
      </trkpt>
      <trkpt lat="43.48426" lon="6.39354">
        <ele>132</ele>
        <time>2022-04-08T11:48:41Z</time>
      </trkpt>
      <trkpt lat="43.48426" lon="6.39353">
        <ele>132</ele>
        <time>2022-04-08T11:48:42Z</time>
      </trkpt>
      <trkpt lat="43.48426" lon="6.39351">
        <ele>132</ele>
        <time>2022-04-08T11:48:43Z</time>
      </trkpt>
      <trkpt lat="43.48426" lon="6.39349">
        <ele>132</ele>
        <time>2022-04-08T11:48:44Z</time>
      </trkpt>
      <trkpt lat="43.48426" lon="6.39348">
        <ele>132</ele>
        <time>2022-04-08T11:48:45Z</time>
      </trkpt>
      <trkpt lat="43.48427" lon="6.39346">
        <ele>132</ele>
        <time>2022-04-08T11:48:46Z</time>
      </trkpt>
      <trkpt lat="43.48427" lon="6.39345">
        <ele>132</ele>
        <time>2022-04-08T11:48:47Z</time>
      </trkpt>
      <trkpt lat="43.48427" lon="6.39343">
        <ele>132</ele>
        <time>2022-04-08T11:48:48Z</time>
      </trkpt>
      <trkpt lat="43.48427" lon="6.39342">
        <ele>132</ele>
        <time>2022-04-08T11:48:49Z</time>
      </trkpt>
      <trkpt lat="43.48427" lon="6.39341">
        <ele>132</ele>
        <time>2022-04-08T11:48:50Z</time>
      </trkpt>
      <trkpt lat="43.48428" lon="6.39339">
        <ele>132</ele>
        <time>2022-04-08T11:48:51Z</time>
      </trkpt>
      <trkpt lat="43.48428" lon="6.39338">
        <ele>132</ele>
        <time>2022-04-08T11:48:52Z</time>
      </trkpt>
      <trkpt lat="43.48428" lon="6.39337">
        <ele>132</ele>
        <time>2022-04-08T11:48:53Z</time>
      </trkpt>
      <trkpt lat="43.48429" lon="6.39335">
        <ele>132</ele>
        <time>2022-04-08T11:48:54Z</time>
      </trkpt>
      <trkpt lat="43.48429" lon="6.39334">
        <ele>132</ele>
        <time>2022-04-08T11:48:55Z</time>
      </trkpt>
      <trkpt lat="43.48429" lon="6.39333">
        <ele>132</ele>
        <time>2022-04-08T11:48:56Z</time>
      </trkpt>
      <trkpt lat="43.4843" lon="6.39331">
        <ele>132</ele>
        <time>2022-04-08T11:48:57Z</time>
      </trkpt>
      <trkpt lat="43.4843" lon="6.3933">
        <ele>131</ele>
        <time>2022-04-08T11:48:58Z</time>
      </trkpt>
      <trkpt lat="43.4843" lon="6.39328">
        <ele>131</ele>
        <time>2022-04-08T11:48:59Z</time>
      </trkpt>
      <trkpt lat="43.48431" lon="6.39327">
        <ele>131</ele>
        <time>2022-04-08T11:49:00Z</time>
      </trkpt>
      <trkpt lat="43.48431" lon="6.39325">
        <ele>131</ele>
        <time>2022-04-08T11:49:01Z</time>
      </trkpt>
      <trkpt lat="43.48431" lon="6.39324">
        <ele>131</ele>
        <time>2022-04-08T11:49:02Z</time>
      </trkpt>
      <trkpt lat="43.48432" lon="6.39322">
        <ele>131</ele>
        <time>2022-04-08T11:49:03Z</time>
      </trkpt>
      <trkpt lat="43.48432" lon="6.39321">
        <ele>130</ele>
        <time>2022-04-08T11:49:04Z</time>
      </trkpt>
      <trkpt lat="43.48432" lon="6.39319">
        <ele>130</ele>
        <time>2022-04-08T11:49:05Z</time>
      </trkpt>
      <trkpt lat="43.48432" lon="6.39318">
        <ele>130</ele>
        <time>2022-04-08T11:49:06Z</time>
      </trkpt>
      <trkpt lat="43.48432" lon="6.39317">
        <ele>130</ele>
        <time>2022-04-08T11:49:07Z</time>
      </trkpt>
      <trkpt lat="43.48433" lon="6.39315">
        <ele>130</ele>
        <time>2022-04-08T11:49:08Z</time>
      </trkpt>
      <trkpt lat="43.48433" lon="6.39313">
        <ele>129</ele>
        <time>2022-04-08T11:49:09Z</time>
      </trkpt>
      <trkpt lat="43.48433" lon="6.39312">
        <ele>129</ele>
        <time>2022-04-08T11:49:10Z</time>
      </trkpt>
      <trkpt lat="43.48434" lon="6.3931">
        <ele>129</ele>
        <time>2022-04-08T11:49:11Z</time>
      </trkpt>
      <trkpt lat="43.48434" lon="6.39309">
        <ele>129</ele>
        <time>2022-04-08T11:49:12Z</time>
      </trkpt>
      <trkpt lat="43.48434" lon="6.39308">
        <ele>129</ele>
        <time>2022-04-08T11:49:13Z</time>
      </trkpt>
      <trkpt lat="43.48435" lon="6.39306">
        <ele>129</ele>
        <time>2022-04-08T11:49:14Z</time>
      </trkpt>
      <trkpt lat="43.48435" lon="6.39305">
        <ele>129</ele>
        <time>2022-04-08T11:49:15Z</time>
      </trkpt>
      <trkpt lat="43.48436" lon="6.39304">
        <ele>129</ele>
        <time>2022-04-08T11:49:16Z</time>
      </trkpt>
      <trkpt lat="43.48436" lon="6.39302">
        <ele>129</ele>
        <time>2022-04-08T11:49:17Z</time>
      </trkpt>
      <trkpt lat="43.48436" lon="6.39301">
        <ele>129</ele>
        <time>2022-04-08T11:49:18Z</time>
      </trkpt>
      <trkpt lat="43.48437" lon="6.393">
        <ele>129</ele>
        <time>2022-04-08T11:49:19Z</time>
      </trkpt>
      <trkpt lat="43.48437" lon="6.39299">
        <ele>129</ele>
        <time>2022-04-08T11:49:20Z</time>
      </trkpt>
      <trkpt lat="43.48438" lon="6.39297">
        <ele>129</ele>
        <time>2022-04-08T11:49:21Z</time>
      </trkpt>
      <trkpt lat="43.48438" lon="6.39296">
        <ele>129</ele>
        <time>2022-04-08T11:49:22Z</time>
      </trkpt>
      <trkpt lat="43.48438" lon="6.39295">
        <ele>129</ele>
        <time>2022-04-08T11:49:23Z</time>
      </trkpt>
      <trkpt lat="43.48439" lon="6.39294">
        <ele>129</ele>
        <time>2022-04-08T11:49:24Z</time>
      </trkpt>
      <trkpt lat="43.48439" lon="6.39292">
        <ele>129</ele>
        <time>2022-04-08T11:49:25Z</time>
      </trkpt>
      <trkpt lat="43.4844" lon="6.39291">
        <ele>129</ele>
        <time>2022-04-08T11:49:26Z</time>
      </trkpt>
      <trkpt lat="43.4844" lon="6.39289">
        <ele>129</ele>
        <time>2022-04-08T11:49:27Z</time>
      </trkpt>
      <trkpt lat="43.4844" lon="6.39288">
        <ele>129</ele>
        <time>2022-04-08T11:49:28Z</time>
      </trkpt>
      <trkpt lat="43.48441" lon="6.39287">
        <ele>129</ele>
        <time>2022-04-08T11:49:29Z</time>
      </trkpt>
      <trkpt lat="43.48441" lon="6.39286">
        <ele>129</ele>
        <time>2022-04-08T11:49:30Z</time>
      </trkpt>
      <trkpt lat="43.48441" lon="6.39284">
        <ele>130</ele>
        <time>2022-04-08T11:49:31Z</time>
      </trkpt>
      <trkpt lat="43.48441" lon="6.39283">
        <ele>130</ele>
        <time>2022-04-08T11:49:32Z</time>
      </trkpt>
      <trkpt lat="43.48442" lon="6.39282">
        <ele>130</ele>
        <time>2022-04-08T11:49:33Z</time>
      </trkpt>
      <trkpt lat="43.48442" lon="6.39281">
        <ele>130</ele>
        <time>2022-04-08T11:49:34Z</time>
      </trkpt>
      <trkpt lat="43.48442" lon="6.39279">
        <ele>130</ele>
        <time>2022-04-08T11:49:35Z</time>
      </trkpt>
      <trkpt lat="43.48442" lon="6.39278">
        <ele>130</ele>
        <time>2022-04-08T11:49:36Z</time>
      </trkpt>
      <trkpt lat="43.48442" lon="6.39276">
        <ele>130</ele>
        <time>2022-04-08T11:49:37Z</time>
      </trkpt>
      <trkpt lat="43.48443" lon="6.39275">
        <ele>130</ele>
        <time>2022-04-08T11:49:38Z</time>
      </trkpt>
      <trkpt lat="43.48443" lon="6.39273">
        <ele>130</ele>
        <time>2022-04-08T11:49:39Z</time>
      </trkpt>
      <trkpt lat="43.48443" lon="6.39272">
        <ele>130</ele>
        <time>2022-04-08T11:49:40Z</time>
      </trkpt>
      <trkpt lat="43.48443" lon="6.39271">
        <ele>130</ele>
        <time>2022-04-08T11:49:41Z</time>
      </trkpt>
      <trkpt lat="43.48443" lon="6.39269">
        <ele>130</ele>
        <time>2022-04-08T11:49:42Z</time>
      </trkpt>
      <trkpt lat="43.48444" lon="6.39268">
        <ele>130</ele>
        <time>2022-04-08T11:49:43Z</time>
      </trkpt>
      <trkpt lat="43.48444" lon="6.39266">
        <ele>130</ele>
        <time>2022-04-08T11:49:44Z</time>
      </trkpt>
      <trkpt lat="43.48444" lon="6.39264">
        <ele>130</ele>
        <time>2022-04-08T11:49:45Z</time>
      </trkpt>
      <trkpt lat="43.48444" lon="6.39263">
        <ele>131</ele>
        <time>2022-04-08T11:49:46Z</time>
      </trkpt>
      <trkpt lat="43.48443" lon="6.39261">
        <ele>131</ele>
        <time>2022-04-08T11:49:47Z</time>
      </trkpt>
      <trkpt lat="43.48443" lon="6.3926">
        <ele>131</ele>
        <time>2022-04-08T11:49:48Z</time>
      </trkpt>
      <trkpt lat="43.48443" lon="6.39258">
        <ele>131</ele>
        <time>2022-04-08T11:49:49Z</time>
      </trkpt>
      <trkpt lat="43.48443" lon="6.39257">
        <ele>131</ele>
        <time>2022-04-08T11:49:50Z</time>
      </trkpt>
      <trkpt lat="43.48443" lon="6.39255">
        <ele>131</ele>
        <time>2022-04-08T11:49:51Z</time>
      </trkpt>
      <trkpt lat="43.48442" lon="6.39254">
        <ele>131</ele>
        <time>2022-04-08T11:49:52Z</time>
      </trkpt>
      <trkpt lat="43.48442" lon="6.39253">
        <ele>131</ele>
        <time>2022-04-08T11:49:53Z</time>
      </trkpt>
      <trkpt lat="43.48442" lon="6.39251">
        <ele>131</ele>
        <time>2022-04-08T11:49:54Z</time>
      </trkpt>
      <trkpt lat="43.48442" lon="6.3925">
        <ele>131</ele>
        <time>2022-04-08T11:49:55Z</time>
      </trkpt>
      <trkpt lat="43.48441" lon="6.39249">
        <ele>131</ele>
        <time>2022-04-08T11:49:56Z</time>
      </trkpt>
      <trkpt lat="43.48441" lon="6.39248">
        <ele>131</ele>
        <time>2022-04-08T11:49:57Z</time>
      </trkpt>
      <trkpt lat="43.4844" lon="6.39247">
        <ele>131</ele>
        <time>2022-04-08T11:49:58Z</time>
      </trkpt>
      <trkpt lat="43.4844" lon="6.39245">
        <ele>131</ele>
        <time>2022-04-08T11:49:59Z</time>
      </trkpt>
      <trkpt lat="43.48439" lon="6.39244">
        <ele>132</ele>
        <time>2022-04-08T11:50:00Z</time>
      </trkpt>
      <trkpt lat="43.48438" lon="6.39243">
        <ele>132</ele>
        <time>2022-04-08T11:50:01Z</time>
      </trkpt>
      <trkpt lat="43.48438" lon="6.39242">
        <ele>132</ele>
        <time>2022-04-08T11:50:02Z</time>
      </trkpt>
      <trkpt lat="43.48437" lon="6.39242">
        <ele>132</ele>
        <time>2022-04-08T11:50:03Z</time>
      </trkpt>
      <trkpt lat="43.48436" lon="6.39241">
        <ele>132</ele>
        <time>2022-04-08T11:50:04Z</time>
      </trkpt>
      <trkpt lat="43.48436" lon="6.39241">
        <ele>132</ele>
        <time>2022-04-08T11:50:05Z</time>
      </trkpt>
      <trkpt lat="43.48435" lon="6.3924">
        <ele>132</ele>
        <time>2022-04-08T11:50:06Z</time>
      </trkpt>
      <trkpt lat="43.48435" lon="6.39239">
        <ele>133</ele>
        <time>2022-04-08T11:50:07Z</time>
      </trkpt>
      <trkpt lat="43.48434" lon="6.39238">
        <ele>133</ele>
        <time>2022-04-08T11:50:08Z</time>
      </trkpt>
      <trkpt lat="43.48434" lon="6.39237">
        <ele>133</ele>
        <time>2022-04-08T11:50:09Z</time>
      </trkpt>
      <trkpt lat="43.48433" lon="6.39236">
        <ele>133</ele>
        <time>2022-04-08T11:50:10Z</time>
      </trkpt>
      <trkpt lat="43.48433" lon="6.39235">
        <ele>133</ele>
        <time>2022-04-08T11:50:11Z</time>
      </trkpt>
      <trkpt lat="43.48433" lon="6.39234">
        <ele>133</ele>
        <time>2022-04-08T11:50:12Z</time>
      </trkpt>
      <trkpt lat="43.48432" lon="6.39233">
        <ele>133</ele>
        <time>2022-04-08T11:50:13Z</time>
      </trkpt>
      <trkpt lat="43.48432" lon="6.39231">
        <ele>133</ele>
        <time>2022-04-08T11:50:14Z</time>
      </trkpt>
      <trkpt lat="43.48432" lon="6.3923">
        <ele>133</ele>
        <time>2022-04-08T11:50:15Z</time>
      </trkpt>
      <trkpt lat="43.48431" lon="6.39229">
        <ele>133</ele>
        <time>2022-04-08T11:50:16Z</time>
      </trkpt>
      <trkpt lat="43.48431" lon="6.39229">
        <ele>134</ele>
        <time>2022-04-08T11:50:17Z</time>
      </trkpt>
      <trkpt lat="43.48431" lon="6.39228">
        <ele>134</ele>
        <time>2022-04-08T11:50:18Z</time>
      </trkpt>
      <trkpt lat="43.48431" lon="6.39227">
        <ele>134</ele>
        <time>2022-04-08T11:50:19Z</time>
      </trkpt>
      <trkpt lat="43.48431" lon="6.39226">
        <ele>134</ele>
        <time>2022-04-08T11:50:20Z</time>
      </trkpt>
      <trkpt lat="43.4843" lon="6.39225">
        <ele>134</ele>
        <time>2022-04-08T11:50:21Z</time>
      </trkpt>
      <trkpt lat="43.4843" lon="6.39224">
        <ele>134</ele>
        <time>2022-04-08T11:50:22Z</time>
      </trkpt>
      <trkpt lat="43.48429" lon="6.39223">
        <ele>135</ele>
        <time>2022-04-08T11:50:23Z</time>
      </trkpt>
      <trkpt lat="43.48429" lon="6.39222">
        <ele>135</ele>
        <time>2022-04-08T11:50:24Z</time>
      </trkpt>
      <trkpt lat="43.48429" lon="6.39221">
        <ele>135</ele>
        <time>2022-04-08T11:50:25Z</time>
      </trkpt>
      <trkpt lat="43.48429" lon="6.39221">
        <ele>135</ele>
        <time>2022-04-08T11:50:26Z</time>
      </trkpt>
      <trkpt lat="43.48429" lon="6.39221">
        <ele>135</ele>
        <time>2022-04-08T11:50:27Z</time>
      </trkpt>
      <trkpt lat="43.48429" lon="6.39221">
        <ele>135</ele>
        <time>2022-04-08T11:50:28Z</time>
      </trkpt>
      <trkpt lat="43.48429" lon="6.3922">
        <ele>135</ele>
        <time>2022-04-08T11:50:29Z</time>
      </trkpt>
      <trkpt lat="43.48429" lon="6.3922">
        <ele>135</ele>
        <time>2022-04-08T11:50:30Z</time>
      </trkpt>
      <trkpt lat="43.48429" lon="6.3922">
        <ele>135</ele>
        <time>2022-04-08T11:50:31Z</time>
      </trkpt>
      <trkpt lat="43.48429" lon="6.3922">
        <ele>135</ele>
        <time>2022-04-08T11:50:32Z</time>
      </trkpt>
      <trkpt lat="43.48429" lon="6.3922">
        <ele>135</ele>
        <time>2022-04-08T11:50:33Z</time>
      </trkpt>
      <trkpt lat="43.48429" lon="6.3922">
        <ele>135</ele>
        <time>2022-04-08T11:50:34Z</time>
      </trkpt>
      <trkpt lat="43.48429" lon="6.39219">
        <ele>135</ele>
        <time>2022-04-08T11:50:35Z</time>
      </trkpt>
      <trkpt lat="43.48429" lon="6.39219">
        <ele>135</ele>
        <time>2022-04-08T11:50:36Z</time>
      </trkpt>
      <trkpt lat="43.48429" lon="6.39219">
        <ele>135</ele>
        <time>2022-04-08T11:50:37Z</time>
      </trkpt>
      <trkpt lat="43.48429" lon="6.39219">
        <ele>135</ele>
        <time>2022-04-08T11:50:38Z</time>
      </trkpt>
      <trkpt lat="43.48429" lon="6.39219">
        <ele>135</ele>
        <time>2022-04-08T11:50:39Z</time>
      </trkpt>
      <trkpt lat="43.48429" lon="6.39218">
        <ele>135</ele>
        <time>2022-04-08T11:50:40Z</time>
      </trkpt>
      <trkpt lat="43.48429" lon="6.39218">
        <ele>135</ele>
        <time>2022-04-08T11:50:41Z</time>
      </trkpt>
      <trkpt lat="43.48429" lon="6.39217">
        <ele>135</ele>
        <time>2022-04-08T11:50:42Z</time>
      </trkpt>
      <trkpt lat="43.48429" lon="6.39217">
        <ele>135</ele>
        <time>2022-04-08T11:50:43Z</time>
      </trkpt>
      <trkpt lat="43.4843" lon="6.39215">
        <ele>135</ele>
        <time>2022-04-08T11:50:44Z</time>
      </trkpt>
      <trkpt lat="43.48431" lon="6.39213">
        <ele>135</ele>
        <time>2022-04-08T11:50:45Z</time>
      </trkpt>
      <trkpt lat="43.48431" lon="6.39212">
        <ele>135</ele>
        <time>2022-04-08T11:50:46Z</time>
      </trkpt>
      <trkpt lat="43.48432" lon="6.39211">
        <ele>135</ele>
        <time>2022-04-08T11:50:47Z</time>
      </trkpt>
      <trkpt lat="43.48432" lon="6.3921">
        <ele>135</ele>
        <time>2022-04-08T11:50:48Z</time>
      </trkpt>
      <trkpt lat="43.48432" lon="6.39209">
        <ele>135</ele>
        <time>2022-04-08T11:50:49Z</time>
      </trkpt>
      <trkpt lat="43.48432" lon="6.39208">
        <ele>135</ele>
        <time>2022-04-08T11:50:50Z</time>
      </trkpt>
      <trkpt lat="43.48432" lon="6.39207">
        <ele>135</ele>
        <time>2022-04-08T11:50:51Z</time>
      </trkpt>
      <trkpt lat="43.48432" lon="6.39206">
        <ele>135</ele>
        <time>2022-04-08T11:50:52Z</time>
      </trkpt>
      <trkpt lat="43.48432" lon="6.39204">
        <ele>135</ele>
        <time>2022-04-08T11:50:53Z</time>
      </trkpt>
      <trkpt lat="43.48433" lon="6.39203">
        <ele>135</ele>
        <time>2022-04-08T11:50:54Z</time>
      </trkpt>
      <trkpt lat="43.48433" lon="6.39201">
        <ele>135</ele>
        <time>2022-04-08T11:50:55Z</time>
      </trkpt>
      <trkpt lat="43.48433" lon="6.392">
        <ele>135</ele>
        <time>2022-04-08T11:50:56Z</time>
      </trkpt>
      <trkpt lat="43.48433" lon="6.39199">
        <ele>135</ele>
        <time>2022-04-08T11:50:57Z</time>
      </trkpt>
      <trkpt lat="43.48433" lon="6.39197">
        <ele>135</ele>
        <time>2022-04-08T11:50:58Z</time>
      </trkpt>
      <trkpt lat="43.48433" lon="6.39196">
        <ele>135</ele>
        <time>2022-04-08T11:50:59Z</time>
      </trkpt>
      <trkpt lat="43.48433" lon="6.39195">
        <ele>135</ele>
        <time>2022-04-08T11:51:00Z</time>
      </trkpt>
      <trkpt lat="43.48433" lon="6.39194">
        <ele>135</ele>
        <time>2022-04-08T11:51:01Z</time>
      </trkpt>
      <trkpt lat="43.48433" lon="6.39192">
        <ele>135</ele>
        <time>2022-04-08T11:51:02Z</time>
      </trkpt>
      <trkpt lat="43.48433" lon="6.39191">
        <ele>135</ele>
        <time>2022-04-08T11:51:03Z</time>
      </trkpt>
      <trkpt lat="43.48432" lon="6.3919">
        <ele>135</ele>
        <time>2022-04-08T11:51:04Z</time>
      </trkpt>
      <trkpt lat="43.48432" lon="6.39189">
        <ele>135</ele>
        <time>2022-04-08T11:51:05Z</time>
      </trkpt>
      <trkpt lat="43.48432" lon="6.39187">
        <ele>135</ele>
        <time>2022-04-08T11:51:06Z</time>
      </trkpt>
      <trkpt lat="43.48431" lon="6.39186">
        <ele>135</ele>
        <time>2022-04-08T11:51:07Z</time>
      </trkpt>
      <trkpt lat="43.48431" lon="6.39184">
        <ele>135</ele>
        <time>2022-04-08T11:51:08Z</time>
      </trkpt>
      <trkpt lat="43.4843" lon="6.39182">
        <ele>135</ele>
        <time>2022-04-08T11:51:09Z</time>
      </trkpt>
      <trkpt lat="43.4843" lon="6.39179">
        <ele>135</ele>
        <time>2022-04-08T11:51:10Z</time>
      </trkpt>
      <trkpt lat="43.4843" lon="6.39177">
        <ele>135</ele>
        <time>2022-04-08T11:51:11Z</time>
      </trkpt>
      <trkpt lat="43.48429" lon="6.39174">
        <ele>135</ele>
        <time>2022-04-08T11:51:12Z</time>
      </trkpt>
      <trkpt lat="43.48429" lon="6.39172">
        <ele>135</ele>
        <time>2022-04-08T11:51:13Z</time>
      </trkpt>
      <trkpt lat="43.48428" lon="6.3917">
        <ele>135</ele>
        <time>2022-04-08T11:51:14Z</time>
      </trkpt>
      <trkpt lat="43.48428" lon="6.39168">
        <ele>135</ele>
        <time>2022-04-08T11:51:15Z</time>
      </trkpt>
      <trkpt lat="43.48428" lon="6.39166">
        <ele>135</ele>
        <time>2022-04-08T11:51:16Z</time>
      </trkpt>
      <trkpt lat="43.48428" lon="6.39164">
        <ele>135</ele>
        <time>2022-04-08T11:51:17Z</time>
      </trkpt>
      <trkpt lat="43.48427" lon="6.39163">
        <ele>135</ele>
        <time>2022-04-08T11:51:18Z</time>
      </trkpt>
      <trkpt lat="43.48427" lon="6.39161">
        <ele>135</ele>
        <time>2022-04-08T11:51:19Z</time>
      </trkpt>
      <trkpt lat="43.48427" lon="6.3916">
        <ele>135</ele>
        <time>2022-04-08T11:51:20Z</time>
      </trkpt>
      <trkpt lat="43.48427" lon="6.39158">
        <ele>135</ele>
        <time>2022-04-08T11:51:21Z</time>
      </trkpt>
      <trkpt lat="43.48428" lon="6.39157">
        <ele>135</ele>
        <time>2022-04-08T11:51:22Z</time>
      </trkpt>
      <trkpt lat="43.48428" lon="6.39155">
        <ele>135</ele>
        <time>2022-04-08T11:51:23Z</time>
      </trkpt>
      <trkpt lat="43.48428" lon="6.39153">
        <ele>135</ele>
        <time>2022-04-08T11:51:24Z</time>
      </trkpt>
      <trkpt lat="43.48428" lon="6.39152">
        <ele>135</ele>
        <time>2022-04-08T11:51:25Z</time>
      </trkpt>
      <trkpt lat="43.48427" lon="6.3915">
        <ele>135</ele>
        <time>2022-04-08T11:51:26Z</time>
      </trkpt>
      <trkpt lat="43.48427" lon="6.39149">
        <ele>135</ele>
        <time>2022-04-08T11:51:27Z</time>
      </trkpt>
      <trkpt lat="43.48427" lon="6.39148">
        <ele>135</ele>
        <time>2022-04-08T11:51:28Z</time>
      </trkpt>
      <trkpt lat="43.48427" lon="6.39146">
        <ele>135</ele>
        <time>2022-04-08T11:51:29Z</time>
      </trkpt>
      <trkpt lat="43.48426" lon="6.39144">
        <ele>135</ele>
        <time>2022-04-08T11:51:30Z</time>
      </trkpt>
      <trkpt lat="43.48426" lon="6.39143">
        <ele>135</ele>
        <time>2022-04-08T11:51:31Z</time>
      </trkpt>
      <trkpt lat="43.48426" lon="6.39141">
        <ele>135</ele>
        <time>2022-04-08T11:51:32Z</time>
      </trkpt>
      <trkpt lat="43.48425" lon="6.3914">
        <ele>135</ele>
        <time>2022-04-08T11:51:33Z</time>
      </trkpt>
      <trkpt lat="43.48425" lon="6.39138">
        <ele>135</ele>
        <time>2022-04-08T11:51:34Z</time>
      </trkpt>
      <trkpt lat="43.48425" lon="6.39136">
        <ele>135</ele>
        <time>2022-04-08T11:51:35Z</time>
      </trkpt>
      <trkpt lat="43.48424" lon="6.39134">
        <ele>135</ele>
        <time>2022-04-08T11:51:36Z</time>
      </trkpt>
      <trkpt lat="43.48424" lon="6.39133">
        <ele>135</ele>
        <time>2022-04-08T11:51:37Z</time>
      </trkpt>
      <trkpt lat="43.48424" lon="6.39132">
        <ele>135</ele>
        <time>2022-04-08T11:51:38Z</time>
      </trkpt>
      <trkpt lat="43.48424" lon="6.3913">
        <ele>135</ele>
        <time>2022-04-08T11:51:39Z</time>
      </trkpt>
      <trkpt lat="43.48423" lon="6.39129">
        <ele>135</ele>
        <time>2022-04-08T11:51:40Z</time>
      </trkpt>
      <trkpt lat="43.48423" lon="6.39127">
        <ele>135</ele>
        <time>2022-04-08T11:51:41Z</time>
      </trkpt>
      <trkpt lat="43.48423" lon="6.39125">
        <ele>135</ele>
        <time>2022-04-08T11:51:42Z</time>
      </trkpt>
      <trkpt lat="43.48423" lon="6.39124">
        <ele>134</ele>
        <time>2022-04-08T11:51:43Z</time>
      </trkpt>
      <trkpt lat="43.48423" lon="6.39122">
        <ele>134</ele>
        <time>2022-04-08T11:51:44Z</time>
      </trkpt>
      <trkpt lat="43.48422" lon="6.3912">
        <ele>134</ele>
        <time>2022-04-08T11:51:45Z</time>
      </trkpt>
      <trkpt lat="43.48422" lon="6.39119">
        <ele>134</ele>
        <time>2022-04-08T11:51:46Z</time>
      </trkpt>
      <trkpt lat="43.48422" lon="6.39117">
        <ele>135</ele>
        <time>2022-04-08T11:51:47Z</time>
      </trkpt>
      <trkpt lat="43.48422" lon="6.39116">
        <ele>135</ele>
        <time>2022-04-08T11:51:48Z</time>
      </trkpt>
      <trkpt lat="43.48422" lon="6.39114">
        <ele>135</ele>
        <time>2022-04-08T11:51:49Z</time>
      </trkpt>
      <trkpt lat="43.48421" lon="6.39113">
        <ele>135</ele>
        <time>2022-04-08T11:51:50Z</time>
      </trkpt>
      <trkpt lat="43.48421" lon="6.39111">
        <ele>135</ele>
        <time>2022-04-08T11:51:51Z</time>
      </trkpt>
      <trkpt lat="43.48421" lon="6.39109">
        <ele>135</ele>
        <time>2022-04-08T11:51:52Z</time>
      </trkpt>
      <trkpt lat="43.4842" lon="6.39108">
        <ele>135</ele>
        <time>2022-04-08T11:51:53Z</time>
      </trkpt>
      <trkpt lat="43.4842" lon="6.39106">
        <ele>135</ele>
        <time>2022-04-08T11:51:54Z</time>
      </trkpt>
      <trkpt lat="43.4842" lon="6.39104">
        <ele>135</ele>
        <time>2022-04-08T11:51:55Z</time>
      </trkpt>
      <trkpt lat="43.4842" lon="6.39103">
        <ele>135</ele>
        <time>2022-04-08T11:51:56Z</time>
      </trkpt>
      <trkpt lat="43.4842" lon="6.39101">
        <ele>135</ele>
        <time>2022-04-08T11:51:57Z</time>
      </trkpt>
      <trkpt lat="43.48419" lon="6.39099">
        <ele>135</ele>
        <time>2022-04-08T11:51:58Z</time>
      </trkpt>
      <trkpt lat="43.48419" lon="6.39098">
        <ele>135</ele>
        <time>2022-04-08T11:51:59Z</time>
      </trkpt>
      <trkpt lat="43.48419" lon="6.39096">
        <ele>135</ele>
        <time>2022-04-08T11:52:00Z</time>
      </trkpt>
      <trkpt lat="43.48419" lon="6.39095">
        <ele>135</ele>
        <time>2022-04-08T11:52:01Z</time>
      </trkpt>
      <trkpt lat="43.48419" lon="6.39093">
        <ele>135</ele>
        <time>2022-04-08T11:52:02Z</time>
      </trkpt>
      <trkpt lat="43.48418" lon="6.39092">
        <ele>135</ele>
        <time>2022-04-08T11:52:03Z</time>
      </trkpt>
      <trkpt lat="43.48418" lon="6.3909">
        <ele>135</ele>
        <time>2022-04-08T11:52:04Z</time>
      </trkpt>
      <trkpt lat="43.48418" lon="6.39088">
        <ele>135</ele>
        <time>2022-04-08T11:52:05Z</time>
      </trkpt>
      <trkpt lat="43.48418" lon="6.39086">
        <ele>135</ele>
        <time>2022-04-08T11:52:06Z</time>
      </trkpt>
      <trkpt lat="43.48418" lon="6.39085">
        <ele>135</ele>
        <time>2022-04-08T11:52:07Z</time>
      </trkpt>
      <trkpt lat="43.48418" lon="6.39083">
        <ele>135</ele>
        <time>2022-04-08T11:52:08Z</time>
      </trkpt>
      <trkpt lat="43.48418" lon="6.39081">
        <ele>135</ele>
        <time>2022-04-08T11:52:09Z</time>
      </trkpt>
      <trkpt lat="43.48418" lon="6.3908">
        <ele>135</ele>
        <time>2022-04-08T11:52:10Z</time>
      </trkpt>
      <trkpt lat="43.48418" lon="6.39078">
        <ele>135</ele>
        <time>2022-04-08T11:52:11Z</time>
      </trkpt>
      <trkpt lat="43.48418" lon="6.39077">
        <ele>135</ele>
        <time>2022-04-08T11:52:12Z</time>
      </trkpt>
      <trkpt lat="43.48418" lon="6.39075">
        <ele>135</ele>
        <time>2022-04-08T11:52:13Z</time>
      </trkpt>
      <trkpt lat="43.48418" lon="6.39073">
        <ele>135</ele>
        <time>2022-04-08T11:52:14Z</time>
      </trkpt>
      <trkpt lat="43.48418" lon="6.39072">
        <ele>135</ele>
        <time>2022-04-08T11:52:15Z</time>
      </trkpt>
      <trkpt lat="43.48418" lon="6.3907">
        <ele>135</ele>
        <time>2022-04-08T11:52:16Z</time>
      </trkpt>
      <trkpt lat="43.48418" lon="6.39068">
        <ele>135</ele>
        <time>2022-04-08T11:52:17Z</time>
      </trkpt>
      <trkpt lat="43.48418" lon="6.39067">
        <ele>135</ele>
        <time>2022-04-08T11:52:18Z</time>
      </trkpt>
      <trkpt lat="43.48417" lon="6.39066">
        <ele>135</ele>
        <time>2022-04-08T11:52:19Z</time>
      </trkpt>
      <trkpt lat="43.48417" lon="6.39064">
        <ele>135</ele>
        <time>2022-04-08T11:52:20Z</time>
      </trkpt>
      <trkpt lat="43.48417" lon="6.39063">
        <ele>135</ele>
        <time>2022-04-08T11:52:21Z</time>
      </trkpt>
      <trkpt lat="43.48416" lon="6.39061">
        <ele>135</ele>
        <time>2022-04-08T11:52:22Z</time>
      </trkpt>
      <trkpt lat="43.48415" lon="6.3906">
        <ele>135</ele>
        <time>2022-04-08T11:52:23Z</time>
      </trkpt>
      <trkpt lat="43.48415" lon="6.39058">
        <ele>135</ele>
        <time>2022-04-08T11:52:24Z</time>
      </trkpt>
      <trkpt lat="43.48414" lon="6.39057">
        <ele>135</ele>
        <time>2022-04-08T11:52:25Z</time>
      </trkpt>
      <trkpt lat="43.48413" lon="6.39055">
        <ele>135</ele>
        <time>2022-04-08T11:52:26Z</time>
      </trkpt>
      <trkpt lat="43.48413" lon="6.39054">
        <ele>135</ele>
        <time>2022-04-08T11:52:27Z</time>
      </trkpt>
      <trkpt lat="43.48412" lon="6.39053">
        <ele>135</ele>
        <time>2022-04-08T11:52:28Z</time>
      </trkpt>
      <trkpt lat="43.48412" lon="6.39052">
        <ele>135</ele>
        <time>2022-04-08T11:52:29Z</time>
      </trkpt>
      <trkpt lat="43.48411" lon="6.39051">
        <ele>135</ele>
        <time>2022-04-08T11:52:30Z</time>
      </trkpt>
      <trkpt lat="43.4841" lon="6.39049">
        <ele>135</ele>
        <time>2022-04-08T11:52:31Z</time>
      </trkpt>
      <trkpt lat="43.48409" lon="6.39048">
        <ele>135</ele>
        <time>2022-04-08T11:52:32Z</time>
      </trkpt>
      <trkpt lat="43.48408" lon="6.39047">
        <ele>135</ele>
        <time>2022-04-08T11:52:33Z</time>
      </trkpt>
      <trkpt lat="43.48407" lon="6.39046">
        <ele>135</ele>
        <time>2022-04-08T11:52:34Z</time>
      </trkpt>
      <trkpt lat="43.48406" lon="6.39044">
        <ele>135</ele>
        <time>2022-04-08T11:52:35Z</time>
      </trkpt>
      <trkpt lat="43.48405" lon="6.39043">
        <ele>135</ele>
        <time>2022-04-08T11:52:36Z</time>
      </trkpt>
      <trkpt lat="43.48405" lon="6.39042">
        <ele>135</ele>
        <time>2022-04-08T11:52:37Z</time>
      </trkpt>
      <trkpt lat="43.48404" lon="6.3904">
        <ele>136</ele>
        <time>2022-04-08T11:52:38Z</time>
      </trkpt>
      <trkpt lat="43.48404" lon="6.39039">
        <ele>136</ele>
        <time>2022-04-08T11:52:39Z</time>
      </trkpt>
      <trkpt lat="43.48403" lon="6.39037">
        <ele>137</ele>
        <time>2022-04-08T11:52:40Z</time>
      </trkpt>
      <trkpt lat="43.48403" lon="6.39036">
        <ele>137</ele>
        <time>2022-04-08T11:52:41Z</time>
      </trkpt>
      <trkpt lat="43.48403" lon="6.39034">
        <ele>137</ele>
        <time>2022-04-08T11:52:42Z</time>
      </trkpt>
      <trkpt lat="43.48403" lon="6.39032">
        <ele>137</ele>
        <time>2022-04-08T11:52:43Z</time>
      </trkpt>
      <trkpt lat="43.48403" lon="6.3903">
        <ele>137</ele>
        <time>2022-04-08T11:52:44Z</time>
      </trkpt>
      <trkpt lat="43.48403" lon="6.39029">
        <ele>137</ele>
        <time>2022-04-08T11:52:45Z</time>
      </trkpt>
      <trkpt lat="43.48403" lon="6.39027">
        <ele>137</ele>
        <time>2022-04-08T11:52:46Z</time>
      </trkpt>
      <trkpt lat="43.48403" lon="6.39026">
        <ele>137</ele>
        <time>2022-04-08T11:52:47Z</time>
      </trkpt>
      <trkpt lat="43.48403" lon="6.39024">
        <ele>137</ele>
        <time>2022-04-08T11:52:48Z</time>
      </trkpt>
      <trkpt lat="43.48402" lon="6.39023">
        <ele>138</ele>
        <time>2022-04-08T11:52:49Z</time>
      </trkpt>
      <trkpt lat="43.48402" lon="6.39021">
        <ele>138</ele>
        <time>2022-04-08T11:52:50Z</time>
      </trkpt>
      <trkpt lat="43.48402" lon="6.3902">
        <ele>138</ele>
        <time>2022-04-08T11:52:51Z</time>
      </trkpt>
      <trkpt lat="43.48402" lon="6.39018">
        <ele>138</ele>
        <time>2022-04-08T11:52:52Z</time>
      </trkpt>
      <trkpt lat="43.48402" lon="6.39017">
        <ele>138</ele>
        <time>2022-04-08T11:52:53Z</time>
      </trkpt>
      <trkpt lat="43.48402" lon="6.39015">
        <ele>138</ele>
        <time>2022-04-08T11:52:54Z</time>
      </trkpt>
      <trkpt lat="43.48402" lon="6.39013">
        <ele>139</ele>
        <time>2022-04-08T11:52:55Z</time>
      </trkpt>
      <trkpt lat="43.48402" lon="6.39012">
        <ele>139</ele>
        <time>2022-04-08T11:52:56Z</time>
      </trkpt>
      <trkpt lat="43.48402" lon="6.3901">
        <ele>139</ele>
        <time>2022-04-08T11:52:57Z</time>
      </trkpt>
      <trkpt lat="43.48402" lon="6.39009">
        <ele>139</ele>
        <time>2022-04-08T11:52:58Z</time>
      </trkpt>
      <trkpt lat="43.48402" lon="6.39007">
        <ele>139</ele>
        <time>2022-04-08T11:52:59Z</time>
      </trkpt>
      <trkpt lat="43.48402" lon="6.39006">
        <ele>139</ele>
        <time>2022-04-08T11:53:00Z</time>
      </trkpt>
      <trkpt lat="43.48402" lon="6.39004">
        <ele>139</ele>
        <time>2022-04-08T11:53:01Z</time>
      </trkpt>
      <trkpt lat="43.48402" lon="6.39003">
        <ele>139</ele>
        <time>2022-04-08T11:53:02Z</time>
      </trkpt>
      <trkpt lat="43.48401" lon="6.39001">
        <ele>139</ele>
        <time>2022-04-08T11:53:03Z</time>
      </trkpt>
      <trkpt lat="43.48401" lon="6.38999">
        <ele>139</ele>
        <time>2022-04-08T11:53:04Z</time>
      </trkpt>
      <trkpt lat="43.48401" lon="6.38998">
        <ele>140</ele>
        <time>2022-04-08T11:53:05Z</time>
      </trkpt>
      <trkpt lat="43.48401" lon="6.38996">
        <ele>140</ele>
        <time>2022-04-08T11:53:06Z</time>
      </trkpt>
      <trkpt lat="43.484" lon="6.38994">
        <ele>140</ele>
        <time>2022-04-08T11:53:07Z</time>
      </trkpt>
      <trkpt lat="43.484" lon="6.38993">
        <ele>140</ele>
        <time>2022-04-08T11:53:08Z</time>
      </trkpt>
      <trkpt lat="43.484" lon="6.38991">
        <ele>140</ele>
        <time>2022-04-08T11:53:09Z</time>
      </trkpt>
      <trkpt lat="43.484" lon="6.3899">
        <ele>140</ele>
        <time>2022-04-08T11:53:10Z</time>
      </trkpt>
      <trkpt lat="43.484" lon="6.38988">
        <ele>140</ele>
        <time>2022-04-08T11:53:11Z</time>
      </trkpt>
      <trkpt lat="43.484" lon="6.38986">
        <ele>140</ele>
        <time>2022-04-08T11:53:12Z</time>
      </trkpt>
      <trkpt lat="43.484" lon="6.38985">
        <ele>140</ele>
        <time>2022-04-08T11:53:13Z</time>
      </trkpt>
      <trkpt lat="43.48399" lon="6.38983">
        <ele>140</ele>
        <time>2022-04-08T11:53:14Z</time>
      </trkpt>
      <trkpt lat="43.48399" lon="6.38981">
        <ele>140</ele>
        <time>2022-04-08T11:53:15Z</time>
      </trkpt>
      <trkpt lat="43.48399" lon="6.38979">
        <ele>140</ele>
        <time>2022-04-08T11:53:16Z</time>
      </trkpt>
      <trkpt lat="43.48399" lon="6.38978">
        <ele>140</ele>
        <time>2022-04-08T11:53:17Z</time>
      </trkpt>
      <trkpt lat="43.48399" lon="6.38976">
        <ele>140</ele>
        <time>2022-04-08T11:53:18Z</time>
      </trkpt>
      <trkpt lat="43.48399" lon="6.38975">
        <ele>140</ele>
        <time>2022-04-08T11:53:19Z</time>
      </trkpt>
      <trkpt lat="43.48399" lon="6.38973">
        <ele>140</ele>
        <time>2022-04-08T11:53:20Z</time>
      </trkpt>
      <trkpt lat="43.48399" lon="6.38971">
        <ele>140</ele>
        <time>2022-04-08T11:53:21Z</time>
      </trkpt>
      <trkpt lat="43.48399" lon="6.3897">
        <ele>140</ele>
        <time>2022-04-08T11:53:22Z</time>
      </trkpt>
      <trkpt lat="43.48399" lon="6.38968">
        <ele>140</ele>
        <time>2022-04-08T11:53:23Z</time>
      </trkpt>
      <trkpt lat="43.48399" lon="6.38966">
        <ele>140</ele>
        <time>2022-04-08T11:53:24Z</time>
      </trkpt>
      <trkpt lat="43.48398" lon="6.38964">
        <ele>140</ele>
        <time>2022-04-08T11:53:25Z</time>
      </trkpt>
      <trkpt lat="43.48398" lon="6.38963">
        <ele>140</ele>
        <time>2022-04-08T11:53:26Z</time>
      </trkpt>
      <trkpt lat="43.48398" lon="6.38962">
        <ele>140</ele>
        <time>2022-04-08T11:53:27Z</time>
      </trkpt>
      <trkpt lat="43.48398" lon="6.3896">
        <ele>140</ele>
        <time>2022-04-08T11:53:28Z</time>
      </trkpt>
      <trkpt lat="43.48398" lon="6.38958">
        <ele>140</ele>
        <time>2022-04-08T11:53:29Z</time>
      </trkpt>
      <trkpt lat="43.48397" lon="6.38957">
        <ele>140</ele>
        <time>2022-04-08T11:53:30Z</time>
      </trkpt>
      <trkpt lat="43.48397" lon="6.38955">
        <ele>140</ele>
        <time>2022-04-08T11:53:31Z</time>
      </trkpt>
      <trkpt lat="43.48397" lon="6.38954">
        <ele>139</ele>
        <time>2022-04-08T11:53:32Z</time>
      </trkpt>
      <trkpt lat="43.48396" lon="6.38952">
        <ele>139</ele>
        <time>2022-04-08T11:53:33Z</time>
      </trkpt>
      <trkpt lat="43.48396" lon="6.38951">
        <ele>139</ele>
        <time>2022-04-08T11:53:34Z</time>
      </trkpt>
      <trkpt lat="43.48395" lon="6.3895">
        <ele>139</ele>
        <time>2022-04-08T11:53:35Z</time>
      </trkpt>
      <trkpt lat="43.48395" lon="6.38949">
        <ele>139</ele>
        <time>2022-04-08T11:53:36Z</time>
      </trkpt>
      <trkpt lat="43.48394" lon="6.38948">
        <ele>139</ele>
        <time>2022-04-08T11:53:37Z</time>
      </trkpt>
      <trkpt lat="43.48393" lon="6.38947">
        <ele>139</ele>
        <time>2022-04-08T11:53:38Z</time>
      </trkpt>
      <trkpt lat="43.48392" lon="6.38946">
        <ele>139</ele>
        <time>2022-04-08T11:53:39Z</time>
      </trkpt>
      <trkpt lat="43.48391" lon="6.38946">
        <ele>139</ele>
        <time>2022-04-08T11:53:40Z</time>
      </trkpt>
      <trkpt lat="43.4839" lon="6.38945">
        <ele>139</ele>
        <time>2022-04-08T11:53:41Z</time>
      </trkpt>
      <trkpt lat="43.48389" lon="6.38945">
        <ele>139</ele>
        <time>2022-04-08T11:53:42Z</time>
      </trkpt>
      <trkpt lat="43.48388" lon="6.38945">
        <ele>139</ele>
        <time>2022-04-08T11:53:43Z</time>
      </trkpt>
      <trkpt lat="43.48388" lon="6.38945">
        <ele>139</ele>
        <time>2022-04-08T11:53:44Z</time>
      </trkpt>
      <trkpt lat="43.48387" lon="6.38945">
        <ele>139</ele>
        <time>2022-04-08T11:53:45Z</time>
      </trkpt>
      <trkpt lat="43.48386" lon="6.38946">
        <ele>139</ele>
        <time>2022-04-08T11:53:46Z</time>
      </trkpt>
      <trkpt lat="43.48386" lon="6.38946">
        <ele>139</ele>
        <time>2022-04-08T11:53:47Z</time>
      </trkpt>
      <trkpt lat="43.48385" lon="6.38947">
        <ele>139</ele>
        <time>2022-04-08T11:53:48Z</time>
      </trkpt>
      <trkpt lat="43.48385" lon="6.38948">
        <ele>139</ele>
        <time>2022-04-08T11:53:49Z</time>
      </trkpt>
      <trkpt lat="43.48384" lon="6.38948">
        <ele>139</ele>
        <time>2022-04-08T11:53:50Z</time>
      </trkpt>
      <trkpt lat="43.48384" lon="6.38948">
        <ele>139</ele>
        <time>2022-04-08T11:53:51Z</time>
      </trkpt>
      <trkpt lat="43.48383" lon="6.38949">
        <ele>140</ele>
        <time>2022-04-08T11:53:52Z</time>
      </trkpt>
      <trkpt lat="43.48382" lon="6.38949">
        <ele>140</ele>
        <time>2022-04-08T11:53:53Z</time>
      </trkpt>
      <trkpt lat="43.48381" lon="6.38948">
        <ele>140</ele>
        <time>2022-04-08T11:53:54Z</time>
      </trkpt>
      <trkpt lat="43.4838" lon="6.38948">
        <ele>140</ele>
        <time>2022-04-08T11:53:55Z</time>
      </trkpt>
      <trkpt lat="43.48379" lon="6.38948">
        <ele>141</ele>
        <time>2022-04-08T11:53:56Z</time>
      </trkpt>
      <trkpt lat="43.48378" lon="6.38948">
        <ele>141</ele>
        <time>2022-04-08T11:53:57Z</time>
      </trkpt>
      <trkpt lat="43.48378" lon="6.38947">
        <ele>141</ele>
        <time>2022-04-08T11:53:58Z</time>
      </trkpt>
      <trkpt lat="43.48377" lon="6.38947">
        <ele>141</ele>
        <time>2022-04-08T11:53:59Z</time>
      </trkpt>
      <trkpt lat="43.48376" lon="6.38947">
        <ele>141</ele>
        <time>2022-04-08T11:54:00Z</time>
      </trkpt>
      <trkpt lat="43.48375" lon="6.38946">
        <ele>141</ele>
        <time>2022-04-08T11:54:01Z</time>
      </trkpt>
      <trkpt lat="43.48375" lon="6.38945">
        <ele>141</ele>
        <time>2022-04-08T11:54:02Z</time>
      </trkpt>
      <trkpt lat="43.48374" lon="6.38945">
        <ele>141</ele>
        <time>2022-04-08T11:54:03Z</time>
      </trkpt>
      <trkpt lat="43.48373" lon="6.38944">
        <ele>141</ele>
        <time>2022-04-08T11:54:04Z</time>
      </trkpt>
      <trkpt lat="43.48372" lon="6.38943">
        <ele>141</ele>
        <time>2022-04-08T11:54:05Z</time>
      </trkpt>
      <trkpt lat="43.48371" lon="6.38943">
        <ele>141</ele>
        <time>2022-04-08T11:54:06Z</time>
      </trkpt>
      <trkpt lat="43.48371" lon="6.38942">
        <ele>141</ele>
        <time>2022-04-08T11:54:07Z</time>
      </trkpt>
      <trkpt lat="43.4837" lon="6.38941">
        <ele>141</ele>
        <time>2022-04-08T11:54:08Z</time>
      </trkpt>
      <trkpt lat="43.4837" lon="6.3894">
        <ele>141</ele>
        <time>2022-04-08T11:54:09Z</time>
      </trkpt>
      <trkpt lat="43.48369" lon="6.3894">
        <ele>142</ele>
        <time>2022-04-08T11:54:10Z</time>
      </trkpt>
      <trkpt lat="43.48368" lon="6.38938">
        <ele>142</ele>
        <time>2022-04-08T11:54:11Z</time>
      </trkpt>
      <trkpt lat="43.48368" lon="6.38937">
        <ele>142</ele>
        <time>2022-04-08T11:54:12Z</time>
      </trkpt>
      <trkpt lat="43.48367" lon="6.38936">
        <ele>142</ele>
        <time>2022-04-08T11:54:13Z</time>
      </trkpt>
      <trkpt lat="43.48367" lon="6.38935">
        <ele>142</ele>
        <time>2022-04-08T11:54:14Z</time>
      </trkpt>
      <trkpt lat="43.48366" lon="6.38934">
        <ele>142</ele>
        <time>2022-04-08T11:54:15Z</time>
      </trkpt>
      <trkpt lat="43.48365" lon="6.38933">
        <ele>142</ele>
        <time>2022-04-08T11:54:16Z</time>
      </trkpt>
      <trkpt lat="43.48364" lon="6.38932">
        <ele>142</ele>
        <time>2022-04-08T11:54:17Z</time>
      </trkpt>
      <trkpt lat="43.48364" lon="6.38931">
        <ele>142</ele>
        <time>2022-04-08T11:54:18Z</time>
      </trkpt>
      <trkpt lat="43.48363" lon="6.3893">
        <ele>142</ele>
        <time>2022-04-08T11:54:19Z</time>
      </trkpt>
      <trkpt lat="43.48362" lon="6.38929">
        <ele>142</ele>
        <time>2022-04-08T11:54:20Z</time>
      </trkpt>
      <trkpt lat="43.48361" lon="6.38928">
        <ele>142</ele>
        <time>2022-04-08T11:54:21Z</time>
      </trkpt>
      <trkpt lat="43.48361" lon="6.38927">
        <ele>142</ele>
        <time>2022-04-08T11:54:22Z</time>
      </trkpt>
      <trkpt lat="43.4836" lon="6.38927">
        <ele>142</ele>
        <time>2022-04-08T11:54:23Z</time>
      </trkpt>
      <trkpt lat="43.48359" lon="6.38926">
        <ele>142</ele>
        <time>2022-04-08T11:54:24Z</time>
      </trkpt>
      <trkpt lat="43.48359" lon="6.38926">
        <ele>142</ele>
        <time>2022-04-08T11:54:25Z</time>
      </trkpt>
      <trkpt lat="43.48358" lon="6.38925">
        <ele>142</ele>
        <time>2022-04-08T11:54:26Z</time>
      </trkpt>
      <trkpt lat="43.48357" lon="6.38925">
        <ele>142</ele>
        <time>2022-04-08T11:54:27Z</time>
      </trkpt>
      <trkpt lat="43.48357" lon="6.38924">
        <ele>142</ele>
        <time>2022-04-08T11:54:28Z</time>
      </trkpt>
      <trkpt lat="43.48356" lon="6.38923">
        <ele>142</ele>
        <time>2022-04-08T11:54:29Z</time>
      </trkpt>
      <trkpt lat="43.48355" lon="6.38923">
        <ele>142</ele>
        <time>2022-04-08T11:54:30Z</time>
      </trkpt>
      <trkpt lat="43.48354" lon="6.38922">
        <ele>142</ele>
        <time>2022-04-08T11:54:31Z</time>
      </trkpt>
      <trkpt lat="43.48353" lon="6.38922">
        <ele>142</ele>
        <time>2022-04-08T11:54:32Z</time>
      </trkpt>
      <trkpt lat="43.48353" lon="6.38922">
        <ele>142</ele>
        <time>2022-04-08T11:54:33Z</time>
      </trkpt>
      <trkpt lat="43.48352" lon="6.38921">
        <ele>142</ele>
        <time>2022-04-08T11:54:34Z</time>
      </trkpt>
      <trkpt lat="43.4835" lon="6.38921">
        <ele>142</ele>
        <time>2022-04-08T11:54:35Z</time>
      </trkpt>
      <trkpt lat="43.48349" lon="6.38922">
        <ele>142</ele>
        <time>2022-04-08T11:54:36Z</time>
      </trkpt>
      <trkpt lat="43.48348" lon="6.38922">
        <ele>142</ele>
        <time>2022-04-08T11:54:37Z</time>
      </trkpt>
      <trkpt lat="43.48347" lon="6.38923">
        <ele>142</ele>
        <time>2022-04-08T11:54:38Z</time>
      </trkpt>
      <trkpt lat="43.48347" lon="6.38923">
        <ele>142</ele>
        <time>2022-04-08T11:54:39Z</time>
      </trkpt>
      <trkpt lat="43.48346" lon="6.38924">
        <ele>142</ele>
        <time>2022-04-08T11:54:40Z</time>
      </trkpt>
      <trkpt lat="43.48345" lon="6.38924">
        <ele>142</ele>
        <time>2022-04-08T11:54:41Z</time>
      </trkpt>
      <trkpt lat="43.48344" lon="6.38924">
        <ele>142</ele>
        <time>2022-04-08T11:54:42Z</time>
      </trkpt>
      <trkpt lat="43.48344" lon="6.38925">
        <ele>143</ele>
        <time>2022-04-08T11:54:43Z</time>
      </trkpt>
      <trkpt lat="43.48343" lon="6.38925">
        <ele>143</ele>
        <time>2022-04-08T11:54:44Z</time>
      </trkpt>
      <trkpt lat="43.48342" lon="6.38924">
        <ele>143</ele>
        <time>2022-04-08T11:54:45Z</time>
      </trkpt>
      <trkpt lat="43.48341" lon="6.38924">
        <ele>143</ele>
        <time>2022-04-08T11:54:46Z</time>
      </trkpt>
      <trkpt lat="43.4834" lon="6.38923">
        <ele>143</ele>
        <time>2022-04-08T11:54:47Z</time>
      </trkpt>
      <trkpt lat="43.48338" lon="6.38923">
        <ele>143</ele>
        <time>2022-04-08T11:54:48Z</time>
      </trkpt>
      <trkpt lat="43.48337" lon="6.38922">
        <ele>144</ele>
        <time>2022-04-08T11:54:49Z</time>
      </trkpt>
      <trkpt lat="43.48336" lon="6.38921">
        <ele>144</ele>
        <time>2022-04-08T11:54:50Z</time>
      </trkpt>
      <trkpt lat="43.48335" lon="6.38921">
        <ele>144</ele>
        <time>2022-04-08T11:54:51Z</time>
      </trkpt>
      <trkpt lat="43.48334" lon="6.3892">
        <ele>144</ele>
        <time>2022-04-08T11:54:52Z</time>
      </trkpt>
      <trkpt lat="43.48333" lon="6.38919">
        <ele>144</ele>
        <time>2022-04-08T11:54:53Z</time>
      </trkpt>
      <trkpt lat="43.48332" lon="6.38918">
        <ele>144</ele>
        <time>2022-04-08T11:54:54Z</time>
      </trkpt>
      <trkpt lat="43.48331" lon="6.38917">
        <ele>144</ele>
        <time>2022-04-08T11:54:55Z</time>
      </trkpt>
      <trkpt lat="43.4833" lon="6.38917">
        <ele>144</ele>
        <time>2022-04-08T11:54:56Z</time>
      </trkpt>
      <trkpt lat="43.48329" lon="6.38916">
        <ele>144</ele>
        <time>2022-04-08T11:54:57Z</time>
      </trkpt>
      <trkpt lat="43.48328" lon="6.38915">
        <ele>144</ele>
        <time>2022-04-08T11:54:58Z</time>
      </trkpt>
      <trkpt lat="43.48327" lon="6.38914">
        <ele>144</ele>
        <time>2022-04-08T11:54:59Z</time>
      </trkpt>
      <trkpt lat="43.48327" lon="6.38914">
        <ele>144</ele>
        <time>2022-04-08T11:55:00Z</time>
      </trkpt>
      <trkpt lat="43.48326" lon="6.38913">
        <ele>144</ele>
        <time>2022-04-08T11:55:01Z</time>
      </trkpt>
      <trkpt lat="43.48325" lon="6.38912">
        <ele>144</ele>
        <time>2022-04-08T11:55:02Z</time>
      </trkpt>
      <trkpt lat="43.48324" lon="6.38912">
        <ele>144</ele>
        <time>2022-04-08T11:55:03Z</time>
      </trkpt>
      <trkpt lat="43.48323" lon="6.38911">
        <ele>145</ele>
        <time>2022-04-08T11:55:04Z</time>
      </trkpt>
      <trkpt lat="43.48323" lon="6.38911">
        <ele>145</ele>
        <time>2022-04-08T11:55:05Z</time>
      </trkpt>
      <trkpt lat="43.48322" lon="6.3891">
        <ele>145</ele>
        <time>2022-04-08T11:55:06Z</time>
      </trkpt>
      <trkpt lat="43.48321" lon="6.3891">
        <ele>145</ele>
        <time>2022-04-08T11:55:07Z</time>
      </trkpt>
      <trkpt lat="43.4832" lon="6.38909">
        <ele>145</ele>
        <time>2022-04-08T11:55:08Z</time>
      </trkpt>
      <trkpt lat="43.4832" lon="6.38909">
        <ele>145</ele>
        <time>2022-04-08T11:55:09Z</time>
      </trkpt>
      <trkpt lat="43.48319" lon="6.38909">
        <ele>145</ele>
        <time>2022-04-08T11:55:10Z</time>
      </trkpt>
      <trkpt lat="43.48318" lon="6.38909">
        <ele>145</ele>
        <time>2022-04-08T11:55:11Z</time>
      </trkpt>
      <trkpt lat="43.48317" lon="6.38908">
        <ele>145</ele>
        <time>2022-04-08T11:55:12Z</time>
      </trkpt>
      <trkpt lat="43.48316" lon="6.38907">
        <ele>145</ele>
        <time>2022-04-08T11:55:13Z</time>
      </trkpt>
      <trkpt lat="43.48316" lon="6.38907">
        <ele>145</ele>
        <time>2022-04-08T11:55:14Z</time>
      </trkpt>
      <trkpt lat="43.48315" lon="6.38906">
        <ele>145</ele>
        <time>2022-04-08T11:55:15Z</time>
      </trkpt>
      <trkpt lat="43.48315" lon="6.38906">
        <ele>145</ele>
        <time>2022-04-08T11:55:16Z</time>
      </trkpt>
      <trkpt lat="43.48315" lon="6.38905">
        <ele>145</ele>
        <time>2022-04-08T11:55:17Z</time>
      </trkpt>
      <trkpt lat="43.48315" lon="6.38905">
        <ele>145</ele>
        <time>2022-04-08T11:55:18Z</time>
      </trkpt>
      <trkpt lat="43.48315" lon="6.38904">
        <ele>145</ele>
        <time>2022-04-08T11:55:19Z</time>
      </trkpt>
      <trkpt lat="43.48315" lon="6.38904">
        <ele>145</ele>
        <time>2022-04-08T11:55:20Z</time>
      </trkpt>
      <trkpt lat="43.48315" lon="6.38904">
        <ele>145</ele>
        <time>2022-04-08T11:55:21Z</time>
      </trkpt>
      <trkpt lat="43.48315" lon="6.38904">
        <ele>145</ele>
        <time>2022-04-08T11:55:22Z</time>
      </trkpt>
      <trkpt lat="43.48315" lon="6.38904">
        <ele>145</ele>
        <time>2022-04-08T11:55:23Z</time>
      </trkpt>
      <trkpt lat="43.48315" lon="6.38904">
        <ele>145</ele>
        <time>2022-04-08T11:55:24Z</time>
      </trkpt>
      <trkpt lat="43.48314" lon="6.38904">
        <ele>145</ele>
        <time>2022-04-08T11:55:25Z</time>
      </trkpt>
      <trkpt lat="43.48315" lon="6.38904">
        <ele>145</ele>
        <time>2022-04-08T11:55:26Z</time>
      </trkpt>
      <trkpt lat="43.48315" lon="6.38904">
        <ele>145</ele>
        <time>2022-04-08T11:55:27Z</time>
      </trkpt>
      <trkpt lat="43.48315" lon="6.38904">
        <ele>145</ele>
        <time>2022-04-08T11:55:28Z</time>
      </trkpt>
      <trkpt lat="43.48315" lon="6.38904">
        <ele>145</ele>
        <time>2022-04-08T11:55:29Z</time>
      </trkpt>
      <trkpt lat="43.48315" lon="6.38904">
        <ele>145</ele>
        <time>2022-04-08T11:55:30Z</time>
      </trkpt>
      <trkpt lat="43.48315" lon="6.38904">
        <ele>145</ele>
        <time>2022-04-08T11:55:31Z</time>
      </trkpt>
      <trkpt lat="43.48315" lon="6.38904">
        <ele>145</ele>
        <time>2022-04-08T11:55:32Z</time>
      </trkpt>
      <trkpt lat="43.48315" lon="6.38904">
        <ele>145</ele>
        <time>2022-04-08T11:55:33Z</time>
      </trkpt>
      <trkpt lat="43.48315" lon="6.38904">
        <ele>145</ele>
        <time>2022-04-08T11:55:34Z</time>
      </trkpt>
      <trkpt lat="43.48315" lon="6.38904">
        <ele>145</ele>
        <time>2022-04-08T11:55:35Z</time>
      </trkpt>
      <trkpt lat="43.48315" lon="6.38904">
        <ele>145</ele>
        <time>2022-04-08T11:55:36Z</time>
      </trkpt>
      <trkpt lat="43.48315" lon="6.38904">
        <ele>145</ele>
        <time>2022-04-08T11:55:37Z</time>
      </trkpt>
      <trkpt lat="43.48315" lon="6.38904">
        <ele>145</ele>
        <time>2022-04-08T11:55:38Z</time>
      </trkpt>
      <trkpt lat="43.48315" lon="6.38904">
        <ele>145</ele>
        <time>2022-04-08T11:55:39Z</time>
      </trkpt>
      <trkpt lat="43.48315" lon="6.38904">
        <ele>145</ele>
        <time>2022-04-08T11:55:40Z</time>
      </trkpt>
      <trkpt lat="43.48315" lon="6.38904">
        <ele>145</ele>
        <time>2022-04-08T11:55:41Z</time>
      </trkpt>
      <trkpt lat="43.48315" lon="6.38904">
        <ele>145</ele>
        <time>2022-04-08T11:55:42Z</time>
      </trkpt>
      <trkpt lat="43.48315" lon="6.38904">
        <ele>145</ele>
        <time>2022-04-08T11:55:43Z</time>
      </trkpt>
      <trkpt lat="43.48315" lon="6.38904">
        <ele>145</ele>
        <time>2022-04-08T11:55:44Z</time>
      </trkpt>
      <trkpt lat="43.48315" lon="6.38904">
        <ele>145</ele>
        <time>2022-04-08T11:55:45Z</time>
      </trkpt>
      <trkpt lat="43.48315" lon="6.38904">
        <ele>145</ele>
        <time>2022-04-08T11:55:46Z</time>
      </trkpt>
      <trkpt lat="43.48315" lon="6.38904">
        <ele>145</ele>
        <time>2022-04-08T11:55:47Z</time>
      </trkpt>
      <trkpt lat="43.48315" lon="6.38904">
        <ele>145</ele>
        <time>2022-04-08T11:55:48Z</time>
      </trkpt>
      <trkpt lat="43.48315" lon="6.38904">
        <ele>145</ele>
        <time>2022-04-08T11:55:49Z</time>
      </trkpt>
      <trkpt lat="43.48315" lon="6.38904">
        <ele>145</ele>
        <time>2022-04-08T11:55:50Z</time>
      </trkpt>
      <trkpt lat="43.48315" lon="6.38904">
        <ele>145</ele>
        <time>2022-04-08T11:55:51Z</time>
      </trkpt>
      <trkpt lat="43.48315" lon="6.38904">
        <ele>145</ele>
        <time>2022-04-08T11:55:52Z</time>
      </trkpt>
      <trkpt lat="43.48315" lon="6.38904">
        <ele>145</ele>
        <time>2022-04-08T11:55:53Z</time>
      </trkpt>
      <trkpt lat="43.48315" lon="6.38904">
        <ele>145</ele>
        <time>2022-04-08T11:55:54Z</time>
      </trkpt>
      <trkpt lat="43.48315" lon="6.38904">
        <ele>145</ele>
        <time>2022-04-08T11:55:55Z</time>
      </trkpt>
      <trkpt lat="43.48315" lon="6.38904">
        <ele>145</ele>
        <time>2022-04-08T11:55:56Z</time>
      </trkpt>
      <trkpt lat="43.48315" lon="6.38904">
        <ele>145</ele>
        <time>2022-04-08T11:55:57Z</time>
      </trkpt>
      <trkpt lat="43.48315" lon="6.38904">
        <ele>145</ele>
        <time>2022-04-08T11:55:58Z</time>
      </trkpt>
      <trkpt lat="43.48315" lon="6.38904">
        <ele>145</ele>
        <time>2022-04-08T11:55:59Z</time>
      </trkpt>
      <trkpt lat="43.48315" lon="6.38904">
        <ele>145</ele>
        <time>2022-04-08T11:56:00Z</time>
      </trkpt>
      <trkpt lat="43.48315" lon="6.38904">
        <ele>145</ele>
        <time>2022-04-08T11:56:01Z</time>
      </trkpt>
      <trkpt lat="43.48316" lon="6.38906">
        <ele>145</ele>
        <time>2022-04-08T11:56:02Z</time>
      </trkpt>
      <trkpt lat="43.48315" lon="6.38906">
        <ele>145</ele>
        <time>2022-04-08T11:56:04Z</time>
      </trkpt>
      <trkpt lat="43.48314" lon="6.38905">
        <ele>145</ele>
        <time>2022-04-08T11:56:05Z</time>
      </trkpt>
      <trkpt lat="43.48314" lon="6.38905">
        <ele>145</ele>
        <time>2022-04-08T11:56:06Z</time>
      </trkpt>
      <trkpt lat="43.48314" lon="6.38904">
        <ele>145</ele>
        <time>2022-04-08T11:56:07Z</time>
      </trkpt>
      <trkpt lat="43.48313" lon="6.38904">
        <ele>145</ele>
        <time>2022-04-08T11:56:08Z</time>
      </trkpt>
      <trkpt lat="43.48313" lon="6.38903">
        <ele>145</ele>
        <time>2022-04-08T11:56:09Z</time>
      </trkpt>
      <trkpt lat="43.48312" lon="6.38903">
        <ele>145</ele>
        <time>2022-04-08T11:56:10Z</time>
      </trkpt>
      <trkpt lat="43.48311" lon="6.38902">
        <ele>145</ele>
        <time>2022-04-08T11:56:11Z</time>
      </trkpt>
      <trkpt lat="43.48311" lon="6.38902">
        <ele>145</ele>
        <time>2022-04-08T11:56:12Z</time>
      </trkpt>
      <trkpt lat="43.4831" lon="6.38902">
        <ele>145</ele>
        <time>2022-04-08T11:56:13Z</time>
      </trkpt>
      <trkpt lat="43.4831" lon="6.38901">
        <ele>145</ele>
        <time>2022-04-08T11:56:14Z</time>
      </trkpt>
      <trkpt lat="43.48309" lon="6.38901">
        <ele>145</ele>
        <time>2022-04-08T11:56:15Z</time>
      </trkpt>
      <trkpt lat="43.48308" lon="6.38901">
        <ele>145</ele>
        <time>2022-04-08T11:56:16Z</time>
      </trkpt>
      <trkpt lat="43.48308" lon="6.38901">
        <ele>145</ele>
        <time>2022-04-08T11:56:17Z</time>
      </trkpt>
      <trkpt lat="43.48307" lon="6.38901">
        <ele>145</ele>
        <time>2022-04-08T11:56:18Z</time>
      </trkpt>
      <trkpt lat="43.48307" lon="6.38901">
        <ele>145</ele>
        <time>2022-04-08T11:56:19Z</time>
      </trkpt>
      <trkpt lat="43.48307" lon="6.38901">
        <ele>145</ele>
        <time>2022-04-08T11:56:20Z</time>
      </trkpt>
      <trkpt lat="43.48306" lon="6.38902">
        <ele>145</ele>
        <time>2022-04-08T11:56:21Z</time>
      </trkpt>
      <trkpt lat="43.48305" lon="6.38902">
        <ele>145</ele>
        <time>2022-04-08T11:56:22Z</time>
      </trkpt>
      <trkpt lat="43.48305" lon="6.38903">
        <ele>145</ele>
        <time>2022-04-08T11:56:23Z</time>
      </trkpt>
      <trkpt lat="43.48304" lon="6.38903">
        <ele>145</ele>
        <time>2022-04-08T11:56:24Z</time>
      </trkpt>
      <trkpt lat="43.48303" lon="6.38903">
        <ele>145</ele>
        <time>2022-04-08T11:56:25Z</time>
      </trkpt>
      <trkpt lat="43.48303" lon="6.38904">
        <ele>146</ele>
        <time>2022-04-08T11:56:26Z</time>
      </trkpt>
      <trkpt lat="43.48302" lon="6.38904">
        <ele>146</ele>
        <time>2022-04-08T11:56:27Z</time>
      </trkpt>
      <trkpt lat="43.48302" lon="6.38905">
        <ele>146</ele>
        <time>2022-04-08T11:56:28Z</time>
      </trkpt>
      <trkpt lat="43.48301" lon="6.38905">
        <ele>146</ele>
        <time>2022-04-08T11:56:29Z</time>
      </trkpt>
      <trkpt lat="43.48301" lon="6.38905">
        <ele>146</ele>
        <time>2022-04-08T11:56:30Z</time>
      </trkpt>
      <trkpt lat="43.483" lon="6.38905">
        <ele>146</ele>
        <time>2022-04-08T11:56:31Z</time>
      </trkpt>
      <trkpt lat="43.483" lon="6.38906">
        <ele>146</ele>
        <time>2022-04-08T11:56:32Z</time>
      </trkpt>
      <trkpt lat="43.483" lon="6.38907">
        <ele>148</ele>
        <time>2022-04-08T11:56:33Z</time>
      </trkpt>
      <trkpt lat="43.48299" lon="6.38908">
        <ele>148</ele>
        <time>2022-04-08T11:56:34Z</time>
      </trkpt>
      <trkpt lat="43.48299" lon="6.38908">
        <ele>148</ele>
        <time>2022-04-08T11:56:35Z</time>
      </trkpt>
      <trkpt lat="43.48299" lon="6.38909">
        <ele>148</ele>
        <time>2022-04-08T11:56:36Z</time>
      </trkpt>
      <trkpt lat="43.48299" lon="6.38911">
        <ele>148</ele>
        <time>2022-04-08T11:56:37Z</time>
      </trkpt>
      <trkpt lat="43.48299" lon="6.38912">
        <ele>149</ele>
        <time>2022-04-08T11:56:38Z</time>
      </trkpt>
      <trkpt lat="43.48299" lon="6.38913">
        <ele>149</ele>
        <time>2022-04-08T11:56:39Z</time>
      </trkpt>
      <trkpt lat="43.48299" lon="6.38913">
        <ele>149</ele>
        <time>2022-04-08T11:56:40Z</time>
      </trkpt>
      <trkpt lat="43.48298" lon="6.38914">
        <ele>149</ele>
        <time>2022-04-08T11:56:41Z</time>
      </trkpt>
      <trkpt lat="43.48298" lon="6.38915">
        <ele>149</ele>
        <time>2022-04-08T11:56:42Z</time>
      </trkpt>
      <trkpt lat="43.48297" lon="6.38915">
        <ele>149</ele>
        <time>2022-04-08T11:56:43Z</time>
      </trkpt>
      <trkpt lat="43.48297" lon="6.38915">
        <ele>149</ele>
        <time>2022-04-08T11:56:44Z</time>
      </trkpt>
      <trkpt lat="43.48296" lon="6.38916">
        <ele>149</ele>
        <time>2022-04-08T11:56:45Z</time>
      </trkpt>
      <trkpt lat="43.48296" lon="6.38916">
        <ele>149</ele>
        <time>2022-04-08T11:56:46Z</time>
      </trkpt>
      <trkpt lat="43.48295" lon="6.38917">
        <ele>150</ele>
        <time>2022-04-08T11:56:47Z</time>
      </trkpt>
      <trkpt lat="43.48295" lon="6.38917">
        <ele>150</ele>
        <time>2022-04-08T11:56:48Z</time>
      </trkpt>
      <trkpt lat="43.48294" lon="6.38917">
        <ele>150</ele>
        <time>2022-04-08T11:56:49Z</time>
      </trkpt>
      <trkpt lat="43.48293" lon="6.38918">
        <ele>151</ele>
        <time>2022-04-08T11:56:50Z</time>
      </trkpt>
      <trkpt lat="43.48292" lon="6.38918">
        <ele>151</ele>
        <time>2022-04-08T11:56:51Z</time>
      </trkpt>
      <trkpt lat="43.48291" lon="6.38918">
        <ele>151</ele>
        <time>2022-04-08T11:56:52Z</time>
      </trkpt>
      <trkpt lat="43.48291" lon="6.38918">
        <ele>151</ele>
        <time>2022-04-08T11:56:53Z</time>
      </trkpt>
      <trkpt lat="43.4829" lon="6.38918">
        <ele>152</ele>
        <time>2022-04-08T11:56:54Z</time>
      </trkpt>
      <trkpt lat="43.48288" lon="6.38918">
        <ele>152</ele>
        <time>2022-04-08T11:56:55Z</time>
      </trkpt>
      <trkpt lat="43.48287" lon="6.38919">
        <ele>152</ele>
        <time>2022-04-08T11:56:56Z</time>
      </trkpt>
      <trkpt lat="43.48286" lon="6.38919">
        <ele>152</ele>
        <time>2022-04-08T11:56:57Z</time>
      </trkpt>
      <trkpt lat="43.48285" lon="6.38919">
        <ele>153</ele>
        <time>2022-04-08T11:56:58Z</time>
      </trkpt>
      <trkpt lat="43.48284" lon="6.38919">
        <ele>153</ele>
        <time>2022-04-08T11:56:59Z</time>
      </trkpt>
      <trkpt lat="43.48284" lon="6.3892">
        <ele>153</ele>
        <time>2022-04-08T11:57:00Z</time>
      </trkpt>
      <trkpt lat="43.48283" lon="6.3892">
        <ele>153</ele>
        <time>2022-04-08T11:57:01Z</time>
      </trkpt>
      <trkpt lat="43.48282" lon="6.38921">
        <ele>153</ele>
        <time>2022-04-08T11:57:02Z</time>
      </trkpt>
      <trkpt lat="43.48282" lon="6.38922">
        <ele>154</ele>
        <time>2022-04-08T11:57:03Z</time>
      </trkpt>
      <trkpt lat="43.48282" lon="6.38923">
        <ele>154</ele>
        <time>2022-04-08T11:57:04Z</time>
      </trkpt>
      <trkpt lat="43.48281" lon="6.38923">
        <ele>154</ele>
        <time>2022-04-08T11:57:05Z</time>
      </trkpt>
      <trkpt lat="43.48281" lon="6.38925">
        <ele>154</ele>
        <time>2022-04-08T11:57:06Z</time>
      </trkpt>
      <trkpt lat="43.48281" lon="6.38926">
        <ele>154</ele>
        <time>2022-04-08T11:57:07Z</time>
      </trkpt>
      <trkpt lat="43.48281" lon="6.38927">
        <ele>154</ele>
        <time>2022-04-08T11:57:08Z</time>
      </trkpt>
      <trkpt lat="43.48281" lon="6.38928">
        <ele>154</ele>
        <time>2022-04-08T11:57:09Z</time>
      </trkpt>
      <trkpt lat="43.48281" lon="6.38929">
        <ele>155</ele>
        <time>2022-04-08T11:57:10Z</time>
      </trkpt>
      <trkpt lat="43.48281" lon="6.3893">
        <ele>155</ele>
        <time>2022-04-08T11:57:11Z</time>
      </trkpt>
      <trkpt lat="43.4828" lon="6.38931">
        <ele>155</ele>
        <time>2022-04-08T11:57:12Z</time>
      </trkpt>
      <trkpt lat="43.4828" lon="6.38931">
        <ele>155</ele>
        <time>2022-04-08T11:57:13Z</time>
      </trkpt>
      <trkpt lat="43.4828" lon="6.38932">
        <ele>155</ele>
        <time>2022-04-08T11:57:14Z</time>
      </trkpt>
      <trkpt lat="43.4828" lon="6.38933">
        <ele>155</ele>
        <time>2022-04-08T11:57:15Z</time>
      </trkpt>
      <trkpt lat="43.4828" lon="6.38933">
        <ele>155</ele>
        <time>2022-04-08T11:57:16Z</time>
      </trkpt>
      <trkpt lat="43.4828" lon="6.38934">
        <ele>155</ele>
        <time>2022-04-08T11:57:17Z</time>
      </trkpt>
      <trkpt lat="43.4828" lon="6.38935">
        <ele>155</ele>
        <time>2022-04-08T11:57:18Z</time>
      </trkpt>
      <trkpt lat="43.4828" lon="6.38936">
        <ele>156</ele>
        <time>2022-04-08T11:57:19Z</time>
      </trkpt>
      <trkpt lat="43.4828" lon="6.38937">
        <ele>156</ele>
        <time>2022-04-08T11:57:20Z</time>
      </trkpt>
      <trkpt lat="43.4828" lon="6.38938">
        <ele>156</ele>
        <time>2022-04-08T11:57:21Z</time>
      </trkpt>
      <trkpt lat="43.4828" lon="6.38939">
        <ele>156</ele>
        <time>2022-04-08T11:57:22Z</time>
      </trkpt>
      <trkpt lat="43.48279" lon="6.3894">
        <ele>156</ele>
        <time>2022-04-08T11:57:23Z</time>
      </trkpt>
      <trkpt lat="43.48279" lon="6.38942">
        <ele>156</ele>
        <time>2022-04-08T11:57:24Z</time>
      </trkpt>
      <trkpt lat="43.48278" lon="6.38943">
        <ele>156</ele>
        <time>2022-04-08T11:57:25Z</time>
      </trkpt>
      <trkpt lat="43.48278" lon="6.38944">
        <ele>155</ele>
        <time>2022-04-08T11:57:26Z</time>
      </trkpt>
      <trkpt lat="43.48277" lon="6.38945">
        <ele>155</ele>
        <time>2022-04-08T11:57:27Z</time>
      </trkpt>
      <trkpt lat="43.48276" lon="6.38947">
        <ele>156</ele>
        <time>2022-04-08T11:57:28Z</time>
      </trkpt>
      <trkpt lat="43.48275" lon="6.38948">
        <ele>156</ele>
        <time>2022-04-08T11:57:29Z</time>
      </trkpt>
      <trkpt lat="43.48274" lon="6.38948">
        <ele>156</ele>
        <time>2022-04-08T11:57:30Z</time>
      </trkpt>
      <trkpt lat="43.48273" lon="6.38949">
        <ele>156</ele>
        <time>2022-04-08T11:57:31Z</time>
      </trkpt>
      <trkpt lat="43.48272" lon="6.38949">
        <ele>156</ele>
        <time>2022-04-08T11:57:32Z</time>
      </trkpt>
      <trkpt lat="43.48271" lon="6.38949">
        <ele>156</ele>
        <time>2022-04-08T11:57:33Z</time>
      </trkpt>
      <trkpt lat="43.4827" lon="6.38949">
        <ele>156</ele>
        <time>2022-04-08T11:57:34Z</time>
      </trkpt>
      <trkpt lat="43.4827" lon="6.38949">
        <ele>156</ele>
        <time>2022-04-08T11:57:35Z</time>
      </trkpt>
      <trkpt lat="43.48269" lon="6.38949">
        <ele>156</ele>
        <time>2022-04-08T11:57:36Z</time>
      </trkpt>
      <trkpt lat="43.48268" lon="6.38949">
        <ele>156</ele>
        <time>2022-04-08T11:57:37Z</time>
      </trkpt>
      <trkpt lat="43.48268" lon="6.38949">
        <ele>156</ele>
        <time>2022-04-08T11:57:38Z</time>
      </trkpt>
      <trkpt lat="43.48267" lon="6.38949">
        <ele>157</ele>
        <time>2022-04-08T11:57:39Z</time>
      </trkpt>
      <trkpt lat="43.48267" lon="6.38949">
        <ele>157</ele>
        <time>2022-04-08T11:57:40Z</time>
      </trkpt>
      <trkpt lat="43.48266" lon="6.38949">
        <ele>157</ele>
        <time>2022-04-08T11:57:41Z</time>
      </trkpt>
      <trkpt lat="43.48266" lon="6.38949">
        <ele>157</ele>
        <time>2022-04-08T11:57:42Z</time>
      </trkpt>
      <trkpt lat="43.48265" lon="6.3895">
        <ele>157</ele>
        <time>2022-04-08T11:57:43Z</time>
      </trkpt>
      <trkpt lat="43.48265" lon="6.3895">
        <ele>157</ele>
        <time>2022-04-08T11:57:44Z</time>
      </trkpt>
      <trkpt lat="43.48265" lon="6.3895">
        <ele>157</ele>
        <time>2022-04-08T11:57:45Z</time>
      </trkpt>
      <trkpt lat="43.48264" lon="6.38951">
        <ele>157</ele>
        <time>2022-04-08T11:57:46Z</time>
      </trkpt>
      <trkpt lat="43.48263" lon="6.38951">
        <ele>157</ele>
        <time>2022-04-08T11:57:47Z</time>
      </trkpt>
      <trkpt lat="43.48263" lon="6.38951">
        <ele>158</ele>
        <time>2022-04-08T11:57:48Z</time>
      </trkpt>
      <trkpt lat="43.48262" lon="6.38952">
        <ele>158</ele>
        <time>2022-04-08T11:57:49Z</time>
      </trkpt>
      <trkpt lat="43.48262" lon="6.38952">
        <ele>159</ele>
        <time>2022-04-08T11:57:50Z</time>
      </trkpt>
      <trkpt lat="43.48261" lon="6.38952">
        <ele>159</ele>
        <time>2022-04-08T11:57:51Z</time>
      </trkpt>
      <trkpt lat="43.4826" lon="6.38951">
        <ele>159</ele>
        <time>2022-04-08T11:57:52Z</time>
      </trkpt>
      <trkpt lat="43.4826" lon="6.38951">
        <ele>159</ele>
        <time>2022-04-08T11:57:53Z</time>
      </trkpt>
      <trkpt lat="43.48259" lon="6.38951">
        <ele>159</ele>
        <time>2022-04-08T11:57:54Z</time>
      </trkpt>
      <trkpt lat="43.48259" lon="6.3895">
        <ele>159</ele>
        <time>2022-04-08T11:57:55Z</time>
      </trkpt>
      <trkpt lat="43.48258" lon="6.3895">
        <ele>159</ele>
        <time>2022-04-08T11:57:56Z</time>
      </trkpt>
      <trkpt lat="43.48258" lon="6.3895">
        <ele>159</ele>
        <time>2022-04-08T11:57:57Z</time>
      </trkpt>
      <trkpt lat="43.48257" lon="6.38949">
        <ele>160</ele>
        <time>2022-04-08T11:57:58Z</time>
      </trkpt>
      <trkpt lat="43.48256" lon="6.38949">
        <ele>160</ele>
        <time>2022-04-08T11:57:59Z</time>
      </trkpt>
      <trkpt lat="43.48256" lon="6.38949">
        <ele>160</ele>
        <time>2022-04-08T11:58:00Z</time>
      </trkpt>
      <trkpt lat="43.48255" lon="6.38948">
        <ele>160</ele>
        <time>2022-04-08T11:58:01Z</time>
      </trkpt>
      <trkpt lat="43.48255" lon="6.38948">
        <ele>160</ele>
        <time>2022-04-08T11:58:02Z</time>
      </trkpt>
      <trkpt lat="43.48254" lon="6.38947">
        <ele>160</ele>
        <time>2022-04-08T11:58:03Z</time>
      </trkpt>
      <trkpt lat="43.48254" lon="6.38946">
        <ele>160</ele>
        <time>2022-04-08T11:58:04Z</time>
      </trkpt>
      <trkpt lat="43.48253" lon="6.38946">
        <ele>160</ele>
        <time>2022-04-08T11:58:05Z</time>
      </trkpt>
      <trkpt lat="43.48252" lon="6.38945">
        <ele>162</ele>
        <time>2022-04-08T11:58:06Z</time>
      </trkpt>
      <trkpt lat="43.48252" lon="6.38945">
        <ele>162</ele>
        <time>2022-04-08T11:58:07Z</time>
      </trkpt>
      <trkpt lat="43.48251" lon="6.38944">
        <ele>163</ele>
        <time>2022-04-08T11:58:08Z</time>
      </trkpt>
      <trkpt lat="43.4825" lon="6.38944">
        <ele>163</ele>
        <time>2022-04-08T11:58:09Z</time>
      </trkpt>
      <trkpt lat="43.4825" lon="6.38944">
        <ele>163</ele>
        <time>2022-04-08T11:58:10Z</time>
      </trkpt>
      <trkpt lat="43.48249" lon="6.38943">
        <ele>163</ele>
        <time>2022-04-08T11:58:11Z</time>
      </trkpt>
      <trkpt lat="43.48248" lon="6.38943">
        <ele>163</ele>
        <time>2022-04-08T11:58:12Z</time>
      </trkpt>
      <trkpt lat="43.48248" lon="6.38943">
        <ele>163</ele>
        <time>2022-04-08T11:58:13Z</time>
      </trkpt>
      <trkpt lat="43.48247" lon="6.38943">
        <ele>163</ele>
        <time>2022-04-08T11:58:14Z</time>
      </trkpt>
      <trkpt lat="43.48246" lon="6.38944">
        <ele>163</ele>
        <time>2022-04-08T11:58:15Z</time>
      </trkpt>
      <trkpt lat="43.48246" lon="6.38944">
        <ele>163</ele>
        <time>2022-04-08T11:58:16Z</time>
      </trkpt>
      <trkpt lat="43.48245" lon="6.38944">
        <ele>163</ele>
        <time>2022-04-08T11:58:17Z</time>
      </trkpt>
      <trkpt lat="43.48245" lon="6.38944">
        <ele>163</ele>
        <time>2022-04-08T11:58:18Z</time>
      </trkpt>
      <trkpt lat="43.48244" lon="6.38944">
        <ele>163</ele>
        <time>2022-04-08T11:58:19Z</time>
      </trkpt>
      <trkpt lat="43.48243" lon="6.38944">
        <ele>163</ele>
        <time>2022-04-08T11:58:20Z</time>
      </trkpt>
      <trkpt lat="43.48242" lon="6.38944">
        <ele>164</ele>
        <time>2022-04-08T11:58:21Z</time>
      </trkpt>
      <trkpt lat="43.48241" lon="6.38944">
        <ele>165</ele>
        <time>2022-04-08T11:58:22Z</time>
      </trkpt>
      <trkpt lat="43.48241" lon="6.38944">
        <ele>165</ele>
        <time>2022-04-08T11:58:23Z</time>
      </trkpt>
      <trkpt lat="43.4824" lon="6.38943">
        <ele>165</ele>
        <time>2022-04-08T11:58:24Z</time>
      </trkpt>
      <trkpt lat="43.48239" lon="6.38944">
        <ele>165</ele>
        <time>2022-04-08T11:58:25Z</time>
      </trkpt>
      <trkpt lat="43.48238" lon="6.38944">
        <ele>165</ele>
        <time>2022-04-08T11:58:26Z</time>
      </trkpt>
      <trkpt lat="43.48237" lon="6.38944">
        <ele>165</ele>
        <time>2022-04-08T11:58:27Z</time>
      </trkpt>
      <trkpt lat="43.48235" lon="6.38945">
        <ele>166</ele>
        <time>2022-04-08T11:58:28Z</time>
      </trkpt>
      <trkpt lat="43.48234" lon="6.38944">
        <ele>166</ele>
        <time>2022-04-08T11:58:29Z</time>
      </trkpt>
      <trkpt lat="43.48233" lon="6.38944">
        <ele>166</ele>
        <time>2022-04-08T11:58:30Z</time>
      </trkpt>
      <trkpt lat="43.48232" lon="6.38943">
        <ele>166</ele>
        <time>2022-04-08T11:58:31Z</time>
      </trkpt>
      <trkpt lat="43.48231" lon="6.38943">
        <ele>166</ele>
        <time>2022-04-08T11:58:32Z</time>
      </trkpt>
      <trkpt lat="43.4823" lon="6.38944">
        <ele>168</ele>
        <time>2022-04-08T11:58:33Z</time>
      </trkpt>
      <trkpt lat="43.48229" lon="6.38944">
        <ele>168</ele>
        <time>2022-04-08T11:58:34Z</time>
      </trkpt>
      <trkpt lat="43.48228" lon="6.38945">
        <ele>169</ele>
        <time>2022-04-08T11:58:35Z</time>
      </trkpt>
      <trkpt lat="43.48228" lon="6.38945">
        <ele>169</ele>
        <time>2022-04-08T11:58:36Z</time>
      </trkpt>
      <trkpt lat="43.48227" lon="6.38945">
        <ele>169</ele>
        <time>2022-04-08T11:58:37Z</time>
      </trkpt>
      <trkpt lat="43.48227" lon="6.38946">
        <ele>169</ele>
        <time>2022-04-08T11:58:38Z</time>
      </trkpt>
      <trkpt lat="43.48226" lon="6.38946">
        <ele>170</ele>
        <time>2022-04-08T11:58:39Z</time>
      </trkpt>
      <trkpt lat="43.48226" lon="6.38946">
        <ele>170</ele>
        <time>2022-04-08T11:58:40Z</time>
      </trkpt>
      <trkpt lat="43.48225" lon="6.38947">
        <ele>170</ele>
        <time>2022-04-08T11:58:41Z</time>
      </trkpt>
      <trkpt lat="43.48225" lon="6.38947">
        <ele>170</ele>
        <time>2022-04-08T11:58:42Z</time>
      </trkpt>
      <trkpt lat="43.48224" lon="6.38948">
        <ele>170</ele>
        <time>2022-04-08T11:58:43Z</time>
      </trkpt>
      <trkpt lat="43.48224" lon="6.38948">
        <ele>170</ele>
        <time>2022-04-08T11:58:44Z</time>
      </trkpt>
      <trkpt lat="43.48224" lon="6.38948">
        <ele>170</ele>
        <time>2022-04-08T11:58:45Z</time>
      </trkpt>
      <trkpt lat="43.48223" lon="6.38948">
        <ele>170</ele>
        <time>2022-04-08T11:58:46Z</time>
      </trkpt>
      <trkpt lat="43.48223" lon="6.38949">
        <ele>170</ele>
        <time>2022-04-08T11:58:47Z</time>
      </trkpt>
      <trkpt lat="43.48222" lon="6.38949">
        <ele>171</ele>
        <time>2022-04-08T11:58:48Z</time>
      </trkpt>
      <trkpt lat="43.48222" lon="6.3895">
        <ele>171</ele>
        <time>2022-04-08T11:58:49Z</time>
      </trkpt>
      <trkpt lat="43.48221" lon="6.3895">
        <ele>171</ele>
        <time>2022-04-08T11:58:50Z</time>
      </trkpt>
      <trkpt lat="43.48221" lon="6.38951">
        <ele>172</ele>
        <time>2022-04-08T11:58:51Z</time>
      </trkpt>
      <trkpt lat="43.4822" lon="6.38952">
        <ele>172</ele>
        <time>2022-04-08T11:58:52Z</time>
      </trkpt>
      <trkpt lat="43.4822" lon="6.38953">
        <ele>172</ele>
        <time>2022-04-08T11:58:53Z</time>
      </trkpt>
      <trkpt lat="43.48219" lon="6.38953">
        <ele>173</ele>
        <time>2022-04-08T11:58:54Z</time>
      </trkpt>
      <trkpt lat="43.48218" lon="6.38954">
        <ele>173</ele>
        <time>2022-04-08T11:58:55Z</time>
      </trkpt>
      <trkpt lat="43.48218" lon="6.38955">
        <ele>173</ele>
        <time>2022-04-08T11:58:56Z</time>
      </trkpt>
      <trkpt lat="43.48218" lon="6.38955">
        <ele>173</ele>
        <time>2022-04-08T11:58:57Z</time>
      </trkpt>
      <trkpt lat="43.48217" lon="6.38955">
        <ele>173</ele>
        <time>2022-04-08T11:58:58Z</time>
      </trkpt>
      <trkpt lat="43.48217" lon="6.38955">
        <ele>173</ele>
        <time>2022-04-08T11:58:59Z</time>
      </trkpt>
      <trkpt lat="43.48216" lon="6.38955">
        <ele>173</ele>
        <time>2022-04-08T11:59:00Z</time>
      </trkpt>
      <trkpt lat="43.48215" lon="6.38955">
        <ele>173</ele>
        <time>2022-04-08T11:59:01Z</time>
      </trkpt>
      <trkpt lat="43.48215" lon="6.38956">
        <ele>173</ele>
        <time>2022-04-08T11:59:02Z</time>
      </trkpt>
      <trkpt lat="43.48214" lon="6.38956">
        <ele>173</ele>
        <time>2022-04-08T11:59:03Z</time>
      </trkpt>
      <trkpt lat="43.48213" lon="6.38957">
        <ele>173</ele>
        <time>2022-04-08T11:59:04Z</time>
      </trkpt>
      <trkpt lat="43.48213" lon="6.38957">
        <ele>173</ele>
        <time>2022-04-08T11:59:05Z</time>
      </trkpt>
      <trkpt lat="43.48212" lon="6.38957">
        <ele>173</ele>
        <time>2022-04-08T11:59:06Z</time>
      </trkpt>
      <trkpt lat="43.48211" lon="6.38958">
        <ele>173</ele>
        <time>2022-04-08T11:59:07Z</time>
      </trkpt>
      <trkpt lat="43.48211" lon="6.38958">
        <ele>174</ele>
        <time>2022-04-08T11:59:08Z</time>
      </trkpt>
      <trkpt lat="43.4821" lon="6.38958">
        <ele>174</ele>
        <time>2022-04-08T11:59:09Z</time>
      </trkpt>
      <trkpt lat="43.48209" lon="6.38959">
        <ele>175</ele>
        <time>2022-04-08T11:59:10Z</time>
      </trkpt>
      <trkpt lat="43.48208" lon="6.38959">
        <ele>175</ele>
        <time>2022-04-08T11:59:11Z</time>
      </trkpt>
      <trkpt lat="43.48207" lon="6.3896">
        <ele>175</ele>
        <time>2022-04-08T11:59:12Z</time>
      </trkpt>
      <trkpt lat="43.48206" lon="6.3896">
        <ele>176</ele>
        <time>2022-04-08T11:59:13Z</time>
      </trkpt>
      <trkpt lat="43.48206" lon="6.38961">
        <ele>176</ele>
        <time>2022-04-08T11:59:14Z</time>
      </trkpt>
      <trkpt lat="43.48205" lon="6.38962">
        <ele>176</ele>
        <time>2022-04-08T11:59:15Z</time>
      </trkpt>
      <trkpt lat="43.48204" lon="6.38962">
        <ele>177</ele>
        <time>2022-04-08T11:59:16Z</time>
      </trkpt>
      <trkpt lat="43.48203" lon="6.38963">
        <ele>177</ele>
        <time>2022-04-08T11:59:17Z</time>
      </trkpt>
      <trkpt lat="43.48202" lon="6.38964">
        <ele>177</ele>
        <time>2022-04-08T11:59:18Z</time>
      </trkpt>
      <trkpt lat="43.48201" lon="6.38965">
        <ele>177</ele>
        <time>2022-04-08T11:59:19Z</time>
      </trkpt>
      <trkpt lat="43.482" lon="6.38965">
        <ele>177</ele>
        <time>2022-04-08T11:59:20Z</time>
      </trkpt>
      <trkpt lat="43.48199" lon="6.38966">
        <ele>177</ele>
        <time>2022-04-08T11:59:21Z</time>
      </trkpt>
      <trkpt lat="43.48198" lon="6.38967">
        <ele>179</ele>
        <time>2022-04-08T11:59:22Z</time>
      </trkpt>
      <trkpt lat="43.48197" lon="6.38967">
        <ele>179</ele>
        <time>2022-04-08T11:59:23Z</time>
      </trkpt>
      <trkpt lat="43.48196" lon="6.38968">
        <ele>179</ele>
        <time>2022-04-08T11:59:24Z</time>
      </trkpt>
      <trkpt lat="43.48195" lon="6.38969">
        <ele>179</ele>
        <time>2022-04-08T11:59:25Z</time>
      </trkpt>
      <trkpt lat="43.48194" lon="6.3897">
        <ele>179</ele>
        <time>2022-04-08T11:59:26Z</time>
      </trkpt>
      <trkpt lat="43.48193" lon="6.3897">
        <ele>180</ele>
        <time>2022-04-08T11:59:27Z</time>
      </trkpt>
      <trkpt lat="43.48192" lon="6.38971">
        <ele>180</ele>
        <time>2022-04-08T11:59:28Z</time>
      </trkpt>
      <trkpt lat="43.48191" lon="6.38971">
        <ele>180</ele>
        <time>2022-04-08T11:59:29Z</time>
      </trkpt>
      <trkpt lat="43.4819" lon="6.38972">
        <ele>180</ele>
        <time>2022-04-08T11:59:30Z</time>
      </trkpt>
      <trkpt lat="43.48189" lon="6.38973">
        <ele>180</ele>
        <time>2022-04-08T11:59:31Z</time>
      </trkpt>
      <trkpt lat="43.48189" lon="6.38973">
        <ele>180</ele>
        <time>2022-04-08T11:59:32Z</time>
      </trkpt>
      <trkpt lat="43.48188" lon="6.38974">
        <ele>180</ele>
        <time>2022-04-08T11:59:33Z</time>
      </trkpt>
      <trkpt lat="43.48187" lon="6.38974">
        <ele>179</ele>
        <time>2022-04-08T11:59:34Z</time>
      </trkpt>
      <trkpt lat="43.48186" lon="6.38975">
        <ele>179</ele>
        <time>2022-04-08T11:59:35Z</time>
      </trkpt>
      <trkpt lat="43.48185" lon="6.38975">
        <ele>179</ele>
        <time>2022-04-08T11:59:36Z</time>
      </trkpt>
      <trkpt lat="43.48184" lon="6.38976">
        <ele>179</ele>
        <time>2022-04-08T11:59:37Z</time>
      </trkpt>
      <trkpt lat="43.48183" lon="6.38976">
        <ele>179</ele>
        <time>2022-04-08T11:59:38Z</time>
      </trkpt>
      <trkpt lat="43.48182" lon="6.38977">
        <ele>179</ele>
        <time>2022-04-08T11:59:39Z</time>
      </trkpt>
      <trkpt lat="43.48181" lon="6.38977">
        <ele>178</ele>
        <time>2022-04-08T11:59:40Z</time>
      </trkpt>
      <trkpt lat="43.4818" lon="6.38978">
        <ele>178</ele>
        <time>2022-04-08T11:59:41Z</time>
      </trkpt>
      <trkpt lat="43.48179" lon="6.38978">
        <ele>178</ele>
        <time>2022-04-08T11:59:42Z</time>
      </trkpt>
      <trkpt lat="43.48179" lon="6.38978">
        <ele>178</ele>
        <time>2022-04-08T11:59:43Z</time>
      </trkpt>
      <trkpt lat="43.48178" lon="6.38978">
        <ele>178</ele>
        <time>2022-04-08T11:59:44Z</time>
      </trkpt>
      <trkpt lat="43.48177" lon="6.38979">
        <ele>178</ele>
        <time>2022-04-08T11:59:45Z</time>
      </trkpt>
      <trkpt lat="43.48176" lon="6.38979">
        <ele>177</ele>
        <time>2022-04-08T11:59:46Z</time>
      </trkpt>
      <trkpt lat="43.48175" lon="6.38979">
        <ele>177</ele>
        <time>2022-04-08T11:59:47Z</time>
      </trkpt>
      <trkpt lat="43.48174" lon="6.3898">
        <ele>177</ele>
        <time>2022-04-08T11:59:48Z</time>
      </trkpt>
      <trkpt lat="43.48173" lon="6.3898">
        <ele>177</ele>
        <time>2022-04-08T11:59:49Z</time>
      </trkpt>
      <trkpt lat="43.48172" lon="6.38981">
        <ele>177</ele>
        <time>2022-04-08T11:59:50Z</time>
      </trkpt>
      <trkpt lat="43.48171" lon="6.38981">
        <ele>177</ele>
        <time>2022-04-08T11:59:51Z</time>
      </trkpt>
      <trkpt lat="43.4817" lon="6.38982">
        <ele>177</ele>
        <time>2022-04-08T11:59:52Z</time>
      </trkpt>
      <trkpt lat="43.48169" lon="6.38982">
        <ele>177</ele>
        <time>2022-04-08T11:59:53Z</time>
      </trkpt>
      <trkpt lat="43.48168" lon="6.38983">
        <ele>177</ele>
        <time>2022-04-08T11:59:54Z</time>
      </trkpt>
      <trkpt lat="43.48167" lon="6.38984">
        <ele>177</ele>
        <time>2022-04-08T11:59:55Z</time>
      </trkpt>
      <trkpt lat="43.48166" lon="6.38985">
        <ele>177</ele>
        <time>2022-04-08T11:59:56Z</time>
      </trkpt>
      <trkpt lat="43.48165" lon="6.38986">
        <ele>177</ele>
        <time>2022-04-08T11:59:57Z</time>
      </trkpt>
      <trkpt lat="43.48164" lon="6.38987">
        <ele>177</ele>
        <time>2022-04-08T11:59:58Z</time>
      </trkpt>
      <trkpt lat="43.48163" lon="6.38988">
        <ele>177</ele>
        <time>2022-04-08T11:59:59Z</time>
      </trkpt>
      <trkpt lat="43.48163" lon="6.38989">
        <ele>177</ele>
        <time>2022-04-08T12:00:00Z</time>
      </trkpt>
      <trkpt lat="43.48162" lon="6.3899">
        <ele>177</ele>
        <time>2022-04-08T12:00:01Z</time>
      </trkpt>
      <trkpt lat="43.48161" lon="6.38991">
        <ele>176</ele>
        <time>2022-04-08T12:00:02Z</time>
      </trkpt>
      <trkpt lat="43.48161" lon="6.38991">
        <ele>176</ele>
        <time>2022-04-08T12:00:03Z</time>
      </trkpt>
      <trkpt lat="43.4816" lon="6.38992">
        <ele>176</ele>
        <time>2022-04-08T12:00:04Z</time>
      </trkpt>
      <trkpt lat="43.4816" lon="6.38993">
        <ele>176</ele>
        <time>2022-04-08T12:00:05Z</time>
      </trkpt>
      <trkpt lat="43.48159" lon="6.38994">
        <ele>176</ele>
        <time>2022-04-08T12:00:06Z</time>
      </trkpt>
      <trkpt lat="43.48158" lon="6.38995">
        <ele>176</ele>
        <time>2022-04-08T12:00:07Z</time>
      </trkpt>
      <trkpt lat="43.48158" lon="6.38996">
        <ele>176</ele>
        <time>2022-04-08T12:00:08Z</time>
      </trkpt>
      <trkpt lat="43.48158" lon="6.38997">
        <ele>176</ele>
        <time>2022-04-08T12:00:09Z</time>
      </trkpt>
      <trkpt lat="43.48157" lon="6.38998">
        <ele>176</ele>
        <time>2022-04-08T12:00:10Z</time>
      </trkpt>
      <trkpt lat="43.48157" lon="6.38998">
        <ele>176</ele>
        <time>2022-04-08T12:00:11Z</time>
      </trkpt>
      <trkpt lat="43.48156" lon="6.38999">
        <ele>176</ele>
        <time>2022-04-08T12:00:12Z</time>
      </trkpt>
      <trkpt lat="43.48156" lon="6.38999">
        <ele>176</ele>
        <time>2022-04-08T12:00:13Z</time>
      </trkpt>
      <trkpt lat="43.48155" lon="6.38999">
        <ele>176</ele>
        <time>2022-04-08T12:00:14Z</time>
      </trkpt>
      <trkpt lat="43.48155" lon="6.39">
        <ele>176</ele>
        <time>2022-04-08T12:00:15Z</time>
      </trkpt>
      <trkpt lat="43.48155" lon="6.39">
        <ele>176</ele>
        <time>2022-04-08T12:00:16Z</time>
      </trkpt>
      <trkpt lat="43.48155" lon="6.39">
        <ele>176</ele>
        <time>2022-04-08T12:00:17Z</time>
      </trkpt>
      <trkpt lat="43.48155" lon="6.39001">
        <ele>176</ele>
        <time>2022-04-08T12:00:18Z</time>
      </trkpt>
      <trkpt lat="43.48154" lon="6.39001">
        <ele>176</ele>
        <time>2022-04-08T12:00:19Z</time>
      </trkpt>
      <trkpt lat="43.48153" lon="6.39">
        <ele>176</ele>
        <time>2022-04-08T12:00:20Z</time>
      </trkpt>
      <trkpt lat="43.48153" lon="6.39">
        <ele>176</ele>
        <time>2022-04-08T12:00:21Z</time>
      </trkpt>
      <trkpt lat="43.48153" lon="6.39">
        <ele>176</ele>
        <time>2022-04-08T12:00:22Z</time>
      </trkpt>
      <trkpt lat="43.48152" lon="6.39">
        <ele>176</ele>
        <time>2022-04-08T12:00:23Z</time>
      </trkpt>
      <trkpt lat="43.48153" lon="6.39">
        <ele>176</ele>
        <time>2022-04-08T12:00:24Z</time>
      </trkpt>
      <trkpt lat="43.48153" lon="6.39">
        <ele>176</ele>
        <time>2022-04-08T12:00:25Z</time>
      </trkpt>
      <trkpt lat="43.48153" lon="6.39">
        <ele>176</ele>
        <time>2022-04-08T12:00:26Z</time>
      </trkpt>
      <trkpt lat="43.48153" lon="6.39">
        <ele>176</ele>
        <time>2022-04-08T12:00:27Z</time>
      </trkpt>
      <trkpt lat="43.48154" lon="6.39">
        <ele>176</ele>
        <time>2022-04-08T12:00:28Z</time>
      </trkpt>
      <trkpt lat="43.48154" lon="6.39">
        <ele>176</ele>
        <time>2022-04-08T12:00:29Z</time>
      </trkpt>
      <trkpt lat="43.48154" lon="6.39">
        <ele>176</ele>
        <time>2022-04-08T12:00:30Z</time>
      </trkpt>
      <trkpt lat="43.48155" lon="6.39">
        <ele>176</ele>
        <time>2022-04-08T12:00:31Z</time>
      </trkpt>
      <trkpt lat="43.48155" lon="6.39">
        <ele>176</ele>
        <time>2022-04-08T12:00:32Z</time>
      </trkpt>
      <trkpt lat="43.48155" lon="6.39">
        <ele>176</ele>
        <time>2022-04-08T12:00:33Z</time>
      </trkpt>
      <trkpt lat="43.48155" lon="6.39">
        <ele>176</ele>
        <time>2022-04-08T12:00:34Z</time>
      </trkpt>
      <trkpt lat="43.48155" lon="6.39">
        <ele>176</ele>
        <time>2022-04-08T12:00:35Z</time>
      </trkpt>
      <trkpt lat="43.48156" lon="6.39">
        <ele>176</ele>
        <time>2022-04-08T12:00:36Z</time>
      </trkpt>
      <trkpt lat="43.48156" lon="6.39">
        <ele>176</ele>
        <time>2022-04-08T12:00:37Z</time>
      </trkpt>
      <trkpt lat="43.48156" lon="6.39">
        <ele>176</ele>
        <time>2022-04-08T12:00:38Z</time>
      </trkpt>
      <trkpt lat="43.48156" lon="6.39">
        <ele>176</ele>
        <time>2022-04-08T12:00:39Z</time>
      </trkpt>
      <trkpt lat="43.48156" lon="6.39">
        <ele>176</ele>
        <time>2022-04-08T12:00:40Z</time>
      </trkpt>
      <trkpt lat="43.48156" lon="6.39">
        <ele>176</ele>
        <time>2022-04-08T12:00:41Z</time>
      </trkpt>
      <trkpt lat="43.48156" lon="6.39">
        <ele>177</ele>
        <time>2022-04-08T12:00:42Z</time>
      </trkpt>
      <trkpt lat="43.48156" lon="6.39">
        <ele>177</ele>
        <time>2022-04-08T12:00:43Z</time>
      </trkpt>
      <trkpt lat="43.48156" lon="6.39">
        <ele>177</ele>
        <time>2022-04-08T12:00:44Z</time>
      </trkpt>
      <trkpt lat="43.48156" lon="6.39">
        <ele>177</ele>
        <time>2022-04-08T12:00:45Z</time>
      </trkpt>
      <trkpt lat="43.48156" lon="6.39">
        <ele>177</ele>
        <time>2022-04-08T12:00:46Z</time>
      </trkpt>
      <trkpt lat="43.48156" lon="6.39">
        <ele>177</ele>
        <time>2022-04-08T12:00:47Z</time>
      </trkpt>
      <trkpt lat="43.48156" lon="6.39">
        <ele>177</ele>
        <time>2022-04-08T12:00:48Z</time>
      </trkpt>
      <trkpt lat="43.48156" lon="6.39">
        <ele>177</ele>
        <time>2022-04-08T12:00:49Z</time>
      </trkpt>
      <trkpt lat="43.48156" lon="6.39">
        <ele>177</ele>
        <time>2022-04-08T12:00:50Z</time>
      </trkpt>
      <trkpt lat="43.48156" lon="6.39">
        <ele>177</ele>
        <time>2022-04-08T12:00:51Z</time>
      </trkpt>
      <trkpt lat="43.48156" lon="6.39">
        <ele>177</ele>
        <time>2022-04-08T12:00:52Z</time>
      </trkpt>
      <trkpt lat="43.48156" lon="6.39">
        <ele>177</ele>
        <time>2022-04-08T12:00:53Z</time>
      </trkpt>
      <trkpt lat="43.48156" lon="6.39">
        <ele>177</ele>
        <time>2022-04-08T12:00:54Z</time>
      </trkpt>
      <trkpt lat="43.48156" lon="6.39">
        <ele>177</ele>
        <time>2022-04-08T12:00:55Z</time>
      </trkpt>
      <trkpt lat="43.48156" lon="6.39">
        <ele>177</ele>
        <time>2022-04-08T12:00:56Z</time>
      </trkpt>
      <trkpt lat="43.48156" lon="6.39">
        <ele>177</ele>
        <time>2022-04-08T12:00:57Z</time>
      </trkpt>
      <trkpt lat="43.48156" lon="6.39">
        <ele>177</ele>
        <time>2022-04-08T12:00:58Z</time>
      </trkpt>
      <trkpt lat="43.48156" lon="6.39">
        <ele>177</ele>
        <time>2022-04-08T12:00:59Z</time>
      </trkpt>
      <trkpt lat="43.48156" lon="6.39">
        <ele>177</ele>
        <time>2022-04-08T12:01:00Z</time>
      </trkpt>
      <trkpt lat="43.48156" lon="6.39">
        <ele>177</ele>
        <time>2022-04-08T12:01:01Z</time>
      </trkpt>
      <trkpt lat="43.48156" lon="6.39">
        <ele>177</ele>
        <time>2022-04-08T12:01:02Z</time>
      </trkpt>
      <trkpt lat="43.48156" lon="6.39">
        <ele>177</ele>
        <time>2022-04-08T12:01:03Z</time>
      </trkpt>
      <trkpt lat="43.48156" lon="6.39">
        <ele>177</ele>
        <time>2022-04-08T12:01:04Z</time>
      </trkpt>
      <trkpt lat="43.48156" lon="6.39">
        <ele>178</ele>
        <time>2022-04-08T12:01:05Z</time>
      </trkpt>
      <trkpt lat="43.48156" lon="6.39">
        <ele>178</ele>
        <time>2022-04-08T12:01:06Z</time>
      </trkpt>
      <trkpt lat="43.48156" lon="6.39">
        <ele>178</ele>
        <time>2022-04-08T12:01:07Z</time>
      </trkpt>
      <trkpt lat="43.48156" lon="6.39">
        <ele>178</ele>
        <time>2022-04-08T12:01:08Z</time>
      </trkpt>
      <trkpt lat="43.48156" lon="6.39">
        <ele>178</ele>
        <time>2022-04-08T12:01:09Z</time>
      </trkpt>
      <trkpt lat="43.48156" lon="6.39">
        <ele>178</ele>
        <time>2022-04-08T12:01:10Z</time>
      </trkpt>
      <trkpt lat="43.48156" lon="6.39">
        <ele>178</ele>
        <time>2022-04-08T12:01:11Z</time>
      </trkpt>
      <trkpt lat="43.48156" lon="6.39">
        <ele>178</ele>
        <time>2022-04-08T12:01:12Z</time>
      </trkpt>
      <trkpt lat="43.48156" lon="6.39">
        <ele>178</ele>
        <time>2022-04-08T12:01:13Z</time>
      </trkpt>
      <trkpt lat="43.48156" lon="6.39">
        <ele>178</ele>
        <time>2022-04-08T12:01:14Z</time>
      </trkpt>
      <trkpt lat="43.48156" lon="6.39">
        <ele>178</ele>
        <time>2022-04-08T12:01:15Z</time>
      </trkpt>
      <trkpt lat="43.48156" lon="6.39">
        <ele>178</ele>
        <time>2022-04-08T12:01:16Z</time>
      </trkpt>
      <trkpt lat="43.48156" lon="6.39">
        <ele>178</ele>
        <time>2022-04-08T12:01:17Z</time>
      </trkpt>
      <trkpt lat="43.48156" lon="6.39">
        <ele>178</ele>
        <time>2022-04-08T12:01:18Z</time>
      </trkpt>
      <trkpt lat="43.48156" lon="6.39">
        <ele>178</ele>
        <time>2022-04-08T12:01:19Z</time>
      </trkpt>
      <trkpt lat="43.48156" lon="6.39">
        <ele>178</ele>
        <time>2022-04-08T12:01:20Z</time>
      </trkpt>
      <trkpt lat="43.48156" lon="6.39">
        <ele>178</ele>
        <time>2022-04-08T12:01:21Z</time>
      </trkpt>
      <trkpt lat="43.48156" lon="6.39">
        <ele>178</ele>
        <time>2022-04-08T12:01:22Z</time>
      </trkpt>
      <trkpt lat="43.48156" lon="6.39">
        <ele>178</ele>
        <time>2022-04-08T12:01:23Z</time>
      </trkpt>
      <trkpt lat="43.48156" lon="6.39">
        <ele>178</ele>
        <time>2022-04-08T12:01:24Z</time>
      </trkpt>
      <trkpt lat="43.48156" lon="6.39">
        <ele>178</ele>
        <time>2022-04-08T12:01:25Z</time>
      </trkpt>
      <trkpt lat="43.48156" lon="6.39">
        <ele>178</ele>
        <time>2022-04-08T12:01:26Z</time>
      </trkpt>
      <trkpt lat="43.48156" lon="6.39">
        <ele>178</ele>
        <time>2022-04-08T12:01:27Z</time>
      </trkpt>
      <trkpt lat="43.48156" lon="6.39">
        <ele>178</ele>
        <time>2022-04-08T12:01:28Z</time>
      </trkpt>
      <trkpt lat="43.48161" lon="6.38999">
        <ele>178</ele>
        <time>2022-04-08T12:01:29Z</time>
      </trkpt>
      <trkpt lat="43.48161" lon="6.38999">
        <ele>178</ele>
        <time>2022-04-08T12:01:30Z</time>
      </trkpt>
      <trkpt lat="43.48161" lon="6.38999">
        <ele>178</ele>
        <time>2022-04-08T12:01:31Z</time>
      </trkpt>
      <trkpt lat="43.48162" lon="6.38999">
        <ele>178</ele>
        <time>2022-04-08T12:01:32Z</time>
      </trkpt>
      <trkpt lat="43.48162" lon="6.38999">
        <ele>179</ele>
        <time>2022-04-08T12:01:33Z</time>
      </trkpt>
      <trkpt lat="43.48162" lon="6.38999">
        <ele>179</ele>
        <time>2022-04-08T12:01:34Z</time>
      </trkpt>
      <trkpt lat="43.48162" lon="6.38999">
        <ele>179</ele>
        <time>2022-04-08T12:01:35Z</time>
      </trkpt>
      <trkpt lat="43.48162" lon="6.38999">
        <ele>179</ele>
        <time>2022-04-08T12:01:36Z</time>
      </trkpt>
      <trkpt lat="43.48162" lon="6.38999">
        <ele>179</ele>
        <time>2022-04-08T12:01:37Z</time>
      </trkpt>
      <trkpt lat="43.48162" lon="6.38999">
        <ele>179</ele>
        <time>2022-04-08T12:01:38Z</time>
      </trkpt>
      <trkpt lat="43.48162" lon="6.38999">
        <ele>179</ele>
        <time>2022-04-08T12:01:39Z</time>
      </trkpt>
      <trkpt lat="43.48162" lon="6.38999">
        <ele>179</ele>
        <time>2022-04-08T12:01:40Z</time>
      </trkpt>
      <trkpt lat="43.48162" lon="6.38999">
        <ele>179</ele>
        <time>2022-04-08T12:01:41Z</time>
      </trkpt>
      <trkpt lat="43.48162" lon="6.38999">
        <ele>179</ele>
        <time>2022-04-08T12:01:42Z</time>
      </trkpt>
      <trkpt lat="43.48162" lon="6.38999">
        <ele>179</ele>
        <time>2022-04-08T12:01:43Z</time>
      </trkpt>
      <trkpt lat="43.48162" lon="6.38999">
        <ele>179</ele>
        <time>2022-04-08T12:01:44Z</time>
      </trkpt>
      <trkpt lat="43.48162" lon="6.38999">
        <ele>179</ele>
        <time>2022-04-08T12:01:45Z</time>
      </trkpt>
      <trkpt lat="43.48162" lon="6.38999">
        <ele>179</ele>
        <time>2022-04-08T12:01:46Z</time>
      </trkpt>
      <trkpt lat="43.48162" lon="6.38999">
        <ele>179</ele>
        <time>2022-04-08T12:01:47Z</time>
      </trkpt>
      <trkpt lat="43.48162" lon="6.38999">
        <ele>179</ele>
        <time>2022-04-08T12:01:48Z</time>
      </trkpt>
      <trkpt lat="43.48162" lon="6.38999">
        <ele>179</ele>
        <time>2022-04-08T12:01:49Z</time>
      </trkpt>
      <trkpt lat="43.48162" lon="6.38999">
        <ele>179</ele>
        <time>2022-04-08T12:01:50Z</time>
      </trkpt>
      <trkpt lat="43.48162" lon="6.38999">
        <ele>179</ele>
        <time>2022-04-08T12:01:51Z</time>
      </trkpt>
      <trkpt lat="43.48162" lon="6.38999">
        <ele>179</ele>
        <time>2022-04-08T12:01:52Z</time>
      </trkpt>
      <trkpt lat="43.48162" lon="6.38999">
        <ele>179</ele>
        <time>2022-04-08T12:01:53Z</time>
      </trkpt>
      <trkpt lat="43.48162" lon="6.38999">
        <ele>179</ele>
        <time>2022-04-08T12:01:54Z</time>
      </trkpt>
      <trkpt lat="43.48162" lon="6.38999">
        <ele>179</ele>
        <time>2022-04-08T12:01:55Z</time>
      </trkpt>
      <trkpt lat="43.48162" lon="6.38999">
        <ele>179</ele>
        <time>2022-04-08T12:01:56Z</time>
      </trkpt>
      <trkpt lat="43.48162" lon="6.38999">
        <ele>179</ele>
        <time>2022-04-08T12:01:57Z</time>
      </trkpt>
      <trkpt lat="43.48162" lon="6.38999">
        <ele>179</ele>
        <time>2022-04-08T12:01:58Z</time>
      </trkpt>
      <trkpt lat="43.48162" lon="6.38999">
        <ele>179</ele>
        <time>2022-04-08T12:01:59Z</time>
      </trkpt>
      <trkpt lat="43.48162" lon="6.38999">
        <ele>179</ele>
        <time>2022-04-08T12:02:00Z</time>
      </trkpt>
      <trkpt lat="43.48162" lon="6.38999">
        <ele>179</ele>
        <time>2022-04-08T12:02:01Z</time>
      </trkpt>
      <trkpt lat="43.48162" lon="6.38999">
        <ele>179</ele>
        <time>2022-04-08T12:02:02Z</time>
      </trkpt>
      <trkpt lat="43.48159" lon="6.38998">
        <ele>179</ele>
        <time>2022-04-08T12:02:03Z</time>
      </trkpt>
      <trkpt lat="43.48159" lon="6.38998">
        <ele>179</ele>
        <time>2022-04-08T12:02:04Z</time>
      </trkpt>
      <trkpt lat="43.48158" lon="6.38998">
        <ele>179</ele>
        <time>2022-04-08T12:02:05Z</time>
      </trkpt>
      <trkpt lat="43.48158" lon="6.38998">
        <ele>179</ele>
        <time>2022-04-08T12:02:06Z</time>
      </trkpt>
      <trkpt lat="43.48157" lon="6.38998">
        <ele>179</ele>
        <time>2022-04-08T12:02:07Z</time>
      </trkpt>
      <trkpt lat="43.48157" lon="6.38999">
        <ele>179</ele>
        <time>2022-04-08T12:02:08Z</time>
      </trkpt>
      <trkpt lat="43.48157" lon="6.38999">
        <ele>179</ele>
        <time>2022-04-08T12:02:09Z</time>
      </trkpt>
      <trkpt lat="43.48156" lon="6.38999">
        <ele>179</ele>
        <time>2022-04-08T12:02:10Z</time>
      </trkpt>
      <trkpt lat="43.48156" lon="6.38999">
        <ele>179</ele>
        <time>2022-04-08T12:02:11Z</time>
      </trkpt>
      <trkpt lat="43.48155" lon="6.38999">
        <ele>179</ele>
        <time>2022-04-08T12:02:12Z</time>
      </trkpt>
      <trkpt lat="43.48155" lon="6.38999">
        <ele>179</ele>
        <time>2022-04-08T12:02:13Z</time>
      </trkpt>
      <trkpt lat="43.48154" lon="6.38999">
        <ele>180</ele>
        <time>2022-04-08T12:02:14Z</time>
      </trkpt>
      <trkpt lat="43.48154" lon="6.38998">
        <ele>180</ele>
        <time>2022-04-08T12:02:15Z</time>
      </trkpt>
      <trkpt lat="43.48153" lon="6.38998">
        <ele>180</ele>
        <time>2022-04-08T12:02:16Z</time>
      </trkpt>
      <trkpt lat="43.48152" lon="6.38997">
        <ele>180</ele>
        <time>2022-04-08T12:02:17Z</time>
      </trkpt>
      <trkpt lat="43.48151" lon="6.38997">
        <ele>180</ele>
        <time>2022-04-08T12:02:18Z</time>
      </trkpt>
      <trkpt lat="43.48151" lon="6.38996">
        <ele>180</ele>
        <time>2022-04-08T12:02:19Z</time>
      </trkpt>
      <trkpt lat="43.48151" lon="6.38996">
        <ele>180</ele>
        <time>2022-04-08T12:02:20Z</time>
      </trkpt>
      <trkpt lat="43.4815" lon="6.38995">
        <ele>180</ele>
        <time>2022-04-08T12:02:21Z</time>
      </trkpt>
      <trkpt lat="43.4815" lon="6.38995">
        <ele>180</ele>
        <time>2022-04-08T12:02:22Z</time>
      </trkpt>
      <trkpt lat="43.48149" lon="6.38994">
        <ele>180</ele>
        <time>2022-04-08T12:02:23Z</time>
      </trkpt>
      <trkpt lat="43.48148" lon="6.38993">
        <ele>180</ele>
        <time>2022-04-08T12:02:24Z</time>
      </trkpt>
      <trkpt lat="43.48147" lon="6.38993">
        <ele>180</ele>
        <time>2022-04-08T12:02:25Z</time>
      </trkpt>
      <trkpt lat="43.48146" lon="6.38993">
        <ele>180</ele>
        <time>2022-04-08T12:02:26Z</time>
      </trkpt>
      <trkpt lat="43.48145" lon="6.38992">
        <ele>180</ele>
        <time>2022-04-08T12:02:27Z</time>
      </trkpt>
      <trkpt lat="43.48144" lon="6.38992">
        <ele>180</ele>
        <time>2022-04-08T12:02:28Z</time>
      </trkpt>
      <trkpt lat="43.48143" lon="6.38992">
        <ele>180</ele>
        <time>2022-04-08T12:02:29Z</time>
      </trkpt>
      <trkpt lat="43.48143" lon="6.38991">
        <ele>180</ele>
        <time>2022-04-08T12:02:30Z</time>
      </trkpt>
      <trkpt lat="43.48142" lon="6.38991">
        <ele>180</ele>
        <time>2022-04-08T12:02:31Z</time>
      </trkpt>
      <trkpt lat="43.48141" lon="6.3899">
        <ele>180</ele>
        <time>2022-04-08T12:02:32Z</time>
      </trkpt>
      <trkpt lat="43.48141" lon="6.3899">
        <ele>180</ele>
        <time>2022-04-08T12:02:33Z</time>
      </trkpt>
      <trkpt lat="43.4814" lon="6.38989">
        <ele>180</ele>
        <time>2022-04-08T12:02:34Z</time>
      </trkpt>
      <trkpt lat="43.48139" lon="6.38989">
        <ele>180</ele>
        <time>2022-04-08T12:02:35Z</time>
      </trkpt>
      <trkpt lat="43.48139" lon="6.38989">
        <ele>179</ele>
        <time>2022-04-08T12:02:36Z</time>
      </trkpt>
      <trkpt lat="43.48138" lon="6.38989">
        <ele>179</ele>
        <time>2022-04-08T12:02:37Z</time>
      </trkpt>
      <trkpt lat="43.48138" lon="6.38988">
        <ele>179</ele>
        <time>2022-04-08T12:02:38Z</time>
      </trkpt>
      <trkpt lat="43.48138" lon="6.38988">
        <ele>179</ele>
        <time>2022-04-08T12:02:39Z</time>
      </trkpt>
      <trkpt lat="43.48137" lon="6.38988">
        <ele>179</ele>
        <time>2022-04-08T12:02:40Z</time>
      </trkpt>
      <trkpt lat="43.48137" lon="6.38988">
        <ele>179</ele>
        <time>2022-04-08T12:02:41Z</time>
      </trkpt>
      <trkpt lat="43.48137" lon="6.38988">
        <ele>179</ele>
        <time>2022-04-08T12:02:42Z</time>
      </trkpt>
      <trkpt lat="43.48137" lon="6.38988">
        <ele>179</ele>
        <time>2022-04-08T12:02:43Z</time>
      </trkpt>
      <trkpt lat="43.48136" lon="6.38988">
        <ele>179</ele>
        <time>2022-04-08T12:02:44Z</time>
      </trkpt>
      <trkpt lat="43.48136" lon="6.38987">
        <ele>179</ele>
        <time>2022-04-08T12:02:45Z</time>
      </trkpt>
      <trkpt lat="43.48135" lon="6.38987">
        <ele>179</ele>
        <time>2022-04-08T12:02:46Z</time>
      </trkpt>
      <trkpt lat="43.48133" lon="6.38986">
        <ele>179</ele>
        <time>2022-04-08T12:02:47Z</time>
      </trkpt>
      <trkpt lat="43.48131" lon="6.38985">
        <ele>179</ele>
        <time>2022-04-08T12:02:48Z</time>
      </trkpt>
      <trkpt lat="43.4813" lon="6.38984">
        <ele>179</ele>
        <time>2022-04-08T12:02:49Z</time>
      </trkpt>
      <trkpt lat="43.48128" lon="6.38984">
        <ele>179</ele>
        <time>2022-04-08T12:02:50Z</time>
      </trkpt>
      <trkpt lat="43.48127" lon="6.38983">
        <ele>179</ele>
        <time>2022-04-08T12:02:51Z</time>
      </trkpt>
      <trkpt lat="43.48125" lon="6.38983">
        <ele>179</ele>
        <time>2022-04-08T12:02:52Z</time>
      </trkpt>
      <trkpt lat="43.48124" lon="6.38982">
        <ele>180</ele>
        <time>2022-04-08T12:02:53Z</time>
      </trkpt>
      <trkpt lat="43.48123" lon="6.38982">
        <ele>180</ele>
        <time>2022-04-08T12:02:54Z</time>
      </trkpt>
      <trkpt lat="43.48121" lon="6.38982">
        <ele>180</ele>
        <time>2022-04-08T12:02:55Z</time>
      </trkpt>
      <trkpt lat="43.4812" lon="6.38981">
        <ele>181</ele>
        <time>2022-04-08T12:02:56Z</time>
      </trkpt>
      <trkpt lat="43.48119" lon="6.38981">
        <ele>181</ele>
        <time>2022-04-08T12:02:57Z</time>
      </trkpt>
      <trkpt lat="43.48118" lon="6.3898">
        <ele>181</ele>
        <time>2022-04-08T12:02:58Z</time>
      </trkpt>
      <trkpt lat="43.48117" lon="6.3898">
        <ele>181</ele>
        <time>2022-04-08T12:02:59Z</time>
      </trkpt>
      <trkpt lat="43.48116" lon="6.3898">
        <ele>181</ele>
        <time>2022-04-08T12:03:00Z</time>
      </trkpt>
      <trkpt lat="43.48115" lon="6.38979">
        <ele>181</ele>
        <time>2022-04-08T12:03:01Z</time>
      </trkpt>
      <trkpt lat="43.48114" lon="6.38979">
        <ele>181</ele>
        <time>2022-04-08T12:03:02Z</time>
      </trkpt>
      <trkpt lat="43.48113" lon="6.38979">
        <ele>181</ele>
        <time>2022-04-08T12:03:03Z</time>
      </trkpt>
      <trkpt lat="43.48112" lon="6.38979">
        <ele>181</ele>
        <time>2022-04-08T12:03:04Z</time>
      </trkpt>
      <trkpt lat="43.48112" lon="6.38979">
        <ele>181</ele>
        <time>2022-04-08T12:03:05Z</time>
      </trkpt>
      <trkpt lat="43.48111" lon="6.38979">
        <ele>181</ele>
        <time>2022-04-08T12:03:06Z</time>
      </trkpt>
      <trkpt lat="43.4811" lon="6.38979">
        <ele>181</ele>
        <time>2022-04-08T12:03:07Z</time>
      </trkpt>
      <trkpt lat="43.4811" lon="6.38978">
        <ele>181</ele>
        <time>2022-04-08T12:03:08Z</time>
      </trkpt>
      <trkpt lat="43.48108" lon="6.38978">
        <ele>181</ele>
        <time>2022-04-08T12:03:09Z</time>
      </trkpt>
      <trkpt lat="43.48107" lon="6.38978">
        <ele>181</ele>
        <time>2022-04-08T12:03:10Z</time>
      </trkpt>
      <trkpt lat="43.48106" lon="6.38978">
        <ele>181</ele>
        <time>2022-04-08T12:03:11Z</time>
      </trkpt>
      <trkpt lat="43.48104" lon="6.38977">
        <ele>181</ele>
        <time>2022-04-08T12:03:12Z</time>
      </trkpt>
      <trkpt lat="43.48103" lon="6.38977">
        <ele>181</ele>
        <time>2022-04-08T12:03:13Z</time>
      </trkpt>
      <trkpt lat="43.48103" lon="6.38977">
        <ele>181</ele>
        <time>2022-04-08T12:03:14Z</time>
      </trkpt>
      <trkpt lat="43.48102" lon="6.38976">
        <ele>181</ele>
        <time>2022-04-08T12:03:15Z</time>
      </trkpt>
      <trkpt lat="43.48101" lon="6.38976">
        <ele>181</ele>
        <time>2022-04-08T12:03:16Z</time>
      </trkpt>
      <trkpt lat="43.481" lon="6.38976">
        <ele>181</ele>
        <time>2022-04-08T12:03:17Z</time>
      </trkpt>
      <trkpt lat="43.48099" lon="6.38976">
        <ele>180</ele>
        <time>2022-04-08T12:03:18Z</time>
      </trkpt>
      <trkpt lat="43.48098" lon="6.38975">
        <ele>180</ele>
        <time>2022-04-08T12:03:19Z</time>
      </trkpt>
      <trkpt lat="43.48097" lon="6.38975">
        <ele>180</ele>
        <time>2022-04-08T12:03:20Z</time>
      </trkpt>
      <trkpt lat="43.48096" lon="6.38975">
        <ele>180</ele>
        <time>2022-04-08T12:03:21Z</time>
      </trkpt>
      <trkpt lat="43.48095" lon="6.38974">
        <ele>180</ele>
        <time>2022-04-08T12:03:22Z</time>
      </trkpt>
      <trkpt lat="43.48094" lon="6.38973">
        <ele>180</ele>
        <time>2022-04-08T12:03:23Z</time>
      </trkpt>
      <trkpt lat="43.48093" lon="6.38973">
        <ele>180</ele>
        <time>2022-04-08T12:03:24Z</time>
      </trkpt>
      <trkpt lat="43.48092" lon="6.38972">
        <ele>180</ele>
        <time>2022-04-08T12:03:25Z</time>
      </trkpt>
      <trkpt lat="43.48091" lon="6.38972">
        <ele>180</ele>
        <time>2022-04-08T12:03:26Z</time>
      </trkpt>
      <trkpt lat="43.4809" lon="6.38971">
        <ele>180</ele>
        <time>2022-04-08T12:03:27Z</time>
      </trkpt>
      <trkpt lat="43.48089" lon="6.38971">
        <ele>180</ele>
        <time>2022-04-08T12:03:28Z</time>
      </trkpt>
      <trkpt lat="43.48087" lon="6.3897">
        <ele>180</ele>
        <time>2022-04-08T12:03:29Z</time>
      </trkpt>
      <trkpt lat="43.48085" lon="6.3897">
        <ele>180</ele>
        <time>2022-04-08T12:03:30Z</time>
      </trkpt>
      <trkpt lat="43.48084" lon="6.38969">
        <ele>180</ele>
        <time>2022-04-08T12:03:31Z</time>
      </trkpt>
      <trkpt lat="43.48082" lon="6.38969">
        <ele>180</ele>
        <time>2022-04-08T12:03:32Z</time>
      </trkpt>
      <trkpt lat="43.4808" lon="6.38969">
        <ele>180</ele>
        <time>2022-04-08T12:03:33Z</time>
      </trkpt>
      <trkpt lat="43.48079" lon="6.38968">
        <ele>179</ele>
        <time>2022-04-08T12:03:34Z</time>
      </trkpt>
      <trkpt lat="43.48078" lon="6.38968">
        <ele>179</ele>
        <time>2022-04-08T12:03:35Z</time>
      </trkpt>
      <trkpt lat="43.48076" lon="6.38968">
        <ele>178</ele>
        <time>2022-04-08T12:03:36Z</time>
      </trkpt>
      <trkpt lat="43.48075" lon="6.38968">
        <ele>178</ele>
        <time>2022-04-08T12:03:37Z</time>
      </trkpt>
      <trkpt lat="43.48074" lon="6.38968">
        <ele>178</ele>
        <time>2022-04-08T12:03:38Z</time>
      </trkpt>
      <trkpt lat="43.48073" lon="6.38968">
        <ele>178</ele>
        <time>2022-04-08T12:03:39Z</time>
      </trkpt>
      <trkpt lat="43.48072" lon="6.38967">
        <ele>178</ele>
        <time>2022-04-08T12:03:40Z</time>
      </trkpt>
      <trkpt lat="43.4807" lon="6.38967">
        <ele>178</ele>
        <time>2022-04-08T12:03:41Z</time>
      </trkpt>
      <trkpt lat="43.48069" lon="6.38967">
        <ele>178</ele>
        <time>2022-04-08T12:03:42Z</time>
      </trkpt>
      <trkpt lat="43.48069" lon="6.38966">
        <ele>178</ele>
        <time>2022-04-08T12:03:43Z</time>
      </trkpt>
      <trkpt lat="43.48068" lon="6.38966">
        <ele>178</ele>
        <time>2022-04-08T12:03:44Z</time>
      </trkpt>
      <trkpt lat="43.48067" lon="6.38966">
        <ele>178</ele>
        <time>2022-04-08T12:03:45Z</time>
      </trkpt>
      <trkpt lat="43.48066" lon="6.38966">
        <ele>178</ele>
        <time>2022-04-08T12:03:46Z</time>
      </trkpt>
      <trkpt lat="43.48065" lon="6.38966">
        <ele>178</ele>
        <time>2022-04-08T12:03:47Z</time>
      </trkpt>
      <trkpt lat="43.48064" lon="6.38965">
        <ele>178</ele>
        <time>2022-04-08T12:03:48Z</time>
      </trkpt>
      <trkpt lat="43.48064" lon="6.38965">
        <ele>178</ele>
        <time>2022-04-08T12:03:49Z</time>
      </trkpt>
      <trkpt lat="43.48063" lon="6.38965">
        <ele>178</ele>
        <time>2022-04-08T12:03:50Z</time>
      </trkpt>
      <trkpt lat="43.48062" lon="6.38965">
        <ele>178</ele>
        <time>2022-04-08T12:03:51Z</time>
      </trkpt>
      <trkpt lat="43.48061" lon="6.38965">
        <ele>178</ele>
        <time>2022-04-08T12:03:52Z</time>
      </trkpt>
      <trkpt lat="43.4806" lon="6.38965">
        <ele>178</ele>
        <time>2022-04-08T12:03:53Z</time>
      </trkpt>
      <trkpt lat="43.48059" lon="6.38965">
        <ele>178</ele>
        <time>2022-04-08T12:03:54Z</time>
      </trkpt>
      <trkpt lat="43.48058" lon="6.38964">
        <ele>178</ele>
        <time>2022-04-08T12:03:55Z</time>
      </trkpt>
      <trkpt lat="43.48058" lon="6.38964">
        <ele>178</ele>
        <time>2022-04-08T12:03:56Z</time>
      </trkpt>
      <trkpt lat="43.48057" lon="6.38964">
        <ele>178</ele>
        <time>2022-04-08T12:03:57Z</time>
      </trkpt>
      <trkpt lat="43.48056" lon="6.38963">
        <ele>178</ele>
        <time>2022-04-08T12:03:58Z</time>
      </trkpt>
      <trkpt lat="43.48056" lon="6.38963">
        <ele>178</ele>
        <time>2022-04-08T12:03:59Z</time>
      </trkpt>
      <trkpt lat="43.48055" lon="6.38963">
        <ele>178</ele>
        <time>2022-04-08T12:04:00Z</time>
      </trkpt>
      <trkpt lat="43.48054" lon="6.38962">
        <ele>178</ele>
        <time>2022-04-08T12:04:01Z</time>
      </trkpt>
      <trkpt lat="43.48054" lon="6.38962">
        <ele>178</ele>
        <time>2022-04-08T12:04:02Z</time>
      </trkpt>
      <trkpt lat="43.48053" lon="6.38962">
        <ele>178</ele>
        <time>2022-04-08T12:04:03Z</time>
      </trkpt>
      <trkpt lat="43.48052" lon="6.38962">
        <ele>178</ele>
        <time>2022-04-08T12:04:04Z</time>
      </trkpt>
      <trkpt lat="43.48052" lon="6.38962">
        <ele>178</ele>
        <time>2022-04-08T12:04:05Z</time>
      </trkpt>
      <trkpt lat="43.48051" lon="6.38961">
        <ele>179</ele>
        <time>2022-04-08T12:04:06Z</time>
      </trkpt>
      <trkpt lat="43.48051" lon="6.38961">
        <ele>179</ele>
        <time>2022-04-08T12:04:07Z</time>
      </trkpt>
      <trkpt lat="43.4805" lon="6.38961">
        <ele>179</ele>
        <time>2022-04-08T12:04:08Z</time>
      </trkpt>
      <trkpt lat="43.4805" lon="6.3896">
        <ele>179</ele>
        <time>2022-04-08T12:04:09Z</time>
      </trkpt>
      <trkpt lat="43.48049" lon="6.3896">
        <ele>179</ele>
        <time>2022-04-08T12:04:10Z</time>
      </trkpt>
      <trkpt lat="43.48048" lon="6.3896">
        <ele>179</ele>
        <time>2022-04-08T12:04:11Z</time>
      </trkpt>
      <trkpt lat="43.48047" lon="6.3896">
        <ele>179</ele>
        <time>2022-04-08T12:04:12Z</time>
      </trkpt>
      <trkpt lat="43.48046" lon="6.3896">
        <ele>179</ele>
        <time>2022-04-08T12:04:13Z</time>
      </trkpt>
      <trkpt lat="43.48045" lon="6.3896">
        <ele>179</ele>
        <time>2022-04-08T12:04:14Z</time>
      </trkpt>
      <trkpt lat="43.48044" lon="6.3896">
        <ele>179</ele>
        <time>2022-04-08T12:04:15Z</time>
      </trkpt>
      <trkpt lat="43.48043" lon="6.3896">
        <ele>179</ele>
        <time>2022-04-08T12:04:16Z</time>
      </trkpt>
      <trkpt lat="43.48042" lon="6.38959">
        <ele>179</ele>
        <time>2022-04-08T12:04:17Z</time>
      </trkpt>
      <trkpt lat="43.48041" lon="6.38959">
        <ele>179</ele>
        <time>2022-04-08T12:04:18Z</time>
      </trkpt>
      <trkpt lat="43.4804" lon="6.38959">
        <ele>180</ele>
        <time>2022-04-08T12:04:19Z</time>
      </trkpt>
      <trkpt lat="43.48038" lon="6.38959">
        <ele>180</ele>
        <time>2022-04-08T12:04:20Z</time>
      </trkpt>
      <trkpt lat="43.48037" lon="6.38959">
        <ele>180</ele>
        <time>2022-04-08T12:04:21Z</time>
      </trkpt>
      <trkpt lat="43.48036" lon="6.38958">
        <ele>180</ele>
        <time>2022-04-08T12:04:22Z</time>
      </trkpt>
      <trkpt lat="43.48035" lon="6.38958">
        <ele>180</ele>
        <time>2022-04-08T12:04:23Z</time>
      </trkpt>
      <trkpt lat="43.48034" lon="6.38958">
        <ele>180</ele>
        <time>2022-04-08T12:04:24Z</time>
      </trkpt>
      <trkpt lat="43.48033" lon="6.38957">
        <ele>180</ele>
        <time>2022-04-08T12:04:25Z</time>
      </trkpt>
      <trkpt lat="43.48031" lon="6.38957">
        <ele>180</ele>
        <time>2022-04-08T12:04:26Z</time>
      </trkpt>
      <trkpt lat="43.4803" lon="6.38956">
        <ele>180</ele>
        <time>2022-04-08T12:04:27Z</time>
      </trkpt>
      <trkpt lat="43.48029" lon="6.38956">
        <ele>180</ele>
        <time>2022-04-08T12:04:28Z</time>
      </trkpt>
      <trkpt lat="43.48028" lon="6.38955">
        <ele>180</ele>
        <time>2022-04-08T12:04:29Z</time>
      </trkpt>
      <trkpt lat="43.48027" lon="6.38955">
        <ele>180</ele>
        <time>2022-04-08T12:04:30Z</time>
      </trkpt>
      <trkpt lat="43.48026" lon="6.38954">
        <ele>180</ele>
        <time>2022-04-08T12:04:31Z</time>
      </trkpt>
      <trkpt lat="43.48025" lon="6.38954">
        <ele>180</ele>
        <time>2022-04-08T12:04:32Z</time>
      </trkpt>
      <trkpt lat="43.48024" lon="6.38954">
        <ele>180</ele>
        <time>2022-04-08T12:04:33Z</time>
      </trkpt>
      <trkpt lat="43.48023" lon="6.38954">
        <ele>180</ele>
        <time>2022-04-08T12:04:34Z</time>
      </trkpt>
      <trkpt lat="43.48022" lon="6.38953">
        <ele>180</ele>
        <time>2022-04-08T12:04:35Z</time>
      </trkpt>
      <trkpt lat="43.48021" lon="6.38953">
        <ele>180</ele>
        <time>2022-04-08T12:04:36Z</time>
      </trkpt>
      <trkpt lat="43.4802" lon="6.38953">
        <ele>180</ele>
        <time>2022-04-08T12:04:37Z</time>
      </trkpt>
      <trkpt lat="43.48019" lon="6.38952">
        <ele>179</ele>
        <time>2022-04-08T12:04:38Z</time>
      </trkpt>
      <trkpt lat="43.48018" lon="6.38952">
        <ele>179</ele>
        <time>2022-04-08T12:04:39Z</time>
      </trkpt>
      <trkpt lat="43.48017" lon="6.38952">
        <ele>179</ele>
        <time>2022-04-08T12:04:40Z</time>
      </trkpt>
      <trkpt lat="43.48016" lon="6.38952">
        <ele>179</ele>
        <time>2022-04-08T12:04:41Z</time>
      </trkpt>
      <trkpt lat="43.48014" lon="6.38951">
        <ele>179</ele>
        <time>2022-04-08T12:04:42Z</time>
      </trkpt>
      <trkpt lat="43.48013" lon="6.38951">
        <ele>179</ele>
        <time>2022-04-08T12:04:43Z</time>
      </trkpt>
      <trkpt lat="43.48013" lon="6.38951">
        <ele>179</ele>
        <time>2022-04-08T12:04:44Z</time>
      </trkpt>
      <trkpt lat="43.48012" lon="6.3895">
        <ele>179</ele>
        <time>2022-04-08T12:04:45Z</time>
      </trkpt>
      <trkpt lat="43.48011" lon="6.3895">
        <ele>179</ele>
        <time>2022-04-08T12:04:46Z</time>
      </trkpt>
      <trkpt lat="43.4801" lon="6.3895">
        <ele>178</ele>
        <time>2022-04-08T12:04:47Z</time>
      </trkpt>
      <trkpt lat="43.48009" lon="6.3895">
        <ele>178</ele>
        <time>2022-04-08T12:04:48Z</time>
      </trkpt>
      <trkpt lat="43.48008" lon="6.38949">
        <ele>178</ele>
        <time>2022-04-08T12:04:49Z</time>
      </trkpt>
      <trkpt lat="43.48007" lon="6.38949">
        <ele>178</ele>
        <time>2022-04-08T12:04:50Z</time>
      </trkpt>
      <trkpt lat="43.48006" lon="6.38949">
        <ele>178</ele>
        <time>2022-04-08T12:04:51Z</time>
      </trkpt>
      <trkpt lat="43.48005" lon="6.38949">
        <ele>178</ele>
        <time>2022-04-08T12:04:52Z</time>
      </trkpt>
      <trkpt lat="43.48005" lon="6.38948">
        <ele>177</ele>
        <time>2022-04-08T12:04:53Z</time>
      </trkpt>
      <trkpt lat="43.48003" lon="6.38948">
        <ele>177</ele>
        <time>2022-04-08T12:04:54Z</time>
      </trkpt>
      <trkpt lat="43.48002" lon="6.38948">
        <ele>177</ele>
        <time>2022-04-08T12:04:55Z</time>
      </trkpt>
      <trkpt lat="43.48001" lon="6.38948">
        <ele>177</ele>
        <time>2022-04-08T12:04:56Z</time>
      </trkpt>
      <trkpt lat="43.48001" lon="6.38947">
        <ele>177</ele>
        <time>2022-04-08T12:04:57Z</time>
      </trkpt>
      <trkpt lat="43.48" lon="6.38947">
        <ele>177</ele>
        <time>2022-04-08T12:04:58Z</time>
      </trkpt>
      <trkpt lat="43.47998" lon="6.38947">
        <ele>176</ele>
        <time>2022-04-08T12:04:59Z</time>
      </trkpt>
      <trkpt lat="43.47997" lon="6.38947">
        <ele>176</ele>
        <time>2022-04-08T12:05:00Z</time>
      </trkpt>
      <trkpt lat="43.47996" lon="6.38947">
        <ele>176</ele>
        <time>2022-04-08T12:05:01Z</time>
      </trkpt>
      <trkpt lat="43.47995" lon="6.38947">
        <ele>176</ele>
        <time>2022-04-08T12:05:02Z</time>
      </trkpt>
      <trkpt lat="43.47994" lon="6.38947">
        <ele>176</ele>
        <time>2022-04-08T12:05:03Z</time>
      </trkpt>
      <trkpt lat="43.47993" lon="6.38947">
        <ele>176</ele>
        <time>2022-04-08T12:05:04Z</time>
      </trkpt>
      <trkpt lat="43.47992" lon="6.38947">
        <ele>175</ele>
        <time>2022-04-08T12:05:05Z</time>
      </trkpt>
      <trkpt lat="43.47991" lon="6.38947">
        <ele>175</ele>
        <time>2022-04-08T12:05:06Z</time>
      </trkpt>
      <trkpt lat="43.4799" lon="6.38947">
        <ele>175</ele>
        <time>2022-04-08T12:05:07Z</time>
      </trkpt>
      <trkpt lat="43.47989" lon="6.38948">
        <ele>175</ele>
        <time>2022-04-08T12:05:08Z</time>
      </trkpt>
      <trkpt lat="43.47988" lon="6.38948">
        <ele>175</ele>
        <time>2022-04-08T12:05:09Z</time>
      </trkpt>
      <trkpt lat="43.47988" lon="6.38948">
        <ele>175</ele>
        <time>2022-04-08T12:05:10Z</time>
      </trkpt>
      <trkpt lat="43.47987" lon="6.38948">
        <ele>175</ele>
        <time>2022-04-08T12:05:11Z</time>
      </trkpt>
      <trkpt lat="43.47986" lon="6.38948">
        <ele>175</ele>
        <time>2022-04-08T12:05:12Z</time>
      </trkpt>
      <trkpt lat="43.47985" lon="6.38948">
        <ele>175</ele>
        <time>2022-04-08T12:05:13Z</time>
      </trkpt>
      <trkpt lat="43.47984" lon="6.38948">
        <ele>175</ele>
        <time>2022-04-08T12:05:14Z</time>
      </trkpt>
      <trkpt lat="43.47983" lon="6.38948">
        <ele>175</ele>
        <time>2022-04-08T12:05:15Z</time>
      </trkpt>
      <trkpt lat="43.47982" lon="6.38948">
        <ele>175</ele>
        <time>2022-04-08T12:05:16Z</time>
      </trkpt>
      <trkpt lat="43.47981" lon="6.38949">
        <ele>175</ele>
        <time>2022-04-08T12:05:17Z</time>
      </trkpt>
      <trkpt lat="43.47981" lon="6.38949">
        <ele>175</ele>
        <time>2022-04-08T12:05:18Z</time>
      </trkpt>
      <trkpt lat="43.4798" lon="6.38949">
        <ele>175</ele>
        <time>2022-04-08T12:05:19Z</time>
      </trkpt>
      <trkpt lat="43.4798" lon="6.3895">
        <ele>175</ele>
        <time>2022-04-08T12:05:20Z</time>
      </trkpt>
      <trkpt lat="43.4798" lon="6.3895">
        <ele>175</ele>
        <time>2022-04-08T12:05:21Z</time>
      </trkpt>
      <trkpt lat="43.47979" lon="6.38949">
        <ele>175</ele>
        <time>2022-04-08T12:05:22Z</time>
      </trkpt>
      <trkpt lat="43.47979" lon="6.38949">
        <ele>175</ele>
        <time>2022-04-08T12:05:23Z</time>
      </trkpt>
      <trkpt lat="43.47978" lon="6.38949">
        <ele>175</ele>
        <time>2022-04-08T12:05:24Z</time>
      </trkpt>
      <trkpt lat="43.47978" lon="6.38949">
        <ele>175</ele>
        <time>2022-04-08T12:05:25Z</time>
      </trkpt>
      <trkpt lat="43.47977" lon="6.38948">
        <ele>175</ele>
        <time>2022-04-08T12:05:26Z</time>
      </trkpt>
      <trkpt lat="43.47977" lon="6.38948">
        <ele>175</ele>
        <time>2022-04-08T12:05:27Z</time>
      </trkpt>
      <trkpt lat="43.47977" lon="6.38947">
        <ele>175</ele>
        <time>2022-04-08T12:05:28Z</time>
      </trkpt>
      <trkpt lat="43.47976" lon="6.38947">
        <ele>175</ele>
        <time>2022-04-08T12:05:29Z</time>
      </trkpt>
      <trkpt lat="43.47976" lon="6.38946">
        <ele>175</ele>
        <time>2022-04-08T12:05:30Z</time>
      </trkpt>
      <trkpt lat="43.47975" lon="6.38945">
        <ele>174</ele>
        <time>2022-04-08T12:05:31Z</time>
      </trkpt>
      <trkpt lat="43.47975" lon="6.38944">
        <ele>174</ele>
        <time>2022-04-08T12:05:32Z</time>
      </trkpt>
      <trkpt lat="43.47975" lon="6.38944">
        <ele>174</ele>
        <time>2022-04-08T12:05:33Z</time>
      </trkpt>
      <trkpt lat="43.47975" lon="6.38943">
        <ele>174</ele>
        <time>2022-04-08T12:05:34Z</time>
      </trkpt>
      <trkpt lat="43.47975" lon="6.38941">
        <ele>174</ele>
        <time>2022-04-08T12:05:35Z</time>
      </trkpt>
      <trkpt lat="43.47975" lon="6.3894">
        <ele>174</ele>
        <time>2022-04-08T12:05:36Z</time>
      </trkpt>
      <trkpt lat="43.47975" lon="6.38939">
        <ele>174</ele>
        <time>2022-04-08T12:05:37Z</time>
      </trkpt>
      <trkpt lat="43.47975" lon="6.38937">
        <ele>174</ele>
        <time>2022-04-08T12:05:38Z</time>
      </trkpt>
      <trkpt lat="43.47974" lon="6.38936">
        <ele>174</ele>
        <time>2022-04-08T12:05:39Z</time>
      </trkpt>
      <trkpt lat="43.47974" lon="6.38934">
        <ele>174</ele>
        <time>2022-04-08T12:05:40Z</time>
      </trkpt>
      <trkpt lat="43.47974" lon="6.38933">
        <ele>175</ele>
        <time>2022-04-08T12:05:41Z</time>
      </trkpt>
      <trkpt lat="43.47974" lon="6.38932">
        <ele>175</ele>
        <time>2022-04-08T12:05:42Z</time>
      </trkpt>
      <trkpt lat="43.47974" lon="6.38931">
        <ele>175</ele>
        <time>2022-04-08T12:05:43Z</time>
      </trkpt>
      <trkpt lat="43.47973" lon="6.3893">
        <ele>175</ele>
        <time>2022-04-08T12:05:44Z</time>
      </trkpt>
      <trkpt lat="43.47973" lon="6.38928">
        <ele>175</ele>
        <time>2022-04-08T12:05:45Z</time>
      </trkpt>
      <trkpt lat="43.47973" lon="6.38927">
        <ele>175</ele>
        <time>2022-04-08T12:05:46Z</time>
      </trkpt>
      <trkpt lat="43.47973" lon="6.38926">
        <ele>175</ele>
        <time>2022-04-08T12:05:47Z</time>
      </trkpt>
      <trkpt lat="43.47973" lon="6.38925">
        <ele>175</ele>
        <time>2022-04-08T12:05:48Z</time>
      </trkpt>
      <trkpt lat="43.47972" lon="6.38924">
        <ele>175</ele>
        <time>2022-04-08T12:05:49Z</time>
      </trkpt>
      <trkpt lat="43.47972" lon="6.38923">
        <ele>174</ele>
        <time>2022-04-08T12:05:50Z</time>
      </trkpt>
      <trkpt lat="43.47972" lon="6.38922">
        <ele>174</ele>
        <time>2022-04-08T12:05:51Z</time>
      </trkpt>
      <trkpt lat="43.47972" lon="6.38921">
        <ele>173</ele>
        <time>2022-04-08T12:05:52Z</time>
      </trkpt>
      <trkpt lat="43.47971" lon="6.38919">
        <ele>173</ele>
        <time>2022-04-08T12:05:53Z</time>
      </trkpt>
      <trkpt lat="43.47971" lon="6.38918">
        <ele>173</ele>
        <time>2022-04-08T12:05:54Z</time>
      </trkpt>
      <trkpt lat="43.47971" lon="6.38916">
        <ele>173</ele>
        <time>2022-04-08T12:05:55Z</time>
      </trkpt>
      <trkpt lat="43.47971" lon="6.38915">
        <ele>173</ele>
        <time>2022-04-08T12:05:56Z</time>
      </trkpt>
      <trkpt lat="43.47971" lon="6.38915">
        <ele>173</ele>
        <time>2022-04-08T12:05:57Z</time>
      </trkpt>
      <trkpt lat="43.47971" lon="6.38914">
        <ele>173</ele>
        <time>2022-04-08T12:05:58Z</time>
      </trkpt>
      <trkpt lat="43.47971" lon="6.38913">
        <ele>173</ele>
        <time>2022-04-08T12:05:59Z</time>
      </trkpt>
      <trkpt lat="43.4797" lon="6.38912">
        <ele>173</ele>
        <time>2022-04-08T12:06:00Z</time>
      </trkpt>
      <trkpt lat="43.4797" lon="6.3891">
        <ele>173</ele>
        <time>2022-04-08T12:06:01Z</time>
      </trkpt>
      <trkpt lat="43.4797" lon="6.38909">
        <ele>173</ele>
        <time>2022-04-08T12:06:02Z</time>
      </trkpt>
      <trkpt lat="43.4797" lon="6.38908">
        <ele>173</ele>
        <time>2022-04-08T12:06:03Z</time>
      </trkpt>
      <trkpt lat="43.47969" lon="6.38906">
        <ele>173</ele>
        <time>2022-04-08T12:06:04Z</time>
      </trkpt>
      <trkpt lat="43.47969" lon="6.38905">
        <ele>173</ele>
        <time>2022-04-08T12:06:05Z</time>
      </trkpt>
      <trkpt lat="43.47969" lon="6.38904">
        <ele>173</ele>
        <time>2022-04-08T12:06:06Z</time>
      </trkpt>
      <trkpt lat="43.47969" lon="6.38903">
        <ele>173</ele>
        <time>2022-04-08T12:06:07Z</time>
      </trkpt>
      <trkpt lat="43.47969" lon="6.38902">
        <ele>173</ele>
        <time>2022-04-08T12:06:08Z</time>
      </trkpt>
      <trkpt lat="43.47969" lon="6.389">
        <ele>173</ele>
        <time>2022-04-08T12:06:09Z</time>
      </trkpt>
      <trkpt lat="43.47968" lon="6.38899">
        <ele>173</ele>
        <time>2022-04-08T12:06:10Z</time>
      </trkpt>
      <trkpt lat="43.47968" lon="6.38898">
        <ele>173</ele>
        <time>2022-04-08T12:06:11Z</time>
      </trkpt>
      <trkpt lat="43.47968" lon="6.38896">
        <ele>173</ele>
        <time>2022-04-08T12:06:12Z</time>
      </trkpt>
      <trkpt lat="43.47968" lon="6.38895">
        <ele>173</ele>
        <time>2022-04-08T12:06:13Z</time>
      </trkpt>
      <trkpt lat="43.47968" lon="6.38894">
        <ele>173</ele>
        <time>2022-04-08T12:06:14Z</time>
      </trkpt>
      <trkpt lat="43.47968" lon="6.38892">
        <ele>172</ele>
        <time>2022-04-08T12:06:15Z</time>
      </trkpt>
      <trkpt lat="43.47968" lon="6.38891">
        <ele>172</ele>
        <time>2022-04-08T12:06:16Z</time>
      </trkpt>
      <trkpt lat="43.47968" lon="6.3889">
        <ele>172</ele>
        <time>2022-04-08T12:06:17Z</time>
      </trkpt>
      <trkpt lat="43.47968" lon="6.38888">
        <ele>172</ele>
        <time>2022-04-08T12:06:18Z</time>
      </trkpt>
      <trkpt lat="43.47968" lon="6.38886">
        <ele>171</ele>
        <time>2022-04-08T12:06:19Z</time>
      </trkpt>
      <trkpt lat="43.47969" lon="6.38885">
        <ele>171</ele>
        <time>2022-04-08T12:06:20Z</time>
      </trkpt>
      <trkpt lat="43.47969" lon="6.38884">
        <ele>171</ele>
        <time>2022-04-08T12:06:21Z</time>
      </trkpt>
      <trkpt lat="43.47969" lon="6.38882">
        <ele>170</ele>
        <time>2022-04-08T12:06:22Z</time>
      </trkpt>
      <trkpt lat="43.47969" lon="6.3888">
        <ele>170</ele>
        <time>2022-04-08T12:06:23Z</time>
      </trkpt>
      <trkpt lat="43.4797" lon="6.38879">
        <ele>170</ele>
        <time>2022-04-08T12:06:24Z</time>
      </trkpt>
      <trkpt lat="43.4797" lon="6.38878">
        <ele>170</ele>
        <time>2022-04-08T12:06:25Z</time>
      </trkpt>
      <trkpt lat="43.4797" lon="6.38876">
        <ele>169</ele>
        <time>2022-04-08T12:06:26Z</time>
      </trkpt>
      <trkpt lat="43.4797" lon="6.38875">
        <ele>167</ele>
        <time>2022-04-08T12:06:27Z</time>
      </trkpt>
      <trkpt lat="43.4797" lon="6.38874">
        <ele>167</ele>
        <time>2022-04-08T12:06:28Z</time>
      </trkpt>
      <trkpt lat="43.47971" lon="6.38873">
        <ele>166</ele>
        <time>2022-04-08T12:06:29Z</time>
      </trkpt>
      <trkpt lat="43.47971" lon="6.38872">
        <ele>166</ele>
        <time>2022-04-08T12:06:30Z</time>
      </trkpt>
      <trkpt lat="43.4797" lon="6.38871">
        <ele>166</ele>
        <time>2022-04-08T12:06:31Z</time>
      </trkpt>
      <trkpt lat="43.47969" lon="6.3887">
        <ele>166</ele>
        <time>2022-04-08T12:06:32Z</time>
      </trkpt>
      <trkpt lat="43.4797" lon="6.38868">
        <ele>166</ele>
        <time>2022-04-08T12:06:33Z</time>
      </trkpt>
      <trkpt lat="43.4797" lon="6.38867">
        <ele>166</ele>
        <time>2022-04-08T12:06:34Z</time>
      </trkpt>
      <trkpt lat="43.47971" lon="6.38866">
        <ele>166</ele>
        <time>2022-04-08T12:06:35Z</time>
      </trkpt>
      <trkpt lat="43.47971" lon="6.38866">
        <ele>166</ele>
        <time>2022-04-08T12:06:36Z</time>
      </trkpt>
      <trkpt lat="43.47971" lon="6.38865">
        <ele>166</ele>
        <time>2022-04-08T12:06:37Z</time>
      </trkpt>
      <trkpt lat="43.47971" lon="6.38865">
        <ele>166</ele>
        <time>2022-04-08T12:06:38Z</time>
      </trkpt>
      <trkpt lat="43.47971" lon="6.38866">
        <ele>166</ele>
        <time>2022-04-08T12:06:39Z</time>
      </trkpt>
      <trkpt lat="43.4797" lon="6.38866">
        <ele>166</ele>
        <time>2022-04-08T12:06:40Z</time>
      </trkpt>
      <trkpt lat="43.4797" lon="6.38866">
        <ele>166</ele>
        <time>2022-04-08T12:06:41Z</time>
      </trkpt>
      <trkpt lat="43.4797" lon="6.38866">
        <ele>166</ele>
        <time>2022-04-08T12:06:42Z</time>
      </trkpt>
      <trkpt lat="43.47969" lon="6.38866">
        <ele>166</ele>
        <time>2022-04-08T12:06:43Z</time>
      </trkpt>
      <trkpt lat="43.47969" lon="6.38866">
        <ele>166</ele>
        <time>2022-04-08T12:06:44Z</time>
      </trkpt>
      <trkpt lat="43.47968" lon="6.38866">
        <ele>166</ele>
        <time>2022-04-08T12:06:45Z</time>
      </trkpt>
      <trkpt lat="43.47968" lon="6.38865">
        <ele>166</ele>
        <time>2022-04-08T12:06:46Z</time>
      </trkpt>
      <trkpt lat="43.47968" lon="6.38865">
        <ele>166</ele>
        <time>2022-04-08T12:06:47Z</time>
      </trkpt>
      <trkpt lat="43.47968" lon="6.38864">
        <ele>166</ele>
        <time>2022-04-08T12:06:48Z</time>
      </trkpt>
      <trkpt lat="43.47968" lon="6.38864">
        <ele>166</ele>
        <time>2022-04-08T12:06:49Z</time>
      </trkpt>
      <trkpt lat="43.47968" lon="6.38864">
        <ele>166</ele>
        <time>2022-04-08T12:06:50Z</time>
      </trkpt>
      <trkpt lat="43.47968" lon="6.38863">
        <ele>166</ele>
        <time>2022-04-08T12:06:51Z</time>
      </trkpt>
      <trkpt lat="43.47968" lon="6.38862">
        <ele>166</ele>
        <time>2022-04-08T12:06:52Z</time>
      </trkpt>
      <trkpt lat="43.47967" lon="6.38861">
        <ele>166</ele>
        <time>2022-04-08T12:06:53Z</time>
      </trkpt>
      <trkpt lat="43.47967" lon="6.38859">
        <ele>167</ele>
        <time>2022-04-08T12:06:54Z</time>
      </trkpt>
      <trkpt lat="43.47967" lon="6.38858">
        <ele>167</ele>
        <time>2022-04-08T12:06:55Z</time>
      </trkpt>
      <trkpt lat="43.47966" lon="6.38858">
        <ele>166</ele>
        <time>2022-04-08T12:06:56Z</time>
      </trkpt>
      <trkpt lat="43.47966" lon="6.38857">
        <ele>166</ele>
        <time>2022-04-08T12:06:57Z</time>
      </trkpt>
      <trkpt lat="43.47966" lon="6.38857">
        <ele>166</ele>
        <time>2022-04-08T12:06:58Z</time>
      </trkpt>
      <trkpt lat="43.47966" lon="6.38857">
        <ele>166</ele>
        <time>2022-04-08T12:06:59Z</time>
      </trkpt>
      <trkpt lat="43.47966" lon="6.38856">
        <ele>166</ele>
        <time>2022-04-08T12:07:00Z</time>
      </trkpt>
      <trkpt lat="43.47966" lon="6.38856">
        <ele>166</ele>
        <time>2022-04-08T12:07:01Z</time>
      </trkpt>
      <trkpt lat="43.47965" lon="6.38855">
        <ele>166</ele>
        <time>2022-04-08T12:07:02Z</time>
      </trkpt>
      <trkpt lat="43.47965" lon="6.38855">
        <ele>166</ele>
        <time>2022-04-08T12:07:03Z</time>
      </trkpt>
      <trkpt lat="43.47965" lon="6.38854">
        <ele>166</ele>
        <time>2022-04-08T12:07:04Z</time>
      </trkpt>
      <trkpt lat="43.47965" lon="6.38852">
        <ele>166</ele>
        <time>2022-04-08T12:07:05Z</time>
      </trkpt>
      <trkpt lat="43.47964" lon="6.3885">
        <ele>166</ele>
        <time>2022-04-08T12:07:06Z</time>
      </trkpt>
      <trkpt lat="43.47964" lon="6.38848">
        <ele>166</ele>
        <time>2022-04-08T12:07:07Z</time>
      </trkpt>
      <trkpt lat="43.47963" lon="6.38846">
        <ele>166</ele>
        <time>2022-04-08T12:07:08Z</time>
      </trkpt>
      <trkpt lat="43.47963" lon="6.38844">
        <ele>166</ele>
        <time>2022-04-08T12:07:09Z</time>
      </trkpt>
      <trkpt lat="43.47962" lon="6.38843">
        <ele>166</ele>
        <time>2022-04-08T12:07:10Z</time>
      </trkpt>
      <trkpt lat="43.47962" lon="6.38842">
        <ele>166</ele>
        <time>2022-04-08T12:07:11Z</time>
      </trkpt>
      <trkpt lat="43.47962" lon="6.38841">
        <ele>166</ele>
        <time>2022-04-08T12:07:12Z</time>
      </trkpt>
      <trkpt lat="43.47962" lon="6.38839">
        <ele>166</ele>
        <time>2022-04-08T12:07:13Z</time>
      </trkpt>
      <trkpt lat="43.47961" lon="6.38838">
        <ele>166</ele>
        <time>2022-04-08T12:07:14Z</time>
      </trkpt>
      <trkpt lat="43.47961" lon="6.38837">
        <ele>166</ele>
        <time>2022-04-08T12:07:15Z</time>
      </trkpt>
      <trkpt lat="43.47961" lon="6.38835">
        <ele>166</ele>
        <time>2022-04-08T12:07:16Z</time>
      </trkpt>
      <trkpt lat="43.47961" lon="6.38834">
        <ele>167</ele>
        <time>2022-04-08T12:07:17Z</time>
      </trkpt>
      <trkpt lat="43.47961" lon="6.38833">
        <ele>167</ele>
        <time>2022-04-08T12:07:18Z</time>
      </trkpt>
      <trkpt lat="43.47961" lon="6.38832">
        <ele>167</ele>
        <time>2022-04-08T12:07:19Z</time>
      </trkpt>
      <trkpt lat="43.47961" lon="6.38832">
        <ele>167</ele>
        <time>2022-04-08T12:07:20Z</time>
      </trkpt>
      <trkpt lat="43.47961" lon="6.38831">
        <ele>167</ele>
        <time>2022-04-08T12:07:21Z</time>
      </trkpt>
      <trkpt lat="43.47961" lon="6.38831">
        <ele>167</ele>
        <time>2022-04-08T12:07:22Z</time>
      </trkpt>
      <trkpt lat="43.47961" lon="6.3883">
        <ele>168</ele>
        <time>2022-04-08T12:07:23Z</time>
      </trkpt>
      <trkpt lat="43.47961" lon="6.3883">
        <ele>168</ele>
        <time>2022-04-08T12:07:24Z</time>
      </trkpt>
      <trkpt lat="43.47961" lon="6.3883">
        <ele>168</ele>
        <time>2022-04-08T12:07:25Z</time>
      </trkpt>
      <trkpt lat="43.47961" lon="6.3883">
        <ele>168</ele>
        <time>2022-04-08T12:07:26Z</time>
      </trkpt>
      <trkpt lat="43.47961" lon="6.3883">
        <ele>168</ele>
        <time>2022-04-08T12:07:27Z</time>
      </trkpt>
      <trkpt lat="43.47961" lon="6.3883">
        <ele>168</ele>
        <time>2022-04-08T12:07:28Z</time>
      </trkpt>
      <trkpt lat="43.47961" lon="6.3883">
        <ele>168</ele>
        <time>2022-04-08T12:07:29Z</time>
      </trkpt>
      <trkpt lat="43.47961" lon="6.3883">
        <ele>168</ele>
        <time>2022-04-08T12:07:30Z</time>
      </trkpt>
      <trkpt lat="43.47961" lon="6.3883">
        <ele>168</ele>
        <time>2022-04-08T12:07:31Z</time>
      </trkpt>
      <trkpt lat="43.47961" lon="6.3883">
        <ele>168</ele>
        <time>2022-04-08T12:07:32Z</time>
      </trkpt>
      <trkpt lat="43.47961" lon="6.3883">
        <ele>168</ele>
        <time>2022-04-08T12:07:33Z</time>
      </trkpt>
      <trkpt lat="43.47961" lon="6.3883">
        <ele>168</ele>
        <time>2022-04-08T12:07:34Z</time>
      </trkpt>
      <trkpt lat="43.47961" lon="6.3883">
        <ele>168</ele>
        <time>2022-04-08T12:07:35Z</time>
      </trkpt>
      <trkpt lat="43.47961" lon="6.3883">
        <ele>168</ele>
        <time>2022-04-08T12:07:36Z</time>
      </trkpt>
      <trkpt lat="43.4796" lon="6.38828">
        <ele>168</ele>
        <time>2022-04-08T12:07:37Z</time>
      </trkpt>
      <trkpt lat="43.47959" lon="6.38828">
        <ele>168</ele>
        <time>2022-04-08T12:07:38Z</time>
      </trkpt>
      <trkpt lat="43.47959" lon="6.38828">
        <ele>168</ele>
        <time>2022-04-08T12:07:39Z</time>
      </trkpt>
      <trkpt lat="43.47959" lon="6.38827">
        <ele>168</ele>
        <time>2022-04-08T12:07:40Z</time>
      </trkpt>
      <trkpt lat="43.47958" lon="6.38827">
        <ele>168</ele>
        <time>2022-04-08T12:07:41Z</time>
      </trkpt>
      <trkpt lat="43.47957" lon="6.38828">
        <ele>168</ele>
        <time>2022-04-08T12:07:42Z</time>
      </trkpt>
      <trkpt lat="43.47957" lon="6.38828">
        <ele>168</ele>
        <time>2022-04-08T12:07:43Z</time>
      </trkpt>
      <trkpt lat="43.47956" lon="6.38828">
        <ele>168</ele>
        <time>2022-04-08T12:07:44Z</time>
      </trkpt>
      <trkpt lat="43.47955" lon="6.38829">
        <ele>168</ele>
        <time>2022-04-08T12:07:45Z</time>
      </trkpt>
      <trkpt lat="43.47955" lon="6.38829">
        <ele>168</ele>
        <time>2022-04-08T12:07:46Z</time>
      </trkpt>
      <trkpt lat="43.47954" lon="6.38829">
        <ele>168</ele>
        <time>2022-04-08T12:07:47Z</time>
      </trkpt>
      <trkpt lat="43.47953" lon="6.3883">
        <ele>168</ele>
        <time>2022-04-08T12:07:48Z</time>
      </trkpt>
      <trkpt lat="43.47951" lon="6.38831">
        <ele>168</ele>
        <time>2022-04-08T12:07:49Z</time>
      </trkpt>
      <trkpt lat="43.4795" lon="6.38832">
        <ele>168</ele>
        <time>2022-04-08T12:07:50Z</time>
      </trkpt>
      <trkpt lat="43.4795" lon="6.38832">
        <ele>168</ele>
        <time>2022-04-08T12:07:51Z</time>
      </trkpt>
      <trkpt lat="43.47949" lon="6.38833">
        <ele>168</ele>
        <time>2022-04-08T12:07:52Z</time>
      </trkpt>
      <trkpt lat="43.47949" lon="6.38833">
        <ele>168</ele>
        <time>2022-04-08T12:07:53Z</time>
      </trkpt>
      <trkpt lat="43.47948" lon="6.38834">
        <ele>168</ele>
        <time>2022-04-08T12:07:54Z</time>
      </trkpt>
      <trkpt lat="43.47947" lon="6.38835">
        <ele>168</ele>
        <time>2022-04-08T12:07:55Z</time>
      </trkpt>
      <trkpt lat="43.47946" lon="6.38836">
        <ele>168</ele>
        <time>2022-04-08T12:07:56Z</time>
      </trkpt>
      <trkpt lat="43.47945" lon="6.38838">
        <ele>168</ele>
        <time>2022-04-08T12:07:57Z</time>
      </trkpt>
      <trkpt lat="43.47944" lon="6.38839">
        <ele>168</ele>
        <time>2022-04-08T12:07:58Z</time>
      </trkpt>
      <trkpt lat="43.47943" lon="6.38841">
        <ele>168</ele>
        <time>2022-04-08T12:07:59Z</time>
      </trkpt>
      <trkpt lat="43.47943" lon="6.38842">
        <ele>168</ele>
        <time>2022-04-08T12:08:00Z</time>
      </trkpt>
      <trkpt lat="43.47942" lon="6.38843">
        <ele>168</ele>
        <time>2022-04-08T12:08:01Z</time>
      </trkpt>
      <trkpt lat="43.47941" lon="6.38846">
        <ele>168</ele>
        <time>2022-04-08T12:08:02Z</time>
      </trkpt>
      <trkpt lat="43.4794" lon="6.38848">
        <ele>168</ele>
        <time>2022-04-08T12:08:03Z</time>
      </trkpt>
      <trkpt lat="43.47939" lon="6.3885">
        <ele>168</ele>
        <time>2022-04-08T12:08:04Z</time>
      </trkpt>
      <trkpt lat="43.47938" lon="6.38852">
        <ele>168</ele>
        <time>2022-04-08T12:08:05Z</time>
      </trkpt>
      <trkpt lat="43.47938" lon="6.38854">
        <ele>168</ele>
        <time>2022-04-08T12:08:06Z</time>
      </trkpt>
      <trkpt lat="43.47937" lon="6.38856">
        <ele>168</ele>
        <time>2022-04-08T12:08:07Z</time>
      </trkpt>
      <trkpt lat="43.47937" lon="6.38858">
        <ele>168</ele>
        <time>2022-04-08T12:08:08Z</time>
      </trkpt>
      <trkpt lat="43.47937" lon="6.38859">
        <ele>168</ele>
        <time>2022-04-08T12:08:09Z</time>
      </trkpt>
      <trkpt lat="43.47936" lon="6.38861">
        <ele>168</ele>
        <time>2022-04-08T12:08:10Z</time>
      </trkpt>
      <trkpt lat="43.47936" lon="6.38863">
        <ele>168</ele>
        <time>2022-04-08T12:08:11Z</time>
      </trkpt>
      <trkpt lat="43.47936" lon="6.38864">
        <ele>168</ele>
        <time>2022-04-08T12:08:12Z</time>
      </trkpt>
      <trkpt lat="43.47935" lon="6.38866">
        <ele>168</ele>
        <time>2022-04-08T12:08:13Z</time>
      </trkpt>
      <trkpt lat="43.47935" lon="6.38867">
        <ele>167</ele>
        <time>2022-04-08T12:08:14Z</time>
      </trkpt>
      <trkpt lat="43.47935" lon="6.38868">
        <ele>167</ele>
        <time>2022-04-08T12:08:15Z</time>
      </trkpt>
      <trkpt lat="43.47935" lon="6.3887">
        <ele>167</ele>
        <time>2022-04-08T12:08:16Z</time>
      </trkpt>
      <trkpt lat="43.47934" lon="6.38872">
        <ele>167</ele>
        <time>2022-04-08T12:08:17Z</time>
      </trkpt>
      <trkpt lat="43.47934" lon="6.38874">
        <ele>167</ele>
        <time>2022-04-08T12:08:18Z</time>
      </trkpt>
      <trkpt lat="43.47934" lon="6.38875">
        <ele>167</ele>
        <time>2022-04-08T12:08:19Z</time>
      </trkpt>
      <trkpt lat="43.47933" lon="6.38877">
        <ele>167</ele>
        <time>2022-04-08T12:08:20Z</time>
      </trkpt>
      <trkpt lat="43.47933" lon="6.38878">
        <ele>167</ele>
        <time>2022-04-08T12:08:21Z</time>
      </trkpt>
      <trkpt lat="43.47933" lon="6.38879">
        <ele>167</ele>
        <time>2022-04-08T12:08:22Z</time>
      </trkpt>
      <trkpt lat="43.47933" lon="6.3888">
        <ele>167</ele>
        <time>2022-04-08T12:08:23Z</time>
      </trkpt>
      <trkpt lat="43.47933" lon="6.38882">
        <ele>167</ele>
        <time>2022-04-08T12:08:24Z</time>
      </trkpt>
      <trkpt lat="43.47932" lon="6.38883">
        <ele>167</ele>
        <time>2022-04-08T12:08:25Z</time>
      </trkpt>
      <trkpt lat="43.47932" lon="6.38884">
        <ele>167</ele>
        <time>2022-04-08T12:08:26Z</time>
      </trkpt>
      <trkpt lat="43.47931" lon="6.38886">
        <ele>168</ele>
        <time>2022-04-08T12:08:27Z</time>
      </trkpt>
      <trkpt lat="43.47931" lon="6.38887">
        <ele>168</ele>
        <time>2022-04-08T12:08:28Z</time>
      </trkpt>
      <trkpt lat="43.47931" lon="6.38888">
        <ele>168</ele>
        <time>2022-04-08T12:08:29Z</time>
      </trkpt>
      <trkpt lat="43.4793" lon="6.38889">
        <ele>168</ele>
        <time>2022-04-08T12:08:30Z</time>
      </trkpt>
      <trkpt lat="43.4793" lon="6.38891">
        <ele>168</ele>
        <time>2022-04-08T12:08:31Z</time>
      </trkpt>
      <trkpt lat="43.4793" lon="6.38892">
        <ele>168</ele>
        <time>2022-04-08T12:08:32Z</time>
      </trkpt>
      <trkpt lat="43.47929" lon="6.38893">
        <ele>168</ele>
        <time>2022-04-08T12:08:33Z</time>
      </trkpt>
      <trkpt lat="43.47929" lon="6.38894">
        <ele>168</ele>
        <time>2022-04-08T12:08:34Z</time>
      </trkpt>
      <trkpt lat="43.47929" lon="6.38895">
        <ele>169</ele>
        <time>2022-04-08T12:08:35Z</time>
      </trkpt>
      <trkpt lat="43.47928" lon="6.38895">
        <ele>169</ele>
        <time>2022-04-08T12:08:36Z</time>
      </trkpt>
      <trkpt lat="43.47928" lon="6.38896">
        <ele>169</ele>
        <time>2022-04-08T12:08:37Z</time>
      </trkpt>
      <trkpt lat="43.47927" lon="6.38897">
        <ele>169</ele>
        <time>2022-04-08T12:08:38Z</time>
      </trkpt>
      <trkpt lat="43.47927" lon="6.38898">
        <ele>169</ele>
        <time>2022-04-08T12:08:39Z</time>
      </trkpt>
      <trkpt lat="43.47926" lon="6.389">
        <ele>169</ele>
        <time>2022-04-08T12:08:40Z</time>
      </trkpt>
      <trkpt lat="43.47926" lon="6.38901">
        <ele>169</ele>
        <time>2022-04-08T12:08:41Z</time>
      </trkpt>
      <trkpt lat="43.47925" lon="6.38903">
        <ele>169</ele>
        <time>2022-04-08T12:08:42Z</time>
      </trkpt>
      <trkpt lat="43.47924" lon="6.38904">
        <ele>170</ele>
        <time>2022-04-08T12:08:43Z</time>
      </trkpt>
      <trkpt lat="43.47924" lon="6.38905">
        <ele>170</ele>
        <time>2022-04-08T12:08:44Z</time>
      </trkpt>
      <trkpt lat="43.47923" lon="6.38907">
        <ele>170</ele>
        <time>2022-04-08T12:08:45Z</time>
      </trkpt>
      <trkpt lat="43.47923" lon="6.38907">
        <ele>170</ele>
        <time>2022-04-08T12:08:46Z</time>
      </trkpt>
      <trkpt lat="43.47922" lon="6.38908">
        <ele>171</ele>
        <time>2022-04-08T12:08:47Z</time>
      </trkpt>
      <trkpt lat="43.47921" lon="6.38908">
        <ele>171</ele>
        <time>2022-04-08T12:08:48Z</time>
      </trkpt>
      <trkpt lat="43.47921" lon="6.38909">
        <ele>170</ele>
        <time>2022-04-08T12:08:49Z</time>
      </trkpt>
      <trkpt lat="43.47921" lon="6.38909">
        <ele>170</ele>
        <time>2022-04-08T12:08:50Z</time>
      </trkpt>
      <trkpt lat="43.4792" lon="6.3891">
        <ele>170</ele>
        <time>2022-04-08T12:08:51Z</time>
      </trkpt>
      <trkpt lat="43.4792" lon="6.38911">
        <ele>170</ele>
        <time>2022-04-08T12:08:52Z</time>
      </trkpt>
      <trkpt lat="43.4792" lon="6.38911">
        <ele>170</ele>
        <time>2022-04-08T12:08:53Z</time>
      </trkpt>
      <trkpt lat="43.47919" lon="6.38912">
        <ele>170</ele>
        <time>2022-04-08T12:08:54Z</time>
      </trkpt>
      <trkpt lat="43.47919" lon="6.38913">
        <ele>170</ele>
        <time>2022-04-08T12:08:55Z</time>
      </trkpt>
      <trkpt lat="43.47919" lon="6.38915">
        <ele>170</ele>
        <time>2022-04-08T12:08:56Z</time>
      </trkpt>
      <trkpt lat="43.47918" lon="6.38916">
        <ele>170</ele>
        <time>2022-04-08T12:08:57Z</time>
      </trkpt>
      <trkpt lat="43.47917" lon="6.38917">
        <ele>170</ele>
        <time>2022-04-08T12:08:58Z</time>
      </trkpt>
      <trkpt lat="43.47917" lon="6.38918">
        <ele>170</ele>
        <time>2022-04-08T12:08:59Z</time>
      </trkpt>
      <trkpt lat="43.47916" lon="6.38919">
        <ele>170</ele>
        <time>2022-04-08T12:09:00Z</time>
      </trkpt>
      <trkpt lat="43.47915" lon="6.3892">
        <ele>170</ele>
        <time>2022-04-08T12:09:01Z</time>
      </trkpt>
      <trkpt lat="43.47915" lon="6.38921">
        <ele>170</ele>
        <time>2022-04-08T12:09:02Z</time>
      </trkpt>
      <trkpt lat="43.47914" lon="6.38922">
        <ele>170</ele>
        <time>2022-04-08T12:09:03Z</time>
      </trkpt>
      <trkpt lat="43.47912" lon="6.38922">
        <ele>170</ele>
        <time>2022-04-08T12:09:04Z</time>
      </trkpt>
      <trkpt lat="43.47911" lon="6.38923">
        <ele>170</ele>
        <time>2022-04-08T12:09:05Z</time>
      </trkpt>
      <trkpt lat="43.4791" lon="6.38924">
        <ele>170</ele>
        <time>2022-04-08T12:09:06Z</time>
      </trkpt>
      <trkpt lat="43.47909" lon="6.38925">
        <ele>170</ele>
        <time>2022-04-08T12:09:07Z</time>
      </trkpt>
      <trkpt lat="43.47908" lon="6.38926">
        <ele>169</ele>
        <time>2022-04-08T12:09:08Z</time>
      </trkpt>
      <trkpt lat="43.47907" lon="6.38927">
        <ele>169</ele>
        <time>2022-04-08T12:09:09Z</time>
      </trkpt>
      <trkpt lat="43.47906" lon="6.38928">
        <ele>169</ele>
        <time>2022-04-08T12:09:10Z</time>
      </trkpt>
      <trkpt lat="43.47905" lon="6.38929">
        <ele>168</ele>
        <time>2022-04-08T12:09:11Z</time>
      </trkpt>
      <trkpt lat="43.47904" lon="6.3893">
        <ele>168</ele>
        <time>2022-04-08T12:09:12Z</time>
      </trkpt>
      <trkpt lat="43.47904" lon="6.38931">
        <ele>168</ele>
        <time>2022-04-08T12:09:13Z</time>
      </trkpt>
      <trkpt lat="43.47903" lon="6.38933">
        <ele>168</ele>
        <time>2022-04-08T12:09:14Z</time>
      </trkpt>
      <trkpt lat="43.47902" lon="6.38934">
        <ele>168</ele>
        <time>2022-04-08T12:09:15Z</time>
      </trkpt>
      <trkpt lat="43.47901" lon="6.38935">
        <ele>168</ele>
        <time>2022-04-08T12:09:16Z</time>
      </trkpt>
      <trkpt lat="43.47901" lon="6.38936">
        <ele>168</ele>
        <time>2022-04-08T12:09:17Z</time>
      </trkpt>
      <trkpt lat="43.479" lon="6.38937">
        <ele>169</ele>
        <time>2022-04-08T12:09:18Z</time>
      </trkpt>
      <trkpt lat="43.47899" lon="6.38939">
        <ele>169</ele>
        <time>2022-04-08T12:09:19Z</time>
      </trkpt>
      <trkpt lat="43.47899" lon="6.3894">
        <ele>168</ele>
        <time>2022-04-08T12:09:20Z</time>
      </trkpt>
      <trkpt lat="43.47898" lon="6.38941">
        <ele>168</ele>
        <time>2022-04-08T12:09:21Z</time>
      </trkpt>
      <trkpt lat="43.47898" lon="6.38942">
        <ele>168</ele>
        <time>2022-04-08T12:09:22Z</time>
      </trkpt>
      <trkpt lat="43.47897" lon="6.38944">
        <ele>168</ele>
        <time>2022-04-08T12:09:23Z</time>
      </trkpt>
      <trkpt lat="43.47897" lon="6.38945">
        <ele>167</ele>
        <time>2022-04-08T12:09:24Z</time>
      </trkpt>
      <trkpt lat="43.47896" lon="6.38946">
        <ele>167</ele>
        <time>2022-04-08T12:09:25Z</time>
      </trkpt>
      <trkpt lat="43.47896" lon="6.38948">
        <ele>167</ele>
        <time>2022-04-08T12:09:26Z</time>
      </trkpt>
      <trkpt lat="43.47896" lon="6.3895">
        <ele>167</ele>
        <time>2022-04-08T12:09:27Z</time>
      </trkpt>
      <trkpt lat="43.47895" lon="6.38952">
        <ele>166</ele>
        <time>2022-04-08T12:09:28Z</time>
      </trkpt>
      <trkpt lat="43.47895" lon="6.38953">
        <ele>164</ele>
        <time>2022-04-08T12:09:29Z</time>
      </trkpt>
      <trkpt lat="43.47894" lon="6.38955">
        <ele>164</ele>
        <time>2022-04-08T12:09:30Z</time>
      </trkpt>
      <trkpt lat="43.47894" lon="6.38956">
        <ele>163</ele>
        <time>2022-04-08T12:09:31Z</time>
      </trkpt>
      <trkpt lat="43.47894" lon="6.38958">
        <ele>163</ele>
        <time>2022-04-08T12:09:32Z</time>
      </trkpt>
      <trkpt lat="43.47893" lon="6.38959">
        <ele>163</ele>
        <time>2022-04-08T12:09:33Z</time>
      </trkpt>
      <trkpt lat="43.47892" lon="6.3896">
        <ele>163</ele>
        <time>2022-04-08T12:09:34Z</time>
      </trkpt>
      <trkpt lat="43.47892" lon="6.38962">
        <ele>163</ele>
        <time>2022-04-08T12:09:35Z</time>
      </trkpt>
      <trkpt lat="43.47891" lon="6.38963">
        <ele>163</ele>
        <time>2022-04-08T12:09:36Z</time>
      </trkpt>
      <trkpt lat="43.47891" lon="6.38964">
        <ele>163</ele>
        <time>2022-04-08T12:09:37Z</time>
      </trkpt>
      <trkpt lat="43.4789" lon="6.38965">
        <ele>163</ele>
        <time>2022-04-08T12:09:38Z</time>
      </trkpt>
      <trkpt lat="43.4789" lon="6.38966">
        <ele>163</ele>
        <time>2022-04-08T12:09:39Z</time>
      </trkpt>
      <trkpt lat="43.47889" lon="6.38967">
        <ele>163</ele>
        <time>2022-04-08T12:09:40Z</time>
      </trkpt>
      <trkpt lat="43.47889" lon="6.38968">
        <ele>164</ele>
        <time>2022-04-08T12:09:41Z</time>
      </trkpt>
      <trkpt lat="43.47888" lon="6.38969">
        <ele>164</ele>
        <time>2022-04-08T12:09:42Z</time>
      </trkpt>
      <trkpt lat="43.47888" lon="6.38971">
        <ele>165</ele>
        <time>2022-04-08T12:09:43Z</time>
      </trkpt>
      <trkpt lat="43.47887" lon="6.38972">
        <ele>165</ele>
        <time>2022-04-08T12:09:44Z</time>
      </trkpt>
      <trkpt lat="43.47887" lon="6.38973">
        <ele>165</ele>
        <time>2022-04-08T12:09:45Z</time>
      </trkpt>
      <trkpt lat="43.47886" lon="6.38974">
        <ele>165</ele>
        <time>2022-04-08T12:09:46Z</time>
      </trkpt>
      <trkpt lat="43.47885" lon="6.38975">
        <ele>166</ele>
        <time>2022-04-08T12:09:47Z</time>
      </trkpt>
      <trkpt lat="43.47885" lon="6.38977">
        <ele>166</ele>
        <time>2022-04-08T12:09:48Z</time>
      </trkpt>
      <trkpt lat="43.47884" lon="6.38978">
        <ele>166</ele>
        <time>2022-04-08T12:09:49Z</time>
      </trkpt>
      <trkpt lat="43.47884" lon="6.3898">
        <ele>166</ele>
        <time>2022-04-08T12:09:50Z</time>
      </trkpt>
      <trkpt lat="43.47883" lon="6.38981">
        <ele>166</ele>
        <time>2022-04-08T12:09:51Z</time>
      </trkpt>
      <trkpt lat="43.47883" lon="6.38983">
        <ele>166</ele>
        <time>2022-04-08T12:09:52Z</time>
      </trkpt>
      <trkpt lat="43.47883" lon="6.38984">
        <ele>166</ele>
        <time>2022-04-08T12:09:53Z</time>
      </trkpt>
      <trkpt lat="43.47882" lon="6.38985">
        <ele>166</ele>
        <time>2022-04-08T12:09:54Z</time>
      </trkpt>
      <trkpt lat="43.47882" lon="6.38987">
        <ele>165</ele>
        <time>2022-04-08T12:09:55Z</time>
      </trkpt>
      <trkpt lat="43.47882" lon="6.38988">
        <ele>165</ele>
        <time>2022-04-08T12:09:56Z</time>
      </trkpt>
      <trkpt lat="43.47881" lon="6.38989">
        <ele>165</ele>
        <time>2022-04-08T12:09:57Z</time>
      </trkpt>
      <trkpt lat="43.47881" lon="6.38991">
        <ele>165</ele>
        <time>2022-04-08T12:09:58Z</time>
      </trkpt>
      <trkpt lat="43.47881" lon="6.38992">
        <ele>165</ele>
        <time>2022-04-08T12:09:59Z</time>
      </trkpt>
      <trkpt lat="43.4788" lon="6.38994">
        <ele>165</ele>
        <time>2022-04-08T12:10:00Z</time>
      </trkpt>
      <trkpt lat="43.4788" lon="6.38995">
        <ele>165</ele>
        <time>2022-04-08T12:10:01Z</time>
      </trkpt>
      <trkpt lat="43.47879" lon="6.38997">
        <ele>165</ele>
        <time>2022-04-08T12:10:02Z</time>
      </trkpt>
      <trkpt lat="43.47879" lon="6.38998">
        <ele>165</ele>
        <time>2022-04-08T12:10:03Z</time>
      </trkpt>
      <trkpt lat="43.47879" lon="6.39">
        <ele>165</ele>
        <time>2022-04-08T12:10:04Z</time>
      </trkpt>
      <trkpt lat="43.47878" lon="6.39001">
        <ele>165</ele>
        <time>2022-04-08T12:10:05Z</time>
      </trkpt>
      <trkpt lat="43.47878" lon="6.39002">
        <ele>165</ele>
        <time>2022-04-08T12:10:06Z</time>
      </trkpt>
      <trkpt lat="43.47878" lon="6.39004">
        <ele>165</ele>
        <time>2022-04-08T12:10:07Z</time>
      </trkpt>
      <trkpt lat="43.47877" lon="6.39005">
        <ele>165</ele>
        <time>2022-04-08T12:10:08Z</time>
      </trkpt>
      <trkpt lat="43.47877" lon="6.39006">
        <ele>165</ele>
        <time>2022-04-08T12:10:09Z</time>
      </trkpt>
      <trkpt lat="43.47876" lon="6.39008">
        <ele>165</ele>
        <time>2022-04-08T12:10:10Z</time>
      </trkpt>
      <trkpt lat="43.47875" lon="6.39009">
        <ele>165</ele>
        <time>2022-04-08T12:10:11Z</time>
      </trkpt>
      <trkpt lat="43.47875" lon="6.39009">
        <ele>165</ele>
        <time>2022-04-08T12:10:12Z</time>
      </trkpt>
      <trkpt lat="43.47874" lon="6.3901">
        <ele>165</ele>
        <time>2022-04-08T12:10:13Z</time>
      </trkpt>
      <trkpt lat="43.47873" lon="6.39011">
        <ele>166</ele>
        <time>2022-04-08T12:10:14Z</time>
      </trkpt>
      <trkpt lat="43.47872" lon="6.39012">
        <ele>166</ele>
        <time>2022-04-08T12:10:15Z</time>
      </trkpt>
      <trkpt lat="43.47871" lon="6.39013">
        <ele>166</ele>
        <time>2022-04-08T12:10:16Z</time>
      </trkpt>
      <trkpt lat="43.4787" lon="6.39014">
        <ele>166</ele>
        <time>2022-04-08T12:10:17Z</time>
      </trkpt>
      <trkpt lat="43.47869" lon="6.39015">
        <ele>167</ele>
        <time>2022-04-08T12:10:18Z</time>
      </trkpt>
      <trkpt lat="43.47868" lon="6.39016">
        <ele>167</ele>
        <time>2022-04-08T12:10:19Z</time>
      </trkpt>
      <trkpt lat="43.47867" lon="6.39017">
        <ele>167</ele>
        <time>2022-04-08T12:10:20Z</time>
      </trkpt>
      <trkpt lat="43.47866" lon="6.39018">
        <ele>167</ele>
        <time>2022-04-08T12:10:21Z</time>
      </trkpt>
      <trkpt lat="43.47865" lon="6.39018">
        <ele>168</ele>
        <time>2022-04-08T12:10:22Z</time>
      </trkpt>
      <trkpt lat="43.47865" lon="6.39019">
        <ele>168</ele>
        <time>2022-04-08T12:10:23Z</time>
      </trkpt>
      <trkpt lat="43.47864" lon="6.3902">
        <ele>168</ele>
        <time>2022-04-08T12:10:24Z</time>
      </trkpt>
      <trkpt lat="43.47863" lon="6.39021">
        <ele>168</ele>
        <time>2022-04-08T12:10:25Z</time>
      </trkpt>
      <trkpt lat="43.47862" lon="6.39021">
        <ele>168</ele>
        <time>2022-04-08T12:10:26Z</time>
      </trkpt>
      <trkpt lat="43.47861" lon="6.39022">
        <ele>168</ele>
        <time>2022-04-08T12:10:27Z</time>
      </trkpt>
      <trkpt lat="43.4786" lon="6.39023">
        <ele>168</ele>
        <time>2022-04-08T12:10:28Z</time>
      </trkpt>
      <trkpt lat="43.47858" lon="6.39023">
        <ele>168</ele>
        <time>2022-04-08T12:10:29Z</time>
      </trkpt>
      <trkpt lat="43.47857" lon="6.39024">
        <ele>169</ele>
        <time>2022-04-08T12:10:30Z</time>
      </trkpt>
      <trkpt lat="43.47857" lon="6.39025">
        <ele>169</ele>
        <time>2022-04-08T12:10:31Z</time>
      </trkpt>
      <trkpt lat="43.47855" lon="6.39025">
        <ele>169</ele>
        <time>2022-04-08T12:10:32Z</time>
      </trkpt>
      <trkpt lat="43.47855" lon="6.39026">
        <ele>169</ele>
        <time>2022-04-08T12:10:33Z</time>
      </trkpt>
      <trkpt lat="43.47854" lon="6.39026">
        <ele>169</ele>
        <time>2022-04-08T12:10:34Z</time>
      </trkpt>
      <trkpt lat="43.47853" lon="6.39027">
        <ele>169</ele>
        <time>2022-04-08T12:10:35Z</time>
      </trkpt>
      <trkpt lat="43.47852" lon="6.39027">
        <ele>169</ele>
        <time>2022-04-08T12:10:36Z</time>
      </trkpt>
      <trkpt lat="43.47851" lon="6.39028">
        <ele>169</ele>
        <time>2022-04-08T12:10:37Z</time>
      </trkpt>
      <trkpt lat="43.4785" lon="6.39029">
        <ele>169</ele>
        <time>2022-04-08T12:10:38Z</time>
      </trkpt>
      <trkpt lat="43.47849" lon="6.39029">
        <ele>169</ele>
        <time>2022-04-08T12:10:39Z</time>
      </trkpt>
      <trkpt lat="43.47848" lon="6.3903">
        <ele>168</ele>
        <time>2022-04-08T12:10:40Z</time>
      </trkpt>
      <trkpt lat="43.47847" lon="6.3903">
        <ele>168</ele>
        <time>2022-04-08T12:10:41Z</time>
      </trkpt>
      <trkpt lat="43.47846" lon="6.39031">
        <ele>168</ele>
        <time>2022-04-08T12:10:42Z</time>
      </trkpt>
      <trkpt lat="43.47845" lon="6.39032">
        <ele>168</ele>
        <time>2022-04-08T12:10:43Z</time>
      </trkpt>
      <trkpt lat="43.47844" lon="6.39033">
        <ele>168</ele>
        <time>2022-04-08T12:10:44Z</time>
      </trkpt>
      <trkpt lat="43.47842" lon="6.39033">
        <ele>168</ele>
        <time>2022-04-08T12:10:45Z</time>
      </trkpt>
      <trkpt lat="43.47842" lon="6.39033">
        <ele>168</ele>
        <time>2022-04-08T12:10:46Z</time>
      </trkpt>
      <trkpt lat="43.47841" lon="6.39032">
        <ele>168</ele>
        <time>2022-04-08T12:10:47Z</time>
      </trkpt>
      <trkpt lat="43.4784" lon="6.39031">
        <ele>168</ele>
        <time>2022-04-08T12:10:48Z</time>
      </trkpt>
      <trkpt lat="43.47839" lon="6.39031">
        <ele>168</ele>
        <time>2022-04-08T12:10:49Z</time>
      </trkpt>
      <trkpt lat="43.47838" lon="6.39032">
        <ele>168</ele>
        <time>2022-04-08T12:10:50Z</time>
      </trkpt>
      <trkpt lat="43.47837" lon="6.39032">
        <ele>168</ele>
        <time>2022-04-08T12:10:51Z</time>
      </trkpt>
      <trkpt lat="43.47836" lon="6.39033">
        <ele>168</ele>
        <time>2022-04-08T12:10:52Z</time>
      </trkpt>
      <trkpt lat="43.47835" lon="6.39034">
        <ele>168</ele>
        <time>2022-04-08T12:10:53Z</time>
      </trkpt>
      <trkpt lat="43.47834" lon="6.39034">
        <ele>168</ele>
        <time>2022-04-08T12:10:54Z</time>
      </trkpt>
      <trkpt lat="43.47833" lon="6.39035">
        <ele>168</ele>
        <time>2022-04-08T12:10:55Z</time>
      </trkpt>
      <trkpt lat="43.47833" lon="6.39036">
        <ele>168</ele>
        <time>2022-04-08T12:10:56Z</time>
      </trkpt>
      <trkpt lat="43.47832" lon="6.39037">
        <ele>168</ele>
        <time>2022-04-08T12:10:57Z</time>
      </trkpt>
      <trkpt lat="43.47831" lon="6.39038">
        <ele>168</ele>
        <time>2022-04-08T12:10:58Z</time>
      </trkpt>
      <trkpt lat="43.4783" lon="6.39039">
        <ele>168</ele>
        <time>2022-04-08T12:10:59Z</time>
      </trkpt>
      <trkpt lat="43.47829" lon="6.3904">
        <ele>169</ele>
        <time>2022-04-08T12:11:00Z</time>
      </trkpt>
      <trkpt lat="43.47828" lon="6.3904">
        <ele>169</ele>
        <time>2022-04-08T12:11:01Z</time>
      </trkpt>
      <trkpt lat="43.47827" lon="6.39041">
        <ele>169</ele>
        <time>2022-04-08T12:11:02Z</time>
      </trkpt>
      <trkpt lat="43.47825" lon="6.39042">
        <ele>169</ele>
        <time>2022-04-08T12:11:04Z</time>
      </trkpt>
      <trkpt lat="43.47823" lon="6.39043">
        <ele>169</ele>
        <time>2022-04-08T12:11:05Z</time>
      </trkpt>
      <trkpt lat="43.47822" lon="6.39043">
        <ele>169</ele>
        <time>2022-04-08T12:11:06Z</time>
      </trkpt>
      <trkpt lat="43.47821" lon="6.39044">
        <ele>169</ele>
        <time>2022-04-08T12:11:07Z</time>
      </trkpt>
      <trkpt lat="43.4782" lon="6.39044">
        <ele>168</ele>
        <time>2022-04-08T12:11:08Z</time>
      </trkpt>
      <trkpt lat="43.47819" lon="6.39045">
        <ele>168</ele>
        <time>2022-04-08T12:11:09Z</time>
      </trkpt>
      <trkpt lat="43.47818" lon="6.39045">
        <ele>168</ele>
        <time>2022-04-08T12:11:10Z</time>
      </trkpt>
      <trkpt lat="43.47817" lon="6.39046">
        <ele>168</ele>
        <time>2022-04-08T12:11:11Z</time>
      </trkpt>
      <trkpt lat="43.47816" lon="6.39047">
        <ele>168</ele>
        <time>2022-04-08T12:11:12Z</time>
      </trkpt>
      <trkpt lat="43.47815" lon="6.39047">
        <ele>168</ele>
        <time>2022-04-08T12:11:13Z</time>
      </trkpt>
      <trkpt lat="43.47814" lon="6.39048">
        <ele>168</ele>
        <time>2022-04-08T12:11:14Z</time>
      </trkpt>
      <trkpt lat="43.47812" lon="6.39048">
        <ele>168</ele>
        <time>2022-04-08T12:11:15Z</time>
      </trkpt>
      <trkpt lat="43.47811" lon="6.39049">
        <ele>168</ele>
        <time>2022-04-08T12:11:16Z</time>
      </trkpt>
      <trkpt lat="43.4781" lon="6.3905">
        <ele>168</ele>
        <time>2022-04-08T12:11:17Z</time>
      </trkpt>
      <trkpt lat="43.47809" lon="6.39051">
        <ele>167</ele>
        <time>2022-04-08T12:11:18Z</time>
      </trkpt>
      <trkpt lat="43.47809" lon="6.39052">
        <ele>167</ele>
        <time>2022-04-08T12:11:19Z</time>
      </trkpt>
      <trkpt lat="43.47808" lon="6.39053">
        <ele>166</ele>
        <time>2022-04-08T12:11:20Z</time>
      </trkpt>
      <trkpt lat="43.47806" lon="6.39054">
        <ele>166</ele>
        <time>2022-04-08T12:11:21Z</time>
      </trkpt>
      <trkpt lat="43.47805" lon="6.39055">
        <ele>166</ele>
        <time>2022-04-08T12:11:22Z</time>
      </trkpt>
      <trkpt lat="43.47804" lon="6.39056">
        <ele>165</ele>
        <time>2022-04-08T12:11:23Z</time>
      </trkpt>
      <trkpt lat="43.47803" lon="6.39057">
        <ele>165</ele>
        <time>2022-04-08T12:11:24Z</time>
      </trkpt>
      <trkpt lat="43.47801" lon="6.39058">
        <ele>165</ele>
        <time>2022-04-08T12:11:25Z</time>
      </trkpt>
      <trkpt lat="43.478" lon="6.39059">
        <ele>164</ele>
        <time>2022-04-08T12:11:26Z</time>
      </trkpt>
      <trkpt lat="43.47799" lon="6.3906">
        <ele>163</ele>
        <time>2022-04-08T12:11:27Z</time>
      </trkpt>
      <trkpt lat="43.47797" lon="6.39061">
        <ele>163</ele>
        <time>2022-04-08T12:11:28Z</time>
      </trkpt>
      <trkpt lat="43.47796" lon="6.39061">
        <ele>163</ele>
        <time>2022-04-08T12:11:29Z</time>
      </trkpt>
      <trkpt lat="43.47795" lon="6.39062">
        <ele>163</ele>
        <time>2022-04-08T12:11:30Z</time>
      </trkpt>
      <trkpt lat="43.47794" lon="6.39063">
        <ele>162</ele>
        <time>2022-04-08T12:11:31Z</time>
      </trkpt>
      <trkpt lat="43.47792" lon="6.39064">
        <ele>162</ele>
        <time>2022-04-08T12:11:32Z</time>
      </trkpt>
      <trkpt lat="43.47791" lon="6.39065">
        <ele>162</ele>
        <time>2022-04-08T12:11:33Z</time>
      </trkpt>
      <trkpt lat="43.4779" lon="6.39065">
        <ele>162</ele>
        <time>2022-04-08T12:11:34Z</time>
      </trkpt>
      <trkpt lat="43.4779" lon="6.39065">
        <ele>161</ele>
        <time>2022-04-08T12:11:35Z</time>
      </trkpt>
      <trkpt lat="43.47789" lon="6.39066">
        <ele>161</ele>
        <time>2022-04-08T12:11:36Z</time>
      </trkpt>
      <trkpt lat="43.47788" lon="6.39066">
        <ele>161</ele>
        <time>2022-04-08T12:11:37Z</time>
      </trkpt>
      <trkpt lat="43.47787" lon="6.39066">
        <ele>161</ele>
        <time>2022-04-08T12:11:38Z</time>
      </trkpt>
      <trkpt lat="43.47786" lon="6.39067">
        <ele>161</ele>
        <time>2022-04-08T12:11:39Z</time>
      </trkpt>
      <trkpt lat="43.47785" lon="6.39068">
        <ele>161</ele>
        <time>2022-04-08T12:11:40Z</time>
      </trkpt>
      <trkpt lat="43.47784" lon="6.39068">
        <ele>161</ele>
        <time>2022-04-08T12:11:41Z</time>
      </trkpt>
      <trkpt lat="43.47783" lon="6.39069">
        <ele>161</ele>
        <time>2022-04-08T12:11:42Z</time>
      </trkpt>
      <trkpt lat="43.47782" lon="6.3907">
        <ele>161</ele>
        <time>2022-04-08T12:11:43Z</time>
      </trkpt>
      <trkpt lat="43.47781" lon="6.3907">
        <ele>160</ele>
        <time>2022-04-08T12:11:44Z</time>
      </trkpt>
      <trkpt lat="43.4778" lon="6.39071">
        <ele>159</ele>
        <time>2022-04-08T12:11:45Z</time>
      </trkpt>
      <trkpt lat="43.47779" lon="6.39071">
        <ele>159</ele>
        <time>2022-04-08T12:11:46Z</time>
      </trkpt>
      <trkpt lat="43.47778" lon="6.39072">
        <ele>159</ele>
        <time>2022-04-08T12:11:47Z</time>
      </trkpt>
      <trkpt lat="43.47777" lon="6.39073">
        <ele>159</ele>
        <time>2022-04-08T12:11:48Z</time>
      </trkpt>
      <trkpt lat="43.47776" lon="6.39073">
        <ele>159</ele>
        <time>2022-04-08T12:11:49Z</time>
      </trkpt>
      <trkpt lat="43.47775" lon="6.39074">
        <ele>158</ele>
        <time>2022-04-08T12:11:50Z</time>
      </trkpt>
      <trkpt lat="43.47774" lon="6.39075">
        <ele>158</ele>
        <time>2022-04-08T12:11:51Z</time>
      </trkpt>
      <trkpt lat="43.47773" lon="6.39075">
        <ele>158</ele>
        <time>2022-04-08T12:11:52Z</time>
      </trkpt>
      <trkpt lat="43.47772" lon="6.39076">
        <ele>158</ele>
        <time>2022-04-08T12:11:53Z</time>
      </trkpt>
      <trkpt lat="43.4777" lon="6.39077">
        <ele>158</ele>
        <time>2022-04-08T12:11:54Z</time>
      </trkpt>
      <trkpt lat="43.47769" lon="6.39078">
        <ele>158</ele>
        <time>2022-04-08T12:11:55Z</time>
      </trkpt>
      <trkpt lat="43.47768" lon="6.39079">
        <ele>158</ele>
        <time>2022-04-08T12:11:56Z</time>
      </trkpt>
      <trkpt lat="43.47766" lon="6.3908">
        <ele>158</ele>
        <time>2022-04-08T12:11:57Z</time>
      </trkpt>
      <trkpt lat="43.47765" lon="6.39081">
        <ele>158</ele>
        <time>2022-04-08T12:11:58Z</time>
      </trkpt>
      <trkpt lat="43.47764" lon="6.39082">
        <ele>157</ele>
        <time>2022-04-08T12:11:59Z</time>
      </trkpt>
      <trkpt lat="43.47762" lon="6.39082">
        <ele>157</ele>
        <time>2022-04-08T12:12:00Z</time>
      </trkpt>
      <trkpt lat="43.47761" lon="6.39083">
        <ele>157</ele>
        <time>2022-04-08T12:12:01Z</time>
      </trkpt>
      <trkpt lat="43.4776" lon="6.39084">
        <ele>157</ele>
        <time>2022-04-08T12:12:02Z</time>
      </trkpt>
      <trkpt lat="43.47759" lon="6.39084">
        <ele>157</ele>
        <time>2022-04-08T12:12:03Z</time>
      </trkpt>
      <trkpt lat="43.47758" lon="6.39085">
        <ele>157</ele>
        <time>2022-04-08T12:12:04Z</time>
      </trkpt>
      <trkpt lat="43.47757" lon="6.39086">
        <ele>157</ele>
        <time>2022-04-08T12:12:05Z</time>
      </trkpt>
      <trkpt lat="43.47756" lon="6.39087">
        <ele>157</ele>
        <time>2022-04-08T12:12:06Z</time>
      </trkpt>
      <trkpt lat="43.47755" lon="6.39088">
        <ele>157</ele>
        <time>2022-04-08T12:12:07Z</time>
      </trkpt>
      <trkpt lat="43.47754" lon="6.39089">
        <ele>157</ele>
        <time>2022-04-08T12:12:08Z</time>
      </trkpt>
      <trkpt lat="43.47753" lon="6.3909">
        <ele>158</ele>
        <time>2022-04-08T12:12:09Z</time>
      </trkpt>
      <trkpt lat="43.47751" lon="6.39091">
        <ele>158</ele>
        <time>2022-04-08T12:12:10Z</time>
      </trkpt>
      <trkpt lat="43.4775" lon="6.39092">
        <ele>158</ele>
        <time>2022-04-08T12:12:11Z</time>
      </trkpt>
      <trkpt lat="43.47749" lon="6.39093">
        <ele>158</ele>
        <time>2022-04-08T12:12:12Z</time>
      </trkpt>
      <trkpt lat="43.47748" lon="6.39094">
        <ele>158</ele>
        <time>2022-04-08T12:12:13Z</time>
      </trkpt>
      <trkpt lat="43.47747" lon="6.39095">
        <ele>158</ele>
        <time>2022-04-08T12:12:14Z</time>
      </trkpt>
      <trkpt lat="43.47746" lon="6.39095">
        <ele>158</ele>
        <time>2022-04-08T12:12:15Z</time>
      </trkpt>
      <trkpt lat="43.47745" lon="6.39096">
        <ele>158</ele>
        <time>2022-04-08T12:12:16Z</time>
      </trkpt>
      <trkpt lat="43.47744" lon="6.39097">
        <ele>158</ele>
        <time>2022-04-08T12:12:17Z</time>
      </trkpt>
      <trkpt lat="43.47743" lon="6.39098">
        <ele>158</ele>
        <time>2022-04-08T12:12:18Z</time>
      </trkpt>
      <trkpt lat="43.47743" lon="6.39099">
        <ele>158</ele>
        <time>2022-04-08T12:12:19Z</time>
      </trkpt>
      <trkpt lat="43.47742" lon="6.39099">
        <ele>158</ele>
        <time>2022-04-08T12:12:20Z</time>
      </trkpt>
      <trkpt lat="43.47741" lon="6.391">
        <ele>159</ele>
        <time>2022-04-08T12:12:21Z</time>
      </trkpt>
      <trkpt lat="43.4774" lon="6.39101">
        <ele>159</ele>
        <time>2022-04-08T12:12:22Z</time>
      </trkpt>
      <trkpt lat="43.47739" lon="6.39102">
        <ele>159</ele>
        <time>2022-04-08T12:12:23Z</time>
      </trkpt>
      <trkpt lat="43.47738" lon="6.39103">
        <ele>159</ele>
        <time>2022-04-08T12:12:24Z</time>
      </trkpt>
      <trkpt lat="43.47737" lon="6.39104">
        <ele>159</ele>
        <time>2022-04-08T12:12:25Z</time>
      </trkpt>
      <trkpt lat="43.47736" lon="6.39105">
        <ele>159</ele>
        <time>2022-04-08T12:12:26Z</time>
      </trkpt>
      <trkpt lat="43.47735" lon="6.39106">
        <ele>159</ele>
        <time>2022-04-08T12:12:27Z</time>
      </trkpt>
      <trkpt lat="43.47735" lon="6.39107">
        <ele>160</ele>
        <time>2022-04-08T12:12:28Z</time>
      </trkpt>
      <trkpt lat="43.47734" lon="6.39108">
        <ele>160</ele>
        <time>2022-04-08T12:12:29Z</time>
      </trkpt>
      <trkpt lat="43.47733" lon="6.39109">
        <ele>160</ele>
        <time>2022-04-08T12:12:30Z</time>
      </trkpt>
      <trkpt lat="43.47732" lon="6.3911">
        <ele>160</ele>
        <time>2022-04-08T12:12:31Z</time>
      </trkpt>
      <trkpt lat="43.47732" lon="6.39111">
        <ele>160</ele>
        <time>2022-04-08T12:12:32Z</time>
      </trkpt>
      <trkpt lat="43.47731" lon="6.39111">
        <ele>160</ele>
        <time>2022-04-08T12:12:33Z</time>
      </trkpt>
      <trkpt lat="43.4773" lon="6.39112">
        <ele>160</ele>
        <time>2022-04-08T12:12:34Z</time>
      </trkpt>
      <trkpt lat="43.47729" lon="6.39113">
        <ele>160</ele>
        <time>2022-04-08T12:12:35Z</time>
      </trkpt>
      <trkpt lat="43.47728" lon="6.39114">
        <ele>160</ele>
        <time>2022-04-08T12:12:36Z</time>
      </trkpt>
      <trkpt lat="43.47727" lon="6.39114">
        <ele>159</ele>
        <time>2022-04-08T12:12:37Z</time>
      </trkpt>
      <trkpt lat="43.47727" lon="6.39115">
        <ele>159</ele>
        <time>2022-04-08T12:12:38Z</time>
      </trkpt>
      <trkpt lat="43.47726" lon="6.39116">
        <ele>159</ele>
        <time>2022-04-08T12:12:39Z</time>
      </trkpt>
      <trkpt lat="43.47725" lon="6.39116">
        <ele>159</ele>
        <time>2022-04-08T12:12:40Z</time>
      </trkpt>
      <trkpt lat="43.47724" lon="6.39117">
        <ele>159</ele>
        <time>2022-04-08T12:12:41Z</time>
      </trkpt>
      <trkpt lat="43.47723" lon="6.39118">
        <ele>159</ele>
        <time>2022-04-08T12:12:42Z</time>
      </trkpt>
      <trkpt lat="43.47723" lon="6.39119">
        <ele>159</ele>
        <time>2022-04-08T12:12:43Z</time>
      </trkpt>
      <trkpt lat="43.47722" lon="6.3912">
        <ele>159</ele>
        <time>2022-04-08T12:12:44Z</time>
      </trkpt>
      <trkpt lat="43.47721" lon="6.3912">
        <ele>160</ele>
        <time>2022-04-08T12:12:45Z</time>
      </trkpt>
      <trkpt lat="43.4772" lon="6.39121">
        <ele>160</ele>
        <time>2022-04-08T12:12:46Z</time>
      </trkpt>
      <trkpt lat="43.47719" lon="6.39122">
        <ele>160</ele>
        <time>2022-04-08T12:12:47Z</time>
      </trkpt>
      <trkpt lat="43.47718" lon="6.39123">
        <ele>159</ele>
        <time>2022-04-08T12:12:48Z</time>
      </trkpt>
      <trkpt lat="43.47718" lon="6.39124">
        <ele>159</ele>
        <time>2022-04-08T12:12:49Z</time>
      </trkpt>
      <trkpt lat="43.47717" lon="6.39125">
        <ele>159</ele>
        <time>2022-04-08T12:12:50Z</time>
      </trkpt>
      <trkpt lat="43.47716" lon="6.39125">
        <ele>159</ele>
        <time>2022-04-08T12:12:51Z</time>
      </trkpt>
      <trkpt lat="43.47715" lon="6.39126">
        <ele>159</ele>
        <time>2022-04-08T12:12:52Z</time>
      </trkpt>
      <trkpt lat="43.47714" lon="6.39127">
        <ele>158</ele>
        <time>2022-04-08T12:12:53Z</time>
      </trkpt>
      <trkpt lat="43.47713" lon="6.39127">
        <ele>158</ele>
        <time>2022-04-08T12:12:54Z</time>
      </trkpt>
      <trkpt lat="43.47712" lon="6.39128">
        <ele>158</ele>
        <time>2022-04-08T12:12:55Z</time>
      </trkpt>
      <trkpt lat="43.47712" lon="6.39128">
        <ele>158</ele>
        <time>2022-04-08T12:12:56Z</time>
      </trkpt>
      <trkpt lat="43.47711" lon="6.39129">
        <ele>158</ele>
        <time>2022-04-08T12:12:57Z</time>
      </trkpt>
      <trkpt lat="43.4771" lon="6.3913">
        <ele>158</ele>
        <time>2022-04-08T12:12:58Z</time>
      </trkpt>
      <trkpt lat="43.47709" lon="6.3913">
        <ele>158</ele>
        <time>2022-04-08T12:12:59Z</time>
      </trkpt>
      <trkpt lat="43.47708" lon="6.39131">
        <ele>158</ele>
        <time>2022-04-08T12:13:00Z</time>
      </trkpt>
      <trkpt lat="43.47707" lon="6.39132">
        <ele>158</ele>
        <time>2022-04-08T12:13:01Z</time>
      </trkpt>
      <trkpt lat="43.47706" lon="6.39132">
        <ele>158</ele>
        <time>2022-04-08T12:13:02Z</time>
      </trkpt>
      <trkpt lat="43.47705" lon="6.39133">
        <ele>158</ele>
        <time>2022-04-08T12:13:03Z</time>
      </trkpt>
      <trkpt lat="43.47704" lon="6.39134">
        <ele>158</ele>
        <time>2022-04-08T12:13:04Z</time>
      </trkpt>
      <trkpt lat="43.47703" lon="6.39135">
        <ele>158</ele>
        <time>2022-04-08T12:13:05Z</time>
      </trkpt>
      <trkpt lat="43.47703" lon="6.39136">
        <ele>158</ele>
        <time>2022-04-08T12:13:06Z</time>
      </trkpt>
      <trkpt lat="43.47702" lon="6.39137">
        <ele>158</ele>
        <time>2022-04-08T12:13:07Z</time>
      </trkpt>
      <trkpt lat="43.47701" lon="6.39138">
        <ele>158</ele>
        <time>2022-04-08T12:13:08Z</time>
      </trkpt>
      <trkpt lat="43.47701" lon="6.39139">
        <ele>158</ele>
        <time>2022-04-08T12:13:09Z</time>
      </trkpt>
      <trkpt lat="43.477" lon="6.3914">
        <ele>158</ele>
        <time>2022-04-08T12:13:10Z</time>
      </trkpt>
      <trkpt lat="43.47699" lon="6.39141">
        <ele>158</ele>
        <time>2022-04-08T12:13:11Z</time>
      </trkpt>
      <trkpt lat="43.47698" lon="6.39142">
        <ele>158</ele>
        <time>2022-04-08T12:13:12Z</time>
      </trkpt>
      <trkpt lat="43.47697" lon="6.39143">
        <ele>158</ele>
        <time>2022-04-08T12:13:13Z</time>
      </trkpt>
      <trkpt lat="43.47696" lon="6.39144">
        <ele>158</ele>
        <time>2022-04-08T12:13:14Z</time>
      </trkpt>
      <trkpt lat="43.47695" lon="6.39145">
        <ele>158</ele>
        <time>2022-04-08T12:13:15Z</time>
      </trkpt>
      <trkpt lat="43.47694" lon="6.39146">
        <ele>158</ele>
        <time>2022-04-08T12:13:16Z</time>
      </trkpt>
      <trkpt lat="43.47693" lon="6.39147">
        <ele>158</ele>
        <time>2022-04-08T12:13:17Z</time>
      </trkpt>
      <trkpt lat="43.47692" lon="6.39148">
        <ele>158</ele>
        <time>2022-04-08T12:13:18Z</time>
      </trkpt>
      <trkpt lat="43.47691" lon="6.3915">
        <ele>158</ele>
        <time>2022-04-08T12:13:19Z</time>
      </trkpt>
      <trkpt lat="43.4769" lon="6.39151">
        <ele>158</ele>
        <time>2022-04-08T12:13:20Z</time>
      </trkpt>
      <trkpt lat="43.47689" lon="6.39152">
        <ele>158</ele>
        <time>2022-04-08T12:13:21Z</time>
      </trkpt>
      <trkpt lat="43.47688" lon="6.39153">
        <ele>158</ele>
        <time>2022-04-08T12:13:22Z</time>
      </trkpt>
      <trkpt lat="43.47687" lon="6.39154">
        <ele>158</ele>
        <time>2022-04-08T12:13:23Z</time>
      </trkpt>
      <trkpt lat="43.47686" lon="6.39155">
        <ele>158</ele>
        <time>2022-04-08T12:13:24Z</time>
      </trkpt>
      <trkpt lat="43.47685" lon="6.39156">
        <ele>158</ele>
        <time>2022-04-08T12:13:25Z</time>
      </trkpt>
      <trkpt lat="43.47684" lon="6.39157">
        <ele>158</ele>
        <time>2022-04-08T12:13:26Z</time>
      </trkpt>
      <trkpt lat="43.47683" lon="6.39158">
        <ele>158</ele>
        <time>2022-04-08T12:13:27Z</time>
      </trkpt>
      <trkpt lat="43.47683" lon="6.39159">
        <ele>158</ele>
        <time>2022-04-08T12:13:28Z</time>
      </trkpt>
      <trkpt lat="43.47682" lon="6.3916">
        <ele>158</ele>
        <time>2022-04-08T12:13:29Z</time>
      </trkpt>
      <trkpt lat="43.47681" lon="6.39161">
        <ele>158</ele>
        <time>2022-04-08T12:13:30Z</time>
      </trkpt>
      <trkpt lat="43.4768" lon="6.39162">
        <ele>158</ele>
        <time>2022-04-08T12:13:31Z</time>
      </trkpt>
      <trkpt lat="43.47679" lon="6.39163">
        <ele>158</ele>
        <time>2022-04-08T12:13:32Z</time>
      </trkpt>
      <trkpt lat="43.47678" lon="6.39164">
        <ele>158</ele>
        <time>2022-04-08T12:13:33Z</time>
      </trkpt>
      <trkpt lat="43.47677" lon="6.39165">
        <ele>158</ele>
        <time>2022-04-08T12:13:34Z</time>
      </trkpt>
      <trkpt lat="43.47676" lon="6.39166">
        <ele>159</ele>
        <time>2022-04-08T12:13:35Z</time>
      </trkpt>
      <trkpt lat="43.47675" lon="6.39167">
        <ele>159</ele>
        <time>2022-04-08T12:13:36Z</time>
      </trkpt>
      <trkpt lat="43.47674" lon="6.39167">
        <ele>159</ele>
        <time>2022-04-08T12:13:37Z</time>
      </trkpt>
      <trkpt lat="43.47673" lon="6.39168">
        <ele>159</ele>
        <time>2022-04-08T12:13:38Z</time>
      </trkpt>
      <trkpt lat="43.47672" lon="6.3917">
        <ele>159</ele>
        <time>2022-04-08T12:13:39Z</time>
      </trkpt>
      <trkpt lat="43.47671" lon="6.39171">
        <ele>159</ele>
        <time>2022-04-08T12:13:40Z</time>
      </trkpt>
      <trkpt lat="43.4767" lon="6.39172">
        <ele>160</ele>
        <time>2022-04-08T12:13:41Z</time>
      </trkpt>
      <trkpt lat="43.47669" lon="6.39173">
        <ele>160</ele>
        <time>2022-04-08T12:13:42Z</time>
      </trkpt>
      <trkpt lat="43.47668" lon="6.39173">
        <ele>160</ele>
        <time>2022-04-08T12:13:43Z</time>
      </trkpt>
      <trkpt lat="43.47667" lon="6.39174">
        <ele>160</ele>
        <time>2022-04-08T12:13:44Z</time>
      </trkpt>
      <trkpt lat="43.47666" lon="6.39175">
        <ele>160</ele>
        <time>2022-04-08T12:13:45Z</time>
      </trkpt>
      <trkpt lat="43.47665" lon="6.39176">
        <ele>161</ele>
        <time>2022-04-08T12:13:46Z</time>
      </trkpt>
      <trkpt lat="43.47665" lon="6.39177">
        <ele>161</ele>
        <time>2022-04-08T12:13:47Z</time>
      </trkpt>
      <trkpt lat="43.47664" lon="6.39178">
        <ele>161</ele>
        <time>2022-04-08T12:13:48Z</time>
      </trkpt>
      <trkpt lat="43.47663" lon="6.39179">
        <ele>161</ele>
        <time>2022-04-08T12:13:49Z</time>
      </trkpt>
      <trkpt lat="43.47662" lon="6.3918">
        <ele>161</ele>
        <time>2022-04-08T12:13:50Z</time>
      </trkpt>
      <trkpt lat="43.47661" lon="6.39181">
        <ele>161</ele>
        <time>2022-04-08T12:13:51Z</time>
      </trkpt>
      <trkpt lat="43.4766" lon="6.39182">
        <ele>161</ele>
        <time>2022-04-08T12:13:52Z</time>
      </trkpt>
      <trkpt lat="43.4766" lon="6.39183">
        <ele>161</ele>
        <time>2022-04-08T12:13:53Z</time>
      </trkpt>
      <trkpt lat="43.47659" lon="6.39184">
        <ele>162</ele>
        <time>2022-04-08T12:13:54Z</time>
      </trkpt>
      <trkpt lat="43.47659" lon="6.39185">
        <ele>162</ele>
        <time>2022-04-08T12:13:55Z</time>
      </trkpt>
      <trkpt lat="43.47658" lon="6.39185">
        <ele>162</ele>
        <time>2022-04-08T12:13:56Z</time>
      </trkpt>
      <trkpt lat="43.47657" lon="6.39187">
        <ele>162</ele>
        <time>2022-04-08T12:13:57Z</time>
      </trkpt>
      <trkpt lat="43.47656" lon="6.39188">
        <ele>163</ele>
        <time>2022-04-08T12:13:58Z</time>
      </trkpt>
      <trkpt lat="43.47655" lon="6.39189">
        <ele>163</ele>
        <time>2022-04-08T12:13:59Z</time>
      </trkpt>
      <trkpt lat="43.47654" lon="6.3919">
        <ele>163</ele>
        <time>2022-04-08T12:14:00Z</time>
      </trkpt>
      <trkpt lat="43.47653" lon="6.39191">
        <ele>163</ele>
        <time>2022-04-08T12:14:01Z</time>
      </trkpt>
      <trkpt lat="43.47652" lon="6.39192">
        <ele>163</ele>
        <time>2022-04-08T12:14:02Z</time>
      </trkpt>
      <trkpt lat="43.47651" lon="6.39193">
        <ele>163</ele>
        <time>2022-04-08T12:14:03Z</time>
      </trkpt>
      <trkpt lat="43.4765" lon="6.39194">
        <ele>163</ele>
        <time>2022-04-08T12:14:04Z</time>
      </trkpt>
      <trkpt lat="43.47649" lon="6.39195">
        <ele>163</ele>
        <time>2022-04-08T12:14:05Z</time>
      </trkpt>
      <trkpt lat="43.47648" lon="6.39196">
        <ele>163</ele>
        <time>2022-04-08T12:14:06Z</time>
      </trkpt>
      <trkpt lat="43.47647" lon="6.39197">
        <ele>163</ele>
        <time>2022-04-08T12:14:07Z</time>
      </trkpt>
      <trkpt lat="43.47646" lon="6.39198">
        <ele>163</ele>
        <time>2022-04-08T12:14:08Z</time>
      </trkpt>
      <trkpt lat="43.47644" lon="6.39199">
        <ele>163</ele>
        <time>2022-04-08T12:14:09Z</time>
      </trkpt>
      <trkpt lat="43.47643" lon="6.39199">
        <ele>164</ele>
        <time>2022-04-08T12:14:10Z</time>
      </trkpt>
      <trkpt lat="43.47642" lon="6.392">
        <ele>164</ele>
        <time>2022-04-08T12:14:11Z</time>
      </trkpt>
      <trkpt lat="43.47641" lon="6.39201">
        <ele>164</ele>
        <time>2022-04-08T12:14:12Z</time>
      </trkpt>
      <trkpt lat="43.4764" lon="6.39201">
        <ele>164</ele>
        <time>2022-04-08T12:14:13Z</time>
      </trkpt>
      <trkpt lat="43.47639" lon="6.39202">
        <ele>164</ele>
        <time>2022-04-08T12:14:14Z</time>
      </trkpt>
      <trkpt lat="43.47638" lon="6.39203">
        <ele>164</ele>
        <time>2022-04-08T12:14:15Z</time>
      </trkpt>
      <trkpt lat="43.47638" lon="6.39204">
        <ele>164</ele>
        <time>2022-04-08T12:14:16Z</time>
      </trkpt>
      <trkpt lat="43.47637" lon="6.39205">
        <ele>164</ele>
        <time>2022-04-08T12:14:17Z</time>
      </trkpt>
      <trkpt lat="43.47636" lon="6.39206">
        <ele>164</ele>
        <time>2022-04-08T12:14:18Z</time>
      </trkpt>
      <trkpt lat="43.47635" lon="6.39207">
        <ele>164</ele>
        <time>2022-04-08T12:14:19Z</time>
      </trkpt>
      <trkpt lat="43.47634" lon="6.39208">
        <ele>164</ele>
        <time>2022-04-08T12:14:20Z</time>
      </trkpt>
      <trkpt lat="43.47633" lon="6.39209">
        <ele>164</ele>
        <time>2022-04-08T12:14:21Z</time>
      </trkpt>
      <trkpt lat="43.47633" lon="6.3921">
        <ele>164</ele>
        <time>2022-04-08T12:14:22Z</time>
      </trkpt>
      <trkpt lat="43.47632" lon="6.39211">
        <ele>164</ele>
        <time>2022-04-08T12:14:23Z</time>
      </trkpt>
      <trkpt lat="43.47631" lon="6.39212">
        <ele>164</ele>
        <time>2022-04-08T12:14:24Z</time>
      </trkpt>
      <trkpt lat="43.4763" lon="6.39213">
        <ele>164</ele>
        <time>2022-04-08T12:14:25Z</time>
      </trkpt>
      <trkpt lat="43.47629" lon="6.39215">
        <ele>164</ele>
        <time>2022-04-08T12:14:26Z</time>
      </trkpt>
      <trkpt lat="43.47628" lon="6.39216">
        <ele>164</ele>
        <time>2022-04-08T12:14:27Z</time>
      </trkpt>
      <trkpt lat="43.47628" lon="6.39217">
        <ele>164</ele>
        <time>2022-04-08T12:14:28Z</time>
      </trkpt>
      <trkpt lat="43.47627" lon="6.39218">
        <ele>164</ele>
        <time>2022-04-08T12:14:29Z</time>
      </trkpt>
      <trkpt lat="43.47626" lon="6.39219">
        <ele>164</ele>
        <time>2022-04-08T12:14:30Z</time>
      </trkpt>
      <trkpt lat="43.47625" lon="6.3922">
        <ele>164</ele>
        <time>2022-04-08T12:14:31Z</time>
      </trkpt>
      <trkpt lat="43.47624" lon="6.39221">
        <ele>164</ele>
        <time>2022-04-08T12:14:32Z</time>
      </trkpt>
      <trkpt lat="43.47624" lon="6.39222">
        <ele>164</ele>
        <time>2022-04-08T12:14:33Z</time>
      </trkpt>
      <trkpt lat="43.47623" lon="6.39223">
        <ele>164</ele>
        <time>2022-04-08T12:14:34Z</time>
      </trkpt>
      <trkpt lat="43.47622" lon="6.39224">
        <ele>164</ele>
        <time>2022-04-08T12:14:35Z</time>
      </trkpt>
      <trkpt lat="43.47621" lon="6.39225">
        <ele>164</ele>
        <time>2022-04-08T12:14:36Z</time>
      </trkpt>
      <trkpt lat="43.4762" lon="6.39226">
        <ele>164</ele>
        <time>2022-04-08T12:14:37Z</time>
      </trkpt>
      <trkpt lat="43.47619" lon="6.39227">
        <ele>164</ele>
        <time>2022-04-08T12:14:38Z</time>
      </trkpt>
      <trkpt lat="43.47618" lon="6.39227">
        <ele>164</ele>
        <time>2022-04-08T12:14:39Z</time>
      </trkpt>
      <trkpt lat="43.47617" lon="6.39228">
        <ele>164</ele>
        <time>2022-04-08T12:14:40Z</time>
      </trkpt>
      <trkpt lat="43.47616" lon="6.39229">
        <ele>164</ele>
        <time>2022-04-08T12:14:41Z</time>
      </trkpt>
      <trkpt lat="43.47615" lon="6.39229">
        <ele>164</ele>
        <time>2022-04-08T12:14:42Z</time>
      </trkpt>
      <trkpt lat="43.47614" lon="6.3923">
        <ele>164</ele>
        <time>2022-04-08T12:14:43Z</time>
      </trkpt>
      <trkpt lat="43.47613" lon="6.39231">
        <ele>165</ele>
        <time>2022-04-08T12:14:44Z</time>
      </trkpt>
      <trkpt lat="43.47613" lon="6.39232">
        <ele>165</ele>
        <time>2022-04-08T12:14:45Z</time>
      </trkpt>
      <trkpt lat="43.47612" lon="6.39233">
        <ele>165</ele>
        <time>2022-04-08T12:14:46Z</time>
      </trkpt>
      <trkpt lat="43.47611" lon="6.39234">
        <ele>165</ele>
        <time>2022-04-08T12:14:47Z</time>
      </trkpt>
      <trkpt lat="43.4761" lon="6.39236">
        <ele>165</ele>
        <time>2022-04-08T12:14:48Z</time>
      </trkpt>
      <trkpt lat="43.4761" lon="6.39237">
        <ele>165</ele>
        <time>2022-04-08T12:14:49Z</time>
      </trkpt>
      <trkpt lat="43.47609" lon="6.39239">
        <ele>165</ele>
        <time>2022-04-08T12:14:50Z</time>
      </trkpt>
      <trkpt lat="43.47609" lon="6.3924">
        <ele>165</ele>
        <time>2022-04-08T12:14:51Z</time>
      </trkpt>
      <trkpt lat="43.47608" lon="6.39241">
        <ele>165</ele>
        <time>2022-04-08T12:14:52Z</time>
      </trkpt>
      <trkpt lat="43.47608" lon="6.39243">
        <ele>165</ele>
        <time>2022-04-08T12:14:53Z</time>
      </trkpt>
      <trkpt lat="43.47608" lon="6.39244">
        <ele>165</ele>
        <time>2022-04-08T12:14:54Z</time>
      </trkpt>
      <trkpt lat="43.47608" lon="6.39246">
        <ele>165</ele>
        <time>2022-04-08T12:14:55Z</time>
      </trkpt>
      <trkpt lat="43.47608" lon="6.39247">
        <ele>165</ele>
        <time>2022-04-08T12:14:56Z</time>
      </trkpt>
      <trkpt lat="43.47607" lon="6.39249">
        <ele>165</ele>
        <time>2022-04-08T12:14:57Z</time>
      </trkpt>
      <trkpt lat="43.47607" lon="6.3925">
        <ele>165</ele>
        <time>2022-04-08T12:14:58Z</time>
      </trkpt>
      <trkpt lat="43.47606" lon="6.39252">
        <ele>165</ele>
        <time>2022-04-08T12:14:59Z</time>
      </trkpt>
      <trkpt lat="43.47606" lon="6.39253">
        <ele>165</ele>
        <time>2022-04-08T12:15:00Z</time>
      </trkpt>
      <trkpt lat="43.47605" lon="6.39255">
        <ele>165</ele>
        <time>2022-04-08T12:15:01Z</time>
      </trkpt>
      <trkpt lat="43.47605" lon="6.39257">
        <ele>165</ele>
        <time>2022-04-08T12:15:02Z</time>
      </trkpt>
      <trkpt lat="43.47604" lon="6.39259">
        <ele>164</ele>
        <time>2022-04-08T12:15:03Z</time>
      </trkpt>
      <trkpt lat="43.47604" lon="6.3926">
        <ele>164</ele>
        <time>2022-04-08T12:15:04Z</time>
      </trkpt>
      <trkpt lat="43.47604" lon="6.39261">
        <ele>164</ele>
        <time>2022-04-08T12:15:05Z</time>
      </trkpt>
      <trkpt lat="43.47603" lon="6.39263">
        <ele>163</ele>
        <time>2022-04-08T12:15:06Z</time>
      </trkpt>
      <trkpt lat="43.47603" lon="6.39265">
        <ele>163</ele>
        <time>2022-04-08T12:15:07Z</time>
      </trkpt>
      <trkpt lat="43.47603" lon="6.39267">
        <ele>163</ele>
        <time>2022-04-08T12:15:08Z</time>
      </trkpt>
      <trkpt lat="43.47603" lon="6.39268">
        <ele>162</ele>
        <time>2022-04-08T12:15:09Z</time>
      </trkpt>
      <trkpt lat="43.47602" lon="6.3927">
        <ele>162</ele>
        <time>2022-04-08T12:15:10Z</time>
      </trkpt>
      <trkpt lat="43.47602" lon="6.39272">
        <ele>162</ele>
        <time>2022-04-08T12:15:11Z</time>
      </trkpt>
      <trkpt lat="43.47602" lon="6.39274">
        <ele>162</ele>
        <time>2022-04-08T12:15:12Z</time>
      </trkpt>
      <trkpt lat="43.47602" lon="6.39276">
        <ele>162</ele>
        <time>2022-04-08T12:15:13Z</time>
      </trkpt>
      <trkpt lat="43.47602" lon="6.39277">
        <ele>162</ele>
        <time>2022-04-08T12:15:14Z</time>
      </trkpt>
      <trkpt lat="43.47602" lon="6.39279">
        <ele>162</ele>
        <time>2022-04-08T12:15:15Z</time>
      </trkpt>
      <trkpt lat="43.47602" lon="6.3928">
        <ele>162</ele>
        <time>2022-04-08T12:15:16Z</time>
      </trkpt>
      <trkpt lat="43.47602" lon="6.39281">
        <ele>162</ele>
        <time>2022-04-08T12:15:17Z</time>
      </trkpt>
      <trkpt lat="43.47601" lon="6.39283">
        <ele>162</ele>
        <time>2022-04-08T12:15:18Z</time>
      </trkpt>
      <trkpt lat="43.47601" lon="6.39284">
        <ele>162</ele>
        <time>2022-04-08T12:15:19Z</time>
      </trkpt>
      <trkpt lat="43.476" lon="6.39286">
        <ele>162</ele>
        <time>2022-04-08T12:15:20Z</time>
      </trkpt>
      <trkpt lat="43.476" lon="6.39288">
        <ele>162</ele>
        <time>2022-04-08T12:15:21Z</time>
      </trkpt>
      <trkpt lat="43.476" lon="6.39289">
        <ele>162</ele>
        <time>2022-04-08T12:15:22Z</time>
      </trkpt>
      <trkpt lat="43.47601" lon="6.39291">
        <ele>162</ele>
        <time>2022-04-08T12:15:23Z</time>
      </trkpt>
      <trkpt lat="43.47601" lon="6.39293">
        <ele>162</ele>
        <time>2022-04-08T12:15:24Z</time>
      </trkpt>
      <trkpt lat="43.47601" lon="6.39294">
        <ele>162</ele>
        <time>2022-04-08T12:15:25Z</time>
      </trkpt>
      <trkpt lat="43.47601" lon="6.39295">
        <ele>162</ele>
        <time>2022-04-08T12:15:26Z</time>
      </trkpt>
      <trkpt lat="43.47601" lon="6.39296">
        <ele>162</ele>
        <time>2022-04-08T12:15:27Z</time>
      </trkpt>
      <trkpt lat="43.47601" lon="6.39298">
        <ele>162</ele>
        <time>2022-04-08T12:15:28Z</time>
      </trkpt>
      <trkpt lat="43.47601" lon="6.39299">
        <ele>162</ele>
        <time>2022-04-08T12:15:29Z</time>
      </trkpt>
      <trkpt lat="43.47601" lon="6.393">
        <ele>162</ele>
        <time>2022-04-08T12:15:30Z</time>
      </trkpt>
      <trkpt lat="43.47601" lon="6.39301">
        <ele>162</ele>
        <time>2022-04-08T12:15:31Z</time>
      </trkpt>
      <trkpt lat="43.47601" lon="6.39303">
        <ele>161</ele>
        <time>2022-04-08T12:15:32Z</time>
      </trkpt>
      <trkpt lat="43.47601" lon="6.39304">
        <ele>161</ele>
        <time>2022-04-08T12:15:33Z</time>
      </trkpt>
      <trkpt lat="43.47601" lon="6.39305">
        <ele>161</ele>
        <time>2022-04-08T12:15:34Z</time>
      </trkpt>
      <trkpt lat="43.476" lon="6.39306">
        <ele>161</ele>
        <time>2022-04-08T12:15:35Z</time>
      </trkpt>
      <trkpt lat="43.476" lon="6.39307">
        <ele>161</ele>
        <time>2022-04-08T12:15:36Z</time>
      </trkpt>
      <trkpt lat="43.476" lon="6.39309">
        <ele>161</ele>
        <time>2022-04-08T12:15:37Z</time>
      </trkpt>
      <trkpt lat="43.476" lon="6.3931">
        <ele>161</ele>
        <time>2022-04-08T12:15:38Z</time>
      </trkpt>
      <trkpt lat="43.47599" lon="6.39312">
        <ele>161</ele>
        <time>2022-04-08T12:15:39Z</time>
      </trkpt>
      <trkpt lat="43.47599" lon="6.39313">
        <ele>161</ele>
        <time>2022-04-08T12:15:40Z</time>
      </trkpt>
      <trkpt lat="43.47599" lon="6.39315">
        <ele>161</ele>
        <time>2022-04-08T12:15:41Z</time>
      </trkpt>
      <trkpt lat="43.47599" lon="6.39317">
        <ele>161</ele>
        <time>2022-04-08T12:15:42Z</time>
      </trkpt>
      <trkpt lat="43.47599" lon="6.39318">
        <ele>161</ele>
        <time>2022-04-08T12:15:43Z</time>
      </trkpt>
      <trkpt lat="43.47598" lon="6.39319">
        <ele>161</ele>
        <time>2022-04-08T12:15:44Z</time>
      </trkpt>
      <trkpt lat="43.47597" lon="6.39321">
        <ele>161</ele>
        <time>2022-04-08T12:15:45Z</time>
      </trkpt>
      <trkpt lat="43.47597" lon="6.39322">
        <ele>161</ele>
        <time>2022-04-08T12:15:46Z</time>
      </trkpt>
      <trkpt lat="43.47597" lon="6.39324">
        <ele>161</ele>
        <time>2022-04-08T12:15:47Z</time>
      </trkpt>
      <trkpt lat="43.47597" lon="6.39325">
        <ele>161</ele>
        <time>2022-04-08T12:15:48Z</time>
      </trkpt>
      <trkpt lat="43.47597" lon="6.39327">
        <ele>161</ele>
        <time>2022-04-08T12:15:49Z</time>
      </trkpt>
      <trkpt lat="43.47596" lon="6.39328">
        <ele>161</ele>
        <time>2022-04-08T12:15:50Z</time>
      </trkpt>
      <trkpt lat="43.47596" lon="6.39329">
        <ele>161</ele>
        <time>2022-04-08T12:15:51Z</time>
      </trkpt>
      <trkpt lat="43.47596" lon="6.39331">
        <ele>161</ele>
        <time>2022-04-08T12:15:52Z</time>
      </trkpt>
      <trkpt lat="43.47596" lon="6.39332">
        <ele>161</ele>
        <time>2022-04-08T12:15:53Z</time>
      </trkpt>
      <trkpt lat="43.47595" lon="6.39334">
        <ele>161</ele>
        <time>2022-04-08T12:15:54Z</time>
      </trkpt>
      <trkpt lat="43.47595" lon="6.39335">
        <ele>161</ele>
        <time>2022-04-08T12:15:55Z</time>
      </trkpt>
      <trkpt lat="43.47594" lon="6.39337">
        <ele>159</ele>
        <time>2022-04-08T12:15:56Z</time>
      </trkpt>
      <trkpt lat="43.47594" lon="6.39338">
        <ele>159</ele>
        <time>2022-04-08T12:15:57Z</time>
      </trkpt>
      <trkpt lat="43.47593" lon="6.39339">
        <ele>159</ele>
        <time>2022-04-08T12:15:58Z</time>
      </trkpt>
      <trkpt lat="43.47592" lon="6.3934">
        <ele>159</ele>
        <time>2022-04-08T12:15:59Z</time>
      </trkpt>
      <trkpt lat="43.47591" lon="6.39341">
        <ele>159</ele>
        <time>2022-04-08T12:16:00Z</time>
      </trkpt>
      <trkpt lat="43.4759" lon="6.39342">
        <ele>159</ele>
        <time>2022-04-08T12:16:01Z</time>
      </trkpt>
      <trkpt lat="43.47589" lon="6.39343">
        <ele>159</ele>
        <time>2022-04-08T12:16:02Z</time>
      </trkpt>
      <trkpt lat="43.47588" lon="6.39344">
        <ele>159</ele>
        <time>2022-04-08T12:16:03Z</time>
      </trkpt>
      <trkpt lat="43.47587" lon="6.39344">
        <ele>159</ele>
        <time>2022-04-08T12:16:04Z</time>
      </trkpt>
      <trkpt lat="43.47585" lon="6.39345">
        <ele>159</ele>
        <time>2022-04-08T12:16:05Z</time>
      </trkpt>
      <trkpt lat="43.47584" lon="6.39344">
        <ele>159</ele>
        <time>2022-04-08T12:16:06Z</time>
      </trkpt>
      <trkpt lat="43.47583" lon="6.39343">
        <ele>159</ele>
        <time>2022-04-08T12:16:07Z</time>
      </trkpt>
      <trkpt lat="43.47582" lon="6.39343">
        <ele>159</ele>
        <time>2022-04-08T12:16:08Z</time>
      </trkpt>
      <trkpt lat="43.4758" lon="6.39343">
        <ele>159</ele>
        <time>2022-04-08T12:16:09Z</time>
      </trkpt>
      <trkpt lat="43.47579" lon="6.39342">
        <ele>159</ele>
        <time>2022-04-08T12:16:10Z</time>
      </trkpt>
      <trkpt lat="43.47578" lon="6.39342">
        <ele>159</ele>
        <time>2022-04-08T12:16:11Z</time>
      </trkpt>
      <trkpt lat="43.47577" lon="6.39342">
        <ele>159</ele>
        <time>2022-04-08T12:16:12Z</time>
      </trkpt>
      <trkpt lat="43.47576" lon="6.39341">
        <ele>159</ele>
        <time>2022-04-08T12:16:13Z</time>
      </trkpt>
      <trkpt lat="43.47575" lon="6.39341">
        <ele>159</ele>
        <time>2022-04-08T12:16:14Z</time>
      </trkpt>
      <trkpt lat="43.47574" lon="6.39341">
        <ele>159</ele>
        <time>2022-04-08T12:16:15Z</time>
      </trkpt>
      <trkpt lat="43.47573" lon="6.39341">
        <ele>159</ele>
        <time>2022-04-08T12:16:16Z</time>
      </trkpt>
      <trkpt lat="43.47572" lon="6.3934">
        <ele>159</ele>
        <time>2022-04-08T12:16:17Z</time>
      </trkpt>
      <trkpt lat="43.47571" lon="6.3934">
        <ele>159</ele>
        <time>2022-04-08T12:16:18Z</time>
      </trkpt>
      <trkpt lat="43.4757" lon="6.39339">
        <ele>159</ele>
        <time>2022-04-08T12:16:19Z</time>
      </trkpt>
      <trkpt lat="43.47569" lon="6.39339">
        <ele>159</ele>
        <time>2022-04-08T12:16:20Z</time>
      </trkpt>
      <trkpt lat="43.47568" lon="6.39338">
        <ele>158</ele>
        <time>2022-04-08T12:16:21Z</time>
      </trkpt>
      <trkpt lat="43.47567" lon="6.39338">
        <ele>158</ele>
        <time>2022-04-08T12:16:22Z</time>
      </trkpt>
      <trkpt lat="43.47566" lon="6.39337">
        <ele>157</ele>
        <time>2022-04-08T12:16:23Z</time>
      </trkpt>
      <trkpt lat="43.47564" lon="6.39336">
        <ele>157</ele>
        <time>2022-04-08T12:16:24Z</time>
      </trkpt>
      <trkpt lat="43.47563" lon="6.39336">
        <ele>157</ele>
        <time>2022-04-08T12:16:25Z</time>
      </trkpt>
      <trkpt lat="43.47562" lon="6.39335">
        <ele>157</ele>
        <time>2022-04-08T12:16:26Z</time>
      </trkpt>
      <trkpt lat="43.47561" lon="6.39334">
        <ele>157</ele>
        <time>2022-04-08T12:16:27Z</time>
      </trkpt>
      <trkpt lat="43.4756" lon="6.39333">
        <ele>157</ele>
        <time>2022-04-08T12:16:28Z</time>
      </trkpt>
      <trkpt lat="43.4756" lon="6.39333">
        <ele>157</ele>
        <time>2022-04-08T12:16:29Z</time>
      </trkpt>
      <trkpt lat="43.47559" lon="6.39332">
        <ele>156</ele>
        <time>2022-04-08T12:16:30Z</time>
      </trkpt>
      <trkpt lat="43.47558" lon="6.39332">
        <ele>156</ele>
        <time>2022-04-08T12:16:31Z</time>
      </trkpt>
      <trkpt lat="43.47557" lon="6.39331">
        <ele>156</ele>
        <time>2022-04-08T12:16:32Z</time>
      </trkpt>
      <trkpt lat="43.47556" lon="6.3933">
        <ele>156</ele>
        <time>2022-04-08T12:16:33Z</time>
      </trkpt>
      <trkpt lat="43.47555" lon="6.3933">
        <ele>156</ele>
        <time>2022-04-08T12:16:34Z</time>
      </trkpt>
      <trkpt lat="43.47554" lon="6.39329">
        <ele>156</ele>
        <time>2022-04-08T12:16:35Z</time>
      </trkpt>
      <trkpt lat="43.47553" lon="6.39329">
        <ele>156</ele>
        <time>2022-04-08T12:16:36Z</time>
      </trkpt>
      <trkpt lat="43.47553" lon="6.39328">
        <ele>156</ele>
        <time>2022-04-08T12:16:37Z</time>
      </trkpt>
      <trkpt lat="43.47552" lon="6.39327">
        <ele>156</ele>
        <time>2022-04-08T12:16:38Z</time>
      </trkpt>
      <trkpt lat="43.47551" lon="6.39327">
        <ele>156</ele>
        <time>2022-04-08T12:16:39Z</time>
      </trkpt>
      <trkpt lat="43.4755" lon="6.39326">
        <ele>156</ele>
        <time>2022-04-08T12:16:40Z</time>
      </trkpt>
      <trkpt lat="43.47549" lon="6.39326">
        <ele>156</ele>
        <time>2022-04-08T12:16:41Z</time>
      </trkpt>
      <trkpt lat="43.47548" lon="6.39325">
        <ele>156</ele>
        <time>2022-04-08T12:16:42Z</time>
      </trkpt>
      <trkpt lat="43.47547" lon="6.39324">
        <ele>156</ele>
        <time>2022-04-08T12:16:43Z</time>
      </trkpt>
      <trkpt lat="43.47546" lon="6.39324">
        <ele>156</ele>
        <time>2022-04-08T12:16:44Z</time>
      </trkpt>
      <trkpt lat="43.47546" lon="6.39323">
        <ele>156</ele>
        <time>2022-04-08T12:16:45Z</time>
      </trkpt>
      <trkpt lat="43.47545" lon="6.39322">
        <ele>156</ele>
        <time>2022-04-08T12:16:46Z</time>
      </trkpt>
      <trkpt lat="43.47544" lon="6.39322">
        <ele>156</ele>
        <time>2022-04-08T12:16:47Z</time>
      </trkpt>
      <trkpt lat="43.47543" lon="6.39321">
        <ele>156</ele>
        <time>2022-04-08T12:16:48Z</time>
      </trkpt>
      <trkpt lat="43.47543" lon="6.3932">
        <ele>156</ele>
        <time>2022-04-08T12:16:49Z</time>
      </trkpt>
      <trkpt lat="43.47542" lon="6.3932">
        <ele>156</ele>
        <time>2022-04-08T12:16:50Z</time>
      </trkpt>
      <trkpt lat="43.47541" lon="6.39319">
        <ele>156</ele>
        <time>2022-04-08T12:16:51Z</time>
      </trkpt>
      <trkpt lat="43.4754" lon="6.39319">
        <ele>156</ele>
        <time>2022-04-08T12:16:52Z</time>
      </trkpt>
      <trkpt lat="43.47539" lon="6.39318">
        <ele>156</ele>
        <time>2022-04-08T12:16:53Z</time>
      </trkpt>
      <trkpt lat="43.47538" lon="6.39317">
        <ele>156</ele>
        <time>2022-04-08T12:16:54Z</time>
      </trkpt>
      <trkpt lat="43.47538" lon="6.39317">
        <ele>156</ele>
        <time>2022-04-08T12:16:55Z</time>
      </trkpt>
      <trkpt lat="43.47537" lon="6.39316">
        <ele>156</ele>
        <time>2022-04-08T12:16:56Z</time>
      </trkpt>
      <trkpt lat="43.47536" lon="6.39315">
        <ele>156</ele>
        <time>2022-04-08T12:16:57Z</time>
      </trkpt>
      <trkpt lat="43.47535" lon="6.39314">
        <ele>157</ele>
        <time>2022-04-08T12:16:58Z</time>
      </trkpt>
      <trkpt lat="43.47534" lon="6.39314">
        <ele>157</ele>
        <time>2022-04-08T12:16:59Z</time>
      </trkpt>
      <trkpt lat="43.47533" lon="6.39313">
        <ele>157</ele>
        <time>2022-04-08T12:17:00Z</time>
      </trkpt>
      <trkpt lat="43.47533" lon="6.39313">
        <ele>157</ele>
        <time>2022-04-08T12:17:01Z</time>
      </trkpt>
      <trkpt lat="43.47532" lon="6.39312">
        <ele>157</ele>
        <time>2022-04-08T12:17:02Z</time>
      </trkpt>
      <trkpt lat="43.47531" lon="6.39312">
        <ele>157</ele>
        <time>2022-04-08T12:17:03Z</time>
      </trkpt>
      <trkpt lat="43.4753" lon="6.39311">
        <ele>157</ele>
        <time>2022-04-08T12:17:04Z</time>
      </trkpt>
      <trkpt lat="43.47529" lon="6.39311">
        <ele>158</ele>
        <time>2022-04-08T12:17:05Z</time>
      </trkpt>
      <trkpt lat="43.47528" lon="6.3931">
        <ele>158</ele>
        <time>2022-04-08T12:17:06Z</time>
      </trkpt>
      <trkpt lat="43.47527" lon="6.3931">
        <ele>158</ele>
        <time>2022-04-08T12:17:07Z</time>
      </trkpt>
      <trkpt lat="43.47526" lon="6.39309">
        <ele>158</ele>
        <time>2022-04-08T12:17:08Z</time>
      </trkpt>
      <trkpt lat="43.47526" lon="6.39309">
        <ele>158</ele>
        <time>2022-04-08T12:17:09Z</time>
      </trkpt>
      <trkpt lat="43.47525" lon="6.39308">
        <ele>158</ele>
        <time>2022-04-08T12:17:10Z</time>
      </trkpt>
      <trkpt lat="43.47524" lon="6.39308">
        <ele>158</ele>
        <time>2022-04-08T12:17:11Z</time>
      </trkpt>
      <trkpt lat="43.47523" lon="6.39308">
        <ele>158</ele>
        <time>2022-04-08T12:17:12Z</time>
      </trkpt>
      <trkpt lat="43.47522" lon="6.39308">
        <ele>158</ele>
        <time>2022-04-08T12:17:13Z</time>
      </trkpt>
      <trkpt lat="43.47521" lon="6.39308">
        <ele>158</ele>
        <time>2022-04-08T12:17:14Z</time>
      </trkpt>
      <trkpt lat="43.4752" lon="6.39308">
        <ele>158</ele>
        <time>2022-04-08T12:17:15Z</time>
      </trkpt>
      <trkpt lat="43.47519" lon="6.39307">
        <ele>158</ele>
        <time>2022-04-08T12:17:16Z</time>
      </trkpt>
      <trkpt lat="43.47518" lon="6.39307">
        <ele>158</ele>
        <time>2022-04-08T12:17:17Z</time>
      </trkpt>
      <trkpt lat="43.47517" lon="6.39307">
        <ele>158</ele>
        <time>2022-04-08T12:17:18Z</time>
      </trkpt>
      <trkpt lat="43.47517" lon="6.39307">
        <ele>159</ele>
        <time>2022-04-08T12:17:19Z</time>
      </trkpt>
      <trkpt lat="43.47516" lon="6.39308">
        <ele>159</ele>
        <time>2022-04-08T12:17:20Z</time>
      </trkpt>
      <trkpt lat="43.47515" lon="6.39308">
        <ele>160</ele>
        <time>2022-04-08T12:17:21Z</time>
      </trkpt>
      <trkpt lat="43.47514" lon="6.39309">
        <ele>160</ele>
        <time>2022-04-08T12:17:22Z</time>
      </trkpt>
      <trkpt lat="43.47513" lon="6.39309">
        <ele>161</ele>
        <time>2022-04-08T12:17:23Z</time>
      </trkpt>
      <trkpt lat="43.47512" lon="6.3931">
        <ele>161</ele>
        <time>2022-04-08T12:17:24Z</time>
      </trkpt>
      <trkpt lat="43.47511" lon="6.39311">
        <ele>161</ele>
        <time>2022-04-08T12:17:25Z</time>
      </trkpt>
      <trkpt lat="43.47511" lon="6.39312">
        <ele>162</ele>
        <time>2022-04-08T12:17:26Z</time>
      </trkpt>
      <trkpt lat="43.4751" lon="6.39312">
        <ele>162</ele>
        <time>2022-04-08T12:17:27Z</time>
      </trkpt>
      <trkpt lat="43.47509" lon="6.39313">
        <ele>162</ele>
        <time>2022-04-08T12:17:28Z</time>
      </trkpt>
      <trkpt lat="43.47508" lon="6.39315">
        <ele>162</ele>
        <time>2022-04-08T12:17:29Z</time>
      </trkpt>
      <trkpt lat="43.47507" lon="6.39316">
        <ele>162</ele>
        <time>2022-04-08T12:17:30Z</time>
      </trkpt>
      <trkpt lat="43.47506" lon="6.39317">
        <ele>162</ele>
        <time>2022-04-08T12:17:31Z</time>
      </trkpt>
      <trkpt lat="43.47505" lon="6.39318">
        <ele>162</ele>
        <time>2022-04-08T12:17:32Z</time>
      </trkpt>
      <trkpt lat="43.47504" lon="6.39319">
        <ele>163</ele>
        <time>2022-04-08T12:17:33Z</time>
      </trkpt>
      <trkpt lat="43.47503" lon="6.3932">
        <ele>163</ele>
        <time>2022-04-08T12:17:34Z</time>
      </trkpt>
      <trkpt lat="43.47502" lon="6.39321">
        <ele>163</ele>
        <time>2022-04-08T12:17:35Z</time>
      </trkpt>
      <trkpt lat="43.47501" lon="6.39322">
        <ele>163</ele>
        <time>2022-04-08T12:17:36Z</time>
      </trkpt>
      <trkpt lat="43.475" lon="6.39324">
        <ele>163</ele>
        <time>2022-04-08T12:17:37Z</time>
      </trkpt>
      <trkpt lat="43.47499" lon="6.39325">
        <ele>163</ele>
        <time>2022-04-08T12:17:38Z</time>
      </trkpt>
      <trkpt lat="43.47498" lon="6.39326">
        <ele>163</ele>
        <time>2022-04-08T12:17:39Z</time>
      </trkpt>
      <trkpt lat="43.47497" lon="6.39327">
        <ele>163</ele>
        <time>2022-04-08T12:17:40Z</time>
      </trkpt>
      <trkpt lat="43.47496" lon="6.39328">
        <ele>164</ele>
        <time>2022-04-08T12:17:41Z</time>
      </trkpt>
      <trkpt lat="43.47495" lon="6.39329">
        <ele>164</ele>
        <time>2022-04-08T12:17:42Z</time>
      </trkpt>
      <trkpt lat="43.47494" lon="6.39331">
        <ele>164</ele>
        <time>2022-04-08T12:17:43Z</time>
      </trkpt>
      <trkpt lat="43.47493" lon="6.39332">
        <ele>164</ele>
        <time>2022-04-08T12:17:44Z</time>
      </trkpt>
      <trkpt lat="43.47492" lon="6.39333">
        <ele>164</ele>
        <time>2022-04-08T12:17:45Z</time>
      </trkpt>
      <trkpt lat="43.47492" lon="6.39334">
        <ele>165</ele>
        <time>2022-04-08T12:17:46Z</time>
      </trkpt>
      <trkpt lat="43.47491" lon="6.39335">
        <ele>165</ele>
        <time>2022-04-08T12:17:47Z</time>
      </trkpt>
      <trkpt lat="43.4749" lon="6.39336">
        <ele>165</ele>
        <time>2022-04-08T12:17:48Z</time>
      </trkpt>
      <trkpt lat="43.4749" lon="6.39337">
        <ele>165</ele>
        <time>2022-04-08T12:17:49Z</time>
      </trkpt>
      <trkpt lat="43.47489" lon="6.39338">
        <ele>165</ele>
        <time>2022-04-08T12:17:50Z</time>
      </trkpt>
      <trkpt lat="43.47488" lon="6.3934">
        <ele>165</ele>
        <time>2022-04-08T12:17:51Z</time>
      </trkpt>
      <trkpt lat="43.47487" lon="6.39341">
        <ele>165</ele>
        <time>2022-04-08T12:17:52Z</time>
      </trkpt>
      <trkpt lat="43.47487" lon="6.39342">
        <ele>165</ele>
        <time>2022-04-08T12:17:53Z</time>
      </trkpt>
      <trkpt lat="43.47486" lon="6.39343">
        <ele>165</ele>
        <time>2022-04-08T12:17:54Z</time>
      </trkpt>
      <trkpt lat="43.47485" lon="6.39344">
        <ele>165</ele>
        <time>2022-04-08T12:17:55Z</time>
      </trkpt>
      <trkpt lat="43.47485" lon="6.39346">
        <ele>165</ele>
        <time>2022-04-08T12:17:56Z</time>
      </trkpt>
      <trkpt lat="43.47484" lon="6.39347">
        <ele>165</ele>
        <time>2022-04-08T12:17:57Z</time>
      </trkpt>
      <trkpt lat="43.47483" lon="6.39348">
        <ele>165</ele>
        <time>2022-04-08T12:17:58Z</time>
      </trkpt>
      <trkpt lat="43.47483" lon="6.3935">
        <ele>165</ele>
        <time>2022-04-08T12:17:59Z</time>
      </trkpt>
      <trkpt lat="43.47482" lon="6.39351">
        <ele>165</ele>
        <time>2022-04-08T12:18:00Z</time>
      </trkpt>
      <trkpt lat="43.47482" lon="6.39352">
        <ele>165</ele>
        <time>2022-04-08T12:18:01Z</time>
      </trkpt>
      <trkpt lat="43.47481" lon="6.39353">
        <ele>165</ele>
        <time>2022-04-08T12:18:02Z</time>
      </trkpt>
      <trkpt lat="43.4748" lon="6.39354">
        <ele>166</ele>
        <time>2022-04-08T12:18:03Z</time>
      </trkpt>
      <trkpt lat="43.4748" lon="6.39356">
        <ele>166</ele>
        <time>2022-04-08T12:18:04Z</time>
      </trkpt>
      <trkpt lat="43.47479" lon="6.39357">
        <ele>166</ele>
        <time>2022-04-08T12:18:05Z</time>
      </trkpt>
      <trkpt lat="43.47478" lon="6.39358">
        <ele>166</ele>
        <time>2022-04-08T12:18:06Z</time>
      </trkpt>
      <trkpt lat="43.47477" lon="6.39359">
        <ele>166</ele>
        <time>2022-04-08T12:18:07Z</time>
      </trkpt>
      <trkpt lat="43.47477" lon="6.39361">
        <ele>166</ele>
        <time>2022-04-08T12:18:08Z</time>
      </trkpt>
      <trkpt lat="43.47476" lon="6.39362">
        <ele>166</ele>
        <time>2022-04-08T12:18:09Z</time>
      </trkpt>
      <trkpt lat="43.47476" lon="6.39363">
        <ele>166</ele>
        <time>2022-04-08T12:18:10Z</time>
      </trkpt>
      <trkpt lat="43.47475" lon="6.39364">
        <ele>166</ele>
        <time>2022-04-08T12:18:11Z</time>
      </trkpt>
      <trkpt lat="43.47474" lon="6.39365">
        <ele>167</ele>
        <time>2022-04-08T12:18:12Z</time>
      </trkpt>
      <trkpt lat="43.47474" lon="6.39367">
        <ele>167</ele>
        <time>2022-04-08T12:18:13Z</time>
      </trkpt>
      <trkpt lat="43.47473" lon="6.39368">
        <ele>168</ele>
        <time>2022-04-08T12:18:14Z</time>
      </trkpt>
      <trkpt lat="43.47472" lon="6.3937">
        <ele>168</ele>
        <time>2022-04-08T12:18:15Z</time>
      </trkpt>
      <trkpt lat="43.47472" lon="6.39371">
        <ele>168</ele>
        <time>2022-04-08T12:18:16Z</time>
      </trkpt>
      <trkpt lat="43.47471" lon="6.39372">
        <ele>168</ele>
        <time>2022-04-08T12:18:17Z</time>
      </trkpt>
      <trkpt lat="43.4747" lon="6.39373">
        <ele>168</ele>
        <time>2022-04-08T12:18:18Z</time>
      </trkpt>
      <trkpt lat="43.4747" lon="6.39374">
        <ele>168</ele>
        <time>2022-04-08T12:18:19Z</time>
      </trkpt>
      <trkpt lat="43.47469" lon="6.39376">
        <ele>168</ele>
        <time>2022-04-08T12:18:20Z</time>
      </trkpt>
      <trkpt lat="43.47469" lon="6.39377">
        <ele>168</ele>
        <time>2022-04-08T12:18:21Z</time>
      </trkpt>
      <trkpt lat="43.47468" lon="6.39379">
        <ele>168</ele>
        <time>2022-04-08T12:18:22Z</time>
      </trkpt>
      <trkpt lat="43.47467" lon="6.3938">
        <ele>168</ele>
        <time>2022-04-08T12:18:23Z</time>
      </trkpt>
      <trkpt lat="43.47467" lon="6.39381">
        <ele>168</ele>
        <time>2022-04-08T12:18:24Z</time>
      </trkpt>
      <trkpt lat="43.47466" lon="6.39383">
        <ele>168</ele>
        <time>2022-04-08T12:18:25Z</time>
      </trkpt>
      <trkpt lat="43.47465" lon="6.39384">
        <ele>168</ele>
        <time>2022-04-08T12:18:26Z</time>
      </trkpt>
      <trkpt lat="43.47465" lon="6.39385">
        <ele>168</ele>
        <time>2022-04-08T12:18:27Z</time>
      </trkpt>
      <trkpt lat="43.47464" lon="6.39386">
        <ele>168</ele>
        <time>2022-04-08T12:18:28Z</time>
      </trkpt>
      <trkpt lat="43.47464" lon="6.39387">
        <ele>168</ele>
        <time>2022-04-08T12:18:29Z</time>
      </trkpt>
      <trkpt lat="43.47463" lon="6.39388">
        <ele>168</ele>
        <time>2022-04-08T12:18:30Z</time>
      </trkpt>
      <trkpt lat="43.47462" lon="6.39389">
        <ele>168</ele>
        <time>2022-04-08T12:18:31Z</time>
      </trkpt>
      <trkpt lat="43.47462" lon="6.39391">
        <ele>167</ele>
        <time>2022-04-08T12:18:32Z</time>
      </trkpt>
      <trkpt lat="43.47461" lon="6.39392">
        <ele>167</ele>
        <time>2022-04-08T12:18:33Z</time>
      </trkpt>
      <trkpt lat="43.4746" lon="6.39393">
        <ele>167</ele>
        <time>2022-04-08T12:18:34Z</time>
      </trkpt>
      <trkpt lat="43.47459" lon="6.39394">
        <ele>167</ele>
        <time>2022-04-08T12:18:35Z</time>
      </trkpt>
      <trkpt lat="43.47458" lon="6.39395">
        <ele>167</ele>
        <time>2022-04-08T12:18:36Z</time>
      </trkpt>
      <trkpt lat="43.47457" lon="6.39396">
        <ele>167</ele>
        <time>2022-04-08T12:18:37Z</time>
      </trkpt>
      <trkpt lat="43.47457" lon="6.39397">
        <ele>166</ele>
        <time>2022-04-08T12:18:38Z</time>
      </trkpt>
      <trkpt lat="43.47456" lon="6.39398">
        <ele>165</ele>
        <time>2022-04-08T12:18:39Z</time>
      </trkpt>
      <trkpt lat="43.47455" lon="6.39399">
        <ele>165</ele>
        <time>2022-04-08T12:18:40Z</time>
      </trkpt>
      <trkpt lat="43.47454" lon="6.394">
        <ele>165</ele>
        <time>2022-04-08T12:18:41Z</time>
      </trkpt>
      <trkpt lat="43.47454" lon="6.39402">
        <ele>164</ele>
        <time>2022-04-08T12:18:42Z</time>
      </trkpt>
      <trkpt lat="43.47453" lon="6.39403">
        <ele>164</ele>
        <time>2022-04-08T12:18:43Z</time>
      </trkpt>
      <trkpt lat="43.47452" lon="6.39404">
        <ele>164</ele>
        <time>2022-04-08T12:18:44Z</time>
      </trkpt>
      <trkpt lat="43.47452" lon="6.39405">
        <ele>164</ele>
        <time>2022-04-08T12:18:45Z</time>
      </trkpt>
      <trkpt lat="43.47451" lon="6.39406">
        <ele>164</ele>
        <time>2022-04-08T12:18:46Z</time>
      </trkpt>
      <trkpt lat="43.4745" lon="6.39408">
        <ele>164</ele>
        <time>2022-04-08T12:18:47Z</time>
      </trkpt>
      <trkpt lat="43.4745" lon="6.39409">
        <ele>164</ele>
        <time>2022-04-08T12:18:48Z</time>
      </trkpt>
      <trkpt lat="43.47449" lon="6.39411">
        <ele>164</ele>
        <time>2022-04-08T12:18:49Z</time>
      </trkpt>
      <trkpt lat="43.47448" lon="6.39412">
        <ele>164</ele>
        <time>2022-04-08T12:18:50Z</time>
      </trkpt>
      <trkpt lat="43.47448" lon="6.39414">
        <ele>164</ele>
        <time>2022-04-08T12:18:51Z</time>
      </trkpt>
      <trkpt lat="43.47447" lon="6.39415">
        <ele>164</ele>
        <time>2022-04-08T12:18:52Z</time>
      </trkpt>
      <trkpt lat="43.47447" lon="6.39416">
        <ele>164</ele>
        <time>2022-04-08T12:18:53Z</time>
      </trkpt>
      <trkpt lat="43.47446" lon="6.39417">
        <ele>164</ele>
        <time>2022-04-08T12:18:54Z</time>
      </trkpt>
      <trkpt lat="43.47445" lon="6.39418">
        <ele>163</ele>
        <time>2022-04-08T12:18:55Z</time>
      </trkpt>
      <trkpt lat="43.47445" lon="6.3942">
        <ele>163</ele>
        <time>2022-04-08T12:18:56Z</time>
      </trkpt>
      <trkpt lat="43.47444" lon="6.39421">
        <ele>163</ele>
        <time>2022-04-08T12:18:57Z</time>
      </trkpt>
      <trkpt lat="43.47443" lon="6.39422">
        <ele>163</ele>
        <time>2022-04-08T12:18:58Z</time>
      </trkpt>
      <trkpt lat="43.47443" lon="6.39424">
        <ele>163</ele>
        <time>2022-04-08T12:18:59Z</time>
      </trkpt>
      <trkpt lat="43.47442" lon="6.39425">
        <ele>163</ele>
        <time>2022-04-08T12:19:00Z</time>
      </trkpt>
      <trkpt lat="43.47442" lon="6.39426">
        <ele>163</ele>
        <time>2022-04-08T12:19:01Z</time>
      </trkpt>
      <trkpt lat="43.47442" lon="6.39428">
        <ele>163</ele>
        <time>2022-04-08T12:19:02Z</time>
      </trkpt>
      <trkpt lat="43.47442" lon="6.39429">
        <ele>163</ele>
        <time>2022-04-08T12:19:03Z</time>
      </trkpt>
      <trkpt lat="43.47441" lon="6.3943">
        <ele>163</ele>
        <time>2022-04-08T12:19:04Z</time>
      </trkpt>
      <trkpt lat="43.47441" lon="6.39431">
        <ele>164</ele>
        <time>2022-04-08T12:19:04Z</time>
      </trkpt>
      <trkpt lat="43.47441" lon="6.39433">
        <ele>165</ele>
        <time>2022-04-08T12:19:05Z</time>
      </trkpt>
      <trkpt lat="43.47441" lon="6.39434">
        <ele>165</ele>
        <time>2022-04-08T12:19:06Z</time>
      </trkpt>
      <trkpt lat="43.4744" lon="6.39435">
        <ele>165</ele>
        <time>2022-04-08T12:19:07Z</time>
      </trkpt>
      <trkpt lat="43.4744" lon="6.39436">
        <ele>165</ele>
        <time>2022-04-08T12:19:08Z</time>
      </trkpt>
      <trkpt lat="43.47439" lon="6.39437">
        <ele>165</ele>
        <time>2022-04-08T12:19:09Z</time>
      </trkpt>
      <trkpt lat="43.47439" lon="6.39439">
        <ele>165</ele>
        <time>2022-04-08T12:19:10Z</time>
      </trkpt>
      <trkpt lat="43.47439" lon="6.39439">
        <ele>165</ele>
        <time>2022-04-08T12:19:11Z</time>
      </trkpt>
      <trkpt lat="43.47438" lon="6.39441">
        <ele>165</ele>
        <time>2022-04-08T12:19:12Z</time>
      </trkpt>
      <trkpt lat="43.47438" lon="6.39442">
        <ele>165</ele>
        <time>2022-04-08T12:19:13Z</time>
      </trkpt>
      <trkpt lat="43.47437" lon="6.39442">
        <ele>165</ele>
        <time>2022-04-08T12:19:14Z</time>
      </trkpt>
      <trkpt lat="43.47436" lon="6.39443">
        <ele>165</ele>
        <time>2022-04-08T12:19:15Z</time>
      </trkpt>
      <trkpt lat="43.47436" lon="6.39444">
        <ele>165</ele>
        <time>2022-04-08T12:19:16Z</time>
      </trkpt>
      <trkpt lat="43.47435" lon="6.39445">
        <ele>165</ele>
        <time>2022-04-08T12:19:17Z</time>
      </trkpt>
      <trkpt lat="43.47435" lon="6.39446">
        <ele>165</ele>
        <time>2022-04-08T12:19:18Z</time>
      </trkpt>
      <trkpt lat="43.47435" lon="6.39448">
        <ele>165</ele>
        <time>2022-04-08T12:19:19Z</time>
      </trkpt>
      <trkpt lat="43.47434" lon="6.39449">
        <ele>165</ele>
        <time>2022-04-08T12:19:20Z</time>
      </trkpt>
      <trkpt lat="43.47434" lon="6.3945">
        <ele>165</ele>
        <time>2022-04-08T12:19:21Z</time>
      </trkpt>
      <trkpt lat="43.47434" lon="6.39451">
        <ele>165</ele>
        <time>2022-04-08T12:19:22Z</time>
      </trkpt>
      <trkpt lat="43.47433" lon="6.39453">
        <ele>165</ele>
        <time>2022-04-08T12:19:23Z</time>
      </trkpt>
      <trkpt lat="43.47433" lon="6.39454">
        <ele>165</ele>
        <time>2022-04-08T12:19:24Z</time>
      </trkpt>
      <trkpt lat="43.47432" lon="6.39456">
        <ele>165</ele>
        <time>2022-04-08T12:19:25Z</time>
      </trkpt>
      <trkpt lat="43.47432" lon="6.39457">
        <ele>165</ele>
        <time>2022-04-08T12:19:26Z</time>
      </trkpt>
      <trkpt lat="43.47432" lon="6.39459">
        <ele>165</ele>
        <time>2022-04-08T12:19:27Z</time>
      </trkpt>
      <trkpt lat="43.47431" lon="6.3946">
        <ele>165</ele>
        <time>2022-04-08T12:19:28Z</time>
      </trkpt>
      <trkpt lat="43.47431" lon="6.39461">
        <ele>165</ele>
        <time>2022-04-08T12:19:29Z</time>
      </trkpt>
      <trkpt lat="43.4743" lon="6.39463">
        <ele>165</ele>
        <time>2022-04-08T12:19:30Z</time>
      </trkpt>
      <trkpt lat="43.4743" lon="6.39464">
        <ele>165</ele>
        <time>2022-04-08T12:19:31Z</time>
      </trkpt>
      <trkpt lat="43.47429" lon="6.39466">
        <ele>165</ele>
        <time>2022-04-08T12:19:32Z</time>
      </trkpt>
      <trkpt lat="43.47429" lon="6.39468">
        <ele>165</ele>
        <time>2022-04-08T12:19:33Z</time>
      </trkpt>
      <trkpt lat="43.47428" lon="6.39469">
        <ele>165</ele>
        <time>2022-04-08T12:19:34Z</time>
      </trkpt>
      <trkpt lat="43.47428" lon="6.39471">
        <ele>164</ele>
        <time>2022-04-08T12:19:35Z</time>
      </trkpt>
      <trkpt lat="43.47427" lon="6.39473">
        <ele>164</ele>
        <time>2022-04-08T12:19:36Z</time>
      </trkpt>
      <trkpt lat="43.47427" lon="6.39474">
        <ele>164</ele>
        <time>2022-04-08T12:19:37Z</time>
      </trkpt>
      <trkpt lat="43.47426" lon="6.39475">
        <ele>164</ele>
        <time>2022-04-08T12:19:38Z</time>
      </trkpt>
      <trkpt lat="43.47426" lon="6.39477">
        <ele>164</ele>
        <time>2022-04-08T12:19:39Z</time>
      </trkpt>
      <trkpt lat="43.47425" lon="6.39478">
        <ele>164</ele>
        <time>2022-04-08T12:19:40Z</time>
      </trkpt>
      <trkpt lat="43.47425" lon="6.3948">
        <ele>164</ele>
        <time>2022-04-08T12:19:41Z</time>
      </trkpt>
      <trkpt lat="43.47424" lon="6.39482">
        <ele>164</ele>
        <time>2022-04-08T12:19:42Z</time>
      </trkpt>
      <trkpt lat="43.47424" lon="6.39483">
        <ele>164</ele>
        <time>2022-04-08T12:19:43Z</time>
      </trkpt>
      <trkpt lat="43.47423" lon="6.39484">
        <ele>164</ele>
        <time>2022-04-08T12:19:44Z</time>
      </trkpt>
      <trkpt lat="43.47423" lon="6.39485">
        <ele>164</ele>
        <time>2022-04-08T12:19:45Z</time>
      </trkpt>
      <trkpt lat="43.47423" lon="6.39487">
        <ele>163</ele>
        <time>2022-04-08T12:19:46Z</time>
      </trkpt>
      <trkpt lat="43.47422" lon="6.39488">
        <ele>163</ele>
        <time>2022-04-08T12:19:47Z</time>
      </trkpt>
      <trkpt lat="43.47422" lon="6.3949">
        <ele>163</ele>
        <time>2022-04-08T12:19:48Z</time>
      </trkpt>
      <trkpt lat="43.47421" lon="6.39492">
        <ele>164</ele>
        <time>2022-04-08T12:19:49Z</time>
      </trkpt>
      <trkpt lat="43.47421" lon="6.39493">
        <ele>164</ele>
        <time>2022-04-08T12:19:50Z</time>
      </trkpt>
      <trkpt lat="43.4742" lon="6.39495">
        <ele>164</ele>
        <time>2022-04-08T12:19:51Z</time>
      </trkpt>
      <trkpt lat="43.4742" lon="6.39496">
        <ele>164</ele>
        <time>2022-04-08T12:19:52Z</time>
      </trkpt>
      <trkpt lat="43.47419" lon="6.39497">
        <ele>164</ele>
        <time>2022-04-08T12:19:53Z</time>
      </trkpt>
      <trkpt lat="43.47419" lon="6.39498">
        <ele>165</ele>
        <time>2022-04-08T12:19:54Z</time>
      </trkpt>
      <trkpt lat="43.47418" lon="6.395">
        <ele>165</ele>
        <time>2022-04-08T12:19:55Z</time>
      </trkpt>
      <trkpt lat="43.47418" lon="6.39501">
        <ele>165</ele>
        <time>2022-04-08T12:19:56Z</time>
      </trkpt>
      <trkpt lat="43.47417" lon="6.39502">
        <ele>165</ele>
        <time>2022-04-08T12:19:57Z</time>
      </trkpt>
      <trkpt lat="43.47416" lon="6.39504">
        <ele>165</ele>
        <time>2022-04-08T12:19:58Z</time>
      </trkpt>
      <trkpt lat="43.47415" lon="6.39505">
        <ele>166</ele>
        <time>2022-04-08T12:19:59Z</time>
      </trkpt>
      <trkpt lat="43.47415" lon="6.39506">
        <ele>166</ele>
        <time>2022-04-08T12:20:00Z</time>
      </trkpt>
      <trkpt lat="43.47414" lon="6.39507">
        <ele>167</ele>
        <time>2022-04-08T12:20:01Z</time>
      </trkpt>
      <trkpt lat="43.47414" lon="6.39508">
        <ele>167</ele>
        <time>2022-04-08T12:20:02Z</time>
      </trkpt>
      <trkpt lat="43.47413" lon="6.3951">
        <ele>167</ele>
        <time>2022-04-08T12:20:03Z</time>
      </trkpt>
      <trkpt lat="43.47412" lon="6.39511">
        <ele>167</ele>
        <time>2022-04-08T12:20:04Z</time>
      </trkpt>
      <trkpt lat="43.47412" lon="6.39512">
        <ele>167</ele>
        <time>2022-04-08T12:20:05Z</time>
      </trkpt>
      <trkpt lat="43.47411" lon="6.39513">
        <ele>167</ele>
        <time>2022-04-08T12:20:06Z</time>
      </trkpt>
      <trkpt lat="43.4741" lon="6.39515">
        <ele>167</ele>
        <time>2022-04-08T12:20:07Z</time>
      </trkpt>
      <trkpt lat="43.4741" lon="6.39516">
        <ele>167</ele>
        <time>2022-04-08T12:20:08Z</time>
      </trkpt>
      <trkpt lat="43.47409" lon="6.39517">
        <ele>167</ele>
        <time>2022-04-08T12:20:09Z</time>
      </trkpt>
      <trkpt lat="43.47409" lon="6.39518">
        <ele>167</ele>
        <time>2022-04-08T12:20:10Z</time>
      </trkpt>
      <trkpt lat="43.47408" lon="6.39519">
        <ele>167</ele>
        <time>2022-04-08T12:20:11Z</time>
      </trkpt>
      <trkpt lat="43.47407" lon="6.39521">
        <ele>167</ele>
        <time>2022-04-08T12:20:12Z</time>
      </trkpt>
      <trkpt lat="43.47407" lon="6.39522">
        <ele>167</ele>
        <time>2022-04-08T12:20:13Z</time>
      </trkpt>
      <trkpt lat="43.47406" lon="6.39523">
        <ele>166</ele>
        <time>2022-04-08T12:20:14Z</time>
      </trkpt>
      <trkpt lat="43.47406" lon="6.39524">
        <ele>166</ele>
        <time>2022-04-08T12:20:15Z</time>
      </trkpt>
      <trkpt lat="43.47405" lon="6.39525">
        <ele>166</ele>
        <time>2022-04-08T12:20:16Z</time>
      </trkpt>
      <trkpt lat="43.47405" lon="6.39527">
        <ele>166</ele>
        <time>2022-04-08T12:20:17Z</time>
      </trkpt>
      <trkpt lat="43.47404" lon="6.39528">
        <ele>166</ele>
        <time>2022-04-08T12:20:18Z</time>
      </trkpt>
      <trkpt lat="43.47404" lon="6.39529">
        <ele>167</ele>
        <time>2022-04-08T12:20:19Z</time>
      </trkpt>
      <trkpt lat="43.47403" lon="6.3953">
        <ele>167</ele>
        <time>2022-04-08T12:20:20Z</time>
      </trkpt>
      <trkpt lat="43.47403" lon="6.39531">
        <ele>167</ele>
        <time>2022-04-08T12:20:21Z</time>
      </trkpt>
      <trkpt lat="43.47403" lon="6.39532">
        <ele>167</ele>
        <time>2022-04-08T12:20:22Z</time>
      </trkpt>
      <trkpt lat="43.47402" lon="6.39534">
        <ele>167</ele>
        <time>2022-04-08T12:20:23Z</time>
      </trkpt>
      <trkpt lat="43.47402" lon="6.39535">
        <ele>168</ele>
        <time>2022-04-08T12:20:24Z</time>
      </trkpt>
      <trkpt lat="43.47401" lon="6.39536">
        <ele>168</ele>
        <time>2022-04-08T12:20:25Z</time>
      </trkpt>
      <trkpt lat="43.47401" lon="6.39537">
        <ele>168</ele>
        <time>2022-04-08T12:20:26Z</time>
      </trkpt>
      <trkpt lat="43.47401" lon="6.39538">
        <ele>168</ele>
        <time>2022-04-08T12:20:27Z</time>
      </trkpt>
      <trkpt lat="43.474" lon="6.39539">
        <ele>168</ele>
        <time>2022-04-08T12:20:28Z</time>
      </trkpt>
      <trkpt lat="43.474" lon="6.39541">
        <ele>168</ele>
        <time>2022-04-08T12:20:29Z</time>
      </trkpt>
      <trkpt lat="43.474" lon="6.39542">
        <ele>168</ele>
        <time>2022-04-08T12:20:30Z</time>
      </trkpt>
      <trkpt lat="43.474" lon="6.39544">
        <ele>169</ele>
        <time>2022-04-08T12:20:31Z</time>
      </trkpt>
      <trkpt lat="43.47399" lon="6.39545">
        <ele>169</ele>
        <time>2022-04-08T12:20:32Z</time>
      </trkpt>
      <trkpt lat="43.47399" lon="6.39546">
        <ele>169</ele>
        <time>2022-04-08T12:20:33Z</time>
      </trkpt>
      <trkpt lat="43.47399" lon="6.39548">
        <ele>169</ele>
        <time>2022-04-08T12:20:34Z</time>
      </trkpt>
      <trkpt lat="43.47399" lon="6.39549">
        <ele>169</ele>
        <time>2022-04-08T12:20:35Z</time>
      </trkpt>
      <trkpt lat="43.47398" lon="6.39551">
        <ele>169</ele>
        <time>2022-04-08T12:20:36Z</time>
      </trkpt>
      <trkpt lat="43.47398" lon="6.39553">
        <ele>169</ele>
        <time>2022-04-08T12:20:37Z</time>
      </trkpt>
      <trkpt lat="43.47397" lon="6.39554">
        <ele>169</ele>
        <time>2022-04-08T12:20:38Z</time>
      </trkpt>
      <trkpt lat="43.47397" lon="6.39555">
        <ele>169</ele>
        <time>2022-04-08T12:20:39Z</time>
      </trkpt>
      <trkpt lat="43.47397" lon="6.39557">
        <ele>168</ele>
        <time>2022-04-08T12:20:40Z</time>
      </trkpt>
      <trkpt lat="43.47396" lon="6.39558">
        <ele>168</ele>
        <time>2022-04-08T12:20:41Z</time>
      </trkpt>
      <trkpt lat="43.47396" lon="6.3956">
        <ele>168</ele>
        <time>2022-04-08T12:20:42Z</time>
      </trkpt>
      <trkpt lat="43.47396" lon="6.39561">
        <ele>168</ele>
        <time>2022-04-08T12:20:43Z</time>
      </trkpt>
      <trkpt lat="43.47396" lon="6.39563">
        <ele>168</ele>
        <time>2022-04-08T12:20:44Z</time>
      </trkpt>
      <trkpt lat="43.47395" lon="6.39564">
        <ele>168</ele>
        <time>2022-04-08T12:20:45Z</time>
      </trkpt>
      <trkpt lat="43.47395" lon="6.39565">
        <ele>168</ele>
        <time>2022-04-08T12:20:46Z</time>
      </trkpt>
      <trkpt lat="43.47395" lon="6.39567">
        <ele>168</ele>
        <time>2022-04-08T12:20:47Z</time>
      </trkpt>
      <trkpt lat="43.47395" lon="6.39568">
        <ele>168</ele>
        <time>2022-04-08T12:20:48Z</time>
      </trkpt>
      <trkpt lat="43.47394" lon="6.39569">
        <ele>168</ele>
        <time>2022-04-08T12:20:49Z</time>
      </trkpt>
      <trkpt lat="43.47394" lon="6.3957">
        <ele>168</ele>
        <time>2022-04-08T12:20:50Z</time>
      </trkpt>
      <trkpt lat="43.47394" lon="6.39571">
        <ele>168</ele>
        <time>2022-04-08T12:20:51Z</time>
      </trkpt>
      <trkpt lat="43.47393" lon="6.39573">
        <ele>168</ele>
        <time>2022-04-08T12:20:52Z</time>
      </trkpt>
      <trkpt lat="43.47393" lon="6.39574">
        <ele>168</ele>
        <time>2022-04-08T12:20:53Z</time>
      </trkpt>
      <trkpt lat="43.47393" lon="6.39575">
        <ele>169</ele>
        <time>2022-04-08T12:20:54Z</time>
      </trkpt>
      <trkpt lat="43.47392" lon="6.39577">
        <ele>169</ele>
        <time>2022-04-08T12:20:55Z</time>
      </trkpt>
      <trkpt lat="43.47392" lon="6.39578">
        <ele>169</ele>
        <time>2022-04-08T12:20:56Z</time>
      </trkpt>
      <trkpt lat="43.47391" lon="6.3958">
        <ele>169</ele>
        <time>2022-04-08T12:20:57Z</time>
      </trkpt>
      <trkpt lat="43.47391" lon="6.39581">
        <ele>169</ele>
        <time>2022-04-08T12:20:58Z</time>
      </trkpt>
      <trkpt lat="43.47391" lon="6.39582">
        <ele>169</ele>
        <time>2022-04-08T12:20:59Z</time>
      </trkpt>
      <trkpt lat="43.4739" lon="6.39583">
        <ele>169</ele>
        <time>2022-04-08T12:21:00Z</time>
      </trkpt>
      <trkpt lat="43.4739" lon="6.39585">
        <ele>170</ele>
        <time>2022-04-08T12:21:01Z</time>
      </trkpt>
      <trkpt lat="43.4739" lon="6.39586">
        <ele>170</ele>
        <time>2022-04-08T12:21:02Z</time>
      </trkpt>
      <trkpt lat="43.47389" lon="6.39588">
        <ele>170</ele>
        <time>2022-04-08T12:21:03Z</time>
      </trkpt>
      <trkpt lat="43.47389" lon="6.39589">
        <ele>170</ele>
        <time>2022-04-08T12:21:04Z</time>
      </trkpt>
      <trkpt lat="43.47389" lon="6.3959">
        <ele>170</ele>
        <time>2022-04-08T12:21:05Z</time>
      </trkpt>
      <trkpt lat="43.47388" lon="6.39592">
        <ele>170</ele>
        <time>2022-04-08T12:21:06Z</time>
      </trkpt>
      <trkpt lat="43.47388" lon="6.39594">
        <ele>170</ele>
        <time>2022-04-08T12:21:07Z</time>
      </trkpt>
      <trkpt lat="43.47388" lon="6.39595">
        <ele>171</ele>
        <time>2022-04-08T12:21:08Z</time>
      </trkpt>
      <trkpt lat="43.47387" lon="6.39597">
        <ele>171</ele>
        <time>2022-04-08T12:21:09Z</time>
      </trkpt>
      <trkpt lat="43.47387" lon="6.39598">
        <ele>171</ele>
        <time>2022-04-08T12:21:10Z</time>
      </trkpt>
      <trkpt lat="43.47387" lon="6.396">
        <ele>171</ele>
        <time>2022-04-08T12:21:11Z</time>
      </trkpt>
      <trkpt lat="43.47387" lon="6.39601">
        <ele>171</ele>
        <time>2022-04-08T12:21:12Z</time>
      </trkpt>
      <trkpt lat="43.47386" lon="6.39603">
        <ele>171</ele>
        <time>2022-04-08T12:21:13Z</time>
      </trkpt>
      <trkpt lat="43.47386" lon="6.39604">
        <ele>171</ele>
        <time>2022-04-08T12:21:14Z</time>
      </trkpt>
      <trkpt lat="43.47386" lon="6.39606">
        <ele>171</ele>
        <time>2022-04-08T12:21:15Z</time>
      </trkpt>
      <trkpt lat="43.47385" lon="6.39607">
        <ele>171</ele>
        <time>2022-04-08T12:21:16Z</time>
      </trkpt>
      <trkpt lat="43.47385" lon="6.39608">
        <ele>171</ele>
        <time>2022-04-08T12:21:17Z</time>
      </trkpt>
      <trkpt lat="43.47385" lon="6.3961">
        <ele>170</ele>
        <time>2022-04-08T12:21:18Z</time>
      </trkpt>
      <trkpt lat="43.47384" lon="6.39611">
        <ele>170</ele>
        <time>2022-04-08T12:21:19Z</time>
      </trkpt>
      <trkpt lat="43.47384" lon="6.39613">
        <ele>170</ele>
        <time>2022-04-08T12:21:20Z</time>
      </trkpt>
      <trkpt lat="43.47384" lon="6.39614">
        <ele>170</ele>
        <time>2022-04-08T12:21:21Z</time>
      </trkpt>
      <trkpt lat="43.47383" lon="6.39616">
        <ele>170</ele>
        <time>2022-04-08T12:21:22Z</time>
      </trkpt>
      <trkpt lat="43.47383" lon="6.39617">
        <ele>170</ele>
        <time>2022-04-08T12:21:23Z</time>
      </trkpt>
      <trkpt lat="43.47382" lon="6.39619">
        <ele>170</ele>
        <time>2022-04-08T12:21:24Z</time>
      </trkpt>
      <trkpt lat="43.47382" lon="6.3962">
        <ele>169</ele>
        <time>2022-04-08T12:21:25Z</time>
      </trkpt>
      <trkpt lat="43.47382" lon="6.39621">
        <ele>169</ele>
        <time>2022-04-08T12:21:26Z</time>
      </trkpt>
      <trkpt lat="43.47381" lon="6.39623">
        <ele>169</ele>
        <time>2022-04-08T12:21:27Z</time>
      </trkpt>
      <trkpt lat="43.47381" lon="6.39624">
        <ele>169</ele>
        <time>2022-04-08T12:21:28Z</time>
      </trkpt>
      <trkpt lat="43.47381" lon="6.39626">
        <ele>170</ele>
        <time>2022-04-08T12:21:29Z</time>
      </trkpt>
      <trkpt lat="43.4738" lon="6.39628">
        <ele>170</ele>
        <time>2022-04-08T12:21:30Z</time>
      </trkpt>
      <trkpt lat="43.4738" lon="6.39629">
        <ele>170</ele>
        <time>2022-04-08T12:21:31Z</time>
      </trkpt>
      <trkpt lat="43.4738" lon="6.39631">
        <ele>170</ele>
        <time>2022-04-08T12:21:32Z</time>
      </trkpt>
      <trkpt lat="43.4738" lon="6.39632">
        <ele>170</ele>
        <time>2022-04-08T12:21:33Z</time>
      </trkpt>
      <trkpt lat="43.47379" lon="6.39633">
        <ele>170</ele>
        <time>2022-04-08T12:21:34Z</time>
      </trkpt>
      <trkpt lat="43.47378" lon="6.39634">
        <ele>170</ele>
        <time>2022-04-08T12:21:35Z</time>
      </trkpt>
      <trkpt lat="43.47378" lon="6.39636">
        <ele>170</ele>
        <time>2022-04-08T12:21:36Z</time>
      </trkpt>
      <trkpt lat="43.47378" lon="6.39637">
        <ele>171</ele>
        <time>2022-04-08T12:21:37Z</time>
      </trkpt>
      <trkpt lat="43.47378" lon="6.39639">
        <ele>171</ele>
        <time>2022-04-08T12:21:38Z</time>
      </trkpt>
      <trkpt lat="43.47378" lon="6.3964">
        <ele>171</ele>
        <time>2022-04-08T12:21:39Z</time>
      </trkpt>
      <trkpt lat="43.47378" lon="6.39641">
        <ele>171</ele>
        <time>2022-04-08T12:21:40Z</time>
      </trkpt>
      <trkpt lat="43.47377" lon="6.39642">
        <ele>171</ele>
        <time>2022-04-08T12:21:41Z</time>
      </trkpt>
      <trkpt lat="43.47377" lon="6.39643">
        <ele>171</ele>
        <time>2022-04-08T12:21:42Z</time>
      </trkpt>
      <trkpt lat="43.47377" lon="6.39645">
        <ele>171</ele>
        <time>2022-04-08T12:21:43Z</time>
      </trkpt>
      <trkpt lat="43.47377" lon="6.39646">
        <ele>171</ele>
        <time>2022-04-08T12:21:44Z</time>
      </trkpt>
      <trkpt lat="43.47377" lon="6.39647">
        <ele>171</ele>
        <time>2022-04-08T12:21:45Z</time>
      </trkpt>
      <trkpt lat="43.47377" lon="6.39648">
        <ele>171</ele>
        <time>2022-04-08T12:21:46Z</time>
      </trkpt>
      <trkpt lat="43.47377" lon="6.39649">
        <ele>171</ele>
        <time>2022-04-08T12:21:47Z</time>
      </trkpt>
      <trkpt lat="43.47377" lon="6.39649">
        <ele>171</ele>
        <time>2022-04-08T12:21:48Z</time>
      </trkpt>
      <trkpt lat="43.47377" lon="6.3965">
        <ele>171</ele>
        <time>2022-04-08T12:21:49Z</time>
      </trkpt>
      <trkpt lat="43.47377" lon="6.3965">
        <ele>171</ele>
        <time>2022-04-08T12:21:50Z</time>
      </trkpt>
      <trkpt lat="43.47377" lon="6.39651">
        <ele>171</ele>
        <time>2022-04-08T12:21:51Z</time>
      </trkpt>
      <trkpt lat="43.47377" lon="6.39651">
        <ele>171</ele>
        <time>2022-04-08T12:21:52Z</time>
      </trkpt>
      <trkpt lat="43.47378" lon="6.39651">
        <ele>171</ele>
        <time>2022-04-08T12:21:53Z</time>
      </trkpt>
      <trkpt lat="43.47378" lon="6.39652">
        <ele>171</ele>
        <time>2022-04-08T12:21:54Z</time>
      </trkpt>
      <trkpt lat="43.47378" lon="6.39652">
        <ele>171</ele>
        <time>2022-04-08T12:21:55Z</time>
      </trkpt>
      <trkpt lat="43.47378" lon="6.39652">
        <ele>171</ele>
        <time>2022-04-08T12:21:56Z</time>
      </trkpt>
      <trkpt lat="43.47378" lon="6.39652">
        <ele>171</ele>
        <time>2022-04-08T12:21:57Z</time>
      </trkpt>
      <trkpt lat="43.47378" lon="6.39652">
        <ele>171</ele>
        <time>2022-04-08T12:21:58Z</time>
      </trkpt>
      <trkpt lat="43.47378" lon="6.39652">
        <ele>171</ele>
        <time>2022-04-08T12:21:59Z</time>
      </trkpt>
      <trkpt lat="43.47378" lon="6.39652">
        <ele>171</ele>
        <time>2022-04-08T12:22:00Z</time>
      </trkpt>
      <trkpt lat="43.47377" lon="6.3965">
        <ele>171</ele>
        <time>2022-04-08T12:22:01Z</time>
      </trkpt>
      <trkpt lat="43.47377" lon="6.3965">
        <ele>171</ele>
        <time>2022-04-08T12:22:02Z</time>
      </trkpt>
      <trkpt lat="43.47377" lon="6.3965">
        <ele>171</ele>
        <time>2022-04-08T12:22:03Z</time>
      </trkpt>
      <trkpt lat="43.47377" lon="6.3965">
        <ele>171</ele>
        <time>2022-04-08T12:22:04Z</time>
      </trkpt>
      <trkpt lat="43.47377" lon="6.39649">
        <ele>171</ele>
        <time>2022-04-08T12:22:05Z</time>
      </trkpt>
      <trkpt lat="43.47376" lon="6.39649">
        <ele>171</ele>
        <time>2022-04-08T12:22:06Z</time>
      </trkpt>
      <trkpt lat="43.47376" lon="6.39649">
        <ele>171</ele>
        <time>2022-04-08T12:22:07Z</time>
      </trkpt>
      <trkpt lat="43.47375" lon="6.39649">
        <ele>171</ele>
        <time>2022-04-08T12:22:08Z</time>
      </trkpt>
      <trkpt lat="43.47375" lon="6.39649">
        <ele>171</ele>
        <time>2022-04-08T12:22:09Z</time>
      </trkpt>
      <trkpt lat="43.47375" lon="6.39649">
        <ele>171</ele>
        <time>2022-04-08T12:22:10Z</time>
      </trkpt>
      <trkpt lat="43.47374" lon="6.3965">
        <ele>171</ele>
        <time>2022-04-08T12:22:11Z</time>
      </trkpt>
      <trkpt lat="43.47374" lon="6.3965">
        <ele>171</ele>
        <time>2022-04-08T12:22:12Z</time>
      </trkpt>
      <trkpt lat="43.47373" lon="6.39651">
        <ele>171</ele>
        <time>2022-04-08T12:22:13Z</time>
      </trkpt>
      <trkpt lat="43.47373" lon="6.39652">
        <ele>171</ele>
        <time>2022-04-08T12:22:14Z</time>
      </trkpt>
      <trkpt lat="43.47373" lon="6.39653">
        <ele>171</ele>
        <time>2022-04-08T12:22:15Z</time>
      </trkpt>
      <trkpt lat="43.47373" lon="6.39654">
        <ele>171</ele>
        <time>2022-04-08T12:22:16Z</time>
      </trkpt>
      <trkpt lat="43.47372" lon="6.39655">
        <ele>171</ele>
        <time>2022-04-08T12:22:17Z</time>
      </trkpt>
      <trkpt lat="43.47372" lon="6.39655">
        <ele>171</ele>
        <time>2022-04-08T12:22:18Z</time>
      </trkpt>
      <trkpt lat="43.47371" lon="6.39655">
        <ele>171</ele>
        <time>2022-04-08T12:22:19Z</time>
      </trkpt>
      <trkpt lat="43.47371" lon="6.39655">
        <ele>171</ele>
        <time>2022-04-08T12:22:20Z</time>
      </trkpt>
      <trkpt lat="43.47371" lon="6.39656">
        <ele>171</ele>
        <time>2022-04-08T12:22:21Z</time>
      </trkpt>
      <trkpt lat="43.47371" lon="6.39656">
        <ele>171</ele>
        <time>2022-04-08T12:22:22Z</time>
      </trkpt>
      <trkpt lat="43.47371" lon="6.39657">
        <ele>171</ele>
        <time>2022-04-08T12:22:23Z</time>
      </trkpt>
      <trkpt lat="43.4737" lon="6.39658">
        <ele>171</ele>
        <time>2022-04-08T12:22:24Z</time>
      </trkpt>
      <trkpt lat="43.4737" lon="6.39659">
        <ele>171</ele>
        <time>2022-04-08T12:22:25Z</time>
      </trkpt>
      <trkpt lat="43.4737" lon="6.39659">
        <ele>171</ele>
        <time>2022-04-08T12:22:26Z</time>
      </trkpt>
      <trkpt lat="43.4737" lon="6.3966">
        <ele>171</ele>
        <time>2022-04-08T12:22:27Z</time>
      </trkpt>
      <trkpt lat="43.4737" lon="6.39661">
        <ele>171</ele>
        <time>2022-04-08T12:22:28Z</time>
      </trkpt>
      <trkpt lat="43.4737" lon="6.39661">
        <ele>171</ele>
        <time>2022-04-08T12:22:29Z</time>
      </trkpt>
      <trkpt lat="43.4737" lon="6.39662">
        <ele>171</ele>
        <time>2022-04-08T12:22:30Z</time>
      </trkpt>
      <trkpt lat="43.4737" lon="6.39663">
        <ele>172</ele>
        <time>2022-04-08T12:22:31Z</time>
      </trkpt>
      <trkpt lat="43.47369" lon="6.39664">
        <ele>172</ele>
        <time>2022-04-08T12:22:32Z</time>
      </trkpt>
      <trkpt lat="43.47368" lon="6.39665">
        <ele>172</ele>
        <time>2022-04-08T12:22:33Z</time>
      </trkpt>
      <trkpt lat="43.47368" lon="6.39664">
        <ele>173</ele>
        <time>2022-04-08T12:22:34Z</time>
      </trkpt>
      <trkpt lat="43.47367" lon="6.39664">
        <ele>173</ele>
        <time>2022-04-08T12:22:35Z</time>
      </trkpt>
      <trkpt lat="43.47367" lon="6.39664">
        <ele>173</ele>
        <time>2022-04-08T12:22:36Z</time>
      </trkpt>
      <trkpt lat="43.47367" lon="6.39664">
        <ele>173</ele>
        <time>2022-04-08T12:22:37Z</time>
      </trkpt>
      <trkpt lat="43.47367" lon="6.39664">
        <ele>173</ele>
        <time>2022-04-08T12:22:38Z</time>
      </trkpt>
      <trkpt lat="43.47366" lon="6.39665">
        <ele>173</ele>
        <time>2022-04-08T12:22:39Z</time>
      </trkpt>
      <trkpt lat="43.47366" lon="6.39665">
        <ele>173</ele>
        <time>2022-04-08T12:22:40Z</time>
      </trkpt>
      <trkpt lat="43.47366" lon="6.39666">
        <ele>173</ele>
        <time>2022-04-08T12:22:41Z</time>
      </trkpt>
      <trkpt lat="43.47366" lon="6.39667">
        <ele>173</ele>
        <time>2022-04-08T12:22:42Z</time>
      </trkpt>
      <trkpt lat="43.47366" lon="6.39668">
        <ele>173</ele>
        <time>2022-04-08T12:22:43Z</time>
      </trkpt>
      <trkpt lat="43.47366" lon="6.39669">
        <ele>173</ele>
        <time>2022-04-08T12:22:44Z</time>
      </trkpt>
      <trkpt lat="43.47366" lon="6.3967">
        <ele>173</ele>
        <time>2022-04-08T12:22:45Z</time>
      </trkpt>
      <trkpt lat="43.47366" lon="6.39671">
        <ele>173</ele>
        <time>2022-04-08T12:22:46Z</time>
      </trkpt>
      <trkpt lat="43.47366" lon="6.39673">
        <ele>173</ele>
        <time>2022-04-08T12:22:47Z</time>
      </trkpt>
      <trkpt lat="43.47366" lon="6.39674">
        <ele>173</ele>
        <time>2022-04-08T12:22:48Z</time>
      </trkpt>
      <trkpt lat="43.47366" lon="6.39674">
        <ele>173</ele>
        <time>2022-04-08T12:22:49Z</time>
      </trkpt>
      <trkpt lat="43.47366" lon="6.39675">
        <ele>173</ele>
        <time>2022-04-08T12:22:50Z</time>
      </trkpt>
      <trkpt lat="43.47366" lon="6.39676">
        <ele>173</ele>
        <time>2022-04-08T12:22:51Z</time>
      </trkpt>
      <trkpt lat="43.47366" lon="6.39677">
        <ele>173</ele>
        <time>2022-04-08T12:22:52Z</time>
      </trkpt>
      <trkpt lat="43.47365" lon="6.39678">
        <ele>173</ele>
        <time>2022-04-08T12:22:53Z</time>
      </trkpt>
      <trkpt lat="43.47365" lon="6.39677">
        <ele>173</ele>
        <time>2022-04-08T12:22:54Z</time>
      </trkpt>
      <trkpt lat="43.47364" lon="6.39676">
        <ele>173</ele>
        <time>2022-04-08T12:22:55Z</time>
      </trkpt>
      <trkpt lat="43.47364" lon="6.39675">
        <ele>173</ele>
        <time>2022-04-08T12:22:56Z</time>
      </trkpt>
      <trkpt lat="43.47364" lon="6.39674">
        <ele>173</ele>
        <time>2022-04-08T12:22:57Z</time>
      </trkpt>
      <trkpt lat="43.47364" lon="6.39674">
        <ele>173</ele>
        <time>2022-04-08T12:22:58Z</time>
      </trkpt>
      <trkpt lat="43.47364" lon="6.39674">
        <ele>173</ele>
        <time>2022-04-08T12:22:59Z</time>
      </trkpt>
      <trkpt lat="43.47364" lon="6.39674">
        <ele>173</ele>
        <time>2022-04-08T12:23:00Z</time>
      </trkpt>
      <trkpt lat="43.47364" lon="6.39674">
        <ele>173</ele>
        <time>2022-04-08T12:23:01Z</time>
      </trkpt>
      <trkpt lat="43.47364" lon="6.39674">
        <ele>173</ele>
        <time>2022-04-08T12:23:02Z</time>
      </trkpt>
      <trkpt lat="43.47364" lon="6.39674">
        <ele>173</ele>
        <time>2022-04-08T12:23:03Z</time>
      </trkpt>
      <trkpt lat="43.47364" lon="6.39674">
        <ele>173</ele>
        <time>2022-04-08T12:23:04Z</time>
      </trkpt>
      <trkpt lat="43.47364" lon="6.39674">
        <ele>173</ele>
        <time>2022-04-08T12:23:05Z</time>
      </trkpt>
      <trkpt lat="43.47364" lon="6.39674">
        <ele>173</ele>
        <time>2022-04-08T12:23:06Z</time>
      </trkpt>
      <trkpt lat="43.47364" lon="6.39674">
        <ele>173</ele>
        <time>2022-04-08T12:23:07Z</time>
      </trkpt>
      <trkpt lat="43.47364" lon="6.39674">
        <ele>173</ele>
        <time>2022-04-08T12:23:08Z</time>
      </trkpt>
      <trkpt lat="43.47364" lon="6.39674">
        <ele>173</ele>
        <time>2022-04-08T12:23:09Z</time>
      </trkpt>
      <trkpt lat="43.47364" lon="6.39674">
        <ele>173</ele>
        <time>2022-04-08T12:23:10Z</time>
      </trkpt>
      <trkpt lat="43.47364" lon="6.39674">
        <ele>173</ele>
        <time>2022-04-08T12:23:11Z</time>
      </trkpt>
      <trkpt lat="43.47364" lon="6.39674">
        <ele>173</ele>
        <time>2022-04-08T12:23:12Z</time>
      </trkpt>
      <trkpt lat="43.47365" lon="6.39675">
        <ele>173</ele>
        <time>2022-04-08T12:23:13Z</time>
      </trkpt>
      <trkpt lat="43.47365" lon="6.39676">
        <ele>173</ele>
        <time>2022-04-08T12:23:14Z</time>
      </trkpt>
      <trkpt lat="43.47365" lon="6.39676">
        <ele>173</ele>
        <time>2022-04-08T12:23:15Z</time>
      </trkpt>
      <trkpt lat="43.47365" lon="6.39677">
        <ele>173</ele>
        <time>2022-04-08T12:23:16Z</time>
      </trkpt>
      <trkpt lat="43.47365" lon="6.39677">
        <ele>173</ele>
        <time>2022-04-08T12:23:17Z</time>
      </trkpt>
      <trkpt lat="43.47365" lon="6.39677">
        <ele>173</ele>
        <time>2022-04-08T12:23:18Z</time>
      </trkpt>
      <trkpt lat="43.47365" lon="6.39677">
        <ele>173</ele>
        <time>2022-04-08T12:23:19Z</time>
      </trkpt>
      <trkpt lat="43.47365" lon="6.39677">
        <ele>173</ele>
        <time>2022-04-08T12:23:20Z</time>
      </trkpt>
      <trkpt lat="43.47365" lon="6.39677">
        <ele>173</ele>
        <time>2022-04-08T12:23:21Z</time>
      </trkpt>
      <trkpt lat="43.47365" lon="6.39677">
        <ele>173</ele>
        <time>2022-04-08T12:23:22Z</time>
      </trkpt>
      <trkpt lat="43.47365" lon="6.39677">
        <ele>173</ele>
        <time>2022-04-08T12:23:23Z</time>
      </trkpt>
      <trkpt lat="43.47365" lon="6.39677">
        <ele>173</ele>
        <time>2022-04-08T12:23:24Z</time>
      </trkpt>
      <trkpt lat="43.47365" lon="6.39677">
        <ele>173</ele>
        <time>2022-04-08T12:23:25Z</time>
      </trkpt>
      <trkpt lat="43.47365" lon="6.39677">
        <ele>173</ele>
        <time>2022-04-08T12:23:26Z</time>
      </trkpt>
      <trkpt lat="43.47365" lon="6.39677">
        <ele>173</ele>
        <time>2022-04-08T12:23:27Z</time>
      </trkpt>
      <trkpt lat="43.47365" lon="6.39677">
        <ele>173</ele>
        <time>2022-04-08T12:23:28Z</time>
      </trkpt>
      <trkpt lat="43.47365" lon="6.39677">
        <ele>173</ele>
        <time>2022-04-08T12:23:29Z</time>
      </trkpt>
      <trkpt lat="43.47365" lon="6.39677">
        <ele>173</ele>
        <time>2022-04-08T12:23:30Z</time>
      </trkpt>
      <trkpt lat="43.47365" lon="6.39677">
        <ele>173</ele>
        <time>2022-04-08T12:23:31Z</time>
      </trkpt>
      <trkpt lat="43.47365" lon="6.39677">
        <ele>173</ele>
        <time>2022-04-08T12:23:32Z</time>
      </trkpt>
      <trkpt lat="43.47365" lon="6.39677">
        <ele>173</ele>
        <time>2022-04-08T12:23:33Z</time>
      </trkpt>
      <trkpt lat="43.47365" lon="6.39677">
        <ele>173</ele>
        <time>2022-04-08T12:23:34Z</time>
      </trkpt>
      <trkpt lat="43.47365" lon="6.39677">
        <ele>173</ele>
        <time>2022-04-08T12:23:35Z</time>
      </trkpt>
      <trkpt lat="43.47365" lon="6.39677">
        <ele>173</ele>
        <time>2022-04-08T12:23:36Z</time>
      </trkpt>
      <trkpt lat="43.47365" lon="6.39677">
        <ele>173</ele>
        <time>2022-04-08T12:23:37Z</time>
      </trkpt>
      <trkpt lat="43.47365" lon="6.39677">
        <ele>173</ele>
        <time>2022-04-08T12:23:38Z</time>
      </trkpt>
      <trkpt lat="43.47365" lon="6.39677">
        <ele>173</ele>
        <time>2022-04-08T12:23:39Z</time>
      </trkpt>
      <trkpt lat="43.47365" lon="6.39677">
        <ele>173</ele>
        <time>2022-04-08T12:23:40Z</time>
      </trkpt>
      <trkpt lat="43.47365" lon="6.39677">
        <ele>173</ele>
        <time>2022-04-08T12:23:41Z</time>
      </trkpt>
      <trkpt lat="43.47365" lon="6.39677">
        <ele>173</ele>
        <time>2022-04-08T12:23:42Z</time>
      </trkpt>
      <trkpt lat="43.47365" lon="6.39677">
        <ele>173</ele>
        <time>2022-04-08T12:23:43Z</time>
      </trkpt>
      <trkpt lat="43.47365" lon="6.39677">
        <ele>173</ele>
        <time>2022-04-08T12:23:44Z</time>
      </trkpt>
      <trkpt lat="43.47365" lon="6.39677">
        <ele>173</ele>
        <time>2022-04-08T12:23:45Z</time>
      </trkpt>
      <trkpt lat="43.47365" lon="6.39677">
        <ele>173</ele>
        <time>2022-04-08T12:23:46Z</time>
      </trkpt>
      <trkpt lat="43.47365" lon="6.39677">
        <ele>173</ele>
        <time>2022-04-08T12:23:47Z</time>
      </trkpt>
      <trkpt lat="43.47365" lon="6.39677">
        <ele>173</ele>
        <time>2022-04-08T12:23:48Z</time>
      </trkpt>
      <trkpt lat="43.47365" lon="6.39677">
        <ele>173</ele>
        <time>2022-04-08T12:23:49Z</time>
      </trkpt>
      <trkpt lat="43.47365" lon="6.39677">
        <ele>173</ele>
        <time>2022-04-08T12:23:50Z</time>
      </trkpt>
      <trkpt lat="43.47366" lon="6.39676">
        <ele>173</ele>
        <time>2022-04-08T12:23:51Z</time>
      </trkpt>
      <trkpt lat="43.47366" lon="6.39675">
        <ele>173</ele>
        <time>2022-04-08T12:23:52Z</time>
      </trkpt>
      <trkpt lat="43.47366" lon="6.39675">
        <ele>173</ele>
        <time>2022-04-08T12:23:53Z</time>
      </trkpt>
      <trkpt lat="43.47366" lon="6.39674">
        <ele>173</ele>
        <time>2022-04-08T12:23:54Z</time>
      </trkpt>
      <trkpt lat="43.47366" lon="6.39673">
        <ele>173</ele>
        <time>2022-04-08T12:23:55Z</time>
      </trkpt>
      <trkpt lat="43.47367" lon="6.39673">
        <ele>173</ele>
        <time>2022-04-08T12:23:56Z</time>
      </trkpt>
      <trkpt lat="43.47367" lon="6.39672">
        <ele>173</ele>
        <time>2022-04-08T12:23:57Z</time>
      </trkpt>
      <trkpt lat="43.47367" lon="6.3967">
        <ele>173</ele>
        <time>2022-04-08T12:23:58Z</time>
      </trkpt>
      <trkpt lat="43.47368" lon="6.3967">
        <ele>173</ele>
        <time>2022-04-08T12:23:59Z</time>
      </trkpt>
      <trkpt lat="43.47368" lon="6.39669">
        <ele>173</ele>
        <time>2022-04-08T12:24:00Z</time>
      </trkpt>
      <trkpt lat="43.47369" lon="6.39668">
        <ele>173</ele>
        <time>2022-04-08T12:24:01Z</time>
      </trkpt>
      <trkpt lat="43.47369" lon="6.39667">
        <ele>173</ele>
        <time>2022-04-08T12:24:02Z</time>
      </trkpt>
      <trkpt lat="43.4737" lon="6.39666">
        <ele>173</ele>
        <time>2022-04-08T12:24:03Z</time>
      </trkpt>
      <trkpt lat="43.4737" lon="6.39665">
        <ele>171</ele>
        <time>2022-04-08T12:24:04Z</time>
      </trkpt>
      <trkpt lat="43.47371" lon="6.39665">
        <ele>171</ele>
        <time>2022-04-08T12:24:05Z</time>
      </trkpt>
      <trkpt lat="43.47372" lon="6.39664">
        <ele>171</ele>
        <time>2022-04-08T12:24:06Z</time>
      </trkpt>
      <trkpt lat="43.47372" lon="6.39663">
        <ele>171</ele>
        <time>2022-04-08T12:24:07Z</time>
      </trkpt>
      <trkpt lat="43.47373" lon="6.39662">
        <ele>171</ele>
        <time>2022-04-08T12:24:08Z</time>
      </trkpt>
      <trkpt lat="43.47373" lon="6.39662">
        <ele>171</ele>
        <time>2022-04-08T12:24:09Z</time>
      </trkpt>
      <trkpt lat="43.47373" lon="6.39662">
        <ele>170</ele>
        <time>2022-04-08T12:24:10Z</time>
      </trkpt>
      <trkpt lat="43.47373" lon="6.39662">
        <ele>170</ele>
        <time>2022-04-08T12:24:11Z</time>
      </trkpt>
      <trkpt lat="43.47373" lon="6.39662">
        <ele>170</ele>
        <time>2022-04-08T12:24:12Z</time>
      </trkpt>
      <trkpt lat="43.47373" lon="6.39662">
        <ele>170</ele>
        <time>2022-04-08T12:24:13Z</time>
      </trkpt>
      <trkpt lat="43.47373" lon="6.39662">
        <ele>170</ele>
        <time>2022-04-08T12:24:14Z</time>
      </trkpt>
      <trkpt lat="43.47373" lon="6.39662">
        <ele>170</ele>
        <time>2022-04-08T12:24:15Z</time>
      </trkpt>
      <trkpt lat="43.47373" lon="6.39662">
        <ele>170</ele>
        <time>2022-04-08T12:24:16Z</time>
      </trkpt>
      <trkpt lat="43.47373" lon="6.39662">
        <ele>170</ele>
        <time>2022-04-08T12:24:17Z</time>
      </trkpt>
      <trkpt lat="43.47373" lon="6.39662">
        <ele>170</ele>
        <time>2022-04-08T12:24:18Z</time>
      </trkpt>
      <trkpt lat="43.47373" lon="6.39662">
        <ele>170</ele>
        <time>2022-04-08T12:24:19Z</time>
      </trkpt>
      <trkpt lat="43.47373" lon="6.39662">
        <ele>170</ele>
        <time>2022-04-08T12:24:20Z</time>
      </trkpt>
      <trkpt lat="43.47373" lon="6.39662">
        <ele>170</ele>
        <time>2022-04-08T12:24:21Z</time>
      </trkpt>
      <trkpt lat="43.47373" lon="6.39662">
        <ele>170</ele>
        <time>2022-04-08T12:24:22Z</time>
      </trkpt>
      <trkpt lat="43.47373" lon="6.39662">
        <ele>170</ele>
        <time>2022-04-08T12:24:23Z</time>
      </trkpt>
      <trkpt lat="43.47373" lon="6.39662">
        <ele>170</ele>
        <time>2022-04-08T12:24:24Z</time>
      </trkpt>
      <trkpt lat="43.47373" lon="6.39662">
        <ele>170</ele>
        <time>2022-04-08T12:24:25Z</time>
      </trkpt>
      <trkpt lat="43.47373" lon="6.39662">
        <ele>170</ele>
        <time>2022-04-08T12:24:26Z</time>
      </trkpt>
      <trkpt lat="43.47373" lon="6.39662">
        <ele>170</ele>
        <time>2022-04-08T12:24:27Z</time>
      </trkpt>
      <trkpt lat="43.47373" lon="6.39662">
        <ele>170</ele>
        <time>2022-04-08T12:24:28Z</time>
      </trkpt>
      <trkpt lat="43.47373" lon="6.39662">
        <ele>170</ele>
        <time>2022-04-08T12:24:29Z</time>
      </trkpt>
      <trkpt lat="43.47373" lon="6.39662">
        <ele>170</ele>
        <time>2022-04-08T12:24:30Z</time>
      </trkpt>
      <trkpt lat="43.47373" lon="6.39662">
        <ele>170</ele>
        <time>2022-04-08T12:24:31Z</time>
      </trkpt>
      <trkpt lat="43.47373" lon="6.39662">
        <ele>169</ele>
        <time>2022-04-08T12:24:32Z</time>
      </trkpt>
      <trkpt lat="43.47373" lon="6.39662">
        <ele>169</ele>
        <time>2022-04-08T12:24:33Z</time>
      </trkpt>
      <trkpt lat="43.47373" lon="6.39662">
        <ele>169</ele>
        <time>2022-04-08T12:24:34Z</time>
      </trkpt>
      <trkpt lat="43.47373" lon="6.39662">
        <ele>169</ele>
        <time>2022-04-08T12:24:35Z</time>
      </trkpt>
      <trkpt lat="43.47373" lon="6.39662">
        <ele>169</ele>
        <time>2022-04-08T12:24:36Z</time>
      </trkpt>
      <trkpt lat="43.47373" lon="6.39662">
        <ele>169</ele>
        <time>2022-04-08T12:24:37Z</time>
      </trkpt>
      <trkpt lat="43.47373" lon="6.39662">
        <ele>169</ele>
        <time>2022-04-08T12:24:38Z</time>
      </trkpt>
      <trkpt lat="43.47373" lon="6.39662">
        <ele>169</ele>
        <time>2022-04-08T12:24:39Z</time>
      </trkpt>
      <trkpt lat="43.47373" lon="6.39662">
        <ele>169</ele>
        <time>2022-04-08T12:24:40Z</time>
      </trkpt>
      <trkpt lat="43.47373" lon="6.39662">
        <ele>169</ele>
        <time>2022-04-08T12:24:41Z</time>
      </trkpt>
      <trkpt lat="43.47373" lon="6.39662">
        <ele>169</ele>
        <time>2022-04-08T12:24:42Z</time>
      </trkpt>
      <trkpt lat="43.47373" lon="6.39662">
        <ele>169</ele>
        <time>2022-04-08T12:24:43Z</time>
      </trkpt>
      <trkpt lat="43.47373" lon="6.39662">
        <ele>169</ele>
        <time>2022-04-08T12:24:44Z</time>
      </trkpt>
      <trkpt lat="43.47373" lon="6.39662">
        <ele>169</ele>
        <time>2022-04-08T12:24:45Z</time>
      </trkpt>
      <trkpt lat="43.47373" lon="6.39662">
        <ele>169</ele>
        <time>2022-04-08T12:24:46Z</time>
      </trkpt>
      <trkpt lat="43.47373" lon="6.39662">
        <ele>169</ele>
        <time>2022-04-08T12:24:47Z</time>
      </trkpt>
      <trkpt lat="43.47373" lon="6.39662">
        <ele>169</ele>
        <time>2022-04-08T12:24:48Z</time>
      </trkpt>
      <trkpt lat="43.47378" lon="6.39663">
        <ele>169</ele>
        <time>2022-04-08T12:24:49Z</time>
      </trkpt>
      <trkpt lat="43.47379" lon="6.39662">
        <ele>169</ele>
        <time>2022-04-08T12:24:50Z</time>
      </trkpt>
      <trkpt lat="43.47379" lon="6.39662">
        <ele>169</ele>
        <time>2022-04-08T12:24:51Z</time>
      </trkpt>
      <trkpt lat="43.4738" lon="6.39661">
        <ele>169</ele>
        <time>2022-04-08T12:24:52Z</time>
      </trkpt>
      <trkpt lat="43.47381" lon="6.39661">
        <ele>169</ele>
        <time>2022-04-08T12:24:53Z</time>
      </trkpt>
      <trkpt lat="43.47381" lon="6.39661">
        <ele>169</ele>
        <time>2022-04-08T12:24:54Z</time>
      </trkpt>
      <trkpt lat="43.47382" lon="6.3966">
        <ele>168</ele>
        <time>2022-04-08T12:24:55Z</time>
      </trkpt>
      <trkpt lat="43.47382" lon="6.3966">
        <ele>168</ele>
        <time>2022-04-08T12:24:56Z</time>
      </trkpt>
      <trkpt lat="43.47383" lon="6.39659">
        <ele>168</ele>
        <time>2022-04-08T12:24:57Z</time>
      </trkpt>
      <trkpt lat="43.47383" lon="6.39658">
        <ele>168</ele>
        <time>2022-04-08T12:24:58Z</time>
      </trkpt>
      <trkpt lat="43.47383" lon="6.39658">
        <ele>168</ele>
        <time>2022-04-08T12:24:59Z</time>
      </trkpt>
      <trkpt lat="43.47384" lon="6.39657">
        <ele>168</ele>
        <time>2022-04-08T12:25:00Z</time>
      </trkpt>
      <trkpt lat="43.47384" lon="6.39656">
        <ele>168</ele>
        <time>2022-04-08T12:25:01Z</time>
      </trkpt>
      <trkpt lat="43.47385" lon="6.39656">
        <ele>168</ele>
        <time>2022-04-08T12:25:02Z</time>
      </trkpt>
      <trkpt lat="43.47385" lon="6.39656">
        <ele>168</ele>
        <time>2022-04-08T12:25:03Z</time>
      </trkpt>
      <trkpt lat="43.47386" lon="6.39656">
        <ele>168</ele>
        <time>2022-04-08T12:25:04Z</time>
      </trkpt>
      <trkpt lat="43.47387" lon="6.39656">
        <ele>168</ele>
        <time>2022-04-08T12:25:05Z</time>
      </trkpt>
      <trkpt lat="43.47387" lon="6.39656">
        <ele>168</ele>
        <time>2022-04-08T12:25:06Z</time>
      </trkpt>
      <trkpt lat="43.47387" lon="6.39657">
        <ele>168</ele>
        <time>2022-04-08T12:25:07Z</time>
      </trkpt>
      <trkpt lat="43.47387" lon="6.39657">
        <ele>168</ele>
        <time>2022-04-08T12:25:08Z</time>
      </trkpt>
      <trkpt lat="43.47388" lon="6.39657">
        <ele>168</ele>
        <time>2022-04-08T12:25:09Z</time>
      </trkpt>
      <trkpt lat="43.47388" lon="6.39657">
        <ele>168</ele>
        <time>2022-04-08T12:25:10Z</time>
      </trkpt>
      <trkpt lat="43.47388" lon="6.39657">
        <ele>168</ele>
        <time>2022-04-08T12:25:11Z</time>
      </trkpt>
      <trkpt lat="43.47388" lon="6.39657">
        <ele>168</ele>
        <time>2022-04-08T12:25:12Z</time>
      </trkpt>
      <trkpt lat="43.47388" lon="6.39657">
        <ele>168</ele>
        <time>2022-04-08T12:25:13Z</time>
      </trkpt>
      <trkpt lat="43.47388" lon="6.39657">
        <ele>168</ele>
        <time>2022-04-08T12:25:14Z</time>
      </trkpt>
      <trkpt lat="43.47388" lon="6.39657">
        <ele>168</ele>
        <time>2022-04-08T12:25:15Z</time>
      </trkpt>
      <trkpt lat="43.47388" lon="6.39657">
        <ele>168</ele>
        <time>2022-04-08T12:25:16Z</time>
      </trkpt>
      <trkpt lat="43.47388" lon="6.39657">
        <ele>168</ele>
        <time>2022-04-08T12:25:17Z</time>
      </trkpt>
      <trkpt lat="43.47388" lon="6.39657">
        <ele>168</ele>
        <time>2022-04-08T12:25:18Z</time>
      </trkpt>
      <trkpt lat="43.47388" lon="6.39657">
        <ele>168</ele>
        <time>2022-04-08T12:25:19Z</time>
      </trkpt>
      <trkpt lat="43.47388" lon="6.39657">
        <ele>168</ele>
        <time>2022-04-08T12:25:20Z</time>
      </trkpt>
      <trkpt lat="43.47388" lon="6.39657">
        <ele>168</ele>
        <time>2022-04-08T12:25:21Z</time>
      </trkpt>
      <trkpt lat="43.47388" lon="6.39657">
        <ele>168</ele>
        <time>2022-04-08T12:25:22Z</time>
      </trkpt>
      <trkpt lat="43.47388" lon="6.39657">
        <ele>168</ele>
        <time>2022-04-08T12:25:23Z</time>
      </trkpt>
      <trkpt lat="43.47388" lon="6.39657">
        <ele>168</ele>
        <time>2022-04-08T12:25:24Z</time>
      </trkpt>
      <trkpt lat="43.47388" lon="6.39657">
        <ele>168</ele>
        <time>2022-04-08T12:25:25Z</time>
      </trkpt>
      <trkpt lat="43.47388" lon="6.39657">
        <ele>168</ele>
        <time>2022-04-08T12:25:26Z</time>
      </trkpt>
      <trkpt lat="43.47388" lon="6.39657">
        <ele>168</ele>
        <time>2022-04-08T12:25:27Z</time>
      </trkpt>
      <trkpt lat="43.47388" lon="6.39657">
        <ele>168</ele>
        <time>2022-04-08T12:25:28Z</time>
      </trkpt>
      <trkpt lat="43.47388" lon="6.39657">
        <ele>168</ele>
        <time>2022-04-08T12:25:29Z</time>
      </trkpt>
      <trkpt lat="43.47388" lon="6.39657">
        <ele>168</ele>
        <time>2022-04-08T12:25:30Z</time>
      </trkpt>
      <trkpt lat="43.47388" lon="6.39657">
        <ele>168</ele>
        <time>2022-04-08T12:25:31Z</time>
      </trkpt>
      <trkpt lat="43.47388" lon="6.39657">
        <ele>168</ele>
        <time>2022-04-08T12:25:32Z</time>
      </trkpt>
      <trkpt lat="43.47388" lon="6.39657">
        <ele>168</ele>
        <time>2022-04-08T12:25:33Z</time>
      </trkpt>
      <trkpt lat="43.47388" lon="6.39657">
        <ele>168</ele>
        <time>2022-04-08T12:25:34Z</time>
      </trkpt>
      <trkpt lat="43.47388" lon="6.39657">
        <ele>168</ele>
        <time>2022-04-08T12:25:35Z</time>
      </trkpt>
      <trkpt lat="43.47388" lon="6.39657">
        <ele>168</ele>
        <time>2022-04-08T12:25:36Z</time>
      </trkpt>
      <trkpt lat="43.47388" lon="6.39657">
        <ele>168</ele>
        <time>2022-04-08T12:25:37Z</time>
      </trkpt>
      <trkpt lat="43.47388" lon="6.39657">
        <ele>168</ele>
        <time>2022-04-08T12:25:38Z</time>
      </trkpt>
      <trkpt lat="43.47388" lon="6.39657">
        <ele>168</ele>
        <time>2022-04-08T12:25:39Z</time>
      </trkpt>
      <trkpt lat="43.47388" lon="6.39657">
        <ele>168</ele>
        <time>2022-04-08T12:25:40Z</time>
      </trkpt>
      <trkpt lat="43.47388" lon="6.39657">
        <ele>168</ele>
        <time>2022-04-08T12:25:41Z</time>
      </trkpt>
      <trkpt lat="43.47388" lon="6.39657">
        <ele>168</ele>
        <time>2022-04-08T12:25:42Z</time>
      </trkpt>
      <trkpt lat="43.47388" lon="6.39657">
        <ele>168</ele>
        <time>2022-04-08T12:25:43Z</time>
      </trkpt>
      <trkpt lat="43.47388" lon="6.39657">
        <ele>168</ele>
        <time>2022-04-08T12:25:44Z</time>
      </trkpt>
      <trkpt lat="43.47388" lon="6.39657">
        <ele>168</ele>
        <time>2022-04-08T12:25:45Z</time>
      </trkpt>
      <trkpt lat="43.47385" lon="6.39657">
        <ele>168</ele>
        <time>2022-04-08T12:25:46Z</time>
      </trkpt>
      <trkpt lat="43.47384" lon="6.39658">
        <ele>168</ele>
        <time>2022-04-08T12:25:47Z</time>
      </trkpt>
      <trkpt lat="43.47384" lon="6.39658">
        <ele>168</ele>
        <time>2022-04-08T12:25:48Z</time>
      </trkpt>
      <trkpt lat="43.47384" lon="6.39659">
        <ele>168</ele>
        <time>2022-04-08T12:25:49Z</time>
      </trkpt>
      <trkpt lat="43.47385" lon="6.39659">
        <ele>168</ele>
        <time>2022-04-08T12:25:50Z</time>
      </trkpt>
      <trkpt lat="43.47385" lon="6.39659">
        <ele>168</ele>
        <time>2022-04-08T12:25:51Z</time>
      </trkpt>
      <trkpt lat="43.47385" lon="6.3966">
        <ele>168</ele>
        <time>2022-04-08T12:25:52Z</time>
      </trkpt>
      <trkpt lat="43.47385" lon="6.3966">
        <ele>168</ele>
        <time>2022-04-08T12:25:53Z</time>
      </trkpt>
      <trkpt lat="43.47385" lon="6.3966">
        <ele>168</ele>
        <time>2022-04-08T12:25:54Z</time>
      </trkpt>
      <trkpt lat="43.47385" lon="6.3966">
        <ele>168</ele>
        <time>2022-04-08T12:25:55Z</time>
      </trkpt>
      <trkpt lat="43.47385" lon="6.3966">
        <ele>168</ele>
        <time>2022-04-08T12:25:56Z</time>
      </trkpt>
      <trkpt lat="43.47385" lon="6.3966">
        <ele>168</ele>
        <time>2022-04-08T12:25:57Z</time>
      </trkpt>
      <trkpt lat="43.47385" lon="6.3966">
        <ele>168</ele>
        <time>2022-04-08T12:25:58Z</time>
      </trkpt>
      <trkpt lat="43.47385" lon="6.3966">
        <ele>168</ele>
        <time>2022-04-08T12:25:59Z</time>
      </trkpt>
      <trkpt lat="43.47384" lon="6.3966">
        <ele>168</ele>
        <time>2022-04-08T12:26:00Z</time>
      </trkpt>
      <trkpt lat="43.47384" lon="6.39661">
        <ele>168</ele>
        <time>2022-04-08T12:26:01Z</time>
      </trkpt>
      <trkpt lat="43.47384" lon="6.39661">
        <ele>168</ele>
        <time>2022-04-08T12:26:02Z</time>
      </trkpt>
      <trkpt lat="43.47383" lon="6.39662">
        <ele>168</ele>
        <time>2022-04-08T12:26:03Z</time>
      </trkpt>
      <trkpt lat="43.47383" lon="6.39663">
        <ele>168</ele>
        <time>2022-04-08T12:26:04Z</time>
      </trkpt>
      <trkpt lat="43.47382" lon="6.39663">
        <ele>168</ele>
        <time>2022-04-08T12:26:05Z</time>
      </trkpt>
      <trkpt lat="43.47382" lon="6.39663">
        <ele>168</ele>
        <time>2022-04-08T12:26:06Z</time>
      </trkpt>
      <trkpt lat="43.47381" lon="6.39663">
        <ele>168</ele>
        <time>2022-04-08T12:26:07Z</time>
      </trkpt>
      <trkpt lat="43.47381" lon="6.39663">
        <ele>168</ele>
        <time>2022-04-08T12:26:08Z</time>
      </trkpt>
      <trkpt lat="43.4738" lon="6.39663">
        <ele>168</ele>
        <time>2022-04-08T12:26:09Z</time>
      </trkpt>
      <trkpt lat="43.4738" lon="6.39663">
        <ele>168</ele>
        <time>2022-04-08T12:26:10Z</time>
      </trkpt>
      <trkpt lat="43.47379" lon="6.39663">
        <ele>168</ele>
        <time>2022-04-08T12:26:11Z</time>
      </trkpt>
      <trkpt lat="43.47379" lon="6.39663">
        <ele>168</ele>
        <time>2022-04-08T12:26:12Z</time>
      </trkpt>
      <trkpt lat="43.47379" lon="6.39663">
        <ele>168</ele>
        <time>2022-04-08T12:26:13Z</time>
      </trkpt>
      <trkpt lat="43.47379" lon="6.39664">
        <ele>168</ele>
        <time>2022-04-08T12:26:14Z</time>
      </trkpt>
      <trkpt lat="43.47379" lon="6.39664">
        <ele>168</ele>
        <time>2022-04-08T12:26:15Z</time>
      </trkpt>
      <trkpt lat="43.47379" lon="6.39664">
        <ele>168</ele>
        <time>2022-04-08T12:26:16Z</time>
      </trkpt>
      <trkpt lat="43.47378" lon="6.39664">
        <ele>168</ele>
        <time>2022-04-08T12:26:17Z</time>
      </trkpt>
      <trkpt lat="43.47378" lon="6.39664">
        <ele>168</ele>
        <time>2022-04-08T12:26:18Z</time>
      </trkpt>
      <trkpt lat="43.47378" lon="6.39664">
        <ele>168</ele>
        <time>2022-04-08T12:26:19Z</time>
      </trkpt>
      <trkpt lat="43.47378" lon="6.39664">
        <ele>168</ele>
        <time>2022-04-08T12:26:20Z</time>
      </trkpt>
      <trkpt lat="43.47378" lon="6.39664">
        <ele>168</ele>
        <time>2022-04-08T12:26:21Z</time>
      </trkpt>
      <trkpt lat="43.47378" lon="6.39664">
        <ele>168</ele>
        <time>2022-04-08T12:26:22Z</time>
      </trkpt>
      <trkpt lat="43.47378" lon="6.39664">
        <ele>168</ele>
        <time>2022-04-08T12:26:23Z</time>
      </trkpt>
      <trkpt lat="43.47378" lon="6.39664">
        <ele>168</ele>
        <time>2022-04-08T12:26:24Z</time>
      </trkpt>
      <trkpt lat="43.47378" lon="6.39664">
        <ele>168</ele>
        <time>2022-04-08T12:26:25Z</time>
      </trkpt>
      <trkpt lat="43.47378" lon="6.39664">
        <ele>168</ele>
        <time>2022-04-08T12:26:26Z</time>
      </trkpt>
      <trkpt lat="43.47378" lon="6.39664">
        <ele>168</ele>
        <time>2022-04-08T12:26:27Z</time>
      </trkpt>
      <trkpt lat="43.47378" lon="6.39664">
        <ele>168</ele>
        <time>2022-04-08T12:26:28Z</time>
      </trkpt>
      <trkpt lat="43.47378" lon="6.39664">
        <ele>168</ele>
        <time>2022-04-08T12:26:29Z</time>
      </trkpt>
      <trkpt lat="43.47378" lon="6.39664">
        <ele>168</ele>
        <time>2022-04-08T12:26:30Z</time>
      </trkpt>
      <trkpt lat="43.47378" lon="6.39664">
        <ele>168</ele>
        <time>2022-04-08T12:26:31Z</time>
      </trkpt>
      <trkpt lat="43.47378" lon="6.39664">
        <ele>168</ele>
        <time>2022-04-08T12:26:32Z</time>
      </trkpt>
      <trkpt lat="43.47378" lon="6.39664">
        <ele>168</ele>
        <time>2022-04-08T12:26:33Z</time>
      </trkpt>
      <trkpt lat="43.47378" lon="6.39664">
        <ele>168</ele>
        <time>2022-04-08T12:26:34Z</time>
      </trkpt>
      <trkpt lat="43.47378" lon="6.39664">
        <ele>168</ele>
        <time>2022-04-08T12:26:35Z</time>
      </trkpt>
      <trkpt lat="43.47378" lon="6.39664">
        <ele>168</ele>
        <time>2022-04-08T12:26:36Z</time>
      </trkpt>
      <trkpt lat="43.47376" lon="6.39664">
        <ele>168</ele>
        <time>2022-04-08T12:26:37Z</time>
      </trkpt>
      <trkpt lat="43.47376" lon="6.39664">
        <ele>168</ele>
        <time>2022-04-08T12:26:38Z</time>
      </trkpt>
      <trkpt lat="43.47376" lon="6.39664">
        <ele>168</ele>
        <time>2022-04-08T12:26:39Z</time>
      </trkpt>
      <trkpt lat="43.47376" lon="6.39664">
        <ele>168</ele>
        <time>2022-04-08T12:26:40Z</time>
      </trkpt>
      <trkpt lat="43.47376" lon="6.39664">
        <ele>168</ele>
        <time>2022-04-08T12:26:41Z</time>
      </trkpt>
      <trkpt lat="43.47376" lon="6.39664">
        <ele>168</ele>
        <time>2022-04-08T12:26:42Z</time>
      </trkpt>
      <trkpt lat="43.47376" lon="6.39664">
        <ele>168</ele>
        <time>2022-04-08T12:26:43Z</time>
      </trkpt>
      <trkpt lat="43.47376" lon="6.39664">
        <ele>168</ele>
        <time>2022-04-08T12:26:44Z</time>
      </trkpt>
      <trkpt lat="43.47376" lon="6.39664">
        <ele>168</ele>
        <time>2022-04-08T12:26:45Z</time>
      </trkpt>
      <trkpt lat="43.47376" lon="6.39664">
        <ele>168</ele>
        <time>2022-04-08T12:26:46Z</time>
      </trkpt>
      <trkpt lat="43.47376" lon="6.39664">
        <ele>168</ele>
        <time>2022-04-08T12:26:47Z</time>
      </trkpt>
      <trkpt lat="43.47376" lon="6.39664">
        <ele>168</ele>
        <time>2022-04-08T12:26:48Z</time>
      </trkpt>
      <trkpt lat="43.47376" lon="6.39664">
        <ele>168</ele>
        <time>2022-04-08T12:26:49Z</time>
      </trkpt>
      <trkpt lat="43.47376" lon="6.39664">
        <ele>168</ele>
        <time>2022-04-08T12:26:50Z</time>
      </trkpt>
      <trkpt lat="43.47376" lon="6.39664">
        <ele>168</ele>
        <time>2022-04-08T12:26:51Z</time>
      </trkpt>
      <trkpt lat="43.47376" lon="6.39664">
        <ele>168</ele>
        <time>2022-04-08T12:26:52Z</time>
      </trkpt>
      <trkpt lat="43.47376" lon="6.39664">
        <ele>168</ele>
        <time>2022-04-08T12:26:53Z</time>
      </trkpt>
      <trkpt lat="43.47376" lon="6.39664">
        <ele>168</ele>
        <time>2022-04-08T12:26:54Z</time>
      </trkpt>
      <trkpt lat="43.47376" lon="6.39664">
        <ele>168</ele>
        <time>2022-04-08T12:26:55Z</time>
      </trkpt>
      <trkpt lat="43.47376" lon="6.39664">
        <ele>168</ele>
        <time>2022-04-08T12:26:56Z</time>
      </trkpt>
      <trkpt lat="43.47376" lon="6.39664">
        <ele>168</ele>
        <time>2022-04-08T12:26:57Z</time>
      </trkpt>
      <trkpt lat="43.47376" lon="6.39664">
        <ele>168</ele>
        <time>2022-04-08T12:26:58Z</time>
      </trkpt>
      <trkpt lat="43.47376" lon="6.39664">
        <ele>168</ele>
        <time>2022-04-08T12:26:59Z</time>
      </trkpt>
      <trkpt lat="43.47376" lon="6.39663">
        <ele>168</ele>
        <time>2022-04-08T12:27:00Z</time>
      </trkpt>
      <trkpt lat="43.47376" lon="6.39663">
        <ele>168</ele>
        <time>2022-04-08T12:27:01Z</time>
      </trkpt>
      <trkpt lat="43.47377" lon="6.39663">
        <ele>168</ele>
        <time>2022-04-08T12:27:02Z</time>
      </trkpt>
      <trkpt lat="43.47377" lon="6.39662">
        <ele>168</ele>
        <time>2022-04-08T12:27:03Z</time>
      </trkpt>
      <trkpt lat="43.47377" lon="6.39662">
        <ele>168</ele>
        <time>2022-04-08T12:27:04Z</time>
      </trkpt>
      <trkpt lat="43.47377" lon="6.39662">
        <ele>168</ele>
        <time>2022-04-08T12:27:05Z</time>
      </trkpt>
      <trkpt lat="43.47377" lon="6.39662">
        <ele>168</ele>
        <time>2022-04-08T12:27:06Z</time>
      </trkpt>
      <trkpt lat="43.47377" lon="6.39662">
        <ele>168</ele>
        <time>2022-04-08T12:27:07Z</time>
      </trkpt>
      <trkpt lat="43.47377" lon="6.39662">
        <ele>168</ele>
        <time>2022-04-08T12:27:08Z</time>
      </trkpt>
      <trkpt lat="43.47377" lon="6.39662">
        <ele>168</ele>
        <time>2022-04-08T12:27:09Z</time>
      </trkpt>
      <trkpt lat="43.47377" lon="6.39662">
        <ele>168</ele>
        <time>2022-04-08T12:27:10Z</time>
      </trkpt>
      <trkpt lat="43.47377" lon="6.39662">
        <ele>168</ele>
        <time>2022-04-08T12:27:11Z</time>
      </trkpt>
      <trkpt lat="43.47377" lon="6.39662">
        <ele>168</ele>
        <time>2022-04-08T12:27:12Z</time>
      </trkpt>
      <trkpt lat="43.47377" lon="6.39662">
        <ele>168</ele>
        <time>2022-04-08T12:27:13Z</time>
      </trkpt>
      <trkpt lat="43.47377" lon="6.39662">
        <ele>168</ele>
        <time>2022-04-08T12:27:14Z</time>
      </trkpt>
      <trkpt lat="43.47377" lon="6.39662">
        <ele>168</ele>
        <time>2022-04-08T12:27:15Z</time>
      </trkpt>
      <trkpt lat="43.47377" lon="6.39662">
        <ele>168</ele>
        <time>2022-04-08T12:27:16Z</time>
      </trkpt>
      <trkpt lat="43.47377" lon="6.39662">
        <ele>168</ele>
        <time>2022-04-08T12:27:17Z</time>
      </trkpt>
      <trkpt lat="43.47377" lon="6.39662">
        <ele>168</ele>
        <time>2022-04-08T12:27:18Z</time>
      </trkpt>
      <trkpt lat="43.47377" lon="6.39662">
        <ele>168</ele>
        <time>2022-04-08T12:27:19Z</time>
      </trkpt>
      <trkpt lat="43.47377" lon="6.39662">
        <ele>168</ele>
        <time>2022-04-08T12:27:20Z</time>
      </trkpt>
      <trkpt lat="43.47377" lon="6.39662">
        <ele>168</ele>
        <time>2022-04-08T12:27:21Z</time>
      </trkpt>
      <trkpt lat="43.47377" lon="6.39662">
        <ele>168</ele>
        <time>2022-04-08T12:27:22Z</time>
      </trkpt>
      <trkpt lat="43.47377" lon="6.39662">
        <ele>168</ele>
        <time>2022-04-08T12:27:23Z</time>
      </trkpt>
      <trkpt lat="43.47377" lon="6.39662">
        <ele>168</ele>
        <time>2022-04-08T12:27:24Z</time>
      </trkpt>
      <trkpt lat="43.47377" lon="6.39662">
        <ele>168</ele>
        <time>2022-04-08T12:27:25Z</time>
      </trkpt>
      <trkpt lat="43.47377" lon="6.39662">
        <ele>168</ele>
        <time>2022-04-08T12:27:26Z</time>
      </trkpt>
      <trkpt lat="43.47377" lon="6.39662">
        <ele>168</ele>
        <time>2022-04-08T12:27:27Z</time>
      </trkpt>
      <trkpt lat="43.47377" lon="6.39662">
        <ele>168</ele>
        <time>2022-04-08T12:27:28Z</time>
      </trkpt>
      <trkpt lat="43.47377" lon="6.39662">
        <ele>168</ele>
        <time>2022-04-08T12:27:29Z</time>
      </trkpt>
      <trkpt lat="43.47377" lon="6.39662">
        <ele>168</ele>
        <time>2022-04-08T12:27:30Z</time>
      </trkpt>
      <trkpt lat="43.47377" lon="6.39662">
        <ele>168</ele>
        <time>2022-04-08T12:27:31Z</time>
      </trkpt>
      <trkpt lat="43.47377" lon="6.39662">
        <ele>168</ele>
        <time>2022-04-08T12:27:32Z</time>
      </trkpt>
      <trkpt lat="43.47377" lon="6.39662">
        <ele>168</ele>
        <time>2022-04-08T12:27:33Z</time>
      </trkpt>
      <trkpt lat="43.47377" lon="6.39662">
        <ele>168</ele>
        <time>2022-04-08T12:27:34Z</time>
      </trkpt>
      <trkpt lat="43.47377" lon="6.39662">
        <ele>168</ele>
        <time>2022-04-08T12:27:35Z</time>
      </trkpt>
      <trkpt lat="43.47377" lon="6.39662">
        <ele>168</ele>
        <time>2022-04-08T12:27:36Z</time>
      </trkpt>
      <trkpt lat="43.47377" lon="6.39662">
        <ele>168</ele>
        <time>2022-04-08T12:27:37Z</time>
      </trkpt>
      <trkpt lat="43.47377" lon="6.39662">
        <ele>168</ele>
        <time>2022-04-08T12:27:38Z</time>
      </trkpt>
      <trkpt lat="43.47377" lon="6.39662">
        <ele>168</ele>
        <time>2022-04-08T12:27:39Z</time>
      </trkpt>
      <trkpt lat="43.47377" lon="6.39662">
        <ele>168</ele>
        <time>2022-04-08T12:27:40Z</time>
      </trkpt>
      <trkpt lat="43.47377" lon="6.39662">
        <ele>168</ele>
        <time>2022-04-08T12:27:41Z</time>
      </trkpt>
      <trkpt lat="43.47377" lon="6.39662">
        <ele>168</ele>
        <time>2022-04-08T12:27:42Z</time>
      </trkpt>
      <trkpt lat="43.47377" lon="6.39662">
        <ele>168</ele>
        <time>2022-04-08T12:27:43Z</time>
      </trkpt>
      <trkpt lat="43.47377" lon="6.39662">
        <ele>168</ele>
        <time>2022-04-08T12:27:44Z</time>
      </trkpt>
      <trkpt lat="43.47378" lon="6.3966">
        <ele>168</ele>
        <time>2022-04-08T12:27:45Z</time>
      </trkpt>
      <trkpt lat="43.47378" lon="6.3966">
        <ele>168</ele>
        <time>2022-04-08T12:27:46Z</time>
      </trkpt>
      <trkpt lat="43.47378" lon="6.3966">
        <ele>168</ele>
        <time>2022-04-08T12:27:47Z</time>
      </trkpt>
      <trkpt lat="43.47378" lon="6.3966">
        <ele>167</ele>
        <time>2022-04-08T12:27:48Z</time>
      </trkpt>
      <trkpt lat="43.47378" lon="6.39661">
        <ele>167</ele>
        <time>2022-04-08T12:27:49Z</time>
      </trkpt>
      <trkpt lat="43.47378" lon="6.39661">
        <ele>167</ele>
        <time>2022-04-08T12:27:50Z</time>
      </trkpt>
      <trkpt lat="43.47378" lon="6.39661">
        <ele>167</ele>
        <time>2022-04-08T12:27:51Z</time>
      </trkpt>
      <trkpt lat="43.47377" lon="6.39661">
        <ele>167</ele>
        <time>2022-04-08T12:27:52Z</time>
      </trkpt>
      <trkpt lat="43.47377" lon="6.39661">
        <ele>167</ele>
        <time>2022-04-08T12:27:53Z</time>
      </trkpt>
      <trkpt lat="43.47377" lon="6.39661">
        <ele>167</ele>
        <time>2022-04-08T12:27:54Z</time>
      </trkpt>
      <trkpt lat="43.47377" lon="6.39661">
        <ele>167</ele>
        <time>2022-04-08T12:27:55Z</time>
      </trkpt>
      <trkpt lat="43.47377" lon="6.39661">
        <ele>167</ele>
        <time>2022-04-08T12:27:56Z</time>
      </trkpt>
      <trkpt lat="43.47377" lon="6.39661">
        <ele>167</ele>
        <time>2022-04-08T12:27:57Z</time>
      </trkpt>
      <trkpt lat="43.47377" lon="6.39661">
        <ele>167</ele>
        <time>2022-04-08T12:27:58Z</time>
      </trkpt>
      <trkpt lat="43.47377" lon="6.39661">
        <ele>167</ele>
        <time>2022-04-08T12:27:59Z</time>
      </trkpt>
      <trkpt lat="43.47377" lon="6.39661">
        <ele>167</ele>
        <time>2022-04-08T12:28:00Z</time>
      </trkpt>
      <trkpt lat="43.47377" lon="6.39661">
        <ele>167</ele>
        <time>2022-04-08T12:28:01Z</time>
      </trkpt>
      <trkpt lat="43.47377" lon="6.39661">
        <ele>167</ele>
        <time>2022-04-08T12:28:02Z</time>
      </trkpt>
      <trkpt lat="43.47377" lon="6.39661">
        <ele>167</ele>
        <time>2022-04-08T12:28:03Z</time>
      </trkpt>
      <trkpt lat="43.47377" lon="6.39661">
        <ele>167</ele>
        <time>2022-04-08T12:28:04Z</time>
      </trkpt>
      <trkpt lat="43.47377" lon="6.39661">
        <ele>167</ele>
        <time>2022-04-08T12:28:05Z</time>
      </trkpt>
      <trkpt lat="43.47377" lon="6.39661">
        <ele>167</ele>
        <time>2022-04-08T12:28:06Z</time>
      </trkpt>
      <trkpt lat="43.47377" lon="6.39661">
        <ele>167</ele>
        <time>2022-04-08T12:28:07Z</time>
      </trkpt>
      <trkpt lat="43.47377" lon="6.39661">
        <ele>167</ele>
        <time>2022-04-08T12:28:08Z</time>
      </trkpt>
      <trkpt lat="43.47377" lon="6.39661">
        <ele>167</ele>
        <time>2022-04-08T12:28:09Z</time>
      </trkpt>
      <trkpt lat="43.47377" lon="6.39661">
        <ele>167</ele>
        <time>2022-04-08T12:28:10Z</time>
      </trkpt>
      <trkpt lat="43.47377" lon="6.39661">
        <ele>167</ele>
        <time>2022-04-08T12:28:11Z</time>
      </trkpt>
      <trkpt lat="43.47377" lon="6.39661">
        <ele>167</ele>
        <time>2022-04-08T12:28:12Z</time>
      </trkpt>
      <trkpt lat="43.47377" lon="6.39661">
        <ele>167</ele>
        <time>2022-04-08T12:28:13Z</time>
      </trkpt>
      <trkpt lat="43.47377" lon="6.39661">
        <ele>167</ele>
        <time>2022-04-08T12:28:14Z</time>
      </trkpt>
      <trkpt lat="43.47377" lon="6.39661">
        <ele>167</ele>
        <time>2022-04-08T12:28:15Z</time>
      </trkpt>
      <trkpt lat="43.47377" lon="6.39661">
        <ele>167</ele>
        <time>2022-04-08T12:28:16Z</time>
      </trkpt>
      <trkpt lat="43.47378" lon="6.3966">
        <ele>167</ele>
        <time>2022-04-08T12:28:17Z</time>
      </trkpt>
      <trkpt lat="43.47378" lon="6.3966">
        <ele>167</ele>
        <time>2022-04-08T12:28:18Z</time>
      </trkpt>
      <trkpt lat="43.47378" lon="6.3966">
        <ele>167</ele>
        <time>2022-04-08T12:28:19Z</time>
      </trkpt>
      <trkpt lat="43.47378" lon="6.3966">
        <ele>167</ele>
        <time>2022-04-08T12:28:20Z</time>
      </trkpt>
      <trkpt lat="43.47378" lon="6.3966">
        <ele>167</ele>
        <time>2022-04-08T12:28:21Z</time>
      </trkpt>
      <trkpt lat="43.47378" lon="6.3966">
        <ele>167</ele>
        <time>2022-04-08T12:28:22Z</time>
      </trkpt>
      <trkpt lat="43.47378" lon="6.3966">
        <ele>168</ele>
        <time>2022-04-08T12:28:23Z</time>
      </trkpt>
      <trkpt lat="43.47379" lon="6.3966">
        <ele>168</ele>
        <time>2022-04-08T12:28:24Z</time>
      </trkpt>
      <trkpt lat="43.47379" lon="6.3966">
        <ele>168</ele>
        <time>2022-04-08T12:28:25Z</time>
      </trkpt>
      <trkpt lat="43.47379" lon="6.3966">
        <ele>168</ele>
        <time>2022-04-08T12:28:26Z</time>
      </trkpt>
      <trkpt lat="43.47379" lon="6.3966">
        <ele>168</ele>
        <time>2022-04-08T12:28:27Z</time>
      </trkpt>
      <trkpt lat="43.47379" lon="6.3966">
        <ele>168</ele>
        <time>2022-04-08T12:28:28Z</time>
      </trkpt>
      <trkpt lat="43.47379" lon="6.3966">
        <ele>168</ele>
        <time>2022-04-08T12:28:29Z</time>
      </trkpt>
      <trkpt lat="43.47379" lon="6.3966">
        <ele>168</ele>
        <time>2022-04-08T12:28:30Z</time>
      </trkpt>
      <trkpt lat="43.47379" lon="6.3966">
        <ele>168</ele>
        <time>2022-04-08T12:28:31Z</time>
      </trkpt>
      <trkpt lat="43.47379" lon="6.3966">
        <ele>168</ele>
        <time>2022-04-08T12:28:32Z</time>
      </trkpt>
      <trkpt lat="43.47379" lon="6.3966">
        <ele>168</ele>
        <time>2022-04-08T12:28:33Z</time>
      </trkpt>
      <trkpt lat="43.47379" lon="6.3966">
        <ele>168</ele>
        <time>2022-04-08T12:28:34Z</time>
      </trkpt>
      <trkpt lat="43.47379" lon="6.3966">
        <ele>168</ele>
        <time>2022-04-08T12:28:35Z</time>
      </trkpt>
      <trkpt lat="43.47379" lon="6.3966">
        <ele>168</ele>
        <time>2022-04-08T12:28:36Z</time>
      </trkpt>
      <trkpt lat="43.47378" lon="6.39661">
        <ele>168</ele>
        <time>2022-04-08T12:28:37Z</time>
      </trkpt>
      <trkpt lat="43.47378" lon="6.39661">
        <ele>168</ele>
        <time>2022-04-08T12:28:38Z</time>
      </trkpt>
      <trkpt lat="43.47378" lon="6.39661">
        <ele>168</ele>
        <time>2022-04-08T12:28:39Z</time>
      </trkpt>
      <trkpt lat="43.47378" lon="6.39661">
        <ele>168</ele>
        <time>2022-04-08T12:28:40Z</time>
      </trkpt>
      <trkpt lat="43.47378" lon="6.39661">
        <ele>168</ele>
        <time>2022-04-08T12:28:41Z</time>
      </trkpt>
      <trkpt lat="43.47378" lon="6.39662">
        <ele>168</ele>
        <time>2022-04-08T12:28:42Z</time>
      </trkpt>
      <trkpt lat="43.47377" lon="6.39663">
        <ele>168</ele>
        <time>2022-04-08T12:28:43Z</time>
      </trkpt>
      <trkpt lat="43.47376" lon="6.39664">
        <ele>168</ele>
        <time>2022-04-08T12:28:44Z</time>
      </trkpt>
      <trkpt lat="43.47376" lon="6.39665">
        <ele>168</ele>
        <time>2022-04-08T12:28:45Z</time>
      </trkpt>
      <trkpt lat="43.47375" lon="6.39666">
        <ele>168</ele>
        <time>2022-04-08T12:28:46Z</time>
      </trkpt>
      <trkpt lat="43.47375" lon="6.39667">
        <ele>168</ele>
        <time>2022-04-08T12:28:47Z</time>
      </trkpt>
      <trkpt lat="43.47374" lon="6.39669">
        <ele>168</ele>
        <time>2022-04-08T12:28:48Z</time>
      </trkpt>
      <trkpt lat="43.47373" lon="6.3967">
        <ele>168</ele>
        <time>2022-04-08T12:28:49Z</time>
      </trkpt>
      <trkpt lat="43.47371" lon="6.39673">
        <ele>168</ele>
        <time>2022-04-08T12:28:50Z</time>
      </trkpt>
      <trkpt lat="43.47369" lon="6.39675">
        <ele>168</ele>
        <time>2022-04-08T12:28:51Z</time>
      </trkpt>
      <trkpt lat="43.47369" lon="6.39676">
        <ele>168</ele>
        <time>2022-04-08T12:28:52Z</time>
      </trkpt>
      <trkpt lat="43.47368" lon="6.39676">
        <ele>168</ele>
        <time>2022-04-08T12:28:53Z</time>
      </trkpt>
      <trkpt lat="43.47368" lon="6.39677">
        <ele>169</ele>
        <time>2022-04-08T12:28:54Z</time>
      </trkpt>
      <trkpt lat="43.47368" lon="6.39677">
        <ele>169</ele>
        <time>2022-04-08T12:28:55Z</time>
      </trkpt>
      <trkpt lat="43.47367" lon="6.39678">
        <ele>169</ele>
        <time>2022-04-08T12:28:56Z</time>
      </trkpt>
      <trkpt lat="43.47367" lon="6.39678">
        <ele>169</ele>
        <time>2022-04-08T12:28:57Z</time>
      </trkpt>
      <trkpt lat="43.47366" lon="6.3968">
        <ele>169</ele>
        <time>2022-04-08T12:28:58Z</time>
      </trkpt>
      <trkpt lat="43.47365" lon="6.39683">
        <ele>169</ele>
        <time>2022-04-08T12:28:59Z</time>
      </trkpt>
      <trkpt lat="43.47364" lon="6.39685">
        <ele>169</ele>
        <time>2022-04-08T12:29:00Z</time>
      </trkpt>
      <trkpt lat="43.47363" lon="6.39686">
        <ele>169</ele>
        <time>2022-04-08T12:29:01Z</time>
      </trkpt>
      <trkpt lat="43.47363" lon="6.39688">
        <ele>169</ele>
        <time>2022-04-08T12:29:02Z</time>
      </trkpt>
      <trkpt lat="43.47362" lon="6.39689">
        <ele>169</ele>
        <time>2022-04-08T12:29:03Z</time>
      </trkpt>
      <trkpt lat="43.47362" lon="6.3969">
        <ele>169</ele>
        <time>2022-04-08T12:29:04Z</time>
      </trkpt>
      <trkpt lat="43.47361" lon="6.39691">
        <ele>169</ele>
        <time>2022-04-08T12:29:05Z</time>
      </trkpt>
      <trkpt lat="43.47361" lon="6.39692">
        <ele>169</ele>
        <time>2022-04-08T12:29:06Z</time>
      </trkpt>
      <trkpt lat="43.4736" lon="6.39694">
        <ele>169</ele>
        <time>2022-04-08T12:29:07Z</time>
      </trkpt>
      <trkpt lat="43.47359" lon="6.39696">
        <ele>169</ele>
        <time>2022-04-08T12:29:08Z</time>
      </trkpt>
      <trkpt lat="43.47359" lon="6.39698">
        <ele>168</ele>
        <time>2022-04-08T12:29:09Z</time>
      </trkpt>
      <trkpt lat="43.47358" lon="6.39699">
        <ele>168</ele>
        <time>2022-04-08T12:29:10Z</time>
      </trkpt>
      <trkpt lat="43.47357" lon="6.397">
        <ele>168</ele>
        <time>2022-04-08T12:29:11Z</time>
      </trkpt>
      <trkpt lat="43.47357" lon="6.39701">
        <ele>168</ele>
        <time>2022-04-08T12:29:12Z</time>
      </trkpt>
      <trkpt lat="43.47356" lon="6.39702">
        <ele>168</ele>
        <time>2022-04-08T12:29:13Z</time>
      </trkpt>
      <trkpt lat="43.47356" lon="6.39703">
        <ele>168</ele>
        <time>2022-04-08T12:29:14Z</time>
      </trkpt>
      <trkpt lat="43.47356" lon="6.39705">
        <ele>168</ele>
        <time>2022-04-08T12:29:15Z</time>
      </trkpt>
      <trkpt lat="43.47355" lon="6.39706">
        <ele>167</ele>
        <time>2022-04-08T12:29:16Z</time>
      </trkpt>
      <trkpt lat="43.47355" lon="6.39707">
        <ele>167</ele>
        <time>2022-04-08T12:29:17Z</time>
      </trkpt>
      <trkpt lat="43.47355" lon="6.39708">
        <ele>167</ele>
        <time>2022-04-08T12:29:18Z</time>
      </trkpt>
      <trkpt lat="43.47354" lon="6.3971">
        <ele>167</ele>
        <time>2022-04-08T12:29:19Z</time>
      </trkpt>
      <trkpt lat="43.47354" lon="6.39711">
        <ele>168</ele>
        <time>2022-04-08T12:29:20Z</time>
      </trkpt>
      <trkpt lat="43.47354" lon="6.39712">
        <ele>168</ele>
        <time>2022-04-08T12:29:21Z</time>
      </trkpt>
      <trkpt lat="43.47354" lon="6.39712">
        <ele>168</ele>
        <time>2022-04-08T12:29:22Z</time>
      </trkpt>
      <trkpt lat="43.47354" lon="6.39713">
        <ele>168</ele>
        <time>2022-04-08T12:29:23Z</time>
      </trkpt>
      <trkpt lat="43.47354" lon="6.39713">
        <ele>168</ele>
        <time>2022-04-08T12:29:24Z</time>
      </trkpt>
      <trkpt lat="43.47354" lon="6.39714">
        <ele>168</ele>
        <time>2022-04-08T12:29:25Z</time>
      </trkpt>
      <trkpt lat="43.47353" lon="6.39715">
        <ele>168</ele>
        <time>2022-04-08T12:29:26Z</time>
      </trkpt>
      <trkpt lat="43.47353" lon="6.39716">
        <ele>168</ele>
        <time>2022-04-08T12:29:27Z</time>
      </trkpt>
      <trkpt lat="43.47353" lon="6.39717">
        <ele>169</ele>
        <time>2022-04-08T12:29:28Z</time>
      </trkpt>
      <trkpt lat="43.47353" lon="6.39718">
        <ele>169</ele>
        <time>2022-04-08T12:29:29Z</time>
      </trkpt>
      <trkpt lat="43.47352" lon="6.39719">
        <ele>169</ele>
        <time>2022-04-08T12:29:30Z</time>
      </trkpt>
      <trkpt lat="43.47352" lon="6.3972">
        <ele>169</ele>
        <time>2022-04-08T12:29:31Z</time>
      </trkpt>
      <trkpt lat="43.47351" lon="6.39721">
        <ele>169</ele>
        <time>2022-04-08T12:29:32Z</time>
      </trkpt>
      <trkpt lat="43.47351" lon="6.39722">
        <ele>169</ele>
        <time>2022-04-08T12:29:33Z</time>
      </trkpt>
      <trkpt lat="43.47351" lon="6.39723">
        <ele>169</ele>
        <time>2022-04-08T12:29:34Z</time>
      </trkpt>
      <trkpt lat="43.4735" lon="6.39724">
        <ele>170</ele>
        <time>2022-04-08T12:29:35Z</time>
      </trkpt>
      <trkpt lat="43.4735" lon="6.39724">
        <ele>170</ele>
        <time>2022-04-08T12:29:36Z</time>
      </trkpt>
      <trkpt lat="43.4735" lon="6.39725">
        <ele>170</ele>
        <time>2022-04-08T12:29:37Z</time>
      </trkpt>
      <trkpt lat="43.47349" lon="6.39726">
        <ele>170</ele>
        <time>2022-04-08T12:29:38Z</time>
      </trkpt>
      <trkpt lat="43.47349" lon="6.39727">
        <ele>170</ele>
        <time>2022-04-08T12:29:39Z</time>
      </trkpt>
      <trkpt lat="43.47349" lon="6.39728">
        <ele>170</ele>
        <time>2022-04-08T12:29:40Z</time>
      </trkpt>
      <trkpt lat="43.47348" lon="6.39729">
        <ele>170</ele>
        <time>2022-04-08T12:29:41Z</time>
      </trkpt>
      <trkpt lat="43.47348" lon="6.39729">
        <ele>170</ele>
        <time>2022-04-08T12:29:42Z</time>
      </trkpt>
      <trkpt lat="43.47347" lon="6.3973">
        <ele>170</ele>
        <time>2022-04-08T12:29:43Z</time>
      </trkpt>
      <trkpt lat="43.47347" lon="6.39731">
        <ele>170</ele>
        <time>2022-04-08T12:29:44Z</time>
      </trkpt>
      <trkpt lat="43.47347" lon="6.39731">
        <ele>170</ele>
        <time>2022-04-08T12:29:45Z</time>
      </trkpt>
      <trkpt lat="43.47346" lon="6.39732">
        <ele>170</ele>
        <time>2022-04-08T12:29:46Z</time>
      </trkpt>
      <trkpt lat="43.47345" lon="6.39733">
        <ele>170</ele>
        <time>2022-04-08T12:29:47Z</time>
      </trkpt>
      <trkpt lat="43.47345" lon="6.39734">
        <ele>170</ele>
        <time>2022-04-08T12:29:48Z</time>
      </trkpt>
      <trkpt lat="43.47344" lon="6.39735">
        <ele>170</ele>
        <time>2022-04-08T12:29:49Z</time>
      </trkpt>
      <trkpt lat="43.47343" lon="6.39736">
        <ele>170</ele>
        <time>2022-04-08T12:29:50Z</time>
      </trkpt>
      <trkpt lat="43.47343" lon="6.39737">
        <ele>170</ele>
        <time>2022-04-08T12:29:51Z</time>
      </trkpt>
      <trkpt lat="43.47342" lon="6.39739">
        <ele>170</ele>
        <time>2022-04-08T12:29:52Z</time>
      </trkpt>
      <trkpt lat="43.47342" lon="6.3974">
        <ele>170</ele>
        <time>2022-04-08T12:29:53Z</time>
      </trkpt>
      <trkpt lat="43.47341" lon="6.39741">
        <ele>171</ele>
        <time>2022-04-08T12:29:54Z</time>
      </trkpt>
      <trkpt lat="43.47341" lon="6.39743">
        <ele>171</ele>
        <time>2022-04-08T12:29:55Z</time>
      </trkpt>
      <trkpt lat="43.4734" lon="6.39745">
        <ele>171</ele>
        <time>2022-04-08T12:29:56Z</time>
      </trkpt>
      <trkpt lat="43.47339" lon="6.39747">
        <ele>171</ele>
        <time>2022-04-08T12:29:57Z</time>
      </trkpt>
      <trkpt lat="43.47338" lon="6.39749">
        <ele>171</ele>
        <time>2022-04-08T12:29:58Z</time>
      </trkpt>
      <trkpt lat="43.47338" lon="6.39751">
        <ele>173</ele>
        <time>2022-04-08T12:29:59Z</time>
      </trkpt>
      <trkpt lat="43.47337" lon="6.39753">
        <ele>174</ele>
        <time>2022-04-08T12:30:00Z</time>
      </trkpt>
      <trkpt lat="43.47337" lon="6.39754">
        <ele>175</ele>
        <time>2022-04-08T12:30:01Z</time>
      </trkpt>
      <trkpt lat="43.47336" lon="6.39755">
        <ele>175</ele>
        <time>2022-04-08T12:30:02Z</time>
      </trkpt>
      <trkpt lat="43.47336" lon="6.39756">
        <ele>175</ele>
        <time>2022-04-08T12:30:03Z</time>
      </trkpt>
      <trkpt lat="43.47336" lon="6.39757">
        <ele>176</ele>
        <time>2022-04-08T12:30:04Z</time>
      </trkpt>
      <trkpt lat="43.47335" lon="6.39758">
        <ele>176</ele>
        <time>2022-04-08T12:30:05Z</time>
      </trkpt>
      <trkpt lat="43.47335" lon="6.39758">
        <ele>176</ele>
        <time>2022-04-08T12:30:06Z</time>
      </trkpt>
      <trkpt lat="43.47335" lon="6.39759">
        <ele>176</ele>
        <time>2022-04-08T12:30:07Z</time>
      </trkpt>
      <trkpt lat="43.47335" lon="6.39759">
        <ele>177</ele>
        <time>2022-04-08T12:30:08Z</time>
      </trkpt>
      <trkpt lat="43.47335" lon="6.3976">
        <ele>177</ele>
        <time>2022-04-08T12:30:09Z</time>
      </trkpt>
      <trkpt lat="43.47334" lon="6.39762">
        <ele>177</ele>
        <time>2022-04-08T12:30:10Z</time>
      </trkpt>
      <trkpt lat="43.47334" lon="6.39764">
        <ele>177</ele>
        <time>2022-04-08T12:30:11Z</time>
      </trkpt>
      <trkpt lat="43.47333" lon="6.39765">
        <ele>178</ele>
        <time>2022-04-08T12:30:12Z</time>
      </trkpt>
      <trkpt lat="43.47333" lon="6.39766">
        <ele>178</ele>
        <time>2022-04-08T12:30:13Z</time>
      </trkpt>
      <trkpt lat="43.47333" lon="6.39766">
        <ele>179</ele>
        <time>2022-04-08T12:30:14Z</time>
      </trkpt>
      <trkpt lat="43.47333" lon="6.39767">
        <ele>179</ele>
        <time>2022-04-08T12:30:15Z</time>
      </trkpt>
      <trkpt lat="43.47333" lon="6.39768">
        <ele>179</ele>
        <time>2022-04-08T12:30:16Z</time>
      </trkpt>
      <trkpt lat="43.47332" lon="6.39768">
        <ele>178</ele>
        <time>2022-04-08T12:30:17Z</time>
      </trkpt>
      <trkpt lat="43.47332" lon="6.39769">
        <ele>178</ele>
        <time>2022-04-08T12:30:18Z</time>
      </trkpt>
      <trkpt lat="43.47332" lon="6.3977">
        <ele>178</ele>
        <time>2022-04-08T12:30:19Z</time>
      </trkpt>
      <trkpt lat="43.47332" lon="6.3977">
        <ele>178</ele>
        <time>2022-04-08T12:30:20Z</time>
      </trkpt>
      <trkpt lat="43.47331" lon="6.39771">
        <ele>178</ele>
        <time>2022-04-08T12:30:21Z</time>
      </trkpt>
      <trkpt lat="43.47331" lon="6.39773">
        <ele>178</ele>
        <time>2022-04-08T12:30:22Z</time>
      </trkpt>
      <trkpt lat="43.4733" lon="6.39775">
        <ele>178</ele>
        <time>2022-04-08T12:30:23Z</time>
      </trkpt>
      <trkpt lat="43.47329" lon="6.39776">
        <ele>178</ele>
        <time>2022-04-08T12:30:24Z</time>
      </trkpt>
      <trkpt lat="43.47328" lon="6.39777">
        <ele>178</ele>
        <time>2022-04-08T12:30:25Z</time>
      </trkpt>
      <trkpt lat="43.47328" lon="6.39778">
        <ele>178</ele>
        <time>2022-04-08T12:30:26Z</time>
      </trkpt>
      <trkpt lat="43.47328" lon="6.39779">
        <ele>178</ele>
        <time>2022-04-08T12:30:27Z</time>
      </trkpt>
      <trkpt lat="43.47328" lon="6.3978">
        <ele>178</ele>
        <time>2022-04-08T12:30:28Z</time>
      </trkpt>
      <trkpt lat="43.47328" lon="6.39781">
        <ele>178</ele>
        <time>2022-04-08T12:30:29Z</time>
      </trkpt>
      <trkpt lat="43.47328" lon="6.39781">
        <ele>178</ele>
        <time>2022-04-08T12:30:30Z</time>
      </trkpt>
      <trkpt lat="43.47327" lon="6.39783">
        <ele>178</ele>
        <time>2022-04-08T12:30:31Z</time>
      </trkpt>
      <trkpt lat="43.47327" lon="6.39785">
        <ele>178</ele>
        <time>2022-04-08T12:30:32Z</time>
      </trkpt>
      <trkpt lat="43.47326" lon="6.39787">
        <ele>178</ele>
        <time>2022-04-08T12:30:33Z</time>
      </trkpt>
      <trkpt lat="43.47325" lon="6.39789">
        <ele>178</ele>
        <time>2022-04-08T12:30:34Z</time>
      </trkpt>
      <trkpt lat="43.47324" lon="6.39791">
        <ele>177</ele>
        <time>2022-04-08T12:30:35Z</time>
      </trkpt>
      <trkpt lat="43.47324" lon="6.39792">
        <ele>177</ele>
        <time>2022-04-08T12:30:36Z</time>
      </trkpt>
      <trkpt lat="43.47323" lon="6.39793">
        <ele>177</ele>
        <time>2022-04-08T12:30:37Z</time>
      </trkpt>
      <trkpt lat="43.47323" lon="6.39794">
        <ele>177</ele>
        <time>2022-04-08T12:30:38Z</time>
      </trkpt>
      <trkpt lat="43.47322" lon="6.39795">
        <ele>177</ele>
        <time>2022-04-08T12:30:39Z</time>
      </trkpt>
      <trkpt lat="43.47321" lon="6.39797">
        <ele>177</ele>
        <time>2022-04-08T12:30:40Z</time>
      </trkpt>
      <trkpt lat="43.47321" lon="6.39798">
        <ele>177</ele>
        <time>2022-04-08T12:30:41Z</time>
      </trkpt>
      <trkpt lat="43.4732" lon="6.398">
        <ele>177</ele>
        <time>2022-04-08T12:30:42Z</time>
      </trkpt>
      <trkpt lat="43.47319" lon="6.39801">
        <ele>176</ele>
        <time>2022-04-08T12:30:43Z</time>
      </trkpt>
      <trkpt lat="43.47319" lon="6.39802">
        <ele>176</ele>
        <time>2022-04-08T12:30:44Z</time>
      </trkpt>
      <trkpt lat="43.47318" lon="6.39802">
        <ele>176</ele>
        <time>2022-04-08T12:30:45Z</time>
      </trkpt>
      <trkpt lat="43.47318" lon="6.39803">
        <ele>176</ele>
        <time>2022-04-08T12:30:46Z</time>
      </trkpt>
      <trkpt lat="43.47318" lon="6.39803">
        <ele>176</ele>
        <time>2022-04-08T12:30:47Z</time>
      </trkpt>
      <trkpt lat="43.47317" lon="6.39804">
        <ele>176</ele>
        <time>2022-04-08T12:30:48Z</time>
      </trkpt>
      <trkpt lat="43.47317" lon="6.39804">
        <ele>176</ele>
        <time>2022-04-08T12:30:49Z</time>
      </trkpt>
      <trkpt lat="43.47317" lon="6.39804">
        <ele>176</ele>
        <time>2022-04-08T12:30:50Z</time>
      </trkpt>
      <trkpt lat="43.47317" lon="6.39805">
        <ele>176</ele>
        <time>2022-04-08T12:30:51Z</time>
      </trkpt>
      <trkpt lat="43.47316" lon="6.39805">
        <ele>176</ele>
        <time>2022-04-08T12:30:52Z</time>
      </trkpt>
      <trkpt lat="43.47316" lon="6.39805">
        <ele>176</ele>
        <time>2022-04-08T12:30:53Z</time>
      </trkpt>
      <trkpt lat="43.47316" lon="6.39806">
        <ele>176</ele>
        <time>2022-04-08T12:30:54Z</time>
      </trkpt>
      <trkpt lat="43.47316" lon="6.39806">
        <ele>176</ele>
        <time>2022-04-08T12:30:55Z</time>
      </trkpt>
      <trkpt lat="43.47316" lon="6.39806">
        <ele>176</ele>
        <time>2022-04-08T12:30:56Z</time>
      </trkpt>
      <trkpt lat="43.47316" lon="6.39806">
        <ele>176</ele>
        <time>2022-04-08T12:30:57Z</time>
      </trkpt>
      <trkpt lat="43.47316" lon="6.39806">
        <ele>176</ele>
        <time>2022-04-08T12:30:58Z</time>
      </trkpt>
      <trkpt lat="43.47316" lon="6.39806">
        <ele>176</ele>
        <time>2022-04-08T12:30:59Z</time>
      </trkpt>
      <trkpt lat="43.47315" lon="6.39807">
        <ele>176</ele>
        <time>2022-04-08T12:31:00Z</time>
      </trkpt>
      <trkpt lat="43.47315" lon="6.39807">
        <ele>176</ele>
        <time>2022-04-08T12:31:01Z</time>
      </trkpt>
      <trkpt lat="43.47315" lon="6.39807">
        <ele>176</ele>
        <time>2022-04-08T12:31:02Z</time>
      </trkpt>
      <trkpt lat="43.47315" lon="6.39807">
        <ele>176</ele>
        <time>2022-04-08T12:31:03Z</time>
      </trkpt>
      <trkpt lat="43.47315" lon="6.39807">
        <ele>176</ele>
        <time>2022-04-08T12:31:04Z</time>
      </trkpt>
      <trkpt lat="43.47315" lon="6.39807">
        <ele>176</ele>
        <time>2022-04-08T12:31:05Z</time>
      </trkpt>
      <trkpt lat="43.47315" lon="6.39807">
        <ele>176</ele>
        <time>2022-04-08T12:31:06Z</time>
      </trkpt>
      <trkpt lat="43.47315" lon="6.39807">
        <ele>176</ele>
        <time>2022-04-08T12:31:07Z</time>
      </trkpt>
      <trkpt lat="43.47315" lon="6.39807">
        <ele>176</ele>
        <time>2022-04-08T12:31:08Z</time>
      </trkpt>
      <trkpt lat="43.47315" lon="6.39807">
        <ele>176</ele>
        <time>2022-04-08T12:31:09Z</time>
      </trkpt>
      <trkpt lat="43.47315" lon="6.39807">
        <ele>176</ele>
        <time>2022-04-08T12:31:10Z</time>
      </trkpt>
      <trkpt lat="43.47315" lon="6.39807">
        <ele>176</ele>
        <time>2022-04-08T12:31:11Z</time>
      </trkpt>
      <trkpt lat="43.47312" lon="6.39807">
        <ele>176</ele>
        <time>2022-04-08T12:31:12Z</time>
      </trkpt>
      <trkpt lat="43.47312" lon="6.39808">
        <ele>176</ele>
        <time>2022-04-08T12:31:13Z</time>
      </trkpt>
      <trkpt lat="43.47311" lon="6.39808">
        <ele>176</ele>
        <time>2022-04-08T12:31:14Z</time>
      </trkpt>
      <trkpt lat="43.4731" lon="6.3981">
        <ele>176</ele>
        <time>2022-04-08T12:31:15Z</time>
      </trkpt>
      <trkpt lat="43.47309" lon="6.39812">
        <ele>174</ele>
        <time>2022-04-08T12:31:16Z</time>
      </trkpt>
      <trkpt lat="43.47308" lon="6.39815">
        <ele>174</ele>
        <time>2022-04-08T12:31:17Z</time>
      </trkpt>
      <trkpt lat="43.47307" lon="6.39817">
        <ele>174</ele>
        <time>2022-04-08T12:31:18Z</time>
      </trkpt>
      <trkpt lat="43.47306" lon="6.39818">
        <ele>174</ele>
        <time>2022-04-08T12:31:19Z</time>
      </trkpt>
      <trkpt lat="43.47305" lon="6.39819">
        <ele>174</ele>
        <time>2022-04-08T12:31:20Z</time>
      </trkpt>
      <trkpt lat="43.47304" lon="6.3982">
        <ele>174</ele>
        <time>2022-04-08T12:31:21Z</time>
      </trkpt>
      <trkpt lat="43.47303" lon="6.3982">
        <ele>174</ele>
        <time>2022-04-08T12:31:22Z</time>
      </trkpt>
      <trkpt lat="43.47303" lon="6.39821">
        <ele>174</ele>
        <time>2022-04-08T12:31:23Z</time>
      </trkpt>
      <trkpt lat="43.47302" lon="6.39822">
        <ele>174</ele>
        <time>2022-04-08T12:31:24Z</time>
      </trkpt>
      <trkpt lat="43.47302" lon="6.39823">
        <ele>174</ele>
        <time>2022-04-08T12:31:25Z</time>
      </trkpt>
      <trkpt lat="43.47301" lon="6.39824">
        <ele>174</ele>
        <time>2022-04-08T12:31:26Z</time>
      </trkpt>
      <trkpt lat="43.47301" lon="6.39825">
        <ele>174</ele>
        <time>2022-04-08T12:31:27Z</time>
      </trkpt>
      <trkpt lat="43.473" lon="6.39826">
        <ele>176</ele>
        <time>2022-04-08T12:31:28Z</time>
      </trkpt>
      <trkpt lat="43.473" lon="6.39827">
        <ele>176</ele>
        <time>2022-04-08T12:31:29Z</time>
      </trkpt>
      <trkpt lat="43.47299" lon="6.39829">
        <ele>176</ele>
        <time>2022-04-08T12:31:30Z</time>
      </trkpt>
      <trkpt lat="43.47298" lon="6.3983">
        <ele>176</ele>
        <time>2022-04-08T12:31:31Z</time>
      </trkpt>
      <trkpt lat="43.47298" lon="6.39831">
        <ele>177</ele>
        <time>2022-04-08T12:31:32Z</time>
      </trkpt>
      <trkpt lat="43.47297" lon="6.39833">
        <ele>177</ele>
        <time>2022-04-08T12:31:33Z</time>
      </trkpt>
      <trkpt lat="43.47297" lon="6.39834">
        <ele>177</ele>
        <time>2022-04-08T12:31:34Z</time>
      </trkpt>
      <trkpt lat="43.47296" lon="6.39835">
        <ele>177</ele>
        <time>2022-04-08T12:31:35Z</time>
      </trkpt>
      <trkpt lat="43.47296" lon="6.39836">
        <ele>177</ele>
        <time>2022-04-08T12:31:36Z</time>
      </trkpt>
      <trkpt lat="43.47295" lon="6.39837">
        <ele>177</ele>
        <time>2022-04-08T12:31:37Z</time>
      </trkpt>
      <trkpt lat="43.47294" lon="6.39839">
        <ele>178</ele>
        <time>2022-04-08T12:31:38Z</time>
      </trkpt>
      <trkpt lat="43.47293" lon="6.3984">
        <ele>179</ele>
        <time>2022-04-08T12:31:39Z</time>
      </trkpt>
      <trkpt lat="43.47293" lon="6.39842">
        <ele>179</ele>
        <time>2022-04-08T12:31:40Z</time>
      </trkpt>
      <trkpt lat="43.47292" lon="6.39843">
        <ele>179</ele>
        <time>2022-04-08T12:31:41Z</time>
      </trkpt>
      <trkpt lat="43.4729" lon="6.39846">
        <ele>179</ele>
        <time>2022-04-08T12:31:42Z</time>
      </trkpt>
      <trkpt lat="43.47288" lon="6.39848">
        <ele>179</ele>
        <time>2022-04-08T12:31:43Z</time>
      </trkpt>
      <trkpt lat="43.47286" lon="6.39852">
        <ele>179</ele>
        <time>2022-04-08T12:31:44Z</time>
      </trkpt>
      <trkpt lat="43.47284" lon="6.39855">
        <ele>179</ele>
        <time>2022-04-08T12:31:45Z</time>
      </trkpt>
      <trkpt lat="43.47283" lon="6.39857">
        <ele>179</ele>
        <time>2022-04-08T12:31:46Z</time>
      </trkpt>
      <trkpt lat="43.47281" lon="6.39859">
        <ele>180</ele>
        <time>2022-04-08T12:31:47Z</time>
      </trkpt>
      <trkpt lat="43.4728" lon="6.39861">
        <ele>180</ele>
        <time>2022-04-08T12:31:48Z</time>
      </trkpt>
      <trkpt lat="43.47279" lon="6.39862">
        <ele>180</ele>
        <time>2022-04-08T12:31:49Z</time>
      </trkpt>
      <trkpt lat="43.47278" lon="6.39864">
        <ele>180</ele>
        <time>2022-04-08T12:31:50Z</time>
      </trkpt>
      <trkpt lat="43.47277" lon="6.39866">
        <ele>180</ele>
        <time>2022-04-08T12:31:51Z</time>
      </trkpt>
      <trkpt lat="43.47276" lon="6.39867">
        <ele>180</ele>
        <time>2022-04-08T12:31:52Z</time>
      </trkpt>
      <trkpt lat="43.47275" lon="6.39869">
        <ele>180</ele>
        <time>2022-04-08T12:31:53Z</time>
      </trkpt>
      <trkpt lat="43.47274" lon="6.39871">
        <ele>180</ele>
        <time>2022-04-08T12:31:54Z</time>
      </trkpt>
      <trkpt lat="43.47274" lon="6.39873">
        <ele>180</ele>
        <time>2022-04-08T12:31:55Z</time>
      </trkpt>
      <trkpt lat="43.47273" lon="6.39874">
        <ele>180</ele>
        <time>2022-04-08T12:31:56Z</time>
      </trkpt>
      <trkpt lat="43.47272" lon="6.39876">
        <ele>180</ele>
        <time>2022-04-08T12:31:57Z</time>
      </trkpt>
      <trkpt lat="43.47271" lon="6.39878">
        <ele>180</ele>
        <time>2022-04-08T12:31:58Z</time>
      </trkpt>
      <trkpt lat="43.4727" lon="6.39879">
        <ele>180</ele>
        <time>2022-04-08T12:31:59Z</time>
      </trkpt>
      <trkpt lat="43.47269" lon="6.39881">
        <ele>180</ele>
        <time>2022-04-08T12:32:00Z</time>
      </trkpt>
      <trkpt lat="43.47269" lon="6.39883">
        <ele>181</ele>
        <time>2022-04-08T12:32:01Z</time>
      </trkpt>
      <trkpt lat="43.47268" lon="6.39885">
        <ele>181</ele>
        <time>2022-04-08T12:32:02Z</time>
      </trkpt>
      <trkpt lat="43.47267" lon="6.39887">
        <ele>181</ele>
        <time>2022-04-08T12:32:03Z</time>
      </trkpt>
      <trkpt lat="43.47266" lon="6.3989">
        <ele>182</ele>
        <time>2022-04-08T12:32:04Z</time>
      </trkpt>
      <trkpt lat="43.47266" lon="6.39892">
        <ele>182</ele>
        <time>2022-04-08T12:32:05Z</time>
      </trkpt>
      <trkpt lat="43.47265" lon="6.39894">
        <ele>182</ele>
        <time>2022-04-08T12:32:06Z</time>
      </trkpt>
      <trkpt lat="43.47265" lon="6.39896">
        <ele>183</ele>
        <time>2022-04-08T12:32:07Z</time>
      </trkpt>
      <trkpt lat="43.47264" lon="6.39899">
        <ele>184</ele>
        <time>2022-04-08T12:32:08Z</time>
      </trkpt>
      <trkpt lat="43.47263" lon="6.39901">
        <ele>184</ele>
        <time>2022-04-08T12:32:09Z</time>
      </trkpt>
      <trkpt lat="43.47263" lon="6.39903">
        <ele>184</ele>
        <time>2022-04-08T12:32:10Z</time>
      </trkpt>
      <trkpt lat="43.47262" lon="6.39905">
        <ele>185</ele>
        <time>2022-04-08T12:32:11Z</time>
      </trkpt>
      <trkpt lat="43.47262" lon="6.39907">
        <ele>185</ele>
        <time>2022-04-08T12:32:12Z</time>
      </trkpt>
      <trkpt lat="43.47262" lon="6.39909">
        <ele>185</ele>
        <time>2022-04-08T12:32:13Z</time>
      </trkpt>
      <trkpt lat="43.47261" lon="6.39911">
        <ele>185</ele>
        <time>2022-04-08T12:32:14Z</time>
      </trkpt>
      <trkpt lat="43.47261" lon="6.39913">
        <ele>185</ele>
        <time>2022-04-08T12:32:15Z</time>
      </trkpt>
      <trkpt lat="43.47261" lon="6.39915">
        <ele>185</ele>
        <time>2022-04-08T12:32:16Z</time>
      </trkpt>
      <trkpt lat="43.4726" lon="6.39917">
        <ele>185</ele>
        <time>2022-04-08T12:32:17Z</time>
      </trkpt>
      <trkpt lat="43.4726" lon="6.39919">
        <ele>185</ele>
        <time>2022-04-08T12:32:18Z</time>
      </trkpt>
      <trkpt lat="43.4726" lon="6.39921">
        <ele>186</ele>
        <time>2022-04-08T12:32:19Z</time>
      </trkpt>
      <trkpt lat="43.4726" lon="6.39923">
        <ele>186</ele>
        <time>2022-04-08T12:32:20Z</time>
      </trkpt>
      <trkpt lat="43.47259" lon="6.39925">
        <ele>186</ele>
        <time>2022-04-08T12:32:21Z</time>
      </trkpt>
      <trkpt lat="43.47259" lon="6.39927">
        <ele>186</ele>
        <time>2022-04-08T12:32:22Z</time>
      </trkpt>
      <trkpt lat="43.47259" lon="6.39929">
        <ele>186</ele>
        <time>2022-04-08T12:32:23Z</time>
      </trkpt>
      <trkpt lat="43.47258" lon="6.39931">
        <ele>187</ele>
        <time>2022-04-08T12:32:24Z</time>
      </trkpt>
      <trkpt lat="43.47258" lon="6.39933">
        <ele>188</ele>
        <time>2022-04-08T12:32:25Z</time>
      </trkpt>
      <trkpt lat="43.47258" lon="6.39935">
        <ele>188</ele>
        <time>2022-04-08T12:32:26Z</time>
      </trkpt>
      <trkpt lat="43.47258" lon="6.39937">
        <ele>188</ele>
        <time>2022-04-08T12:32:27Z</time>
      </trkpt>
      <trkpt lat="43.47258" lon="6.39939">
        <ele>189</ele>
        <time>2022-04-08T12:32:28Z</time>
      </trkpt>
      <trkpt lat="43.47258" lon="6.39941">
        <ele>189</ele>
        <time>2022-04-08T12:32:29Z</time>
      </trkpt>
      <trkpt lat="43.47257" lon="6.39943">
        <ele>189</ele>
        <time>2022-04-08T12:32:30Z</time>
      </trkpt>
      <trkpt lat="43.47257" lon="6.39944">
        <ele>189</ele>
        <time>2022-04-08T12:32:31Z</time>
      </trkpt>
      <trkpt lat="43.47257" lon="6.39945">
        <ele>189</ele>
        <time>2022-04-08T12:32:32Z</time>
      </trkpt>
      <trkpt lat="43.47257" lon="6.39946">
        <ele>189</ele>
        <time>2022-04-08T12:32:33Z</time>
      </trkpt>
      <trkpt lat="43.47257" lon="6.39947">
        <ele>189</ele>
        <time>2022-04-08T12:32:34Z</time>
      </trkpt>
      <trkpt lat="43.47258" lon="6.39948">
        <ele>189</ele>
        <time>2022-04-08T12:32:35Z</time>
      </trkpt>
      <trkpt lat="43.47258" lon="6.39949">
        <ele>190</ele>
        <time>2022-04-08T12:32:36Z</time>
      </trkpt>
      <trkpt lat="43.47258" lon="6.39951">
        <ele>190</ele>
        <time>2022-04-08T12:32:37Z</time>
      </trkpt>
      <trkpt lat="43.47258" lon="6.39952">
        <ele>190</ele>
        <time>2022-04-08T12:32:38Z</time>
      </trkpt>
      <trkpt lat="43.47258" lon="6.39954">
        <ele>189</ele>
        <time>2022-04-08T12:32:39Z</time>
      </trkpt>
      <trkpt lat="43.47258" lon="6.39955">
        <ele>189</ele>
        <time>2022-04-08T12:32:40Z</time>
      </trkpt>
      <trkpt lat="43.47258" lon="6.39957">
        <ele>189</ele>
        <time>2022-04-08T12:32:41Z</time>
      </trkpt>
      <trkpt lat="43.47258" lon="6.39958">
        <ele>189</ele>
        <time>2022-04-08T12:32:42Z</time>
      </trkpt>
      <trkpt lat="43.47258" lon="6.3996">
        <ele>189</ele>
        <time>2022-04-08T12:32:43Z</time>
      </trkpt>
      <trkpt lat="43.47258" lon="6.39961">
        <ele>189</ele>
        <time>2022-04-08T12:32:44Z</time>
      </trkpt>
      <trkpt lat="43.47258" lon="6.39963">
        <ele>189</ele>
        <time>2022-04-08T12:32:45Z</time>
      </trkpt>
      <trkpt lat="43.47258" lon="6.39964">
        <ele>189</ele>
        <time>2022-04-08T12:32:46Z</time>
      </trkpt>
      <trkpt lat="43.47258" lon="6.39966">
        <ele>189</ele>
        <time>2022-04-08T12:32:47Z</time>
      </trkpt>
      <trkpt lat="43.47258" lon="6.39967">
        <ele>189</ele>
        <time>2022-04-08T12:32:48Z</time>
      </trkpt>
      <trkpt lat="43.47258" lon="6.39968">
        <ele>189</ele>
        <time>2022-04-08T12:32:49Z</time>
      </trkpt>
      <trkpt lat="43.47258" lon="6.3997">
        <ele>188</ele>
        <time>2022-04-08T12:32:50Z</time>
      </trkpt>
      <trkpt lat="43.47258" lon="6.39971">
        <ele>188</ele>
        <time>2022-04-08T12:32:51Z</time>
      </trkpt>
      <trkpt lat="43.47258" lon="6.39973">
        <ele>188</ele>
        <time>2022-04-08T12:32:52Z</time>
      </trkpt>
      <trkpt lat="43.47258" lon="6.39974">
        <ele>188</ele>
        <time>2022-04-08T12:32:53Z</time>
      </trkpt>
      <trkpt lat="43.47258" lon="6.39975">
        <ele>188</ele>
        <time>2022-04-08T12:32:54Z</time>
      </trkpt>
      <trkpt lat="43.47258" lon="6.39976">
        <ele>188</ele>
        <time>2022-04-08T12:32:55Z</time>
      </trkpt>
      <trkpt lat="43.47258" lon="6.39978">
        <ele>188</ele>
        <time>2022-04-08T12:32:56Z</time>
      </trkpt>
      <trkpt lat="43.47258" lon="6.39979">
        <ele>188</ele>
        <time>2022-04-08T12:32:57Z</time>
      </trkpt>
      <trkpt lat="43.47257" lon="6.3998">
        <ele>187</ele>
        <time>2022-04-08T12:32:58Z</time>
      </trkpt>
      <trkpt lat="43.47257" lon="6.39981">
        <ele>187</ele>
        <time>2022-04-08T12:32:59Z</time>
      </trkpt>
      <trkpt lat="43.47257" lon="6.39983">
        <ele>187</ele>
        <time>2022-04-08T12:33:00Z</time>
      </trkpt>
      <trkpt lat="43.47257" lon="6.39984">
        <ele>187</ele>
        <time>2022-04-08T12:33:01Z</time>
      </trkpt>
      <trkpt lat="43.47257" lon="6.39986">
        <ele>187</ele>
        <time>2022-04-08T12:33:02Z</time>
      </trkpt>
      <trkpt lat="43.47257" lon="6.39987">
        <ele>187</ele>
        <time>2022-04-08T12:33:03Z</time>
      </trkpt>
      <trkpt lat="43.47256" lon="6.39989">
        <ele>187</ele>
        <time>2022-04-08T12:33:04Z</time>
      </trkpt>
      <trkpt lat="43.47256" lon="6.3999">
        <ele>187</ele>
        <time>2022-04-08T12:33:05Z</time>
      </trkpt>
      <trkpt lat="43.47256" lon="6.39991">
        <ele>187</ele>
        <time>2022-04-08T12:33:06Z</time>
      </trkpt>
      <trkpt lat="43.47255" lon="6.39993">
        <ele>187</ele>
        <time>2022-04-08T12:33:07Z</time>
      </trkpt>
      <trkpt lat="43.47255" lon="6.39994">
        <ele>187</ele>
        <time>2022-04-08T12:33:08Z</time>
      </trkpt>
      <trkpt lat="43.47254" lon="6.39995">
        <ele>187</ele>
        <time>2022-04-08T12:33:09Z</time>
      </trkpt>
      <trkpt lat="43.47254" lon="6.39997">
        <ele>187</ele>
        <time>2022-04-08T12:33:10Z</time>
      </trkpt>
      <trkpt lat="43.47253" lon="6.39998">
        <ele>187</ele>
        <time>2022-04-08T12:33:11Z</time>
      </trkpt>
      <trkpt lat="43.47252" lon="6.39999">
        <ele>187</ele>
        <time>2022-04-08T12:33:12Z</time>
      </trkpt>
      <trkpt lat="43.47252" lon="6.4">
        <ele>187</ele>
        <time>2022-04-08T12:33:13Z</time>
      </trkpt>
      <trkpt lat="43.47252" lon="6.40002">
        <ele>187</ele>
        <time>2022-04-08T12:33:14Z</time>
      </trkpt>
      <trkpt lat="43.47251" lon="6.40003">
        <ele>187</ele>
        <time>2022-04-08T12:33:15Z</time>
      </trkpt>
      <trkpt lat="43.47251" lon="6.40005">
        <ele>187</ele>
        <time>2022-04-08T12:33:16Z</time>
      </trkpt>
      <trkpt lat="43.47251" lon="6.40007">
        <ele>187</ele>
        <time>2022-04-08T12:33:17Z</time>
      </trkpt>
      <trkpt lat="43.4725" lon="6.40009">
        <ele>187</ele>
        <time>2022-04-08T12:33:18Z</time>
      </trkpt>
      <trkpt lat="43.4725" lon="6.4001">
        <ele>187</ele>
        <time>2022-04-08T12:33:19Z</time>
      </trkpt>
      <trkpt lat="43.4725" lon="6.40012">
        <ele>186</ele>
        <time>2022-04-08T12:33:20Z</time>
      </trkpt>
      <trkpt lat="43.4725" lon="6.40013">
        <ele>186</ele>
        <time>2022-04-08T12:33:21Z</time>
      </trkpt>
      <trkpt lat="43.47251" lon="6.40013">
        <ele>186</ele>
        <time>2022-04-08T12:33:22Z</time>
      </trkpt>
      <trkpt lat="43.47252" lon="6.40014">
        <ele>186</ele>
        <time>2022-04-08T12:33:23Z</time>
      </trkpt>
      <trkpt lat="43.47253" lon="6.40014">
        <ele>186</ele>
        <time>2022-04-08T12:33:24Z</time>
      </trkpt>
      <trkpt lat="43.47253" lon="6.40015">
        <ele>186</ele>
        <time>2022-04-08T12:33:25Z</time>
      </trkpt>
      <trkpt lat="43.47254" lon="6.40015">
        <ele>186</ele>
        <time>2022-04-08T12:33:26Z</time>
      </trkpt>
      <trkpt lat="43.47254" lon="6.40016">
        <ele>185</ele>
        <time>2022-04-08T12:33:27Z</time>
      </trkpt>
      <trkpt lat="43.47253" lon="6.40017">
        <ele>185</ele>
        <time>2022-04-08T12:33:28Z</time>
      </trkpt>
      <trkpt lat="43.47252" lon="6.40017">
        <ele>185</ele>
        <time>2022-04-08T12:33:29Z</time>
      </trkpt>
      <trkpt lat="43.4725" lon="6.40018">
        <ele>185</ele>
        <time>2022-04-08T12:33:30Z</time>
      </trkpt>
      <trkpt lat="43.47249" lon="6.40018">
        <ele>185</ele>
        <time>2022-04-08T12:33:31Z</time>
      </trkpt>
      <trkpt lat="43.47248" lon="6.40018">
        <ele>185</ele>
        <time>2022-04-08T12:33:32Z</time>
      </trkpt>
      <trkpt lat="43.47247" lon="6.40019">
        <ele>185</ele>
        <time>2022-04-08T12:33:33Z</time>
      </trkpt>
      <trkpt lat="43.47247" lon="6.40019">
        <ele>185</ele>
        <time>2022-04-08T12:33:34Z</time>
      </trkpt>
      <trkpt lat="43.47246" lon="6.4002">
        <ele>185</ele>
        <time>2022-04-08T12:33:35Z</time>
      </trkpt>
      <trkpt lat="43.47245" lon="6.40021">
        <ele>185</ele>
        <time>2022-04-08T12:33:36Z</time>
      </trkpt>
      <trkpt lat="43.47244" lon="6.40022">
        <ele>185</ele>
        <time>2022-04-08T12:33:37Z</time>
      </trkpt>
      <trkpt lat="43.47243" lon="6.40023">
        <ele>185</ele>
        <time>2022-04-08T12:33:38Z</time>
      </trkpt>
      <trkpt lat="43.47243" lon="6.40024">
        <ele>185</ele>
        <time>2022-04-08T12:33:39Z</time>
      </trkpt>
      <trkpt lat="43.47242" lon="6.40024">
        <ele>184</ele>
        <time>2022-04-08T12:33:40Z</time>
      </trkpt>
      <trkpt lat="43.47242" lon="6.40024">
        <ele>184</ele>
        <time>2022-04-08T12:33:41Z</time>
      </trkpt>
      <trkpt lat="43.47242" lon="6.40024">
        <ele>184</ele>
        <time>2022-04-08T12:33:42Z</time>
      </trkpt>
      <trkpt lat="43.47241" lon="6.40024">
        <ele>184</ele>
        <time>2022-04-08T12:33:43Z</time>
      </trkpt>
      <trkpt lat="43.47241" lon="6.40025">
        <ele>184</ele>
        <time>2022-04-08T12:33:44Z</time>
      </trkpt>
      <trkpt lat="43.47241" lon="6.40025">
        <ele>184</ele>
        <time>2022-04-08T12:33:45Z</time>
      </trkpt>
      <trkpt lat="43.47241" lon="6.40025">
        <ele>184</ele>
        <time>2022-04-08T12:33:46Z</time>
      </trkpt>
      <trkpt lat="43.4724" lon="6.40026">
        <ele>184</ele>
        <time>2022-04-08T12:33:47Z</time>
      </trkpt>
      <trkpt lat="43.4724" lon="6.40027">
        <ele>184</ele>
        <time>2022-04-08T12:33:48Z</time>
      </trkpt>
      <trkpt lat="43.47239" lon="6.40027">
        <ele>184</ele>
        <time>2022-04-08T12:33:49Z</time>
      </trkpt>
      <trkpt lat="43.47239" lon="6.40028">
        <ele>184</ele>
        <time>2022-04-08T12:33:50Z</time>
      </trkpt>
      <trkpt lat="43.47239" lon="6.40029">
        <ele>184</ele>
        <time>2022-04-08T12:33:51Z</time>
      </trkpt>
      <trkpt lat="43.47239" lon="6.40029">
        <ele>184</ele>
        <time>2022-04-08T12:33:52Z</time>
      </trkpt>
      <trkpt lat="43.47238" lon="6.40029">
        <ele>184</ele>
        <time>2022-04-08T12:33:53Z</time>
      </trkpt>
      <trkpt lat="43.47238" lon="6.4003">
        <ele>184</ele>
        <time>2022-04-08T12:33:54Z</time>
      </trkpt>
      <trkpt lat="43.47238" lon="6.4003">
        <ele>184</ele>
        <time>2022-04-08T12:33:55Z</time>
      </trkpt>
      <trkpt lat="43.47238" lon="6.4003">
        <ele>184</ele>
        <time>2022-04-08T12:33:56Z</time>
      </trkpt>
      <trkpt lat="43.47238" lon="6.4003">
        <ele>184</ele>
        <time>2022-04-08T12:33:57Z</time>
      </trkpt>
      <trkpt lat="43.47238" lon="6.4003">
        <ele>184</ele>
        <time>2022-04-08T12:33:58Z</time>
      </trkpt>
      <trkpt lat="43.47238" lon="6.40031">
        <ele>184</ele>
        <time>2022-04-08T12:33:59Z</time>
      </trkpt>
      <trkpt lat="43.47238" lon="6.40031">
        <ele>184</ele>
        <time>2022-04-08T12:34:00Z</time>
      </trkpt>
      <trkpt lat="43.47238" lon="6.40031">
        <ele>184</ele>
        <time>2022-04-08T12:34:01Z</time>
      </trkpt>
      <trkpt lat="43.47238" lon="6.40031">
        <ele>184</ele>
        <time>2022-04-08T12:34:02Z</time>
      </trkpt>
      <trkpt lat="43.47238" lon="6.40031">
        <ele>184</ele>
        <time>2022-04-08T12:34:03Z</time>
      </trkpt>
      <trkpt lat="43.47237" lon="6.40031">
        <ele>184</ele>
        <time>2022-04-08T12:34:04Z</time>
      </trkpt>
      <trkpt lat="43.47237" lon="6.40031">
        <ele>184</ele>
        <time>2022-04-08T12:34:05Z</time>
      </trkpt>
      <trkpt lat="43.47237" lon="6.40031">
        <ele>184</ele>
        <time>2022-04-08T12:34:06Z</time>
      </trkpt>
      <trkpt lat="43.47237" lon="6.40032">
        <ele>184</ele>
        <time>2022-04-08T12:34:07Z</time>
      </trkpt>
      <trkpt lat="43.47237" lon="6.40032">
        <ele>184</ele>
        <time>2022-04-08T12:34:08Z</time>
      </trkpt>
      <trkpt lat="43.47237" lon="6.40032">
        <ele>184</ele>
        <time>2022-04-08T12:34:09Z</time>
      </trkpt>
      <trkpt lat="43.47237" lon="6.40032">
        <ele>184</ele>
        <time>2022-04-08T12:34:10Z</time>
      </trkpt>
      <trkpt lat="43.47237" lon="6.40032">
        <ele>184</ele>
        <time>2022-04-08T12:34:11Z</time>
      </trkpt>
      <trkpt lat="43.47237" lon="6.40032">
        <ele>184</ele>
        <time>2022-04-08T12:34:12Z</time>
      </trkpt>
      <trkpt lat="43.47237" lon="6.40032">
        <ele>184</ele>
        <time>2022-04-08T12:34:13Z</time>
      </trkpt>
      <trkpt lat="43.47237" lon="6.40032">
        <ele>184</ele>
        <time>2022-04-08T12:34:14Z</time>
      </trkpt>
      <trkpt lat="43.47237" lon="6.40032">
        <ele>184</ele>
        <time>2022-04-08T12:34:15Z</time>
      </trkpt>
      <trkpt lat="43.47237" lon="6.40032">
        <ele>184</ele>
        <time>2022-04-08T12:34:16Z</time>
      </trkpt>
      <trkpt lat="43.47237" lon="6.40032">
        <ele>184</ele>
        <time>2022-04-08T12:34:17Z</time>
      </trkpt>
      <trkpt lat="43.47237" lon="6.40032">
        <ele>184</ele>
        <time>2022-04-08T12:34:18Z</time>
      </trkpt>
      <trkpt lat="43.47237" lon="6.40032">
        <ele>184</ele>
        <time>2022-04-08T12:34:19Z</time>
      </trkpt>
      <trkpt lat="43.47237" lon="6.40032">
        <ele>184</ele>
        <time>2022-04-08T12:34:20Z</time>
      </trkpt>
      <trkpt lat="43.47237" lon="6.40032">
        <ele>184</ele>
        <time>2022-04-08T12:34:21Z</time>
      </trkpt>
      <trkpt lat="43.47237" lon="6.40032">
        <ele>184</ele>
        <time>2022-04-08T12:34:22Z</time>
      </trkpt>
      <trkpt lat="43.47237" lon="6.40032">
        <ele>184</ele>
        <time>2022-04-08T12:34:23Z</time>
      </trkpt>
      <trkpt lat="43.47237" lon="6.40032">
        <ele>184</ele>
        <time>2022-04-08T12:34:24Z</time>
      </trkpt>
      <trkpt lat="43.47237" lon="6.40032">
        <ele>184</ele>
        <time>2022-04-08T12:34:25Z</time>
      </trkpt>
      <trkpt lat="43.47237" lon="6.40032">
        <ele>184</ele>
        <time>2022-04-08T12:34:26Z</time>
      </trkpt>
      <trkpt lat="43.47237" lon="6.40032">
        <ele>184</ele>
        <time>2022-04-08T12:34:27Z</time>
      </trkpt>
      <trkpt lat="43.47237" lon="6.40032">
        <ele>184</ele>
        <time>2022-04-08T12:34:28Z</time>
      </trkpt>
      <trkpt lat="43.47237" lon="6.40032">
        <ele>184</ele>
        <time>2022-04-08T12:34:29Z</time>
      </trkpt>
      <trkpt lat="43.47237" lon="6.40032">
        <ele>184</ele>
        <time>2022-04-08T12:34:30Z</time>
      </trkpt>
      <trkpt lat="43.47237" lon="6.40033">
        <ele>184</ele>
        <time>2022-04-08T12:34:31Z</time>
      </trkpt>
      <trkpt lat="43.47237" lon="6.40034">
        <ele>184</ele>
        <time>2022-04-08T12:34:32Z</time>
      </trkpt>
      <trkpt lat="43.47237" lon="6.40035">
        <ele>184</ele>
        <time>2022-04-08T12:34:33Z</time>
      </trkpt>
      <trkpt lat="43.47237" lon="6.40036">
        <ele>184</ele>
        <time>2022-04-08T12:34:34Z</time>
      </trkpt>
      <trkpt lat="43.47236" lon="6.40036">
        <ele>184</ele>
        <time>2022-04-08T12:34:35Z</time>
      </trkpt>
      <trkpt lat="43.47236" lon="6.40036">
        <ele>184</ele>
        <time>2022-04-08T12:34:36Z</time>
      </trkpt>
      <trkpt lat="43.47236" lon="6.40037">
        <ele>184</ele>
        <time>2022-04-08T12:34:37Z</time>
      </trkpt>
      <trkpt lat="43.47236" lon="6.40037">
        <ele>184</ele>
        <time>2022-04-08T12:34:38Z</time>
      </trkpt>
      <trkpt lat="43.47236" lon="6.40038">
        <ele>184</ele>
        <time>2022-04-08T12:34:39Z</time>
      </trkpt>
      <trkpt lat="43.47236" lon="6.40038">
        <ele>184</ele>
        <time>2022-04-08T12:34:40Z</time>
      </trkpt>
      <trkpt lat="43.47236" lon="6.40038">
        <ele>184</ele>
        <time>2022-04-08T12:34:41Z</time>
      </trkpt>
      <trkpt lat="43.47236" lon="6.40038">
        <ele>184</ele>
        <time>2022-04-08T12:34:42Z</time>
      </trkpt>
      <trkpt lat="43.47236" lon="6.40038">
        <ele>184</ele>
        <time>2022-04-08T12:34:43Z</time>
      </trkpt>
      <trkpt lat="43.47236" lon="6.40038">
        <ele>184</ele>
        <time>2022-04-08T12:34:44Z</time>
      </trkpt>
      <trkpt lat="43.47236" lon="6.40038">
        <ele>184</ele>
        <time>2022-04-08T12:34:45Z</time>
      </trkpt>
      <trkpt lat="43.47236" lon="6.40038">
        <ele>184</ele>
        <time>2022-04-08T12:34:46Z</time>
      </trkpt>
      <trkpt lat="43.47236" lon="6.40038">
        <ele>184</ele>
        <time>2022-04-08T12:34:47Z</time>
      </trkpt>
      <trkpt lat="43.47236" lon="6.40038">
        <ele>184</ele>
        <time>2022-04-08T12:34:48Z</time>
      </trkpt>
      <trkpt lat="43.47236" lon="6.40038">
        <ele>184</ele>
        <time>2022-04-08T12:34:49Z</time>
      </trkpt>
      <trkpt lat="43.47236" lon="6.40038">
        <ele>184</ele>
        <time>2022-04-08T12:34:50Z</time>
      </trkpt>
      <trkpt lat="43.47236" lon="6.40038">
        <ele>184</ele>
        <time>2022-04-08T12:34:51Z</time>
      </trkpt>
      <trkpt lat="43.47236" lon="6.40038">
        <ele>184</ele>
        <time>2022-04-08T12:34:52Z</time>
      </trkpt>
      <trkpt lat="43.47236" lon="6.40038">
        <ele>184</ele>
        <time>2022-04-08T12:34:53Z</time>
      </trkpt>
      <trkpt lat="43.47236" lon="6.40038">
        <ele>184</ele>
        <time>2022-04-08T12:34:54Z</time>
      </trkpt>
      <trkpt lat="43.47236" lon="6.40038">
        <ele>184</ele>
        <time>2022-04-08T12:34:55Z</time>
      </trkpt>
      <trkpt lat="43.47236" lon="6.40038">
        <ele>184</ele>
        <time>2022-04-08T12:34:56Z</time>
      </trkpt>
      <trkpt lat="43.47236" lon="6.40038">
        <ele>184</ele>
        <time>2022-04-08T12:34:57Z</time>
      </trkpt>
      <trkpt lat="43.47236" lon="6.40038">
        <ele>184</ele>
        <time>2022-04-08T12:34:58Z</time>
      </trkpt>
      <trkpt lat="43.47236" lon="6.40038">
        <ele>184</ele>
        <time>2022-04-08T12:34:59Z</time>
      </trkpt>
      <trkpt lat="43.47236" lon="6.40038">
        <ele>184</ele>
        <time>2022-04-08T12:35:00Z</time>
      </trkpt>
      <trkpt lat="43.47236" lon="6.40038">
        <ele>184</ele>
        <time>2022-04-08T12:35:01Z</time>
      </trkpt>
      <trkpt lat="43.47236" lon="6.40038">
        <ele>184</ele>
        <time>2022-04-08T12:35:02Z</time>
      </trkpt>
      <trkpt lat="43.47236" lon="6.40038">
        <ele>184</ele>
        <time>2022-04-08T12:35:03Z</time>
      </trkpt>
      <trkpt lat="43.47236" lon="6.40038">
        <ele>184</ele>
        <time>2022-04-08T12:35:04Z</time>
      </trkpt>
      <trkpt lat="43.47236" lon="6.40038">
        <ele>184</ele>
        <time>2022-04-08T12:35:05Z</time>
      </trkpt>
      <trkpt lat="43.47236" lon="6.40038">
        <ele>184</ele>
        <time>2022-04-08T12:35:06Z</time>
      </trkpt>
      <trkpt lat="43.47236" lon="6.40038">
        <ele>184</ele>
        <time>2022-04-08T12:35:07Z</time>
      </trkpt>
      <trkpt lat="43.47236" lon="6.40038">
        <ele>184</ele>
        <time>2022-04-08T12:35:08Z</time>
      </trkpt>
      <trkpt lat="43.47236" lon="6.40038">
        <ele>184</ele>
        <time>2022-04-08T12:35:09Z</time>
      </trkpt>
      <trkpt lat="43.47236" lon="6.40038">
        <ele>184</ele>
        <time>2022-04-08T12:35:10Z</time>
      </trkpt>
      <trkpt lat="43.47236" lon="6.40038">
        <ele>184</ele>
        <time>2022-04-08T12:35:11Z</time>
      </trkpt>
      <trkpt lat="43.47236" lon="6.40038">
        <ele>184</ele>
        <time>2022-04-08T12:35:12Z</time>
      </trkpt>
      <trkpt lat="43.47236" lon="6.40038">
        <ele>184</ele>
        <time>2022-04-08T12:35:13Z</time>
      </trkpt>
      <trkpt lat="43.47236" lon="6.40038">
        <ele>184</ele>
        <time>2022-04-08T12:35:14Z</time>
      </trkpt>
      <trkpt lat="43.47236" lon="6.40038">
        <ele>184</ele>
        <time>2022-04-08T12:35:15Z</time>
      </trkpt>
      <trkpt lat="43.47236" lon="6.40038">
        <ele>184</ele>
        <time>2022-04-08T12:35:16Z</time>
      </trkpt>
      <trkpt lat="43.47236" lon="6.40038">
        <ele>184</ele>
        <time>2022-04-08T12:35:17Z</time>
      </trkpt>
      <trkpt lat="43.47236" lon="6.40038">
        <ele>184</ele>
        <time>2022-04-08T12:35:18Z</time>
      </trkpt>
      <trkpt lat="43.47236" lon="6.40038">
        <ele>184</ele>
        <time>2022-04-08T12:35:19Z</time>
      </trkpt>
      <trkpt lat="43.47236" lon="6.40038">
        <ele>184</ele>
        <time>2022-04-08T12:35:20Z</time>
      </trkpt>
      <trkpt lat="43.47236" lon="6.40038">
        <ele>184</ele>
        <time>2022-04-08T12:35:21Z</time>
      </trkpt>
      <trkpt lat="43.47236" lon="6.40038">
        <ele>184</ele>
        <time>2022-04-08T12:35:22Z</time>
      </trkpt>
      <trkpt lat="43.47236" lon="6.40038">
        <ele>184</ele>
        <time>2022-04-08T12:35:23Z</time>
      </trkpt>
      <trkpt lat="43.47236" lon="6.40038">
        <ele>184</ele>
        <time>2022-04-08T12:35:24Z</time>
      </trkpt>
      <trkpt lat="43.47235" lon="6.40041">
        <ele>184</ele>
        <time>2022-04-08T12:35:25Z</time>
      </trkpt>
      <trkpt lat="43.47235" lon="6.40041">
        <ele>184</ele>
        <time>2022-04-08T12:35:26Z</time>
      </trkpt>
      <trkpt lat="43.47235" lon="6.40041">
        <ele>184</ele>
        <time>2022-04-08T12:35:27Z</time>
      </trkpt>
      <trkpt lat="43.47235" lon="6.40041">
        <ele>184</ele>
        <time>2022-04-08T12:35:28Z</time>
      </trkpt>
      <trkpt lat="43.47235" lon="6.40041">
        <ele>184</ele>
        <time>2022-04-08T12:35:29Z</time>
      </trkpt>
      <trkpt lat="43.47235" lon="6.40041">
        <ele>184</ele>
        <time>2022-04-08T12:35:30Z</time>
      </trkpt>
      <trkpt lat="43.47235" lon="6.40041">
        <ele>184</ele>
        <time>2022-04-08T12:35:31Z</time>
      </trkpt>
      <trkpt lat="43.47235" lon="6.40041">
        <ele>184</ele>
        <time>2022-04-08T12:35:32Z</time>
      </trkpt>
      <trkpt lat="43.47235" lon="6.40041">
        <ele>184</ele>
        <time>2022-04-08T12:35:33Z</time>
      </trkpt>
      <trkpt lat="43.47235" lon="6.40041">
        <ele>184</ele>
        <time>2022-04-08T12:35:34Z</time>
      </trkpt>
      <trkpt lat="43.47235" lon="6.4004">
        <ele>184</ele>
        <time>2022-04-08T12:35:35Z</time>
      </trkpt>
      <trkpt lat="43.47235" lon="6.4004">
        <ele>184</ele>
        <time>2022-04-08T12:35:36Z</time>
      </trkpt>
      <trkpt lat="43.47235" lon="6.4004">
        <ele>184</ele>
        <time>2022-04-08T12:35:37Z</time>
      </trkpt>
      <trkpt lat="43.47234" lon="6.4004">
        <ele>184</ele>
        <time>2022-04-08T12:35:38Z</time>
      </trkpt>
      <trkpt lat="43.47234" lon="6.4004">
        <ele>184</ele>
        <time>2022-04-08T12:35:39Z</time>
      </trkpt>
      <trkpt lat="43.47234" lon="6.4004">
        <ele>184</ele>
        <time>2022-04-08T12:35:40Z</time>
      </trkpt>
      <trkpt lat="43.47234" lon="6.40039">
        <ele>184</ele>
        <time>2022-04-08T12:35:41Z</time>
      </trkpt>
      <trkpt lat="43.47234" lon="6.40039">
        <ele>184</ele>
        <time>2022-04-08T12:35:42Z</time>
      </trkpt>
      <trkpt lat="43.47234" lon="6.40039">
        <ele>184</ele>
        <time>2022-04-08T12:35:43Z</time>
      </trkpt>
      <trkpt lat="43.47234" lon="6.40039">
        <ele>184</ele>
        <time>2022-04-08T12:35:44Z</time>
      </trkpt>
      <trkpt lat="43.47234" lon="6.40039">
        <ele>184</ele>
        <time>2022-04-08T12:35:45Z</time>
      </trkpt>
      <trkpt lat="43.47234" lon="6.40039">
        <ele>184</ele>
        <time>2022-04-08T12:35:46Z</time>
      </trkpt>
      <trkpt lat="43.47234" lon="6.40039">
        <ele>184</ele>
        <time>2022-04-08T12:35:47Z</time>
      </trkpt>
      <trkpt lat="43.47234" lon="6.40039">
        <ele>184</ele>
        <time>2022-04-08T12:35:48Z</time>
      </trkpt>
      <trkpt lat="43.47234" lon="6.40039">
        <ele>184</ele>
        <time>2022-04-08T12:35:49Z</time>
      </trkpt>
      <trkpt lat="43.47234" lon="6.40039">
        <ele>184</ele>
        <time>2022-04-08T12:35:50Z</time>
      </trkpt>
      <trkpt lat="43.47234" lon="6.40039">
        <ele>184</ele>
        <time>2022-04-08T12:35:51Z</time>
      </trkpt>
      <trkpt lat="43.47234" lon="6.40039">
        <ele>184</ele>
        <time>2022-04-08T12:35:52Z</time>
      </trkpt>
      <trkpt lat="43.47234" lon="6.40039">
        <ele>184</ele>
        <time>2022-04-08T12:35:53Z</time>
      </trkpt>
      <trkpt lat="43.47233" lon="6.40039">
        <ele>184</ele>
        <time>2022-04-08T12:35:54Z</time>
      </trkpt>
      <trkpt lat="43.47233" lon="6.4004">
        <ele>183</ele>
        <time>2022-04-08T12:35:55Z</time>
      </trkpt>
      <trkpt lat="43.47232" lon="6.40041">
        <ele>183</ele>
        <time>2022-04-08T12:35:56Z</time>
      </trkpt>
      <trkpt lat="43.47232" lon="6.40042">
        <ele>183</ele>
        <time>2022-04-08T12:35:57Z</time>
      </trkpt>
      <trkpt lat="43.47232" lon="6.40044">
        <ele>183</ele>
        <time>2022-04-08T12:35:58Z</time>
      </trkpt>
      <trkpt lat="43.47232" lon="6.40045">
        <ele>183</ele>
        <time>2022-04-08T12:35:59Z</time>
      </trkpt>
      <trkpt lat="43.47232" lon="6.40046">
        <ele>183</ele>
        <time>2022-04-08T12:36:00Z</time>
      </trkpt>
      <trkpt lat="43.47232" lon="6.40047">
        <ele>183</ele>
        <time>2022-04-08T12:36:01Z</time>
      </trkpt>
      <trkpt lat="43.47231" lon="6.40048">
        <ele>183</ele>
        <time>2022-04-08T12:36:02Z</time>
      </trkpt>
      <trkpt lat="43.47231" lon="6.40049">
        <ele>183</ele>
        <time>2022-04-08T12:36:03Z</time>
      </trkpt>
      <trkpt lat="43.47231" lon="6.4005">
        <ele>183</ele>
        <time>2022-04-08T12:36:04Z</time>
      </trkpt>
      <trkpt lat="43.47231" lon="6.40051">
        <ele>183</ele>
        <time>2022-04-08T12:36:05Z</time>
      </trkpt>
      <trkpt lat="43.47231" lon="6.40051">
        <ele>183</ele>
        <time>2022-04-08T12:36:06Z</time>
      </trkpt>
      <trkpt lat="43.47231" lon="6.40051">
        <ele>183</ele>
        <time>2022-04-08T12:36:07Z</time>
      </trkpt>
      <trkpt lat="43.47231" lon="6.40052">
        <ele>183</ele>
        <time>2022-04-08T12:36:08Z</time>
      </trkpt>
      <trkpt lat="43.4723" lon="6.40053">
        <ele>184</ele>
        <time>2022-04-08T12:36:09Z</time>
      </trkpt>
      <trkpt lat="43.4723" lon="6.40054">
        <ele>184</ele>
        <time>2022-04-08T12:36:10Z</time>
      </trkpt>
      <trkpt lat="43.4723" lon="6.40055">
        <ele>184</ele>
        <time>2022-04-08T12:36:11Z</time>
      </trkpt>
      <trkpt lat="43.47229" lon="6.40057">
        <ele>184</ele>
        <time>2022-04-08T12:36:12Z</time>
      </trkpt>
      <trkpt lat="43.47229" lon="6.40057">
        <ele>184</ele>
        <time>2022-04-08T12:36:13Z</time>
      </trkpt>
      <trkpt lat="43.47229" lon="6.40058">
        <ele>184</ele>
        <time>2022-04-08T12:36:14Z</time>
      </trkpt>
      <trkpt lat="43.47228" lon="6.40059">
        <ele>184</ele>
        <time>2022-04-08T12:36:15Z</time>
      </trkpt>
      <trkpt lat="43.47228" lon="6.4006">
        <ele>184</ele>
        <time>2022-04-08T12:36:16Z</time>
      </trkpt>
      <trkpt lat="43.47227" lon="6.40062">
        <ele>184</ele>
        <time>2022-04-08T12:36:17Z</time>
      </trkpt>
      <trkpt lat="43.47227" lon="6.40064">
        <ele>184</ele>
        <time>2022-04-08T12:36:18Z</time>
      </trkpt>
      <trkpt lat="43.47226" lon="6.40065">
        <ele>185</ele>
        <time>2022-04-08T12:36:19Z</time>
      </trkpt>
      <trkpt lat="43.47226" lon="6.40065">
        <ele>185</ele>
        <time>2022-04-08T12:36:20Z</time>
      </trkpt>
      <trkpt lat="43.47226" lon="6.40065">
        <ele>185</ele>
        <time>2022-04-08T12:36:21Z</time>
      </trkpt>
      <trkpt lat="43.47226" lon="6.40066">
        <ele>185</ele>
        <time>2022-04-08T12:36:22Z</time>
      </trkpt>
      <trkpt lat="43.47226" lon="6.40066">
        <ele>185</ele>
        <time>2022-04-08T12:36:23Z</time>
      </trkpt>
      <trkpt lat="43.47225" lon="6.40066">
        <ele>185</ele>
        <time>2022-04-08T12:36:24Z</time>
      </trkpt>
      <trkpt lat="43.47225" lon="6.40067">
        <ele>185</ele>
        <time>2022-04-08T12:36:25Z</time>
      </trkpt>
      <trkpt lat="43.47225" lon="6.40067">
        <ele>185</ele>
        <time>2022-04-08T12:36:26Z</time>
      </trkpt>
      <trkpt lat="43.47225" lon="6.40068">
        <ele>185</ele>
        <time>2022-04-08T12:36:27Z</time>
      </trkpt>
      <trkpt lat="43.47224" lon="6.40068">
        <ele>185</ele>
        <time>2022-04-08T12:36:28Z</time>
      </trkpt>
      <trkpt lat="43.47224" lon="6.40069">
        <ele>185</ele>
        <time>2022-04-08T12:36:29Z</time>
      </trkpt>
      <trkpt lat="43.47223" lon="6.4007">
        <ele>186</ele>
        <time>2022-04-08T12:36:30Z</time>
      </trkpt>
      <trkpt lat="43.47222" lon="6.40072">
        <ele>187</ele>
        <time>2022-04-08T12:36:31Z</time>
      </trkpt>
      <trkpt lat="43.47221" lon="6.40074">
        <ele>187</ele>
        <time>2022-04-08T12:36:32Z</time>
      </trkpt>
      <trkpt lat="43.4722" lon="6.40075">
        <ele>187</ele>
        <time>2022-04-08T12:36:33Z</time>
      </trkpt>
      <trkpt lat="43.47219" lon="6.40076">
        <ele>187</ele>
        <time>2022-04-08T12:36:34Z</time>
      </trkpt>
      <trkpt lat="43.47219" lon="6.40077">
        <ele>187</ele>
        <time>2022-04-08T12:36:35Z</time>
      </trkpt>
      <trkpt lat="43.47218" lon="6.40077">
        <ele>187</ele>
        <time>2022-04-08T12:36:36Z</time>
      </trkpt>
      <trkpt lat="43.47218" lon="6.40077">
        <ele>187</ele>
        <time>2022-04-08T12:36:37Z</time>
      </trkpt>
      <trkpt lat="43.47218" lon="6.40078">
        <ele>187</ele>
        <time>2022-04-08T12:36:38Z</time>
      </trkpt>
      <trkpt lat="43.47218" lon="6.40078">
        <ele>187</ele>
        <time>2022-04-08T12:36:39Z</time>
      </trkpt>
      <trkpt lat="43.47217" lon="6.40079">
        <ele>187</ele>
        <time>2022-04-08T12:36:40Z</time>
      </trkpt>
      <trkpt lat="43.47216" lon="6.4008">
        <ele>187</ele>
        <time>2022-04-08T12:36:41Z</time>
      </trkpt>
      <trkpt lat="43.47215" lon="6.40081">
        <ele>187</ele>
        <time>2022-04-08T12:36:42Z</time>
      </trkpt>
      <trkpt lat="43.47215" lon="6.40082">
        <ele>187</ele>
        <time>2022-04-08T12:36:43Z</time>
      </trkpt>
      <trkpt lat="43.47215" lon="6.40082">
        <ele>187</ele>
        <time>2022-04-08T12:36:44Z</time>
      </trkpt>
      <trkpt lat="43.47214" lon="6.40082">
        <ele>187</ele>
        <time>2022-04-08T12:36:45Z</time>
      </trkpt>
      <trkpt lat="43.47214" lon="6.40083">
        <ele>187</ele>
        <time>2022-04-08T12:36:46Z</time>
      </trkpt>
      <trkpt lat="43.47214" lon="6.40083">
        <ele>187</ele>
        <time>2022-04-08T12:36:47Z</time>
      </trkpt>
      <trkpt lat="43.47213" lon="6.40083">
        <ele>187</ele>
        <time>2022-04-08T12:36:48Z</time>
      </trkpt>
      <trkpt lat="43.47213" lon="6.40083">
        <ele>187</ele>
        <time>2022-04-08T12:36:49Z</time>
      </trkpt>
      <trkpt lat="43.47213" lon="6.40084">
        <ele>187</ele>
        <time>2022-04-08T12:36:50Z</time>
      </trkpt>
      <trkpt lat="43.47213" lon="6.40084">
        <ele>187</ele>
        <time>2022-04-08T12:36:51Z</time>
      </trkpt>
      <trkpt lat="43.47212" lon="6.40084">
        <ele>187</ele>
        <time>2022-04-08T12:36:52Z</time>
      </trkpt>
      <trkpt lat="43.47211" lon="6.40085">
        <ele>187</ele>
        <time>2022-04-08T12:36:53Z</time>
      </trkpt>
      <trkpt lat="43.47209" lon="6.40085">
        <ele>187</ele>
        <time>2022-04-08T12:36:54Z</time>
      </trkpt>
      <trkpt lat="43.47208" lon="6.40086">
        <ele>187</ele>
        <time>2022-04-08T12:36:55Z</time>
      </trkpt>
      <trkpt lat="43.47207" lon="6.40086">
        <ele>187</ele>
        <time>2022-04-08T12:36:56Z</time>
      </trkpt>
      <trkpt lat="43.47206" lon="6.40085">
        <ele>188</ele>
        <time>2022-04-08T12:36:57Z</time>
      </trkpt>
      <trkpt lat="43.47204" lon="6.40085">
        <ele>188</ele>
        <time>2022-04-08T12:36:58Z</time>
      </trkpt>
      <trkpt lat="43.47203" lon="6.40085">
        <ele>188</ele>
        <time>2022-04-08T12:36:59Z</time>
      </trkpt>
      <trkpt lat="43.47202" lon="6.40085">
        <ele>188</ele>
        <time>2022-04-08T12:37:00Z</time>
      </trkpt>
      <trkpt lat="43.47201" lon="6.40084">
        <ele>188</ele>
        <time>2022-04-08T12:37:01Z</time>
      </trkpt>
      <trkpt lat="43.472" lon="6.40084">
        <ele>188</ele>
        <time>2022-04-08T12:37:02Z</time>
      </trkpt>
      <trkpt lat="43.47199" lon="6.40083">
        <ele>188</ele>
        <time>2022-04-08T12:37:03Z</time>
      </trkpt>
      <trkpt lat="43.47198" lon="6.40083">
        <ele>188</ele>
        <time>2022-04-08T12:37:04Z</time>
      </trkpt>
      <trkpt lat="43.47197" lon="6.40083">
        <ele>188</ele>
        <time>2022-04-08T12:37:05Z</time>
      </trkpt>
      <trkpt lat="43.47196" lon="6.40082">
        <ele>188</ele>
        <time>2022-04-08T12:37:06Z</time>
      </trkpt>
      <trkpt lat="43.47195" lon="6.40082">
        <ele>187</ele>
        <time>2022-04-08T12:37:07Z</time>
      </trkpt>
      <trkpt lat="43.47195" lon="6.40082">
        <ele>187</ele>
        <time>2022-04-08T12:37:08Z</time>
      </trkpt>
      <trkpt lat="43.47194" lon="6.40081">
        <ele>187</ele>
        <time>2022-04-08T12:37:09Z</time>
      </trkpt>
      <trkpt lat="43.47193" lon="6.40081">
        <ele>187</ele>
        <time>2022-04-08T12:37:10Z</time>
      </trkpt>
      <trkpt lat="43.47192" lon="6.4008">
        <ele>187</ele>
        <time>2022-04-08T12:37:11Z</time>
      </trkpt>
      <trkpt lat="43.47191" lon="6.4008">
        <ele>187</ele>
        <time>2022-04-08T12:37:12Z</time>
      </trkpt>
      <trkpt lat="43.4719" lon="6.40079">
        <ele>187</ele>
        <time>2022-04-08T12:37:13Z</time>
      </trkpt>
      <trkpt lat="43.47189" lon="6.40079">
        <ele>187</ele>
        <time>2022-04-08T12:37:14Z</time>
      </trkpt>
      <trkpt lat="43.47188" lon="6.40078">
        <ele>187</ele>
        <time>2022-04-08T12:37:15Z</time>
      </trkpt>
      <trkpt lat="43.47188" lon="6.40078">
        <ele>185</ele>
        <time>2022-04-08T12:37:16Z</time>
      </trkpt>
      <trkpt lat="43.47187" lon="6.40078">
        <ele>185</ele>
        <time>2022-04-08T12:37:17Z</time>
      </trkpt>
      <trkpt lat="43.47186" lon="6.40078">
        <ele>185</ele>
        <time>2022-04-08T12:37:18Z</time>
      </trkpt>
      <trkpt lat="43.47185" lon="6.40078">
        <ele>185</ele>
        <time>2022-04-08T12:37:19Z</time>
      </trkpt>
      <trkpt lat="43.47185" lon="6.40078">
        <ele>185</ele>
        <time>2022-04-08T12:37:20Z</time>
      </trkpt>
      <trkpt lat="43.47184" lon="6.40077">
        <ele>185</ele>
        <time>2022-04-08T12:37:21Z</time>
      </trkpt>
      <trkpt lat="43.47183" lon="6.40077">
        <ele>185</ele>
        <time>2022-04-08T12:37:22Z</time>
      </trkpt>
      <trkpt lat="43.47183" lon="6.40077">
        <ele>185</ele>
        <time>2022-04-08T12:37:23Z</time>
      </trkpt>
      <trkpt lat="43.47182" lon="6.40077">
        <ele>184</ele>
        <time>2022-04-08T12:37:24Z</time>
      </trkpt>
      <trkpt lat="43.47181" lon="6.40077">
        <ele>184</ele>
        <time>2022-04-08T12:37:25Z</time>
      </trkpt>
      <trkpt lat="43.4718" lon="6.40076">
        <ele>184</ele>
        <time>2022-04-08T12:37:26Z</time>
      </trkpt>
      <trkpt lat="43.4718" lon="6.40076">
        <ele>184</ele>
        <time>2022-04-08T12:37:27Z</time>
      </trkpt>
      <trkpt lat="43.47179" lon="6.40076">
        <ele>184</ele>
        <time>2022-04-08T12:37:28Z</time>
      </trkpt>
      <trkpt lat="43.47178" lon="6.40076">
        <ele>184</ele>
        <time>2022-04-08T12:37:29Z</time>
      </trkpt>
      <trkpt lat="43.47177" lon="6.40076">
        <ele>184</ele>
        <time>2022-04-08T12:37:30Z</time>
      </trkpt>
      <trkpt lat="43.47177" lon="6.40076">
        <ele>184</ele>
        <time>2022-04-08T12:37:31Z</time>
      </trkpt>
      <trkpt lat="43.47176" lon="6.40076">
        <ele>184</ele>
        <time>2022-04-08T12:37:32Z</time>
      </trkpt>
      <trkpt lat="43.47176" lon="6.40076">
        <ele>184</ele>
        <time>2022-04-08T12:37:33Z</time>
      </trkpt>
      <trkpt lat="43.47175" lon="6.40076">
        <ele>184</ele>
        <time>2022-04-08T12:37:34Z</time>
      </trkpt>
      <trkpt lat="43.47174" lon="6.40076">
        <ele>184</ele>
        <time>2022-04-08T12:37:35Z</time>
      </trkpt>
      <trkpt lat="43.47173" lon="6.40076">
        <ele>184</ele>
        <time>2022-04-08T12:37:36Z</time>
      </trkpt>
      <trkpt lat="43.47173" lon="6.40076">
        <ele>184</ele>
        <time>2022-04-08T12:37:37Z</time>
      </trkpt>
      <trkpt lat="43.47172" lon="6.40076">
        <ele>184</ele>
        <time>2022-04-08T12:37:38Z</time>
      </trkpt>
      <trkpt lat="43.47171" lon="6.40077">
        <ele>184</ele>
        <time>2022-04-08T12:37:39Z</time>
      </trkpt>
      <trkpt lat="43.4717" lon="6.40077">
        <ele>184</ele>
        <time>2022-04-08T12:37:40Z</time>
      </trkpt>
      <trkpt lat="43.4717" lon="6.40077">
        <ele>184</ele>
        <time>2022-04-08T12:37:41Z</time>
      </trkpt>
      <trkpt lat="43.47169" lon="6.40078">
        <ele>184</ele>
        <time>2022-04-08T12:37:42Z</time>
      </trkpt>
      <trkpt lat="43.47168" lon="6.40078">
        <ele>184</ele>
        <time>2022-04-08T12:37:43Z</time>
      </trkpt>
      <trkpt lat="43.47168" lon="6.40079">
        <ele>184</ele>
        <time>2022-04-08T12:37:44Z</time>
      </trkpt>
      <trkpt lat="43.47167" lon="6.40079">
        <ele>184</ele>
        <time>2022-04-08T12:37:45Z</time>
      </trkpt>
      <trkpt lat="43.47167" lon="6.40079">
        <ele>184</ele>
        <time>2022-04-08T12:37:46Z</time>
      </trkpt>
      <trkpt lat="43.47166" lon="6.4008">
        <ele>184</ele>
        <time>2022-04-08T12:37:47Z</time>
      </trkpt>
      <trkpt lat="43.47166" lon="6.4008">
        <ele>184</ele>
        <time>2022-04-08T12:37:48Z</time>
      </trkpt>
      <trkpt lat="43.47165" lon="6.40081">
        <ele>184</ele>
        <time>2022-04-08T12:37:49Z</time>
      </trkpt>
      <trkpt lat="43.47164" lon="6.40082">
        <ele>184</ele>
        <time>2022-04-08T12:37:50Z</time>
      </trkpt>
      <trkpt lat="43.47164" lon="6.40082">
        <ele>184</ele>
        <time>2022-04-08T12:37:51Z</time>
      </trkpt>
      <trkpt lat="43.47163" lon="6.40083">
        <ele>184</ele>
        <time>2022-04-08T12:37:52Z</time>
      </trkpt>
      <trkpt lat="43.47163" lon="6.40083">
        <ele>184</ele>
        <time>2022-04-08T12:37:53Z</time>
      </trkpt>
      <trkpt lat="43.47162" lon="6.40084">
        <ele>184</ele>
        <time>2022-04-08T12:37:54Z</time>
      </trkpt>
      <trkpt lat="43.47162" lon="6.40084">
        <ele>184</ele>
        <time>2022-04-08T12:37:55Z</time>
      </trkpt>
      <trkpt lat="43.47161" lon="6.40085">
        <ele>183</ele>
        <time>2022-04-08T12:37:56Z</time>
      </trkpt>
      <trkpt lat="43.4716" lon="6.40085">
        <ele>183</ele>
        <time>2022-04-08T12:37:57Z</time>
      </trkpt>
      <trkpt lat="43.47159" lon="6.40086">
        <ele>183</ele>
        <time>2022-04-08T12:37:58Z</time>
      </trkpt>
      <trkpt lat="43.47158" lon="6.40085">
        <ele>181</ele>
        <time>2022-04-08T12:37:59Z</time>
      </trkpt>
      <trkpt lat="43.47157" lon="6.40083">
        <ele>181</ele>
        <time>2022-04-08T12:38:00Z</time>
      </trkpt>
      <trkpt lat="43.47156" lon="6.40082">
        <ele>181</ele>
        <time>2022-04-08T12:38:01Z</time>
      </trkpt>
      <trkpt lat="43.47155" lon="6.40083">
        <ele>180</ele>
        <time>2022-04-08T12:38:02Z</time>
      </trkpt>
      <trkpt lat="43.47154" lon="6.40084">
        <ele>180</ele>
        <time>2022-04-08T12:38:03Z</time>
      </trkpt>
      <trkpt lat="43.47153" lon="6.40084">
        <ele>180</ele>
        <time>2022-04-08T12:38:04Z</time>
      </trkpt>
      <trkpt lat="43.47152" lon="6.40085">
        <ele>179</ele>
        <time>2022-04-08T12:38:05Z</time>
      </trkpt>
      <trkpt lat="43.47151" lon="6.40085">
        <ele>179</ele>
        <time>2022-04-08T12:38:06Z</time>
      </trkpt>
      <trkpt lat="43.47151" lon="6.40086">
        <ele>179</ele>
        <time>2022-04-08T12:38:07Z</time>
      </trkpt>
      <trkpt lat="43.4715" lon="6.40086">
        <ele>178</ele>
        <time>2022-04-08T12:38:08Z</time>
      </trkpt>
      <trkpt lat="43.47149" lon="6.40087">
        <ele>178</ele>
        <time>2022-04-08T12:38:09Z</time>
      </trkpt>
      <trkpt lat="43.47148" lon="6.40087">
        <ele>176</ele>
        <time>2022-04-08T12:38:10Z</time>
      </trkpt>
      <trkpt lat="43.47147" lon="6.40087">
        <ele>175</ele>
        <time>2022-04-08T12:38:11Z</time>
      </trkpt>
      <trkpt lat="43.47147" lon="6.40088">
        <ele>175</ele>
        <time>2022-04-08T12:38:12Z</time>
      </trkpt>
      <trkpt lat="43.47146" lon="6.40088">
        <ele>175</ele>
        <time>2022-04-08T12:38:13Z</time>
      </trkpt>
      <trkpt lat="43.47145" lon="6.40088">
        <ele>174</ele>
        <time>2022-04-08T12:38:14Z</time>
      </trkpt>
      <trkpt lat="43.47145" lon="6.40089">
        <ele>174</ele>
        <time>2022-04-08T12:38:15Z</time>
      </trkpt>
      <trkpt lat="43.47145" lon="6.40088">
        <ele>174</ele>
        <time>2022-04-08T12:38:16Z</time>
      </trkpt>
      <trkpt lat="43.47144" lon="6.40088">
        <ele>174</ele>
        <time>2022-04-08T12:38:17Z</time>
      </trkpt>
      <trkpt lat="43.47143" lon="6.40088">
        <ele>174</ele>
        <time>2022-04-08T12:38:18Z</time>
      </trkpt>
      <trkpt lat="43.47143" lon="6.40089">
        <ele>174</ele>
        <time>2022-04-08T12:38:19Z</time>
      </trkpt>
      <trkpt lat="43.47142" lon="6.40089">
        <ele>174</ele>
        <time>2022-04-08T12:38:20Z</time>
      </trkpt>
      <trkpt lat="43.47142" lon="6.4009">
        <ele>174</ele>
        <time>2022-04-08T12:38:21Z</time>
      </trkpt>
      <trkpt lat="43.47141" lon="6.4009">
        <ele>174</ele>
        <time>2022-04-08T12:38:22Z</time>
      </trkpt>
      <trkpt lat="43.4714" lon="6.40091">
        <ele>174</ele>
        <time>2022-04-08T12:38:23Z</time>
      </trkpt>
      <trkpt lat="43.4714" lon="6.40091">
        <ele>174</ele>
        <time>2022-04-08T12:38:24Z</time>
      </trkpt>
      <trkpt lat="43.47139" lon="6.40092">
        <ele>174</ele>
        <time>2022-04-08T12:38:25Z</time>
      </trkpt>
      <trkpt lat="43.47139" lon="6.40093">
        <ele>173</ele>
        <time>2022-04-08T12:38:26Z</time>
      </trkpt>
      <trkpt lat="43.47138" lon="6.40093">
        <ele>173</ele>
        <time>2022-04-08T12:38:27Z</time>
      </trkpt>
      <trkpt lat="43.47138" lon="6.40093">
        <ele>173</ele>
        <time>2022-04-08T12:38:28Z</time>
      </trkpt>
      <trkpt lat="43.47137" lon="6.40094">
        <ele>173</ele>
        <time>2022-04-08T12:38:29Z</time>
      </trkpt>
      <trkpt lat="43.47136" lon="6.40094">
        <ele>173</ele>
        <time>2022-04-08T12:38:30Z</time>
      </trkpt>
      <trkpt lat="43.47136" lon="6.40094">
        <ele>173</ele>
        <time>2022-04-08T12:38:31Z</time>
      </trkpt>
      <trkpt lat="43.47136" lon="6.40095">
        <ele>173</ele>
        <time>2022-04-08T12:38:32Z</time>
      </trkpt>
      <trkpt lat="43.47135" lon="6.40095">
        <ele>173</ele>
        <time>2022-04-08T12:38:33Z</time>
      </trkpt>
      <trkpt lat="43.47135" lon="6.40095">
        <ele>173</ele>
        <time>2022-04-08T12:38:34Z</time>
      </trkpt>
      <trkpt lat="43.47135" lon="6.40095">
        <ele>173</ele>
        <time>2022-04-08T12:38:35Z</time>
      </trkpt>
      <trkpt lat="43.47135" lon="6.40094">
        <ele>173</ele>
        <time>2022-04-08T12:38:36Z</time>
      </trkpt>
      <trkpt lat="43.47134" lon="6.40093">
        <ele>173</ele>
        <time>2022-04-08T12:38:37Z</time>
      </trkpt>
      <trkpt lat="43.47134" lon="6.40094">
        <ele>173</ele>
        <time>2022-04-08T12:38:38Z</time>
      </trkpt>
      <trkpt lat="43.47134" lon="6.40094">
        <ele>173</ele>
        <time>2022-04-08T12:38:39Z</time>
      </trkpt>
      <trkpt lat="43.47134" lon="6.40094">
        <ele>173</ele>
        <time>2022-04-08T12:38:40Z</time>
      </trkpt>
      <trkpt lat="43.47133" lon="6.40094">
        <ele>173</ele>
        <time>2022-04-08T12:38:41Z</time>
      </trkpt>
      <trkpt lat="43.47132" lon="6.40094">
        <ele>173</ele>
        <time>2022-04-08T12:38:42Z</time>
      </trkpt>
      <trkpt lat="43.47132" lon="6.40094">
        <ele>173</ele>
        <time>2022-04-08T12:38:43Z</time>
      </trkpt>
      <trkpt lat="43.47131" lon="6.40094">
        <ele>173</ele>
        <time>2022-04-08T12:38:44Z</time>
      </trkpt>
      <trkpt lat="43.47131" lon="6.40095">
        <ele>173</ele>
        <time>2022-04-08T12:38:45Z</time>
      </trkpt>
      <trkpt lat="43.4713" lon="6.40096">
        <ele>174</ele>
        <time>2022-04-08T12:38:46Z</time>
      </trkpt>
      <trkpt lat="43.4713" lon="6.40096">
        <ele>174</ele>
        <time>2022-04-08T12:38:47Z</time>
      </trkpt>
      <trkpt lat="43.47129" lon="6.40097">
        <ele>174</ele>
        <time>2022-04-08T12:38:48Z</time>
      </trkpt>
      <trkpt lat="43.47129" lon="6.40098">
        <ele>174</ele>
        <time>2022-04-08T12:38:49Z</time>
      </trkpt>
      <trkpt lat="43.47128" lon="6.40098">
        <ele>174</ele>
        <time>2022-04-08T12:38:50Z</time>
      </trkpt>
      <trkpt lat="43.47128" lon="6.40099">
        <ele>174</ele>
        <time>2022-04-08T12:38:51Z</time>
      </trkpt>
      <trkpt lat="43.47127" lon="6.401">
        <ele>174</ele>
        <time>2022-04-08T12:38:52Z</time>
      </trkpt>
      <trkpt lat="43.47126" lon="6.40101">
        <ele>174</ele>
        <time>2022-04-08T12:38:53Z</time>
      </trkpt>
      <trkpt lat="43.47125" lon="6.40102">
        <ele>174</ele>
        <time>2022-04-08T12:38:54Z</time>
      </trkpt>
      <trkpt lat="43.47125" lon="6.40102">
        <ele>174</ele>
        <time>2022-04-08T12:38:55Z</time>
      </trkpt>
      <trkpt lat="43.47124" lon="6.40103">
        <ele>174</ele>
        <time>2022-04-08T12:38:56Z</time>
      </trkpt>
      <trkpt lat="43.47123" lon="6.40104">
        <ele>174</ele>
        <time>2022-04-08T12:38:57Z</time>
      </trkpt>
      <trkpt lat="43.47122" lon="6.40104">
        <ele>174</ele>
        <time>2022-04-08T12:38:58Z</time>
      </trkpt>
      <trkpt lat="43.47122" lon="6.40103">
        <ele>174</ele>
        <time>2022-04-08T12:38:59Z</time>
      </trkpt>
      <trkpt lat="43.47121" lon="6.40104">
        <ele>174</ele>
        <time>2022-04-08T12:39:00Z</time>
      </trkpt>
      <trkpt lat="43.47121" lon="6.40105">
        <ele>174</ele>
        <time>2022-04-08T12:39:01Z</time>
      </trkpt>
      <trkpt lat="43.4712" lon="6.40106">
        <ele>174</ele>
        <time>2022-04-08T12:39:02Z</time>
      </trkpt>
      <trkpt lat="43.47119" lon="6.40107">
        <ele>174</ele>
        <time>2022-04-08T12:39:03Z</time>
      </trkpt>
      <trkpt lat="43.47118" lon="6.40108">
        <ele>174</ele>
        <time>2022-04-08T12:39:04Z</time>
      </trkpt>
      <trkpt lat="43.47117" lon="6.40109">
        <ele>174</ele>
        <time>2022-04-08T12:39:05Z</time>
      </trkpt>
      <trkpt lat="43.47116" lon="6.4011">
        <ele>174</ele>
        <time>2022-04-08T12:39:06Z</time>
      </trkpt>
      <trkpt lat="43.47115" lon="6.40111">
        <ele>174</ele>
        <time>2022-04-08T12:39:07Z</time>
      </trkpt>
      <trkpt lat="43.47114" lon="6.40112">
        <ele>174</ele>
        <time>2022-04-08T12:39:08Z</time>
      </trkpt>
      <trkpt lat="43.47112" lon="6.40113">
        <ele>174</ele>
        <time>2022-04-08T12:39:09Z</time>
      </trkpt>
      <trkpt lat="43.47111" lon="6.40114">
        <ele>174</ele>
        <time>2022-04-08T12:39:10Z</time>
      </trkpt>
      <trkpt lat="43.47109" lon="6.40115">
        <ele>174</ele>
        <time>2022-04-08T12:39:11Z</time>
      </trkpt>
      <trkpt lat="43.47108" lon="6.40116">
        <ele>174</ele>
        <time>2022-04-08T12:39:12Z</time>
      </trkpt>
      <trkpt lat="43.47107" lon="6.40117">
        <ele>174</ele>
        <time>2022-04-08T12:39:13Z</time>
      </trkpt>
      <trkpt lat="43.47106" lon="6.40117">
        <ele>174</ele>
        <time>2022-04-08T12:39:14Z</time>
      </trkpt>
      <trkpt lat="43.47106" lon="6.40118">
        <ele>174</ele>
        <time>2022-04-08T12:39:15Z</time>
      </trkpt>
      <trkpt lat="43.47104" lon="6.4012">
        <ele>174</ele>
        <time>2022-04-08T12:39:16Z</time>
      </trkpt>
      <trkpt lat="43.47103" lon="6.40121">
        <ele>174</ele>
        <time>2022-04-08T12:39:17Z</time>
      </trkpt>
      <trkpt lat="43.47102" lon="6.40122">
        <ele>174</ele>
        <time>2022-04-08T12:39:18Z</time>
      </trkpt>
      <trkpt lat="43.471" lon="6.40123">
        <ele>174</ele>
        <time>2022-04-08T12:39:19Z</time>
      </trkpt>
      <trkpt lat="43.47099" lon="6.40124">
        <ele>174</ele>
        <time>2022-04-08T12:39:20Z</time>
      </trkpt>
      <trkpt lat="43.47098" lon="6.40125">
        <ele>174</ele>
        <time>2022-04-08T12:39:21Z</time>
      </trkpt>
      <trkpt lat="43.47096" lon="6.40126">
        <ele>174</ele>
        <time>2022-04-08T12:39:22Z</time>
      </trkpt>
      <trkpt lat="43.47095" lon="6.40126">
        <ele>174</ele>
        <time>2022-04-08T12:39:23Z</time>
      </trkpt>
      <trkpt lat="43.47094" lon="6.40127">
        <ele>174</ele>
        <time>2022-04-08T12:39:24Z</time>
      </trkpt>
      <trkpt lat="43.47093" lon="6.40128">
        <ele>174</ele>
        <time>2022-04-08T12:39:25Z</time>
      </trkpt>
      <trkpt lat="43.47092" lon="6.40129">
        <ele>174</ele>
        <time>2022-04-08T12:39:26Z</time>
      </trkpt>
      <trkpt lat="43.47092" lon="6.40129">
        <ele>174</ele>
        <time>2022-04-08T12:39:27Z</time>
      </trkpt>
      <trkpt lat="43.47091" lon="6.4013">
        <ele>174</ele>
        <time>2022-04-08T12:39:28Z</time>
      </trkpt>
      <trkpt lat="43.4709" lon="6.40131">
        <ele>174</ele>
        <time>2022-04-08T12:39:29Z</time>
      </trkpt>
      <trkpt lat="43.47089" lon="6.40131">
        <ele>174</ele>
        <time>2022-04-08T12:39:30Z</time>
      </trkpt>
      <trkpt lat="43.47088" lon="6.40132">
        <ele>173</ele>
        <time>2022-04-08T12:39:31Z</time>
      </trkpt>
      <trkpt lat="43.47087" lon="6.40133">
        <ele>173</ele>
        <time>2022-04-08T12:39:32Z</time>
      </trkpt>
      <trkpt lat="43.47086" lon="6.40134">
        <ele>173</ele>
        <time>2022-04-08T12:39:33Z</time>
      </trkpt>
      <trkpt lat="43.47085" lon="6.40135">
        <ele>173</ele>
        <time>2022-04-08T12:39:34Z</time>
      </trkpt>
      <trkpt lat="43.47084" lon="6.40135">
        <ele>173</ele>
        <time>2022-04-08T12:39:35Z</time>
      </trkpt>
      <trkpt lat="43.47083" lon="6.40136">
        <ele>173</ele>
        <time>2022-04-08T12:39:36Z</time>
      </trkpt>
      <trkpt lat="43.47082" lon="6.40136">
        <ele>173</ele>
        <time>2022-04-08T12:39:37Z</time>
      </trkpt>
      <trkpt lat="43.47081" lon="6.40137">
        <ele>173</ele>
        <time>2022-04-08T12:39:38Z</time>
      </trkpt>
      <trkpt lat="43.47081" lon="6.40137">
        <ele>172</ele>
        <time>2022-04-08T12:39:39Z</time>
      </trkpt>
      <trkpt lat="43.4708" lon="6.40138">
        <ele>172</ele>
        <time>2022-04-08T12:39:40Z</time>
      </trkpt>
      <trkpt lat="43.47079" lon="6.40139">
        <ele>172</ele>
        <time>2022-04-08T12:39:41Z</time>
      </trkpt>
      <trkpt lat="43.47079" lon="6.40139">
        <ele>172</ele>
        <time>2022-04-08T12:39:42Z</time>
      </trkpt>
      <trkpt lat="43.47078" lon="6.4014">
        <ele>172</ele>
        <time>2022-04-08T12:39:43Z</time>
      </trkpt>
      <trkpt lat="43.47077" lon="6.40141">
        <ele>173</ele>
        <time>2022-04-08T12:39:44Z</time>
      </trkpt>
      <trkpt lat="43.47076" lon="6.40142">
        <ele>173</ele>
        <time>2022-04-08T12:39:45Z</time>
      </trkpt>
      <trkpt lat="43.47075" lon="6.40142">
        <ele>173</ele>
        <time>2022-04-08T12:39:46Z</time>
      </trkpt>
      <trkpt lat="43.47074" lon="6.40143">
        <ele>173</ele>
        <time>2022-04-08T12:39:47Z</time>
      </trkpt>
      <trkpt lat="43.47073" lon="6.40143">
        <ele>173</ele>
        <time>2022-04-08T12:39:48Z</time>
      </trkpt>
      <trkpt lat="43.47072" lon="6.40144">
        <ele>173</ele>
        <time>2022-04-08T12:39:49Z</time>
      </trkpt>
      <trkpt lat="43.47072" lon="6.40145">
        <ele>173</ele>
        <time>2022-04-08T12:39:50Z</time>
      </trkpt>
      <trkpt lat="43.47071" lon="6.40145">
        <ele>173</ele>
        <time>2022-04-08T12:39:51Z</time>
      </trkpt>
      <trkpt lat="43.4707" lon="6.40146">
        <ele>173</ele>
        <time>2022-04-08T12:39:52Z</time>
      </trkpt>
      <trkpt lat="43.47069" lon="6.40146">
        <ele>173</ele>
        <time>2022-04-08T12:39:53Z</time>
      </trkpt>
      <trkpt lat="43.47069" lon="6.40147">
        <ele>173</ele>
        <time>2022-04-08T12:39:54Z</time>
      </trkpt>
      <trkpt lat="43.47068" lon="6.40147">
        <ele>173</ele>
        <time>2022-04-08T12:39:55Z</time>
      </trkpt>
      <trkpt lat="43.47068" lon="6.40148">
        <ele>174</ele>
        <time>2022-04-08T12:39:56Z</time>
      </trkpt>
      <trkpt lat="43.47067" lon="6.40149">
        <ele>174</ele>
        <time>2022-04-08T12:39:57Z</time>
      </trkpt>
      <trkpt lat="43.47066" lon="6.40149">
        <ele>175</ele>
        <time>2022-04-08T12:39:58Z</time>
      </trkpt>
      <trkpt lat="43.47066" lon="6.4015">
        <ele>175</ele>
        <time>2022-04-08T12:39:59Z</time>
      </trkpt>
      <trkpt lat="43.47065" lon="6.4015">
        <ele>175</ele>
        <time>2022-04-08T12:40:00Z</time>
      </trkpt>
      <trkpt lat="43.47065" lon="6.40151">
        <ele>175</ele>
        <time>2022-04-08T12:40:01Z</time>
      </trkpt>
      <trkpt lat="43.47064" lon="6.40151">
        <ele>176</ele>
        <time>2022-04-08T12:40:02Z</time>
      </trkpt>
      <trkpt lat="43.47064" lon="6.40152">
        <ele>176</ele>
        <time>2022-04-08T12:40:03Z</time>
      </trkpt>
      <trkpt lat="43.47063" lon="6.40152">
        <ele>176</ele>
        <time>2022-04-08T12:40:04Z</time>
      </trkpt>
      <trkpt lat="43.47063" lon="6.40153">
        <ele>176</ele>
        <time>2022-04-08T12:40:05Z</time>
      </trkpt>
      <trkpt lat="43.47062" lon="6.40153">
        <ele>176</ele>
        <time>2022-04-08T12:40:06Z</time>
      </trkpt>
      <trkpt lat="43.47062" lon="6.40154">
        <ele>176</ele>
        <time>2022-04-08T12:40:07Z</time>
      </trkpt>
      <trkpt lat="43.47061" lon="6.40154">
        <ele>176</ele>
        <time>2022-04-08T12:40:08Z</time>
      </trkpt>
      <trkpt lat="43.47061" lon="6.40154">
        <ele>176</ele>
        <time>2022-04-08T12:40:09Z</time>
      </trkpt>
      <trkpt lat="43.47061" lon="6.40155">
        <ele>176</ele>
        <time>2022-04-08T12:40:10Z</time>
      </trkpt>
      <trkpt lat="43.4706" lon="6.40155">
        <ele>176</ele>
        <time>2022-04-08T12:40:11Z</time>
      </trkpt>
      <trkpt lat="43.4706" lon="6.40156">
        <ele>176</ele>
        <time>2022-04-08T12:40:12Z</time>
      </trkpt>
      <trkpt lat="43.4706" lon="6.40156">
        <ele>176</ele>
        <time>2022-04-08T12:40:13Z</time>
      </trkpt>
      <trkpt lat="43.47059" lon="6.40156">
        <ele>176</ele>
        <time>2022-04-08T12:40:14Z</time>
      </trkpt>
      <trkpt lat="43.47059" lon="6.40157">
        <ele>177</ele>
        <time>2022-04-08T12:40:15Z</time>
      </trkpt>
      <trkpt lat="43.47058" lon="6.40157">
        <ele>177</ele>
        <time>2022-04-08T12:40:16Z</time>
      </trkpt>
      <trkpt lat="43.47057" lon="6.40158">
        <ele>177</ele>
        <time>2022-04-08T12:40:17Z</time>
      </trkpt>
      <trkpt lat="43.47057" lon="6.40158">
        <ele>177</ele>
        <time>2022-04-08T12:40:18Z</time>
      </trkpt>
      <trkpt lat="43.47056" lon="6.40159">
        <ele>177</ele>
        <time>2022-04-08T12:40:19Z</time>
      </trkpt>
      <trkpt lat="43.47056" lon="6.40159">
        <ele>177</ele>
        <time>2022-04-08T12:40:20Z</time>
      </trkpt>
      <trkpt lat="43.47055" lon="6.4016">
        <ele>177</ele>
        <time>2022-04-08T12:40:21Z</time>
      </trkpt>
      <trkpt lat="43.47054" lon="6.40161">
        <ele>177</ele>
        <time>2022-04-08T12:40:22Z</time>
      </trkpt>
      <trkpt lat="43.47054" lon="6.40161">
        <ele>177</ele>
        <time>2022-04-08T12:40:23Z</time>
      </trkpt>
      <trkpt lat="43.47053" lon="6.40162">
        <ele>177</ele>
        <time>2022-04-08T12:40:24Z</time>
      </trkpt>
      <trkpt lat="43.47052" lon="6.40163">
        <ele>177</ele>
        <time>2022-04-08T12:40:25Z</time>
      </trkpt>
      <trkpt lat="43.47052" lon="6.40164">
        <ele>177</ele>
        <time>2022-04-08T12:40:26Z</time>
      </trkpt>
      <trkpt lat="43.47051" lon="6.40164">
        <ele>177</ele>
        <time>2022-04-08T12:40:27Z</time>
      </trkpt>
      <trkpt lat="43.4705" lon="6.40165">
        <ele>177</ele>
        <time>2022-04-08T12:40:28Z</time>
      </trkpt>
      <trkpt lat="43.47049" lon="6.40165">
        <ele>177</ele>
        <time>2022-04-08T12:40:29Z</time>
      </trkpt>
      <trkpt lat="43.47049" lon="6.40166">
        <ele>177</ele>
        <time>2022-04-08T12:40:30Z</time>
      </trkpt>
      <trkpt lat="43.47048" lon="6.40167">
        <ele>177</ele>
        <time>2022-04-08T12:40:31Z</time>
      </trkpt>
      <trkpt lat="43.47047" lon="6.40167">
        <ele>177</ele>
        <time>2022-04-08T12:40:32Z</time>
      </trkpt>
      <trkpt lat="43.47047" lon="6.40168">
        <ele>177</ele>
        <time>2022-04-08T12:40:33Z</time>
      </trkpt>
      <trkpt lat="43.47046" lon="6.40169">
        <ele>177</ele>
        <time>2022-04-08T12:40:34Z</time>
      </trkpt>
      <trkpt lat="43.47045" lon="6.4017">
        <ele>177</ele>
        <time>2022-04-08T12:40:35Z</time>
      </trkpt>
      <trkpt lat="43.47044" lon="6.40171">
        <ele>177</ele>
        <time>2022-04-08T12:40:36Z</time>
      </trkpt>
      <trkpt lat="43.47044" lon="6.40172">
        <ele>177</ele>
        <time>2022-04-08T12:40:37Z</time>
      </trkpt>
      <trkpt lat="43.47043" lon="6.40173">
        <ele>177</ele>
        <time>2022-04-08T12:40:38Z</time>
      </trkpt>
      <trkpt lat="43.47042" lon="6.40174">
        <ele>177</ele>
        <time>2022-04-08T12:40:39Z</time>
      </trkpt>
      <trkpt lat="43.47041" lon="6.40175">
        <ele>177</ele>
        <time>2022-04-08T12:40:40Z</time>
      </trkpt>
      <trkpt lat="43.4704" lon="6.40177">
        <ele>177</ele>
        <time>2022-04-08T12:40:41Z</time>
      </trkpt>
      <trkpt lat="43.47039" lon="6.40178">
        <ele>177</ele>
        <time>2022-04-08T12:40:42Z</time>
      </trkpt>
      <trkpt lat="43.47038" lon="6.40179">
        <ele>177</ele>
        <time>2022-04-08T12:40:43Z</time>
      </trkpt>
      <trkpt lat="43.47037" lon="6.4018">
        <ele>177</ele>
        <time>2022-04-08T12:40:44Z</time>
      </trkpt>
      <trkpt lat="43.47036" lon="6.40182">
        <ele>178</ele>
        <time>2022-04-08T12:40:45Z</time>
      </trkpt>
      <trkpt lat="43.47035" lon="6.40183">
        <ele>178</ele>
        <time>2022-04-08T12:40:46Z</time>
      </trkpt>
      <trkpt lat="43.47034" lon="6.40185">
        <ele>178</ele>
        <time>2022-04-08T12:40:47Z</time>
      </trkpt>
      <trkpt lat="43.47033" lon="6.40186">
        <ele>178</ele>
        <time>2022-04-08T12:40:48Z</time>
      </trkpt>
      <trkpt lat="43.47032" lon="6.40188">
        <ele>178</ele>
        <time>2022-04-08T12:40:49Z</time>
      </trkpt>
      <trkpt lat="43.47031" lon="6.40189">
        <ele>178</ele>
        <time>2022-04-08T12:40:50Z</time>
      </trkpt>
      <trkpt lat="43.4703" lon="6.4019">
        <ele>178</ele>
        <time>2022-04-08T12:40:51Z</time>
      </trkpt>
      <trkpt lat="43.47029" lon="6.40191">
        <ele>178</ele>
        <time>2022-04-08T12:40:52Z</time>
      </trkpt>
      <trkpt lat="43.47028" lon="6.40193">
        <ele>178</ele>
        <time>2022-04-08T12:40:53Z</time>
      </trkpt>
      <trkpt lat="43.47027" lon="6.40194">
        <ele>178</ele>
        <time>2022-04-08T12:40:54Z</time>
      </trkpt>
      <trkpt lat="43.47026" lon="6.40195">
        <ele>178</ele>
        <time>2022-04-08T12:40:55Z</time>
      </trkpt>
      <trkpt lat="43.47025" lon="6.40196">
        <ele>178</ele>
        <time>2022-04-08T12:40:56Z</time>
      </trkpt>
      <trkpt lat="43.47024" lon="6.40197">
        <ele>178</ele>
        <time>2022-04-08T12:40:57Z</time>
      </trkpt>
      <trkpt lat="43.47023" lon="6.40198">
        <ele>178</ele>
        <time>2022-04-08T12:40:58Z</time>
      </trkpt>
      <trkpt lat="43.47022" lon="6.40199">
        <ele>178</ele>
        <time>2022-04-08T12:40:59Z</time>
      </trkpt>
      <trkpt lat="43.47021" lon="6.402">
        <ele>178</ele>
        <time>2022-04-08T12:41:00Z</time>
      </trkpt>
      <trkpt lat="43.4702" lon="6.40201">
        <ele>178</ele>
        <time>2022-04-08T12:41:01Z</time>
      </trkpt>
      <trkpt lat="43.4702" lon="6.40202">
        <ele>178</ele>
        <time>2022-04-08T12:41:02Z</time>
      </trkpt>
      <trkpt lat="43.47019" lon="6.40203">
        <ele>178</ele>
        <time>2022-04-08T12:41:03Z</time>
      </trkpt>
      <trkpt lat="43.47018" lon="6.40204">
        <ele>178</ele>
        <time>2022-04-08T12:41:04Z</time>
      </trkpt>
      <trkpt lat="43.47017" lon="6.40204">
        <ele>178</ele>
        <time>2022-04-08T12:41:05Z</time>
      </trkpt>
      <trkpt lat="43.47016" lon="6.40205">
        <ele>178</ele>
        <time>2022-04-08T12:41:06Z</time>
      </trkpt>
      <trkpt lat="43.47016" lon="6.40205">
        <ele>178</ele>
        <time>2022-04-08T12:41:07Z</time>
      </trkpt>
      <trkpt lat="43.47015" lon="6.40206">
        <ele>178</ele>
        <time>2022-04-08T12:41:08Z</time>
      </trkpt>
      <trkpt lat="43.47014" lon="6.40207">
        <ele>178</ele>
        <time>2022-04-08T12:41:09Z</time>
      </trkpt>
      <trkpt lat="43.47013" lon="6.40208">
        <ele>178</ele>
        <time>2022-04-08T12:41:10Z</time>
      </trkpt>
      <trkpt lat="43.47013" lon="6.40209">
        <ele>178</ele>
        <time>2022-04-08T12:41:11Z</time>
      </trkpt>
      <trkpt lat="43.47012" lon="6.4021">
        <ele>178</ele>
        <time>2022-04-08T12:41:12Z</time>
      </trkpt>
      <trkpt lat="43.47011" lon="6.40211">
        <ele>178</ele>
        <time>2022-04-08T12:41:13Z</time>
      </trkpt>
      <trkpt lat="43.47011" lon="6.40212">
        <ele>178</ele>
        <time>2022-04-08T12:41:14Z</time>
      </trkpt>
      <trkpt lat="43.4701" lon="6.40213">
        <ele>178</ele>
        <time>2022-04-08T12:41:15Z</time>
      </trkpt>
      <trkpt lat="43.47009" lon="6.40214">
        <ele>178</ele>
        <time>2022-04-08T12:41:16Z</time>
      </trkpt>
      <trkpt lat="43.47008" lon="6.40215">
        <ele>178</ele>
        <time>2022-04-08T12:41:17Z</time>
      </trkpt>
      <trkpt lat="43.47007" lon="6.40216">
        <ele>178</ele>
        <time>2022-04-08T12:41:18Z</time>
      </trkpt>
      <trkpt lat="43.47007" lon="6.40217">
        <ele>179</ele>
        <time>2022-04-08T12:41:19Z</time>
      </trkpt>
      <trkpt lat="43.47006" lon="6.40218">
        <ele>179</ele>
        <time>2022-04-08T12:41:20Z</time>
      </trkpt>
      <trkpt lat="43.47005" lon="6.40219">
        <ele>179</ele>
        <time>2022-04-08T12:41:21Z</time>
      </trkpt>
      <trkpt lat="43.47004" lon="6.40221">
        <ele>180</ele>
        <time>2022-04-08T12:41:22Z</time>
      </trkpt>
      <trkpt lat="43.47003" lon="6.40222">
        <ele>180</ele>
        <time>2022-04-08T12:41:23Z</time>
      </trkpt>
      <trkpt lat="43.47003" lon="6.40223">
        <ele>180</ele>
        <time>2022-04-08T12:41:24Z</time>
      </trkpt>
      <trkpt lat="43.47002" lon="6.40224">
        <ele>180</ele>
        <time>2022-04-08T12:41:25Z</time>
      </trkpt>
      <trkpt lat="43.47001" lon="6.40225">
        <ele>181</ele>
        <time>2022-04-08T12:41:26Z</time>
      </trkpt>
      <trkpt lat="43.47001" lon="6.40226">
        <ele>181</ele>
        <time>2022-04-08T12:41:27Z</time>
      </trkpt>
      <trkpt lat="43.47" lon="6.40226">
        <ele>181</ele>
        <time>2022-04-08T12:41:28Z</time>
      </trkpt>
      <trkpt lat="43.46999" lon="6.40227">
        <ele>181</ele>
        <time>2022-04-08T12:41:29Z</time>
      </trkpt>
      <trkpt lat="43.46998" lon="6.40228">
        <ele>181</ele>
        <time>2022-04-08T12:41:30Z</time>
      </trkpt>
      <trkpt lat="43.46998" lon="6.40229">
        <ele>181</ele>
        <time>2022-04-08T12:41:31Z</time>
      </trkpt>
      <trkpt lat="43.46997" lon="6.40229">
        <ele>181</ele>
        <time>2022-04-08T12:41:32Z</time>
      </trkpt>
      <trkpt lat="43.46996" lon="6.4023">
        <ele>181</ele>
        <time>2022-04-08T12:41:33Z</time>
      </trkpt>
      <trkpt lat="43.46995" lon="6.40231">
        <ele>181</ele>
        <time>2022-04-08T12:41:34Z</time>
      </trkpt>
      <trkpt lat="43.46995" lon="6.40232">
        <ele>181</ele>
        <time>2022-04-08T12:41:35Z</time>
      </trkpt>
      <trkpt lat="43.46994" lon="6.40233">
        <ele>182</ele>
        <time>2022-04-08T12:41:36Z</time>
      </trkpt>
      <trkpt lat="43.46993" lon="6.40234">
        <ele>182</ele>
        <time>2022-04-08T12:41:37Z</time>
      </trkpt>
      <trkpt lat="43.46993" lon="6.40235">
        <ele>182</ele>
        <time>2022-04-08T12:41:38Z</time>
      </trkpt>
      <trkpt lat="43.46992" lon="6.40235">
        <ele>182</ele>
        <time>2022-04-08T12:41:39Z</time>
      </trkpt>
      <trkpt lat="43.46991" lon="6.40236">
        <ele>182</ele>
        <time>2022-04-08T12:41:40Z</time>
      </trkpt>
      <trkpt lat="43.4699" lon="6.40237">
        <ele>182</ele>
        <time>2022-04-08T12:41:41Z</time>
      </trkpt>
      <trkpt lat="43.46989" lon="6.40238">
        <ele>182</ele>
        <time>2022-04-08T12:41:42Z</time>
      </trkpt>
      <trkpt lat="43.46988" lon="6.40238">
        <ele>182</ele>
        <time>2022-04-08T12:41:43Z</time>
      </trkpt>
      <trkpt lat="43.46988" lon="6.40239">
        <ele>182</ele>
        <time>2022-04-08T12:41:44Z</time>
      </trkpt>
      <trkpt lat="43.46987" lon="6.40239">
        <ele>182</ele>
        <time>2022-04-08T12:41:45Z</time>
      </trkpt>
      <trkpt lat="43.46986" lon="6.4024">
        <ele>182</ele>
        <time>2022-04-08T12:41:46Z</time>
      </trkpt>
      <trkpt lat="43.46985" lon="6.40241">
        <ele>182</ele>
        <time>2022-04-08T12:41:47Z</time>
      </trkpt>
      <trkpt lat="43.46984" lon="6.40241">
        <ele>182</ele>
        <time>2022-04-08T12:41:48Z</time>
      </trkpt>
      <trkpt lat="43.46983" lon="6.40242">
        <ele>182</ele>
        <time>2022-04-08T12:41:49Z</time>
      </trkpt>
      <trkpt lat="43.46982" lon="6.40242">
        <ele>182</ele>
        <time>2022-04-08T12:41:50Z</time>
      </trkpt>
      <trkpt lat="43.46981" lon="6.40243">
        <ele>182</ele>
        <time>2022-04-08T12:41:51Z</time>
      </trkpt>
      <trkpt lat="43.4698" lon="6.40244">
        <ele>182</ele>
        <time>2022-04-08T12:41:52Z</time>
      </trkpt>
      <trkpt lat="43.46979" lon="6.40244">
        <ele>181</ele>
        <time>2022-04-08T12:41:53Z</time>
      </trkpt>
      <trkpt lat="43.46978" lon="6.40245">
        <ele>181</ele>
        <time>2022-04-08T12:41:54Z</time>
      </trkpt>
      <trkpt lat="43.46977" lon="6.40246">
        <ele>181</ele>
        <time>2022-04-08T12:41:55Z</time>
      </trkpt>
      <trkpt lat="43.46976" lon="6.40246">
        <ele>181</ele>
        <time>2022-04-08T12:41:56Z</time>
      </trkpt>
      <trkpt lat="43.46976" lon="6.40247">
        <ele>181</ele>
        <time>2022-04-08T12:41:57Z</time>
      </trkpt>
      <trkpt lat="43.46975" lon="6.40248">
        <ele>181</ele>
        <time>2022-04-08T12:41:58Z</time>
      </trkpt>
      <trkpt lat="43.46974" lon="6.40249">
        <ele>181</ele>
        <time>2022-04-08T12:41:59Z</time>
      </trkpt>
      <trkpt lat="43.46973" lon="6.4025">
        <ele>181</ele>
        <time>2022-04-08T12:42:00Z</time>
      </trkpt>
      <trkpt lat="43.46972" lon="6.40251">
        <ele>181</ele>
        <time>2022-04-08T12:42:01Z</time>
      </trkpt>
      <trkpt lat="43.46971" lon="6.40251">
        <ele>181</ele>
        <time>2022-04-08T12:42:02Z</time>
      </trkpt>
      <trkpt lat="43.4697" lon="6.40252">
        <ele>181</ele>
        <time>2022-04-08T12:42:03Z</time>
      </trkpt>
      <trkpt lat="43.46969" lon="6.40253">
        <ele>180</ele>
        <time>2022-04-08T12:42:04Z</time>
      </trkpt>
      <trkpt lat="43.46968" lon="6.40254">
        <ele>180</ele>
        <time>2022-04-08T12:42:05Z</time>
      </trkpt>
      <trkpt lat="43.46967" lon="6.40255">
        <ele>180</ele>
        <time>2022-04-08T12:42:06Z</time>
      </trkpt>
      <trkpt lat="43.46966" lon="6.40255">
        <ele>180</ele>
        <time>2022-04-08T12:42:07Z</time>
      </trkpt>
      <trkpt lat="43.46965" lon="6.40256">
        <ele>180</ele>
        <time>2022-04-08T12:42:08Z</time>
      </trkpt>
      <trkpt lat="43.46964" lon="6.40257">
        <ele>179</ele>
        <time>2022-04-08T12:42:09Z</time>
      </trkpt>
      <trkpt lat="43.46963" lon="6.40258">
        <ele>179</ele>
        <time>2022-04-08T12:42:10Z</time>
      </trkpt>
      <trkpt lat="43.46962" lon="6.40258">
        <ele>179</ele>
        <time>2022-04-08T12:42:11Z</time>
      </trkpt>
      <trkpt lat="43.46961" lon="6.40259">
        <ele>179</ele>
        <time>2022-04-08T12:42:12Z</time>
      </trkpt>
      <trkpt lat="43.4696" lon="6.4026">
        <ele>179</ele>
        <time>2022-04-08T12:42:13Z</time>
      </trkpt>
      <trkpt lat="43.46959" lon="6.40261">
        <ele>180</ele>
        <time>2022-04-08T12:42:14Z</time>
      </trkpt>
      <trkpt lat="43.46959" lon="6.40262">
        <ele>180</ele>
        <time>2022-04-08T12:42:15Z</time>
      </trkpt>
      <trkpt lat="43.46958" lon="6.40262">
        <ele>180</ele>
        <time>2022-04-08T12:42:16Z</time>
      </trkpt>
      <trkpt lat="43.46957" lon="6.40263">
        <ele>180</ele>
        <time>2022-04-08T12:42:17Z</time>
      </trkpt>
      <trkpt lat="43.46956" lon="6.40264">
        <ele>180</ele>
        <time>2022-04-08T12:42:18Z</time>
      </trkpt>
      <trkpt lat="43.46955" lon="6.40264">
        <ele>180</ele>
        <time>2022-04-08T12:42:19Z</time>
      </trkpt>
      <trkpt lat="43.46954" lon="6.40265">
        <ele>180</ele>
        <time>2022-04-08T12:42:20Z</time>
      </trkpt>
      <trkpt lat="43.46954" lon="6.40266">
        <ele>180</ele>
        <time>2022-04-08T12:42:21Z</time>
      </trkpt>
      <trkpt lat="43.46953" lon="6.40266">
        <ele>181</ele>
        <time>2022-04-08T12:42:22Z</time>
      </trkpt>
      <trkpt lat="43.46953" lon="6.40267">
        <ele>181</ele>
        <time>2022-04-08T12:42:23Z</time>
      </trkpt>
      <trkpt lat="43.46952" lon="6.40267">
        <ele>181</ele>
        <time>2022-04-08T12:42:24Z</time>
      </trkpt>
      <trkpt lat="43.46951" lon="6.40268">
        <ele>181</ele>
        <time>2022-04-08T12:42:25Z</time>
      </trkpt>
      <trkpt lat="43.46951" lon="6.40269">
        <ele>182</ele>
        <time>2022-04-08T12:42:26Z</time>
      </trkpt>
      <trkpt lat="43.4695" lon="6.4027">
        <ele>182</ele>
        <time>2022-04-08T12:42:27Z</time>
      </trkpt>
      <trkpt lat="43.46949" lon="6.4027">
        <ele>182</ele>
        <time>2022-04-08T12:42:28Z</time>
      </trkpt>
      <trkpt lat="43.46949" lon="6.40271">
        <ele>182</ele>
        <time>2022-04-08T12:42:29Z</time>
      </trkpt>
      <trkpt lat="43.46949" lon="6.40272">
        <ele>182</ele>
        <time>2022-04-08T12:42:30Z</time>
      </trkpt>
      <trkpt lat="43.46948" lon="6.40273">
        <ele>182</ele>
        <time>2022-04-08T12:42:31Z</time>
      </trkpt>
      <trkpt lat="43.46948" lon="6.40274">
        <ele>182</ele>
        <time>2022-04-08T12:42:32Z</time>
      </trkpt>
      <trkpt lat="43.46947" lon="6.40274">
        <ele>182</ele>
        <time>2022-04-08T12:42:33Z</time>
      </trkpt>
      <trkpt lat="43.46947" lon="6.40275">
        <ele>182</ele>
        <time>2022-04-08T12:42:34Z</time>
      </trkpt>
      <trkpt lat="43.46947" lon="6.40276">
        <ele>182</ele>
        <time>2022-04-08T12:42:35Z</time>
      </trkpt>
      <trkpt lat="43.46946" lon="6.40277">
        <ele>182</ele>
        <time>2022-04-08T12:42:36Z</time>
      </trkpt>
      <trkpt lat="43.46945" lon="6.40278">
        <ele>182</ele>
        <time>2022-04-08T12:42:37Z</time>
      </trkpt>
      <trkpt lat="43.46945" lon="6.40279">
        <ele>182</ele>
        <time>2022-04-08T12:42:38Z</time>
      </trkpt>
      <trkpt lat="43.46944" lon="6.40279">
        <ele>182</ele>
        <time>2022-04-08T12:42:39Z</time>
      </trkpt>
      <trkpt lat="43.46944" lon="6.40281">
        <ele>183</ele>
        <time>2022-04-08T12:42:40Z</time>
      </trkpt>
      <trkpt lat="43.46943" lon="6.40282">
        <ele>183</ele>
        <time>2022-04-08T12:42:41Z</time>
      </trkpt>
      <trkpt lat="43.46942" lon="6.40283">
        <ele>183</ele>
        <time>2022-04-08T12:42:42Z</time>
      </trkpt>
      <trkpt lat="43.46942" lon="6.40284">
        <ele>183</ele>
        <time>2022-04-08T12:42:43Z</time>
      </trkpt>
      <trkpt lat="43.46941" lon="6.40285">
        <ele>183</ele>
        <time>2022-04-08T12:42:44Z</time>
      </trkpt>
      <trkpt lat="43.4694" lon="6.40286">
        <ele>183</ele>
        <time>2022-04-08T12:42:45Z</time>
      </trkpt>
      <trkpt lat="43.4694" lon="6.40287">
        <ele>183</ele>
        <time>2022-04-08T12:42:46Z</time>
      </trkpt>
      <trkpt lat="43.46939" lon="6.40289">
        <ele>183</ele>
        <time>2022-04-08T12:42:47Z</time>
      </trkpt>
      <trkpt lat="43.46939" lon="6.4029">
        <ele>183</ele>
        <time>2022-04-08T12:42:48Z</time>
      </trkpt>
      <trkpt lat="43.46938" lon="6.40291">
        <ele>183</ele>
        <time>2022-04-08T12:42:49Z</time>
      </trkpt>
      <trkpt lat="43.46937" lon="6.40292">
        <ele>182</ele>
        <time>2022-04-08T12:42:50Z</time>
      </trkpt>
      <trkpt lat="43.46936" lon="6.40294">
        <ele>182</ele>
        <time>2022-04-08T12:42:51Z</time>
      </trkpt>
      <trkpt lat="43.46935" lon="6.40295">
        <ele>182</ele>
        <time>2022-04-08T12:42:52Z</time>
      </trkpt>
      <trkpt lat="43.46934" lon="6.40296">
        <ele>182</ele>
        <time>2022-04-08T12:42:53Z</time>
      </trkpt>
      <trkpt lat="43.46934" lon="6.40297">
        <ele>182</ele>
        <time>2022-04-08T12:42:54Z</time>
      </trkpt>
      <trkpt lat="43.46933" lon="6.40298">
        <ele>182</ele>
        <time>2022-04-08T12:42:55Z</time>
      </trkpt>
      <trkpt lat="43.46932" lon="6.40299">
        <ele>182</ele>
        <time>2022-04-08T12:42:56Z</time>
      </trkpt>
      <trkpt lat="43.46932" lon="6.403">
        <ele>182</ele>
        <time>2022-04-08T12:42:57Z</time>
      </trkpt>
      <trkpt lat="43.46931" lon="6.40301">
        <ele>182</ele>
        <time>2022-04-08T12:42:58Z</time>
      </trkpt>
      <trkpt lat="43.46931" lon="6.40302">
        <ele>182</ele>
        <time>2022-04-08T12:42:59Z</time>
      </trkpt>
      <trkpt lat="43.4693" lon="6.40304">
        <ele>182</ele>
        <time>2022-04-08T12:43:00Z</time>
      </trkpt>
      <trkpt lat="43.46929" lon="6.40305">
        <ele>183</ele>
        <time>2022-04-08T12:43:01Z</time>
      </trkpt>
      <trkpt lat="43.46929" lon="6.40306">
        <ele>183</ele>
        <time>2022-04-08T12:43:02Z</time>
      </trkpt>
      <trkpt lat="43.46928" lon="6.40307">
        <ele>183</ele>
        <time>2022-04-08T12:43:03Z</time>
      </trkpt>
      <trkpt lat="43.46928" lon="6.40308">
        <ele>183</ele>
        <time>2022-04-08T12:43:04Z</time>
      </trkpt>
      <trkpt lat="43.46927" lon="6.40309">
        <ele>183</ele>
        <time>2022-04-08T12:43:05Z</time>
      </trkpt>
      <trkpt lat="43.46927" lon="6.40309">
        <ele>183</ele>
        <time>2022-04-08T12:43:06Z</time>
      </trkpt>
      <trkpt lat="43.46926" lon="6.4031">
        <ele>183</ele>
        <time>2022-04-08T12:43:07Z</time>
      </trkpt>
      <trkpt lat="43.46926" lon="6.4031">
        <ele>183</ele>
        <time>2022-04-08T12:43:08Z</time>
      </trkpt>
      <trkpt lat="43.46926" lon="6.40311">
        <ele>183</ele>
        <time>2022-04-08T12:43:09Z</time>
      </trkpt>
      <trkpt lat="43.46925" lon="6.40311">
        <ele>183</ele>
        <time>2022-04-08T12:43:10Z</time>
      </trkpt>
      <trkpt lat="43.46925" lon="6.40311">
        <ele>183</ele>
        <time>2022-04-08T12:43:11Z</time>
      </trkpt>
      <trkpt lat="43.46924" lon="6.40311">
        <ele>183</ele>
        <time>2022-04-08T12:43:12Z</time>
      </trkpt>
      <trkpt lat="43.46924" lon="6.40312">
        <ele>183</ele>
        <time>2022-04-08T12:43:13Z</time>
      </trkpt>
      <trkpt lat="43.46923" lon="6.40312">
        <ele>183</ele>
        <time>2022-04-08T12:43:14Z</time>
      </trkpt>
      <trkpt lat="43.46923" lon="6.40312">
        <ele>183</ele>
        <time>2022-04-08T12:43:15Z</time>
      </trkpt>
      <trkpt lat="43.46923" lon="6.40313">
        <ele>183</ele>
        <time>2022-04-08T12:43:16Z</time>
      </trkpt>
      <trkpt lat="43.46923" lon="6.40314">
        <ele>183</ele>
        <time>2022-04-08T12:43:17Z</time>
      </trkpt>
      <trkpt lat="43.46922" lon="6.40314">
        <ele>183</ele>
        <time>2022-04-08T12:43:18Z</time>
      </trkpt>
      <trkpt lat="43.46922" lon="6.40315">
        <ele>183</ele>
        <time>2022-04-08T12:43:19Z</time>
      </trkpt>
      <trkpt lat="43.46922" lon="6.40315">
        <ele>183</ele>
        <time>2022-04-08T12:43:20Z</time>
      </trkpt>
      <trkpt lat="43.46922" lon="6.40316">
        <ele>183</ele>
        <time>2022-04-08T12:43:21Z</time>
      </trkpt>
      <trkpt lat="43.46922" lon="6.40316">
        <ele>182</ele>
        <time>2022-04-08T12:43:22Z</time>
      </trkpt>
      <trkpt lat="43.46922" lon="6.40317">
        <ele>182</ele>
        <time>2022-04-08T12:43:23Z</time>
      </trkpt>
      <trkpt lat="43.46922" lon="6.40316">
        <ele>182</ele>
        <time>2022-04-08T12:43:24Z</time>
      </trkpt>
      <trkpt lat="43.46921" lon="6.40316">
        <ele>182</ele>
        <time>2022-04-08T12:43:25Z</time>
      </trkpt>
      <trkpt lat="43.46921" lon="6.40316">
        <ele>182</ele>
        <time>2022-04-08T12:43:26Z</time>
      </trkpt>
      <trkpt lat="43.46921" lon="6.40316">
        <ele>182</ele>
        <time>2022-04-08T12:43:27Z</time>
      </trkpt>
      <trkpt lat="43.46921" lon="6.40315">
        <ele>182</ele>
        <time>2022-04-08T12:43:28Z</time>
      </trkpt>
      <trkpt lat="43.46921" lon="6.40315">
        <ele>182</ele>
        <time>2022-04-08T12:43:29Z</time>
      </trkpt>
      <trkpt lat="43.46921" lon="6.40315">
        <ele>182</ele>
        <time>2022-04-08T12:43:30Z</time>
      </trkpt>
      <trkpt lat="43.46921" lon="6.40315">
        <ele>182</ele>
        <time>2022-04-08T12:43:31Z</time>
      </trkpt>
      <trkpt lat="43.46921" lon="6.40315">
        <ele>182</ele>
        <time>2022-04-08T12:43:32Z</time>
      </trkpt>
      <trkpt lat="43.46921" lon="6.40315">
        <ele>182</ele>
        <time>2022-04-08T12:43:33Z</time>
      </trkpt>
      <trkpt lat="43.46921" lon="6.40315">
        <ele>182</ele>
        <time>2022-04-08T12:43:34Z</time>
      </trkpt>
      <trkpt lat="43.46921" lon="6.40315">
        <ele>182</ele>
        <time>2022-04-08T12:43:35Z</time>
      </trkpt>
      <trkpt lat="43.46921" lon="6.40315">
        <ele>182</ele>
        <time>2022-04-08T12:43:36Z</time>
      </trkpt>
      <trkpt lat="43.46921" lon="6.40315">
        <ele>182</ele>
        <time>2022-04-08T12:43:37Z</time>
      </trkpt>
      <trkpt lat="43.46921" lon="6.40315">
        <ele>182</ele>
        <time>2022-04-08T12:43:38Z</time>
      </trkpt>
      <trkpt lat="43.46921" lon="6.40315">
        <ele>182</ele>
        <time>2022-04-08T12:43:39Z</time>
      </trkpt>
      <trkpt lat="43.46921" lon="6.40315">
        <ele>182</ele>
        <time>2022-04-08T12:43:40Z</time>
      </trkpt>
      <trkpt lat="43.46921" lon="6.40315">
        <ele>182</ele>
        <time>2022-04-08T12:43:41Z</time>
      </trkpt>
      <trkpt lat="43.46921" lon="6.40315">
        <ele>182</ele>
        <time>2022-04-08T12:43:42Z</time>
      </trkpt>
      <trkpt lat="43.46924" lon="6.40316">
        <ele>182</ele>
        <time>2022-04-08T12:43:43Z</time>
      </trkpt>
      <trkpt lat="43.46923" lon="6.40316">
        <ele>182</ele>
        <time>2022-04-08T12:43:44Z</time>
      </trkpt>
      <trkpt lat="43.46921" lon="6.40316">
        <ele>182</ele>
        <time>2022-04-08T12:43:45Z</time>
      </trkpt>
      <trkpt lat="43.4692" lon="6.40316">
        <ele>182</ele>
        <time>2022-04-08T12:43:46Z</time>
      </trkpt>
      <trkpt lat="43.4692" lon="6.40316">
        <ele>182</ele>
        <time>2022-04-08T12:43:47Z</time>
      </trkpt>
      <trkpt lat="43.4692" lon="6.40316">
        <ele>182</ele>
        <time>2022-04-08T12:43:48Z</time>
      </trkpt>
      <trkpt lat="43.4692" lon="6.40316">
        <ele>182</ele>
        <time>2022-04-08T12:43:49Z</time>
      </trkpt>
      <trkpt lat="43.4692" lon="6.40316">
        <ele>182</ele>
        <time>2022-04-08T12:43:50Z</time>
      </trkpt>
      <trkpt lat="43.4692" lon="6.40316">
        <ele>182</ele>
        <time>2022-04-08T12:43:51Z</time>
      </trkpt>
      <trkpt lat="43.4692" lon="6.40316">
        <ele>182</ele>
        <time>2022-04-08T12:43:52Z</time>
      </trkpt>
      <trkpt lat="43.4692" lon="6.40316">
        <ele>182</ele>
        <time>2022-04-08T12:43:53Z</time>
      </trkpt>
      <trkpt lat="43.4692" lon="6.40316">
        <ele>182</ele>
        <time>2022-04-08T12:43:54Z</time>
      </trkpt>
      <trkpt lat="43.4692" lon="6.40316">
        <ele>182</ele>
        <time>2022-04-08T12:43:55Z</time>
      </trkpt>
      <trkpt lat="43.4692" lon="6.40316">
        <ele>182</ele>
        <time>2022-04-08T12:43:56Z</time>
      </trkpt>
      <trkpt lat="43.4692" lon="6.40316">
        <ele>182</ele>
        <time>2022-04-08T12:43:57Z</time>
      </trkpt>
      <trkpt lat="43.4692" lon="6.40316">
        <ele>182</ele>
        <time>2022-04-08T12:43:58Z</time>
      </trkpt>
      <trkpt lat="43.4692" lon="6.40316">
        <ele>182</ele>
        <time>2022-04-08T12:43:59Z</time>
      </trkpt>
      <trkpt lat="43.4692" lon="6.40316">
        <ele>182</ele>
        <time>2022-04-08T12:44:00Z</time>
      </trkpt>
      <trkpt lat="43.4692" lon="6.40316">
        <ele>182</ele>
        <time>2022-04-08T12:44:01Z</time>
      </trkpt>
      <trkpt lat="43.4692" lon="6.40316">
        <ele>182</ele>
        <time>2022-04-08T12:44:02Z</time>
      </trkpt>
      <trkpt lat="43.4692" lon="6.40316">
        <ele>182</ele>
        <time>2022-04-08T12:44:03Z</time>
      </trkpt>
      <trkpt lat="43.4692" lon="6.40316">
        <ele>182</ele>
        <time>2022-04-08T12:44:04Z</time>
      </trkpt>
      <trkpt lat="43.4692" lon="6.40316">
        <ele>182</ele>
        <time>2022-04-08T12:44:05Z</time>
      </trkpt>
      <trkpt lat="43.4692" lon="6.40316">
        <ele>182</ele>
        <time>2022-04-08T12:44:06Z</time>
      </trkpt>
      <trkpt lat="43.4692" lon="6.40316">
        <ele>182</ele>
        <time>2022-04-08T12:44:07Z</time>
      </trkpt>
      <trkpt lat="43.4692" lon="6.40316">
        <ele>182</ele>
        <time>2022-04-08T12:44:08Z</time>
      </trkpt>
      <trkpt lat="43.4692" lon="6.40316">
        <ele>182</ele>
        <time>2022-04-08T12:44:09Z</time>
      </trkpt>
      <trkpt lat="43.4692" lon="6.40316">
        <ele>182</ele>
        <time>2022-04-08T12:44:10Z</time>
      </trkpt>
      <trkpt lat="43.4692" lon="6.40316">
        <ele>182</ele>
        <time>2022-04-08T12:44:11Z</time>
      </trkpt>
      <trkpt lat="43.4692" lon="6.40316">
        <ele>182</ele>
        <time>2022-04-08T12:44:12Z</time>
      </trkpt>
      <trkpt lat="43.4692" lon="6.40316">
        <ele>182</ele>
        <time>2022-04-08T12:44:13Z</time>
      </trkpt>
      <trkpt lat="43.4692" lon="6.40316">
        <ele>182</ele>
        <time>2022-04-08T12:44:14Z</time>
      </trkpt>
      <trkpt lat="43.4692" lon="6.40316">
        <ele>182</ele>
        <time>2022-04-08T12:44:15Z</time>
      </trkpt>
      <trkpt lat="43.4692" lon="6.40316">
        <ele>182</ele>
        <time>2022-04-08T12:44:16Z</time>
      </trkpt>
      <trkpt lat="43.4692" lon="6.40316">
        <ele>182</ele>
        <time>2022-04-08T12:44:17Z</time>
      </trkpt>
      <trkpt lat="43.4692" lon="6.40316">
        <ele>182</ele>
        <time>2022-04-08T12:44:18Z</time>
      </trkpt>
      <trkpt lat="43.4692" lon="6.40316">
        <ele>182</ele>
        <time>2022-04-08T12:44:19Z</time>
      </trkpt>
      <trkpt lat="43.4692" lon="6.40316">
        <ele>182</ele>
        <time>2022-04-08T12:44:20Z</time>
      </trkpt>
      <trkpt lat="43.4692" lon="6.40316">
        <ele>182</ele>
        <time>2022-04-08T12:44:21Z</time>
      </trkpt>
      <trkpt lat="43.4692" lon="6.40316">
        <ele>182</ele>
        <time>2022-04-08T12:44:22Z</time>
      </trkpt>
      <trkpt lat="43.4692" lon="6.40316">
        <ele>182</ele>
        <time>2022-04-08T12:44:23Z</time>
      </trkpt>
      <trkpt lat="43.4692" lon="6.40316">
        <ele>182</ele>
        <time>2022-04-08T12:44:24Z</time>
      </trkpt>
      <trkpt lat="43.4692" lon="6.40316">
        <ele>182</ele>
        <time>2022-04-08T12:44:25Z</time>
      </trkpt>
      <trkpt lat="43.4692" lon="6.40316">
        <ele>182</ele>
        <time>2022-04-08T12:44:26Z</time>
      </trkpt>
      <trkpt lat="43.4692" lon="6.40316">
        <ele>182</ele>
        <time>2022-04-08T12:44:27Z</time>
      </trkpt>
      <trkpt lat="43.4692" lon="6.40316">
        <ele>182</ele>
        <time>2022-04-08T12:44:28Z</time>
      </trkpt>
      <trkpt lat="43.4692" lon="6.40316">
        <ele>182</ele>
        <time>2022-04-08T12:44:29Z</time>
      </trkpt>
      <trkpt lat="43.4692" lon="6.40316">
        <ele>182</ele>
        <time>2022-04-08T12:44:30Z</time>
      </trkpt>
      <trkpt lat="43.4692" lon="6.40316">
        <ele>182</ele>
        <time>2022-04-08T12:44:31Z</time>
      </trkpt>
      <trkpt lat="43.4692" lon="6.40316">
        <ele>182</ele>
        <time>2022-04-08T12:44:32Z</time>
      </trkpt>
      <trkpt lat="43.4692" lon="6.40316">
        <ele>182</ele>
        <time>2022-04-08T12:44:33Z</time>
      </trkpt>
      <trkpt lat="43.4692" lon="6.40316">
        <ele>182</ele>
        <time>2022-04-08T12:44:34Z</time>
      </trkpt>
      <trkpt lat="43.4692" lon="6.40316">
        <ele>182</ele>
        <time>2022-04-08T12:44:35Z</time>
      </trkpt>
      <trkpt lat="43.4692" lon="6.40316">
        <ele>182</ele>
        <time>2022-04-08T12:44:36Z</time>
      </trkpt>
      <trkpt lat="43.4692" lon="6.40316">
        <ele>182</ele>
        <time>2022-04-08T12:44:37Z</time>
      </trkpt>
      <trkpt lat="43.4692" lon="6.40316">
        <ele>182</ele>
        <time>2022-04-08T12:44:38Z</time>
      </trkpt>
      <trkpt lat="43.4692" lon="6.40316">
        <ele>182</ele>
        <time>2022-04-08T12:44:39Z</time>
      </trkpt>
      <trkpt lat="43.4692" lon="6.40316">
        <ele>182</ele>
        <time>2022-04-08T12:44:40Z</time>
      </trkpt>
      <trkpt lat="43.4692" lon="6.40316">
        <ele>182</ele>
        <time>2022-04-08T12:44:41Z</time>
      </trkpt>
      <trkpt lat="43.4692" lon="6.40316">
        <ele>182</ele>
        <time>2022-04-08T12:44:42Z</time>
      </trkpt>
      <trkpt lat="43.4692" lon="6.40316">
        <ele>182</ele>
        <time>2022-04-08T12:44:43Z</time>
      </trkpt>
      <trkpt lat="43.4692" lon="6.40316">
        <ele>182</ele>
        <time>2022-04-08T12:44:44Z</time>
      </trkpt>
      <trkpt lat="43.46919" lon="6.40321">
        <ele>182</ele>
        <time>2022-04-08T12:44:45Z</time>
      </trkpt>
      <trkpt lat="43.46919" lon="6.40322">
        <ele>182</ele>
        <time>2022-04-08T12:44:46Z</time>
      </trkpt>
      <trkpt lat="43.46919" lon="6.40322">
        <ele>182</ele>
        <time>2022-04-08T12:44:47Z</time>
      </trkpt>
      <trkpt lat="43.4692" lon="6.40323">
        <ele>182</ele>
        <time>2022-04-08T12:44:48Z</time>
      </trkpt>
      <trkpt lat="43.4692" lon="6.40324">
        <ele>182</ele>
        <time>2022-04-08T12:44:49Z</time>
      </trkpt>
      <trkpt lat="43.46921" lon="6.40325">
        <ele>182</ele>
        <time>2022-04-08T12:44:50Z</time>
      </trkpt>
      <trkpt lat="43.46921" lon="6.40325">
        <ele>182</ele>
        <time>2022-04-08T12:44:51Z</time>
      </trkpt>
      <trkpt lat="43.46921" lon="6.40325">
        <ele>182</ele>
        <time>2022-04-08T12:44:52Z</time>
      </trkpt>
      <trkpt lat="43.46921" lon="6.40325">
        <ele>181</ele>
        <time>2022-04-08T12:44:53Z</time>
      </trkpt>
      <trkpt lat="43.46921" lon="6.40325">
        <ele>181</ele>
        <time>2022-04-08T12:44:54Z</time>
      </trkpt>
      <trkpt lat="43.46921" lon="6.40325">
        <ele>181</ele>
        <time>2022-04-08T12:44:55Z</time>
      </trkpt>
      <trkpt lat="43.46922" lon="6.40327">
        <ele>181</ele>
        <time>2022-04-08T12:44:56Z</time>
      </trkpt>
      <trkpt lat="43.46922" lon="6.40328">
        <ele>181</ele>
        <time>2022-04-08T12:44:57Z</time>
      </trkpt>
      <trkpt lat="43.46923" lon="6.4033">
        <ele>181</ele>
        <time>2022-04-08T12:44:58Z</time>
      </trkpt>
      <trkpt lat="43.46924" lon="6.4033">
        <ele>181</ele>
        <time>2022-04-08T12:44:59Z</time>
      </trkpt>
      <trkpt lat="43.46924" lon="6.40331">
        <ele>181</ele>
        <time>2022-04-08T12:45:00Z</time>
      </trkpt>
      <trkpt lat="43.46924" lon="6.40331">
        <ele>181</ele>
        <time>2022-04-08T12:45:01Z</time>
      </trkpt>
      <trkpt lat="43.46924" lon="6.40332">
        <ele>181</ele>
        <time>2022-04-08T12:45:02Z</time>
      </trkpt>
      <trkpt lat="43.46925" lon="6.40332">
        <ele>181</ele>
        <time>2022-04-08T12:45:03Z</time>
      </trkpt>
      <trkpt lat="43.46925" lon="6.40332">
        <ele>178</ele>
        <time>2022-04-08T12:45:04Z</time>
      </trkpt>
      <trkpt lat="43.46925" lon="6.40333">
        <ele>177</ele>
        <time>2022-04-08T12:45:05Z</time>
      </trkpt>
      <trkpt lat="43.46925" lon="6.40333">
        <ele>177</ele>
        <time>2022-04-08T12:45:06Z</time>
      </trkpt>
      <trkpt lat="43.46926" lon="6.40333">
        <ele>177</ele>
        <time>2022-04-08T12:45:07Z</time>
      </trkpt>
      <trkpt lat="43.46926" lon="6.40333">
        <ele>177</ele>
        <time>2022-04-08T12:45:08Z</time>
      </trkpt>
      <trkpt lat="43.46926" lon="6.40333">
        <ele>176</ele>
        <time>2022-04-08T12:45:09Z</time>
      </trkpt>
      <trkpt lat="43.46926" lon="6.40333">
        <ele>176</ele>
        <time>2022-04-08T12:45:10Z</time>
      </trkpt>
      <trkpt lat="43.46926" lon="6.40334">
        <ele>176</ele>
        <time>2022-04-08T12:45:11Z</time>
      </trkpt>
      <trkpt lat="43.46927" lon="6.40334">
        <ele>176</ele>
        <time>2022-04-08T12:45:12Z</time>
      </trkpt>
      <trkpt lat="43.46927" lon="6.40334">
        <ele>176</ele>
        <time>2022-04-08T12:45:13Z</time>
      </trkpt>
      <trkpt lat="43.46927" lon="6.40334">
        <ele>176</ele>
        <time>2022-04-08T12:45:14Z</time>
      </trkpt>
      <trkpt lat="43.46927" lon="6.40333">
        <ele>176</ele>
        <time>2022-04-08T12:45:15Z</time>
      </trkpt>
      <trkpt lat="43.46927" lon="6.40333">
        <ele>176</ele>
        <time>2022-04-08T12:45:16Z</time>
      </trkpt>
      <trkpt lat="43.46927" lon="6.40333">
        <ele>176</ele>
        <time>2022-04-08T12:45:17Z</time>
      </trkpt>
      <trkpt lat="43.46926" lon="6.40333">
        <ele>176</ele>
        <time>2022-04-08T12:45:18Z</time>
      </trkpt>
      <trkpt lat="43.46926" lon="6.40333">
        <ele>176</ele>
        <time>2022-04-08T12:45:19Z</time>
      </trkpt>
      <trkpt lat="43.46926" lon="6.40333">
        <ele>176</ele>
        <time>2022-04-08T12:45:20Z</time>
      </trkpt>
      <trkpt lat="43.46926" lon="6.40332">
        <ele>176</ele>
        <time>2022-04-08T12:45:21Z</time>
      </trkpt>
      <trkpt lat="43.46925" lon="6.40332">
        <ele>176</ele>
        <time>2022-04-08T12:45:22Z</time>
      </trkpt>
      <trkpt lat="43.46925" lon="6.40331">
        <ele>176</ele>
        <time>2022-04-08T12:45:23Z</time>
      </trkpt>
      <trkpt lat="43.46924" lon="6.4033">
        <ele>176</ele>
        <time>2022-04-08T12:45:24Z</time>
      </trkpt>
      <trkpt lat="43.46924" lon="6.40329">
        <ele>176</ele>
        <time>2022-04-08T12:45:25Z</time>
      </trkpt>
      <trkpt lat="43.46923" lon="6.40328">
        <ele>176</ele>
        <time>2022-04-08T12:45:26Z</time>
      </trkpt>
      <trkpt lat="43.46923" lon="6.40328">
        <ele>176</ele>
        <time>2022-04-08T12:45:27Z</time>
      </trkpt>
      <trkpt lat="43.46923" lon="6.40327">
        <ele>176</ele>
        <time>2022-04-08T12:45:28Z</time>
      </trkpt>
      <trkpt lat="43.46923" lon="6.40327">
        <ele>176</ele>
        <time>2022-04-08T12:45:29Z</time>
      </trkpt>
      <trkpt lat="43.46922" lon="6.40327">
        <ele>176</ele>
        <time>2022-04-08T12:45:30Z</time>
      </trkpt>
      <trkpt lat="43.46922" lon="6.40327">
        <ele>176</ele>
        <time>2022-04-08T12:45:31Z</time>
      </trkpt>
      <trkpt lat="43.46922" lon="6.40327">
        <ele>176</ele>
        <time>2022-04-08T12:45:32Z</time>
      </trkpt>
      <trkpt lat="43.46922" lon="6.40327">
        <ele>176</ele>
        <time>2022-04-08T12:45:33Z</time>
      </trkpt>
      <trkpt lat="43.46922" lon="6.40327">
        <ele>176</ele>
        <time>2022-04-08T12:45:34Z</time>
      </trkpt>
      <trkpt lat="43.46922" lon="6.40327">
        <ele>176</ele>
        <time>2022-04-08T12:45:35Z</time>
      </trkpt>
      <trkpt lat="43.46922" lon="6.40327">
        <ele>176</ele>
        <time>2022-04-08T12:45:36Z</time>
      </trkpt>
      <trkpt lat="43.46922" lon="6.40327">
        <ele>176</ele>
        <time>2022-04-08T12:45:37Z</time>
      </trkpt>
      <trkpt lat="43.46922" lon="6.40327">
        <ele>176</ele>
        <time>2022-04-08T12:45:38Z</time>
      </trkpt>
      <trkpt lat="43.46922" lon="6.40327">
        <ele>176</ele>
        <time>2022-04-08T12:45:39Z</time>
      </trkpt>
      <trkpt lat="43.46922" lon="6.40327">
        <ele>176</ele>
        <time>2022-04-08T12:45:40Z</time>
      </trkpt>
      <trkpt lat="43.46922" lon="6.40327">
        <ele>176</ele>
        <time>2022-04-08T12:45:41Z</time>
      </trkpt>
      <trkpt lat="43.46922" lon="6.40327">
        <ele>176</ele>
        <time>2022-04-08T12:45:42Z</time>
      </trkpt>
      <trkpt lat="43.46922" lon="6.40326">
        <ele>176</ele>
        <time>2022-04-08T12:45:43Z</time>
      </trkpt>
      <trkpt lat="43.46922" lon="6.40326">
        <ele>176</ele>
        <time>2022-04-08T12:45:44Z</time>
      </trkpt>
      <trkpt lat="43.46922" lon="6.40325">
        <ele>176</ele>
        <time>2022-04-08T12:45:45Z</time>
      </trkpt>
      <trkpt lat="43.46921" lon="6.40325">
        <ele>176</ele>
        <time>2022-04-08T12:45:46Z</time>
      </trkpt>
      <trkpt lat="43.46921" lon="6.40325">
        <ele>176</ele>
        <time>2022-04-08T12:45:47Z</time>
      </trkpt>
      <trkpt lat="43.46921" lon="6.40325">
        <ele>176</ele>
        <time>2022-04-08T12:45:48Z</time>
      </trkpt>
      <trkpt lat="43.46921" lon="6.40325">
        <ele>176</ele>
        <time>2022-04-08T12:45:49Z</time>
      </trkpt>
      <trkpt lat="43.46921" lon="6.40324">
        <ele>176</ele>
        <time>2022-04-08T12:45:50Z</time>
      </trkpt>
      <trkpt lat="43.46921" lon="6.40324">
        <ele>176</ele>
        <time>2022-04-08T12:45:51Z</time>
      </trkpt>
      <trkpt lat="43.46921" lon="6.40324">
        <ele>176</ele>
        <time>2022-04-08T12:45:52Z</time>
      </trkpt>
      <trkpt lat="43.46921" lon="6.40324">
        <ele>176</ele>
        <time>2022-04-08T12:45:53Z</time>
      </trkpt>
      <trkpt lat="43.46921" lon="6.40324">
        <ele>176</ele>
        <time>2022-04-08T12:45:54Z</time>
      </trkpt>
      <trkpt lat="43.46921" lon="6.40323">
        <ele>176</ele>
        <time>2022-04-08T12:45:55Z</time>
      </trkpt>
      <trkpt lat="43.46921" lon="6.40323">
        <ele>176</ele>
        <time>2022-04-08T12:45:56Z</time>
      </trkpt>
      <trkpt lat="43.46921" lon="6.40323">
        <ele>176</ele>
        <time>2022-04-08T12:45:57Z</time>
      </trkpt>
      <trkpt lat="43.46921" lon="6.40323">
        <ele>176</ele>
        <time>2022-04-08T12:45:58Z</time>
      </trkpt>
      <trkpt lat="43.46921" lon="6.40323">
        <ele>176</ele>
        <time>2022-04-08T12:45:59Z</time>
      </trkpt>
      <trkpt lat="43.46921" lon="6.40323">
        <ele>176</ele>
        <time>2022-04-08T12:46:00Z</time>
      </trkpt>
      <trkpt lat="43.46921" lon="6.40323">
        <ele>176</ele>
        <time>2022-04-08T12:46:01Z</time>
      </trkpt>
      <trkpt lat="43.46921" lon="6.40323">
        <ele>176</ele>
        <time>2022-04-08T12:46:02Z</time>
      </trkpt>
      <trkpt lat="43.46921" lon="6.40323">
        <ele>176</ele>
        <time>2022-04-08T12:46:03Z</time>
      </trkpt>
      <trkpt lat="43.46921" lon="6.40323">
        <ele>176</ele>
        <time>2022-04-08T12:46:04Z</time>
      </trkpt>
      <trkpt lat="43.46921" lon="6.40323">
        <ele>176</ele>
        <time>2022-04-08T12:46:05Z</time>
      </trkpt>
      <trkpt lat="43.46921" lon="6.40323">
        <ele>176</ele>
        <time>2022-04-08T12:46:06Z</time>
      </trkpt>
      <trkpt lat="43.46921" lon="6.40323">
        <ele>176</ele>
        <time>2022-04-08T12:46:07Z</time>
      </trkpt>
      <trkpt lat="43.46921" lon="6.40323">
        <ele>176</ele>
        <time>2022-04-08T12:46:08Z</time>
      </trkpt>
      <trkpt lat="43.46921" lon="6.40323">
        <ele>176</ele>
        <time>2022-04-08T12:46:09Z</time>
      </trkpt>
      <trkpt lat="43.46921" lon="6.40323">
        <ele>176</ele>
        <time>2022-04-08T12:46:10Z</time>
      </trkpt>
      <trkpt lat="43.46921" lon="6.40323">
        <ele>176</ele>
        <time>2022-04-08T12:46:11Z</time>
      </trkpt>
      <trkpt lat="43.46921" lon="6.40323">
        <ele>176</ele>
        <time>2022-04-08T12:46:12Z</time>
      </trkpt>
      <trkpt lat="43.46921" lon="6.40322">
        <ele>176</ele>
        <time>2022-04-08T12:46:13Z</time>
      </trkpt>
      <trkpt lat="43.46921" lon="6.40322">
        <ele>176</ele>
        <time>2022-04-08T12:46:14Z</time>
      </trkpt>
      <trkpt lat="43.46921" lon="6.40322">
        <ele>176</ele>
        <time>2022-04-08T12:46:15Z</time>
      </trkpt>
      <trkpt lat="43.46921" lon="6.40322">
        <ele>176</ele>
        <time>2022-04-08T12:46:16Z</time>
      </trkpt>
      <trkpt lat="43.46921" lon="6.40322">
        <ele>176</ele>
        <time>2022-04-08T12:46:17Z</time>
      </trkpt>
      <trkpt lat="43.46921" lon="6.40322">
        <ele>176</ele>
        <time>2022-04-08T12:46:18Z</time>
      </trkpt>
      <trkpt lat="43.46921" lon="6.40322">
        <ele>177</ele>
        <time>2022-04-08T12:46:19Z</time>
      </trkpt>
      <trkpt lat="43.46921" lon="6.40321">
        <ele>177</ele>
        <time>2022-04-08T12:46:20Z</time>
      </trkpt>
      <trkpt lat="43.46921" lon="6.40321">
        <ele>177</ele>
        <time>2022-04-08T12:46:21Z</time>
      </trkpt>
      <trkpt lat="43.46921" lon="6.40321">
        <ele>177</ele>
        <time>2022-04-08T12:46:22Z</time>
      </trkpt>
      <trkpt lat="43.46921" lon="6.40321">
        <ele>177</ele>
        <time>2022-04-08T12:46:23Z</time>
      </trkpt>
      <trkpt lat="43.46921" lon="6.40321">
        <ele>177</ele>
        <time>2022-04-08T12:46:24Z</time>
      </trkpt>
      <trkpt lat="43.46921" lon="6.40321">
        <ele>177</ele>
        <time>2022-04-08T12:46:25Z</time>
      </trkpt>
      <trkpt lat="43.46921" lon="6.40321">
        <ele>177</ele>
        <time>2022-04-08T12:46:26Z</time>
      </trkpt>
      <trkpt lat="43.46921" lon="6.40321">
        <ele>177</ele>
        <time>2022-04-08T12:46:27Z</time>
      </trkpt>
      <trkpt lat="43.46921" lon="6.40321">
        <ele>177</ele>
        <time>2022-04-08T12:46:28Z</time>
      </trkpt>
      <trkpt lat="43.46921" lon="6.40321">
        <ele>177</ele>
        <time>2022-04-08T12:46:29Z</time>
      </trkpt>
      <trkpt lat="43.46921" lon="6.40321">
        <ele>177</ele>
        <time>2022-04-08T12:46:30Z</time>
      </trkpt>
      <trkpt lat="43.46921" lon="6.40321">
        <ele>177</ele>
        <time>2022-04-08T12:46:31Z</time>
      </trkpt>
      <trkpt lat="43.46921" lon="6.40321">
        <ele>177</ele>
        <time>2022-04-08T12:46:32Z</time>
      </trkpt>
      <trkpt lat="43.46921" lon="6.40321">
        <ele>177</ele>
        <time>2022-04-08T12:46:33Z</time>
      </trkpt>
      <trkpt lat="43.46921" lon="6.40321">
        <ele>177</ele>
        <time>2022-04-08T12:46:34Z</time>
      </trkpt>
      <trkpt lat="43.46921" lon="6.40321">
        <ele>177</ele>
        <time>2022-04-08T12:46:35Z</time>
      </trkpt>
      <trkpt lat="43.46921" lon="6.40321">
        <ele>177</ele>
        <time>2022-04-08T12:46:36Z</time>
      </trkpt>
      <trkpt lat="43.46921" lon="6.40321">
        <ele>177</ele>
        <time>2022-04-08T12:46:37Z</time>
      </trkpt>
      <trkpt lat="43.46921" lon="6.40321">
        <ele>177</ele>
        <time>2022-04-08T12:46:38Z</time>
      </trkpt>
      <trkpt lat="43.46921" lon="6.40321">
        <ele>177</ele>
        <time>2022-04-08T12:46:39Z</time>
      </trkpt>
      <trkpt lat="43.46921" lon="6.40321">
        <ele>177</ele>
        <time>2022-04-08T12:46:40Z</time>
      </trkpt>
      <trkpt lat="43.46921" lon="6.40321">
        <ele>177</ele>
        <time>2022-04-08T12:46:41Z</time>
      </trkpt>
      <trkpt lat="43.46921" lon="6.40321">
        <ele>177</ele>
        <time>2022-04-08T12:46:42Z</time>
      </trkpt>
      <trkpt lat="43.46921" lon="6.40321">
        <ele>177</ele>
        <time>2022-04-08T12:46:43Z</time>
      </trkpt>
      <trkpt lat="43.46921" lon="6.40321">
        <ele>177</ele>
        <time>2022-04-08T12:46:44Z</time>
      </trkpt>
      <trkpt lat="43.46921" lon="6.40321">
        <ele>177</ele>
        <time>2022-04-08T12:46:45Z</time>
      </trkpt>
      <trkpt lat="43.46921" lon="6.40321">
        <ele>177</ele>
        <time>2022-04-08T12:46:46Z</time>
      </trkpt>
      <trkpt lat="43.46921" lon="6.40321">
        <ele>177</ele>
        <time>2022-04-08T12:46:47Z</time>
      </trkpt>
      <trkpt lat="43.46921" lon="6.40321">
        <ele>177</ele>
        <time>2022-04-08T12:46:48Z</time>
      </trkpt>
      <trkpt lat="43.46921" lon="6.40321">
        <ele>177</ele>
        <time>2022-04-08T12:46:49Z</time>
      </trkpt>
      <trkpt lat="43.46921" lon="6.40321">
        <ele>177</ele>
        <time>2022-04-08T12:46:50Z</time>
      </trkpt>
      <trkpt lat="43.46921" lon="6.40321">
        <ele>177</ele>
        <time>2022-04-08T12:46:51Z</time>
      </trkpt>
      <trkpt lat="43.46921" lon="6.40321">
        <ele>177</ele>
        <time>2022-04-08T12:46:52Z</time>
      </trkpt>
      <trkpt lat="43.46921" lon="6.40321">
        <ele>178</ele>
        <time>2022-04-08T12:46:53Z</time>
      </trkpt>
      <trkpt lat="43.46921" lon="6.40321">
        <ele>178</ele>
        <time>2022-04-08T12:46:54Z</time>
      </trkpt>
      <trkpt lat="43.46921" lon="6.40321">
        <ele>178</ele>
        <time>2022-04-08T12:46:55Z</time>
      </trkpt>
      <trkpt lat="43.46921" lon="6.40321">
        <ele>178</ele>
        <time>2022-04-08T12:46:56Z</time>
      </trkpt>
      <trkpt lat="43.46921" lon="6.40321">
        <ele>178</ele>
        <time>2022-04-08T12:46:57Z</time>
      </trkpt>
      <trkpt lat="43.46921" lon="6.40321">
        <ele>178</ele>
        <time>2022-04-08T12:46:58Z</time>
      </trkpt>
      <trkpt lat="43.46921" lon="6.40321">
        <ele>178</ele>
        <time>2022-04-08T12:46:59Z</time>
      </trkpt>
      <trkpt lat="43.46921" lon="6.40321">
        <ele>178</ele>
        <time>2022-04-08T12:47:00Z</time>
      </trkpt>
      <trkpt lat="43.46921" lon="6.40321">
        <ele>178</ele>
        <time>2022-04-08T12:47:01Z</time>
      </trkpt>
      <trkpt lat="43.46921" lon="6.40321">
        <ele>178</ele>
        <time>2022-04-08T12:47:02Z</time>
      </trkpt>
      <trkpt lat="43.46921" lon="6.40321">
        <ele>178</ele>
        <time>2022-04-08T12:47:03Z</time>
      </trkpt>
      <trkpt lat="43.46921" lon="6.40321">
        <ele>178</ele>
        <time>2022-04-08T12:47:04Z</time>
      </trkpt>
      <trkpt lat="43.46921" lon="6.40321">
        <ele>178</ele>
        <time>2022-04-08T12:47:05Z</time>
      </trkpt>
      <trkpt lat="43.46921" lon="6.40321">
        <ele>178</ele>
        <time>2022-04-08T12:47:06Z</time>
      </trkpt>
      <trkpt lat="43.46921" lon="6.40321">
        <ele>178</ele>
        <time>2022-04-08T12:47:07Z</time>
      </trkpt>
      <trkpt lat="43.46921" lon="6.40321">
        <ele>178</ele>
        <time>2022-04-08T12:47:08Z</time>
      </trkpt>
      <trkpt lat="43.46921" lon="6.40321">
        <ele>178</ele>
        <time>2022-04-08T12:47:09Z</time>
      </trkpt>
      <trkpt lat="43.46921" lon="6.40321">
        <ele>178</ele>
        <time>2022-04-08T12:47:10Z</time>
      </trkpt>
      <trkpt lat="43.46921" lon="6.40321">
        <ele>178</ele>
        <time>2022-04-08T12:47:11Z</time>
      </trkpt>
      <trkpt lat="43.46921" lon="6.40321">
        <ele>178</ele>
        <time>2022-04-08T12:47:12Z</time>
      </trkpt>
      <trkpt lat="43.46921" lon="6.40321">
        <ele>178</ele>
        <time>2022-04-08T12:47:13Z</time>
      </trkpt>
      <trkpt lat="43.46921" lon="6.40321">
        <ele>178</ele>
        <time>2022-04-08T12:47:14Z</time>
      </trkpt>
      <trkpt lat="43.46921" lon="6.40321">
        <ele>178</ele>
        <time>2022-04-08T12:47:15Z</time>
      </trkpt>
      <trkpt lat="43.46921" lon="6.40321">
        <ele>178</ele>
        <time>2022-04-08T12:47:16Z</time>
      </trkpt>
      <trkpt lat="43.46921" lon="6.40321">
        <ele>178</ele>
        <time>2022-04-08T12:47:17Z</time>
      </trkpt>
      <trkpt lat="43.46921" lon="6.40321">
        <ele>178</ele>
        <time>2022-04-08T12:47:18Z</time>
      </trkpt>
      <trkpt lat="43.46921" lon="6.40321">
        <ele>178</ele>
        <time>2022-04-08T12:47:19Z</time>
      </trkpt>
      <trkpt lat="43.46921" lon="6.40321">
        <ele>178</ele>
        <time>2022-04-08T12:47:20Z</time>
      </trkpt>
      <trkpt lat="43.46921" lon="6.40321">
        <ele>178</ele>
        <time>2022-04-08T12:47:21Z</time>
      </trkpt>
      <trkpt lat="43.46921" lon="6.40321">
        <ele>178</ele>
        <time>2022-04-08T12:47:22Z</time>
      </trkpt>
      <trkpt lat="43.46921" lon="6.40321">
        <ele>178</ele>
        <time>2022-04-08T12:47:23Z</time>
      </trkpt>
      <trkpt lat="43.46921" lon="6.40321">
        <ele>178</ele>
        <time>2022-04-08T12:47:24Z</time>
      </trkpt>
      <trkpt lat="43.46921" lon="6.40321">
        <ele>178</ele>
        <time>2022-04-08T12:47:25Z</time>
      </trkpt>
      <trkpt lat="43.46921" lon="6.40321">
        <ele>178</ele>
        <time>2022-04-08T12:47:26Z</time>
      </trkpt>
      <trkpt lat="43.46921" lon="6.40321">
        <ele>178</ele>
        <time>2022-04-08T12:47:27Z</time>
      </trkpt>
      <trkpt lat="43.46921" lon="6.40321">
        <ele>178</ele>
        <time>2022-04-08T12:47:28Z</time>
      </trkpt>
      <trkpt lat="43.46921" lon="6.40321">
        <ele>178</ele>
        <time>2022-04-08T12:47:29Z</time>
      </trkpt>
      <trkpt lat="43.46921" lon="6.40321">
        <ele>178</ele>
        <time>2022-04-08T12:47:30Z</time>
      </trkpt>
      <trkpt lat="43.46921" lon="6.40321">
        <ele>178</ele>
        <time>2022-04-08T12:47:31Z</time>
      </trkpt>
      <trkpt lat="43.46921" lon="6.40321">
        <ele>178</ele>
        <time>2022-04-08T12:47:32Z</time>
      </trkpt>
      <trkpt lat="43.46921" lon="6.40321">
        <ele>178</ele>
        <time>2022-04-08T12:47:33Z</time>
      </trkpt>
      <trkpt lat="43.46921" lon="6.40321">
        <ele>178</ele>
        <time>2022-04-08T12:47:34Z</time>
      </trkpt>
      <trkpt lat="43.46921" lon="6.40321">
        <ele>178</ele>
        <time>2022-04-08T12:47:35Z</time>
      </trkpt>
      <trkpt lat="43.46921" lon="6.40321">
        <ele>178</ele>
        <time>2022-04-08T12:47:36Z</time>
      </trkpt>
      <trkpt lat="43.46921" lon="6.40321">
        <ele>178</ele>
        <time>2022-04-08T12:47:37Z</time>
      </trkpt>
      <trkpt lat="43.46921" lon="6.40321">
        <ele>178</ele>
        <time>2022-04-08T12:47:38Z</time>
      </trkpt>
      <trkpt lat="43.46921" lon="6.40321">
        <ele>178</ele>
        <time>2022-04-08T12:47:39Z</time>
      </trkpt>
      <trkpt lat="43.46921" lon="6.40321">
        <ele>178</ele>
        <time>2022-04-08T12:47:40Z</time>
      </trkpt>
      <trkpt lat="43.46921" lon="6.40321">
        <ele>178</ele>
        <time>2022-04-08T12:47:41Z</time>
      </trkpt>
      <trkpt lat="43.46921" lon="6.40321">
        <ele>178</ele>
        <time>2022-04-08T12:47:42Z</time>
      </trkpt>
      <trkpt lat="43.46921" lon="6.40321">
        <ele>178</ele>
        <time>2022-04-08T12:47:43Z</time>
      </trkpt>
      <trkpt lat="43.46921" lon="6.40321">
        <ele>178</ele>
        <time>2022-04-08T12:47:44Z</time>
      </trkpt>
      <trkpt lat="43.46921" lon="6.40321">
        <ele>178</ele>
        <time>2022-04-08T12:47:45Z</time>
      </trkpt>
      <trkpt lat="43.46921" lon="6.40321">
        <ele>178</ele>
        <time>2022-04-08T12:47:46Z</time>
      </trkpt>
      <trkpt lat="43.46921" lon="6.40321">
        <ele>178</ele>
        <time>2022-04-08T12:47:47Z</time>
      </trkpt>
      <trkpt lat="43.46922" lon="6.40327">
        <ele>178</ele>
        <time>2022-04-08T12:47:48Z</time>
      </trkpt>
      <trkpt lat="43.46922" lon="6.40327">
        <ele>178</ele>
        <time>2022-04-08T12:47:49Z</time>
      </trkpt>
      <trkpt lat="43.46922" lon="6.40327">
        <ele>178</ele>
        <time>2022-04-08T12:47:50Z</time>
      </trkpt>
      <trkpt lat="43.46922" lon="6.40327">
        <ele>178</ele>
        <time>2022-04-08T12:47:51Z</time>
      </trkpt>
      <trkpt lat="43.46922" lon="6.40327">
        <ele>178</ele>
        <time>2022-04-08T12:47:52Z</time>
      </trkpt>
      <trkpt lat="43.46922" lon="6.40327">
        <ele>178</ele>
        <time>2022-04-08T12:47:53Z</time>
      </trkpt>
      <trkpt lat="43.46922" lon="6.40327">
        <ele>178</ele>
        <time>2022-04-08T12:47:54Z</time>
      </trkpt>
      <trkpt lat="43.46922" lon="6.40327">
        <ele>178</ele>
        <time>2022-04-08T12:47:55Z</time>
      </trkpt>
      <trkpt lat="43.46922" lon="6.40327">
        <ele>178</ele>
        <time>2022-04-08T12:47:56Z</time>
      </trkpt>
      <trkpt lat="43.46922" lon="6.40327">
        <ele>178</ele>
        <time>2022-04-08T12:47:57Z</time>
      </trkpt>
      <trkpt lat="43.46922" lon="6.40327">
        <ele>178</ele>
        <time>2022-04-08T12:47:58Z</time>
      </trkpt>
      <trkpt lat="43.46922" lon="6.40327">
        <ele>178</ele>
        <time>2022-04-08T12:47:59Z</time>
      </trkpt>
      <trkpt lat="43.46922" lon="6.40327">
        <ele>178</ele>
        <time>2022-04-08T12:48:00Z</time>
      </trkpt>
      <trkpt lat="43.46922" lon="6.40327">
        <ele>178</ele>
        <time>2022-04-08T12:48:01Z</time>
      </trkpt>
      <trkpt lat="43.46922" lon="6.40327">
        <ele>178</ele>
        <time>2022-04-08T12:48:02Z</time>
      </trkpt>
      <trkpt lat="43.46922" lon="6.40327">
        <ele>178</ele>
        <time>2022-04-08T12:48:03Z</time>
      </trkpt>
      <trkpt lat="43.46922" lon="6.40327">
        <ele>178</ele>
        <time>2022-04-08T12:48:04Z</time>
      </trkpt>
      <trkpt lat="43.46922" lon="6.40327">
        <ele>178</ele>
        <time>2022-04-08T12:48:05Z</time>
      </trkpt>
      <trkpt lat="43.46922" lon="6.40327">
        <ele>178</ele>
        <time>2022-04-08T12:48:06Z</time>
      </trkpt>
      <trkpt lat="43.46922" lon="6.40327">
        <ele>178</ele>
        <time>2022-04-08T12:48:07Z</time>
      </trkpt>
      <trkpt lat="43.46922" lon="6.40327">
        <ele>178</ele>
        <time>2022-04-08T12:48:08Z</time>
      </trkpt>
      <trkpt lat="43.46922" lon="6.40327">
        <ele>178</ele>
        <time>2022-04-08T12:48:09Z</time>
      </trkpt>
      <trkpt lat="43.46922" lon="6.40327">
        <ele>178</ele>
        <time>2022-04-08T12:48:10Z</time>
      </trkpt>
      <trkpt lat="43.46922" lon="6.40327">
        <ele>178</ele>
        <time>2022-04-08T12:48:11Z</time>
      </trkpt>
      <trkpt lat="43.46922" lon="6.40327">
        <ele>178</ele>
        <time>2022-04-08T12:48:12Z</time>
      </trkpt>
      <trkpt lat="43.46922" lon="6.40327">
        <ele>178</ele>
        <time>2022-04-08T12:48:13Z</time>
      </trkpt>
      <trkpt lat="43.46922" lon="6.40327">
        <ele>178</ele>
        <time>2022-04-08T12:48:14Z</time>
      </trkpt>
      <trkpt lat="43.46922" lon="6.40327">
        <ele>178</ele>
        <time>2022-04-08T12:48:15Z</time>
      </trkpt>
      <trkpt lat="43.46922" lon="6.40327">
        <ele>178</ele>
        <time>2022-04-08T12:48:16Z</time>
      </trkpt>
      <trkpt lat="43.46922" lon="6.40327">
        <ele>178</ele>
        <time>2022-04-08T12:48:17Z</time>
      </trkpt>
      <trkpt lat="43.46922" lon="6.40327">
        <ele>178</ele>
        <time>2022-04-08T12:48:18Z</time>
      </trkpt>
      <trkpt lat="43.46922" lon="6.40327">
        <ele>178</ele>
        <time>2022-04-08T12:48:19Z</time>
      </trkpt>
      <trkpt lat="43.46922" lon="6.40327">
        <ele>178</ele>
        <time>2022-04-08T12:48:20Z</time>
      </trkpt>
      <trkpt lat="43.46922" lon="6.40327">
        <ele>178</ele>
        <time>2022-04-08T12:48:21Z</time>
      </trkpt>
      <trkpt lat="43.46922" lon="6.40327">
        <ele>178</ele>
        <time>2022-04-08T12:48:22Z</time>
      </trkpt>
      <trkpt lat="43.46922" lon="6.40327">
        <ele>178</ele>
        <time>2022-04-08T12:48:23Z</time>
      </trkpt>
      <trkpt lat="43.46922" lon="6.40327">
        <ele>178</ele>
        <time>2022-04-08T12:48:24Z</time>
      </trkpt>
      <trkpt lat="43.46922" lon="6.40327">
        <ele>178</ele>
        <time>2022-04-08T12:48:25Z</time>
      </trkpt>
      <trkpt lat="43.46922" lon="6.40327">
        <ele>178</ele>
        <time>2022-04-08T12:48:26Z</time>
      </trkpt>
      <trkpt lat="43.46922" lon="6.40327">
        <ele>178</ele>
        <time>2022-04-08T12:48:27Z</time>
      </trkpt>
      <trkpt lat="43.46922" lon="6.40327">
        <ele>178</ele>
        <time>2022-04-08T12:48:28Z</time>
      </trkpt>
      <trkpt lat="43.46922" lon="6.40327">
        <ele>178</ele>
        <time>2022-04-08T12:48:29Z</time>
      </trkpt>
      <trkpt lat="43.46922" lon="6.40327">
        <ele>178</ele>
        <time>2022-04-08T12:48:30Z</time>
      </trkpt>
      <trkpt lat="43.46922" lon="6.40327">
        <ele>178</ele>
        <time>2022-04-08T12:48:31Z</time>
      </trkpt>
      <trkpt lat="43.46922" lon="6.40327">
        <ele>178</ele>
        <time>2022-04-08T12:48:32Z</time>
      </trkpt>
      <trkpt lat="43.46922" lon="6.40327">
        <ele>178</ele>
        <time>2022-04-08T12:48:33Z</time>
      </trkpt>
      <trkpt lat="43.46922" lon="6.40327">
        <ele>178</ele>
        <time>2022-04-08T12:48:34Z</time>
      </trkpt>
      <trkpt lat="43.46922" lon="6.40327">
        <ele>178</ele>
        <time>2022-04-08T12:48:35Z</time>
      </trkpt>
      <trkpt lat="43.46922" lon="6.40327">
        <ele>178</ele>
        <time>2022-04-08T12:48:36Z</time>
      </trkpt>
      <trkpt lat="43.46922" lon="6.40327">
        <ele>178</ele>
        <time>2022-04-08T12:48:37Z</time>
      </trkpt>
      <trkpt lat="43.46922" lon="6.40327">
        <ele>178</ele>
        <time>2022-04-08T12:48:38Z</time>
      </trkpt>
      <trkpt lat="43.46922" lon="6.40327">
        <ele>178</ele>
        <time>2022-04-08T12:48:39Z</time>
      </trkpt>
      <trkpt lat="43.46922" lon="6.40327">
        <ele>178</ele>
        <time>2022-04-08T12:48:40Z</time>
      </trkpt>
      <trkpt lat="43.46922" lon="6.40327">
        <ele>178</ele>
        <time>2022-04-08T12:48:41Z</time>
      </trkpt>
      <trkpt lat="43.46922" lon="6.40327">
        <ele>178</ele>
        <time>2022-04-08T12:48:42Z</time>
      </trkpt>
      <trkpt lat="43.46922" lon="6.40327">
        <ele>178</ele>
        <time>2022-04-08T12:48:43Z</time>
      </trkpt>
      <trkpt lat="43.46922" lon="6.40327">
        <ele>178</ele>
        <time>2022-04-08T12:48:44Z</time>
      </trkpt>
      <trkpt lat="43.46922" lon="6.40327">
        <ele>178</ele>
        <time>2022-04-08T12:48:45Z</time>
      </trkpt>
      <trkpt lat="43.46922" lon="6.40327">
        <ele>178</ele>
        <time>2022-04-08T12:48:46Z</time>
      </trkpt>
      <trkpt lat="43.46922" lon="6.40327">
        <ele>178</ele>
        <time>2022-04-08T12:48:47Z</time>
      </trkpt>
      <trkpt lat="43.46922" lon="6.40327">
        <ele>178</ele>
        <time>2022-04-08T12:48:48Z</time>
      </trkpt>
      <trkpt lat="43.46922" lon="6.40327">
        <ele>178</ele>
        <time>2022-04-08T12:48:49Z</time>
      </trkpt>
      <trkpt lat="43.46922" lon="6.40327">
        <ele>178</ele>
        <time>2022-04-08T12:48:50Z</time>
      </trkpt>
      <trkpt lat="43.46922" lon="6.40327">
        <ele>178</ele>
        <time>2022-04-08T12:48:51Z</time>
      </trkpt>
      <trkpt lat="43.46922" lon="6.40327">
        <ele>178</ele>
        <time>2022-04-08T12:48:52Z</time>
      </trkpt>
      <trkpt lat="43.46922" lon="6.40327">
        <ele>178</ele>
        <time>2022-04-08T12:48:53Z</time>
      </trkpt>
      <trkpt lat="43.46922" lon="6.40327">
        <ele>178</ele>
        <time>2022-04-08T12:48:54Z</time>
      </trkpt>
      <trkpt lat="43.46922" lon="6.40327">
        <ele>178</ele>
        <time>2022-04-08T12:48:55Z</time>
      </trkpt>
      <trkpt lat="43.46922" lon="6.40327">
        <ele>178</ele>
        <time>2022-04-08T12:48:56Z</time>
      </trkpt>
      <trkpt lat="43.46922" lon="6.40327">
        <ele>178</ele>
        <time>2022-04-08T12:48:57Z</time>
      </trkpt>
      <trkpt lat="43.46922" lon="6.40327">
        <ele>178</ele>
        <time>2022-04-08T12:48:58Z</time>
      </trkpt>
      <trkpt lat="43.46922" lon="6.40327">
        <ele>178</ele>
        <time>2022-04-08T12:48:59Z</time>
      </trkpt>
      <trkpt lat="43.46922" lon="6.40327">
        <ele>178</ele>
        <time>2022-04-08T12:49:00Z</time>
      </trkpt>
      <trkpt lat="43.46922" lon="6.40327">
        <ele>178</ele>
        <time>2022-04-08T12:49:01Z</time>
      </trkpt>
      <trkpt lat="43.46922" lon="6.40327">
        <ele>178</ele>
        <time>2022-04-08T12:49:02Z</time>
      </trkpt>
      <trkpt lat="43.46922" lon="6.40327">
        <ele>178</ele>
        <time>2022-04-08T12:49:03Z</time>
      </trkpt>
      <trkpt lat="43.46922" lon="6.40327">
        <ele>178</ele>
        <time>2022-04-08T12:49:04Z</time>
      </trkpt>
      <trkpt lat="43.46922" lon="6.40327">
        <ele>178</ele>
        <time>2022-04-08T12:49:05Z</time>
      </trkpt>
      <trkpt lat="43.46922" lon="6.40327">
        <ele>178</ele>
        <time>2022-04-08T12:49:06Z</time>
      </trkpt>
      <trkpt lat="43.46922" lon="6.40327">
        <ele>178</ele>
        <time>2022-04-08T12:49:07Z</time>
      </trkpt>
      <trkpt lat="43.46922" lon="6.40327">
        <ele>178</ele>
        <time>2022-04-08T12:49:08Z</time>
      </trkpt>
      <trkpt lat="43.46922" lon="6.40327">
        <ele>178</ele>
        <time>2022-04-08T12:49:09Z</time>
      </trkpt>
      <trkpt lat="43.46922" lon="6.40327">
        <ele>178</ele>
        <time>2022-04-08T12:49:10Z</time>
      </trkpt>
      <trkpt lat="43.46922" lon="6.40327">
        <ele>178</ele>
        <time>2022-04-08T12:49:11Z</time>
      </trkpt>
      <trkpt lat="43.46922" lon="6.40327">
        <ele>178</ele>
        <time>2022-04-08T12:49:12Z</time>
      </trkpt>
      <trkpt lat="43.46922" lon="6.40327">
        <ele>178</ele>
        <time>2022-04-08T12:49:13Z</time>
      </trkpt>
      <trkpt lat="43.46922" lon="6.40327">
        <ele>178</ele>
        <time>2022-04-08T12:49:14Z</time>
      </trkpt>
      <trkpt lat="43.46922" lon="6.40327">
        <ele>178</ele>
        <time>2022-04-08T12:49:15Z</time>
      </trkpt>
      <trkpt lat="43.46922" lon="6.40327">
        <ele>178</ele>
        <time>2022-04-08T12:49:16Z</time>
      </trkpt>
      <trkpt lat="43.46922" lon="6.40327">
        <ele>178</ele>
        <time>2022-04-08T12:49:17Z</time>
      </trkpt>
      <trkpt lat="43.46922" lon="6.40327">
        <ele>178</ele>
        <time>2022-04-08T12:49:18Z</time>
      </trkpt>
      <trkpt lat="43.46922" lon="6.40327">
        <ele>178</ele>
        <time>2022-04-08T12:49:19Z</time>
      </trkpt>
      <trkpt lat="43.46922" lon="6.40327">
        <ele>178</ele>
        <time>2022-04-08T12:49:20Z</time>
      </trkpt>
      <trkpt lat="43.46922" lon="6.40327">
        <ele>178</ele>
        <time>2022-04-08T12:49:21Z</time>
      </trkpt>
      <trkpt lat="43.46922" lon="6.40327">
        <ele>178</ele>
        <time>2022-04-08T12:49:22Z</time>
      </trkpt>
      <trkpt lat="43.46922" lon="6.40327">
        <ele>178</ele>
        <time>2022-04-08T12:49:23Z</time>
      </trkpt>
      <trkpt lat="43.46922" lon="6.40327">
        <ele>178</ele>
        <time>2022-04-08T12:49:24Z</time>
      </trkpt>
      <trkpt lat="43.46922" lon="6.40327">
        <ele>178</ele>
        <time>2022-04-08T12:49:25Z</time>
      </trkpt>
      <trkpt lat="43.46922" lon="6.40327">
        <ele>178</ele>
        <time>2022-04-08T12:49:26Z</time>
      </trkpt>
      <trkpt lat="43.46922" lon="6.40327">
        <ele>178</ele>
        <time>2022-04-08T12:49:27Z</time>
      </trkpt>
      <trkpt lat="43.46922" lon="6.40327">
        <ele>178</ele>
        <time>2022-04-08T12:49:28Z</time>
      </trkpt>
      <trkpt lat="43.46922" lon="6.40327">
        <ele>178</ele>
        <time>2022-04-08T12:49:29Z</time>
      </trkpt>
      <trkpt lat="43.46922" lon="6.40327">
        <ele>178</ele>
        <time>2022-04-08T12:49:30Z</time>
      </trkpt>
      <trkpt lat="43.46922" lon="6.40327">
        <ele>178</ele>
        <time>2022-04-08T12:49:31Z</time>
      </trkpt>
      <trkpt lat="43.46922" lon="6.40327">
        <ele>178</ele>
        <time>2022-04-08T12:49:32Z</time>
      </trkpt>
      <trkpt lat="43.46922" lon="6.40327">
        <ele>178</ele>
        <time>2022-04-08T12:49:33Z</time>
      </trkpt>
      <trkpt lat="43.46922" lon="6.40327">
        <ele>178</ele>
        <time>2022-04-08T12:49:34Z</time>
      </trkpt>
      <trkpt lat="43.46922" lon="6.40327">
        <ele>178</ele>
        <time>2022-04-08T12:49:35Z</time>
      </trkpt>
      <trkpt lat="43.46922" lon="6.40327">
        <ele>178</ele>
        <time>2022-04-08T12:49:36Z</time>
      </trkpt>
      <trkpt lat="43.46922" lon="6.40327">
        <ele>178</ele>
        <time>2022-04-08T12:49:37Z</time>
      </trkpt>
      <trkpt lat="43.46922" lon="6.40327">
        <ele>178</ele>
        <time>2022-04-08T12:49:38Z</time>
      </trkpt>
      <trkpt lat="43.46922" lon="6.40327">
        <ele>178</ele>
        <time>2022-04-08T12:49:39Z</time>
      </trkpt>
      <trkpt lat="43.46922" lon="6.40327">
        <ele>178</ele>
        <time>2022-04-08T12:49:40Z</time>
      </trkpt>
      <trkpt lat="43.46922" lon="6.40327">
        <ele>178</ele>
        <time>2022-04-08T12:49:41Z</time>
      </trkpt>
      <trkpt lat="43.4692" lon="6.40318">
        <ele>178</ele>
        <time>2022-04-08T12:49:42Z</time>
      </trkpt>
      <trkpt lat="43.4692" lon="6.40318">
        <ele>178</ele>
        <time>2022-04-08T12:49:43Z</time>
      </trkpt>
      <trkpt lat="43.4692" lon="6.40317">
        <ele>178</ele>
        <time>2022-04-08T12:49:44Z</time>
      </trkpt>
      <trkpt lat="43.4692" lon="6.40317">
        <ele>178</ele>
        <time>2022-04-08T12:49:45Z</time>
      </trkpt>
      <trkpt lat="43.4692" lon="6.40317">
        <ele>178</ele>
        <time>2022-04-08T12:49:46Z</time>
      </trkpt>
      <trkpt lat="43.4692" lon="6.40317">
        <ele>178</ele>
        <time>2022-04-08T12:49:47Z</time>
      </trkpt>
      <trkpt lat="43.4692" lon="6.40317">
        <ele>178</ele>
        <time>2022-04-08T12:49:48Z</time>
      </trkpt>
      <trkpt lat="43.4692" lon="6.40317">
        <ele>178</ele>
        <time>2022-04-08T12:49:49Z</time>
      </trkpt>
      <trkpt lat="43.46919" lon="6.40317">
        <ele>178</ele>
        <time>2022-04-08T12:49:50Z</time>
      </trkpt>
      <trkpt lat="43.46919" lon="6.40317">
        <ele>178</ele>
        <time>2022-04-08T12:49:51Z</time>
      </trkpt>
      <trkpt lat="43.46918" lon="6.40318">
        <ele>178</ele>
        <time>2022-04-08T12:49:52Z</time>
      </trkpt>
      <trkpt lat="43.46918" lon="6.40318">
        <ele>178</ele>
        <time>2022-04-08T12:49:53Z</time>
      </trkpt>
      <trkpt lat="43.46917" lon="6.40318">
        <ele>178</ele>
        <time>2022-04-08T12:49:54Z</time>
      </trkpt>
      <trkpt lat="43.46916" lon="6.40318">
        <ele>178</ele>
        <time>2022-04-08T12:49:55Z</time>
      </trkpt>
      <trkpt lat="43.46915" lon="6.40319">
        <ele>178</ele>
        <time>2022-04-08T12:49:56Z</time>
      </trkpt>
      <trkpt lat="43.46915" lon="6.40319">
        <ele>178</ele>
        <time>2022-04-08T12:49:57Z</time>
      </trkpt>
      <trkpt lat="43.46914" lon="6.40319">
        <ele>178</ele>
        <time>2022-04-08T12:49:58Z</time>
      </trkpt>
      <trkpt lat="43.46913" lon="6.40319">
        <ele>178</ele>
        <time>2022-04-08T12:49:59Z</time>
      </trkpt>
      <trkpt lat="43.46913" lon="6.40319">
        <ele>178</ele>
        <time>2022-04-08T12:50:00Z</time>
      </trkpt>
      <trkpt lat="43.46913" lon="6.4032">
        <ele>178</ele>
        <time>2022-04-08T12:50:01Z</time>
      </trkpt>
      <trkpt lat="43.46912" lon="6.4032">
        <ele>178</ele>
        <time>2022-04-08T12:50:02Z</time>
      </trkpt>
      <trkpt lat="43.46912" lon="6.4032">
        <ele>178</ele>
        <time>2022-04-08T12:50:03Z</time>
      </trkpt>
      <trkpt lat="43.46911" lon="6.40321">
        <ele>182</ele>
        <time>2022-04-08T12:50:04Z</time>
      </trkpt>
      <trkpt lat="43.4691" lon="6.40322">
        <ele>184</ele>
        <time>2022-04-08T12:50:05Z</time>
      </trkpt>
      <trkpt lat="43.46908" lon="6.40322">
        <ele>184</ele>
        <time>2022-04-08T12:50:06Z</time>
      </trkpt>
      <trkpt lat="43.46907" lon="6.40323">
        <ele>185</ele>
        <time>2022-04-08T12:50:07Z</time>
      </trkpt>
      <trkpt lat="43.46907" lon="6.40324">
        <ele>185</ele>
        <time>2022-04-08T12:50:08Z</time>
      </trkpt>
      <trkpt lat="43.46906" lon="6.40324">
        <ele>185</ele>
        <time>2022-04-08T12:50:09Z</time>
      </trkpt>
      <trkpt lat="43.46906" lon="6.40325">
        <ele>185</ele>
        <time>2022-04-08T12:50:10Z</time>
      </trkpt>
      <trkpt lat="43.46905" lon="6.40325">
        <ele>185</ele>
        <time>2022-04-08T12:50:11Z</time>
      </trkpt>
      <trkpt lat="43.46905" lon="6.40326">
        <ele>185</ele>
        <time>2022-04-08T12:50:12Z</time>
      </trkpt>
      <trkpt lat="43.46904" lon="6.40327">
        <ele>185</ele>
        <time>2022-04-08T12:50:13Z</time>
      </trkpt>
      <trkpt lat="43.46904" lon="6.40329">
        <ele>185</ele>
        <time>2022-04-08T12:50:14Z</time>
      </trkpt>
      <trkpt lat="43.46903" lon="6.40331">
        <ele>185</ele>
        <time>2022-04-08T12:50:15Z</time>
      </trkpt>
      <trkpt lat="43.46901" lon="6.40333">
        <ele>185</ele>
        <time>2022-04-08T12:50:16Z</time>
      </trkpt>
      <trkpt lat="43.469" lon="6.40335">
        <ele>185</ele>
        <time>2022-04-08T12:50:17Z</time>
      </trkpt>
      <trkpt lat="43.46899" lon="6.40336">
        <ele>184</ele>
        <time>2022-04-08T12:50:18Z</time>
      </trkpt>
      <trkpt lat="43.46898" lon="6.40337">
        <ele>184</ele>
        <time>2022-04-08T12:50:19Z</time>
      </trkpt>
      <trkpt lat="43.46898" lon="6.40338">
        <ele>184</ele>
        <time>2022-04-08T12:50:20Z</time>
      </trkpt>
      <trkpt lat="43.46897" lon="6.40339">
        <ele>184</ele>
        <time>2022-04-08T12:50:21Z</time>
      </trkpt>
      <trkpt lat="43.46897" lon="6.4034">
        <ele>184</ele>
        <time>2022-04-08T12:50:22Z</time>
      </trkpt>
      <trkpt lat="43.46896" lon="6.4034">
        <ele>184</ele>
        <time>2022-04-08T12:50:23Z</time>
      </trkpt>
      <trkpt lat="43.46896" lon="6.40341">
        <ele>184</ele>
        <time>2022-04-08T12:50:24Z</time>
      </trkpt>
      <trkpt lat="43.46895" lon="6.40342">
        <ele>183</ele>
        <time>2022-04-08T12:50:25Z</time>
      </trkpt>
      <trkpt lat="43.46895" lon="6.40343">
        <ele>182</ele>
        <time>2022-04-08T12:50:26Z</time>
      </trkpt>
      <trkpt lat="43.46895" lon="6.40344">
        <ele>182</ele>
        <time>2022-04-08T12:50:27Z</time>
      </trkpt>
      <trkpt lat="43.46894" lon="6.40345">
        <ele>182</ele>
        <time>2022-04-08T12:50:28Z</time>
      </trkpt>
      <trkpt lat="43.46894" lon="6.40346">
        <ele>182</ele>
        <time>2022-04-08T12:50:29Z</time>
      </trkpt>
      <trkpt lat="43.46893" lon="6.40347">
        <ele>182</ele>
        <time>2022-04-08T12:50:30Z</time>
      </trkpt>
      <trkpt lat="43.46893" lon="6.40348">
        <ele>181</ele>
        <time>2022-04-08T12:50:31Z</time>
      </trkpt>
      <trkpt lat="43.46892" lon="6.40349">
        <ele>181</ele>
        <time>2022-04-08T12:50:32Z</time>
      </trkpt>
      <trkpt lat="43.46892" lon="6.4035">
        <ele>181</ele>
        <time>2022-04-08T12:50:33Z</time>
      </trkpt>
      <trkpt lat="43.46891" lon="6.4035">
        <ele>181</ele>
        <time>2022-04-08T12:50:34Z</time>
      </trkpt>
      <trkpt lat="43.46891" lon="6.40351">
        <ele>181</ele>
        <time>2022-04-08T12:50:35Z</time>
      </trkpt>
      <trkpt lat="43.4689" lon="6.40352">
        <ele>181</ele>
        <time>2022-04-08T12:50:36Z</time>
      </trkpt>
      <trkpt lat="43.4689" lon="6.40353">
        <ele>181</ele>
        <time>2022-04-08T12:50:37Z</time>
      </trkpt>
      <trkpt lat="43.46889" lon="6.40354">
        <ele>181</ele>
        <time>2022-04-08T12:50:38Z</time>
      </trkpt>
      <trkpt lat="43.46888" lon="6.40354">
        <ele>181</ele>
        <time>2022-04-08T12:50:39Z</time>
      </trkpt>
      <trkpt lat="43.46888" lon="6.40355">
        <ele>181</ele>
        <time>2022-04-08T12:50:40Z</time>
      </trkpt>
      <trkpt lat="43.46888" lon="6.40356">
        <ele>181</ele>
        <time>2022-04-08T12:50:41Z</time>
      </trkpt>
      <trkpt lat="43.46888" lon="6.40356">
        <ele>180</ele>
        <time>2022-04-08T12:50:42Z</time>
      </trkpt>
      <trkpt lat="43.46887" lon="6.40357">
        <ele>180</ele>
        <time>2022-04-08T12:50:43Z</time>
      </trkpt>
      <trkpt lat="43.46887" lon="6.40358">
        <ele>180</ele>
        <time>2022-04-08T12:50:44Z</time>
      </trkpt>
      <trkpt lat="43.46886" lon="6.40359">
        <ele>180</ele>
        <time>2022-04-08T12:50:45Z</time>
      </trkpt>
      <trkpt lat="43.46885" lon="6.40361">
        <ele>180</ele>
        <time>2022-04-08T12:50:46Z</time>
      </trkpt>
      <trkpt lat="43.46885" lon="6.40362">
        <ele>180</ele>
        <time>2022-04-08T12:50:47Z</time>
      </trkpt>
      <trkpt lat="43.46884" lon="6.40363">
        <ele>180</ele>
        <time>2022-04-08T12:50:48Z</time>
      </trkpt>
      <trkpt lat="43.46884" lon="6.40365">
        <ele>180</ele>
        <time>2022-04-08T12:50:49Z</time>
      </trkpt>
      <trkpt lat="43.46883" lon="6.40366">
        <ele>180</ele>
        <time>2022-04-08T12:50:50Z</time>
      </trkpt>
      <trkpt lat="43.46883" lon="6.40367">
        <ele>180</ele>
        <time>2022-04-08T12:50:51Z</time>
      </trkpt>
      <trkpt lat="43.46882" lon="6.40368">
        <ele>181</ele>
        <time>2022-04-08T12:50:52Z</time>
      </trkpt>
      <trkpt lat="43.46882" lon="6.4037">
        <ele>181</ele>
        <time>2022-04-08T12:50:53Z</time>
      </trkpt>
      <trkpt lat="43.46881" lon="6.40371">
        <ele>181</ele>
        <time>2022-04-08T12:50:54Z</time>
      </trkpt>
      <trkpt lat="43.46881" lon="6.40372">
        <ele>181</ele>
        <time>2022-04-08T12:50:55Z</time>
      </trkpt>
      <trkpt lat="43.46881" lon="6.40372">
        <ele>181</ele>
        <time>2022-04-08T12:50:56Z</time>
      </trkpt>
      <trkpt lat="43.4688" lon="6.40373">
        <ele>181</ele>
        <time>2022-04-08T12:50:57Z</time>
      </trkpt>
      <trkpt lat="43.4688" lon="6.40374">
        <ele>181</ele>
        <time>2022-04-08T12:50:58Z</time>
      </trkpt>
      <trkpt lat="43.46879" lon="6.40375">
        <ele>182</ele>
        <time>2022-04-08T12:50:59Z</time>
      </trkpt>
      <trkpt lat="43.46878" lon="6.40376">
        <ele>182</ele>
        <time>2022-04-08T12:51:00Z</time>
      </trkpt>
      <trkpt lat="43.46877" lon="6.40378">
        <ele>184</ele>
        <time>2022-04-08T12:51:01Z</time>
      </trkpt>
      <trkpt lat="43.46877" lon="6.40379">
        <ele>184</ele>
        <time>2022-04-08T12:51:02Z</time>
      </trkpt>
      <trkpt lat="43.46876" lon="6.4038">
        <ele>184</ele>
        <time>2022-04-08T12:51:03Z</time>
      </trkpt>
      <trkpt lat="43.46876" lon="6.4038">
        <ele>185</ele>
        <time>2022-04-08T12:51:04Z</time>
      </trkpt>
      <trkpt lat="43.46875" lon="6.40381">
        <ele>185</ele>
        <time>2022-04-08T12:51:05Z</time>
      </trkpt>
      <trkpt lat="43.46875" lon="6.40381">
        <ele>185</ele>
        <time>2022-04-08T12:51:06Z</time>
      </trkpt>
      <trkpt lat="43.46875" lon="6.40381">
        <ele>185</ele>
        <time>2022-04-08T12:51:07Z</time>
      </trkpt>
      <trkpt lat="43.46875" lon="6.40381">
        <ele>185</ele>
        <time>2022-04-08T12:51:08Z</time>
      </trkpt>
      <trkpt lat="43.46875" lon="6.40381">
        <ele>185</ele>
        <time>2022-04-08T12:51:09Z</time>
      </trkpt>
      <trkpt lat="43.46875" lon="6.40381">
        <ele>185</ele>
        <time>2022-04-08T12:51:10Z</time>
      </trkpt>
      <trkpt lat="43.46875" lon="6.40381">
        <ele>185</ele>
        <time>2022-04-08T12:51:11Z</time>
      </trkpt>
      <trkpt lat="43.46875" lon="6.40381">
        <ele>185</ele>
        <time>2022-04-08T12:51:12Z</time>
      </trkpt>
      <trkpt lat="43.46875" lon="6.40381">
        <ele>185</ele>
        <time>2022-04-08T12:51:13Z</time>
      </trkpt>
      <trkpt lat="43.46875" lon="6.40381">
        <ele>185</ele>
        <time>2022-04-08T12:51:14Z</time>
      </trkpt>
      <trkpt lat="43.46875" lon="6.40381">
        <ele>185</ele>
        <time>2022-04-08T12:51:15Z</time>
      </trkpt>
      <trkpt lat="43.46875" lon="6.40381">
        <ele>185</ele>
        <time>2022-04-08T12:51:16Z</time>
      </trkpt>
      <trkpt lat="43.46875" lon="6.40381">
        <ele>185</ele>
        <time>2022-04-08T12:51:17Z</time>
      </trkpt>
      <trkpt lat="43.46875" lon="6.40381">
        <ele>185</ele>
        <time>2022-04-08T12:51:18Z</time>
      </trkpt>
      <trkpt lat="43.46875" lon="6.40381">
        <ele>185</ele>
        <time>2022-04-08T12:51:19Z</time>
      </trkpt>
      <trkpt lat="43.46875" lon="6.40381">
        <ele>185</ele>
        <time>2022-04-08T12:51:20Z</time>
      </trkpt>
      <trkpt lat="43.46875" lon="6.40381">
        <ele>185</ele>
        <time>2022-04-08T12:51:21Z</time>
      </trkpt>
      <trkpt lat="43.46875" lon="6.40381">
        <ele>185</ele>
        <time>2022-04-08T12:51:22Z</time>
      </trkpt>
      <trkpt lat="43.46875" lon="6.40381">
        <ele>185</ele>
        <time>2022-04-08T12:51:23Z</time>
      </trkpt>
      <trkpt lat="43.46875" lon="6.40381">
        <ele>185</ele>
        <time>2022-04-08T12:51:24Z</time>
      </trkpt>
      <trkpt lat="43.46875" lon="6.40381">
        <ele>185</ele>
        <time>2022-04-08T12:51:25Z</time>
      </trkpt>
      <trkpt lat="43.46875" lon="6.40381">
        <ele>185</ele>
        <time>2022-04-08T12:51:26Z</time>
      </trkpt>
      <trkpt lat="43.46875" lon="6.40381">
        <ele>185</ele>
        <time>2022-04-08T12:51:27Z</time>
      </trkpt>
      <trkpt lat="43.46875" lon="6.40381">
        <ele>185</ele>
        <time>2022-04-08T12:51:28Z</time>
      </trkpt>
      <trkpt lat="43.46875" lon="6.40381">
        <ele>185</ele>
        <time>2022-04-08T12:51:29Z</time>
      </trkpt>
      <trkpt lat="43.46875" lon="6.40381">
        <ele>185</ele>
        <time>2022-04-08T12:51:30Z</time>
      </trkpt>
      <trkpt lat="43.46875" lon="6.40381">
        <ele>185</ele>
        <time>2022-04-08T12:51:31Z</time>
      </trkpt>
      <trkpt lat="43.46875" lon="6.40381">
        <ele>185</ele>
        <time>2022-04-08T12:51:32Z</time>
      </trkpt>
      <trkpt lat="43.46875" lon="6.40381">
        <ele>185</ele>
        <time>2022-04-08T12:51:33Z</time>
      </trkpt>
      <trkpt lat="43.46875" lon="6.40381">
        <ele>185</ele>
        <time>2022-04-08T12:51:34Z</time>
      </trkpt>
      <trkpt lat="43.46875" lon="6.40381">
        <ele>185</ele>
        <time>2022-04-08T12:51:35Z</time>
      </trkpt>
      <trkpt lat="43.46875" lon="6.40381">
        <ele>185</ele>
        <time>2022-04-08T12:51:36Z</time>
      </trkpt>
      <trkpt lat="43.46875" lon="6.40381">
        <ele>185</ele>
        <time>2022-04-08T12:51:37Z</time>
      </trkpt>
      <trkpt lat="43.46875" lon="6.40381">
        <ele>185</ele>
        <time>2022-04-08T12:51:38Z</time>
      </trkpt>
      <trkpt lat="43.46875" lon="6.40381">
        <ele>185</ele>
        <time>2022-04-08T12:51:39Z</time>
      </trkpt>
      <trkpt lat="43.46882" lon="6.40383">
        <ele>185</ele>
        <time>2022-04-08T12:51:40Z</time>
      </trkpt>
      <trkpt lat="43.46884" lon="6.40383">
        <ele>185</ele>
        <time>2022-04-08T12:51:41Z</time>
      </trkpt>
      <trkpt lat="43.46886" lon="6.40384">
        <ele>185</ele>
        <time>2022-04-08T12:51:42Z</time>
      </trkpt>
      <trkpt lat="43.46887" lon="6.40385">
        <ele>185</ele>
        <time>2022-04-08T12:51:43Z</time>
      </trkpt>
      <trkpt lat="43.46888" lon="6.40386">
        <ele>185</ele>
        <time>2022-04-08T12:51:44Z</time>
      </trkpt>
      <trkpt lat="43.46888" lon="6.40387">
        <ele>185</ele>
        <time>2022-04-08T12:51:45Z</time>
      </trkpt>
      <trkpt lat="43.46889" lon="6.40388">
        <ele>186</ele>
        <time>2022-04-08T12:51:46Z</time>
      </trkpt>
      <trkpt lat="43.4689" lon="6.40389">
        <ele>186</ele>
        <time>2022-04-08T12:51:47Z</time>
      </trkpt>
      <trkpt lat="43.4689" lon="6.4039">
        <ele>186</ele>
        <time>2022-04-08T12:51:48Z</time>
      </trkpt>
      <trkpt lat="43.46891" lon="6.4039">
        <ele>186</ele>
        <time>2022-04-08T12:51:49Z</time>
      </trkpt>
      <trkpt lat="43.46891" lon="6.4039">
        <ele>186</ele>
        <time>2022-04-08T12:51:50Z</time>
      </trkpt>
      <trkpt lat="43.46891" lon="6.4039">
        <ele>186</ele>
        <time>2022-04-08T12:51:51Z</time>
      </trkpt>
      <trkpt lat="43.46891" lon="6.40391">
        <ele>186</ele>
        <time>2022-04-08T12:51:52Z</time>
      </trkpt>
      <trkpt lat="43.46891" lon="6.40391">
        <ele>186</ele>
        <time>2022-04-08T12:51:53Z</time>
      </trkpt>
      <trkpt lat="43.46891" lon="6.40391">
        <ele>186</ele>
        <time>2022-04-08T12:51:54Z</time>
      </trkpt>
      <trkpt lat="43.46891" lon="6.40391">
        <ele>186</ele>
        <time>2022-04-08T12:51:55Z</time>
      </trkpt>
      <trkpt lat="43.46891" lon="6.40392">
        <ele>186</ele>
        <time>2022-04-08T12:51:56Z</time>
      </trkpt>
      <trkpt lat="43.46891" lon="6.40392">
        <ele>186</ele>
        <time>2022-04-08T12:51:57Z</time>
      </trkpt>
      <trkpt lat="43.4689" lon="6.40392">
        <ele>186</ele>
        <time>2022-04-08T12:51:58Z</time>
      </trkpt>
      <trkpt lat="43.4689" lon="6.40393">
        <ele>186</ele>
        <time>2022-04-08T12:51:59Z</time>
      </trkpt>
      <trkpt lat="43.46889" lon="6.40393">
        <ele>186</ele>
        <time>2022-04-08T12:52:00Z</time>
      </trkpt>
      <trkpt lat="43.46888" lon="6.40394">
        <ele>186</ele>
        <time>2022-04-08T12:52:01Z</time>
      </trkpt>
      <trkpt lat="43.46887" lon="6.40394">
        <ele>186</ele>
        <time>2022-04-08T12:52:02Z</time>
      </trkpt>
      <trkpt lat="43.46886" lon="6.40394">
        <ele>186</ele>
        <time>2022-04-08T12:52:03Z</time>
      </trkpt>
      <trkpt lat="43.46885" lon="6.40394">
        <ele>186</ele>
        <time>2022-04-08T12:52:04Z</time>
      </trkpt>
      <trkpt lat="43.46884" lon="6.40393">
        <ele>186</ele>
        <time>2022-04-08T12:52:05Z</time>
      </trkpt>
      <trkpt lat="43.46883" lon="6.40392">
        <ele>186</ele>
        <time>2022-04-08T12:52:06Z</time>
      </trkpt>
      <trkpt lat="43.46881" lon="6.40391">
        <ele>186</ele>
        <time>2022-04-08T12:52:07Z</time>
      </trkpt>
      <trkpt lat="43.46881" lon="6.4039">
        <ele>187</ele>
        <time>2022-04-08T12:52:08Z</time>
      </trkpt>
      <trkpt lat="43.4688" lon="6.40389">
        <ele>187</ele>
        <time>2022-04-08T12:52:09Z</time>
      </trkpt>
      <trkpt lat="43.46879" lon="6.40388">
        <ele>187</ele>
        <time>2022-04-08T12:52:10Z</time>
      </trkpt>
      <trkpt lat="43.46879" lon="6.40388">
        <ele>187</ele>
        <time>2022-04-08T12:52:11Z</time>
      </trkpt>
      <trkpt lat="43.46879" lon="6.40387">
        <ele>187</ele>
        <time>2022-04-08T12:52:12Z</time>
      </trkpt>
      <trkpt lat="43.46878" lon="6.40387">
        <ele>187</ele>
        <time>2022-04-08T12:52:13Z</time>
      </trkpt>
      <trkpt lat="43.46878" lon="6.40387">
        <ele>187</ele>
        <time>2022-04-08T12:52:14Z</time>
      </trkpt>
      <trkpt lat="43.46878" lon="6.40386">
        <ele>187</ele>
        <time>2022-04-08T12:52:15Z</time>
      </trkpt>
      <trkpt lat="43.46877" lon="6.40386">
        <ele>187</ele>
        <time>2022-04-08T12:52:16Z</time>
      </trkpt>
      <trkpt lat="43.46877" lon="6.40386">
        <ele>187</ele>
        <time>2022-04-08T12:52:17Z</time>
      </trkpt>
      <trkpt lat="43.46876" lon="6.40385">
        <ele>187</ele>
        <time>2022-04-08T12:52:18Z</time>
      </trkpt>
      <trkpt lat="43.46876" lon="6.40385">
        <ele>187</ele>
        <time>2022-04-08T12:52:19Z</time>
      </trkpt>
      <trkpt lat="43.46875" lon="6.40385">
        <ele>187</ele>
        <time>2022-04-08T12:52:20Z</time>
      </trkpt>
      <trkpt lat="43.46875" lon="6.40385">
        <ele>187</ele>
        <time>2022-04-08T12:52:21Z</time>
      </trkpt>
      <trkpt lat="43.46874" lon="6.40385">
        <ele>186</ele>
        <time>2022-04-08T12:52:22Z</time>
      </trkpt>
      <trkpt lat="43.46873" lon="6.40386">
        <ele>186</ele>
        <time>2022-04-08T12:52:23Z</time>
      </trkpt>
      <trkpt lat="43.46872" lon="6.40387">
        <ele>186</ele>
        <time>2022-04-08T12:52:24Z</time>
      </trkpt>
      <trkpt lat="43.46872" lon="6.40387">
        <ele>186</ele>
        <time>2022-04-08T12:52:25Z</time>
      </trkpt>
      <trkpt lat="43.46872" lon="6.40388">
        <ele>186</ele>
        <time>2022-04-08T12:52:26Z</time>
      </trkpt>
      <trkpt lat="43.46871" lon="6.40388">
        <ele>186</ele>
        <time>2022-04-08T12:52:27Z</time>
      </trkpt>
      <trkpt lat="43.46871" lon="6.40388">
        <ele>186</ele>
        <time>2022-04-08T12:52:28Z</time>
      </trkpt>
      <trkpt lat="43.46871" lon="6.40389">
        <ele>186</ele>
        <time>2022-04-08T12:52:29Z</time>
      </trkpt>
      <trkpt lat="43.46871" lon="6.40389">
        <ele>186</ele>
        <time>2022-04-08T12:52:30Z</time>
      </trkpt>
      <trkpt lat="43.4687" lon="6.40389">
        <ele>185</ele>
        <time>2022-04-08T12:52:31Z</time>
      </trkpt>
      <trkpt lat="43.4687" lon="6.40389">
        <ele>185</ele>
        <time>2022-04-08T12:52:32Z</time>
      </trkpt>
      <trkpt lat="43.4687" lon="6.4039">
        <ele>185</ele>
        <time>2022-04-08T12:52:33Z</time>
      </trkpt>
      <trkpt lat="43.4687" lon="6.4039">
        <ele>185</ele>
        <time>2022-04-08T12:52:34Z</time>
      </trkpt>
      <trkpt lat="43.46869" lon="6.4039">
        <ele>184</ele>
        <time>2022-04-08T12:52:35Z</time>
      </trkpt>
      <trkpt lat="43.46869" lon="6.4039">
        <ele>184</ele>
        <time>2022-04-08T12:52:36Z</time>
      </trkpt>
      <trkpt lat="43.46869" lon="6.4039">
        <ele>183</ele>
        <time>2022-04-08T12:52:37Z</time>
      </trkpt>
      <trkpt lat="43.46869" lon="6.4039">
        <ele>183</ele>
        <time>2022-04-08T12:52:38Z</time>
      </trkpt>
      <trkpt lat="43.46869" lon="6.4039">
        <ele>183</ele>
        <time>2022-04-08T12:52:39Z</time>
      </trkpt>
      <trkpt lat="43.46869" lon="6.4039">
        <ele>183</ele>
        <time>2022-04-08T12:52:40Z</time>
      </trkpt>
      <trkpt lat="43.46869" lon="6.4039">
        <ele>183</ele>
        <time>2022-04-08T12:52:41Z</time>
      </trkpt>
      <trkpt lat="43.46869" lon="6.4039">
        <ele>183</ele>
        <time>2022-04-08T12:52:42Z</time>
      </trkpt>
      <trkpt lat="43.46868" lon="6.4039">
        <ele>183</ele>
        <time>2022-04-08T12:52:43Z</time>
      </trkpt>
      <trkpt lat="43.46867" lon="6.4039">
        <ele>183</ele>
        <time>2022-04-08T12:52:44Z</time>
      </trkpt>
      <trkpt lat="43.46866" lon="6.4039">
        <ele>183</ele>
        <time>2022-04-08T12:52:45Z</time>
      </trkpt>
      <trkpt lat="43.46866" lon="6.4039">
        <ele>183</ele>
        <time>2022-04-08T12:52:46Z</time>
      </trkpt>
      <trkpt lat="43.46865" lon="6.4039">
        <ele>183</ele>
        <time>2022-04-08T12:52:47Z</time>
      </trkpt>
      <trkpt lat="43.46865" lon="6.4039">
        <ele>184</ele>
        <time>2022-04-08T12:52:48Z</time>
      </trkpt>
      <trkpt lat="43.46864" lon="6.40391">
        <ele>184</ele>
        <time>2022-04-08T12:52:49Z</time>
      </trkpt>
      <trkpt lat="43.46864" lon="6.40391">
        <ele>184</ele>
        <time>2022-04-08T12:52:50Z</time>
      </trkpt>
      <trkpt lat="43.46863" lon="6.40392">
        <ele>184</ele>
        <time>2022-04-08T12:52:51Z</time>
      </trkpt>
      <trkpt lat="43.46863" lon="6.40392">
        <ele>184</ele>
        <time>2022-04-08T12:52:52Z</time>
      </trkpt>
      <trkpt lat="43.46862" lon="6.40394">
        <ele>184</ele>
        <time>2022-04-08T12:52:53Z</time>
      </trkpt>
      <trkpt lat="43.46862" lon="6.40395">
        <ele>185</ele>
        <time>2022-04-08T12:52:54Z</time>
      </trkpt>
      <trkpt lat="43.46862" lon="6.40396">
        <ele>185</ele>
        <time>2022-04-08T12:52:55Z</time>
      </trkpt>
      <trkpt lat="43.46861" lon="6.40397">
        <ele>185</ele>
        <time>2022-04-08T12:52:56Z</time>
      </trkpt>
      <trkpt lat="43.46861" lon="6.40398">
        <ele>185</ele>
        <time>2022-04-08T12:52:57Z</time>
      </trkpt>
      <trkpt lat="43.46861" lon="6.40399">
        <ele>185</ele>
        <time>2022-04-08T12:52:58Z</time>
      </trkpt>
      <trkpt lat="43.4686" lon="6.40401">
        <ele>185</ele>
        <time>2022-04-08T12:52:59Z</time>
      </trkpt>
      <trkpt lat="43.4686" lon="6.40402">
        <ele>186</ele>
        <time>2022-04-08T12:53:00Z</time>
      </trkpt>
      <trkpt lat="43.4686" lon="6.40403">
        <ele>186</ele>
        <time>2022-04-08T12:53:01Z</time>
      </trkpt>
      <trkpt lat="43.4686" lon="6.40405">
        <ele>186</ele>
        <time>2022-04-08T12:53:02Z</time>
      </trkpt>
      <trkpt lat="43.4686" lon="6.40406">
        <ele>188</ele>
        <time>2022-04-08T12:53:03Z</time>
      </trkpt>
      <trkpt lat="43.4686" lon="6.40407">
        <ele>189</ele>
        <time>2022-04-08T12:53:04Z</time>
      </trkpt>
      <trkpt lat="43.46859" lon="6.40408">
        <ele>189</ele>
        <time>2022-04-08T12:53:05Z</time>
      </trkpt>
      <trkpt lat="43.46859" lon="6.40409">
        <ele>189</ele>
        <time>2022-04-08T12:53:06Z</time>
      </trkpt>
      <trkpt lat="43.46859" lon="6.40409">
        <ele>189</ele>
        <time>2022-04-08T12:53:07Z</time>
      </trkpt>
      <trkpt lat="43.46859" lon="6.40411">
        <ele>189</ele>
        <time>2022-04-08T12:53:08Z</time>
      </trkpt>
      <trkpt lat="43.46859" lon="6.40412">
        <ele>189</ele>
        <time>2022-04-08T12:53:09Z</time>
      </trkpt>
      <trkpt lat="43.46859" lon="6.40414">
        <ele>189</ele>
        <time>2022-04-08T12:53:10Z</time>
      </trkpt>
      <trkpt lat="43.46859" lon="6.40415">
        <ele>189</ele>
        <time>2022-04-08T12:53:11Z</time>
      </trkpt>
      <trkpt lat="43.46859" lon="6.40416">
        <ele>189</ele>
        <time>2022-04-08T12:53:12Z</time>
      </trkpt>
      <trkpt lat="43.46859" lon="6.40417">
        <ele>189</ele>
        <time>2022-04-08T12:53:13Z</time>
      </trkpt>
      <trkpt lat="43.46859" lon="6.40419">
        <ele>189</ele>
        <time>2022-04-08T12:53:14Z</time>
      </trkpt>
      <trkpt lat="43.46859" lon="6.40421">
        <ele>189</ele>
        <time>2022-04-08T12:53:15Z</time>
      </trkpt>
      <trkpt lat="43.46859" lon="6.40423">
        <ele>188</ele>
        <time>2022-04-08T12:53:16Z</time>
      </trkpt>
      <trkpt lat="43.46859" lon="6.40424">
        <ele>188</ele>
        <time>2022-04-08T12:53:17Z</time>
      </trkpt>
      <trkpt lat="43.46859" lon="6.40425">
        <ele>188</ele>
        <time>2022-04-08T12:53:18Z</time>
      </trkpt>
      <trkpt lat="43.46859" lon="6.40427">
        <ele>188</ele>
        <time>2022-04-08T12:53:19Z</time>
      </trkpt>
      <trkpt lat="43.46859" lon="6.40428">
        <ele>187</ele>
        <time>2022-04-08T12:53:20Z</time>
      </trkpt>
      <trkpt lat="43.46859" lon="6.40429">
        <ele>187</ele>
        <time>2022-04-08T12:53:21Z</time>
      </trkpt>
      <trkpt lat="43.46859" lon="6.40429">
        <ele>187</ele>
        <time>2022-04-08T12:53:22Z</time>
      </trkpt>
      <trkpt lat="43.46858" lon="6.4043">
        <ele>187</ele>
        <time>2022-04-08T12:53:23Z</time>
      </trkpt>
      <trkpt lat="43.46858" lon="6.40431">
        <ele>187</ele>
        <time>2022-04-08T12:53:24Z</time>
      </trkpt>
      <trkpt lat="43.46858" lon="6.40432">
        <ele>187</ele>
        <time>2022-04-08T12:53:25Z</time>
      </trkpt>
      <trkpt lat="43.46858" lon="6.40433">
        <ele>187</ele>
        <time>2022-04-08T12:53:26Z</time>
      </trkpt>
      <trkpt lat="43.46858" lon="6.40434">
        <ele>187</ele>
        <time>2022-04-08T12:53:27Z</time>
      </trkpt>
      <trkpt lat="43.46858" lon="6.40434">
        <ele>187</ele>
        <time>2022-04-08T12:53:28Z</time>
      </trkpt>
      <trkpt lat="43.46858" lon="6.40436">
        <ele>187</ele>
        <time>2022-04-08T12:53:29Z</time>
      </trkpt>
      <trkpt lat="43.46858" lon="6.40436">
        <ele>187</ele>
        <time>2022-04-08T12:53:30Z</time>
      </trkpt>
      <trkpt lat="43.46858" lon="6.40437">
        <ele>187</ele>
        <time>2022-04-08T12:53:31Z</time>
      </trkpt>
      <trkpt lat="43.46858" lon="6.40438">
        <ele>187</ele>
        <time>2022-04-08T12:53:32Z</time>
      </trkpt>
      <trkpt lat="43.46858" lon="6.40438">
        <ele>187</ele>
        <time>2022-04-08T12:53:33Z</time>
      </trkpt>
      <trkpt lat="43.46858" lon="6.40438">
        <ele>187</ele>
        <time>2022-04-08T12:53:34Z</time>
      </trkpt>
      <trkpt lat="43.46858" lon="6.40439">
        <ele>187</ele>
        <time>2022-04-08T12:53:35Z</time>
      </trkpt>
      <trkpt lat="43.46858" lon="6.40439">
        <ele>187</ele>
        <time>2022-04-08T12:53:36Z</time>
      </trkpt>
      <trkpt lat="43.46858" lon="6.40439">
        <ele>187</ele>
        <time>2022-04-08T12:53:37Z</time>
      </trkpt>
      <trkpt lat="43.46858" lon="6.40439">
        <ele>187</ele>
        <time>2022-04-08T12:53:38Z</time>
      </trkpt>
      <trkpt lat="43.46858" lon="6.40439">
        <ele>187</ele>
        <time>2022-04-08T12:53:39Z</time>
      </trkpt>
      <trkpt lat="43.46857" lon="6.40442">
        <ele>187</ele>
        <time>2022-04-08T12:53:40Z</time>
      </trkpt>
      <trkpt lat="43.46857" lon="6.40443">
        <ele>187</ele>
        <time>2022-04-08T12:53:41Z</time>
      </trkpt>
      <trkpt lat="43.46857" lon="6.40445">
        <ele>187</ele>
        <time>2022-04-08T12:53:42Z</time>
      </trkpt>
      <trkpt lat="43.46856" lon="6.40446">
        <ele>187</ele>
        <time>2022-04-08T12:53:43Z</time>
      </trkpt>
      <trkpt lat="43.46856" lon="6.40447">
        <ele>187</ele>
        <time>2022-04-08T12:53:44Z</time>
      </trkpt>
      <trkpt lat="43.46856" lon="6.40448">
        <ele>187</ele>
        <time>2022-04-08T12:53:45Z</time>
      </trkpt>
      <trkpt lat="43.46855" lon="6.40449">
        <ele>187</ele>
        <time>2022-04-08T12:53:46Z</time>
      </trkpt>
      <trkpt lat="43.46855" lon="6.4045">
        <ele>187</ele>
        <time>2022-04-08T12:53:47Z</time>
      </trkpt>
      <trkpt lat="43.46855" lon="6.40451">
        <ele>187</ele>
        <time>2022-04-08T12:53:48Z</time>
      </trkpt>
      <trkpt lat="43.46855" lon="6.40452">
        <ele>187</ele>
        <time>2022-04-08T12:53:49Z</time>
      </trkpt>
      <trkpt lat="43.46854" lon="6.40453">
        <ele>187</ele>
        <time>2022-04-08T12:53:50Z</time>
      </trkpt>
      <trkpt lat="43.46854" lon="6.40454">
        <ele>187</ele>
        <time>2022-04-08T12:53:51Z</time>
      </trkpt>
      <trkpt lat="43.46854" lon="6.40455">
        <ele>187</ele>
        <time>2022-04-08T12:53:52Z</time>
      </trkpt>
      <trkpt lat="43.46854" lon="6.40455">
        <ele>187</ele>
        <time>2022-04-08T12:53:53Z</time>
      </trkpt>
      <trkpt lat="43.46854" lon="6.40455">
        <ele>188</ele>
        <time>2022-04-08T12:53:54Z</time>
      </trkpt>
      <trkpt lat="43.46853" lon="6.40455">
        <ele>188</ele>
        <time>2022-04-08T12:53:55Z</time>
      </trkpt>
      <trkpt lat="43.46853" lon="6.40456">
        <ele>188</ele>
        <time>2022-04-08T12:53:56Z</time>
      </trkpt>
      <trkpt lat="43.46854" lon="6.40456">
        <ele>188</ele>
        <time>2022-04-08T12:53:57Z</time>
      </trkpt>
      <trkpt lat="43.46854" lon="6.40457">
        <ele>188</ele>
        <time>2022-04-08T12:53:58Z</time>
      </trkpt>
      <trkpt lat="43.46854" lon="6.40458">
        <ele>188</ele>
        <time>2022-04-08T12:53:59Z</time>
      </trkpt>
      <trkpt lat="43.46854" lon="6.40458">
        <ele>188</ele>
        <time>2022-04-08T12:54:00Z</time>
      </trkpt>
      <trkpt lat="43.46855" lon="6.40458">
        <ele>188</ele>
        <time>2022-04-08T12:54:01Z</time>
      </trkpt>
      <trkpt lat="43.46855" lon="6.40459">
        <ele>188</ele>
        <time>2022-04-08T12:54:02Z</time>
      </trkpt>
      <trkpt lat="43.46855" lon="6.40459">
        <ele>188</ele>
        <time>2022-04-08T12:54:03Z</time>
      </trkpt>
      <trkpt lat="43.46856" lon="6.40459">
        <ele>188</ele>
        <time>2022-04-08T12:54:04Z</time>
      </trkpt>
      <trkpt lat="43.46856" lon="6.4046">
        <ele>188</ele>
        <time>2022-04-08T12:54:05Z</time>
      </trkpt>
      <trkpt lat="43.46856" lon="6.40461">
        <ele>188</ele>
        <time>2022-04-08T12:54:06Z</time>
      </trkpt>
      <trkpt lat="43.46856" lon="6.40462">
        <ele>188</ele>
        <time>2022-04-08T12:54:07Z</time>
      </trkpt>
      <trkpt lat="43.46856" lon="6.40462">
        <ele>188</ele>
        <time>2022-04-08T12:54:08Z</time>
      </trkpt>
      <trkpt lat="43.46857" lon="6.40463">
        <ele>188</ele>
        <time>2022-04-08T12:54:09Z</time>
      </trkpt>
      <trkpt lat="43.46857" lon="6.40464">
        <ele>188</ele>
        <time>2022-04-08T12:54:10Z</time>
      </trkpt>
      <trkpt lat="43.46857" lon="6.40464">
        <ele>188</ele>
        <time>2022-04-08T12:54:11Z</time>
      </trkpt>
      <trkpt lat="43.46857" lon="6.40465">
        <ele>188</ele>
        <time>2022-04-08T12:54:12Z</time>
      </trkpt>
      <trkpt lat="43.46857" lon="6.40466">
        <ele>188</ele>
        <time>2022-04-08T12:54:13Z</time>
      </trkpt>
      <trkpt lat="43.46857" lon="6.40468">
        <ele>188</ele>
        <time>2022-04-08T12:54:14Z</time>
      </trkpt>
      <trkpt lat="43.46857" lon="6.4047">
        <ele>188</ele>
        <time>2022-04-08T12:54:15Z</time>
      </trkpt>
      <trkpt lat="43.46857" lon="6.40471">
        <ele>188</ele>
        <time>2022-04-08T12:54:16Z</time>
      </trkpt>
      <trkpt lat="43.46857" lon="6.40471">
        <ele>189</ele>
        <time>2022-04-08T12:54:17Z</time>
      </trkpt>
      <trkpt lat="43.46857" lon="6.40472">
        <ele>189</ele>
        <time>2022-04-08T12:54:18Z</time>
      </trkpt>
      <trkpt lat="43.46857" lon="6.40473">
        <ele>189</ele>
        <time>2022-04-08T12:54:19Z</time>
      </trkpt>
      <trkpt lat="43.46857" lon="6.40474">
        <ele>189</ele>
        <time>2022-04-08T12:54:20Z</time>
      </trkpt>
      <trkpt lat="43.46857" lon="6.40475">
        <ele>189</ele>
        <time>2022-04-08T12:54:21Z</time>
      </trkpt>
      <trkpt lat="43.46857" lon="6.40476">
        <ele>189</ele>
        <time>2022-04-08T12:54:22Z</time>
      </trkpt>
      <trkpt lat="43.46858" lon="6.40477">
        <ele>189</ele>
        <time>2022-04-08T12:54:23Z</time>
      </trkpt>
      <trkpt lat="43.46858" lon="6.40478">
        <ele>189</ele>
        <time>2022-04-08T12:54:24Z</time>
      </trkpt>
      <trkpt lat="43.46858" lon="6.40479">
        <ele>189</ele>
        <time>2022-04-08T12:54:25Z</time>
      </trkpt>
      <trkpt lat="43.46858" lon="6.4048">
        <ele>189</ele>
        <time>2022-04-08T12:54:26Z</time>
      </trkpt>
      <trkpt lat="43.46858" lon="6.4048">
        <ele>189</ele>
        <time>2022-04-08T12:54:27Z</time>
      </trkpt>
      <trkpt lat="43.46858" lon="6.4048">
        <ele>189</ele>
        <time>2022-04-08T12:54:28Z</time>
      </trkpt>
      <trkpt lat="43.46858" lon="6.4048">
        <ele>189</ele>
        <time>2022-04-08T12:54:29Z</time>
      </trkpt>
      <trkpt lat="43.46858" lon="6.40481">
        <ele>189</ele>
        <time>2022-04-08T12:54:30Z</time>
      </trkpt>
      <trkpt lat="43.46858" lon="6.40481">
        <ele>189</ele>
        <time>2022-04-08T12:54:31Z</time>
      </trkpt>
      <trkpt lat="43.46859" lon="6.40482">
        <ele>189</ele>
        <time>2022-04-08T12:54:32Z</time>
      </trkpt>
      <trkpt lat="43.46859" lon="6.40483">
        <ele>189</ele>
        <time>2022-04-08T12:54:33Z</time>
      </trkpt>
      <trkpt lat="43.46859" lon="6.40484">
        <ele>189</ele>
        <time>2022-04-08T12:54:34Z</time>
      </trkpt>
      <trkpt lat="43.46859" lon="6.40484">
        <ele>189</ele>
        <time>2022-04-08T12:54:35Z</time>
      </trkpt>
      <trkpt lat="43.4686" lon="6.40485">
        <ele>189</ele>
        <time>2022-04-08T12:54:36Z</time>
      </trkpt>
      <trkpt lat="43.4686" lon="6.40486">
        <ele>189</ele>
        <time>2022-04-08T12:54:37Z</time>
      </trkpt>
      <trkpt lat="43.4686" lon="6.40487">
        <ele>189</ele>
        <time>2022-04-08T12:54:38Z</time>
      </trkpt>
      <trkpt lat="43.46861" lon="6.40488">
        <ele>189</ele>
        <time>2022-04-08T12:54:39Z</time>
      </trkpt>
      <trkpt lat="43.46861" lon="6.40488">
        <ele>189</ele>
        <time>2022-04-08T12:54:40Z</time>
      </trkpt>
      <trkpt lat="43.46862" lon="6.40489">
        <ele>189</ele>
        <time>2022-04-08T12:54:41Z</time>
      </trkpt>
      <trkpt lat="43.46862" lon="6.4049">
        <ele>189</ele>
        <time>2022-04-08T12:54:42Z</time>
      </trkpt>
      <trkpt lat="43.46863" lon="6.40491">
        <ele>190</ele>
        <time>2022-04-08T12:54:43Z</time>
      </trkpt>
      <trkpt lat="43.46864" lon="6.40492">
        <ele>190</ele>
        <time>2022-04-08T12:54:44Z</time>
      </trkpt>
      <trkpt lat="43.46865" lon="6.40493">
        <ele>190</ele>
        <time>2022-04-08T12:54:45Z</time>
      </trkpt>
      <trkpt lat="43.46865" lon="6.40494">
        <ele>190</ele>
        <time>2022-04-08T12:54:46Z</time>
      </trkpt>
      <trkpt lat="43.46866" lon="6.40495">
        <ele>190</ele>
        <time>2022-04-08T12:54:47Z</time>
      </trkpt>
      <trkpt lat="43.46867" lon="6.40496">
        <ele>190</ele>
        <time>2022-04-08T12:54:48Z</time>
      </trkpt>
      <trkpt lat="43.46867" lon="6.40497">
        <ele>190</ele>
        <time>2022-04-08T12:54:49Z</time>
      </trkpt>
      <trkpt lat="43.46867" lon="6.40498">
        <ele>190</ele>
        <time>2022-04-08T12:54:50Z</time>
      </trkpt>
      <trkpt lat="43.46868" lon="6.40498">
        <ele>191</ele>
        <time>2022-04-08T12:54:51Z</time>
      </trkpt>
      <trkpt lat="43.46868" lon="6.40499">
        <ele>192</ele>
        <time>2022-04-08T12:54:52Z</time>
      </trkpt>
      <trkpt lat="43.46868" lon="6.405">
        <ele>193</ele>
        <time>2022-04-08T12:54:53Z</time>
      </trkpt>
      <trkpt lat="43.46868" lon="6.405">
        <ele>193</ele>
        <time>2022-04-08T12:54:54Z</time>
      </trkpt>
      <trkpt lat="43.46868" lon="6.405">
        <ele>193</ele>
        <time>2022-04-08T12:54:55Z</time>
      </trkpt>
      <trkpt lat="43.46868" lon="6.40501">
        <ele>193</ele>
        <time>2022-04-08T12:54:56Z</time>
      </trkpt>
      <trkpt lat="43.46868" lon="6.40501">
        <ele>193</ele>
        <time>2022-04-08T12:54:57Z</time>
      </trkpt>
      <trkpt lat="43.46868" lon="6.40501">
        <ele>194</ele>
        <time>2022-04-08T12:54:58Z</time>
      </trkpt>
      <trkpt lat="43.46869" lon="6.40502">
        <ele>194</ele>
        <time>2022-04-08T12:54:59Z</time>
      </trkpt>
      <trkpt lat="43.46869" lon="6.40503">
        <ele>194</ele>
        <time>2022-04-08T12:55:00Z</time>
      </trkpt>
      <trkpt lat="43.46869" lon="6.40503">
        <ele>194</ele>
        <time>2022-04-08T12:55:01Z</time>
      </trkpt>
      <trkpt lat="43.4687" lon="6.40504">
        <ele>194</ele>
        <time>2022-04-08T12:55:02Z</time>
      </trkpt>
      <trkpt lat="43.46871" lon="6.40505">
        <ele>194</ele>
        <time>2022-04-08T12:55:03Z</time>
      </trkpt>
      <trkpt lat="43.46872" lon="6.40505">
        <ele>195</ele>
        <time>2022-04-08T12:55:04Z</time>
      </trkpt>
      <trkpt lat="43.46873" lon="6.40506">
        <ele>195</ele>
        <time>2022-04-08T12:55:05Z</time>
      </trkpt>
      <trkpt lat="43.46873" lon="6.40506">
        <ele>195</ele>
        <time>2022-04-08T12:55:06Z</time>
      </trkpt>
      <trkpt lat="43.46873" lon="6.40507">
        <ele>195</ele>
        <time>2022-04-08T12:55:07Z</time>
      </trkpt>
      <trkpt lat="43.46874" lon="6.40508">
        <ele>195</ele>
        <time>2022-04-08T12:55:08Z</time>
      </trkpt>
      <trkpt lat="43.46875" lon="6.40508">
        <ele>196</ele>
        <time>2022-04-08T12:55:09Z</time>
      </trkpt>
      <trkpt lat="43.46876" lon="6.40509">
        <ele>196</ele>
        <time>2022-04-08T12:55:10Z</time>
      </trkpt>
      <trkpt lat="43.46877" lon="6.4051">
        <ele>196</ele>
        <time>2022-04-08T12:55:11Z</time>
      </trkpt>
      <trkpt lat="43.46879" lon="6.40512">
        <ele>196</ele>
        <time>2022-04-08T12:55:12Z</time>
      </trkpt>
      <trkpt lat="43.46881" lon="6.40514">
        <ele>196</ele>
        <time>2022-04-08T12:55:13Z</time>
      </trkpt>
      <trkpt lat="43.46882" lon="6.40515">
        <ele>196</ele>
        <time>2022-04-08T12:55:14Z</time>
      </trkpt>
      <trkpt lat="43.46882" lon="6.40516">
        <ele>198</ele>
        <time>2022-04-08T12:55:15Z</time>
      </trkpt>
      <trkpt lat="43.46883" lon="6.40517">
        <ele>199</ele>
        <time>2022-04-08T12:55:16Z</time>
      </trkpt>
      <trkpt lat="43.46883" lon="6.40518">
        <ele>199</ele>
        <time>2022-04-08T12:55:17Z</time>
      </trkpt>
      <trkpt lat="43.46883" lon="6.40519">
        <ele>199</ele>
        <time>2022-04-08T12:55:18Z</time>
      </trkpt>
      <trkpt lat="43.46883" lon="6.4052">
        <ele>199</ele>
        <time>2022-04-08T12:55:19Z</time>
      </trkpt>
      <trkpt lat="43.46884" lon="6.40521">
        <ele>199</ele>
        <time>2022-04-08T12:55:20Z</time>
      </trkpt>
      <trkpt lat="43.46884" lon="6.40522">
        <ele>200</ele>
        <time>2022-04-08T12:55:21Z</time>
      </trkpt>
      <trkpt lat="43.46884" lon="6.40523">
        <ele>200</ele>
        <time>2022-04-08T12:55:22Z</time>
      </trkpt>
      <trkpt lat="43.46885" lon="6.40524">
        <ele>200</ele>
        <time>2022-04-08T12:55:23Z</time>
      </trkpt>
      <trkpt lat="43.46885" lon="6.40525">
        <ele>200</ele>
        <time>2022-04-08T12:55:24Z</time>
      </trkpt>
      <trkpt lat="43.46885" lon="6.40526">
        <ele>200</ele>
        <time>2022-04-08T12:55:25Z</time>
      </trkpt>
      <trkpt lat="43.46886" lon="6.40527">
        <ele>200</ele>
        <time>2022-04-08T12:55:26Z</time>
      </trkpt>
      <trkpt lat="43.46886" lon="6.40528">
        <ele>201</ele>
        <time>2022-04-08T12:55:27Z</time>
      </trkpt>
      <trkpt lat="43.46886" lon="6.40528">
        <ele>202</ele>
        <time>2022-04-08T12:55:28Z</time>
      </trkpt>
      <trkpt lat="43.46887" lon="6.40529">
        <ele>203</ele>
        <time>2022-04-08T12:55:29Z</time>
      </trkpt>
      <trkpt lat="43.46887" lon="6.40529">
        <ele>203</ele>
        <time>2022-04-08T12:55:30Z</time>
      </trkpt>
      <trkpt lat="43.46887" lon="6.4053">
        <ele>204</ele>
        <time>2022-04-08T12:55:31Z</time>
      </trkpt>
      <trkpt lat="43.46888" lon="6.40531">
        <ele>204</ele>
        <time>2022-04-08T12:55:32Z</time>
      </trkpt>
      <trkpt lat="43.46889" lon="6.40532">
        <ele>204</ele>
        <time>2022-04-08T12:55:33Z</time>
      </trkpt>
      <trkpt lat="43.4689" lon="6.40533">
        <ele>204</ele>
        <time>2022-04-08T12:55:34Z</time>
      </trkpt>
      <trkpt lat="43.4689" lon="6.40534">
        <ele>204</ele>
        <time>2022-04-08T12:55:35Z</time>
      </trkpt>
      <trkpt lat="43.46891" lon="6.40534">
        <ele>204</ele>
        <time>2022-04-08T12:55:36Z</time>
      </trkpt>
      <trkpt lat="43.46891" lon="6.40535">
        <ele>204</ele>
        <time>2022-04-08T12:55:37Z</time>
      </trkpt>
      <trkpt lat="43.46892" lon="6.40536">
        <ele>204</ele>
        <time>2022-04-08T12:55:38Z</time>
      </trkpt>
      <trkpt lat="43.46893" lon="6.40537">
        <ele>205</ele>
        <time>2022-04-08T12:55:39Z</time>
      </trkpt>
      <trkpt lat="43.46893" lon="6.40538">
        <ele>205</ele>
        <time>2022-04-08T12:55:40Z</time>
      </trkpt>
      <trkpt lat="43.46894" lon="6.40539">
        <ele>205</ele>
        <time>2022-04-08T12:55:41Z</time>
      </trkpt>
      <trkpt lat="43.46894" lon="6.4054">
        <ele>205</ele>
        <time>2022-04-08T12:55:42Z</time>
      </trkpt>
      <trkpt lat="43.46895" lon="6.40541">
        <ele>205</ele>
        <time>2022-04-08T12:55:43Z</time>
      </trkpt>
      <trkpt lat="43.46896" lon="6.40542">
        <ele>205</ele>
        <time>2022-04-08T12:55:44Z</time>
      </trkpt>
      <trkpt lat="43.46896" lon="6.40543">
        <ele>205</ele>
        <time>2022-04-08T12:55:45Z</time>
      </trkpt>
      <trkpt lat="43.46897" lon="6.40544">
        <ele>205</ele>
        <time>2022-04-08T12:55:46Z</time>
      </trkpt>
      <trkpt lat="43.46898" lon="6.40545">
        <ele>205</ele>
        <time>2022-04-08T12:55:47Z</time>
      </trkpt>
      <trkpt lat="43.46899" lon="6.40546">
        <ele>206</ele>
        <time>2022-04-08T12:55:48Z</time>
      </trkpt>
      <trkpt lat="43.469" lon="6.40547">
        <ele>206</ele>
        <time>2022-04-08T12:55:49Z</time>
      </trkpt>
      <trkpt lat="43.46902" lon="6.40548">
        <ele>207</ele>
        <time>2022-04-08T12:55:50Z</time>
      </trkpt>
      <trkpt lat="43.46903" lon="6.40549">
        <ele>207</ele>
        <time>2022-04-08T12:55:51Z</time>
      </trkpt>
      <trkpt lat="43.46904" lon="6.4055">
        <ele>207</ele>
        <time>2022-04-08T12:55:52Z</time>
      </trkpt>
      <trkpt lat="43.46905" lon="6.4055">
        <ele>207</ele>
        <time>2022-04-08T12:55:53Z</time>
      </trkpt>
      <trkpt lat="43.46905" lon="6.40551">
        <ele>207</ele>
        <time>2022-04-08T12:55:54Z</time>
      </trkpt>
      <trkpt lat="43.46905" lon="6.40552">
        <ele>207</ele>
        <time>2022-04-08T12:55:55Z</time>
      </trkpt>
      <trkpt lat="43.46906" lon="6.40552">
        <ele>207</ele>
        <time>2022-04-08T12:55:56Z</time>
      </trkpt>
      <trkpt lat="43.46906" lon="6.40553">
        <ele>207</ele>
        <time>2022-04-08T12:55:57Z</time>
      </trkpt>
      <trkpt lat="43.46907" lon="6.40554">
        <ele>207</ele>
        <time>2022-04-08T12:55:58Z</time>
      </trkpt>
      <trkpt lat="43.46909" lon="6.40556">
        <ele>207</ele>
        <time>2022-04-08T12:55:59Z</time>
      </trkpt>
      <trkpt lat="43.4691" lon="6.40558">
        <ele>207</ele>
        <time>2022-04-08T12:56:00Z</time>
      </trkpt>
      <trkpt lat="43.46912" lon="6.40559">
        <ele>207</ele>
        <time>2022-04-08T12:56:01Z</time>
      </trkpt>
      <trkpt lat="43.46913" lon="6.4056">
        <ele>206</ele>
        <time>2022-04-08T12:56:02Z</time>
      </trkpt>
      <trkpt lat="43.46914" lon="6.40561">
        <ele>206</ele>
        <time>2022-04-08T12:56:03Z</time>
      </trkpt>
      <trkpt lat="43.46916" lon="6.40563">
        <ele>206</ele>
        <time>2022-04-08T12:56:04Z</time>
      </trkpt>
      <trkpt lat="43.46917" lon="6.40564">
        <ele>206</ele>
        <time>2022-04-08T12:56:05Z</time>
      </trkpt>
      <trkpt lat="43.46918" lon="6.40566">
        <ele>206</ele>
        <time>2022-04-08T12:56:06Z</time>
      </trkpt>
      <trkpt lat="43.4692" lon="6.40567">
        <ele>206</ele>
        <time>2022-04-08T12:56:07Z</time>
      </trkpt>
      <trkpt lat="43.46921" lon="6.40568">
        <ele>206</ele>
        <time>2022-04-08T12:56:08Z</time>
      </trkpt>
      <trkpt lat="43.46922" lon="6.40569">
        <ele>206</ele>
        <time>2022-04-08T12:56:09Z</time>
      </trkpt>
      <trkpt lat="43.46923" lon="6.40571">
        <ele>206</ele>
        <time>2022-04-08T12:56:10Z</time>
      </trkpt>
      <trkpt lat="43.46923" lon="6.40572">
        <ele>206</ele>
        <time>2022-04-08T12:56:11Z</time>
      </trkpt>
      <trkpt lat="43.46924" lon="6.40573">
        <ele>206</ele>
        <time>2022-04-08T12:56:12Z</time>
      </trkpt>
      <trkpt lat="43.46925" lon="6.40574">
        <ele>205</ele>
        <time>2022-04-08T12:56:13Z</time>
      </trkpt>
      <trkpt lat="43.46925" lon="6.40576">
        <ele>205</ele>
        <time>2022-04-08T12:56:14Z</time>
      </trkpt>
      <trkpt lat="43.46926" lon="6.40577">
        <ele>205</ele>
        <time>2022-04-08T12:56:15Z</time>
      </trkpt>
      <trkpt lat="43.46927" lon="6.40578">
        <ele>206</ele>
        <time>2022-04-08T12:56:16Z</time>
      </trkpt>
      <trkpt lat="43.46927" lon="6.40579">
        <ele>206</ele>
        <time>2022-04-08T12:56:17Z</time>
      </trkpt>
      <trkpt lat="43.46928" lon="6.4058">
        <ele>206</ele>
        <time>2022-04-08T12:56:18Z</time>
      </trkpt>
      <trkpt lat="43.46928" lon="6.40581">
        <ele>206</ele>
        <time>2022-04-08T12:56:19Z</time>
      </trkpt>
      <trkpt lat="43.46929" lon="6.40581">
        <ele>206</ele>
        <time>2022-04-08T12:56:20Z</time>
      </trkpt>
      <trkpt lat="43.46929" lon="6.40582">
        <ele>206</ele>
        <time>2022-04-08T12:56:21Z</time>
      </trkpt>
      <trkpt lat="43.4693" lon="6.40583">
        <ele>206</ele>
        <time>2022-04-08T12:56:22Z</time>
      </trkpt>
      <trkpt lat="43.46931" lon="6.40584">
        <ele>206</ele>
        <time>2022-04-08T12:56:23Z</time>
      </trkpt>
      <trkpt lat="43.46931" lon="6.40585">
        <ele>206</ele>
        <time>2022-04-08T12:56:24Z</time>
      </trkpt>
      <trkpt lat="43.46932" lon="6.40587">
        <ele>206</ele>
        <time>2022-04-08T12:56:25Z</time>
      </trkpt>
      <trkpt lat="43.46933" lon="6.40587">
        <ele>206</ele>
        <time>2022-04-08T12:56:26Z</time>
      </trkpt>
      <trkpt lat="43.46933" lon="6.40589">
        <ele>206</ele>
        <time>2022-04-08T12:56:27Z</time>
      </trkpt>
      <trkpt lat="43.46934" lon="6.4059">
        <ele>206</ele>
        <time>2022-04-08T12:56:28Z</time>
      </trkpt>
      <trkpt lat="43.46935" lon="6.40591">
        <ele>206</ele>
        <time>2022-04-08T12:56:29Z</time>
      </trkpt>
      <trkpt lat="43.46935" lon="6.40592">
        <ele>206</ele>
        <time>2022-04-08T12:56:30Z</time>
      </trkpt>
      <trkpt lat="43.46936" lon="6.40593">
        <ele>206</ele>
        <time>2022-04-08T12:56:31Z</time>
      </trkpt>
      <trkpt lat="43.46937" lon="6.40595">
        <ele>205</ele>
        <time>2022-04-08T12:56:32Z</time>
      </trkpt>
      <trkpt lat="43.46937" lon="6.40596">
        <ele>205</ele>
        <time>2022-04-08T12:56:33Z</time>
      </trkpt>
      <trkpt lat="43.46937" lon="6.40597">
        <ele>205</ele>
        <time>2022-04-08T12:56:34Z</time>
      </trkpt>
      <trkpt lat="43.46937" lon="6.40598">
        <ele>205</ele>
        <time>2022-04-08T12:56:35Z</time>
      </trkpt>
      <trkpt lat="43.46937" lon="6.406">
        <ele>205</ele>
        <time>2022-04-08T12:56:36Z</time>
      </trkpt>
      <trkpt lat="43.46937" lon="6.40601">
        <ele>204</ele>
        <time>2022-04-08T12:56:37Z</time>
      </trkpt>
      <trkpt lat="43.46937" lon="6.40603">
        <ele>204</ele>
        <time>2022-04-08T12:56:38Z</time>
      </trkpt>
      <trkpt lat="43.46937" lon="6.40604">
        <ele>204</ele>
        <time>2022-04-08T12:56:39Z</time>
      </trkpt>
      <trkpt lat="43.46937" lon="6.40605">
        <ele>204</ele>
        <time>2022-04-08T12:56:40Z</time>
      </trkpt>
      <trkpt lat="43.46936" lon="6.40606">
        <ele>204</ele>
        <time>2022-04-08T12:56:41Z</time>
      </trkpt>
      <trkpt lat="43.46936" lon="6.40607">
        <ele>204</ele>
        <time>2022-04-08T12:56:42Z</time>
      </trkpt>
      <trkpt lat="43.46935" lon="6.40608">
        <ele>203</ele>
        <time>2022-04-08T12:56:43Z</time>
      </trkpt>
      <trkpt lat="43.46935" lon="6.40609">
        <ele>203</ele>
        <time>2022-04-08T12:56:44Z</time>
      </trkpt>
      <trkpt lat="43.46935" lon="6.4061">
        <ele>203</ele>
        <time>2022-04-08T12:56:45Z</time>
      </trkpt>
      <trkpt lat="43.46934" lon="6.40611">
        <ele>203</ele>
        <time>2022-04-08T12:56:46Z</time>
      </trkpt>
      <trkpt lat="43.46934" lon="6.40612">
        <ele>203</ele>
        <time>2022-04-08T12:56:47Z</time>
      </trkpt>
      <trkpt lat="43.46934" lon="6.40613">
        <ele>203</ele>
        <time>2022-04-08T12:56:48Z</time>
      </trkpt>
      <trkpt lat="43.46935" lon="6.40615">
        <ele>203</ele>
        <time>2022-04-08T12:56:49Z</time>
      </trkpt>
      <trkpt lat="43.46935" lon="6.40616">
        <ele>203</ele>
        <time>2022-04-08T12:56:50Z</time>
      </trkpt>
      <trkpt lat="43.46934" lon="6.40618">
        <ele>203</ele>
        <time>2022-04-08T12:56:51Z</time>
      </trkpt>
      <trkpt lat="43.46934" lon="6.4062">
        <ele>203</ele>
        <time>2022-04-08T12:56:52Z</time>
      </trkpt>
      <trkpt lat="43.46934" lon="6.40621">
        <ele>203</ele>
        <time>2022-04-08T12:56:53Z</time>
      </trkpt>
      <trkpt lat="43.46934" lon="6.40621">
        <ele>203</ele>
        <time>2022-04-08T12:56:54Z</time>
      </trkpt>
      <trkpt lat="43.46934" lon="6.40622">
        <ele>203</ele>
        <time>2022-04-08T12:56:55Z</time>
      </trkpt>
      <trkpt lat="43.46934" lon="6.40623">
        <ele>203</ele>
        <time>2022-04-08T12:56:56Z</time>
      </trkpt>
      <trkpt lat="43.46935" lon="6.40623">
        <ele>203</ele>
        <time>2022-04-08T12:56:57Z</time>
      </trkpt>
      <trkpt lat="43.46935" lon="6.40624">
        <ele>203</ele>
        <time>2022-04-08T12:56:58Z</time>
      </trkpt>
      <trkpt lat="43.46935" lon="6.40624">
        <ele>203</ele>
        <time>2022-04-08T12:56:59Z</time>
      </trkpt>
      <trkpt lat="43.46935" lon="6.40624">
        <ele>203</ele>
        <time>2022-04-08T12:57:00Z</time>
      </trkpt>
      <trkpt lat="43.46935" lon="6.40624">
        <ele>203</ele>
        <time>2022-04-08T12:57:01Z</time>
      </trkpt>
      <trkpt lat="43.46935" lon="6.40624">
        <ele>203</ele>
        <time>2022-04-08T12:57:02Z</time>
      </trkpt>
      <trkpt lat="43.46935" lon="6.40624">
        <ele>203</ele>
        <time>2022-04-08T12:57:03Z</time>
      </trkpt>
      <trkpt lat="43.46935" lon="6.40624">
        <ele>203</ele>
        <time>2022-04-08T12:57:04Z</time>
      </trkpt>
      <trkpt lat="43.46935" lon="6.40624">
        <ele>203</ele>
        <time>2022-04-08T12:57:05Z</time>
      </trkpt>
      <trkpt lat="43.46935" lon="6.40624">
        <ele>203</ele>
        <time>2022-04-08T12:57:06Z</time>
      </trkpt>
      <trkpt lat="43.46935" lon="6.40624">
        <ele>203</ele>
        <time>2022-04-08T12:57:07Z</time>
      </trkpt>
      <trkpt lat="43.46935" lon="6.40624">
        <ele>203</ele>
        <time>2022-04-08T12:57:08Z</time>
      </trkpt>
      <trkpt lat="43.46935" lon="6.40624">
        <ele>203</ele>
        <time>2022-04-08T12:57:09Z</time>
      </trkpt>
      <trkpt lat="43.46935" lon="6.40624">
        <ele>203</ele>
        <time>2022-04-08T12:57:10Z</time>
      </trkpt>
      <trkpt lat="43.46935" lon="6.40624">
        <ele>203</ele>
        <time>2022-04-08T12:57:11Z</time>
      </trkpt>
      <trkpt lat="43.46935" lon="6.40624">
        <ele>203</ele>
        <time>2022-04-08T12:57:12Z</time>
      </trkpt>
      <trkpt lat="43.46935" lon="6.40624">
        <ele>203</ele>
        <time>2022-04-08T12:57:13Z</time>
      </trkpt>
      <trkpt lat="43.46935" lon="6.40624">
        <ele>203</ele>
        <time>2022-04-08T12:57:14Z</time>
      </trkpt>
      <trkpt lat="43.46935" lon="6.40624">
        <ele>203</ele>
        <time>2022-04-08T12:57:15Z</time>
      </trkpt>
      <trkpt lat="43.46935" lon="6.40624">
        <ele>203</ele>
        <time>2022-04-08T12:57:16Z</time>
      </trkpt>
      <trkpt lat="43.46935" lon="6.40624">
        <ele>203</ele>
        <time>2022-04-08T12:57:17Z</time>
      </trkpt>
      <trkpt lat="43.46935" lon="6.40624">
        <ele>203</ele>
        <time>2022-04-08T12:57:18Z</time>
      </trkpt>
      <trkpt lat="43.46935" lon="6.40624">
        <ele>203</ele>
        <time>2022-04-08T12:57:19Z</time>
      </trkpt>
      <trkpt lat="43.46935" lon="6.40624">
        <ele>203</ele>
        <time>2022-04-08T12:57:20Z</time>
      </trkpt>
      <trkpt lat="43.46935" lon="6.40624">
        <ele>203</ele>
        <time>2022-04-08T12:57:21Z</time>
      </trkpt>
      <trkpt lat="43.46935" lon="6.40624">
        <ele>203</ele>
        <time>2022-04-08T12:57:22Z</time>
      </trkpt>
      <trkpt lat="43.46935" lon="6.40624">
        <ele>203</ele>
        <time>2022-04-08T12:57:23Z</time>
      </trkpt>
      <trkpt lat="43.46935" lon="6.40624">
        <ele>203</ele>
        <time>2022-04-08T12:57:24Z</time>
      </trkpt>
      <trkpt lat="43.46935" lon="6.40624">
        <ele>203</ele>
        <time>2022-04-08T12:57:25Z</time>
      </trkpt>
      <trkpt lat="43.46935" lon="6.40624">
        <ele>203</ele>
        <time>2022-04-08T12:57:26Z</time>
      </trkpt>
      <trkpt lat="43.46935" lon="6.40624">
        <ele>203</ele>
        <time>2022-04-08T12:57:27Z</time>
      </trkpt>
      <trkpt lat="43.46935" lon="6.40624">
        <ele>203</ele>
        <time>2022-04-08T12:57:28Z</time>
      </trkpt>
      <trkpt lat="43.46935" lon="6.40624">
        <ele>203</ele>
        <time>2022-04-08T12:57:29Z</time>
      </trkpt>
      <trkpt lat="43.46935" lon="6.40624">
        <ele>203</ele>
        <time>2022-04-08T12:57:30Z</time>
      </trkpt>
      <trkpt lat="43.46935" lon="6.40624">
        <ele>203</ele>
        <time>2022-04-08T12:57:31Z</time>
      </trkpt>
      <trkpt lat="43.46935" lon="6.40624">
        <ele>203</ele>
        <time>2022-04-08T12:57:32Z</time>
      </trkpt>
      <trkpt lat="43.46935" lon="6.40624">
        <ele>203</ele>
        <time>2022-04-08T12:57:33Z</time>
      </trkpt>
      <trkpt lat="43.46935" lon="6.40624">
        <ele>203</ele>
        <time>2022-04-08T12:57:34Z</time>
      </trkpt>
      <trkpt lat="43.46935" lon="6.40624">
        <ele>203</ele>
        <time>2022-04-08T12:57:35Z</time>
      </trkpt>
      <trkpt lat="43.46935" lon="6.40624">
        <ele>203</ele>
        <time>2022-04-08T12:57:36Z</time>
      </trkpt>
      <trkpt lat="43.46935" lon="6.40624">
        <ele>203</ele>
        <time>2022-04-08T12:57:37Z</time>
      </trkpt>
      <trkpt lat="43.46935" lon="6.40624">
        <ele>203</ele>
        <time>2022-04-08T12:57:38Z</time>
      </trkpt>
      <trkpt lat="43.46935" lon="6.40624">
        <ele>203</ele>
        <time>2022-04-08T12:57:39Z</time>
      </trkpt>
      <trkpt lat="43.46935" lon="6.40624">
        <ele>203</ele>
        <time>2022-04-08T12:57:40Z</time>
      </trkpt>
      <trkpt lat="43.46935" lon="6.40624">
        <ele>203</ele>
        <time>2022-04-08T12:57:41Z</time>
      </trkpt>
      <trkpt lat="43.46935" lon="6.40624">
        <ele>203</ele>
        <time>2022-04-08T12:57:42Z</time>
      </trkpt>
      <trkpt lat="43.46935" lon="6.40624">
        <ele>203</ele>
        <time>2022-04-08T12:57:43Z</time>
      </trkpt>
      <trkpt lat="43.46935" lon="6.40624">
        <ele>203</ele>
        <time>2022-04-08T12:57:44Z</time>
      </trkpt>
      <trkpt lat="43.46935" lon="6.40624">
        <ele>203</ele>
        <time>2022-04-08T12:57:45Z</time>
      </trkpt>
      <trkpt lat="43.46935" lon="6.40624">
        <ele>203</ele>
        <time>2022-04-08T12:57:46Z</time>
      </trkpt>
      <trkpt lat="43.46935" lon="6.40624">
        <ele>203</ele>
        <time>2022-04-08T12:57:47Z</time>
      </trkpt>
      <trkpt lat="43.46935" lon="6.40624">
        <ele>203</ele>
        <time>2022-04-08T12:57:48Z</time>
      </trkpt>
      <trkpt lat="43.46935" lon="6.40624">
        <ele>203</ele>
        <time>2022-04-08T12:57:49Z</time>
      </trkpt>
      <trkpt lat="43.46935" lon="6.40624">
        <ele>203</ele>
        <time>2022-04-08T12:57:50Z</time>
      </trkpt>
      <trkpt lat="43.46935" lon="6.40624">
        <ele>203</ele>
        <time>2022-04-08T12:57:51Z</time>
      </trkpt>
      <trkpt lat="43.46935" lon="6.40624">
        <ele>203</ele>
        <time>2022-04-08T12:57:52Z</time>
      </trkpt>
      <trkpt lat="43.46935" lon="6.40624">
        <ele>203</ele>
        <time>2022-04-08T12:57:53Z</time>
      </trkpt>
      <trkpt lat="43.46935" lon="6.40624">
        <ele>203</ele>
        <time>2022-04-08T12:57:54Z</time>
      </trkpt>
      <trkpt lat="43.46935" lon="6.40624">
        <ele>203</ele>
        <time>2022-04-08T12:57:55Z</time>
      </trkpt>
      <trkpt lat="43.46935" lon="6.40624">
        <ele>203</ele>
        <time>2022-04-08T12:57:56Z</time>
      </trkpt>
      <trkpt lat="43.46935" lon="6.40623">
        <ele>203</ele>
        <time>2022-04-08T12:57:57Z</time>
      </trkpt>
      <trkpt lat="43.46935" lon="6.40624">
        <ele>203</ele>
        <time>2022-04-08T12:57:58Z</time>
      </trkpt>
      <trkpt lat="43.46935" lon="6.40624">
        <ele>203</ele>
        <time>2022-04-08T12:57:59Z</time>
      </trkpt>
      <trkpt lat="43.46935" lon="6.40625">
        <ele>203</ele>
        <time>2022-04-08T12:58:00Z</time>
      </trkpt>
      <trkpt lat="43.46934" lon="6.40625">
        <ele>203</ele>
        <time>2022-04-08T12:58:01Z</time>
      </trkpt>
      <trkpt lat="43.46934" lon="6.40625">
        <ele>203</ele>
        <time>2022-04-08T12:58:02Z</time>
      </trkpt>
      <trkpt lat="43.46933" lon="6.40626">
        <ele>203</ele>
        <time>2022-04-08T12:58:03Z</time>
      </trkpt>
      <trkpt lat="43.46933" lon="6.40626">
        <ele>203</ele>
        <time>2022-04-08T12:58:04Z</time>
      </trkpt>
      <trkpt lat="43.46932" lon="6.40626">
        <ele>203</ele>
        <time>2022-04-08T12:58:05Z</time>
      </trkpt>
      <trkpt lat="43.46931" lon="6.40626">
        <ele>203</ele>
        <time>2022-04-08T12:58:06Z</time>
      </trkpt>
      <trkpt lat="43.46931" lon="6.40625">
        <ele>203</ele>
        <time>2022-04-08T12:58:07Z</time>
      </trkpt>
      <trkpt lat="43.4693" lon="6.40625">
        <ele>203</ele>
        <time>2022-04-08T12:58:08Z</time>
      </trkpt>
      <trkpt lat="43.46929" lon="6.40625">
        <ele>203</ele>
        <time>2022-04-08T12:58:09Z</time>
      </trkpt>
      <trkpt lat="43.46929" lon="6.40625">
        <ele>203</ele>
        <time>2022-04-08T12:58:10Z</time>
      </trkpt>
      <trkpt lat="43.46928" lon="6.40625">
        <ele>203</ele>
        <time>2022-04-08T12:58:11Z</time>
      </trkpt>
      <trkpt lat="43.46928" lon="6.40625">
        <ele>203</ele>
        <time>2022-04-08T12:58:12Z</time>
      </trkpt>
      <trkpt lat="43.46928" lon="6.40624">
        <ele>203</ele>
        <time>2022-04-08T12:58:13Z</time>
      </trkpt>
      <trkpt lat="43.46928" lon="6.40624">
        <ele>203</ele>
        <time>2022-04-08T12:58:14Z</time>
      </trkpt>
      <trkpt lat="43.46928" lon="6.40623">
        <ele>203</ele>
        <time>2022-04-08T12:58:15Z</time>
      </trkpt>
      <trkpt lat="43.46928" lon="6.40623">
        <ele>203</ele>
        <time>2022-04-08T12:58:16Z</time>
      </trkpt>
      <trkpt lat="43.46929" lon="6.40623">
        <ele>203</ele>
        <time>2022-04-08T12:58:17Z</time>
      </trkpt>
      <trkpt lat="43.46929" lon="6.40623">
        <ele>203</ele>
        <time>2022-04-08T12:58:18Z</time>
      </trkpt>
      <trkpt lat="43.46929" lon="6.40623">
        <ele>203</ele>
        <time>2022-04-08T12:58:19Z</time>
      </trkpt>
      <trkpt lat="43.46929" lon="6.40623">
        <ele>204</ele>
        <time>2022-04-08T12:58:20Z</time>
      </trkpt>
      <trkpt lat="43.46929" lon="6.40623">
        <ele>204</ele>
        <time>2022-04-08T12:58:21Z</time>
      </trkpt>
      <trkpt lat="43.46929" lon="6.40623">
        <ele>204</ele>
        <time>2022-04-08T12:58:22Z</time>
      </trkpt>
      <trkpt lat="43.46929" lon="6.40623">
        <ele>204</ele>
        <time>2022-04-08T12:58:23Z</time>
      </trkpt>
      <trkpt lat="43.46929" lon="6.40623">
        <ele>204</ele>
        <time>2022-04-08T12:58:24Z</time>
      </trkpt>
      <trkpt lat="43.46928" lon="6.40623">
        <ele>204</ele>
        <time>2022-04-08T12:58:25Z</time>
      </trkpt>
      <trkpt lat="43.46928" lon="6.40623">
        <ele>204</ele>
        <time>2022-04-08T12:58:26Z</time>
      </trkpt>
      <trkpt lat="43.46926" lon="6.40623">
        <ele>204</ele>
        <time>2022-04-08T12:58:27Z</time>
      </trkpt>
      <trkpt lat="43.46925" lon="6.40623">
        <ele>204</ele>
        <time>2022-04-08T12:58:28Z</time>
      </trkpt>
      <trkpt lat="43.46924" lon="6.40623">
        <ele>204</ele>
        <time>2022-04-08T12:58:29Z</time>
      </trkpt>
      <trkpt lat="43.46923" lon="6.40623">
        <ele>204</ele>
        <time>2022-04-08T12:58:30Z</time>
      </trkpt>
      <trkpt lat="43.46922" lon="6.40623">
        <ele>204</ele>
        <time>2022-04-08T12:58:31Z</time>
      </trkpt>
      <trkpt lat="43.46921" lon="6.40623">
        <ele>204</ele>
        <time>2022-04-08T12:58:32Z</time>
      </trkpt>
      <trkpt lat="43.4692" lon="6.40624">
        <ele>204</ele>
        <time>2022-04-08T12:58:33Z</time>
      </trkpt>
      <trkpt lat="43.46918" lon="6.40624">
        <ele>204</ele>
        <time>2022-04-08T12:58:34Z</time>
      </trkpt>
      <trkpt lat="43.46917" lon="6.40624">
        <ele>204</ele>
        <time>2022-04-08T12:58:35Z</time>
      </trkpt>
      <trkpt lat="43.46916" lon="6.40624">
        <ele>204</ele>
        <time>2022-04-08T12:58:36Z</time>
      </trkpt>
      <trkpt lat="43.46915" lon="6.40624">
        <ele>203</ele>
        <time>2022-04-08T12:58:37Z</time>
      </trkpt>
      <trkpt lat="43.46914" lon="6.40624">
        <ele>203</ele>
        <time>2022-04-08T12:58:38Z</time>
      </trkpt>
      <trkpt lat="43.46913" lon="6.40625">
        <ele>203</ele>
        <time>2022-04-08T12:58:39Z</time>
      </trkpt>
      <trkpt lat="43.46911" lon="6.40625">
        <ele>203</ele>
        <time>2022-04-08T12:58:40Z</time>
      </trkpt>
      <trkpt lat="43.4691" lon="6.40625">
        <ele>203</ele>
        <time>2022-04-08T12:58:41Z</time>
      </trkpt>
      <trkpt lat="43.46909" lon="6.40625">
        <ele>203</ele>
        <time>2022-04-08T12:58:42Z</time>
      </trkpt>
      <trkpt lat="43.46908" lon="6.40625">
        <ele>203</ele>
        <time>2022-04-08T12:58:43Z</time>
      </trkpt>
      <trkpt lat="43.46907" lon="6.40625">
        <ele>203</ele>
        <time>2022-04-08T12:58:44Z</time>
      </trkpt>
      <trkpt lat="43.46906" lon="6.40625">
        <ele>203</ele>
        <time>2022-04-08T12:58:45Z</time>
      </trkpt>
      <trkpt lat="43.46905" lon="6.40625">
        <ele>203</ele>
        <time>2022-04-08T12:58:46Z</time>
      </trkpt>
      <trkpt lat="43.46904" lon="6.40625">
        <ele>203</ele>
        <time>2022-04-08T12:58:47Z</time>
      </trkpt>
      <trkpt lat="43.46903" lon="6.40625">
        <ele>203</ele>
        <time>2022-04-08T12:58:48Z</time>
      </trkpt>
      <trkpt lat="43.46903" lon="6.40625">
        <ele>203</ele>
        <time>2022-04-08T12:58:49Z</time>
      </trkpt>
      <trkpt lat="43.46902" lon="6.40625">
        <ele>203</ele>
        <time>2022-04-08T12:58:50Z</time>
      </trkpt>
      <trkpt lat="43.46901" lon="6.40625">
        <ele>203</ele>
        <time>2022-04-08T12:58:51Z</time>
      </trkpt>
      <trkpt lat="43.469" lon="6.40625">
        <ele>203</ele>
        <time>2022-04-08T12:58:52Z</time>
      </trkpt>
      <trkpt lat="43.46898" lon="6.40624">
        <ele>203</ele>
        <time>2022-04-08T12:58:53Z</time>
      </trkpt>
      <trkpt lat="43.46898" lon="6.40624">
        <ele>203</ele>
        <time>2022-04-08T12:58:54Z</time>
      </trkpt>
      <trkpt lat="43.46896" lon="6.40624">
        <ele>203</ele>
        <time>2022-04-08T12:58:55Z</time>
      </trkpt>
      <trkpt lat="43.46895" lon="6.40624">
        <ele>203</ele>
        <time>2022-04-08T12:58:56Z</time>
      </trkpt>
      <trkpt lat="43.46894" lon="6.40624">
        <ele>203</ele>
        <time>2022-04-08T12:58:57Z</time>
      </trkpt>
      <trkpt lat="43.46893" lon="6.40624">
        <ele>203</ele>
        <time>2022-04-08T12:58:58Z</time>
      </trkpt>
      <trkpt lat="43.46892" lon="6.40623">
        <ele>203</ele>
        <time>2022-04-08T12:58:59Z</time>
      </trkpt>
      <trkpt lat="43.4689" lon="6.40624">
        <ele>203</ele>
        <time>2022-04-08T12:59:00Z</time>
      </trkpt>
      <trkpt lat="43.46889" lon="6.40624">
        <ele>203</ele>
        <time>2022-04-08T12:59:01Z</time>
      </trkpt>
      <trkpt lat="43.46888" lon="6.40624">
        <ele>203</ele>
        <time>2022-04-08T12:59:02Z</time>
      </trkpt>
      <trkpt lat="43.46887" lon="6.40624">
        <ele>203</ele>
        <time>2022-04-08T12:59:03Z</time>
      </trkpt>
      <trkpt lat="43.46886" lon="6.40624">
        <ele>203</ele>
        <time>2022-04-08T12:59:04Z</time>
      </trkpt>
      <trkpt lat="43.46885" lon="6.40624">
        <ele>203</ele>
        <time>2022-04-08T12:59:05Z</time>
      </trkpt>
      <trkpt lat="43.46884" lon="6.40624">
        <ele>204</ele>
        <time>2022-04-08T12:59:06Z</time>
      </trkpt>
      <trkpt lat="43.46883" lon="6.40624">
        <ele>204</ele>
        <time>2022-04-08T12:59:07Z</time>
      </trkpt>
      <trkpt lat="43.46882" lon="6.40625">
        <ele>205</ele>
        <time>2022-04-08T12:59:08Z</time>
      </trkpt>
      <trkpt lat="43.46881" lon="6.40625">
        <ele>205</ele>
        <time>2022-04-08T12:59:09Z</time>
      </trkpt>
      <trkpt lat="43.4688" lon="6.40626">
        <ele>205</ele>
        <time>2022-04-08T12:59:10Z</time>
      </trkpt>
      <trkpt lat="43.46878" lon="6.40626">
        <ele>205</ele>
        <time>2022-04-08T12:59:11Z</time>
      </trkpt>
      <trkpt lat="43.46877" lon="6.40626">
        <ele>205</ele>
        <time>2022-04-08T12:59:12Z</time>
      </trkpt>
      <trkpt lat="43.46876" lon="6.40627">
        <ele>206</ele>
        <time>2022-04-08T12:59:13Z</time>
      </trkpt>
      <trkpt lat="43.46875" lon="6.40627">
        <ele>206</ele>
        <time>2022-04-08T12:59:14Z</time>
      </trkpt>
      <trkpt lat="43.46874" lon="6.40627">
        <ele>207</ele>
        <time>2022-04-08T12:59:15Z</time>
      </trkpt>
      <trkpt lat="43.46873" lon="6.40627">
        <ele>208</ele>
        <time>2022-04-08T12:59:16Z</time>
      </trkpt>
      <trkpt lat="43.46872" lon="6.40628">
        <ele>208</ele>
        <time>2022-04-08T12:59:17Z</time>
      </trkpt>
      <trkpt lat="43.46871" lon="6.40629">
        <ele>209</ele>
        <time>2022-04-08T12:59:18Z</time>
      </trkpt>
      <trkpt lat="43.4687" lon="6.40629">
        <ele>209</ele>
        <time>2022-04-08T12:59:19Z</time>
      </trkpt>
      <trkpt lat="43.4687" lon="6.4063">
        <ele>209</ele>
        <time>2022-04-08T12:59:20Z</time>
      </trkpt>
      <trkpt lat="43.46869" lon="6.4063">
        <ele>209</ele>
        <time>2022-04-08T12:59:21Z</time>
      </trkpt>
      <trkpt lat="43.46868" lon="6.4063">
        <ele>209</ele>
        <time>2022-04-08T12:59:22Z</time>
      </trkpt>
      <trkpt lat="43.46867" lon="6.40631">
        <ele>209</ele>
        <time>2022-04-08T12:59:23Z</time>
      </trkpt>
      <trkpt lat="43.46866" lon="6.40631">
        <ele>209</ele>
        <time>2022-04-08T12:59:24Z</time>
      </trkpt>
      <trkpt lat="43.46865" lon="6.40631">
        <ele>209</ele>
        <time>2022-04-08T12:59:25Z</time>
      </trkpt>
      <trkpt lat="43.46864" lon="6.40632">
        <ele>209</ele>
        <time>2022-04-08T12:59:26Z</time>
      </trkpt>
      <trkpt lat="43.46863" lon="6.40632">
        <ele>209</ele>
        <time>2022-04-08T12:59:27Z</time>
      </trkpt>
      <trkpt lat="43.46862" lon="6.40632">
        <ele>210</ele>
        <time>2022-04-08T12:59:28Z</time>
      </trkpt>
      <trkpt lat="43.46861" lon="6.40632">
        <ele>210</ele>
        <time>2022-04-08T12:59:29Z</time>
      </trkpt>
      <trkpt lat="43.4686" lon="6.40633">
        <ele>210</ele>
        <time>2022-04-08T12:59:30Z</time>
      </trkpt>
      <trkpt lat="43.46859" lon="6.40633">
        <ele>210</ele>
        <time>2022-04-08T12:59:31Z</time>
      </trkpt>
      <trkpt lat="43.46858" lon="6.40633">
        <ele>210</ele>
        <time>2022-04-08T12:59:32Z</time>
      </trkpt>
      <trkpt lat="43.46857" lon="6.40633">
        <ele>210</ele>
        <time>2022-04-08T12:59:33Z</time>
      </trkpt>
      <trkpt lat="43.46856" lon="6.40634">
        <ele>210</ele>
        <time>2022-04-08T12:59:34Z</time>
      </trkpt>
      <trkpt lat="43.46855" lon="6.40634">
        <ele>210</ele>
        <time>2022-04-08T12:59:35Z</time>
      </trkpt>
      <trkpt lat="43.46854" lon="6.40635">
        <ele>211</ele>
        <time>2022-04-08T12:59:36Z</time>
      </trkpt>
      <trkpt lat="43.46852" lon="6.40635">
        <ele>211</ele>
        <time>2022-04-08T12:59:37Z</time>
      </trkpt>
      <trkpt lat="43.46852" lon="6.40635">
        <ele>211</ele>
        <time>2022-04-08T12:59:38Z</time>
      </trkpt>
      <trkpt lat="43.4685" lon="6.40635">
        <ele>211</ele>
        <time>2022-04-08T12:59:39Z</time>
      </trkpt>
      <trkpt lat="43.46849" lon="6.40636">
        <ele>211</ele>
        <time>2022-04-08T12:59:40Z</time>
      </trkpt>
      <trkpt lat="43.46848" lon="6.40636">
        <ele>211</ele>
        <time>2022-04-08T12:59:41Z</time>
      </trkpt>
      <trkpt lat="43.46847" lon="6.40636">
        <ele>211</ele>
        <time>2022-04-08T12:59:42Z</time>
      </trkpt>
      <trkpt lat="43.46846" lon="6.40636">
        <ele>211</ele>
        <time>2022-04-08T12:59:43Z</time>
      </trkpt>
      <trkpt lat="43.46845" lon="6.40636">
        <ele>211</ele>
        <time>2022-04-08T12:59:44Z</time>
      </trkpt>
      <trkpt lat="43.46844" lon="6.40636">
        <ele>211</ele>
        <time>2022-04-08T12:59:45Z</time>
      </trkpt>
      <trkpt lat="43.46843" lon="6.40637">
        <ele>212</ele>
        <time>2022-04-08T12:59:46Z</time>
      </trkpt>
      <trkpt lat="43.46842" lon="6.40637">
        <ele>212</ele>
        <time>2022-04-08T12:59:47Z</time>
      </trkpt>
      <trkpt lat="43.46841" lon="6.40637">
        <ele>212</ele>
        <time>2022-04-08T12:59:48Z</time>
      </trkpt>
      <trkpt lat="43.4684" lon="6.40637">
        <ele>212</ele>
        <time>2022-04-08T12:59:49Z</time>
      </trkpt>
      <trkpt lat="43.46838" lon="6.40637">
        <ele>212</ele>
        <time>2022-04-08T12:59:50Z</time>
      </trkpt>
      <trkpt lat="43.46837" lon="6.40637">
        <ele>213</ele>
        <time>2022-04-08T12:59:51Z</time>
      </trkpt>
      <trkpt lat="43.46836" lon="6.40638">
        <ele>213</ele>
        <time>2022-04-08T12:59:52Z</time>
      </trkpt>
      <trkpt lat="43.46835" lon="6.40638">
        <ele>213</ele>
        <time>2022-04-08T12:59:53Z</time>
      </trkpt>
      <trkpt lat="43.46834" lon="6.40638">
        <ele>213</ele>
        <time>2022-04-08T12:59:54Z</time>
      </trkpt>
      <trkpt lat="43.46833" lon="6.40638">
        <ele>213</ele>
        <time>2022-04-08T12:59:55Z</time>
      </trkpt>
      <trkpt lat="43.46832" lon="6.40638">
        <ele>214</ele>
        <time>2022-04-08T12:59:56Z</time>
      </trkpt>
      <trkpt lat="43.46831" lon="6.40638">
        <ele>214</ele>
        <time>2022-04-08T12:59:57Z</time>
      </trkpt>
      <trkpt lat="43.4683" lon="6.40638">
        <ele>214</ele>
        <time>2022-04-08T12:59:58Z</time>
      </trkpt>
      <trkpt lat="43.46829" lon="6.40638">
        <ele>214</ele>
        <time>2022-04-08T12:59:59Z</time>
      </trkpt>
      <trkpt lat="43.46829" lon="6.40638">
        <ele>214</ele>
        <time>2022-04-08T13:00:00Z</time>
      </trkpt>
      <trkpt lat="43.46828" lon="6.40638">
        <ele>214</ele>
        <time>2022-04-08T13:00:01Z</time>
      </trkpt>
      <trkpt lat="43.46827" lon="6.40638">
        <ele>214</ele>
        <time>2022-04-08T13:00:02Z</time>
      </trkpt>
      <trkpt lat="43.46826" lon="6.40638">
        <ele>214</ele>
        <time>2022-04-08T13:00:03Z</time>
      </trkpt>
      <trkpt lat="43.46825" lon="6.40638">
        <ele>214</ele>
        <time>2022-04-08T13:00:04Z</time>
      </trkpt>
      <trkpt lat="43.46824" lon="6.40639">
        <ele>214</ele>
        <time>2022-04-08T13:00:05Z</time>
      </trkpt>
      <trkpt lat="43.46823" lon="6.40639">
        <ele>214</ele>
        <time>2022-04-08T13:00:06Z</time>
      </trkpt>
      <trkpt lat="43.46822" lon="6.4064">
        <ele>214</ele>
        <time>2022-04-08T13:00:07Z</time>
      </trkpt>
      <trkpt lat="43.46821" lon="6.4064">
        <ele>214</ele>
        <time>2022-04-08T13:00:08Z</time>
      </trkpt>
      <trkpt lat="43.4682" lon="6.40641">
        <ele>214</ele>
        <time>2022-04-08T13:00:09Z</time>
      </trkpt>
      <trkpt lat="43.4682" lon="6.40642">
        <ele>214</ele>
        <time>2022-04-08T13:00:10Z</time>
      </trkpt>
      <trkpt lat="43.46819" lon="6.40642">
        <ele>214</ele>
        <time>2022-04-08T13:00:11Z</time>
      </trkpt>
      <trkpt lat="43.46818" lon="6.40643">
        <ele>215</ele>
        <time>2022-04-08T13:00:12Z</time>
      </trkpt>
      <trkpt lat="43.46817" lon="6.40643">
        <ele>215</ele>
        <time>2022-04-08T13:00:13Z</time>
      </trkpt>
      <trkpt lat="43.46816" lon="6.40644">
        <ele>215</ele>
        <time>2022-04-08T13:00:14Z</time>
      </trkpt>
      <trkpt lat="43.46815" lon="6.40644">
        <ele>215</ele>
        <time>2022-04-08T13:00:15Z</time>
      </trkpt>
      <trkpt lat="43.46815" lon="6.40645">
        <ele>215</ele>
        <time>2022-04-08T13:00:16Z</time>
      </trkpt>
      <trkpt lat="43.46813" lon="6.40646">
        <ele>215</ele>
        <time>2022-04-08T13:00:17Z</time>
      </trkpt>
      <trkpt lat="43.46812" lon="6.40647">
        <ele>215</ele>
        <time>2022-04-08T13:00:18Z</time>
      </trkpt>
      <trkpt lat="43.46811" lon="6.40647">
        <ele>215</ele>
        <time>2022-04-08T13:00:19Z</time>
      </trkpt>
      <trkpt lat="43.4681" lon="6.40648">
        <ele>215</ele>
        <time>2022-04-08T13:00:20Z</time>
      </trkpt>
      <trkpt lat="43.46809" lon="6.40649">
        <ele>215</ele>
        <time>2022-04-08T13:00:21Z</time>
      </trkpt>
      <trkpt lat="43.46808" lon="6.4065">
        <ele>216</ele>
        <time>2022-04-08T13:00:22Z</time>
      </trkpt>
      <trkpt lat="43.46807" lon="6.40651">
        <ele>216</ele>
        <time>2022-04-08T13:00:23Z</time>
      </trkpt>
      <trkpt lat="43.46807" lon="6.40652">
        <ele>216</ele>
        <time>2022-04-08T13:00:24Z</time>
      </trkpt>
      <trkpt lat="43.46806" lon="6.40653">
        <ele>216</ele>
        <time>2022-04-08T13:00:25Z</time>
      </trkpt>
      <trkpt lat="43.46805" lon="6.40654">
        <ele>216</ele>
        <time>2022-04-08T13:00:26Z</time>
      </trkpt>
      <trkpt lat="43.46804" lon="6.40654">
        <ele>216</ele>
        <time>2022-04-08T13:00:27Z</time>
      </trkpt>
      <trkpt lat="43.46803" lon="6.40655">
        <ele>216</ele>
        <time>2022-04-08T13:00:28Z</time>
      </trkpt>
      <trkpt lat="43.46802" lon="6.40656">
        <ele>216</ele>
        <time>2022-04-08T13:00:29Z</time>
      </trkpt>
      <trkpt lat="43.46801" lon="6.40657">
        <ele>216</ele>
        <time>2022-04-08T13:00:30Z</time>
      </trkpt>
      <trkpt lat="43.468" lon="6.40658">
        <ele>216</ele>
        <time>2022-04-08T13:00:31Z</time>
      </trkpt>
      <trkpt lat="43.468" lon="6.40658">
        <ele>216</ele>
        <time>2022-04-08T13:00:32Z</time>
      </trkpt>
      <trkpt lat="43.46799" lon="6.40659">
        <ele>216</ele>
        <time>2022-04-08T13:00:33Z</time>
      </trkpt>
      <trkpt lat="43.46798" lon="6.40659">
        <ele>216</ele>
        <time>2022-04-08T13:00:34Z</time>
      </trkpt>
      <trkpt lat="43.46798" lon="6.4066">
        <ele>216</ele>
        <time>2022-04-08T13:00:35Z</time>
      </trkpt>
      <trkpt lat="43.46797" lon="6.4066">
        <ele>216</ele>
        <time>2022-04-08T13:00:36Z</time>
      </trkpt>
      <trkpt lat="43.46797" lon="6.4066">
        <ele>216</ele>
        <time>2022-04-08T13:00:37Z</time>
      </trkpt>
      <trkpt lat="43.46796" lon="6.40661">
        <ele>217</ele>
        <time>2022-04-08T13:00:38Z</time>
      </trkpt>
      <trkpt lat="43.46796" lon="6.40661">
        <ele>217</ele>
        <time>2022-04-08T13:00:39Z</time>
      </trkpt>
      <trkpt lat="43.46795" lon="6.40661">
        <ele>217</ele>
        <time>2022-04-08T13:00:40Z</time>
      </trkpt>
      <trkpt lat="43.46794" lon="6.40662">
        <ele>218</ele>
        <time>2022-04-08T13:00:41Z</time>
      </trkpt>
      <trkpt lat="43.46793" lon="6.40662">
        <ele>218</ele>
        <time>2022-04-08T13:00:42Z</time>
      </trkpt>
      <trkpt lat="43.46793" lon="6.40662">
        <ele>218</ele>
        <time>2022-04-08T13:00:43Z</time>
      </trkpt>
      <trkpt lat="43.46792" lon="6.40662">
        <ele>218</ele>
        <time>2022-04-08T13:00:44Z</time>
      </trkpt>
      <trkpt lat="43.46791" lon="6.40663">
        <ele>218</ele>
        <time>2022-04-08T13:00:45Z</time>
      </trkpt>
      <trkpt lat="43.4679" lon="6.40663">
        <ele>218</ele>
        <time>2022-04-08T13:00:46Z</time>
      </trkpt>
      <trkpt lat="43.46789" lon="6.40663">
        <ele>218</ele>
        <time>2022-04-08T13:00:47Z</time>
      </trkpt>
      <trkpt lat="43.46788" lon="6.40664">
        <ele>218</ele>
        <time>2022-04-08T13:00:48Z</time>
      </trkpt>
      <trkpt lat="43.46788" lon="6.40664">
        <ele>218</ele>
        <time>2022-04-08T13:00:49Z</time>
      </trkpt>
      <trkpt lat="43.46787" lon="6.40665">
        <ele>219</ele>
        <time>2022-04-08T13:00:50Z</time>
      </trkpt>
      <trkpt lat="43.46786" lon="6.40665">
        <ele>219</ele>
        <time>2022-04-08T13:00:51Z</time>
      </trkpt>
      <trkpt lat="43.46785" lon="6.40666">
        <ele>219</ele>
        <time>2022-04-08T13:00:52Z</time>
      </trkpt>
      <trkpt lat="43.46784" lon="6.40666">
        <ele>219</ele>
        <time>2022-04-08T13:00:53Z</time>
      </trkpt>
      <trkpt lat="43.46783" lon="6.40667">
        <ele>219</ele>
        <time>2022-04-08T13:00:54Z</time>
      </trkpt>
      <trkpt lat="43.46782" lon="6.40668">
        <ele>219</ele>
        <time>2022-04-08T13:00:55Z</time>
      </trkpt>
      <trkpt lat="43.4678" lon="6.40668">
        <ele>219</ele>
        <time>2022-04-08T13:00:56Z</time>
      </trkpt>
      <trkpt lat="43.46779" lon="6.40669">
        <ele>220</ele>
        <time>2022-04-08T13:00:57Z</time>
      </trkpt>
      <trkpt lat="43.46778" lon="6.4067">
        <ele>221</ele>
        <time>2022-04-08T13:00:58Z</time>
      </trkpt>
      <trkpt lat="43.46777" lon="6.4067">
        <ele>221</ele>
        <time>2022-04-08T13:00:59Z</time>
      </trkpt>
      <trkpt lat="43.46776" lon="6.4067">
        <ele>221</ele>
        <time>2022-04-08T13:01:00Z</time>
      </trkpt>
      <trkpt lat="43.46775" lon="6.4067">
        <ele>221</ele>
        <time>2022-04-08T13:01:01Z</time>
      </trkpt>
      <trkpt lat="43.46774" lon="6.40671">
        <ele>221</ele>
        <time>2022-04-08T13:01:02Z</time>
      </trkpt>
      <trkpt lat="43.46773" lon="6.40671">
        <ele>221</ele>
        <time>2022-04-08T13:01:03Z</time>
      </trkpt>
      <trkpt lat="43.46773" lon="6.40671">
        <ele>221</ele>
        <time>2022-04-08T13:01:04Z</time>
      </trkpt>
      <trkpt lat="43.46772" lon="6.40672">
        <ele>221</ele>
        <time>2022-04-08T13:01:05Z</time>
      </trkpt>
      <trkpt lat="43.46771" lon="6.40672">
        <ele>221</ele>
        <time>2022-04-08T13:01:06Z</time>
      </trkpt>
      <trkpt lat="43.4677" lon="6.40672">
        <ele>221</ele>
        <time>2022-04-08T13:01:07Z</time>
      </trkpt>
      <trkpt lat="43.46768" lon="6.40673">
        <ele>221</ele>
        <time>2022-04-08T13:01:08Z</time>
      </trkpt>
      <trkpt lat="43.46767" lon="6.40673">
        <ele>221</ele>
        <time>2022-04-08T13:01:09Z</time>
      </trkpt>
      <trkpt lat="43.46766" lon="6.40674">
        <ele>222</ele>
        <time>2022-04-08T13:01:10Z</time>
      </trkpt>
      <trkpt lat="43.46765" lon="6.40674">
        <ele>222</ele>
        <time>2022-04-08T13:01:11Z</time>
      </trkpt>
      <trkpt lat="43.46764" lon="6.40674">
        <ele>222</ele>
        <time>2022-04-08T13:01:12Z</time>
      </trkpt>
      <trkpt lat="43.46763" lon="6.40675">
        <ele>222</ele>
        <time>2022-04-08T13:01:13Z</time>
      </trkpt>
      <trkpt lat="43.46763" lon="6.40675">
        <ele>222</ele>
        <time>2022-04-08T13:01:14Z</time>
      </trkpt>
      <trkpt lat="43.46762" lon="6.40675">
        <ele>222</ele>
        <time>2022-04-08T13:01:15Z</time>
      </trkpt>
      <trkpt lat="43.46761" lon="6.40675">
        <ele>222</ele>
        <time>2022-04-08T13:01:16Z</time>
      </trkpt>
      <trkpt lat="43.46759" lon="6.40675">
        <ele>222</ele>
        <time>2022-04-08T13:01:17Z</time>
      </trkpt>
      <trkpt lat="43.46758" lon="6.40676">
        <ele>222</ele>
        <time>2022-04-08T13:01:18Z</time>
      </trkpt>
      <trkpt lat="43.46757" lon="6.40676">
        <ele>222</ele>
        <time>2022-04-08T13:01:19Z</time>
      </trkpt>
      <trkpt lat="43.46756" lon="6.40676">
        <ele>222</ele>
        <time>2022-04-08T13:01:20Z</time>
      </trkpt>
      <trkpt lat="43.46756" lon="6.40676">
        <ele>222</ele>
        <time>2022-04-08T13:01:21Z</time>
      </trkpt>
      <trkpt lat="43.46755" lon="6.40676">
        <ele>222</ele>
        <time>2022-04-08T13:01:22Z</time>
      </trkpt>
      <trkpt lat="43.46754" lon="6.40676">
        <ele>222</ele>
        <time>2022-04-08T13:01:23Z</time>
      </trkpt>
      <trkpt lat="43.46753" lon="6.40676">
        <ele>222</ele>
        <time>2022-04-08T13:01:24Z</time>
      </trkpt>
      <trkpt lat="43.46753" lon="6.40676">
        <ele>222</ele>
        <time>2022-04-08T13:01:25Z</time>
      </trkpt>
      <trkpt lat="43.46752" lon="6.40676">
        <ele>222</ele>
        <time>2022-04-08T13:01:26Z</time>
      </trkpt>
      <trkpt lat="43.46752" lon="6.40676">
        <ele>222</ele>
        <time>2022-04-08T13:01:27Z</time>
      </trkpt>
      <trkpt lat="43.46751" lon="6.40676">
        <ele>222</ele>
        <time>2022-04-08T13:01:28Z</time>
      </trkpt>
      <trkpt lat="43.4675" lon="6.40676">
        <ele>222</ele>
        <time>2022-04-08T13:01:29Z</time>
      </trkpt>
      <trkpt lat="43.46749" lon="6.40676">
        <ele>222</ele>
        <time>2022-04-08T13:01:30Z</time>
      </trkpt>
      <trkpt lat="43.46748" lon="6.40676">
        <ele>222</ele>
        <time>2022-04-08T13:01:31Z</time>
      </trkpt>
      <trkpt lat="43.46746" lon="6.40676">
        <ele>223</ele>
        <time>2022-04-08T13:01:32Z</time>
      </trkpt>
      <trkpt lat="43.46745" lon="6.40676">
        <ele>223</ele>
        <time>2022-04-08T13:01:33Z</time>
      </trkpt>
      <trkpt lat="43.46744" lon="6.40676">
        <ele>223</ele>
        <time>2022-04-08T13:01:34Z</time>
      </trkpt>
      <trkpt lat="43.46743" lon="6.40676">
        <ele>223</ele>
        <time>2022-04-08T13:01:35Z</time>
      </trkpt>
      <trkpt lat="43.46742" lon="6.40676">
        <ele>223</ele>
        <time>2022-04-08T13:01:36Z</time>
      </trkpt>
      <trkpt lat="43.46741" lon="6.40676">
        <ele>223</ele>
        <time>2022-04-08T13:01:37Z</time>
      </trkpt>
      <trkpt lat="43.46739" lon="6.40676">
        <ele>223</ele>
        <time>2022-04-08T13:01:38Z</time>
      </trkpt>
      <trkpt lat="43.46738" lon="6.40677">
        <ele>223</ele>
        <time>2022-04-08T13:01:39Z</time>
      </trkpt>
      <trkpt lat="43.46737" lon="6.40677">
        <ele>223</ele>
        <time>2022-04-08T13:01:40Z</time>
      </trkpt>
      <trkpt lat="43.46736" lon="6.40677">
        <ele>223</ele>
        <time>2022-04-08T13:01:41Z</time>
      </trkpt>
      <trkpt lat="43.46735" lon="6.40677">
        <ele>223</ele>
        <time>2022-04-08T13:01:42Z</time>
      </trkpt>
      <trkpt lat="43.46734" lon="6.40677">
        <ele>223</ele>
        <time>2022-04-08T13:01:43Z</time>
      </trkpt>
      <trkpt lat="43.46732" lon="6.40677">
        <ele>223</ele>
        <time>2022-04-08T13:01:44Z</time>
      </trkpt>
      <trkpt lat="43.46731" lon="6.40677">
        <ele>223</ele>
        <time>2022-04-08T13:01:45Z</time>
      </trkpt>
      <trkpt lat="43.4673" lon="6.40677">
        <ele>223</ele>
        <time>2022-04-08T13:01:46Z</time>
      </trkpt>
      <trkpt lat="43.46729" lon="6.40677">
        <ele>223</ele>
        <time>2022-04-08T13:01:47Z</time>
      </trkpt>
      <trkpt lat="43.46727" lon="6.40677">
        <ele>223</ele>
        <time>2022-04-08T13:01:48Z</time>
      </trkpt>
      <trkpt lat="43.46726" lon="6.40677">
        <ele>223</ele>
        <time>2022-04-08T13:01:49Z</time>
      </trkpt>
      <trkpt lat="43.46724" lon="6.40677">
        <ele>223</ele>
        <time>2022-04-08T13:01:50Z</time>
      </trkpt>
      <trkpt lat="43.46723" lon="6.40677">
        <ele>223</ele>
        <time>2022-04-08T13:01:51Z</time>
      </trkpt>
      <trkpt lat="43.46722" lon="6.40677">
        <ele>223</ele>
        <time>2022-04-08T13:01:52Z</time>
      </trkpt>
      <trkpt lat="43.4672" lon="6.40677">
        <ele>224</ele>
        <time>2022-04-08T13:01:53Z</time>
      </trkpt>
      <trkpt lat="43.46719" lon="6.40676">
        <ele>224</ele>
        <time>2022-04-08T13:01:54Z</time>
      </trkpt>
      <trkpt lat="43.46718" lon="6.40676">
        <ele>224</ele>
        <time>2022-04-08T13:01:55Z</time>
      </trkpt>
      <trkpt lat="43.46716" lon="6.40676">
        <ele>224</ele>
        <time>2022-04-08T13:01:56Z</time>
      </trkpt>
      <trkpt lat="43.46715" lon="6.40676">
        <ele>224</ele>
        <time>2022-04-08T13:01:57Z</time>
      </trkpt>
      <trkpt lat="43.46714" lon="6.40676">
        <ele>224</ele>
        <time>2022-04-08T13:01:58Z</time>
      </trkpt>
      <trkpt lat="43.46713" lon="6.40675">
        <ele>224</ele>
        <time>2022-04-08T13:01:59Z</time>
      </trkpt>
      <trkpt lat="43.46712" lon="6.40675">
        <ele>224</ele>
        <time>2022-04-08T13:02:00Z</time>
      </trkpt>
      <trkpt lat="43.46711" lon="6.40675">
        <ele>224</ele>
        <time>2022-04-08T13:02:01Z</time>
      </trkpt>
      <trkpt lat="43.46709" lon="6.40674">
        <ele>224</ele>
        <time>2022-04-08T13:02:02Z</time>
      </trkpt>
      <trkpt lat="43.46708" lon="6.40674">
        <ele>224</ele>
        <time>2022-04-08T13:02:03Z</time>
      </trkpt>
      <trkpt lat="43.46707" lon="6.40673">
        <ele>224</ele>
        <time>2022-04-08T13:02:04Z</time>
      </trkpt>
      <trkpt lat="43.46706" lon="6.40673">
        <ele>224</ele>
        <time>2022-04-08T13:02:05Z</time>
      </trkpt>
      <trkpt lat="43.46704" lon="6.40672">
        <ele>225</ele>
        <time>2022-04-08T13:02:06Z</time>
      </trkpt>
      <trkpt lat="43.46703" lon="6.40672">
        <ele>225</ele>
        <time>2022-04-08T13:02:07Z</time>
      </trkpt>
      <trkpt lat="43.46702" lon="6.40672">
        <ele>225</ele>
        <time>2022-04-08T13:02:08Z</time>
      </trkpt>
      <trkpt lat="43.46701" lon="6.40672">
        <ele>225</ele>
        <time>2022-04-08T13:02:09Z</time>
      </trkpt>
      <trkpt lat="43.467" lon="6.40672">
        <ele>225</ele>
        <time>2022-04-08T13:02:10Z</time>
      </trkpt>
      <trkpt lat="43.46699" lon="6.40672">
        <ele>225</ele>
        <time>2022-04-08T13:02:11Z</time>
      </trkpt>
      <trkpt lat="43.46697" lon="6.40672">
        <ele>225</ele>
        <time>2022-04-08T13:02:12Z</time>
      </trkpt>
      <trkpt lat="43.46696" lon="6.40673">
        <ele>225</ele>
        <time>2022-04-08T13:02:13Z</time>
      </trkpt>
      <trkpt lat="43.46695" lon="6.40674">
        <ele>225</ele>
        <time>2022-04-08T13:02:14Z</time>
      </trkpt>
      <trkpt lat="43.46695" lon="6.40675">
        <ele>225</ele>
        <time>2022-04-08T13:02:15Z</time>
      </trkpt>
      <trkpt lat="43.46694" lon="6.40676">
        <ele>225</ele>
        <time>2022-04-08T13:02:16Z</time>
      </trkpt>
      <trkpt lat="43.46693" lon="6.40677">
        <ele>225</ele>
        <time>2022-04-08T13:02:17Z</time>
      </trkpt>
      <trkpt lat="43.46692" lon="6.40678">
        <ele>225</ele>
        <time>2022-04-08T13:02:18Z</time>
      </trkpt>
      <trkpt lat="43.46691" lon="6.4068">
        <ele>225</ele>
        <time>2022-04-08T13:02:19Z</time>
      </trkpt>
      <trkpt lat="43.4669" lon="6.40681">
        <ele>225</ele>
        <time>2022-04-08T13:02:20Z</time>
      </trkpt>
      <trkpt lat="43.4669" lon="6.40682">
        <ele>225</ele>
        <time>2022-04-08T13:02:21Z</time>
      </trkpt>
      <trkpt lat="43.46689" lon="6.40683">
        <ele>225</ele>
        <time>2022-04-08T13:02:22Z</time>
      </trkpt>
      <trkpt lat="43.46688" lon="6.40684">
        <ele>225</ele>
        <time>2022-04-08T13:02:23Z</time>
      </trkpt>
      <trkpt lat="43.46688" lon="6.40685">
        <ele>225</ele>
        <time>2022-04-08T13:02:24Z</time>
      </trkpt>
      <trkpt lat="43.46687" lon="6.40687">
        <ele>225</ele>
        <time>2022-04-08T13:02:25Z</time>
      </trkpt>
      <trkpt lat="43.46687" lon="6.40688">
        <ele>224</ele>
        <time>2022-04-08T13:02:26Z</time>
      </trkpt>
      <trkpt lat="43.46687" lon="6.40689">
        <ele>224</ele>
        <time>2022-04-08T13:02:27Z</time>
      </trkpt>
      <trkpt lat="43.46686" lon="6.4069">
        <ele>224</ele>
        <time>2022-04-08T13:02:28Z</time>
      </trkpt>
      <trkpt lat="43.46686" lon="6.4069">
        <ele>224</ele>
        <time>2022-04-08T13:02:29Z</time>
      </trkpt>
      <trkpt lat="43.46686" lon="6.40691">
        <ele>224</ele>
        <time>2022-04-08T13:02:30Z</time>
      </trkpt>
      <trkpt lat="43.46686" lon="6.40692">
        <ele>224</ele>
        <time>2022-04-08T13:02:31Z</time>
      </trkpt>
      <trkpt lat="43.46685" lon="6.40693">
        <ele>224</ele>
        <time>2022-04-08T13:02:32Z</time>
      </trkpt>
      <trkpt lat="43.46685" lon="6.40695">
        <ele>224</ele>
        <time>2022-04-08T13:02:33Z</time>
      </trkpt>
      <trkpt lat="43.46685" lon="6.40696">
        <ele>224</ele>
        <time>2022-04-08T13:02:34Z</time>
      </trkpt>
      <trkpt lat="43.46684" lon="6.40697">
        <ele>224</ele>
        <time>2022-04-08T13:02:35Z</time>
      </trkpt>
      <trkpt lat="43.46684" lon="6.40698">
        <ele>224</ele>
        <time>2022-04-08T13:02:36Z</time>
      </trkpt>
      <trkpt lat="43.46684" lon="6.40699">
        <ele>224</ele>
        <time>2022-04-08T13:02:37Z</time>
      </trkpt>
      <trkpt lat="43.46683" lon="6.40701">
        <ele>224</ele>
        <time>2022-04-08T13:02:38Z</time>
      </trkpt>
      <trkpt lat="43.46683" lon="6.40702">
        <ele>224</ele>
        <time>2022-04-08T13:02:39Z</time>
      </trkpt>
      <trkpt lat="43.46682" lon="6.40703">
        <ele>224</ele>
        <time>2022-04-08T13:02:40Z</time>
      </trkpt>
      <trkpt lat="43.46682" lon="6.40704">
        <ele>224</ele>
        <time>2022-04-08T13:02:41Z</time>
      </trkpt>
      <trkpt lat="43.46681" lon="6.40705">
        <ele>224</ele>
        <time>2022-04-08T13:02:42Z</time>
      </trkpt>
      <trkpt lat="43.4668" lon="6.40706">
        <ele>224</ele>
        <time>2022-04-08T13:02:43Z</time>
      </trkpt>
      <trkpt lat="43.4668" lon="6.40707">
        <ele>224</ele>
        <time>2022-04-08T13:02:44Z</time>
      </trkpt>
      <trkpt lat="43.46679" lon="6.40708">
        <ele>224</ele>
        <time>2022-04-08T13:02:45Z</time>
      </trkpt>
      <trkpt lat="43.46679" lon="6.40709">
        <ele>224</ele>
        <time>2022-04-08T13:02:46Z</time>
      </trkpt>
      <trkpt lat="43.46678" lon="6.40709">
        <ele>224</ele>
        <time>2022-04-08T13:02:47Z</time>
      </trkpt>
      <trkpt lat="43.46678" lon="6.4071">
        <ele>224</ele>
        <time>2022-04-08T13:02:48Z</time>
      </trkpt>
      <trkpt lat="43.46678" lon="6.40711">
        <ele>224</ele>
        <time>2022-04-08T13:02:49Z</time>
      </trkpt>
      <trkpt lat="43.46677" lon="6.40711">
        <ele>224</ele>
        <time>2022-04-08T13:02:50Z</time>
      </trkpt>
      <trkpt lat="43.46677" lon="6.40712">
        <ele>224</ele>
        <time>2022-04-08T13:02:51Z</time>
      </trkpt>
      <trkpt lat="43.46677" lon="6.40712">
        <ele>224</ele>
        <time>2022-04-08T13:02:52Z</time>
      </trkpt>
      <trkpt lat="43.46677" lon="6.40713">
        <ele>224</ele>
        <time>2022-04-08T13:02:53Z</time>
      </trkpt>
      <trkpt lat="43.46677" lon="6.40713">
        <ele>224</ele>
        <time>2022-04-08T13:02:54Z</time>
      </trkpt>
      <trkpt lat="43.46677" lon="6.40713">
        <ele>224</ele>
        <time>2022-04-08T13:02:55Z</time>
      </trkpt>
      <trkpt lat="43.46677" lon="6.40714">
        <ele>224</ele>
        <time>2022-04-08T13:02:56Z</time>
      </trkpt>
      <trkpt lat="43.46677" lon="6.40714">
        <ele>224</ele>
        <time>2022-04-08T13:02:57Z</time>
      </trkpt>
      <trkpt lat="43.46677" lon="6.40714">
        <ele>224</ele>
        <time>2022-04-08T13:02:58Z</time>
      </trkpt>
      <trkpt lat="43.46677" lon="6.40714">
        <ele>224</ele>
        <time>2022-04-08T13:02:59Z</time>
      </trkpt>
      <trkpt lat="43.46678" lon="6.40714">
        <ele>224</ele>
        <time>2022-04-08T13:03:00Z</time>
      </trkpt>
      <trkpt lat="43.46678" lon="6.40714">
        <ele>224</ele>
        <time>2022-04-08T13:03:01Z</time>
      </trkpt>
      <trkpt lat="43.46678" lon="6.40715">
        <ele>224</ele>
        <time>2022-04-08T13:03:02Z</time>
      </trkpt>
      <trkpt lat="43.46678" lon="6.40715">
        <ele>224</ele>
        <time>2022-04-08T13:03:03Z</time>
      </trkpt>
      <trkpt lat="43.46679" lon="6.40715">
        <ele>224</ele>
        <time>2022-04-08T13:03:04Z</time>
      </trkpt>
      <trkpt lat="43.46679" lon="6.40715">
        <ele>224</ele>
        <time>2022-04-08T13:03:05Z</time>
      </trkpt>
      <trkpt lat="43.46679" lon="6.40715">
        <ele>224</ele>
        <time>2022-04-08T13:03:06Z</time>
      </trkpt>
      <trkpt lat="43.46679" lon="6.40715">
        <ele>224</ele>
        <time>2022-04-08T13:03:07Z</time>
      </trkpt>
      <trkpt lat="43.46679" lon="6.40715">
        <ele>224</ele>
        <time>2022-04-08T13:03:08Z</time>
      </trkpt>
      <trkpt lat="43.46679" lon="6.40715">
        <ele>224</ele>
        <time>2022-04-08T13:03:09Z</time>
      </trkpt>
      <trkpt lat="43.46679" lon="6.40715">
        <ele>224</ele>
        <time>2022-04-08T13:03:10Z</time>
      </trkpt>
      <trkpt lat="43.46679" lon="6.40715">
        <ele>224</ele>
        <time>2022-04-08T13:03:11Z</time>
      </trkpt>
      <trkpt lat="43.46679" lon="6.40715">
        <ele>224</ele>
        <time>2022-04-08T13:03:12Z</time>
      </trkpt>
      <trkpt lat="43.46679" lon="6.40715">
        <ele>224</ele>
        <time>2022-04-08T13:03:13Z</time>
      </trkpt>
      <trkpt lat="43.46679" lon="6.40715">
        <ele>224</ele>
        <time>2022-04-08T13:03:14Z</time>
      </trkpt>
      <trkpt lat="43.46679" lon="6.40715">
        <ele>224</ele>
        <time>2022-04-08T13:03:15Z</time>
      </trkpt>
      <trkpt lat="43.46679" lon="6.40715">
        <ele>224</ele>
        <time>2022-04-08T13:03:16Z</time>
      </trkpt>
      <trkpt lat="43.46679" lon="6.40715">
        <ele>224</ele>
        <time>2022-04-08T13:03:17Z</time>
      </trkpt>
      <trkpt lat="43.46679" lon="6.40715">
        <ele>224</ele>
        <time>2022-04-08T13:03:18Z</time>
      </trkpt>
      <trkpt lat="43.46679" lon="6.40715">
        <ele>224</ele>
        <time>2022-04-08T13:03:19Z</time>
      </trkpt>
      <trkpt lat="43.46679" lon="6.40715">
        <ele>224</ele>
        <time>2022-04-08T13:03:20Z</time>
      </trkpt>
      <trkpt lat="43.46679" lon="6.40715">
        <ele>224</ele>
        <time>2022-04-08T13:03:21Z</time>
      </trkpt>
      <trkpt lat="43.46679" lon="6.40715">
        <ele>224</ele>
        <time>2022-04-08T13:03:22Z</time>
      </trkpt>
      <trkpt lat="43.46679" lon="6.40715">
        <ele>224</ele>
        <time>2022-04-08T13:03:23Z</time>
      </trkpt>
      <trkpt lat="43.46679" lon="6.40715">
        <ele>224</ele>
        <time>2022-04-08T13:03:24Z</time>
      </trkpt>
      <trkpt lat="43.46679" lon="6.40715">
        <ele>224</ele>
        <time>2022-04-08T13:03:25Z</time>
      </trkpt>
      <trkpt lat="43.46679" lon="6.40715">
        <ele>224</ele>
        <time>2022-04-08T13:03:26Z</time>
      </trkpt>
      <trkpt lat="43.46679" lon="6.40715">
        <ele>224</ele>
        <time>2022-04-08T13:03:27Z</time>
      </trkpt>
      <trkpt lat="43.46679" lon="6.40715">
        <ele>224</ele>
        <time>2022-04-08T13:03:28Z</time>
      </trkpt>
      <trkpt lat="43.46679" lon="6.40715">
        <ele>224</ele>
        <time>2022-04-08T13:03:29Z</time>
      </trkpt>
      <trkpt lat="43.46679" lon="6.40715">
        <ele>224</ele>
        <time>2022-04-08T13:03:30Z</time>
      </trkpt>
      <trkpt lat="43.46679" lon="6.40715">
        <ele>224</ele>
        <time>2022-04-08T13:03:31Z</time>
      </trkpt>
      <trkpt lat="43.46679" lon="6.40715">
        <ele>224</ele>
        <time>2022-04-08T13:03:32Z</time>
      </trkpt>
      <trkpt lat="43.46679" lon="6.40715">
        <ele>224</ele>
        <time>2022-04-08T13:03:33Z</time>
      </trkpt>
      <trkpt lat="43.46679" lon="6.40715">
        <ele>224</ele>
        <time>2022-04-08T13:03:34Z</time>
      </trkpt>
      <trkpt lat="43.46681" lon="6.40715">
        <ele>223</ele>
        <time>2022-04-08T13:03:35Z</time>
      </trkpt>
      <trkpt lat="43.46681" lon="6.40716">
        <ele>223</ele>
        <time>2022-04-08T13:03:36Z</time>
      </trkpt>
      <trkpt lat="43.46681" lon="6.40716">
        <ele>223</ele>
        <time>2022-04-08T13:03:37Z</time>
      </trkpt>
      <trkpt lat="43.46681" lon="6.40717">
        <ele>223</ele>
        <time>2022-04-08T13:03:38Z</time>
      </trkpt>
      <trkpt lat="43.46681" lon="6.40717">
        <ele>222</ele>
        <time>2022-04-08T13:03:39Z</time>
      </trkpt>
      <trkpt lat="43.46681" lon="6.40718">
        <ele>222</ele>
        <time>2022-04-08T13:03:40Z</time>
      </trkpt>
      <trkpt lat="43.46682" lon="6.40718">
        <ele>222</ele>
        <time>2022-04-08T13:03:41Z</time>
      </trkpt>
      <trkpt lat="43.46682" lon="6.40718">
        <ele>222</ele>
        <time>2022-04-08T13:03:42Z</time>
      </trkpt>
      <trkpt lat="43.46682" lon="6.40718">
        <ele>222</ele>
        <time>2022-04-08T13:03:43Z</time>
      </trkpt>
      <trkpt lat="43.46682" lon="6.40718">
        <ele>222</ele>
        <time>2022-04-08T13:03:44Z</time>
      </trkpt>
      <trkpt lat="43.46682" lon="6.40718">
        <ele>222</ele>
        <time>2022-04-08T13:03:45Z</time>
      </trkpt>
      <trkpt lat="43.46682" lon="6.40718">
        <ele>222</ele>
        <time>2022-04-08T13:03:46Z</time>
      </trkpt>
      <trkpt lat="43.46682" lon="6.40718">
        <ele>222</ele>
        <time>2022-04-08T13:03:47Z</time>
      </trkpt>
      <trkpt lat="43.46682" lon="6.40718">
        <ele>222</ele>
        <time>2022-04-08T13:03:48Z</time>
      </trkpt>
      <trkpt lat="43.46682" lon="6.40718">
        <ele>222</ele>
        <time>2022-04-08T13:03:49Z</time>
      </trkpt>
      <trkpt lat="43.46682" lon="6.40718">
        <ele>222</ele>
        <time>2022-04-08T13:03:50Z</time>
      </trkpt>
      <trkpt lat="43.46682" lon="6.40718">
        <ele>222</ele>
        <time>2022-04-08T13:03:51Z</time>
      </trkpt>
      <trkpt lat="43.46683" lon="6.40718">
        <ele>222</ele>
        <time>2022-04-08T13:03:52Z</time>
      </trkpt>
      <trkpt lat="43.46684" lon="6.40718">
        <ele>222</ele>
        <time>2022-04-08T13:03:53Z</time>
      </trkpt>
      <trkpt lat="43.46685" lon="6.40719">
        <ele>222</ele>
        <time>2022-04-08T13:03:54Z</time>
      </trkpt>
      <trkpt lat="43.46685" lon="6.40719">
        <ele>222</ele>
        <time>2022-04-08T13:03:55Z</time>
      </trkpt>
      <trkpt lat="43.46685" lon="6.40719">
        <ele>222</ele>
        <time>2022-04-08T13:03:56Z</time>
      </trkpt>
      <trkpt lat="43.46685" lon="6.40719">
        <ele>222</ele>
        <time>2022-04-08T13:03:57Z</time>
      </trkpt>
      <trkpt lat="43.46685" lon="6.40718">
        <ele>222</ele>
        <time>2022-04-08T13:03:58Z</time>
      </trkpt>
      <trkpt lat="43.46685" lon="6.40718">
        <ele>222</ele>
        <time>2022-04-08T13:03:59Z</time>
      </trkpt>
      <trkpt lat="43.46685" lon="6.40718">
        <ele>222</ele>
        <time>2022-04-08T13:04:00Z</time>
      </trkpt>
      <trkpt lat="43.46685" lon="6.40718">
        <ele>222</ele>
        <time>2022-04-08T13:04:01Z</time>
      </trkpt>
      <trkpt lat="43.46685" lon="6.40718">
        <ele>222</ele>
        <time>2022-04-08T13:04:02Z</time>
      </trkpt>
      <trkpt lat="43.46685" lon="6.40718">
        <ele>223</ele>
        <time>2022-04-08T13:04:03Z</time>
      </trkpt>
      <trkpt lat="43.46685" lon="6.40718">
        <ele>223</ele>
        <time>2022-04-08T13:04:04Z</time>
      </trkpt>
      <trkpt lat="43.46685" lon="6.40718">
        <ele>223</ele>
        <time>2022-04-08T13:04:05Z</time>
      </trkpt>
      <trkpt lat="43.46685" lon="6.40718">
        <ele>223</ele>
        <time>2022-04-08T13:04:06Z</time>
      </trkpt>
      <trkpt lat="43.46685" lon="6.40718">
        <ele>223</ele>
        <time>2022-04-08T13:04:07Z</time>
      </trkpt>
      <trkpt lat="43.46685" lon="6.40718">
        <ele>223</ele>
        <time>2022-04-08T13:04:08Z</time>
      </trkpt>
      <trkpt lat="43.46685" lon="6.40718">
        <ele>223</ele>
        <time>2022-04-08T13:04:09Z</time>
      </trkpt>
      <trkpt lat="43.46685" lon="6.40718">
        <ele>223</ele>
        <time>2022-04-08T13:04:10Z</time>
      </trkpt>
      <trkpt lat="43.46685" lon="6.40718">
        <ele>223</ele>
        <time>2022-04-08T13:04:11Z</time>
      </trkpt>
      <trkpt lat="43.46685" lon="6.40718">
        <ele>223</ele>
        <time>2022-04-08T13:04:12Z</time>
      </trkpt>
      <trkpt lat="43.46685" lon="6.40718">
        <ele>223</ele>
        <time>2022-04-08T13:04:13Z</time>
      </trkpt>
      <trkpt lat="43.46685" lon="6.40718">
        <ele>223</ele>
        <time>2022-04-08T13:04:14Z</time>
      </trkpt>
      <trkpt lat="43.46685" lon="6.40718">
        <ele>223</ele>
        <time>2022-04-08T13:04:15Z</time>
      </trkpt>
      <trkpt lat="43.46685" lon="6.40718">
        <ele>223</ele>
        <time>2022-04-08T13:04:16Z</time>
      </trkpt>
      <trkpt lat="43.46685" lon="6.40718">
        <ele>223</ele>
        <time>2022-04-08T13:04:17Z</time>
      </trkpt>
      <trkpt lat="43.46685" lon="6.40718">
        <ele>223</ele>
        <time>2022-04-08T13:04:18Z</time>
      </trkpt>
      <trkpt lat="43.46685" lon="6.40718">
        <ele>223</ele>
        <time>2022-04-08T13:04:19Z</time>
      </trkpt>
      <trkpt lat="43.46685" lon="6.40718">
        <ele>223</ele>
        <time>2022-04-08T13:04:20Z</time>
      </trkpt>
      <trkpt lat="43.46685" lon="6.40718">
        <ele>223</ele>
        <time>2022-04-08T13:04:21Z</time>
      </trkpt>
      <trkpt lat="43.46685" lon="6.40718">
        <ele>223</ele>
        <time>2022-04-08T13:04:22Z</time>
      </trkpt>
      <trkpt lat="43.46685" lon="6.40718">
        <ele>223</ele>
        <time>2022-04-08T13:04:23Z</time>
      </trkpt>
      <trkpt lat="43.46685" lon="6.40718">
        <ele>223</ele>
        <time>2022-04-08T13:04:24Z</time>
      </trkpt>
      <trkpt lat="43.46685" lon="6.40718">
        <ele>223</ele>
        <time>2022-04-08T13:04:25Z</time>
      </trkpt>
      <trkpt lat="43.46685" lon="6.40718">
        <ele>223</ele>
        <time>2022-04-08T13:04:26Z</time>
      </trkpt>
      <trkpt lat="43.46685" lon="6.40718">
        <ele>223</ele>
        <time>2022-04-08T13:04:27Z</time>
      </trkpt>
      <trkpt lat="43.46685" lon="6.40718">
        <ele>223</ele>
        <time>2022-04-08T13:04:28Z</time>
      </trkpt>
      <trkpt lat="43.46685" lon="6.40718">
        <ele>223</ele>
        <time>2022-04-08T13:04:29Z</time>
      </trkpt>
      <trkpt lat="43.46685" lon="6.40718">
        <ele>223</ele>
        <time>2022-04-08T13:04:30Z</time>
      </trkpt>
      <trkpt lat="43.46685" lon="6.40718">
        <ele>223</ele>
        <time>2022-04-08T13:04:31Z</time>
      </trkpt>
      <trkpt lat="43.46685" lon="6.40718">
        <ele>223</ele>
        <time>2022-04-08T13:04:32Z</time>
      </trkpt>
      <trkpt lat="43.46685" lon="6.40718">
        <ele>223</ele>
        <time>2022-04-08T13:04:33Z</time>
      </trkpt>
      <trkpt lat="43.46685" lon="6.40718">
        <ele>223</ele>
        <time>2022-04-08T13:04:34Z</time>
      </trkpt>
      <trkpt lat="43.46685" lon="6.40718">
        <ele>223</ele>
        <time>2022-04-08T13:04:35Z</time>
      </trkpt>
      <trkpt lat="43.46685" lon="6.40718">
        <ele>223</ele>
        <time>2022-04-08T13:04:36Z</time>
      </trkpt>
      <trkpt lat="43.46685" lon="6.40718">
        <ele>223</ele>
        <time>2022-04-08T13:04:37Z</time>
      </trkpt>
      <trkpt lat="43.46685" lon="6.40718">
        <ele>223</ele>
        <time>2022-04-08T13:04:38Z</time>
      </trkpt>
      <trkpt lat="43.46685" lon="6.40718">
        <ele>223</ele>
        <time>2022-04-08T13:04:39Z</time>
      </trkpt>
      <trkpt lat="43.46685" lon="6.40718">
        <ele>223</ele>
        <time>2022-04-08T13:04:40Z</time>
      </trkpt>
      <trkpt lat="43.46685" lon="6.40718">
        <ele>223</ele>
        <time>2022-04-08T13:04:41Z</time>
      </trkpt>
      <trkpt lat="43.46685" lon="6.40718">
        <ele>223</ele>
        <time>2022-04-08T13:04:42Z</time>
      </trkpt>
      <trkpt lat="43.46685" lon="6.40718">
        <ele>223</ele>
        <time>2022-04-08T13:04:43Z</time>
      </trkpt>
      <trkpt lat="43.46685" lon="6.40718">
        <ele>223</ele>
        <time>2022-04-08T13:04:44Z</time>
      </trkpt>
      <trkpt lat="43.46685" lon="6.40718">
        <ele>223</ele>
        <time>2022-04-08T13:04:45Z</time>
      </trkpt>
      <trkpt lat="43.46685" lon="6.40718">
        <ele>223</ele>
        <time>2022-04-08T13:04:46Z</time>
      </trkpt>
      <trkpt lat="43.46685" lon="6.40718">
        <ele>223</ele>
        <time>2022-04-08T13:04:47Z</time>
      </trkpt>
      <trkpt lat="43.46685" lon="6.40718">
        <ele>223</ele>
        <time>2022-04-08T13:04:48Z</time>
      </trkpt>
      <trkpt lat="43.46685" lon="6.40718">
        <ele>223</ele>
        <time>2022-04-08T13:04:49Z</time>
      </trkpt>
      <trkpt lat="43.46685" lon="6.40718">
        <ele>223</ele>
        <time>2022-04-08T13:04:50Z</time>
      </trkpt>
      <trkpt lat="43.46685" lon="6.40718">
        <ele>223</ele>
        <time>2022-04-08T13:04:51Z</time>
      </trkpt>
      <trkpt lat="43.46685" lon="6.40718">
        <ele>223</ele>
        <time>2022-04-08T13:04:52Z</time>
      </trkpt>
      <trkpt lat="43.46685" lon="6.40718">
        <ele>223</ele>
        <time>2022-04-08T13:04:53Z</time>
      </trkpt>
      <trkpt lat="43.46685" lon="6.40718">
        <ele>223</ele>
        <time>2022-04-08T13:04:54Z</time>
      </trkpt>
      <trkpt lat="43.46685" lon="6.40718">
        <ele>223</ele>
        <time>2022-04-08T13:04:55Z</time>
      </trkpt>
      <trkpt lat="43.46685" lon="6.40718">
        <ele>223</ele>
        <time>2022-04-08T13:04:56Z</time>
      </trkpt>
      <trkpt lat="43.46685" lon="6.40718">
        <ele>223</ele>
        <time>2022-04-08T13:04:57Z</time>
      </trkpt>
      <trkpt lat="43.46685" lon="6.40718">
        <ele>223</ele>
        <time>2022-04-08T13:04:58Z</time>
      </trkpt>
      <trkpt lat="43.46685" lon="6.40718">
        <ele>223</ele>
        <time>2022-04-08T13:04:59Z</time>
      </trkpt>
      <trkpt lat="43.46684" lon="6.40716">
        <ele>223</ele>
        <time>2022-04-08T13:05:00Z</time>
      </trkpt>
      <trkpt lat="43.46684" lon="6.40716">
        <ele>223</ele>
        <time>2022-04-08T13:05:01Z</time>
      </trkpt>
      <trkpt lat="43.46684" lon="6.40716">
        <ele>223</ele>
        <time>2022-04-08T13:05:02Z</time>
      </trkpt>
      <trkpt lat="43.46684" lon="6.40716">
        <ele>223</ele>
        <time>2022-04-08T13:05:03Z</time>
      </trkpt>
      <trkpt lat="43.46684" lon="6.40715">
        <ele>223</ele>
        <time>2022-04-08T13:05:04Z</time>
      </trkpt>
      <trkpt lat="43.46684" lon="6.40715">
        <ele>223</ele>
        <time>2022-04-08T13:05:05Z</time>
      </trkpt>
      <trkpt lat="43.46684" lon="6.40715">
        <ele>223</ele>
        <time>2022-04-08T13:05:06Z</time>
      </trkpt>
      <trkpt lat="43.46684" lon="6.40715">
        <ele>223</ele>
        <time>2022-04-08T13:05:07Z</time>
      </trkpt>
      <trkpt lat="43.46684" lon="6.40715">
        <ele>223</ele>
        <time>2022-04-08T13:05:08Z</time>
      </trkpt>
      <trkpt lat="43.46684" lon="6.40715">
        <ele>223</ele>
        <time>2022-04-08T13:05:09Z</time>
      </trkpt>
      <trkpt lat="43.46684" lon="6.40715">
        <ele>223</ele>
        <time>2022-04-08T13:05:10Z</time>
      </trkpt>
      <trkpt lat="43.46684" lon="6.40715">
        <ele>223</ele>
        <time>2022-04-08T13:05:11Z</time>
      </trkpt>
      <trkpt lat="43.46684" lon="6.40715">
        <ele>223</ele>
        <time>2022-04-08T13:05:12Z</time>
      </trkpt>
      <trkpt lat="43.46684" lon="6.40715">
        <ele>223</ele>
        <time>2022-04-08T13:05:13Z</time>
      </trkpt>
      <trkpt lat="43.46684" lon="6.40715">
        <ele>223</ele>
        <time>2022-04-08T13:05:14Z</time>
      </trkpt>
      <trkpt lat="43.46684" lon="6.40715">
        <ele>223</ele>
        <time>2022-04-08T13:05:15Z</time>
      </trkpt>
      <trkpt lat="43.46684" lon="6.40715">
        <ele>223</ele>
        <time>2022-04-08T13:05:16Z</time>
      </trkpt>
      <trkpt lat="43.46684" lon="6.40715">
        <ele>223</ele>
        <time>2022-04-08T13:05:17Z</time>
      </trkpt>
      <trkpt lat="43.46684" lon="6.40715">
        <ele>223</ele>
        <time>2022-04-08T13:05:18Z</time>
      </trkpt>
      <trkpt lat="43.46684" lon="6.40715">
        <ele>223</ele>
        <time>2022-04-08T13:05:19Z</time>
      </trkpt>
      <trkpt lat="43.46684" lon="6.40715">
        <ele>223</ele>
        <time>2022-04-08T13:05:20Z</time>
      </trkpt>
      <trkpt lat="43.46684" lon="6.40715">
        <ele>223</ele>
        <time>2022-04-08T13:05:21Z</time>
      </trkpt>
      <trkpt lat="43.46684" lon="6.40715">
        <ele>223</ele>
        <time>2022-04-08T13:05:22Z</time>
      </trkpt>
      <trkpt lat="43.46684" lon="6.40715">
        <ele>223</ele>
        <time>2022-04-08T13:05:23Z</time>
      </trkpt>
      <trkpt lat="43.46684" lon="6.40715">
        <ele>223</ele>
        <time>2022-04-08T13:05:24Z</time>
      </trkpt>
      <trkpt lat="43.46684" lon="6.40715">
        <ele>223</ele>
        <time>2022-04-08T13:05:25Z</time>
      </trkpt>
      <trkpt lat="43.46684" lon="6.40715">
        <ele>223</ele>
        <time>2022-04-08T13:05:26Z</time>
      </trkpt>
      <trkpt lat="43.46684" lon="6.40715">
        <ele>223</ele>
        <time>2022-04-08T13:05:27Z</time>
      </trkpt>
      <trkpt lat="43.46684" lon="6.40715">
        <ele>223</ele>
        <time>2022-04-08T13:05:28Z</time>
      </trkpt>
      <trkpt lat="43.46684" lon="6.40715">
        <ele>223</ele>
        <time>2022-04-08T13:05:29Z</time>
      </trkpt>
      <trkpt lat="43.46684" lon="6.40715">
        <ele>223</ele>
        <time>2022-04-08T13:05:30Z</time>
      </trkpt>
      <trkpt lat="43.46684" lon="6.40715">
        <ele>223</ele>
        <time>2022-04-08T13:05:31Z</time>
      </trkpt>
      <trkpt lat="43.46684" lon="6.40715">
        <ele>223</ele>
        <time>2022-04-08T13:05:32Z</time>
      </trkpt>
      <trkpt lat="43.46684" lon="6.40715">
        <ele>223</ele>
        <time>2022-04-08T13:05:33Z</time>
      </trkpt>
      <trkpt lat="43.46684" lon="6.40715">
        <ele>223</ele>
        <time>2022-04-08T13:05:34Z</time>
      </trkpt>
      <trkpt lat="43.46684" lon="6.40715">
        <ele>223</ele>
        <time>2022-04-08T13:05:35Z</time>
      </trkpt>
      <trkpt lat="43.46684" lon="6.40715">
        <ele>223</ele>
        <time>2022-04-08T13:05:36Z</time>
      </trkpt>
      <trkpt lat="43.46684" lon="6.40715">
        <ele>223</ele>
        <time>2022-04-08T13:05:37Z</time>
      </trkpt>
      <trkpt lat="43.46684" lon="6.40715">
        <ele>223</ele>
        <time>2022-04-08T13:05:38Z</time>
      </trkpt>
      <trkpt lat="43.46684" lon="6.40715">
        <ele>223</ele>
        <time>2022-04-08T13:05:39Z</time>
      </trkpt>
      <trkpt lat="43.46684" lon="6.40715">
        <ele>223</ele>
        <time>2022-04-08T13:05:40Z</time>
      </trkpt>
      <trkpt lat="43.46684" lon="6.40715">
        <ele>223</ele>
        <time>2022-04-08T13:05:41Z</time>
      </trkpt>
      <trkpt lat="43.46684" lon="6.40715">
        <ele>223</ele>
        <time>2022-04-08T13:05:42Z</time>
      </trkpt>
      <trkpt lat="43.46684" lon="6.40715">
        <ele>223</ele>
        <time>2022-04-08T13:05:43Z</time>
      </trkpt>
      <trkpt lat="43.46684" lon="6.40715">
        <ele>223</ele>
        <time>2022-04-08T13:05:44Z</time>
      </trkpt>
      <trkpt lat="43.46684" lon="6.40715">
        <ele>223</ele>
        <time>2022-04-08T13:05:45Z</time>
      </trkpt>
      <trkpt lat="43.46684" lon="6.40715">
        <ele>223</ele>
        <time>2022-04-08T13:05:46Z</time>
      </trkpt>
      <trkpt lat="43.46684" lon="6.40715">
        <ele>223</ele>
        <time>2022-04-08T13:05:47Z</time>
      </trkpt>
      <trkpt lat="43.46684" lon="6.40715">
        <ele>223</ele>
        <time>2022-04-08T13:05:48Z</time>
      </trkpt>
      <trkpt lat="43.46684" lon="6.40715">
        <ele>223</ele>
        <time>2022-04-08T13:05:49Z</time>
      </trkpt>
      <trkpt lat="43.46684" lon="6.40715">
        <ele>223</ele>
        <time>2022-04-08T13:05:50Z</time>
      </trkpt>
      <trkpt lat="43.46684" lon="6.40715">
        <ele>223</ele>
        <time>2022-04-08T13:05:51Z</time>
      </trkpt>
      <trkpt lat="43.46684" lon="6.40715">
        <ele>223</ele>
        <time>2022-04-08T13:05:52Z</time>
      </trkpt>
      <trkpt lat="43.46684" lon="6.40715">
        <ele>223</ele>
        <time>2022-04-08T13:05:53Z</time>
      </trkpt>
      <trkpt lat="43.46684" lon="6.40715">
        <ele>223</ele>
        <time>2022-04-08T13:05:54Z</time>
      </trkpt>
      <trkpt lat="43.46684" lon="6.40715">
        <ele>223</ele>
        <time>2022-04-08T13:05:55Z</time>
      </trkpt>
      <trkpt lat="43.46684" lon="6.40715">
        <ele>223</ele>
        <time>2022-04-08T13:05:56Z</time>
      </trkpt>
      <trkpt lat="43.46684" lon="6.40715">
        <ele>223</ele>
        <time>2022-04-08T13:05:57Z</time>
      </trkpt>
      <trkpt lat="43.46684" lon="6.40715">
        <ele>223</ele>
        <time>2022-04-08T13:05:58Z</time>
      </trkpt>
      <trkpt lat="43.46684" lon="6.40715">
        <ele>223</ele>
        <time>2022-04-08T13:05:59Z</time>
      </trkpt>
      <trkpt lat="43.46684" lon="6.40715">
        <ele>223</ele>
        <time>2022-04-08T13:06:00Z</time>
      </trkpt>
      <trkpt lat="43.46684" lon="6.40715">
        <ele>223</ele>
        <time>2022-04-08T13:06:01Z</time>
      </trkpt>
      <trkpt lat="43.46684" lon="6.40715">
        <ele>223</ele>
        <time>2022-04-08T13:06:02Z</time>
      </trkpt>
      <trkpt lat="43.46684" lon="6.40715">
        <ele>223</ele>
        <time>2022-04-08T13:06:03Z</time>
      </trkpt>
      <trkpt lat="43.46684" lon="6.40715">
        <ele>223</ele>
        <time>2022-04-08T13:06:04Z</time>
      </trkpt>
      <trkpt lat="43.46684" lon="6.40715">
        <ele>223</ele>
        <time>2022-04-08T13:06:05Z</time>
      </trkpt>
      <trkpt lat="43.46684" lon="6.40715">
        <ele>223</ele>
        <time>2022-04-08T13:06:06Z</time>
      </trkpt>
      <trkpt lat="43.46684" lon="6.40715">
        <ele>223</ele>
        <time>2022-04-08T13:06:07Z</time>
      </trkpt>
      <trkpt lat="43.46684" lon="6.40715">
        <ele>223</ele>
        <time>2022-04-08T13:06:08Z</time>
      </trkpt>
      <trkpt lat="43.46684" lon="6.40715">
        <ele>223</ele>
        <time>2022-04-08T13:06:09Z</time>
      </trkpt>
      <trkpt lat="43.46684" lon="6.40715">
        <ele>223</ele>
        <time>2022-04-08T13:06:10Z</time>
      </trkpt>
      <trkpt lat="43.46684" lon="6.40715">
        <ele>223</ele>
        <time>2022-04-08T13:06:11Z</time>
      </trkpt>
      <trkpt lat="43.46684" lon="6.40715">
        <ele>223</ele>
        <time>2022-04-08T13:06:12Z</time>
      </trkpt>
      <trkpt lat="43.46684" lon="6.40715">
        <ele>223</ele>
        <time>2022-04-08T13:06:13Z</time>
      </trkpt>
      <trkpt lat="43.46684" lon="6.40715">
        <ele>223</ele>
        <time>2022-04-08T13:06:14Z</time>
      </trkpt>
      <trkpt lat="43.46684" lon="6.40715">
        <ele>223</ele>
        <time>2022-04-08T13:06:15Z</time>
      </trkpt>
      <trkpt lat="43.46684" lon="6.40715">
        <ele>223</ele>
        <time>2022-04-08T13:06:16Z</time>
      </trkpt>
      <trkpt lat="43.46684" lon="6.40715">
        <ele>223</ele>
        <time>2022-04-08T13:06:17Z</time>
      </trkpt>
      <trkpt lat="43.46684" lon="6.40715">
        <ele>223</ele>
        <time>2022-04-08T13:06:18Z</time>
      </trkpt>
      <trkpt lat="43.46684" lon="6.40715">
        <ele>223</ele>
        <time>2022-04-08T13:06:19Z</time>
      </trkpt>
      <trkpt lat="43.46684" lon="6.40715">
        <ele>223</ele>
        <time>2022-04-08T13:06:20Z</time>
      </trkpt>
      <trkpt lat="43.46684" lon="6.40715">
        <ele>223</ele>
        <time>2022-04-08T13:06:21Z</time>
      </trkpt>
      <trkpt lat="43.46684" lon="6.40715">
        <ele>223</ele>
        <time>2022-04-08T13:06:22Z</time>
      </trkpt>
      <trkpt lat="43.46684" lon="6.40715">
        <ele>223</ele>
        <time>2022-04-08T13:06:23Z</time>
      </trkpt>
      <trkpt lat="43.46684" lon="6.40715">
        <ele>223</ele>
        <time>2022-04-08T13:06:24Z</time>
      </trkpt>
      <trkpt lat="43.46684" lon="6.40715">
        <ele>223</ele>
        <time>2022-04-08T13:06:25Z</time>
      </trkpt>
      <trkpt lat="43.46684" lon="6.40715">
        <ele>223</ele>
        <time>2022-04-08T13:06:26Z</time>
      </trkpt>
      <trkpt lat="43.46684" lon="6.40715">
        <ele>223</ele>
        <time>2022-04-08T13:06:27Z</time>
      </trkpt>
      <trkpt lat="43.46684" lon="6.40715">
        <ele>223</ele>
        <time>2022-04-08T13:06:28Z</time>
      </trkpt>
      <trkpt lat="43.46684" lon="6.40715">
        <ele>223</ele>
        <time>2022-04-08T13:06:29Z</time>
      </trkpt>
      <trkpt lat="43.46684" lon="6.40715">
        <ele>223</ele>
        <time>2022-04-08T13:06:30Z</time>
      </trkpt>
      <trkpt lat="43.46684" lon="6.40715">
        <ele>223</ele>
        <time>2022-04-08T13:06:31Z</time>
      </trkpt>
      <trkpt lat="43.46684" lon="6.40715">
        <ele>223</ele>
        <time>2022-04-08T13:06:32Z</time>
      </trkpt>
      <trkpt lat="43.46684" lon="6.40715">
        <ele>223</ele>
        <time>2022-04-08T13:06:33Z</time>
      </trkpt>
      <trkpt lat="43.46684" lon="6.40715">
        <ele>223</ele>
        <time>2022-04-08T13:06:34Z</time>
      </trkpt>
      <trkpt lat="43.46684" lon="6.40715">
        <ele>223</ele>
        <time>2022-04-08T13:06:35Z</time>
      </trkpt>
      <trkpt lat="43.46684" lon="6.40715">
        <ele>223</ele>
        <time>2022-04-08T13:06:36Z</time>
      </trkpt>
      <trkpt lat="43.46684" lon="6.40715">
        <ele>223</ele>
        <time>2022-04-08T13:06:37Z</time>
      </trkpt>
      <trkpt lat="43.46684" lon="6.40715">
        <ele>223</ele>
        <time>2022-04-08T13:06:38Z</time>
      </trkpt>
      <trkpt lat="43.46684" lon="6.40715">
        <ele>223</ele>
        <time>2022-04-08T13:06:39Z</time>
      </trkpt>
      <trkpt lat="43.46684" lon="6.40715">
        <ele>223</ele>
        <time>2022-04-08T13:06:40Z</time>
      </trkpt>
      <trkpt lat="43.46684" lon="6.40715">
        <ele>223</ele>
        <time>2022-04-08T13:06:41Z</time>
      </trkpt>
      <trkpt lat="43.46684" lon="6.40715">
        <ele>223</ele>
        <time>2022-04-08T13:06:42Z</time>
      </trkpt>
      <trkpt lat="43.46684" lon="6.40715">
        <ele>223</ele>
        <time>2022-04-08T13:06:43Z</time>
      </trkpt>
      <trkpt lat="43.46684" lon="6.40715">
        <ele>223</ele>
        <time>2022-04-08T13:06:44Z</time>
      </trkpt>
      <trkpt lat="43.46684" lon="6.40715">
        <ele>223</ele>
        <time>2022-04-08T13:06:45Z</time>
      </trkpt>
      <trkpt lat="43.46684" lon="6.40715">
        <ele>223</ele>
        <time>2022-04-08T13:06:46Z</time>
      </trkpt>
      <trkpt lat="43.46684" lon="6.40715">
        <ele>223</ele>
        <time>2022-04-08T13:06:47Z</time>
      </trkpt>
      <trkpt lat="43.46684" lon="6.40715">
        <ele>223</ele>
        <time>2022-04-08T13:06:48Z</time>
      </trkpt>
      <trkpt lat="43.46684" lon="6.40715">
        <ele>223</ele>
        <time>2022-04-08T13:06:49Z</time>
      </trkpt>
      <trkpt lat="43.46684" lon="6.40715">
        <ele>223</ele>
        <time>2022-04-08T13:06:50Z</time>
      </trkpt>
      <trkpt lat="43.46684" lon="6.40715">
        <ele>223</ele>
        <time>2022-04-08T13:06:51Z</time>
      </trkpt>
      <trkpt lat="43.46684" lon="6.4071">
        <ele>223</ele>
        <time>2022-04-08T13:06:52Z</time>
      </trkpt>
      <trkpt lat="43.46684" lon="6.40709">
        <ele>223</ele>
        <time>2022-04-08T13:06:53Z</time>
      </trkpt>
      <trkpt lat="43.46684" lon="6.40709">
        <ele>223</ele>
        <time>2022-04-08T13:06:54Z</time>
      </trkpt>
      <trkpt lat="43.46684" lon="6.40709">
        <ele>223</ele>
        <time>2022-04-08T13:06:55Z</time>
      </trkpt>
      <trkpt lat="43.46684" lon="6.40709">
        <ele>223</ele>
        <time>2022-04-08T13:06:56Z</time>
      </trkpt>
      <trkpt lat="43.46684" lon="6.40709">
        <ele>223</ele>
        <time>2022-04-08T13:06:57Z</time>
      </trkpt>
      <trkpt lat="43.46684" lon="6.40709">
        <ele>223</ele>
        <time>2022-04-08T13:06:58Z</time>
      </trkpt>
      <trkpt lat="43.46684" lon="6.40709">
        <ele>223</ele>
        <time>2022-04-08T13:06:59Z</time>
      </trkpt>
      <trkpt lat="43.46684" lon="6.40709">
        <ele>223</ele>
        <time>2022-04-08T13:07:00Z</time>
      </trkpt>
      <trkpt lat="43.46684" lon="6.40709">
        <ele>223</ele>
        <time>2022-04-08T13:07:01Z</time>
      </trkpt>
      <trkpt lat="43.46684" lon="6.40709">
        <ele>223</ele>
        <time>2022-04-08T13:07:02Z</time>
      </trkpt>
      <trkpt lat="43.46684" lon="6.40709">
        <ele>223</ele>
        <time>2022-04-08T13:07:03Z</time>
      </trkpt>
      <trkpt lat="43.46684" lon="6.40709">
        <ele>223</ele>
        <time>2022-04-08T13:07:04Z</time>
      </trkpt>
      <trkpt lat="43.46684" lon="6.40709">
        <ele>223</ele>
        <time>2022-04-08T13:07:05Z</time>
      </trkpt>
      <trkpt lat="43.46684" lon="6.40709">
        <ele>223</ele>
        <time>2022-04-08T13:07:06Z</time>
      </trkpt>
      <trkpt lat="43.46684" lon="6.40709">
        <ele>223</ele>
        <time>2022-04-08T13:07:07Z</time>
      </trkpt>
      <trkpt lat="43.46684" lon="6.40709">
        <ele>223</ele>
        <time>2022-04-08T13:07:08Z</time>
      </trkpt>
      <trkpt lat="43.46684" lon="6.40709">
        <ele>223</ele>
        <time>2022-04-08T13:07:09Z</time>
      </trkpt>
      <trkpt lat="43.46685" lon="6.4071">
        <ele>223</ele>
        <time>2022-04-08T13:07:10Z</time>
      </trkpt>
      <trkpt lat="43.46685" lon="6.40711">
        <ele>223</ele>
        <time>2022-04-08T13:07:11Z</time>
      </trkpt>
      <trkpt lat="43.46686" lon="6.40711">
        <ele>223</ele>
        <time>2022-04-08T13:07:12Z</time>
      </trkpt>
      <trkpt lat="43.46686" lon="6.40712">
        <ele>223</ele>
        <time>2022-04-08T13:07:13Z</time>
      </trkpt>
      <trkpt lat="43.46687" lon="6.40713">
        <ele>223</ele>
        <time>2022-04-08T13:07:14Z</time>
      </trkpt>
      <trkpt lat="43.46687" lon="6.40713">
        <ele>223</ele>
        <time>2022-04-08T13:07:15Z</time>
      </trkpt>
      <trkpt lat="43.46688" lon="6.40714">
        <ele>223</ele>
        <time>2022-04-08T13:07:16Z</time>
      </trkpt>
      <trkpt lat="43.46688" lon="6.40714">
        <ele>223</ele>
        <time>2022-04-08T13:07:17Z</time>
      </trkpt>
      <trkpt lat="43.46689" lon="6.40715">
        <ele>223</ele>
        <time>2022-04-08T13:07:18Z</time>
      </trkpt>
      <trkpt lat="43.4669" lon="6.40716">
        <ele>223</ele>
        <time>2022-04-08T13:07:19Z</time>
      </trkpt>
      <trkpt lat="43.4669" lon="6.40716">
        <ele>223</ele>
        <time>2022-04-08T13:07:20Z</time>
      </trkpt>
      <trkpt lat="43.46691" lon="6.40717">
        <ele>225</ele>
        <time>2022-04-08T13:07:21Z</time>
      </trkpt>
      <trkpt lat="43.46692" lon="6.40717">
        <ele>225</ele>
        <time>2022-04-08T13:07:22Z</time>
      </trkpt>
      <trkpt lat="43.46692" lon="6.40718">
        <ele>225</ele>
        <time>2022-04-08T13:07:23Z</time>
      </trkpt>
      <trkpt lat="43.46693" lon="6.40719">
        <ele>225</ele>
        <time>2022-04-08T13:07:24Z</time>
      </trkpt>
      <trkpt lat="43.46694" lon="6.4072">
        <ele>225</ele>
        <time>2022-04-08T13:07:25Z</time>
      </trkpt>
      <trkpt lat="43.46696" lon="6.40722">
        <ele>225</ele>
        <time>2022-04-08T13:07:26Z</time>
      </trkpt>
      <trkpt lat="43.46697" lon="6.40724">
        <ele>225</ele>
        <time>2022-04-08T13:07:27Z</time>
      </trkpt>
      <trkpt lat="43.46698" lon="6.40725">
        <ele>225</ele>
        <time>2022-04-08T13:07:28Z</time>
      </trkpt>
      <trkpt lat="43.46698" lon="6.40725">
        <ele>225</ele>
        <time>2022-04-08T13:07:29Z</time>
      </trkpt>
      <trkpt lat="43.46699" lon="6.40726">
        <ele>225</ele>
        <time>2022-04-08T13:07:30Z</time>
      </trkpt>
      <trkpt lat="43.46699" lon="6.40727">
        <ele>225</ele>
        <time>2022-04-08T13:07:31Z</time>
      </trkpt>
      <trkpt lat="43.467" lon="6.40727">
        <ele>225</ele>
        <time>2022-04-08T13:07:32Z</time>
      </trkpt>
      <trkpt lat="43.46701" lon="6.40728">
        <ele>225</ele>
        <time>2022-04-08T13:07:33Z</time>
      </trkpt>
      <trkpt lat="43.46702" lon="6.40729">
        <ele>225</ele>
        <time>2022-04-08T13:07:34Z</time>
      </trkpt>
      <trkpt lat="43.46702" lon="6.4073">
        <ele>225</ele>
        <time>2022-04-08T13:07:35Z</time>
      </trkpt>
      <trkpt lat="43.46703" lon="6.4073">
        <ele>225</ele>
        <time>2022-04-08T13:07:36Z</time>
      </trkpt>
      <trkpt lat="43.46703" lon="6.40731">
        <ele>225</ele>
        <time>2022-04-08T13:07:37Z</time>
      </trkpt>
      <trkpt lat="43.46703" lon="6.40732">
        <ele>225</ele>
        <time>2022-04-08T13:07:38Z</time>
      </trkpt>
      <trkpt lat="43.46704" lon="6.40733">
        <ele>225</ele>
        <time>2022-04-08T13:07:39Z</time>
      </trkpt>
      <trkpt lat="43.46705" lon="6.40736">
        <ele>225</ele>
        <time>2022-04-08T13:07:40Z</time>
      </trkpt>
      <trkpt lat="43.46706" lon="6.40738">
        <ele>225</ele>
        <time>2022-04-08T13:07:41Z</time>
      </trkpt>
      <trkpt lat="43.46707" lon="6.40739">
        <ele>225</ele>
        <time>2022-04-08T13:07:42Z</time>
      </trkpt>
      <trkpt lat="43.46708" lon="6.4074">
        <ele>225</ele>
        <time>2022-04-08T13:07:43Z</time>
      </trkpt>
      <trkpt lat="43.46708" lon="6.4074">
        <ele>225</ele>
        <time>2022-04-08T13:07:44Z</time>
      </trkpt>
      <trkpt lat="43.46708" lon="6.40741">
        <ele>224</ele>
        <time>2022-04-08T13:07:45Z</time>
      </trkpt>
      <trkpt lat="43.46708" lon="6.40741">
        <ele>224</ele>
        <time>2022-04-08T13:07:46Z</time>
      </trkpt>
      <trkpt lat="43.46708" lon="6.40741">
        <ele>224</ele>
        <time>2022-04-08T13:07:47Z</time>
      </trkpt>
      <trkpt lat="43.46709" lon="6.40742">
        <ele>224</ele>
        <time>2022-04-08T13:07:48Z</time>
      </trkpt>
      <trkpt lat="43.46709" lon="6.40743">
        <ele>224</ele>
        <time>2022-04-08T13:07:49Z</time>
      </trkpt>
      <trkpt lat="43.4671" lon="6.40744">
        <ele>224</ele>
        <time>2022-04-08T13:07:50Z</time>
      </trkpt>
      <trkpt lat="43.4671" lon="6.40745">
        <ele>224</ele>
        <time>2022-04-08T13:07:51Z</time>
      </trkpt>
      <trkpt lat="43.46711" lon="6.40746">
        <ele>224</ele>
        <time>2022-04-08T13:07:52Z</time>
      </trkpt>
      <trkpt lat="43.46711" lon="6.40747">
        <ele>223</ele>
        <time>2022-04-08T13:07:53Z</time>
      </trkpt>
      <trkpt lat="43.46711" lon="6.40748">
        <ele>223</ele>
        <time>2022-04-08T13:07:54Z</time>
      </trkpt>
      <trkpt lat="43.46711" lon="6.40748">
        <ele>223</ele>
        <time>2022-04-08T13:07:55Z</time>
      </trkpt>
      <trkpt lat="43.46712" lon="6.40749">
        <ele>223</ele>
        <time>2022-04-08T13:07:56Z</time>
      </trkpt>
      <trkpt lat="43.46712" lon="6.40749">
        <ele>223</ele>
        <time>2022-04-08T13:07:57Z</time>
      </trkpt>
      <trkpt lat="43.46712" lon="6.4075">
        <ele>223</ele>
        <time>2022-04-08T13:07:58Z</time>
      </trkpt>
      <trkpt lat="43.46712" lon="6.4075">
        <ele>223</ele>
        <time>2022-04-08T13:07:59Z</time>
      </trkpt>
      <trkpt lat="43.46713" lon="6.40751">
        <ele>223</ele>
        <time>2022-04-08T13:08:00Z</time>
      </trkpt>
      <trkpt lat="43.46714" lon="6.40752">
        <ele>222</ele>
        <time>2022-04-08T13:08:01Z</time>
      </trkpt>
      <trkpt lat="43.46715" lon="6.40753">
        <ele>222</ele>
        <time>2022-04-08T13:08:02Z</time>
      </trkpt>
      <trkpt lat="43.46716" lon="6.40754">
        <ele>222</ele>
        <time>2022-04-08T13:08:03Z</time>
      </trkpt>
      <trkpt lat="43.46717" lon="6.40755">
        <ele>222</ele>
        <time>2022-04-08T13:08:04Z</time>
      </trkpt>
      <trkpt lat="43.46717" lon="6.40756">
        <ele>222</ele>
        <time>2022-04-08T13:08:05Z</time>
      </trkpt>
      <trkpt lat="43.46718" lon="6.40757">
        <ele>222</ele>
        <time>2022-04-08T13:08:06Z</time>
      </trkpt>
      <trkpt lat="43.46719" lon="6.40758">
        <ele>223</ele>
        <time>2022-04-08T13:08:07Z</time>
      </trkpt>
      <trkpt lat="43.4672" lon="6.40759">
        <ele>223</ele>
        <time>2022-04-08T13:08:08Z</time>
      </trkpt>
      <trkpt lat="43.46721" lon="6.40759">
        <ele>223</ele>
        <time>2022-04-08T13:08:09Z</time>
      </trkpt>
      <trkpt lat="43.46721" lon="6.40759">
        <ele>223</ele>
        <time>2022-04-08T13:08:10Z</time>
      </trkpt>
      <trkpt lat="43.46722" lon="6.4076">
        <ele>223</ele>
        <time>2022-04-08T13:08:11Z</time>
      </trkpt>
      <trkpt lat="43.46722" lon="6.40761">
        <ele>223</ele>
        <time>2022-04-08T13:08:12Z</time>
      </trkpt>
      <trkpt lat="43.46723" lon="6.40762">
        <ele>222</ele>
        <time>2022-04-08T13:08:13Z</time>
      </trkpt>
      <trkpt lat="43.46724" lon="6.40763">
        <ele>222</ele>
        <time>2022-04-08T13:08:14Z</time>
      </trkpt>
      <trkpt lat="43.46725" lon="6.40765">
        <ele>222</ele>
        <time>2022-04-08T13:08:15Z</time>
      </trkpt>
      <trkpt lat="43.46727" lon="6.40767">
        <ele>222</ele>
        <time>2022-04-08T13:08:16Z</time>
      </trkpt>
      <trkpt lat="43.46728" lon="6.40769">
        <ele>222</ele>
        <time>2022-04-08T13:08:17Z</time>
      </trkpt>
      <trkpt lat="43.46729" lon="6.40771">
        <ele>222</ele>
        <time>2022-04-08T13:08:18Z</time>
      </trkpt>
      <trkpt lat="43.4673" lon="6.40772">
        <ele>222</ele>
        <time>2022-04-08T13:08:19Z</time>
      </trkpt>
      <trkpt lat="43.46731" lon="6.40773">
        <ele>222</ele>
        <time>2022-04-08T13:08:20Z</time>
      </trkpt>
      <trkpt lat="43.46732" lon="6.40774">
        <ele>222</ele>
        <time>2022-04-08T13:08:21Z</time>
      </trkpt>
      <trkpt lat="43.46733" lon="6.40775">
        <ele>222</ele>
        <time>2022-04-08T13:08:22Z</time>
      </trkpt>
      <trkpt lat="43.46734" lon="6.40777">
        <ele>222</ele>
        <time>2022-04-08T13:08:23Z</time>
      </trkpt>
      <trkpt lat="43.46734" lon="6.40777">
        <ele>221</ele>
        <time>2022-04-08T13:08:24Z</time>
      </trkpt>
      <trkpt lat="43.46735" lon="6.40777">
        <ele>221</ele>
        <time>2022-04-08T13:08:25Z</time>
      </trkpt>
      <trkpt lat="43.46735" lon="6.40777">
        <ele>221</ele>
        <time>2022-04-08T13:08:26Z</time>
      </trkpt>
      <trkpt lat="43.46736" lon="6.40778">
        <ele>221</ele>
        <time>2022-04-08T13:08:27Z</time>
      </trkpt>
      <trkpt lat="43.46736" lon="6.40779">
        <ele>221</ele>
        <time>2022-04-08T13:08:28Z</time>
      </trkpt>
      <trkpt lat="43.46736" lon="6.40779">
        <ele>221</ele>
        <time>2022-04-08T13:08:29Z</time>
      </trkpt>
      <trkpt lat="43.46737" lon="6.4078">
        <ele>221</ele>
        <time>2022-04-08T13:08:30Z</time>
      </trkpt>
      <trkpt lat="43.46737" lon="6.40781">
        <ele>221</ele>
        <time>2022-04-08T13:08:31Z</time>
      </trkpt>
      <trkpt lat="43.46737" lon="6.40782">
        <ele>221</ele>
        <time>2022-04-08T13:08:32Z</time>
      </trkpt>
      <trkpt lat="43.46737" lon="6.40782">
        <ele>221</ele>
        <time>2022-04-08T13:08:33Z</time>
      </trkpt>
      <trkpt lat="43.46737" lon="6.40783">
        <ele>221</ele>
        <time>2022-04-08T13:08:34Z</time>
      </trkpt>
      <trkpt lat="43.46737" lon="6.40783">
        <ele>220</ele>
        <time>2022-04-08T13:08:35Z</time>
      </trkpt>
      <trkpt lat="43.46737" lon="6.40784">
        <ele>220</ele>
        <time>2022-04-08T13:08:36Z</time>
      </trkpt>
      <trkpt lat="43.46737" lon="6.40784">
        <ele>220</ele>
        <time>2022-04-08T13:08:37Z</time>
      </trkpt>
      <trkpt lat="43.46736" lon="6.40785">
        <ele>220</ele>
        <time>2022-04-08T13:08:38Z</time>
      </trkpt>
      <trkpt lat="43.46736" lon="6.40785">
        <ele>220</ele>
        <time>2022-04-08T13:08:39Z</time>
      </trkpt>
      <trkpt lat="43.46735" lon="6.40786">
        <ele>220</ele>
        <time>2022-04-08T13:08:40Z</time>
      </trkpt>
      <trkpt lat="43.46735" lon="6.40788">
        <ele>220</ele>
        <time>2022-04-08T13:08:41Z</time>
      </trkpt>
      <trkpt lat="43.46734" lon="6.40789">
        <ele>220</ele>
        <time>2022-04-08T13:08:42Z</time>
      </trkpt>
      <trkpt lat="43.46734" lon="6.40792">
        <ele>220</ele>
        <time>2022-04-08T13:08:43Z</time>
      </trkpt>
      <trkpt lat="43.46733" lon="6.40794">
        <ele>220</ele>
        <time>2022-04-08T13:08:44Z</time>
      </trkpt>
      <trkpt lat="43.46733" lon="6.40795">
        <ele>220</ele>
        <time>2022-04-08T13:08:45Z</time>
      </trkpt>
      <trkpt lat="43.46733" lon="6.40796">
        <ele>220</ele>
        <time>2022-04-08T13:08:46Z</time>
      </trkpt>
      <trkpt lat="43.46733" lon="6.40798">
        <ele>220</ele>
        <time>2022-04-08T13:08:47Z</time>
      </trkpt>
      <trkpt lat="43.46732" lon="6.40799">
        <ele>219</ele>
        <time>2022-04-08T13:08:48Z</time>
      </trkpt>
      <trkpt lat="43.46732" lon="6.408">
        <ele>219</ele>
        <time>2022-04-08T13:08:49Z</time>
      </trkpt>
      <trkpt lat="43.46731" lon="6.40801">
        <ele>219</ele>
        <time>2022-04-08T13:08:50Z</time>
      </trkpt>
      <trkpt lat="43.46731" lon="6.40802">
        <ele>219</ele>
        <time>2022-04-08T13:08:51Z</time>
      </trkpt>
      <trkpt lat="43.46731" lon="6.40802">
        <ele>219</ele>
        <time>2022-04-08T13:08:52Z</time>
      </trkpt>
      <trkpt lat="43.46731" lon="6.40803">
        <ele>219</ele>
        <time>2022-04-08T13:08:53Z</time>
      </trkpt>
      <trkpt lat="43.46731" lon="6.40804">
        <ele>219</ele>
        <time>2022-04-08T13:08:54Z</time>
      </trkpt>
      <trkpt lat="43.4673" lon="6.40805">
        <ele>219</ele>
        <time>2022-04-08T13:08:55Z</time>
      </trkpt>
      <trkpt lat="43.4673" lon="6.40805">
        <ele>219</ele>
        <time>2022-04-08T13:08:56Z</time>
      </trkpt>
      <trkpt lat="43.46731" lon="6.40806">
        <ele>219</ele>
        <time>2022-04-08T13:08:57Z</time>
      </trkpt>
      <trkpt lat="43.46731" lon="6.40807">
        <ele>219</ele>
        <time>2022-04-08T13:08:58Z</time>
      </trkpt>
      <trkpt lat="43.46732" lon="6.40808">
        <ele>218</ele>
        <time>2022-04-08T13:08:59Z</time>
      </trkpt>
      <trkpt lat="43.46732" lon="6.40809">
        <ele>218</ele>
        <time>2022-04-08T13:09:00Z</time>
      </trkpt>
      <trkpt lat="43.46731" lon="6.40809">
        <ele>218</ele>
        <time>2022-04-08T13:09:01Z</time>
      </trkpt>
      <trkpt lat="43.46731" lon="6.4081">
        <ele>218</ele>
        <time>2022-04-08T13:09:02Z</time>
      </trkpt>
      <trkpt lat="43.46731" lon="6.40811">
        <ele>218</ele>
        <time>2022-04-08T13:09:03Z</time>
      </trkpt>
      <trkpt lat="43.4673" lon="6.40812">
        <ele>218</ele>
        <time>2022-04-08T13:09:04Z</time>
      </trkpt>
      <trkpt lat="43.4673" lon="6.40813">
        <ele>218</ele>
        <time>2022-04-08T13:09:05Z</time>
      </trkpt>
      <trkpt lat="43.46729" lon="6.40814">
        <ele>218</ele>
        <time>2022-04-08T13:09:06Z</time>
      </trkpt>
      <trkpt lat="43.46728" lon="6.40816">
        <ele>218</ele>
        <time>2022-04-08T13:09:07Z</time>
      </trkpt>
      <trkpt lat="43.46727" lon="6.40817">
        <ele>218</ele>
        <time>2022-04-08T13:09:08Z</time>
      </trkpt>
      <trkpt lat="43.46727" lon="6.40818">
        <ele>218</ele>
        <time>2022-04-08T13:09:09Z</time>
      </trkpt>
      <trkpt lat="43.46726" lon="6.4082">
        <ele>218</ele>
        <time>2022-04-08T13:09:10Z</time>
      </trkpt>
      <trkpt lat="43.46726" lon="6.40822">
        <ele>218</ele>
        <time>2022-04-08T13:09:11Z</time>
      </trkpt>
      <trkpt lat="43.46725" lon="6.40823">
        <ele>218</ele>
        <time>2022-04-08T13:09:12Z</time>
      </trkpt>
      <trkpt lat="43.46725" lon="6.40826">
        <ele>218</ele>
        <time>2022-04-08T13:09:13Z</time>
      </trkpt>
      <trkpt lat="43.46724" lon="6.40828">
        <ele>218</ele>
        <time>2022-04-08T13:09:14Z</time>
      </trkpt>
      <trkpt lat="43.46724" lon="6.40829">
        <ele>218</ele>
        <time>2022-04-08T13:09:15Z</time>
      </trkpt>
      <trkpt lat="43.46724" lon="6.4083">
        <ele>217</ele>
        <time>2022-04-08T13:09:16Z</time>
      </trkpt>
      <trkpt lat="43.46723" lon="6.40831">
        <ele>216</ele>
        <time>2022-04-08T13:09:17Z</time>
      </trkpt>
      <trkpt lat="43.46723" lon="6.40832">
        <ele>216</ele>
        <time>2022-04-08T13:09:18Z</time>
      </trkpt>
      <trkpt lat="43.46723" lon="6.40833">
        <ele>215</ele>
        <time>2022-04-08T13:09:19Z</time>
      </trkpt>
      <trkpt lat="43.46723" lon="6.40834">
        <ele>215</ele>
        <time>2022-04-08T13:09:20Z</time>
      </trkpt>
      <trkpt lat="43.46723" lon="6.40836">
        <ele>215</ele>
        <time>2022-04-08T13:09:21Z</time>
      </trkpt>
      <trkpt lat="43.46723" lon="6.40837">
        <ele>215</ele>
        <time>2022-04-08T13:09:22Z</time>
      </trkpt>
      <trkpt lat="43.46723" lon="6.40839">
        <ele>215</ele>
        <time>2022-04-08T13:09:23Z</time>
      </trkpt>
      <trkpt lat="43.46723" lon="6.40841">
        <ele>215</ele>
        <time>2022-04-08T13:09:24Z</time>
      </trkpt>
      <trkpt lat="43.46722" lon="6.40843">
        <ele>215</ele>
        <time>2022-04-08T13:09:25Z</time>
      </trkpt>
      <trkpt lat="43.46722" lon="6.40844">
        <ele>215</ele>
        <time>2022-04-08T13:09:26Z</time>
      </trkpt>
      <trkpt lat="43.46722" lon="6.40845">
        <ele>215</ele>
        <time>2022-04-08T13:09:27Z</time>
      </trkpt>
      <trkpt lat="43.46722" lon="6.40846">
        <ele>214</ele>
        <time>2022-04-08T13:09:28Z</time>
      </trkpt>
      <trkpt lat="43.46722" lon="6.40846">
        <ele>213</ele>
        <time>2022-04-08T13:09:29Z</time>
      </trkpt>
      <trkpt lat="43.46722" lon="6.40847">
        <ele>213</ele>
        <time>2022-04-08T13:09:30Z</time>
      </trkpt>
      <trkpt lat="43.46721" lon="6.40848">
        <ele>213</ele>
        <time>2022-04-08T13:09:31Z</time>
      </trkpt>
      <trkpt lat="43.46721" lon="6.40849">
        <ele>213</ele>
        <time>2022-04-08T13:09:32Z</time>
      </trkpt>
      <trkpt lat="43.46721" lon="6.40849">
        <ele>213</ele>
        <time>2022-04-08T13:09:33Z</time>
      </trkpt>
      <trkpt lat="43.46721" lon="6.4085">
        <ele>213</ele>
        <time>2022-04-08T13:09:34Z</time>
      </trkpt>
      <trkpt lat="43.46721" lon="6.40851">
        <ele>212</ele>
        <time>2022-04-08T13:09:35Z</time>
      </trkpt>
      <trkpt lat="43.46721" lon="6.40852">
        <ele>212</ele>
        <time>2022-04-08T13:09:36Z</time>
      </trkpt>
      <trkpt lat="43.46721" lon="6.40853">
        <ele>212</ele>
        <time>2022-04-08T13:09:37Z</time>
      </trkpt>
      <trkpt lat="43.46721" lon="6.40854">
        <ele>212</ele>
        <time>2022-04-08T13:09:38Z</time>
      </trkpt>
      <trkpt lat="43.46721" lon="6.40856">
        <ele>212</ele>
        <time>2022-04-08T13:09:39Z</time>
      </trkpt>
      <trkpt lat="43.46721" lon="6.40857">
        <ele>212</ele>
        <time>2022-04-08T13:09:40Z</time>
      </trkpt>
      <trkpt lat="43.46721" lon="6.40858">
        <ele>212</ele>
        <time>2022-04-08T13:09:41Z</time>
      </trkpt>
      <trkpt lat="43.46721" lon="6.40859">
        <ele>212</ele>
        <time>2022-04-08T13:09:42Z</time>
      </trkpt>
      <trkpt lat="43.46721" lon="6.4086">
        <ele>212</ele>
        <time>2022-04-08T13:09:43Z</time>
      </trkpt>
      <trkpt lat="43.46721" lon="6.40861">
        <ele>212</ele>
        <time>2022-04-08T13:09:44Z</time>
      </trkpt>
      <trkpt lat="43.46721" lon="6.40862">
        <ele>211</ele>
        <time>2022-04-08T13:09:45Z</time>
      </trkpt>
      <trkpt lat="43.46721" lon="6.40863">
        <ele>211</ele>
        <time>2022-04-08T13:09:46Z</time>
      </trkpt>
      <trkpt lat="43.46721" lon="6.40864">
        <ele>211</ele>
        <time>2022-04-08T13:09:47Z</time>
      </trkpt>
      <trkpt lat="43.46721" lon="6.40865">
        <ele>211</ele>
        <time>2022-04-08T13:09:48Z</time>
      </trkpt>
      <trkpt lat="43.46721" lon="6.40866">
        <ele>211</ele>
        <time>2022-04-08T13:09:49Z</time>
      </trkpt>
      <trkpt lat="43.46721" lon="6.40867">
        <ele>211</ele>
        <time>2022-04-08T13:09:50Z</time>
      </trkpt>
      <trkpt lat="43.46721" lon="6.40868">
        <ele>211</ele>
        <time>2022-04-08T13:09:51Z</time>
      </trkpt>
      <trkpt lat="43.46721" lon="6.40868">
        <ele>211</ele>
        <time>2022-04-08T13:09:52Z</time>
      </trkpt>
      <trkpt lat="43.46721" lon="6.40869">
        <ele>211</ele>
        <time>2022-04-08T13:09:53Z</time>
      </trkpt>
      <trkpt lat="43.46721" lon="6.4087">
        <ele>211</ele>
        <time>2022-04-08T13:09:54Z</time>
      </trkpt>
      <trkpt lat="43.46721" lon="6.40871">
        <ele>211</ele>
        <time>2022-04-08T13:09:55Z</time>
      </trkpt>
      <trkpt lat="43.46721" lon="6.40872">
        <ele>211</ele>
        <time>2022-04-08T13:09:56Z</time>
      </trkpt>
      <trkpt lat="43.46721" lon="6.40873">
        <ele>211</ele>
        <time>2022-04-08T13:09:57Z</time>
      </trkpt>
      <trkpt lat="43.46721" lon="6.40874">
        <ele>210</ele>
        <time>2022-04-08T13:09:58Z</time>
      </trkpt>
      <trkpt lat="43.46721" lon="6.40876">
        <ele>210</ele>
        <time>2022-04-08T13:09:59Z</time>
      </trkpt>
      <trkpt lat="43.46721" lon="6.40878">
        <ele>210</ele>
        <time>2022-04-08T13:10:00Z</time>
      </trkpt>
      <trkpt lat="43.46721" lon="6.40879">
        <ele>210</ele>
        <time>2022-04-08T13:10:01Z</time>
      </trkpt>
      <trkpt lat="43.46721" lon="6.40881">
        <ele>209</ele>
        <time>2022-04-08T13:10:02Z</time>
      </trkpt>
      <trkpt lat="43.46721" lon="6.40882">
        <ele>209</ele>
        <time>2022-04-08T13:10:03Z</time>
      </trkpt>
      <trkpt lat="43.46721" lon="6.40883">
        <ele>209</ele>
        <time>2022-04-08T13:10:04Z</time>
      </trkpt>
      <trkpt lat="43.46722" lon="6.40883">
        <ele>209</ele>
        <time>2022-04-08T13:10:05Z</time>
      </trkpt>
      <trkpt lat="43.46722" lon="6.40884">
        <ele>209</ele>
        <time>2022-04-08T13:10:06Z</time>
      </trkpt>
      <trkpt lat="43.46723" lon="6.40884">
        <ele>209</ele>
        <time>2022-04-08T13:10:07Z</time>
      </trkpt>
      <trkpt lat="43.46724" lon="6.40885">
        <ele>209</ele>
        <time>2022-04-08T13:10:08Z</time>
      </trkpt>
      <trkpt lat="43.46724" lon="6.40885">
        <ele>208</ele>
        <time>2022-04-08T13:10:09Z</time>
      </trkpt>
      <trkpt lat="43.46724" lon="6.40885">
        <ele>208</ele>
        <time>2022-04-08T13:10:10Z</time>
      </trkpt>
      <trkpt lat="43.46724" lon="6.40885">
        <ele>208</ele>
        <time>2022-04-08T13:10:11Z</time>
      </trkpt>
      <trkpt lat="43.46724" lon="6.40885">
        <ele>209</ele>
        <time>2022-04-08T13:10:12Z</time>
      </trkpt>
      <trkpt lat="43.46725" lon="6.40885">
        <ele>209</ele>
        <time>2022-04-08T13:10:13Z</time>
      </trkpt>
      <trkpt lat="43.46725" lon="6.40885">
        <ele>209</ele>
        <time>2022-04-08T13:10:14Z</time>
      </trkpt>
      <trkpt lat="43.46726" lon="6.40886">
        <ele>209</ele>
        <time>2022-04-08T13:10:15Z</time>
      </trkpt>
      <trkpt lat="43.46727" lon="6.40886">
        <ele>209</ele>
        <time>2022-04-08T13:10:16Z</time>
      </trkpt>
      <trkpt lat="43.46727" lon="6.40886">
        <ele>209</ele>
        <time>2022-04-08T13:10:17Z</time>
      </trkpt>
      <trkpt lat="43.46728" lon="6.40887">
        <ele>209</ele>
        <time>2022-04-08T13:10:18Z</time>
      </trkpt>
      <trkpt lat="43.46728" lon="6.40887">
        <ele>209</ele>
        <time>2022-04-08T13:10:19Z</time>
      </trkpt>
      <trkpt lat="43.46729" lon="6.40887">
        <ele>209</ele>
        <time>2022-04-08T13:10:20Z</time>
      </trkpt>
      <trkpt lat="43.46729" lon="6.40887">
        <ele>209</ele>
        <time>2022-04-08T13:10:21Z</time>
      </trkpt>
      <trkpt lat="43.4673" lon="6.40887">
        <ele>209</ele>
        <time>2022-04-08T13:10:22Z</time>
      </trkpt>
      <trkpt lat="43.4673" lon="6.40887">
        <ele>209</ele>
        <time>2022-04-08T13:10:23Z</time>
      </trkpt>
      <trkpt lat="43.46731" lon="6.40887">
        <ele>209</ele>
        <time>2022-04-08T13:10:24Z</time>
      </trkpt>
      <trkpt lat="43.46731" lon="6.40887">
        <ele>209</ele>
        <time>2022-04-08T13:10:25Z</time>
      </trkpt>
      <trkpt lat="43.46732" lon="6.40887">
        <ele>209</ele>
        <time>2022-04-08T13:10:26Z</time>
      </trkpt>
      <trkpt lat="43.46733" lon="6.40887">
        <ele>209</ele>
        <time>2022-04-08T13:10:27Z</time>
      </trkpt>
      <trkpt lat="43.46733" lon="6.40887">
        <ele>209</ele>
        <time>2022-04-08T13:10:28Z</time>
      </trkpt>
      <trkpt lat="43.46734" lon="6.40887">
        <ele>209</ele>
        <time>2022-04-08T13:10:29Z</time>
      </trkpt>
      <trkpt lat="43.46734" lon="6.40887">
        <ele>209</ele>
        <time>2022-04-08T13:10:30Z</time>
      </trkpt>
      <trkpt lat="43.46734" lon="6.40887">
        <ele>209</ele>
        <time>2022-04-08T13:10:31Z</time>
      </trkpt>
      <trkpt lat="43.46734" lon="6.40887">
        <ele>209</ele>
        <time>2022-04-08T13:10:32Z</time>
      </trkpt>
      <trkpt lat="43.46734" lon="6.40887">
        <ele>209</ele>
        <time>2022-04-08T13:10:33Z</time>
      </trkpt>
      <trkpt lat="43.46734" lon="6.40887">
        <ele>208</ele>
        <time>2022-04-08T13:10:34Z</time>
      </trkpt>
      <trkpt lat="43.46735" lon="6.40887">
        <ele>209</ele>
        <time>2022-04-08T13:10:35Z</time>
      </trkpt>
      <trkpt lat="43.46735" lon="6.40887">
        <ele>209</ele>
        <time>2022-04-08T13:10:36Z</time>
      </trkpt>
      <trkpt lat="43.46736" lon="6.40887">
        <ele>209</ele>
        <time>2022-04-08T13:10:37Z</time>
      </trkpt>
      <trkpt lat="43.46736" lon="6.40887">
        <ele>209</ele>
        <time>2022-04-08T13:10:38Z</time>
      </trkpt>
      <trkpt lat="43.46737" lon="6.40887">
        <ele>209</ele>
        <time>2022-04-08T13:10:39Z</time>
      </trkpt>
      <trkpt lat="43.46737" lon="6.40887">
        <ele>209</ele>
        <time>2022-04-08T13:10:40Z</time>
      </trkpt>
      <trkpt lat="43.46737" lon="6.40887">
        <ele>209</ele>
        <time>2022-04-08T13:10:41Z</time>
      </trkpt>
      <trkpt lat="43.46738" lon="6.40887">
        <ele>209</ele>
        <time>2022-04-08T13:10:42Z</time>
      </trkpt>
      <trkpt lat="43.46738" lon="6.40887">
        <ele>209</ele>
        <time>2022-04-08T13:10:43Z</time>
      </trkpt>
      <trkpt lat="43.46738" lon="6.40887">
        <ele>209</ele>
        <time>2022-04-08T13:10:44Z</time>
      </trkpt>
      <trkpt lat="43.46739" lon="6.40886">
        <ele>209</ele>
        <time>2022-04-08T13:10:45Z</time>
      </trkpt>
      <trkpt lat="43.46739" lon="6.40886">
        <ele>209</ele>
        <time>2022-04-08T13:10:46Z</time>
      </trkpt>
      <trkpt lat="43.4674" lon="6.40886">
        <ele>208</ele>
        <time>2022-04-08T13:10:47Z</time>
      </trkpt>
      <trkpt lat="43.46741" lon="6.40886">
        <ele>208</ele>
        <time>2022-04-08T13:10:48Z</time>
      </trkpt>
      <trkpt lat="43.46742" lon="6.40885">
        <ele>208</ele>
        <time>2022-04-08T13:10:49Z</time>
      </trkpt>
      <trkpt lat="43.46743" lon="6.40885">
        <ele>208</ele>
        <time>2022-04-08T13:10:50Z</time>
      </trkpt>
      <trkpt lat="43.46745" lon="6.40884">
        <ele>208</ele>
        <time>2022-04-08T13:10:51Z</time>
      </trkpt>
      <trkpt lat="43.46746" lon="6.40884">
        <ele>209</ele>
        <time>2022-04-08T13:10:52Z</time>
      </trkpt>
      <trkpt lat="43.46747" lon="6.40884">
        <ele>209</ele>
        <time>2022-04-08T13:10:53Z</time>
      </trkpt>
      <trkpt lat="43.46748" lon="6.40884">
        <ele>209</ele>
        <time>2022-04-08T13:10:54Z</time>
      </trkpt>
      <trkpt lat="43.46749" lon="6.40884">
        <ele>210</ele>
        <time>2022-04-08T13:10:55Z</time>
      </trkpt>
      <trkpt lat="43.4675" lon="6.40884">
        <ele>210</ele>
        <time>2022-04-08T13:10:56Z</time>
      </trkpt>
      <trkpt lat="43.46752" lon="6.40883">
        <ele>210</ele>
        <time>2022-04-08T13:10:57Z</time>
      </trkpt>
      <trkpt lat="43.46754" lon="6.40883">
        <ele>210</ele>
        <time>2022-04-08T13:10:58Z</time>
      </trkpt>
      <trkpt lat="43.46755" lon="6.40883">
        <ele>210</ele>
        <time>2022-04-08T13:10:59Z</time>
      </trkpt>
      <trkpt lat="43.46756" lon="6.40883">
        <ele>210</ele>
        <time>2022-04-08T13:11:00Z</time>
      </trkpt>
      <trkpt lat="43.46757" lon="6.40883">
        <ele>211</ele>
        <time>2022-04-08T13:11:01Z</time>
      </trkpt>
      <trkpt lat="43.46757" lon="6.40882">
        <ele>211</ele>
        <time>2022-04-08T13:11:02Z</time>
      </trkpt>
      <trkpt lat="43.46758" lon="6.40882">
        <ele>210</ele>
        <time>2022-04-08T13:11:03Z</time>
      </trkpt>
      <trkpt lat="43.46759" lon="6.40882">
        <ele>210</ele>
        <time>2022-04-08T13:11:04Z</time>
      </trkpt>
      <trkpt lat="43.46761" lon="6.40882">
        <ele>210</ele>
        <time>2022-04-08T13:11:05Z</time>
      </trkpt>
      <trkpt lat="43.46762" lon="6.40882">
        <ele>210</ele>
        <time>2022-04-08T13:11:06Z</time>
      </trkpt>
      <trkpt lat="43.46764" lon="6.40881">
        <ele>210</ele>
        <time>2022-04-08T13:11:07Z</time>
      </trkpt>
      <trkpt lat="43.46765" lon="6.40881">
        <ele>210</ele>
        <time>2022-04-08T13:11:08Z</time>
      </trkpt>
      <trkpt lat="43.46766" lon="6.40881">
        <ele>209</ele>
        <time>2022-04-08T13:11:09Z</time>
      </trkpt>
      <trkpt lat="43.46767" lon="6.4088">
        <ele>209</ele>
        <time>2022-04-08T13:11:10Z</time>
      </trkpt>
      <trkpt lat="43.46768" lon="6.4088">
        <ele>209</ele>
        <time>2022-04-08T13:11:11Z</time>
      </trkpt>
      <trkpt lat="43.46768" lon="6.4088">
        <ele>209</ele>
        <time>2022-04-08T13:11:12Z</time>
      </trkpt>
      <trkpt lat="43.46769" lon="6.4088">
        <ele>209</ele>
        <time>2022-04-08T13:11:13Z</time>
      </trkpt>
      <trkpt lat="43.4677" lon="6.40879">
        <ele>209</ele>
        <time>2022-04-08T13:11:14Z</time>
      </trkpt>
      <trkpt lat="43.4677" lon="6.40879">
        <ele>209</ele>
        <time>2022-04-08T13:11:15Z</time>
      </trkpt>
      <trkpt lat="43.46771" lon="6.40878">
        <ele>209</ele>
        <time>2022-04-08T13:11:16Z</time>
      </trkpt>
      <trkpt lat="43.46772" lon="6.40878">
        <ele>209</ele>
        <time>2022-04-08T13:11:17Z</time>
      </trkpt>
      <trkpt lat="43.46773" lon="6.40877">
        <ele>209</ele>
        <time>2022-04-08T13:11:18Z</time>
      </trkpt>
      <trkpt lat="43.46774" lon="6.40877">
        <ele>209</ele>
        <time>2022-04-08T13:11:19Z</time>
      </trkpt>
      <trkpt lat="43.46775" lon="6.40877">
        <ele>210</ele>
        <time>2022-04-08T13:11:20Z</time>
      </trkpt>
      <trkpt lat="43.46776" lon="6.40876">
        <ele>210</ele>
        <time>2022-04-08T13:11:21Z</time>
      </trkpt>
      <trkpt lat="43.46776" lon="6.40876">
        <ele>210</ele>
        <time>2022-04-08T13:11:22Z</time>
      </trkpt>
      <trkpt lat="43.46777" lon="6.40876">
        <ele>210</ele>
        <time>2022-04-08T13:11:23Z</time>
      </trkpt>
      <trkpt lat="43.46778" lon="6.40875">
        <ele>210</ele>
        <time>2022-04-08T13:11:24Z</time>
      </trkpt>
      <trkpt lat="43.46779" lon="6.40875">
        <ele>211</ele>
        <time>2022-04-08T13:11:25Z</time>
      </trkpt>
      <trkpt lat="43.4678" lon="6.40875">
        <ele>211</ele>
        <time>2022-04-08T13:11:26Z</time>
      </trkpt>
      <trkpt lat="43.46781" lon="6.40874">
        <ele>210</ele>
        <time>2022-04-08T13:11:27Z</time>
      </trkpt>
      <trkpt lat="43.46782" lon="6.40874">
        <ele>210</ele>
        <time>2022-04-08T13:11:28Z</time>
      </trkpt>
      <trkpt lat="43.46783" lon="6.40873">
        <ele>210</ele>
        <time>2022-04-08T13:11:29Z</time>
      </trkpt>
      <trkpt lat="43.46785" lon="6.40873">
        <ele>209</ele>
        <time>2022-04-08T13:11:30Z</time>
      </trkpt>
      <trkpt lat="43.46787" lon="6.40873">
        <ele>208</ele>
        <time>2022-04-08T13:11:31Z</time>
      </trkpt>
      <trkpt lat="43.46788" lon="6.40873">
        <ele>208</ele>
        <time>2022-04-08T13:11:32Z</time>
      </trkpt>
      <trkpt lat="43.46788" lon="6.40872">
        <ele>208</ele>
        <time>2022-04-08T13:11:33Z</time>
      </trkpt>
      <trkpt lat="43.46789" lon="6.40872">
        <ele>207</ele>
        <time>2022-04-08T13:11:34Z</time>
      </trkpt>
      <trkpt lat="43.4679" lon="6.40872">
        <ele>207</ele>
        <time>2022-04-08T13:11:35Z</time>
      </trkpt>
      <trkpt lat="43.4679" lon="6.40872">
        <ele>207</ele>
        <time>2022-04-08T13:11:36Z</time>
      </trkpt>
      <trkpt lat="43.46791" lon="6.40872">
        <ele>207</ele>
        <time>2022-04-08T13:11:37Z</time>
      </trkpt>
      <trkpt lat="43.46791" lon="6.40872">
        <ele>207</ele>
        <time>2022-04-08T13:11:38Z</time>
      </trkpt>
      <trkpt lat="43.46791" lon="6.40872">
        <ele>207</ele>
        <time>2022-04-08T13:11:39Z</time>
      </trkpt>
      <trkpt lat="43.46791" lon="6.40872">
        <ele>207</ele>
        <time>2022-04-08T13:11:40Z</time>
      </trkpt>
      <trkpt lat="43.46791" lon="6.40871">
        <ele>207</ele>
        <time>2022-04-08T13:11:41Z</time>
      </trkpt>
      <trkpt lat="43.46792" lon="6.40871">
        <ele>207</ele>
        <time>2022-04-08T13:11:42Z</time>
      </trkpt>
      <trkpt lat="43.46792" lon="6.40871">
        <ele>207</ele>
        <time>2022-04-08T13:11:43Z</time>
      </trkpt>
      <trkpt lat="43.46793" lon="6.40871">
        <ele>206</ele>
        <time>2022-04-08T13:11:44Z</time>
      </trkpt>
      <trkpt lat="43.46794" lon="6.40871">
        <ele>206</ele>
        <time>2022-04-08T13:11:45Z</time>
      </trkpt>
      <trkpt lat="43.46796" lon="6.4087">
        <ele>206</ele>
        <time>2022-04-08T13:11:46Z</time>
      </trkpt>
      <trkpt lat="43.46796" lon="6.4087">
        <ele>206</ele>
        <time>2022-04-08T13:11:47Z</time>
      </trkpt>
      <trkpt lat="43.46797" lon="6.4087">
        <ele>205</ele>
        <time>2022-04-08T13:11:48Z</time>
      </trkpt>
      <trkpt lat="43.46797" lon="6.4087">
        <ele>205</ele>
        <time>2022-04-08T13:11:49Z</time>
      </trkpt>
      <trkpt lat="43.46797" lon="6.4087">
        <ele>205</ele>
        <time>2022-04-08T13:11:50Z</time>
      </trkpt>
      <trkpt lat="43.46797" lon="6.4087">
        <ele>205</ele>
        <time>2022-04-08T13:11:51Z</time>
      </trkpt>
      <trkpt lat="43.46798" lon="6.4087">
        <ele>205</ele>
        <time>2022-04-08T13:11:52Z</time>
      </trkpt>
      <trkpt lat="43.46798" lon="6.4087">
        <ele>205</ele>
        <time>2022-04-08T13:11:53Z</time>
      </trkpt>
      <trkpt lat="43.46799" lon="6.40869">
        <ele>205</ele>
        <time>2022-04-08T13:11:54Z</time>
      </trkpt>
      <trkpt lat="43.46799" lon="6.40869">
        <ele>205</ele>
        <time>2022-04-08T13:11:55Z</time>
      </trkpt>
      <trkpt lat="43.468" lon="6.40869">
        <ele>205</ele>
        <time>2022-04-08T13:11:56Z</time>
      </trkpt>
      <trkpt lat="43.468" lon="6.40869">
        <ele>205</ele>
        <time>2022-04-08T13:11:57Z</time>
      </trkpt>
      <trkpt lat="43.46801" lon="6.40869">
        <ele>205</ele>
        <time>2022-04-08T13:11:58Z</time>
      </trkpt>
      <trkpt lat="43.46801" lon="6.40868">
        <ele>205</ele>
        <time>2022-04-08T13:11:59Z</time>
      </trkpt>
      <trkpt lat="43.46802" lon="6.40868">
        <ele>205</ele>
        <time>2022-04-08T13:12:00Z</time>
      </trkpt>
      <trkpt lat="43.46803" lon="6.40868">
        <ele>205</ele>
        <time>2022-04-08T13:12:01Z</time>
      </trkpt>
      <trkpt lat="43.46803" lon="6.40867">
        <ele>206</ele>
        <time>2022-04-08T13:12:02Z</time>
      </trkpt>
      <trkpt lat="43.46803" lon="6.40867">
        <ele>206</ele>
        <time>2022-04-08T13:12:03Z</time>
      </trkpt>
      <trkpt lat="43.46804" lon="6.40867">
        <ele>206</ele>
        <time>2022-04-08T13:12:04Z</time>
      </trkpt>
      <trkpt lat="43.46805" lon="6.40866">
        <ele>206</ele>
        <time>2022-04-08T13:12:05Z</time>
      </trkpt>
      <trkpt lat="43.46805" lon="6.40866">
        <ele>206</ele>
        <time>2022-04-08T13:12:06Z</time>
      </trkpt>
      <trkpt lat="43.46806" lon="6.40865">
        <ele>205</ele>
        <time>2022-04-08T13:12:07Z</time>
      </trkpt>
      <trkpt lat="43.46806" lon="6.40865">
        <ele>205</ele>
        <time>2022-04-08T13:12:08Z</time>
      </trkpt>
      <trkpt lat="43.46807" lon="6.40865">
        <ele>205</ele>
        <time>2022-04-08T13:12:09Z</time>
      </trkpt>
      <trkpt lat="43.46807" lon="6.40865">
        <ele>205</ele>
        <time>2022-04-08T13:12:10Z</time>
      </trkpt>
      <trkpt lat="43.46808" lon="6.40864">
        <ele>205</ele>
        <time>2022-04-08T13:12:11Z</time>
      </trkpt>
      <trkpt lat="43.46808" lon="6.40864">
        <ele>205</ele>
        <time>2022-04-08T13:12:12Z</time>
      </trkpt>
      <trkpt lat="43.46809" lon="6.40864">
        <ele>205</ele>
        <time>2022-04-08T13:12:13Z</time>
      </trkpt>
      <trkpt lat="43.4681" lon="6.40864">
        <ele>205</ele>
        <time>2022-04-08T13:12:14Z</time>
      </trkpt>
      <trkpt lat="43.46811" lon="6.40864">
        <ele>205</ele>
        <time>2022-04-08T13:12:15Z</time>
      </trkpt>
      <trkpt lat="43.46811" lon="6.40864">
        <ele>205</ele>
        <time>2022-04-08T13:12:16Z</time>
      </trkpt>
      <trkpt lat="43.46812" lon="6.40864">
        <ele>204</ele>
        <time>2022-04-08T13:12:17Z</time>
      </trkpt>
      <trkpt lat="43.46812" lon="6.40865">
        <ele>204</ele>
        <time>2022-04-08T13:12:18Z</time>
      </trkpt>
      <trkpt lat="43.46813" lon="6.40865">
        <ele>204</ele>
        <time>2022-04-08T13:12:19Z</time>
      </trkpt>
      <trkpt lat="43.46813" lon="6.40865">
        <ele>204</ele>
        <time>2022-04-08T13:12:20Z</time>
      </trkpt>
      <trkpt lat="43.46813" lon="6.40865">
        <ele>204</ele>
        <time>2022-04-08T13:12:21Z</time>
      </trkpt>
      <trkpt lat="43.46813" lon="6.40866">
        <ele>203</ele>
        <time>2022-04-08T13:12:22Z</time>
      </trkpt>
      <trkpt lat="43.46814" lon="6.40866">
        <ele>203</ele>
        <time>2022-04-08T13:12:23Z</time>
      </trkpt>
      <trkpt lat="43.46814" lon="6.40866">
        <ele>203</ele>
        <time>2022-04-08T13:12:24Z</time>
      </trkpt>
      <trkpt lat="43.46815" lon="6.40867">
        <ele>203</ele>
        <time>2022-04-08T13:12:25Z</time>
      </trkpt>
      <trkpt lat="43.46815" lon="6.40868">
        <ele>200</ele>
        <time>2022-04-08T13:12:26Z</time>
      </trkpt>
      <trkpt lat="43.46816" lon="6.40868">
        <ele>199</ele>
        <time>2022-04-08T13:12:27Z</time>
      </trkpt>
      <trkpt lat="43.46816" lon="6.40869">
        <ele>198</ele>
        <time>2022-04-08T13:12:28Z</time>
      </trkpt>
      <trkpt lat="43.46816" lon="6.40869">
        <ele>197</ele>
        <time>2022-04-08T13:12:29Z</time>
      </trkpt>
      <trkpt lat="43.46816" lon="6.4087">
        <ele>197</ele>
        <time>2022-04-08T13:12:30Z</time>
      </trkpt>
      <trkpt lat="43.46816" lon="6.4087">
        <ele>196</ele>
        <time>2022-04-08T13:12:31Z</time>
      </trkpt>
      <trkpt lat="43.46817" lon="6.40871">
        <ele>196</ele>
        <time>2022-04-08T13:12:32Z</time>
      </trkpt>
      <trkpt lat="43.46817" lon="6.40872">
        <ele>196</ele>
        <time>2022-04-08T13:12:33Z</time>
      </trkpt>
      <trkpt lat="43.46818" lon="6.40873">
        <ele>195</ele>
        <time>2022-04-08T13:12:34Z</time>
      </trkpt>
      <trkpt lat="43.46819" lon="6.40874">
        <ele>195</ele>
        <time>2022-04-08T13:12:35Z</time>
      </trkpt>
      <trkpt lat="43.46819" lon="6.40875">
        <ele>195</ele>
        <time>2022-04-08T13:12:36Z</time>
      </trkpt>
      <trkpt lat="43.4682" lon="6.40876">
        <ele>195</ele>
        <time>2022-04-08T13:12:37Z</time>
      </trkpt>
      <trkpt lat="43.4682" lon="6.40877">
        <ele>195</ele>
        <time>2022-04-08T13:12:38Z</time>
      </trkpt>
      <trkpt lat="43.46821" lon="6.40877">
        <ele>194</ele>
        <time>2022-04-08T13:12:39Z</time>
      </trkpt>
      <trkpt lat="43.46821" lon="6.40878">
        <ele>193</ele>
        <time>2022-04-08T13:12:40Z</time>
      </trkpt>
      <trkpt lat="43.46821" lon="6.40878">
        <ele>193</ele>
        <time>2022-04-08T13:12:41Z</time>
      </trkpt>
      <trkpt lat="43.46822" lon="6.40879">
        <ele>193</ele>
        <time>2022-04-08T13:12:42Z</time>
      </trkpt>
      <trkpt lat="43.46822" lon="6.40879">
        <ele>193</ele>
        <time>2022-04-08T13:12:43Z</time>
      </trkpt>
      <trkpt lat="43.46822" lon="6.4088">
        <ele>193</ele>
        <time>2022-04-08T13:12:44Z</time>
      </trkpt>
      <trkpt lat="43.46823" lon="6.40881">
        <ele>192</ele>
        <time>2022-04-08T13:12:45Z</time>
      </trkpt>
      <trkpt lat="43.46824" lon="6.40882">
        <ele>192</ele>
        <time>2022-04-08T13:12:46Z</time>
      </trkpt>
      <trkpt lat="43.46824" lon="6.40884">
        <ele>192</ele>
        <time>2022-04-08T13:12:47Z</time>
      </trkpt>
      <trkpt lat="43.46825" lon="6.40884">
        <ele>192</ele>
        <time>2022-04-08T13:12:48Z</time>
      </trkpt>
      <trkpt lat="43.46825" lon="6.40885">
        <ele>192</ele>
        <time>2022-04-08T13:12:49Z</time>
      </trkpt>
      <trkpt lat="43.46826" lon="6.40886">
        <ele>192</ele>
        <time>2022-04-08T13:12:50Z</time>
      </trkpt>
      <trkpt lat="43.46827" lon="6.40888">
        <ele>192</ele>
        <time>2022-04-08T13:12:51Z</time>
      </trkpt>
      <trkpt lat="43.46829" lon="6.40889">
        <ele>192</ele>
        <time>2022-04-08T13:12:52Z</time>
      </trkpt>
      <trkpt lat="43.4683" lon="6.40891">
        <ele>192</ele>
        <time>2022-04-08T13:12:53Z</time>
      </trkpt>
      <trkpt lat="43.46831" lon="6.40892">
        <ele>192</ele>
        <time>2022-04-08T13:12:54Z</time>
      </trkpt>
      <trkpt lat="43.46831" lon="6.40892">
        <ele>192</ele>
        <time>2022-04-08T13:12:55Z</time>
      </trkpt>
      <trkpt lat="43.46831" lon="6.40892">
        <ele>192</ele>
        <time>2022-04-08T13:12:56Z</time>
      </trkpt>
      <trkpt lat="43.46832" lon="6.40892">
        <ele>192</ele>
        <time>2022-04-08T13:12:57Z</time>
      </trkpt>
      <trkpt lat="43.46832" lon="6.40893">
        <ele>192</ele>
        <time>2022-04-08T13:12:58Z</time>
      </trkpt>
      <trkpt lat="43.46832" lon="6.40893">
        <ele>192</ele>
        <time>2022-04-08T13:12:59Z</time>
      </trkpt>
      <trkpt lat="43.46832" lon="6.40893">
        <ele>192</ele>
        <time>2022-04-08T13:13:00Z</time>
      </trkpt>
      <trkpt lat="43.46832" lon="6.40893">
        <ele>192</ele>
        <time>2022-04-08T13:13:01Z</time>
      </trkpt>
      <trkpt lat="43.46833" lon="6.40894">
        <ele>192</ele>
        <time>2022-04-08T13:13:02Z</time>
      </trkpt>
      <trkpt lat="43.46833" lon="6.40894">
        <ele>192</ele>
        <time>2022-04-08T13:13:03Z</time>
      </trkpt>
      <trkpt lat="43.46833" lon="6.40894">
        <ele>192</ele>
        <time>2022-04-08T13:13:04Z</time>
      </trkpt>
      <trkpt lat="43.46833" lon="6.40894">
        <ele>192</ele>
        <time>2022-04-08T13:13:05Z</time>
      </trkpt>
      <trkpt lat="43.46833" lon="6.40895">
        <ele>192</ele>
        <time>2022-04-08T13:13:06Z</time>
      </trkpt>
      <trkpt lat="43.46834" lon="6.40895">
        <ele>192</ele>
        <time>2022-04-08T13:13:07Z</time>
      </trkpt>
      <trkpt lat="43.46834" lon="6.40895">
        <ele>192</ele>
        <time>2022-04-08T13:13:08Z</time>
      </trkpt>
      <trkpt lat="43.46834" lon="6.40896">
        <ele>192</ele>
        <time>2022-04-08T13:13:09Z</time>
      </trkpt>
      <trkpt lat="43.46834" lon="6.40896">
        <ele>192</ele>
        <time>2022-04-08T13:13:10Z</time>
      </trkpt>
      <trkpt lat="43.46834" lon="6.40896">
        <ele>192</ele>
        <time>2022-04-08T13:13:11Z</time>
      </trkpt>
      <trkpt lat="43.46835" lon="6.40897">
        <ele>192</ele>
        <time>2022-04-08T13:13:12Z</time>
      </trkpt>
      <trkpt lat="43.46835" lon="6.40897">
        <ele>192</ele>
        <time>2022-04-08T13:13:13Z</time>
      </trkpt>
      <trkpt lat="43.46835" lon="6.40898">
        <ele>192</ele>
        <time>2022-04-08T13:13:14Z</time>
      </trkpt>
      <trkpt lat="43.46835" lon="6.40898">
        <ele>192</ele>
        <time>2022-04-08T13:13:15Z</time>
      </trkpt>
      <trkpt lat="43.46836" lon="6.40899">
        <ele>192</ele>
        <time>2022-04-08T13:13:16Z</time>
      </trkpt>
      <trkpt lat="43.46836" lon="6.409">
        <ele>191</ele>
        <time>2022-04-08T13:13:17Z</time>
      </trkpt>
      <trkpt lat="43.46836" lon="6.409">
        <ele>191</ele>
        <time>2022-04-08T13:13:18Z</time>
      </trkpt>
      <trkpt lat="43.46836" lon="6.40901">
        <ele>191</ele>
        <time>2022-04-08T13:13:19Z</time>
      </trkpt>
      <trkpt lat="43.46837" lon="6.40902">
        <ele>191</ele>
        <time>2022-04-08T13:13:20Z</time>
      </trkpt>
      <trkpt lat="43.46837" lon="6.40902">
        <ele>191</ele>
        <time>2022-04-08T13:13:21Z</time>
      </trkpt>
      <trkpt lat="43.46837" lon="6.40903">
        <ele>191</ele>
        <time>2022-04-08T13:13:22Z</time>
      </trkpt>
      <trkpt lat="43.46838" lon="6.40904">
        <ele>191</ele>
        <time>2022-04-08T13:13:23Z</time>
      </trkpt>
      <trkpt lat="43.46838" lon="6.40905">
        <ele>191</ele>
        <time>2022-04-08T13:13:24Z</time>
      </trkpt>
      <trkpt lat="43.46838" lon="6.40905">
        <ele>190</ele>
        <time>2022-04-08T13:13:25Z</time>
      </trkpt>
      <trkpt lat="43.46839" lon="6.40906">
        <ele>190</ele>
        <time>2022-04-08T13:13:26Z</time>
      </trkpt>
      <trkpt lat="43.46839" lon="6.40907">
        <ele>190</ele>
        <time>2022-04-08T13:13:27Z</time>
      </trkpt>
      <trkpt lat="43.46839" lon="6.40908">
        <ele>190</ele>
        <time>2022-04-08T13:13:28Z</time>
      </trkpt>
      <trkpt lat="43.4684" lon="6.40909">
        <ele>190</ele>
        <time>2022-04-08T13:13:29Z</time>
      </trkpt>
      <trkpt lat="43.4684" lon="6.4091">
        <ele>190</ele>
        <time>2022-04-08T13:13:30Z</time>
      </trkpt>
      <trkpt lat="43.46841" lon="6.40911">
        <ele>190</ele>
        <time>2022-04-08T13:13:31Z</time>
      </trkpt>
      <trkpt lat="43.46841" lon="6.40912">
        <ele>190</ele>
        <time>2022-04-08T13:13:32Z</time>
      </trkpt>
      <trkpt lat="43.46842" lon="6.40912">
        <ele>191</ele>
        <time>2022-04-08T13:13:33Z</time>
      </trkpt>
      <trkpt lat="43.46842" lon="6.40913">
        <ele>191</ele>
        <time>2022-04-08T13:13:34Z</time>
      </trkpt>
      <trkpt lat="43.46842" lon="6.40914">
        <ele>191</ele>
        <time>2022-04-08T13:13:35Z</time>
      </trkpt>
      <trkpt lat="43.46843" lon="6.40915">
        <ele>191</ele>
        <time>2022-04-08T13:13:36Z</time>
      </trkpt>
      <trkpt lat="43.46843" lon="6.40916">
        <ele>191</ele>
        <time>2022-04-08T13:13:37Z</time>
      </trkpt>
      <trkpt lat="43.46844" lon="6.40917">
        <ele>190</ele>
        <time>2022-04-08T13:13:38Z</time>
      </trkpt>
      <trkpt lat="43.46844" lon="6.40918">
        <ele>189</ele>
        <time>2022-04-08T13:13:39Z</time>
      </trkpt>
      <trkpt lat="43.46845" lon="6.4092">
        <ele>189</ele>
        <time>2022-04-08T13:13:40Z</time>
      </trkpt>
      <trkpt lat="43.46846" lon="6.40921">
        <ele>189</ele>
        <time>2022-04-08T13:13:41Z</time>
      </trkpt>
      <trkpt lat="43.46846" lon="6.40924">
        <ele>188</ele>
        <time>2022-04-08T13:13:42Z</time>
      </trkpt>
      <trkpt lat="43.46847" lon="6.40926">
        <ele>188</ele>
        <time>2022-04-08T13:13:43Z</time>
      </trkpt>
      <trkpt lat="43.46847" lon="6.40927">
        <ele>188</ele>
        <time>2022-04-08T13:13:44Z</time>
      </trkpt>
      <trkpt lat="43.46847" lon="6.40928">
        <ele>188</ele>
        <time>2022-04-08T13:13:45Z</time>
      </trkpt>
      <trkpt lat="43.46848" lon="6.40928">
        <ele>187</ele>
        <time>2022-04-08T13:13:46Z</time>
      </trkpt>
      <trkpt lat="43.46848" lon="6.40929">
        <ele>187</ele>
        <time>2022-04-08T13:13:47Z</time>
      </trkpt>
      <trkpt lat="43.46848" lon="6.40929">
        <ele>187</ele>
        <time>2022-04-08T13:13:48Z</time>
      </trkpt>
      <trkpt lat="43.46849" lon="6.4093">
        <ele>187</ele>
        <time>2022-04-08T13:13:49Z</time>
      </trkpt>
      <trkpt lat="43.4685" lon="6.40931">
        <ele>187</ele>
        <time>2022-04-08T13:13:50Z</time>
      </trkpt>
      <trkpt lat="43.4685" lon="6.40931">
        <ele>188</ele>
        <time>2022-04-08T13:13:51Z</time>
      </trkpt>
      <trkpt lat="43.46851" lon="6.40932">
        <ele>188</ele>
        <time>2022-04-08T13:13:52Z</time>
      </trkpt>
      <trkpt lat="43.46851" lon="6.40932">
        <ele>188</ele>
        <time>2022-04-08T13:13:53Z</time>
      </trkpt>
      <trkpt lat="43.46852" lon="6.40933">
        <ele>188</ele>
        <time>2022-04-08T13:13:54Z</time>
      </trkpt>
      <trkpt lat="43.46852" lon="6.40933">
        <ele>188</ele>
        <time>2022-04-08T13:13:55Z</time>
      </trkpt>
      <trkpt lat="43.46852" lon="6.40934">
        <ele>188</ele>
        <time>2022-04-08T13:13:56Z</time>
      </trkpt>
      <trkpt lat="43.46852" lon="6.40934">
        <ele>188</ele>
        <time>2022-04-08T13:13:57Z</time>
      </trkpt>
      <trkpt lat="43.46852" lon="6.40934">
        <ele>188</ele>
        <time>2022-04-08T13:13:58Z</time>
      </trkpt>
      <trkpt lat="43.46852" lon="6.40934">
        <ele>188</ele>
        <time>2022-04-08T13:13:59Z</time>
      </trkpt>
      <trkpt lat="43.46852" lon="6.40934">
        <ele>188</ele>
        <time>2022-04-08T13:14:00Z</time>
      </trkpt>
      <trkpt lat="43.46852" lon="6.40934">
        <ele>188</ele>
        <time>2022-04-08T13:14:01Z</time>
      </trkpt>
      <trkpt lat="43.46854" lon="6.40937">
        <ele>188</ele>
        <time>2022-04-08T13:14:02Z</time>
      </trkpt>
      <trkpt lat="43.46854" lon="6.40937">
        <ele>188</ele>
        <time>2022-04-08T13:14:03Z</time>
      </trkpt>
      <trkpt lat="43.46855" lon="6.40938">
        <ele>188</ele>
        <time>2022-04-08T13:14:04Z</time>
      </trkpt>
      <trkpt lat="43.46855" lon="6.40938">
        <ele>188</ele>
        <time>2022-04-08T13:14:05Z</time>
      </trkpt>
      <trkpt lat="43.46855" lon="6.40938">
        <ele>188</ele>
        <time>2022-04-08T13:14:06Z</time>
      </trkpt>
      <trkpt lat="43.46855" lon="6.40938">
        <ele>188</ele>
        <time>2022-04-08T13:14:07Z</time>
      </trkpt>
      <trkpt lat="43.46855" lon="6.40938">
        <ele>188</ele>
        <time>2022-04-08T13:14:08Z</time>
      </trkpt>
      <trkpt lat="43.46855" lon="6.40938">
        <ele>188</ele>
        <time>2022-04-08T13:14:09Z</time>
      </trkpt>
      <trkpt lat="43.46855" lon="6.40938">
        <ele>188</ele>
        <time>2022-04-08T13:14:10Z</time>
      </trkpt>
      <trkpt lat="43.46855" lon="6.40938">
        <ele>188</ele>
        <time>2022-04-08T13:14:11Z</time>
      </trkpt>
      <trkpt lat="43.46855" lon="6.40938">
        <ele>188</ele>
        <time>2022-04-08T13:14:12Z</time>
      </trkpt>
      <trkpt lat="43.46855" lon="6.40938">
        <ele>188</ele>
        <time>2022-04-08T13:14:13Z</time>
      </trkpt>
      <trkpt lat="43.46855" lon="6.40938">
        <ele>188</ele>
        <time>2022-04-08T13:14:14Z</time>
      </trkpt>
      <trkpt lat="43.46857" lon="6.40938">
        <ele>188</ele>
        <time>2022-04-08T13:14:15Z</time>
      </trkpt>
      <trkpt lat="43.46857" lon="6.40938">
        <ele>188</ele>
        <time>2022-04-08T13:14:16Z</time>
      </trkpt>
      <trkpt lat="43.46857" lon="6.40938">
        <ele>188</ele>
        <time>2022-04-08T13:14:17Z</time>
      </trkpt>
      <trkpt lat="43.46857" lon="6.40938">
        <ele>188</ele>
        <time>2022-04-08T13:14:18Z</time>
      </trkpt>
      <trkpt lat="43.46857" lon="6.40939">
        <ele>188</ele>
        <time>2022-04-08T13:14:19Z</time>
      </trkpt>
      <trkpt lat="43.46857" lon="6.40939">
        <ele>188</ele>
        <time>2022-04-08T13:14:20Z</time>
      </trkpt>
      <trkpt lat="43.46857" lon="6.40939">
        <ele>188</ele>
        <time>2022-04-08T13:14:21Z</time>
      </trkpt>
      <trkpt lat="43.46857" lon="6.4094">
        <ele>188</ele>
        <time>2022-04-08T13:14:22Z</time>
      </trkpt>
      <trkpt lat="43.46857" lon="6.4094">
        <ele>188</ele>
        <time>2022-04-08T13:14:23Z</time>
      </trkpt>
      <trkpt lat="43.46857" lon="6.40941">
        <ele>188</ele>
        <time>2022-04-08T13:14:24Z</time>
      </trkpt>
      <trkpt lat="43.46858" lon="6.40942">
        <ele>188</ele>
        <time>2022-04-08T13:14:25Z</time>
      </trkpt>
      <trkpt lat="43.46858" lon="6.40943">
        <ele>189</ele>
        <time>2022-04-08T13:14:26Z</time>
      </trkpt>
      <trkpt lat="43.46859" lon="6.40944">
        <ele>189</ele>
        <time>2022-04-08T13:14:27Z</time>
      </trkpt>
      <trkpt lat="43.46859" lon="6.40945">
        <ele>189</ele>
        <time>2022-04-08T13:14:28Z</time>
      </trkpt>
      <trkpt lat="43.46859" lon="6.40946">
        <ele>189</ele>
        <time>2022-04-08T13:14:29Z</time>
      </trkpt>
      <trkpt lat="43.46859" lon="6.40946">
        <ele>189</ele>
        <time>2022-04-08T13:14:30Z</time>
      </trkpt>
      <trkpt lat="43.46859" lon="6.40947">
        <ele>189</ele>
        <time>2022-04-08T13:14:31Z</time>
      </trkpt>
      <trkpt lat="43.46859" lon="6.40948">
        <ele>189</ele>
        <time>2022-04-08T13:14:32Z</time>
      </trkpt>
      <trkpt lat="43.4686" lon="6.40949">
        <ele>189</ele>
        <time>2022-04-08T13:14:33Z</time>
      </trkpt>
      <trkpt lat="43.4686" lon="6.4095">
        <ele>189</ele>
        <time>2022-04-08T13:14:34Z</time>
      </trkpt>
      <trkpt lat="43.4686" lon="6.40952">
        <ele>189</ele>
        <time>2022-04-08T13:14:35Z</time>
      </trkpt>
      <trkpt lat="43.46861" lon="6.40953">
        <ele>189</ele>
        <time>2022-04-08T13:14:36Z</time>
      </trkpt>
      <trkpt lat="43.46861" lon="6.40954">
        <ele>188</ele>
        <time>2022-04-08T13:14:37Z</time>
      </trkpt>
      <trkpt lat="43.46861" lon="6.40954">
        <ele>188</ele>
        <time>2022-04-08T13:14:38Z</time>
      </trkpt>
      <trkpt lat="43.46861" lon="6.40955">
        <ele>188</ele>
        <time>2022-04-08T13:14:39Z</time>
      </trkpt>
      <trkpt lat="43.46861" lon="6.40955">
        <ele>188</ele>
        <time>2022-04-08T13:14:40Z</time>
      </trkpt>
      <trkpt lat="43.46861" lon="6.40956">
        <ele>187</ele>
        <time>2022-04-08T13:14:41Z</time>
      </trkpt>
      <trkpt lat="43.46861" lon="6.40956">
        <ele>187</ele>
        <time>2022-04-08T13:14:42Z</time>
      </trkpt>
      <trkpt lat="43.46861" lon="6.40957">
        <ele>186</ele>
        <time>2022-04-08T13:14:43Z</time>
      </trkpt>
      <trkpt lat="43.46862" lon="6.40957">
        <ele>186</ele>
        <time>2022-04-08T13:14:44Z</time>
      </trkpt>
      <trkpt lat="43.46862" lon="6.40958">
        <ele>186</ele>
        <time>2022-04-08T13:14:45Z</time>
      </trkpt>
      <trkpt lat="43.46862" lon="6.40958">
        <ele>186</ele>
        <time>2022-04-08T13:14:46Z</time>
      </trkpt>
      <trkpt lat="43.46863" lon="6.40958">
        <ele>186</ele>
        <time>2022-04-08T13:14:47Z</time>
      </trkpt>
      <trkpt lat="43.46863" lon="6.40959">
        <ele>186</ele>
        <time>2022-04-08T13:14:48Z</time>
      </trkpt>
      <trkpt lat="43.46863" lon="6.40959">
        <ele>185</ele>
        <time>2022-04-08T13:14:49Z</time>
      </trkpt>
      <trkpt lat="43.46864" lon="6.4096">
        <ele>185</ele>
        <time>2022-04-08T13:14:50Z</time>
      </trkpt>
      <trkpt lat="43.46864" lon="6.4096">
        <ele>185</ele>
        <time>2022-04-08T13:14:51Z</time>
      </trkpt>
      <trkpt lat="43.46864" lon="6.40961">
        <ele>185</ele>
        <time>2022-04-08T13:14:52Z</time>
      </trkpt>
      <trkpt lat="43.46865" lon="6.40962">
        <ele>185</ele>
        <time>2022-04-08T13:14:53Z</time>
      </trkpt>
      <trkpt lat="43.46866" lon="6.40963">
        <ele>185</ele>
        <time>2022-04-08T13:14:54Z</time>
      </trkpt>
      <trkpt lat="43.46867" lon="6.40964">
        <ele>185</ele>
        <time>2022-04-08T13:14:55Z</time>
      </trkpt>
      <trkpt lat="43.46867" lon="6.40965">
        <ele>185</ele>
        <time>2022-04-08T13:14:56Z</time>
      </trkpt>
      <trkpt lat="43.46867" lon="6.40965">
        <ele>185</ele>
        <time>2022-04-08T13:14:57Z</time>
      </trkpt>
      <trkpt lat="43.46868" lon="6.40966">
        <ele>185</ele>
        <time>2022-04-08T13:14:58Z</time>
      </trkpt>
      <trkpt lat="43.46868" lon="6.40966">
        <ele>185</ele>
        <time>2022-04-08T13:14:59Z</time>
      </trkpt>
      <trkpt lat="43.46868" lon="6.40967">
        <ele>185</ele>
        <time>2022-04-08T13:15:00Z</time>
      </trkpt>
      <trkpt lat="43.46868" lon="6.40967">
        <ele>185</ele>
        <time>2022-04-08T13:15:01Z</time>
      </trkpt>
      <trkpt lat="43.46868" lon="6.40968">
        <ele>185</ele>
        <time>2022-04-08T13:15:02Z</time>
      </trkpt>
      <trkpt lat="43.46869" lon="6.40969">
        <ele>185</ele>
        <time>2022-04-08T13:15:03Z</time>
      </trkpt>
      <trkpt lat="43.46869" lon="6.4097">
        <ele>184</ele>
        <time>2022-04-08T13:15:04Z</time>
      </trkpt>
      <trkpt lat="43.46869" lon="6.40971">
        <ele>184</ele>
        <time>2022-04-08T13:15:05Z</time>
      </trkpt>
      <trkpt lat="43.46869" lon="6.40971">
        <ele>184</ele>
        <time>2022-04-08T13:15:06Z</time>
      </trkpt>
      <trkpt lat="43.46869" lon="6.40972">
        <ele>184</ele>
        <time>2022-04-08T13:15:07Z</time>
      </trkpt>
      <trkpt lat="43.46869" lon="6.40973">
        <ele>184</ele>
        <time>2022-04-08T13:15:08Z</time>
      </trkpt>
      <trkpt lat="43.46869" lon="6.40974">
        <ele>183</ele>
        <time>2022-04-08T13:15:09Z</time>
      </trkpt>
      <trkpt lat="43.46869" lon="6.40974">
        <ele>183</ele>
        <time>2022-04-08T13:15:10Z</time>
      </trkpt>
      <trkpt lat="43.46869" lon="6.40975">
        <ele>183</ele>
        <time>2022-04-08T13:15:11Z</time>
      </trkpt>
      <trkpt lat="43.46869" lon="6.40975">
        <ele>182</ele>
        <time>2022-04-08T13:15:12Z</time>
      </trkpt>
      <trkpt lat="43.46869" lon="6.40976">
        <ele>182</ele>
        <time>2022-04-08T13:15:13Z</time>
      </trkpt>
      <trkpt lat="43.46868" lon="6.40977">
        <ele>182</ele>
        <time>2022-04-08T13:15:14Z</time>
      </trkpt>
      <trkpt lat="43.46868" lon="6.40978">
        <ele>177</ele>
        <time>2022-04-08T13:15:15Z</time>
      </trkpt>
      <trkpt lat="43.46868" lon="6.40979">
        <ele>175</ele>
        <time>2022-04-08T13:15:16Z</time>
      </trkpt>
      <trkpt lat="43.46868" lon="6.40979">
        <ele>175</ele>
        <time>2022-04-08T13:15:17Z</time>
      </trkpt>
      <trkpt lat="43.46868" lon="6.4098">
        <ele>174</ele>
        <time>2022-04-08T13:15:18Z</time>
      </trkpt>
      <trkpt lat="43.46868" lon="6.4098">
        <ele>174</ele>
        <time>2022-04-08T13:15:19Z</time>
      </trkpt>
      <trkpt lat="43.46868" lon="6.40981">
        <ele>174</ele>
        <time>2022-04-08T13:15:20Z</time>
      </trkpt>
      <trkpt lat="43.46868" lon="6.40981">
        <ele>173</ele>
        <time>2022-04-08T13:15:21Z</time>
      </trkpt>
      <trkpt lat="43.46868" lon="6.40981">
        <ele>173</ele>
        <time>2022-04-08T13:15:22Z</time>
      </trkpt>
      <trkpt lat="43.46868" lon="6.40982">
        <ele>173</ele>
        <time>2022-04-08T13:15:23Z</time>
      </trkpt>
      <trkpt lat="43.46868" lon="6.40982">
        <ele>173</ele>
        <time>2022-04-08T13:15:24Z</time>
      </trkpt>
      <trkpt lat="43.46868" lon="6.40983">
        <ele>173</ele>
        <time>2022-04-08T13:15:25Z</time>
      </trkpt>
      <trkpt lat="43.46869" lon="6.40983">
        <ele>172</ele>
        <time>2022-04-08T13:15:26Z</time>
      </trkpt>
      <trkpt lat="43.46869" lon="6.40983">
        <ele>172</ele>
        <time>2022-04-08T13:15:27Z</time>
      </trkpt>
      <trkpt lat="43.46869" lon="6.40984">
        <ele>172</ele>
        <time>2022-04-08T13:15:28Z</time>
      </trkpt>
      <trkpt lat="43.46869" lon="6.40984">
        <ele>172</ele>
        <time>2022-04-08T13:15:29Z</time>
      </trkpt>
      <trkpt lat="43.46869" lon="6.40984">
        <ele>172</ele>
        <time>2022-04-08T13:15:30Z</time>
      </trkpt>
      <trkpt lat="43.46869" lon="6.40984">
        <ele>172</ele>
        <time>2022-04-08T13:15:31Z</time>
      </trkpt>
      <trkpt lat="43.46869" lon="6.40985">
        <ele>172</ele>
        <time>2022-04-08T13:15:32Z</time>
      </trkpt>
      <trkpt lat="43.46869" lon="6.40985">
        <ele>172</ele>
        <time>2022-04-08T13:15:33Z</time>
      </trkpt>
      <trkpt lat="43.46869" lon="6.40985">
        <ele>172</ele>
        <time>2022-04-08T13:15:34Z</time>
      </trkpt>
      <trkpt lat="43.46869" lon="6.40985">
        <ele>172</ele>
        <time>2022-04-08T13:15:35Z</time>
      </trkpt>
      <trkpt lat="43.4687" lon="6.40985">
        <ele>172</ele>
        <time>2022-04-08T13:15:36Z</time>
      </trkpt>
      <trkpt lat="43.4687" lon="6.40985">
        <ele>172</ele>
        <time>2022-04-08T13:15:37Z</time>
      </trkpt>
      <trkpt lat="43.4687" lon="6.40985">
        <ele>171</ele>
        <time>2022-04-08T13:15:38Z</time>
      </trkpt>
      <trkpt lat="43.4687" lon="6.40985">
        <ele>171</ele>
        <time>2022-04-08T13:15:39Z</time>
      </trkpt>
      <trkpt lat="43.4687" lon="6.40985">
        <ele>171</ele>
        <time>2022-04-08T13:15:40Z</time>
      </trkpt>
      <trkpt lat="43.4687" lon="6.40985">
        <ele>171</ele>
        <time>2022-04-08T13:15:41Z</time>
      </trkpt>
      <trkpt lat="43.4687" lon="6.40985">
        <ele>171</ele>
        <time>2022-04-08T13:15:42Z</time>
      </trkpt>
      <trkpt lat="43.4687" lon="6.40985">
        <ele>171</ele>
        <time>2022-04-08T13:15:43Z</time>
      </trkpt>
      <trkpt lat="43.4687" lon="6.40985">
        <ele>171</ele>
        <time>2022-04-08T13:15:44Z</time>
      </trkpt>
      <trkpt lat="43.4687" lon="6.40985">
        <ele>171</ele>
        <time>2022-04-08T13:15:45Z</time>
      </trkpt>
      <trkpt lat="43.4687" lon="6.40985">
        <ele>171</ele>
        <time>2022-04-08T13:15:46Z</time>
      </trkpt>
      <trkpt lat="43.4687" lon="6.40985">
        <ele>171</ele>
        <time>2022-04-08T13:15:47Z</time>
      </trkpt>
      <trkpt lat="43.4687" lon="6.40985">
        <ele>171</ele>
        <time>2022-04-08T13:15:48Z</time>
      </trkpt>
      <trkpt lat="43.4687" lon="6.40985">
        <ele>171</ele>
        <time>2022-04-08T13:15:49Z</time>
      </trkpt>
      <trkpt lat="43.4687" lon="6.40985">
        <ele>171</ele>
        <time>2022-04-08T13:15:50Z</time>
      </trkpt>
      <trkpt lat="43.4687" lon="6.40985">
        <ele>171</ele>
        <time>2022-04-08T13:15:51Z</time>
      </trkpt>
      <trkpt lat="43.4687" lon="6.40985">
        <ele>171</ele>
        <time>2022-04-08T13:15:52Z</time>
      </trkpt>
      <trkpt lat="43.4687" lon="6.40985">
        <ele>171</ele>
        <time>2022-04-08T13:15:53Z</time>
      </trkpt>
      <trkpt lat="43.4687" lon="6.40985">
        <ele>171</ele>
        <time>2022-04-08T13:15:54Z</time>
      </trkpt>
      <trkpt lat="43.4687" lon="6.40985">
        <ele>171</ele>
        <time>2022-04-08T13:15:55Z</time>
      </trkpt>
      <trkpt lat="43.4687" lon="6.40985">
        <ele>171</ele>
        <time>2022-04-08T13:15:56Z</time>
      </trkpt>
      <trkpt lat="43.4687" lon="6.40985">
        <ele>171</ele>
        <time>2022-04-08T13:15:57Z</time>
      </trkpt>
      <trkpt lat="43.4687" lon="6.40985">
        <ele>171</ele>
        <time>2022-04-08T13:15:58Z</time>
      </trkpt>
      <trkpt lat="43.4687" lon="6.40985">
        <ele>171</ele>
        <time>2022-04-08T13:15:59Z</time>
      </trkpt>
      <trkpt lat="43.4687" lon="6.40985">
        <ele>171</ele>
        <time>2022-04-08T13:16:00Z</time>
      </trkpt>
      <trkpt lat="43.4687" lon="6.40985">
        <ele>171</ele>
        <time>2022-04-08T13:16:01Z</time>
      </trkpt>
      <trkpt lat="43.4687" lon="6.40985">
        <ele>171</ele>
        <time>2022-04-08T13:16:02Z</time>
      </trkpt>
      <trkpt lat="43.4687" lon="6.40985">
        <ele>170</ele>
        <time>2022-04-08T13:16:03Z</time>
      </trkpt>
      <trkpt lat="43.4687" lon="6.40985">
        <ele>170</ele>
        <time>2022-04-08T13:16:04Z</time>
      </trkpt>
      <trkpt lat="43.4687" lon="6.40985">
        <ele>170</ele>
        <time>2022-04-08T13:16:05Z</time>
      </trkpt>
      <trkpt lat="43.4687" lon="6.40985">
        <ele>170</ele>
        <time>2022-04-08T13:16:06Z</time>
      </trkpt>
      <trkpt lat="43.4687" lon="6.40985">
        <ele>170</ele>
        <time>2022-04-08T13:16:07Z</time>
      </trkpt>
      <trkpt lat="43.4687" lon="6.40985">
        <ele>170</ele>
        <time>2022-04-08T13:16:08Z</time>
      </trkpt>
      <trkpt lat="43.4687" lon="6.40985">
        <ele>170</ele>
        <time>2022-04-08T13:16:09Z</time>
      </trkpt>
      <trkpt lat="43.4687" lon="6.40985">
        <ele>170</ele>
        <time>2022-04-08T13:16:10Z</time>
      </trkpt>
      <trkpt lat="43.4687" lon="6.40985">
        <ele>170</ele>
        <time>2022-04-08T13:16:11Z</time>
      </trkpt>
      <trkpt lat="43.4687" lon="6.40985">
        <ele>170</ele>
        <time>2022-04-08T13:16:12Z</time>
      </trkpt>
      <trkpt lat="43.4687" lon="6.40985">
        <ele>170</ele>
        <time>2022-04-08T13:16:13Z</time>
      </trkpt>
      <trkpt lat="43.4687" lon="6.40985">
        <ele>170</ele>
        <time>2022-04-08T13:16:14Z</time>
      </trkpt>
      <trkpt lat="43.4687" lon="6.40985">
        <ele>170</ele>
        <time>2022-04-08T13:16:15Z</time>
      </trkpt>
      <trkpt lat="43.4687" lon="6.40985">
        <ele>170</ele>
        <time>2022-04-08T13:16:16Z</time>
      </trkpt>
      <trkpt lat="43.46869" lon="6.40986">
        <ele>170</ele>
        <time>2022-04-08T13:16:17Z</time>
      </trkpt>
      <trkpt lat="43.46869" lon="6.40986">
        <ele>170</ele>
        <time>2022-04-08T13:16:18Z</time>
      </trkpt>
      <trkpt lat="43.46869" lon="6.40985">
        <ele>170</ele>
        <time>2022-04-08T13:16:19Z</time>
      </trkpt>
      <trkpt lat="43.46869" lon="6.40985">
        <ele>170</ele>
        <time>2022-04-08T13:16:20Z</time>
      </trkpt>
      <trkpt lat="43.46869" lon="6.40985">
        <ele>170</ele>
        <time>2022-04-08T13:16:21Z</time>
      </trkpt>
      <trkpt lat="43.46869" lon="6.40985">
        <ele>170</ele>
        <time>2022-04-08T13:16:22Z</time>
      </trkpt>
      <trkpt lat="43.46869" lon="6.40984">
        <ele>170</ele>
        <time>2022-04-08T13:16:23Z</time>
      </trkpt>
      <trkpt lat="43.46869" lon="6.40984">
        <ele>170</ele>
        <time>2022-04-08T13:16:24Z</time>
      </trkpt>
      <trkpt lat="43.46869" lon="6.40984">
        <ele>170</ele>
        <time>2022-04-08T13:16:25Z</time>
      </trkpt>
      <trkpt lat="43.46869" lon="6.40984">
        <ele>170</ele>
        <time>2022-04-08T13:16:26Z</time>
      </trkpt>
      <trkpt lat="43.46869" lon="6.40984">
        <ele>170</ele>
        <time>2022-04-08T13:16:27Z</time>
      </trkpt>
      <trkpt lat="43.46869" lon="6.40984">
        <ele>170</ele>
        <time>2022-04-08T13:16:28Z</time>
      </trkpt>
      <trkpt lat="43.46869" lon="6.40984">
        <ele>170</ele>
        <time>2022-04-08T13:16:29Z</time>
      </trkpt>
      <trkpt lat="43.46869" lon="6.40984">
        <ele>170</ele>
        <time>2022-04-08T13:16:30Z</time>
      </trkpt>
      <trkpt lat="43.46869" lon="6.40984">
        <ele>170</ele>
        <time>2022-04-08T13:16:31Z</time>
      </trkpt>
      <trkpt lat="43.46869" lon="6.40984">
        <ele>170</ele>
        <time>2022-04-08T13:16:32Z</time>
      </trkpt>
      <trkpt lat="43.46869" lon="6.40984">
        <ele>170</ele>
        <time>2022-04-08T13:16:33Z</time>
      </trkpt>
      <trkpt lat="43.46869" lon="6.40984">
        <ele>170</ele>
        <time>2022-04-08T13:16:34Z</time>
      </trkpt>
      <trkpt lat="43.46869" lon="6.40984">
        <ele>170</ele>
        <time>2022-04-08T13:16:35Z</time>
      </trkpt>
      <trkpt lat="43.46869" lon="6.40984">
        <ele>170</ele>
        <time>2022-04-08T13:16:36Z</time>
      </trkpt>
      <trkpt lat="43.46869" lon="6.40984">
        <ele>169</ele>
        <time>2022-04-08T13:16:37Z</time>
      </trkpt>
      <trkpt lat="43.46869" lon="6.40984">
        <ele>169</ele>
        <time>2022-04-08T13:16:38Z</time>
      </trkpt>
      <trkpt lat="43.46869" lon="6.40984">
        <ele>169</ele>
        <time>2022-04-08T13:16:39Z</time>
      </trkpt>
      <trkpt lat="43.46869" lon="6.40984">
        <ele>169</ele>
        <time>2022-04-08T13:16:40Z</time>
      </trkpt>
      <trkpt lat="43.46869" lon="6.40984">
        <ele>169</ele>
        <time>2022-04-08T13:16:41Z</time>
      </trkpt>
      <trkpt lat="43.46869" lon="6.40984">
        <ele>169</ele>
        <time>2022-04-08T13:16:42Z</time>
      </trkpt>
      <trkpt lat="43.46869" lon="6.40984">
        <ele>169</ele>
        <time>2022-04-08T13:16:43Z</time>
      </trkpt>
      <trkpt lat="43.46869" lon="6.40984">
        <ele>169</ele>
        <time>2022-04-08T13:16:44Z</time>
      </trkpt>
      <trkpt lat="43.46869" lon="6.40984">
        <ele>169</ele>
        <time>2022-04-08T13:16:45Z</time>
      </trkpt>
      <trkpt lat="43.46869" lon="6.40984">
        <ele>169</ele>
        <time>2022-04-08T13:16:46Z</time>
      </trkpt>
      <trkpt lat="43.46869" lon="6.40984">
        <ele>169</ele>
        <time>2022-04-08T13:16:47Z</time>
      </trkpt>
      <trkpt lat="43.46869" lon="6.40984">
        <ele>169</ele>
        <time>2022-04-08T13:16:48Z</time>
      </trkpt>
      <trkpt lat="43.46869" lon="6.40984">
        <ele>169</ele>
        <time>2022-04-08T13:16:49Z</time>
      </trkpt>
      <trkpt lat="43.46869" lon="6.40984">
        <ele>169</ele>
        <time>2022-04-08T13:16:50Z</time>
      </trkpt>
      <trkpt lat="43.46869" lon="6.40984">
        <ele>169</ele>
        <time>2022-04-08T13:16:51Z</time>
      </trkpt>
      <trkpt lat="43.46869" lon="6.40984">
        <ele>169</ele>
        <time>2022-04-08T13:16:52Z</time>
      </trkpt>
      <trkpt lat="43.46869" lon="6.40984">
        <ele>169</ele>
        <time>2022-04-08T13:16:53Z</time>
      </trkpt>
      <trkpt lat="43.46869" lon="6.40984">
        <ele>169</ele>
        <time>2022-04-08T13:16:54Z</time>
      </trkpt>
      <trkpt lat="43.46869" lon="6.40984">
        <ele>169</ele>
        <time>2022-04-08T13:16:55Z</time>
      </trkpt>
      <trkpt lat="43.46869" lon="6.40984">
        <ele>169</ele>
        <time>2022-04-08T13:16:56Z</time>
      </trkpt>
      <trkpt lat="43.46869" lon="6.40984">
        <ele>169</ele>
        <time>2022-04-08T13:16:57Z</time>
      </trkpt>
      <trkpt lat="43.46869" lon="6.40984">
        <ele>169</ele>
        <time>2022-04-08T13:16:58Z</time>
      </trkpt>
      <trkpt lat="43.46869" lon="6.40984">
        <ele>169</ele>
        <time>2022-04-08T13:16:59Z</time>
      </trkpt>
      <trkpt lat="43.46869" lon="6.40984">
        <ele>169</ele>
        <time>2022-04-08T13:17:00Z</time>
      </trkpt>
      <trkpt lat="43.46869" lon="6.40984">
        <ele>169</ele>
        <time>2022-04-08T13:17:01Z</time>
      </trkpt>
      <trkpt lat="43.46869" lon="6.40984">
        <ele>169</ele>
        <time>2022-04-08T13:17:02Z</time>
      </trkpt>
      <trkpt lat="43.46869" lon="6.40984">
        <ele>169</ele>
        <time>2022-04-08T13:17:03Z</time>
      </trkpt>
      <trkpt lat="43.46869" lon="6.40984">
        <ele>169</ele>
        <time>2022-04-08T13:17:04Z</time>
      </trkpt>
      <trkpt lat="43.46869" lon="6.40984">
        <ele>169</ele>
        <time>2022-04-08T13:17:05Z</time>
      </trkpt>
      <trkpt lat="43.46869" lon="6.40984">
        <ele>169</ele>
        <time>2022-04-08T13:17:06Z</time>
      </trkpt>
      <trkpt lat="43.46869" lon="6.40984">
        <ele>169</ele>
        <time>2022-04-08T13:17:07Z</time>
      </trkpt>
      <trkpt lat="43.46869" lon="6.40984">
        <ele>169</ele>
        <time>2022-04-08T13:17:08Z</time>
      </trkpt>
      <trkpt lat="43.46869" lon="6.40984">
        <ele>169</ele>
        <time>2022-04-08T13:17:09Z</time>
      </trkpt>
      <trkpt lat="43.46869" lon="6.40984">
        <ele>169</ele>
        <time>2022-04-08T13:17:10Z</time>
      </trkpt>
      <trkpt lat="43.46869" lon="6.40984">
        <ele>169</ele>
        <time>2022-04-08T13:17:11Z</time>
      </trkpt>
      <trkpt lat="43.46869" lon="6.40984">
        <ele>169</ele>
        <time>2022-04-08T13:17:12Z</time>
      </trkpt>
      <trkpt lat="43.46869" lon="6.40984">
        <ele>169</ele>
        <time>2022-04-08T13:17:13Z</time>
      </trkpt>
      <trkpt lat="43.46869" lon="6.40984">
        <ele>169</ele>
        <time>2022-04-08T13:17:14Z</time>
      </trkpt>
      <trkpt lat="43.46869" lon="6.40984">
        <ele>169</ele>
        <time>2022-04-08T13:17:15Z</time>
      </trkpt>
      <trkpt lat="43.46869" lon="6.40984">
        <ele>169</ele>
        <time>2022-04-08T13:17:16Z</time>
      </trkpt>
      <trkpt lat="43.46869" lon="6.40984">
        <ele>169</ele>
        <time>2022-04-08T13:17:17Z</time>
      </trkpt>
      <trkpt lat="43.46869" lon="6.40984">
        <ele>169</ele>
        <time>2022-04-08T13:17:18Z</time>
      </trkpt>
      <trkpt lat="43.46869" lon="6.40984">
        <ele>169</ele>
        <time>2022-04-08T13:17:19Z</time>
      </trkpt>
      <trkpt lat="43.46869" lon="6.40984">
        <ele>169</ele>
        <time>2022-04-08T13:17:20Z</time>
      </trkpt>
      <trkpt lat="43.46869" lon="6.40984">
        <ele>169</ele>
        <time>2022-04-08T13:17:21Z</time>
      </trkpt>
      <trkpt lat="43.46869" lon="6.40984">
        <ele>169</ele>
        <time>2022-04-08T13:17:22Z</time>
      </trkpt>
      <trkpt lat="43.46869" lon="6.40984">
        <ele>169</ele>
        <time>2022-04-08T13:17:23Z</time>
      </trkpt>
      <trkpt lat="43.46869" lon="6.40984">
        <ele>169</ele>
        <time>2022-04-08T13:17:24Z</time>
      </trkpt>
      <trkpt lat="43.46869" lon="6.40984">
        <ele>169</ele>
        <time>2022-04-08T13:17:25Z</time>
      </trkpt>
      <trkpt lat="43.46869" lon="6.40984">
        <ele>169</ele>
        <time>2022-04-08T13:17:26Z</time>
      </trkpt>
      <trkpt lat="43.46869" lon="6.40984">
        <ele>169</ele>
        <time>2022-04-08T13:17:27Z</time>
      </trkpt>
      <trkpt lat="43.46869" lon="6.40984">
        <ele>169</ele>
        <time>2022-04-08T13:17:28Z</time>
      </trkpt>
      <trkpt lat="43.46869" lon="6.40984">
        <ele>169</ele>
        <time>2022-04-08T13:17:29Z</time>
      </trkpt>
      <trkpt lat="43.4687" lon="6.40983">
        <ele>169</ele>
        <time>2022-04-08T13:17:30Z</time>
      </trkpt>
      <trkpt lat="43.4687" lon="6.40983">
        <ele>169</ele>
        <time>2022-04-08T13:17:31Z</time>
      </trkpt>
      <trkpt lat="43.4687" lon="6.40983">
        <ele>169</ele>
        <time>2022-04-08T13:17:32Z</time>
      </trkpt>
      <trkpt lat="43.4687" lon="6.40983">
        <ele>169</ele>
        <time>2022-04-08T13:17:33Z</time>
      </trkpt>
      <trkpt lat="43.4687" lon="6.40983">
        <ele>169</ele>
        <time>2022-04-08T13:17:34Z</time>
      </trkpt>
      <trkpt lat="43.4687" lon="6.40983">
        <ele>169</ele>
        <time>2022-04-08T13:17:35Z</time>
      </trkpt>
      <trkpt lat="43.4687" lon="6.40983">
        <ele>169</ele>
        <time>2022-04-08T13:17:36Z</time>
      </trkpt>
      <trkpt lat="43.4687" lon="6.40983">
        <ele>169</ele>
        <time>2022-04-08T13:17:37Z</time>
      </trkpt>
      <trkpt lat="43.4687" lon="6.40983">
        <ele>169</ele>
        <time>2022-04-08T13:17:38Z</time>
      </trkpt>
      <trkpt lat="43.4687" lon="6.40983">
        <ele>169</ele>
        <time>2022-04-08T13:17:39Z</time>
      </trkpt>
      <trkpt lat="43.4687" lon="6.40983">
        <ele>169</ele>
        <time>2022-04-08T13:17:40Z</time>
      </trkpt>
      <trkpt lat="43.4687" lon="6.40983">
        <ele>169</ele>
        <time>2022-04-08T13:17:41Z</time>
      </trkpt>
      <trkpt lat="43.4687" lon="6.40983">
        <ele>169</ele>
        <time>2022-04-08T13:17:42Z</time>
      </trkpt>
      <trkpt lat="43.4687" lon="6.40983">
        <ele>169</ele>
        <time>2022-04-08T13:17:43Z</time>
      </trkpt>
      <trkpt lat="43.4687" lon="6.40983">
        <ele>169</ele>
        <time>2022-04-08T13:17:44Z</time>
      </trkpt>
      <trkpt lat="43.4687" lon="6.40983">
        <ele>169</ele>
        <time>2022-04-08T13:17:45Z</time>
      </trkpt>
      <trkpt lat="43.4687" lon="6.40983">
        <ele>169</ele>
        <time>2022-04-08T13:17:46Z</time>
      </trkpt>
      <trkpt lat="43.4687" lon="6.40983">
        <ele>169</ele>
        <time>2022-04-08T13:17:47Z</time>
      </trkpt>
      <trkpt lat="43.4687" lon="6.40983">
        <ele>169</ele>
        <time>2022-04-08T13:17:48Z</time>
      </trkpt>
      <trkpt lat="43.4687" lon="6.40983">
        <ele>169</ele>
        <time>2022-04-08T13:17:49Z</time>
      </trkpt>
      <trkpt lat="43.4687" lon="6.40983">
        <ele>169</ele>
        <time>2022-04-08T13:17:50Z</time>
      </trkpt>
      <trkpt lat="43.4687" lon="6.40983">
        <ele>169</ele>
        <time>2022-04-08T13:17:51Z</time>
      </trkpt>
      <trkpt lat="43.4687" lon="6.40983">
        <ele>169</ele>
        <time>2022-04-08T13:17:52Z</time>
      </trkpt>
      <trkpt lat="43.4687" lon="6.40983">
        <ele>169</ele>
        <time>2022-04-08T13:17:53Z</time>
      </trkpt>
      <trkpt lat="43.4687" lon="6.40983">
        <ele>169</ele>
        <time>2022-04-08T13:17:54Z</time>
      </trkpt>
      <trkpt lat="43.4687" lon="6.40983">
        <ele>169</ele>
        <time>2022-04-08T13:17:55Z</time>
      </trkpt>
      <trkpt lat="43.4687" lon="6.40983">
        <ele>169</ele>
        <time>2022-04-08T13:17:56Z</time>
      </trkpt>
      <trkpt lat="43.4687" lon="6.40983">
        <ele>169</ele>
        <time>2022-04-08T13:17:57Z</time>
      </trkpt>
      <trkpt lat="43.4687" lon="6.40983">
        <ele>169</ele>
        <time>2022-04-08T13:17:58Z</time>
      </trkpt>
      <trkpt lat="43.4687" lon="6.40983">
        <ele>169</ele>
        <time>2022-04-08T13:17:59Z</time>
      </trkpt>
      <trkpt lat="43.4687" lon="6.40983">
        <ele>169</ele>
        <time>2022-04-08T13:18:00Z</time>
      </trkpt>
      <trkpt lat="43.4687" lon="6.40983">
        <ele>169</ele>
        <time>2022-04-08T13:18:01Z</time>
      </trkpt>
      <trkpt lat="43.4687" lon="6.40983">
        <ele>169</ele>
        <time>2022-04-08T13:18:02Z</time>
      </trkpt>
      <trkpt lat="43.4687" lon="6.40983">
        <ele>169</ele>
        <time>2022-04-08T13:18:03Z</time>
      </trkpt>
      <trkpt lat="43.4687" lon="6.40983">
        <ele>169</ele>
        <time>2022-04-08T13:18:04Z</time>
      </trkpt>
      <trkpt lat="43.4687" lon="6.40983">
        <ele>169</ele>
        <time>2022-04-08T13:18:05Z</time>
      </trkpt>
      <trkpt lat="43.4687" lon="6.40983">
        <ele>169</ele>
        <time>2022-04-08T13:18:06Z</time>
      </trkpt>
      <trkpt lat="43.4687" lon="6.40983">
        <ele>169</ele>
        <time>2022-04-08T13:18:07Z</time>
      </trkpt>
      <trkpt lat="43.4687" lon="6.40983">
        <ele>169</ele>
        <time>2022-04-08T13:18:08Z</time>
      </trkpt>
      <trkpt lat="43.4687" lon="6.40983">
        <ele>169</ele>
        <time>2022-04-08T13:18:09Z</time>
      </trkpt>
      <trkpt lat="43.4687" lon="6.40983">
        <ele>169</ele>
        <time>2022-04-08T13:18:10Z</time>
      </trkpt>
      <trkpt lat="43.4687" lon="6.40983">
        <ele>169</ele>
        <time>2022-04-08T13:18:11Z</time>
      </trkpt>
      <trkpt lat="43.4687" lon="6.40983">
        <ele>169</ele>
        <time>2022-04-08T13:18:12Z</time>
      </trkpt>
      <trkpt lat="43.4687" lon="6.40983">
        <ele>169</ele>
        <time>2022-04-08T13:18:13Z</time>
      </trkpt>
      <trkpt lat="43.4687" lon="6.40983">
        <ele>169</ele>
        <time>2022-04-08T13:18:14Z</time>
      </trkpt>
      <trkpt lat="43.4687" lon="6.40983">
        <ele>169</ele>
        <time>2022-04-08T13:18:15Z</time>
      </trkpt>
      <trkpt lat="43.4687" lon="6.40983">
        <ele>169</ele>
        <time>2022-04-08T13:18:16Z</time>
      </trkpt>
      <trkpt lat="43.4687" lon="6.40983">
        <ele>169</ele>
        <time>2022-04-08T13:18:17Z</time>
      </trkpt>
      <trkpt lat="43.4687" lon="6.40983">
        <ele>169</ele>
        <time>2022-04-08T13:18:18Z</time>
      </trkpt>
      <trkpt lat="43.4687" lon="6.40983">
        <ele>169</ele>
        <time>2022-04-08T13:18:19Z</time>
      </trkpt>
      <trkpt lat="43.4687" lon="6.40982">
        <ele>169</ele>
        <time>2022-04-08T13:18:20Z</time>
      </trkpt>
      <trkpt lat="43.4687" lon="6.40982">
        <ele>169</ele>
        <time>2022-04-08T13:18:21Z</time>
      </trkpt>
      <trkpt lat="43.4687" lon="6.40982">
        <ele>169</ele>
        <time>2022-04-08T13:18:22Z</time>
      </trkpt>
      <trkpt lat="43.4687" lon="6.40982">
        <ele>169</ele>
        <time>2022-04-08T13:18:23Z</time>
      </trkpt>
      <trkpt lat="43.46869" lon="6.40982">
        <ele>169</ele>
        <time>2022-04-08T13:18:24Z</time>
      </trkpt>
      <trkpt lat="43.46869" lon="6.40982">
        <ele>169</ele>
        <time>2022-04-08T13:18:25Z</time>
      </trkpt>
      <trkpt lat="43.46869" lon="6.40982">
        <ele>169</ele>
        <time>2022-04-08T13:18:26Z</time>
      </trkpt>
      <trkpt lat="43.46869" lon="6.40982">
        <ele>169</ele>
        <time>2022-04-08T13:18:27Z</time>
      </trkpt>
      <trkpt lat="43.46869" lon="6.40982">
        <ele>169</ele>
        <time>2022-04-08T13:18:28Z</time>
      </trkpt>
      <trkpt lat="43.46869" lon="6.40982">
        <ele>169</ele>
        <time>2022-04-08T13:18:29Z</time>
      </trkpt>
      <trkpt lat="43.46869" lon="6.40982">
        <ele>169</ele>
        <time>2022-04-08T13:18:30Z</time>
      </trkpt>
      <trkpt lat="43.46869" lon="6.40982">
        <ele>169</ele>
        <time>2022-04-08T13:18:31Z</time>
      </trkpt>
      <trkpt lat="43.46869" lon="6.40982">
        <ele>169</ele>
        <time>2022-04-08T13:18:32Z</time>
      </trkpt>
      <trkpt lat="43.46869" lon="6.40982">
        <ele>169</ele>
        <time>2022-04-08T13:18:33Z</time>
      </trkpt>
      <trkpt lat="43.46869" lon="6.40982">
        <ele>168</ele>
        <time>2022-04-08T13:18:34Z</time>
      </trkpt>
      <trkpt lat="43.46869" lon="6.40982">
        <ele>168</ele>
        <time>2022-04-08T13:18:35Z</time>
      </trkpt>
      <trkpt lat="43.46869" lon="6.40982">
        <ele>168</ele>
        <time>2022-04-08T13:18:36Z</time>
      </trkpt>
      <trkpt lat="43.46869" lon="6.40982">
        <ele>168</ele>
        <time>2022-04-08T13:18:37Z</time>
      </trkpt>
      <trkpt lat="43.46869" lon="6.40982">
        <ele>168</ele>
        <time>2022-04-08T13:18:38Z</time>
      </trkpt>
      <trkpt lat="43.46869" lon="6.40982">
        <ele>168</ele>
        <time>2022-04-08T13:18:39Z</time>
      </trkpt>
      <trkpt lat="43.46869" lon="6.40982">
        <ele>168</ele>
        <time>2022-04-08T13:18:40Z</time>
      </trkpt>
      <trkpt lat="43.46869" lon="6.40982">
        <ele>168</ele>
        <time>2022-04-08T13:18:41Z</time>
      </trkpt>
      <trkpt lat="43.46869" lon="6.40982">
        <ele>168</ele>
        <time>2022-04-08T13:18:42Z</time>
      </trkpt>
      <trkpt lat="43.46869" lon="6.40982">
        <ele>168</ele>
        <time>2022-04-08T13:18:43Z</time>
      </trkpt>
      <trkpt lat="43.46869" lon="6.40982">
        <ele>168</ele>
        <time>2022-04-08T13:18:44Z</time>
      </trkpt>
      <trkpt lat="43.46869" lon="6.40982">
        <ele>168</ele>
        <time>2022-04-08T13:18:45Z</time>
      </trkpt>
      <trkpt lat="43.46869" lon="6.40982">
        <ele>168</ele>
        <time>2022-04-08T13:18:46Z</time>
      </trkpt>
      <trkpt lat="43.46869" lon="6.40982">
        <ele>168</ele>
        <time>2022-04-08T13:18:47Z</time>
      </trkpt>
      <trkpt lat="43.46869" lon="6.40982">
        <ele>168</ele>
        <time>2022-04-08T13:18:48Z</time>
      </trkpt>
      <trkpt lat="43.46869" lon="6.40982">
        <ele>168</ele>
        <time>2022-04-08T13:18:49Z</time>
      </trkpt>
      <trkpt lat="43.46869" lon="6.40982">
        <ele>168</ele>
        <time>2022-04-08T13:18:50Z</time>
      </trkpt>
      <trkpt lat="43.46869" lon="6.40982">
        <ele>168</ele>
        <time>2022-04-08T13:18:51Z</time>
      </trkpt>
      <trkpt lat="43.46869" lon="6.40982">
        <ele>168</ele>
        <time>2022-04-08T13:18:52Z</time>
      </trkpt>
      <trkpt lat="43.46869" lon="6.40982">
        <ele>168</ele>
        <time>2022-04-08T13:18:53Z</time>
      </trkpt>
      <trkpt lat="43.46869" lon="6.40982">
        <ele>168</ele>
        <time>2022-04-08T13:18:54Z</time>
      </trkpt>
      <trkpt lat="43.46869" lon="6.40982">
        <ele>168</ele>
        <time>2022-04-08T13:18:55Z</time>
      </trkpt>
      <trkpt lat="43.46869" lon="6.40982">
        <ele>168</ele>
        <time>2022-04-08T13:18:56Z</time>
      </trkpt>
      <trkpt lat="43.46869" lon="6.40982">
        <ele>168</ele>
        <time>2022-04-08T13:18:57Z</time>
      </trkpt>
      <trkpt lat="43.46869" lon="6.40982">
        <ele>168</ele>
        <time>2022-04-08T13:18:58Z</time>
      </trkpt>
      <trkpt lat="43.46869" lon="6.40982">
        <ele>168</ele>
        <time>2022-04-08T13:18:59Z</time>
      </trkpt>
      <trkpt lat="43.46869" lon="6.40982">
        <ele>168</ele>
        <time>2022-04-08T13:19:00Z</time>
      </trkpt>
      <trkpt lat="43.46869" lon="6.40982">
        <ele>168</ele>
        <time>2022-04-08T13:19:01Z</time>
      </trkpt>
      <trkpt lat="43.46869" lon="6.40982">
        <ele>168</ele>
        <time>2022-04-08T13:19:02Z</time>
      </trkpt>
      <trkpt lat="43.46869" lon="6.40982">
        <ele>168</ele>
        <time>2022-04-08T13:19:03Z</time>
      </trkpt>
      <trkpt lat="43.46869" lon="6.40982">
        <ele>168</ele>
        <time>2022-04-08T13:19:04Z</time>
      </trkpt>
      <trkpt lat="43.46869" lon="6.40982">
        <ele>168</ele>
        <time>2022-04-08T13:19:05Z</time>
      </trkpt>
      <trkpt lat="43.46869" lon="6.40982">
        <ele>168</ele>
        <time>2022-04-08T13:19:06Z</time>
      </trkpt>
      <trkpt lat="43.46869" lon="6.40982">
        <ele>168</ele>
        <time>2022-04-08T13:19:07Z</time>
      </trkpt>
      <trkpt lat="43.46869" lon="6.40982">
        <ele>168</ele>
        <time>2022-04-08T13:19:08Z</time>
      </trkpt>
      <trkpt lat="43.46869" lon="6.40982">
        <ele>168</ele>
        <time>2022-04-08T13:19:09Z</time>
      </trkpt>
      <trkpt lat="43.46869" lon="6.40982">
        <ele>168</ele>
        <time>2022-04-08T13:19:10Z</time>
      </trkpt>
      <trkpt lat="43.46869" lon="6.40982">
        <ele>168</ele>
        <time>2022-04-08T13:19:11Z</time>
      </trkpt>
      <trkpt lat="43.46869" lon="6.40982">
        <ele>168</ele>
        <time>2022-04-08T13:19:12Z</time>
      </trkpt>
      <trkpt lat="43.46869" lon="6.40982">
        <ele>168</ele>
        <time>2022-04-08T13:19:13Z</time>
      </trkpt>
      <trkpt lat="43.46869" lon="6.40982">
        <ele>168</ele>
        <time>2022-04-08T13:19:14Z</time>
      </trkpt>
      <trkpt lat="43.46869" lon="6.40982">
        <ele>168</ele>
        <time>2022-04-08T13:19:15Z</time>
      </trkpt>
      <trkpt lat="43.46869" lon="6.40982">
        <ele>168</ele>
        <time>2022-04-08T13:19:16Z</time>
      </trkpt>
      <trkpt lat="43.46869" lon="6.40982">
        <ele>168</ele>
        <time>2022-04-08T13:19:17Z</time>
      </trkpt>
      <trkpt lat="43.46869" lon="6.40982">
        <ele>168</ele>
        <time>2022-04-08T13:19:18Z</time>
      </trkpt>
      <trkpt lat="43.46869" lon="6.40982">
        <ele>168</ele>
        <time>2022-04-08T13:19:19Z</time>
      </trkpt>
      <trkpt lat="43.46869" lon="6.40982">
        <ele>168</ele>
        <time>2022-04-08T13:19:20Z</time>
      </trkpt>
      <trkpt lat="43.46869" lon="6.40982">
        <ele>168</ele>
        <time>2022-04-08T13:19:21Z</time>
      </trkpt>
      <trkpt lat="43.46869" lon="6.40982">
        <ele>168</ele>
        <time>2022-04-08T13:19:22Z</time>
      </trkpt>
      <trkpt lat="43.46869" lon="6.40982">
        <ele>168</ele>
        <time>2022-04-08T13:19:23Z</time>
      </trkpt>
      <trkpt lat="43.46869" lon="6.40982">
        <ele>168</ele>
        <time>2022-04-08T13:19:24Z</time>
      </trkpt>
      <trkpt lat="43.46869" lon="6.40982">
        <ele>168</ele>
        <time>2022-04-08T13:19:25Z</time>
      </trkpt>
      <trkpt lat="43.46869" lon="6.40982">
        <ele>168</ele>
        <time>2022-04-08T13:19:26Z</time>
      </trkpt>
      <trkpt lat="43.46869" lon="6.40982">
        <ele>168</ele>
        <time>2022-04-08T13:19:27Z</time>
      </trkpt>
      <trkpt lat="43.46869" lon="6.40982">
        <ele>168</ele>
        <time>2022-04-08T13:19:28Z</time>
      </trkpt>
      <trkpt lat="43.46869" lon="6.40982">
        <ele>168</ele>
        <time>2022-04-08T13:19:29Z</time>
      </trkpt>
      <trkpt lat="43.46869" lon="6.40982">
        <ele>168</ele>
        <time>2022-04-08T13:19:30Z</time>
      </trkpt>
      <trkpt lat="43.46869" lon="6.40982">
        <ele>168</ele>
        <time>2022-04-08T13:19:31Z</time>
      </trkpt>
      <trkpt lat="43.46869" lon="6.40982">
        <ele>168</ele>
        <time>2022-04-08T13:19:32Z</time>
      </trkpt>
      <trkpt lat="43.46869" lon="6.40982">
        <ele>168</ele>
        <time>2022-04-08T13:19:33Z</time>
      </trkpt>
      <trkpt lat="43.46869" lon="6.40982">
        <ele>168</ele>
        <time>2022-04-08T13:19:34Z</time>
      </trkpt>
      <trkpt lat="43.46869" lon="6.40982">
        <ele>168</ele>
        <time>2022-04-08T13:19:35Z</time>
      </trkpt>
      <trkpt lat="43.46869" lon="6.40982">
        <ele>168</ele>
        <time>2022-04-08T13:19:36Z</time>
      </trkpt>
      <trkpt lat="43.46869" lon="6.40982">
        <ele>168</ele>
        <time>2022-04-08T13:19:37Z</time>
      </trkpt>
      <trkpt lat="43.46869" lon="6.40982">
        <ele>168</ele>
        <time>2022-04-08T13:19:38Z</time>
      </trkpt>
      <trkpt lat="43.46869" lon="6.40982">
        <ele>168</ele>
        <time>2022-04-08T13:19:39Z</time>
      </trkpt>
      <trkpt lat="43.46869" lon="6.40982">
        <ele>168</ele>
        <time>2022-04-08T13:19:40Z</time>
      </trkpt>
      <trkpt lat="43.46869" lon="6.40982">
        <ele>168</ele>
        <time>2022-04-08T13:19:41Z</time>
      </trkpt>
      <trkpt lat="43.46869" lon="6.40982">
        <ele>168</ele>
        <time>2022-04-08T13:19:42Z</time>
      </trkpt>
      <trkpt lat="43.46869" lon="6.40982">
        <ele>168</ele>
        <time>2022-04-08T13:19:43Z</time>
      </trkpt>
      <trkpt lat="43.46869" lon="6.40982">
        <ele>168</ele>
        <time>2022-04-08T13:19:44Z</time>
      </trkpt>
      <trkpt lat="43.46869" lon="6.40982">
        <ele>168</ele>
        <time>2022-04-08T13:19:45Z</time>
      </trkpt>
      <trkpt lat="43.46869" lon="6.40982">
        <ele>168</ele>
        <time>2022-04-08T13:19:46Z</time>
      </trkpt>
      <trkpt lat="43.46869" lon="6.40982">
        <ele>168</ele>
        <time>2022-04-08T13:19:47Z</time>
      </trkpt>
      <trkpt lat="43.46869" lon="6.40982">
        <ele>168</ele>
        <time>2022-04-08T13:19:48Z</time>
      </trkpt>
      <trkpt lat="43.46869" lon="6.40982">
        <ele>168</ele>
        <time>2022-04-08T13:19:49Z</time>
      </trkpt>
      <trkpt lat="43.46869" lon="6.40982">
        <ele>168</ele>
        <time>2022-04-08T13:19:50Z</time>
      </trkpt>
      <trkpt lat="43.46869" lon="6.40982">
        <ele>168</ele>
        <time>2022-04-08T13:19:51Z</time>
      </trkpt>
      <trkpt lat="43.46869" lon="6.40982">
        <ele>168</ele>
        <time>2022-04-08T13:19:52Z</time>
      </trkpt>
      <trkpt lat="43.46869" lon="6.40982">
        <ele>168</ele>
        <time>2022-04-08T13:19:53Z</time>
      </trkpt>
      <trkpt lat="43.46869" lon="6.40982">
        <ele>168</ele>
        <time>2022-04-08T13:19:54Z</time>
      </trkpt>
      <trkpt lat="43.46869" lon="6.40982">
        <ele>168</ele>
        <time>2022-04-08T13:19:55Z</time>
      </trkpt>
      <trkpt lat="43.46869" lon="6.40982">
        <ele>168</ele>
        <time>2022-04-08T13:19:56Z</time>
      </trkpt>
      <trkpt lat="43.46869" lon="6.40982">
        <ele>168</ele>
        <time>2022-04-08T13:19:57Z</time>
      </trkpt>
      <trkpt lat="43.46869" lon="6.40982">
        <ele>168</ele>
        <time>2022-04-08T13:19:58Z</time>
      </trkpt>
      <trkpt lat="43.46869" lon="6.40982">
        <ele>168</ele>
        <time>2022-04-08T13:19:59Z</time>
      </trkpt>
      <trkpt lat="43.46869" lon="6.40982">
        <ele>168</ele>
        <time>2022-04-08T13:20:00Z</time>
      </trkpt>
      <trkpt lat="43.46869" lon="6.40982">
        <ele>168</ele>
        <time>2022-04-08T13:20:01Z</time>
      </trkpt>
      <trkpt lat="43.46869" lon="6.40982">
        <ele>168</ele>
        <time>2022-04-08T13:20:02Z</time>
      </trkpt>
      <trkpt lat="43.46869" lon="6.40982">
        <ele>168</ele>
        <time>2022-04-08T13:20:03Z</time>
      </trkpt>
      <trkpt lat="43.46869" lon="6.40982">
        <ele>168</ele>
        <time>2022-04-08T13:20:04Z</time>
      </trkpt>
      <trkpt lat="43.46869" lon="6.40982">
        <ele>168</ele>
        <time>2022-04-08T13:20:05Z</time>
      </trkpt>
      <trkpt lat="43.46869" lon="6.40982">
        <ele>168</ele>
        <time>2022-04-08T13:20:06Z</time>
      </trkpt>
      <trkpt lat="43.46869" lon="6.40982">
        <ele>168</ele>
        <time>2022-04-08T13:20:07Z</time>
      </trkpt>
      <trkpt lat="43.46869" lon="6.40982">
        <ele>168</ele>
        <time>2022-04-08T13:20:08Z</time>
      </trkpt>
      <trkpt lat="43.46869" lon="6.40982">
        <ele>168</ele>
        <time>2022-04-08T13:20:09Z</time>
      </trkpt>
      <trkpt lat="43.46869" lon="6.40982">
        <ele>168</ele>
        <time>2022-04-08T13:20:10Z</time>
      </trkpt>
      <trkpt lat="43.46869" lon="6.40982">
        <ele>168</ele>
        <time>2022-04-08T13:20:11Z</time>
      </trkpt>
      <trkpt lat="43.46869" lon="6.40982">
        <ele>168</ele>
        <time>2022-04-08T13:20:12Z</time>
      </trkpt>
      <trkpt lat="43.46869" lon="6.40982">
        <ele>168</ele>
        <time>2022-04-08T13:20:13Z</time>
      </trkpt>
      <trkpt lat="43.46869" lon="6.40982">
        <ele>168</ele>
        <time>2022-04-08T13:20:14Z</time>
      </trkpt>
      <trkpt lat="43.46869" lon="6.40982">
        <ele>168</ele>
        <time>2022-04-08T13:20:15Z</time>
      </trkpt>
      <trkpt lat="43.46869" lon="6.40982">
        <ele>168</ele>
        <time>2022-04-08T13:20:16Z</time>
      </trkpt>
      <trkpt lat="43.46869" lon="6.40982">
        <ele>168</ele>
        <time>2022-04-08T13:20:17Z</time>
      </trkpt>
      <trkpt lat="43.46869" lon="6.40982">
        <ele>167</ele>
        <time>2022-04-08T13:20:18Z</time>
      </trkpt>
      <trkpt lat="43.46869" lon="6.40982">
        <ele>167</ele>
        <time>2022-04-08T13:20:19Z</time>
      </trkpt>
      <trkpt lat="43.46869" lon="6.40982">
        <ele>167</ele>
        <time>2022-04-08T13:20:20Z</time>
      </trkpt>
      <trkpt lat="43.46869" lon="6.40982">
        <ele>167</ele>
        <time>2022-04-08T13:20:21Z</time>
      </trkpt>
      <trkpt lat="43.46869" lon="6.40982">
        <ele>167</ele>
        <time>2022-04-08T13:20:22Z</time>
      </trkpt>
      <trkpt lat="43.46869" lon="6.40982">
        <ele>167</ele>
        <time>2022-04-08T13:20:23Z</time>
      </trkpt>
      <trkpt lat="43.46869" lon="6.40982">
        <ele>167</ele>
        <time>2022-04-08T13:20:24Z</time>
      </trkpt>
      <trkpt lat="43.46869" lon="6.40982">
        <ele>167</ele>
        <time>2022-04-08T13:20:25Z</time>
      </trkpt>
      <trkpt lat="43.46869" lon="6.40982">
        <ele>167</ele>
        <time>2022-04-08T13:20:26Z</time>
      </trkpt>
      <trkpt lat="43.46869" lon="6.40982">
        <ele>167</ele>
        <time>2022-04-08T13:20:27Z</time>
      </trkpt>
      <trkpt lat="43.46869" lon="6.40982">
        <ele>167</ele>
        <time>2022-04-08T13:20:28Z</time>
      </trkpt>
      <trkpt lat="43.46869" lon="6.40982">
        <ele>167</ele>
        <time>2022-04-08T13:20:29Z</time>
      </trkpt>
      <trkpt lat="43.46869" lon="6.40982">
        <ele>167</ele>
        <time>2022-04-08T13:20:30Z</time>
      </trkpt>
      <trkpt lat="43.46869" lon="6.40982">
        <ele>167</ele>
        <time>2022-04-08T13:20:31Z</time>
      </trkpt>
      <trkpt lat="43.46869" lon="6.40982">
        <ele>167</ele>
        <time>2022-04-08T13:20:32Z</time>
      </trkpt>
      <trkpt lat="43.46869" lon="6.40982">
        <ele>167</ele>
        <time>2022-04-08T13:20:33Z</time>
      </trkpt>
      <trkpt lat="43.46869" lon="6.40982">
        <ele>167</ele>
        <time>2022-04-08T13:20:34Z</time>
      </trkpt>
      <trkpt lat="43.46869" lon="6.40982">
        <ele>167</ele>
        <time>2022-04-08T13:20:35Z</time>
      </trkpt>
      <trkpt lat="43.46869" lon="6.40982">
        <ele>167</ele>
        <time>2022-04-08T13:20:36Z</time>
      </trkpt>
      <trkpt lat="43.46869" lon="6.40982">
        <ele>167</ele>
        <time>2022-04-08T13:20:37Z</time>
      </trkpt>
      <trkpt lat="43.46869" lon="6.40982">
        <ele>167</ele>
        <time>2022-04-08T13:20:38Z</time>
      </trkpt>
      <trkpt lat="43.46869" lon="6.40982">
        <ele>167</ele>
        <time>2022-04-08T13:20:39Z</time>
      </trkpt>
      <trkpt lat="43.46869" lon="6.40982">
        <ele>167</ele>
        <time>2022-04-08T13:20:40Z</time>
      </trkpt>
      <trkpt lat="43.46869" lon="6.40982">
        <ele>167</ele>
        <time>2022-04-08T13:20:41Z</time>
      </trkpt>
      <trkpt lat="43.46869" lon="6.40982">
        <ele>167</ele>
        <time>2022-04-08T13:20:42Z</time>
      </trkpt>
      <trkpt lat="43.46869" lon="6.40982">
        <ele>167</ele>
        <time>2022-04-08T13:20:43Z</time>
      </trkpt>
      <trkpt lat="43.46869" lon="6.40982">
        <ele>167</ele>
        <time>2022-04-08T13:20:44Z</time>
      </trkpt>
      <trkpt lat="43.46869" lon="6.40982">
        <ele>167</ele>
        <time>2022-04-08T13:20:45Z</time>
      </trkpt>
      <trkpt lat="43.46869" lon="6.40982">
        <ele>167</ele>
        <time>2022-04-08T13:20:46Z</time>
      </trkpt>
      <trkpt lat="43.46869" lon="6.40982">
        <ele>167</ele>
        <time>2022-04-08T13:20:47Z</time>
      </trkpt>
      <trkpt lat="43.46869" lon="6.40983">
        <ele>167</ele>
        <time>2022-04-08T13:20:48Z</time>
      </trkpt>
      <trkpt lat="43.46869" lon="6.40983">
        <ele>167</ele>
        <time>2022-04-08T13:20:49Z</time>
      </trkpt>
      <trkpt lat="43.46869" lon="6.40983">
        <ele>167</ele>
        <time>2022-04-08T13:20:50Z</time>
      </trkpt>
      <trkpt lat="43.46869" lon="6.40983">
        <ele>167</ele>
        <time>2022-04-08T13:20:51Z</time>
      </trkpt>
      <trkpt lat="43.46869" lon="6.40983">
        <ele>167</ele>
        <time>2022-04-08T13:20:52Z</time>
      </trkpt>
      <trkpt lat="43.46869" lon="6.40983">
        <ele>167</ele>
        <time>2022-04-08T13:20:53Z</time>
      </trkpt>
      <trkpt lat="43.46874" lon="6.40992">
        <ele>167</ele>
        <time>2022-04-08T13:21:02Z</time>
      </trkpt>
      <trkpt lat="43.46876" lon="6.40993">
        <ele>166</ele>
        <time>2022-04-08T13:21:03Z</time>
      </trkpt>
      <trkpt lat="43.46876" lon="6.40993">
        <ele>166</ele>
        <time>2022-04-08T13:21:04Z</time>
      </trkpt>
      <trkpt lat="43.46876" lon="6.40993">
        <ele>166</ele>
        <time>2022-04-08T13:21:05Z</time>
      </trkpt>
      <trkpt lat="43.46876" lon="6.40993">
        <ele>166</ele>
        <time>2022-04-08T13:21:06Z</time>
      </trkpt>
      <trkpt lat="43.46878" lon="6.40996">
        <ele>166</ele>
        <time>2022-04-08T13:21:07Z</time>
      </trkpt>
      <trkpt lat="43.46879" lon="6.40997">
        <ele>166</ele>
        <time>2022-04-08T13:21:08Z</time>
      </trkpt>
      <trkpt lat="43.46879" lon="6.40998">
        <ele>166</ele>
        <time>2022-04-08T13:21:09Z</time>
      </trkpt>
      <trkpt lat="43.46879" lon="6.40999">
        <ele>166</ele>
        <time>2022-04-08T13:21:10Z</time>
      </trkpt>
      <trkpt lat="43.46879" lon="6.41">
        <ele>166</ele>
        <time>2022-04-08T13:21:11Z</time>
      </trkpt>
      <trkpt lat="43.46878" lon="6.41002">
        <ele>166</ele>
        <time>2022-04-08T13:21:12Z</time>
      </trkpt>
      <trkpt lat="43.46879" lon="6.41003">
        <ele>166</ele>
        <time>2022-04-08T13:21:13Z</time>
      </trkpt>
      <trkpt lat="43.46879" lon="6.41005">
        <ele>165</ele>
        <time>2022-04-08T13:21:14Z</time>
      </trkpt>
      <trkpt lat="43.4688" lon="6.41006">
        <ele>165</ele>
        <time>2022-04-08T13:21:15Z</time>
      </trkpt>
      <trkpt lat="43.4688" lon="6.41007">
        <ele>165</ele>
        <time>2022-04-08T13:21:16Z</time>
      </trkpt>
      <trkpt lat="43.46881" lon="6.41008">
        <ele>165</ele>
        <time>2022-04-08T13:21:17Z</time>
      </trkpt>
      <trkpt lat="43.46881" lon="6.41009">
        <ele>165</ele>
        <time>2022-04-08T13:21:18Z</time>
      </trkpt>
      <trkpt lat="43.46882" lon="6.4101">
        <ele>165</ele>
        <time>2022-04-08T13:21:19Z</time>
      </trkpt>
      <trkpt lat="43.46882" lon="6.41011">
        <ele>165</ele>
        <time>2022-04-08T13:21:20Z</time>
      </trkpt>
      <trkpt lat="43.46883" lon="6.41012">
        <ele>165</ele>
        <time>2022-04-08T13:21:21Z</time>
      </trkpt>
      <trkpt lat="43.46884" lon="6.41014">
        <ele>165</ele>
        <time>2022-04-08T13:21:22Z</time>
      </trkpt>
      <trkpt lat="43.46885" lon="6.41015">
        <ele>165</ele>
        <time>2022-04-08T13:21:23Z</time>
      </trkpt>
      <trkpt lat="43.46886" lon="6.41016">
        <ele>165</ele>
        <time>2022-04-08T13:21:24Z</time>
      </trkpt>
      <trkpt lat="43.46886" lon="6.41017">
        <ele>165</ele>
        <time>2022-04-08T13:21:25Z</time>
      </trkpt>
      <trkpt lat="43.46886" lon="6.41018">
        <ele>165</ele>
        <time>2022-04-08T13:21:26Z</time>
      </trkpt>
      <trkpt lat="43.46887" lon="6.41018">
        <ele>165</ele>
        <time>2022-04-08T13:21:27Z</time>
      </trkpt>
      <trkpt lat="43.46887" lon="6.41019">
        <ele>165</ele>
        <time>2022-04-08T13:21:28Z</time>
      </trkpt>
      <trkpt lat="43.46888" lon="6.4102">
        <ele>164</ele>
        <time>2022-04-08T13:21:29Z</time>
      </trkpt>
      <trkpt lat="43.46888" lon="6.41021">
        <ele>164</ele>
        <time>2022-04-08T13:21:30Z</time>
      </trkpt>
      <trkpt lat="43.46888" lon="6.41022">
        <ele>164</ele>
        <time>2022-04-08T13:21:31Z</time>
      </trkpt>
      <trkpt lat="43.46889" lon="6.41023">
        <ele>164</ele>
        <time>2022-04-08T13:21:32Z</time>
      </trkpt>
      <trkpt lat="43.46889" lon="6.41023">
        <ele>164</ele>
        <time>2022-04-08T13:21:33Z</time>
      </trkpt>
      <trkpt lat="43.4689" lon="6.41024">
        <ele>164</ele>
        <time>2022-04-08T13:21:34Z</time>
      </trkpt>
      <trkpt lat="43.46891" lon="6.41025">
        <ele>164</ele>
        <time>2022-04-08T13:21:35Z</time>
      </trkpt>
      <trkpt lat="43.46891" lon="6.41026">
        <ele>164</ele>
        <time>2022-04-08T13:21:36Z</time>
      </trkpt>
      <trkpt lat="43.46892" lon="6.41027">
        <ele>164</ele>
        <time>2022-04-08T13:21:37Z</time>
      </trkpt>
      <trkpt lat="43.46893" lon="6.41029">
        <ele>164</ele>
        <time>2022-04-08T13:21:38Z</time>
      </trkpt>
      <trkpt lat="43.46894" lon="6.4103">
        <ele>165</ele>
        <time>2022-04-08T13:21:39Z</time>
      </trkpt>
      <trkpt lat="43.46895" lon="6.41032">
        <ele>165</ele>
        <time>2022-04-08T13:21:40Z</time>
      </trkpt>
      <trkpt lat="43.46896" lon="6.41033">
        <ele>165</ele>
        <time>2022-04-08T13:21:41Z</time>
      </trkpt>
      <trkpt lat="43.46896" lon="6.41034">
        <ele>165</ele>
        <time>2022-04-08T13:21:42Z</time>
      </trkpt>
      <trkpt lat="43.46897" lon="6.41034">
        <ele>165</ele>
        <time>2022-04-08T13:21:43Z</time>
      </trkpt>
      <trkpt lat="43.46897" lon="6.41035">
        <ele>165</ele>
        <time>2022-04-08T13:21:44Z</time>
      </trkpt>
      <trkpt lat="43.46897" lon="6.41035">
        <ele>166</ele>
        <time>2022-04-08T13:21:45Z</time>
      </trkpt>
      <trkpt lat="43.46898" lon="6.41035">
        <ele>166</ele>
        <time>2022-04-08T13:21:46Z</time>
      </trkpt>
      <trkpt lat="43.46898" lon="6.41036">
        <ele>166</ele>
        <time>2022-04-08T13:21:47Z</time>
      </trkpt>
      <trkpt lat="43.46899" lon="6.41037">
        <ele>166</ele>
        <time>2022-04-08T13:21:48Z</time>
      </trkpt>
      <trkpt lat="43.469" lon="6.41038">
        <ele>166</ele>
        <time>2022-04-08T13:21:49Z</time>
      </trkpt>
      <trkpt lat="43.46901" lon="6.4104">
        <ele>166</ele>
        <time>2022-04-08T13:21:50Z</time>
      </trkpt>
      <trkpt lat="43.46902" lon="6.41042">
        <ele>166</ele>
        <time>2022-04-08T13:21:51Z</time>
      </trkpt>
      <trkpt lat="43.46903" lon="6.41044">
        <ele>166</ele>
        <time>2022-04-08T13:21:52Z</time>
      </trkpt>
      <trkpt lat="43.46904" lon="6.41045">
        <ele>167</ele>
        <time>2022-04-08T13:21:53Z</time>
      </trkpt>
      <trkpt lat="43.46905" lon="6.41047">
        <ele>167</ele>
        <time>2022-04-08T13:21:54Z</time>
      </trkpt>
      <trkpt lat="43.46906" lon="6.41049">
        <ele>167</ele>
        <time>2022-04-08T13:21:55Z</time>
      </trkpt>
      <trkpt lat="43.46906" lon="6.41051">
        <ele>167</ele>
        <time>2022-04-08T13:21:56Z</time>
      </trkpt>
      <trkpt lat="43.46907" lon="6.41053">
        <ele>168</ele>
        <time>2022-04-08T13:21:57Z</time>
      </trkpt>
      <trkpt lat="43.46908" lon="6.41055">
        <ele>168</ele>
        <time>2022-04-08T13:21:58Z</time>
      </trkpt>
      <trkpt lat="43.46909" lon="6.41058">
        <ele>168</ele>
        <time>2022-04-08T13:21:59Z</time>
      </trkpt>
      <trkpt lat="43.46909" lon="6.4106">
        <ele>167</ele>
        <time>2022-04-08T13:22:00Z</time>
      </trkpt>
      <trkpt lat="43.4691" lon="6.41062">
        <ele>167</ele>
        <time>2022-04-08T13:22:01Z</time>
      </trkpt>
      <trkpt lat="43.4691" lon="6.41063">
        <ele>167</ele>
        <time>2022-04-08T13:22:02Z</time>
      </trkpt>
      <trkpt lat="43.46911" lon="6.41065">
        <ele>167</ele>
        <time>2022-04-08T13:22:03Z</time>
      </trkpt>
      <trkpt lat="43.46911" lon="6.41066">
        <ele>166</ele>
        <time>2022-04-08T13:22:04Z</time>
      </trkpt>
      <trkpt lat="43.46912" lon="6.41068">
        <ele>166</ele>
        <time>2022-04-08T13:22:05Z</time>
      </trkpt>
      <trkpt lat="43.46912" lon="6.41069">
        <ele>166</ele>
        <time>2022-04-08T13:22:06Z</time>
      </trkpt>
      <trkpt lat="43.46912" lon="6.4107">
        <ele>166</ele>
        <time>2022-04-08T13:22:07Z</time>
      </trkpt>
      <trkpt lat="43.46913" lon="6.41072">
        <ele>165</ele>
        <time>2022-04-08T13:22:08Z</time>
      </trkpt>
      <trkpt lat="43.46913" lon="6.41073">
        <ele>164</ele>
        <time>2022-04-08T13:22:09Z</time>
      </trkpt>
      <trkpt lat="43.46914" lon="6.41075">
        <ele>164</ele>
        <time>2022-04-08T13:22:10Z</time>
      </trkpt>
      <trkpt lat="43.46914" lon="6.41076">
        <ele>164</ele>
        <time>2022-04-08T13:22:11Z</time>
      </trkpt>
      <trkpt lat="43.46915" lon="6.41077">
        <ele>164</ele>
        <time>2022-04-08T13:22:12Z</time>
      </trkpt>
      <trkpt lat="43.46916" lon="6.41078">
        <ele>163</ele>
        <time>2022-04-08T13:22:13Z</time>
      </trkpt>
      <trkpt lat="43.46917" lon="6.41079">
        <ele>163</ele>
        <time>2022-04-08T13:22:14Z</time>
      </trkpt>
      <trkpt lat="43.46917" lon="6.4108">
        <ele>163</ele>
        <time>2022-04-08T13:22:15Z</time>
      </trkpt>
      <trkpt lat="43.46918" lon="6.41081">
        <ele>163</ele>
        <time>2022-04-08T13:22:16Z</time>
      </trkpt>
      <trkpt lat="43.46919" lon="6.41082">
        <ele>163</ele>
        <time>2022-04-08T13:22:17Z</time>
      </trkpt>
      <trkpt lat="43.46919" lon="6.41083">
        <ele>163</ele>
        <time>2022-04-08T13:22:18Z</time>
      </trkpt>
      <trkpt lat="43.4692" lon="6.41085">
        <ele>163</ele>
        <time>2022-04-08T13:22:19Z</time>
      </trkpt>
      <trkpt lat="43.4692" lon="6.41086">
        <ele>163</ele>
        <time>2022-04-08T13:22:20Z</time>
      </trkpt>
      <trkpt lat="43.4692" lon="6.41087">
        <ele>163</ele>
        <time>2022-04-08T13:22:21Z</time>
      </trkpt>
      <trkpt lat="43.46921" lon="6.41088">
        <ele>163</ele>
        <time>2022-04-08T13:22:22Z</time>
      </trkpt>
      <trkpt lat="43.46921" lon="6.41089">
        <ele>163</ele>
        <time>2022-04-08T13:22:23Z</time>
      </trkpt>
      <trkpt lat="43.46922" lon="6.4109">
        <ele>163</ele>
        <time>2022-04-08T13:22:24Z</time>
      </trkpt>
      <trkpt lat="43.46922" lon="6.41091">
        <ele>163</ele>
        <time>2022-04-08T13:22:25Z</time>
      </trkpt>
      <trkpt lat="43.46922" lon="6.41092">
        <ele>163</ele>
        <time>2022-04-08T13:22:26Z</time>
      </trkpt>
      <trkpt lat="43.46922" lon="6.41093">
        <ele>163</ele>
        <time>2022-04-08T13:22:27Z</time>
      </trkpt>
      <trkpt lat="43.46922" lon="6.41093">
        <ele>163</ele>
        <time>2022-04-08T13:22:28Z</time>
      </trkpt>
      <trkpt lat="43.46922" lon="6.41094">
        <ele>163</ele>
        <time>2022-04-08T13:22:29Z</time>
      </trkpt>
      <trkpt lat="43.46923" lon="6.41094">
        <ele>162</ele>
        <time>2022-04-08T13:22:30Z</time>
      </trkpt>
      <trkpt lat="43.46922" lon="6.41095">
        <ele>162</ele>
        <time>2022-04-08T13:22:31Z</time>
      </trkpt>
      <trkpt lat="43.46923" lon="6.41095">
        <ele>162</ele>
        <time>2022-04-08T13:22:32Z</time>
      </trkpt>
      <trkpt lat="43.46923" lon="6.41096">
        <ele>162</ele>
        <time>2022-04-08T13:22:33Z</time>
      </trkpt>
      <trkpt lat="43.46924" lon="6.41096">
        <ele>162</ele>
        <time>2022-04-08T13:22:34Z</time>
      </trkpt>
      <trkpt lat="43.46924" lon="6.41096">
        <ele>162</ele>
        <time>2022-04-08T13:22:35Z</time>
      </trkpt>
      <trkpt lat="43.46925" lon="6.41096">
        <ele>162</ele>
        <time>2022-04-08T13:22:36Z</time>
      </trkpt>
      <trkpt lat="43.46926" lon="6.41097">
        <ele>163</ele>
        <time>2022-04-08T13:22:37Z</time>
      </trkpt>
      <trkpt lat="43.46927" lon="6.41097">
        <ele>163</ele>
        <time>2022-04-08T13:22:38Z</time>
      </trkpt>
      <trkpt lat="43.46927" lon="6.41098">
        <ele>163</ele>
        <time>2022-04-08T13:22:39Z</time>
      </trkpt>
      <trkpt lat="43.46928" lon="6.41098">
        <ele>163</ele>
        <time>2022-04-08T13:22:40Z</time>
      </trkpt>
      <trkpt lat="43.46928" lon="6.41099">
        <ele>163</ele>
        <time>2022-04-08T13:22:41Z</time>
      </trkpt>
      <trkpt lat="43.46929" lon="6.411">
        <ele>163</ele>
        <time>2022-04-08T13:22:42Z</time>
      </trkpt>
      <trkpt lat="43.4693" lon="6.411">
        <ele>162</ele>
        <time>2022-04-08T13:22:43Z</time>
      </trkpt>
      <trkpt lat="43.4693" lon="6.41101">
        <ele>162</ele>
        <time>2022-04-08T13:22:44Z</time>
      </trkpt>
      <trkpt lat="43.46931" lon="6.41102">
        <ele>163</ele>
        <time>2022-04-08T13:22:45Z</time>
      </trkpt>
      <trkpt lat="43.46932" lon="6.41103">
        <ele>163</ele>
        <time>2022-04-08T13:22:46Z</time>
      </trkpt>
      <trkpt lat="43.46933" lon="6.41104">
        <ele>163</ele>
        <time>2022-04-08T13:22:47Z</time>
      </trkpt>
      <trkpt lat="43.46934" lon="6.41104">
        <ele>163</ele>
        <time>2022-04-08T13:22:48Z</time>
      </trkpt>
      <trkpt lat="43.46935" lon="6.41105">
        <ele>163</ele>
        <time>2022-04-08T13:22:49Z</time>
      </trkpt>
      <trkpt lat="43.46937" lon="6.41106">
        <ele>164</ele>
        <time>2022-04-08T13:22:50Z</time>
      </trkpt>
      <trkpt lat="43.46938" lon="6.41106">
        <ele>164</ele>
        <time>2022-04-08T13:22:51Z</time>
      </trkpt>
      <trkpt lat="43.46939" lon="6.41106">
        <ele>164</ele>
        <time>2022-04-08T13:22:52Z</time>
      </trkpt>
      <trkpt lat="43.4694" lon="6.41106">
        <ele>164</ele>
        <time>2022-04-08T13:22:53Z</time>
      </trkpt>
      <trkpt lat="43.46941" lon="6.41106">
        <ele>165</ele>
        <time>2022-04-08T13:22:54Z</time>
      </trkpt>
      <trkpt lat="43.46942" lon="6.41105">
        <ele>165</ele>
        <time>2022-04-08T13:22:55Z</time>
      </trkpt>
      <trkpt lat="43.46942" lon="6.41104">
        <ele>165</ele>
        <time>2022-04-08T13:22:56Z</time>
      </trkpt>
      <trkpt lat="43.46943" lon="6.41104">
        <ele>165</ele>
        <time>2022-04-08T13:22:57Z</time>
      </trkpt>
      <trkpt lat="43.46944" lon="6.41103">
        <ele>164</ele>
        <time>2022-04-08T13:22:58Z</time>
      </trkpt>
      <trkpt lat="43.46944" lon="6.41102">
        <ele>164</ele>
        <time>2022-04-08T13:22:59Z</time>
      </trkpt>
      <trkpt lat="43.46945" lon="6.41101">
        <ele>164</ele>
        <time>2022-04-08T13:23:00Z</time>
      </trkpt>
      <trkpt lat="43.46945" lon="6.41101">
        <ele>164</ele>
        <time>2022-04-08T13:23:01Z</time>
      </trkpt>
      <trkpt lat="43.46946" lon="6.411">
        <ele>164</ele>
        <time>2022-04-08T13:23:02Z</time>
      </trkpt>
      <trkpt lat="43.46946" lon="6.41099">
        <ele>164</ele>
        <time>2022-04-08T13:23:03Z</time>
      </trkpt>
      <trkpt lat="43.46946" lon="6.41098">
        <ele>164</ele>
        <time>2022-04-08T13:23:04Z</time>
      </trkpt>
      <trkpt lat="43.46947" lon="6.41097">
        <ele>164</ele>
        <time>2022-04-08T13:23:05Z</time>
      </trkpt>
      <trkpt lat="43.46947" lon="6.41097">
        <ele>164</ele>
        <time>2022-04-08T13:23:06Z</time>
      </trkpt>
      <trkpt lat="43.46947" lon="6.41096">
        <ele>164</ele>
        <time>2022-04-08T13:23:07Z</time>
      </trkpt>
      <trkpt lat="43.46948" lon="6.41095">
        <ele>164</ele>
        <time>2022-04-08T13:23:08Z</time>
      </trkpt>
      <trkpt lat="43.46948" lon="6.41094">
        <ele>164</ele>
        <time>2022-04-08T13:23:09Z</time>
      </trkpt>
      <trkpt lat="43.46949" lon="6.41094">
        <ele>164</ele>
        <time>2022-04-08T13:23:10Z</time>
      </trkpt>
      <trkpt lat="43.46949" lon="6.41093">
        <ele>163</ele>
        <time>2022-04-08T13:23:11Z</time>
      </trkpt>
      <trkpt lat="43.46949" lon="6.41092">
        <ele>163</ele>
        <time>2022-04-08T13:23:12Z</time>
      </trkpt>
      <trkpt lat="43.46949" lon="6.41092">
        <ele>163</ele>
        <time>2022-04-08T13:23:13Z</time>
      </trkpt>
      <trkpt lat="43.46949" lon="6.41092">
        <ele>163</ele>
        <time>2022-04-08T13:23:14Z</time>
      </trkpt>
      <trkpt lat="43.46949" lon="6.41091">
        <ele>163</ele>
        <time>2022-04-08T13:23:15Z</time>
      </trkpt>
      <trkpt lat="43.46948" lon="6.41091">
        <ele>163</ele>
        <time>2022-04-08T13:23:16Z</time>
      </trkpt>
      <trkpt lat="43.46948" lon="6.4109">
        <ele>163</ele>
        <time>2022-04-08T13:23:17Z</time>
      </trkpt>
      <trkpt lat="43.46948" lon="6.41089">
        <ele>162</ele>
        <time>2022-04-08T13:23:18Z</time>
      </trkpt>
      <trkpt lat="43.46949" lon="6.41089">
        <ele>162</ele>
        <time>2022-04-08T13:23:19Z</time>
      </trkpt>
      <trkpt lat="43.46949" lon="6.41088">
        <ele>162</ele>
        <time>2022-04-08T13:23:20Z</time>
      </trkpt>
      <trkpt lat="43.46949" lon="6.41087">
        <ele>162</ele>
        <time>2022-04-08T13:23:21Z</time>
      </trkpt>
      <trkpt lat="43.46949" lon="6.41087">
        <ele>162</ele>
        <time>2022-04-08T13:23:22Z</time>
      </trkpt>
      <trkpt lat="43.4695" lon="6.41086">
        <ele>162</ele>
        <time>2022-04-08T13:23:23Z</time>
      </trkpt>
      <trkpt lat="43.46951" lon="6.41085">
        <ele>162</ele>
        <time>2022-04-08T13:23:24Z</time>
      </trkpt>
      <trkpt lat="43.46951" lon="6.41084">
        <ele>162</ele>
        <time>2022-04-08T13:23:25Z</time>
      </trkpt>
      <trkpt lat="43.46952" lon="6.41083">
        <ele>161</ele>
        <time>2022-04-08T13:23:26Z</time>
      </trkpt>
      <trkpt lat="43.46952" lon="6.41083">
        <ele>161</ele>
        <time>2022-04-08T13:23:27Z</time>
      </trkpt>
      <trkpt lat="43.46953" lon="6.41082">
        <ele>160</ele>
        <time>2022-04-08T13:23:28Z</time>
      </trkpt>
      <trkpt lat="43.46953" lon="6.41081">
        <ele>159</ele>
        <time>2022-04-08T13:23:29Z</time>
      </trkpt>
      <trkpt lat="43.46954" lon="6.4108">
        <ele>159</ele>
        <time>2022-04-08T13:23:30Z</time>
      </trkpt>
      <trkpt lat="43.46955" lon="6.41079">
        <ele>159</ele>
        <time>2022-04-08T13:23:31Z</time>
      </trkpt>
      <trkpt lat="43.46956" lon="6.41078">
        <ele>159</ele>
        <time>2022-04-08T13:23:32Z</time>
      </trkpt>
      <trkpt lat="43.46956" lon="6.41077">
        <ele>159</ele>
        <time>2022-04-08T13:23:33Z</time>
      </trkpt>
      <trkpt lat="43.46957" lon="6.41077">
        <ele>159</ele>
        <time>2022-04-08T13:23:34Z</time>
      </trkpt>
      <trkpt lat="43.46957" lon="6.41076">
        <ele>159</ele>
        <time>2022-04-08T13:23:35Z</time>
      </trkpt>
      <trkpt lat="43.46958" lon="6.41076">
        <ele>159</ele>
        <time>2022-04-08T13:23:36Z</time>
      </trkpt>
      <trkpt lat="43.46958" lon="6.41075">
        <ele>159</ele>
        <time>2022-04-08T13:23:37Z</time>
      </trkpt>
      <trkpt lat="43.46959" lon="6.41074">
        <ele>159</ele>
        <time>2022-04-08T13:23:38Z</time>
      </trkpt>
      <trkpt lat="43.46959" lon="6.41074">
        <ele>159</ele>
        <time>2022-04-08T13:23:39Z</time>
      </trkpt>
      <trkpt lat="43.4696" lon="6.41073">
        <ele>159</ele>
        <time>2022-04-08T13:23:40Z</time>
      </trkpt>
      <trkpt lat="43.4696" lon="6.41072">
        <ele>159</ele>
        <time>2022-04-08T13:23:41Z</time>
      </trkpt>
      <trkpt lat="43.4696" lon="6.41072">
        <ele>159</ele>
        <time>2022-04-08T13:23:42Z</time>
      </trkpt>
      <trkpt lat="43.46961" lon="6.41071">
        <ele>159</ele>
        <time>2022-04-08T13:23:43Z</time>
      </trkpt>
      <trkpt lat="43.46961" lon="6.41071">
        <ele>159</ele>
        <time>2022-04-08T13:23:44Z</time>
      </trkpt>
      <trkpt lat="43.46962" lon="6.41071">
        <ele>159</ele>
        <time>2022-04-08T13:23:45Z</time>
      </trkpt>
      <trkpt lat="43.46962" lon="6.4107">
        <ele>159</ele>
        <time>2022-04-08T13:23:46Z</time>
      </trkpt>
      <trkpt lat="43.46963" lon="6.4107">
        <ele>159</ele>
        <time>2022-04-08T13:23:47Z</time>
      </trkpt>
      <trkpt lat="43.46963" lon="6.41069">
        <ele>159</ele>
        <time>2022-04-08T13:23:48Z</time>
      </trkpt>
      <trkpt lat="43.46964" lon="6.41068">
        <ele>159</ele>
        <time>2022-04-08T13:23:49Z</time>
      </trkpt>
      <trkpt lat="43.46965" lon="6.41068">
        <ele>159</ele>
        <time>2022-04-08T13:23:50Z</time>
      </trkpt>
      <trkpt lat="43.46965" lon="6.41067">
        <ele>159</ele>
        <time>2022-04-08T13:23:51Z</time>
      </trkpt>
      <trkpt lat="43.46965" lon="6.41067">
        <ele>158</ele>
        <time>2022-04-08T13:23:52Z</time>
      </trkpt>
      <trkpt lat="43.46966" lon="6.41067">
        <ele>158</ele>
        <time>2022-04-08T13:23:53Z</time>
      </trkpt>
      <trkpt lat="43.46967" lon="6.41067">
        <ele>158</ele>
        <time>2022-04-08T13:23:54Z</time>
      </trkpt>
      <trkpt lat="43.46968" lon="6.41066">
        <ele>158</ele>
        <time>2022-04-08T13:23:55Z</time>
      </trkpt>
      <trkpt lat="43.46968" lon="6.41065">
        <ele>158</ele>
        <time>2022-04-08T13:23:56Z</time>
      </trkpt>
      <trkpt lat="43.46969" lon="6.41065">
        <ele>158</ele>
        <time>2022-04-08T13:23:57Z</time>
      </trkpt>
      <trkpt lat="43.4697" lon="6.41064">
        <ele>157</ele>
        <time>2022-04-08T13:23:58Z</time>
      </trkpt>
      <trkpt lat="43.46971" lon="6.41063">
        <ele>157</ele>
        <time>2022-04-08T13:23:59Z</time>
      </trkpt>
      <trkpt lat="43.46971" lon="6.41063">
        <ele>156</ele>
        <time>2022-04-08T13:24:00Z</time>
      </trkpt>
      <trkpt lat="43.46972" lon="6.41062">
        <ele>156</ele>
        <time>2022-04-08T13:24:01Z</time>
      </trkpt>
      <trkpt lat="43.46973" lon="6.41062">
        <ele>156</ele>
        <time>2022-04-08T13:24:02Z</time>
      </trkpt>
      <trkpt lat="43.46974" lon="6.41061">
        <ele>156</ele>
        <time>2022-04-08T13:24:03Z</time>
      </trkpt>
      <trkpt lat="43.46974" lon="6.4106">
        <ele>156</ele>
        <time>2022-04-08T13:24:04Z</time>
      </trkpt>
      <trkpt lat="43.46975" lon="6.4106">
        <ele>156</ele>
        <time>2022-04-08T13:24:05Z</time>
      </trkpt>
      <trkpt lat="43.46976" lon="6.41059">
        <ele>156</ele>
        <time>2022-04-08T13:24:06Z</time>
      </trkpt>
      <trkpt lat="43.46977" lon="6.41059">
        <ele>156</ele>
        <time>2022-04-08T13:24:07Z</time>
      </trkpt>
      <trkpt lat="43.46978" lon="6.41059">
        <ele>156</ele>
        <time>2022-04-08T13:24:08Z</time>
      </trkpt>
      <trkpt lat="43.46979" lon="6.41059">
        <ele>157</ele>
        <time>2022-04-08T13:24:09Z</time>
      </trkpt>
      <trkpt lat="43.4698" lon="6.41058">
        <ele>157</ele>
        <time>2022-04-08T13:24:10Z</time>
      </trkpt>
      <trkpt lat="43.46981" lon="6.41058">
        <ele>157</ele>
        <time>2022-04-08T13:24:11Z</time>
      </trkpt>
      <trkpt lat="43.46982" lon="6.41058">
        <ele>157</ele>
        <time>2022-04-08T13:24:12Z</time>
      </trkpt>
      <trkpt lat="43.46983" lon="6.41057">
        <ele>157</ele>
        <time>2022-04-08T13:24:13Z</time>
      </trkpt>
      <trkpt lat="43.46984" lon="6.41057">
        <ele>157</ele>
        <time>2022-04-08T13:24:14Z</time>
      </trkpt>
      <trkpt lat="43.46985" lon="6.41057">
        <ele>157</ele>
        <time>2022-04-08T13:24:15Z</time>
      </trkpt>
      <trkpt lat="43.46986" lon="6.41057">
        <ele>157</ele>
        <time>2022-04-08T13:24:16Z</time>
      </trkpt>
      <trkpt lat="43.46987" lon="6.41057">
        <ele>157</ele>
        <time>2022-04-08T13:24:17Z</time>
      </trkpt>
      <trkpt lat="43.46988" lon="6.41057">
        <ele>157</ele>
        <time>2022-04-08T13:24:18Z</time>
      </trkpt>
      <trkpt lat="43.46989" lon="6.41057">
        <ele>156</ele>
        <time>2022-04-08T13:24:19Z</time>
      </trkpt>
      <trkpt lat="43.4699" lon="6.41057">
        <ele>156</ele>
        <time>2022-04-08T13:24:20Z</time>
      </trkpt>
      <trkpt lat="43.46991" lon="6.41057">
        <ele>156</ele>
        <time>2022-04-08T13:24:21Z</time>
      </trkpt>
      <trkpt lat="43.46992" lon="6.41057">
        <ele>156</ele>
        <time>2022-04-08T13:24:22Z</time>
      </trkpt>
      <trkpt lat="43.46993" lon="6.41057">
        <ele>156</ele>
        <time>2022-04-08T13:24:23Z</time>
      </trkpt>
      <trkpt lat="43.46993" lon="6.41057">
        <ele>156</ele>
        <time>2022-04-08T13:24:24Z</time>
      </trkpt>
      <trkpt lat="43.46994" lon="6.41056">
        <ele>156</ele>
        <time>2022-04-08T13:24:25Z</time>
      </trkpt>
      <trkpt lat="43.46995" lon="6.41056">
        <ele>156</ele>
        <time>2022-04-08T13:24:26Z</time>
      </trkpt>
      <trkpt lat="43.46996" lon="6.41056">
        <ele>156</ele>
        <time>2022-04-08T13:24:27Z</time>
      </trkpt>
      <trkpt lat="43.46997" lon="6.41056">
        <ele>156</ele>
        <time>2022-04-08T13:24:28Z</time>
      </trkpt>
      <trkpt lat="43.46998" lon="6.41056">
        <ele>155</ele>
        <time>2022-04-08T13:24:29Z</time>
      </trkpt>
      <trkpt lat="43.46999" lon="6.41056">
        <ele>154</ele>
        <time>2022-04-08T13:24:30Z</time>
      </trkpt>
      <trkpt lat="43.47" lon="6.41056">
        <ele>154</ele>
        <time>2022-04-08T13:24:31Z</time>
      </trkpt>
      <trkpt lat="43.47001" lon="6.41055">
        <ele>154</ele>
        <time>2022-04-08T13:24:32Z</time>
      </trkpt>
      <trkpt lat="43.47002" lon="6.41055">
        <ele>154</ele>
        <time>2022-04-08T13:24:33Z</time>
      </trkpt>
      <trkpt lat="43.47003" lon="6.41055">
        <ele>153</ele>
        <time>2022-04-08T13:24:34Z</time>
      </trkpt>
      <trkpt lat="43.47004" lon="6.41054">
        <ele>153</ele>
        <time>2022-04-08T13:24:35Z</time>
      </trkpt>
      <trkpt lat="43.47004" lon="6.41054">
        <ele>152</ele>
        <time>2022-04-08T13:24:36Z</time>
      </trkpt>
      <trkpt lat="43.47005" lon="6.41054">
        <ele>152</ele>
        <time>2022-04-08T13:24:37Z</time>
      </trkpt>
      <trkpt lat="43.47006" lon="6.41054">
        <ele>152</ele>
        <time>2022-04-08T13:24:38Z</time>
      </trkpt>
      <trkpt lat="43.47007" lon="6.41054">
        <ele>152</ele>
        <time>2022-04-08T13:24:39Z</time>
      </trkpt>
      <trkpt lat="43.47008" lon="6.41054">
        <ele>152</ele>
        <time>2022-04-08T13:24:40Z</time>
      </trkpt>
      <trkpt lat="43.47009" lon="6.41054">
        <ele>150</ele>
        <time>2022-04-08T13:24:41Z</time>
      </trkpt>
      <trkpt lat="43.4701" lon="6.41053">
        <ele>150</ele>
        <time>2022-04-08T13:24:42Z</time>
      </trkpt>
      <trkpt lat="43.4701" lon="6.41053">
        <ele>150</ele>
        <time>2022-04-08T13:24:43Z</time>
      </trkpt>
      <trkpt lat="43.47011" lon="6.41053">
        <ele>149</ele>
        <time>2022-04-08T13:24:44Z</time>
      </trkpt>
      <trkpt lat="43.47012" lon="6.41053">
        <ele>149</ele>
        <time>2022-04-08T13:24:45Z</time>
      </trkpt>
      <trkpt lat="43.47013" lon="6.41052">
        <ele>149</ele>
        <time>2022-04-08T13:24:46Z</time>
      </trkpt>
      <trkpt lat="43.47014" lon="6.41052">
        <ele>149</ele>
        <time>2022-04-08T13:24:47Z</time>
      </trkpt>
      <trkpt lat="43.47015" lon="6.41052">
        <ele>149</ele>
        <time>2022-04-08T13:24:48Z</time>
      </trkpt>
      <trkpt lat="43.47016" lon="6.41052">
        <ele>149</ele>
        <time>2022-04-08T13:24:49Z</time>
      </trkpt>
      <trkpt lat="43.47017" lon="6.41052">
        <ele>149</ele>
        <time>2022-04-08T13:24:50Z</time>
      </trkpt>
      <trkpt lat="43.47018" lon="6.41051">
        <ele>149</ele>
        <time>2022-04-08T13:24:51Z</time>
      </trkpt>
      <trkpt lat="43.47019" lon="6.41051">
        <ele>149</ele>
        <time>2022-04-08T13:24:52Z</time>
      </trkpt>
      <trkpt lat="43.4702" lon="6.41051">
        <ele>149</ele>
        <time>2022-04-08T13:24:53Z</time>
      </trkpt>
      <trkpt lat="43.47021" lon="6.41051">
        <ele>149</ele>
        <time>2022-04-08T13:24:54Z</time>
      </trkpt>
      <trkpt lat="43.47022" lon="6.41051">
        <ele>149</ele>
        <time>2022-04-08T13:24:55Z</time>
      </trkpt>
      <trkpt lat="43.47023" lon="6.41052">
        <ele>150</ele>
        <time>2022-04-08T13:24:56Z</time>
      </trkpt>
      <trkpt lat="43.47024" lon="6.41052">
        <ele>150</ele>
        <time>2022-04-08T13:24:57Z</time>
      </trkpt>
      <trkpt lat="43.47026" lon="6.41052">
        <ele>150</ele>
        <time>2022-04-08T13:24:58Z</time>
      </trkpt>
      <trkpt lat="43.47027" lon="6.41052">
        <ele>150</ele>
        <time>2022-04-08T13:24:59Z</time>
      </trkpt>
      <trkpt lat="43.47028" lon="6.41053">
        <ele>150</ele>
        <time>2022-04-08T13:25:00Z</time>
      </trkpt>
      <trkpt lat="43.47029" lon="6.41053">
        <ele>151</ele>
        <time>2022-04-08T13:25:01Z</time>
      </trkpt>
      <trkpt lat="43.4703" lon="6.41053">
        <ele>151</ele>
        <time>2022-04-08T13:25:02Z</time>
      </trkpt>
      <trkpt lat="43.47031" lon="6.41053">
        <ele>151</ele>
        <time>2022-04-08T13:25:03Z</time>
      </trkpt>
      <trkpt lat="43.47032" lon="6.41053">
        <ele>151</ele>
        <time>2022-04-08T13:25:04Z</time>
      </trkpt>
      <trkpt lat="43.47034" lon="6.41053">
        <ele>151</ele>
        <time>2022-04-08T13:25:05Z</time>
      </trkpt>
      <trkpt lat="43.47035" lon="6.41053">
        <ele>151</ele>
        <time>2022-04-08T13:25:06Z</time>
      </trkpt>
      <trkpt lat="43.47036" lon="6.41053">
        <ele>151</ele>
        <time>2022-04-08T13:25:07Z</time>
      </trkpt>
      <trkpt lat="43.47037" lon="6.41053">
        <ele>151</ele>
        <time>2022-04-08T13:25:08Z</time>
      </trkpt>
      <trkpt lat="43.47038" lon="6.41052">
        <ele>150</ele>
        <time>2022-04-08T13:25:09Z</time>
      </trkpt>
      <trkpt lat="43.4704" lon="6.41052">
        <ele>150</ele>
        <time>2022-04-08T13:25:10Z</time>
      </trkpt>
      <trkpt lat="43.47041" lon="6.41052">
        <ele>150</ele>
        <time>2022-04-08T13:25:11Z</time>
      </trkpt>
      <trkpt lat="43.47042" lon="6.41052">
        <ele>148</ele>
        <time>2022-04-08T13:25:12Z</time>
      </trkpt>
      <trkpt lat="43.47042" lon="6.41052">
        <ele>148</ele>
        <time>2022-04-08T13:25:13Z</time>
      </trkpt>
      <trkpt lat="43.47043" lon="6.41052">
        <ele>147</ele>
        <time>2022-04-08T13:25:14Z</time>
      </trkpt>
      <trkpt lat="43.47044" lon="6.41052">
        <ele>147</ele>
        <time>2022-04-08T13:25:15Z</time>
      </trkpt>
      <trkpt lat="43.47045" lon="6.41052">
        <ele>147</ele>
        <time>2022-04-08T13:25:16Z</time>
      </trkpt>
      <trkpt lat="43.47046" lon="6.41051">
        <ele>147</ele>
        <time>2022-04-08T13:25:17Z</time>
      </trkpt>
      <trkpt lat="43.47046" lon="6.41051">
        <ele>147</ele>
        <time>2022-04-08T13:25:18Z</time>
      </trkpt>
      <trkpt lat="43.47047" lon="6.41051">
        <ele>147</ele>
        <time>2022-04-08T13:25:19Z</time>
      </trkpt>
      <trkpt lat="43.47048" lon="6.41051">
        <ele>147</ele>
        <time>2022-04-08T13:25:20Z</time>
      </trkpt>
      <trkpt lat="43.47049" lon="6.41051">
        <ele>147</ele>
        <time>2022-04-08T13:25:21Z</time>
      </trkpt>
      <trkpt lat="43.4705" lon="6.41051">
        <ele>147</ele>
        <time>2022-04-08T13:25:22Z</time>
      </trkpt>
      <trkpt lat="43.47051" lon="6.41051">
        <ele>147</ele>
        <time>2022-04-08T13:25:23Z</time>
      </trkpt>
      <trkpt lat="43.47053" lon="6.41051">
        <ele>147</ele>
        <time>2022-04-08T13:25:24Z</time>
      </trkpt>
      <trkpt lat="43.47054" lon="6.41051">
        <ele>147</ele>
        <time>2022-04-08T13:25:25Z</time>
      </trkpt>
      <trkpt lat="43.47056" lon="6.41051">
        <ele>147</ele>
        <time>2022-04-08T13:25:26Z</time>
      </trkpt>
      <trkpt lat="43.47057" lon="6.41051">
        <ele>147</ele>
        <time>2022-04-08T13:25:27Z</time>
      </trkpt>
      <trkpt lat="43.47058" lon="6.41051">
        <ele>146</ele>
        <time>2022-04-08T13:25:28Z</time>
      </trkpt>
      <trkpt lat="43.47059" lon="6.41051">
        <ele>146</ele>
        <time>2022-04-08T13:25:29Z</time>
      </trkpt>
      <trkpt lat="43.47061" lon="6.41051">
        <ele>146</ele>
        <time>2022-04-08T13:25:30Z</time>
      </trkpt>
      <trkpt lat="43.47062" lon="6.41051">
        <ele>145</ele>
        <time>2022-04-08T13:25:31Z</time>
      </trkpt>
      <trkpt lat="43.47063" lon="6.41051">
        <ele>145</ele>
        <time>2022-04-08T13:25:32Z</time>
      </trkpt>
      <trkpt lat="43.47064" lon="6.4105">
        <ele>145</ele>
        <time>2022-04-08T13:25:33Z</time>
      </trkpt>
      <trkpt lat="43.47066" lon="6.4105">
        <ele>145</ele>
        <time>2022-04-08T13:25:34Z</time>
      </trkpt>
      <trkpt lat="43.47067" lon="6.4105">
        <ele>143</ele>
        <time>2022-04-08T13:25:35Z</time>
      </trkpt>
      <trkpt lat="43.47068" lon="6.41049">
        <ele>143</ele>
        <time>2022-04-08T13:25:36Z</time>
      </trkpt>
      <trkpt lat="43.47069" lon="6.41049">
        <ele>143</ele>
        <time>2022-04-08T13:25:37Z</time>
      </trkpt>
      <trkpt lat="43.4707" lon="6.41049">
        <ele>143</ele>
        <time>2022-04-08T13:25:38Z</time>
      </trkpt>
      <trkpt lat="43.47071" lon="6.41049">
        <ele>142</ele>
        <time>2022-04-08T13:25:39Z</time>
      </trkpt>
      <trkpt lat="43.47072" lon="6.41049">
        <ele>142</ele>
        <time>2022-04-08T13:25:40Z</time>
      </trkpt>
      <trkpt lat="43.47074" lon="6.41049">
        <ele>142</ele>
        <time>2022-04-08T13:25:41Z</time>
      </trkpt>
      <trkpt lat="43.47075" lon="6.41049">
        <ele>142</ele>
        <time>2022-04-08T13:25:42Z</time>
      </trkpt>
      <trkpt lat="43.47076" lon="6.41049">
        <ele>142</ele>
        <time>2022-04-08T13:25:43Z</time>
      </trkpt>
      <trkpt lat="43.47077" lon="6.41049">
        <ele>141</ele>
        <time>2022-04-08T13:25:44Z</time>
      </trkpt>
      <trkpt lat="43.47078" lon="6.41048">
        <ele>141</ele>
        <time>2022-04-08T13:25:45Z</time>
      </trkpt>
      <trkpt lat="43.47079" lon="6.41048">
        <ele>141</ele>
        <time>2022-04-08T13:25:46Z</time>
      </trkpt>
      <trkpt lat="43.4708" lon="6.41048">
        <ele>141</ele>
        <time>2022-04-08T13:25:47Z</time>
      </trkpt>
      <trkpt lat="43.47081" lon="6.41048">
        <ele>141</ele>
        <time>2022-04-08T13:25:48Z</time>
      </trkpt>
      <trkpt lat="43.47082" lon="6.41048">
        <ele>141</ele>
        <time>2022-04-08T13:25:49Z</time>
      </trkpt>
      <trkpt lat="43.47083" lon="6.41048">
        <ele>141</ele>
        <time>2022-04-08T13:25:50Z</time>
      </trkpt>
      <trkpt lat="43.47084" lon="6.41049">
        <ele>141</ele>
        <time>2022-04-08T13:25:51Z</time>
      </trkpt>
      <trkpt lat="43.47086" lon="6.41049">
        <ele>141</ele>
        <time>2022-04-08T13:25:52Z</time>
      </trkpt>
      <trkpt lat="43.47087" lon="6.41049">
        <ele>142</ele>
        <time>2022-04-08T13:25:53Z</time>
      </trkpt>
      <trkpt lat="43.47088" lon="6.41049">
        <ele>142</ele>
        <time>2022-04-08T13:25:54Z</time>
      </trkpt>
      <trkpt lat="43.47089" lon="6.41049">
        <ele>142</ele>
        <time>2022-04-08T13:25:55Z</time>
      </trkpt>
      <trkpt lat="43.47091" lon="6.41049">
        <ele>142</ele>
        <time>2022-04-08T13:25:56Z</time>
      </trkpt>
      <trkpt lat="43.47091" lon="6.41049">
        <ele>142</ele>
        <time>2022-04-08T13:25:57Z</time>
      </trkpt>
      <trkpt lat="43.47092" lon="6.41049">
        <ele>142</ele>
        <time>2022-04-08T13:25:58Z</time>
      </trkpt>
      <trkpt lat="43.47093" lon="6.41049">
        <ele>142</ele>
        <time>2022-04-08T13:25:59Z</time>
      </trkpt>
      <trkpt lat="43.47094" lon="6.41049">
        <ele>142</ele>
        <time>2022-04-08T13:26:00Z</time>
      </trkpt>
      <trkpt lat="43.47095" lon="6.41049">
        <ele>142</ele>
        <time>2022-04-08T13:26:01Z</time>
      </trkpt>
      <trkpt lat="43.47096" lon="6.41049">
        <ele>142</ele>
        <time>2022-04-08T13:26:02Z</time>
      </trkpt>
      <trkpt lat="43.47097" lon="6.41049">
        <ele>142</ele>
        <time>2022-04-08T13:26:03Z</time>
      </trkpt>
      <trkpt lat="43.47099" lon="6.41049">
        <ele>143</ele>
        <time>2022-04-08T13:26:04Z</time>
      </trkpt>
      <trkpt lat="43.47099" lon="6.41049">
        <ele>143</ele>
        <time>2022-04-08T13:26:05Z</time>
      </trkpt>
      <trkpt lat="43.471" lon="6.41049">
        <ele>143</ele>
        <time>2022-04-08T13:26:06Z</time>
      </trkpt>
      <trkpt lat="43.47101" lon="6.41049">
        <ele>143</ele>
        <time>2022-04-08T13:26:07Z</time>
      </trkpt>
      <trkpt lat="43.47103" lon="6.41048">
        <ele>142</ele>
        <time>2022-04-08T13:26:08Z</time>
      </trkpt>
      <trkpt lat="43.47104" lon="6.41048">
        <ele>142</ele>
        <time>2022-04-08T13:26:09Z</time>
      </trkpt>
      <trkpt lat="43.47105" lon="6.41047">
        <ele>142</ele>
        <time>2022-04-08T13:26:10Z</time>
      </trkpt>
      <trkpt lat="43.47107" lon="6.41048">
        <ele>142</ele>
        <time>2022-04-08T13:26:11Z</time>
      </trkpt>
      <trkpt lat="43.47108" lon="6.41048">
        <ele>141</ele>
        <time>2022-04-08T13:26:12Z</time>
      </trkpt>
      <trkpt lat="43.47109" lon="6.41048">
        <ele>141</ele>
        <time>2022-04-08T13:26:13Z</time>
      </trkpt>
      <trkpt lat="43.4711" lon="6.41049">
        <ele>141</ele>
        <time>2022-04-08T13:26:14Z</time>
      </trkpt>
      <trkpt lat="43.47111" lon="6.41049">
        <ele>141</ele>
        <time>2022-04-08T13:26:15Z</time>
      </trkpt>
      <trkpt lat="43.47112" lon="6.41049">
        <ele>141</ele>
        <time>2022-04-08T13:26:16Z</time>
      </trkpt>
      <trkpt lat="43.47112" lon="6.41049">
        <ele>141</ele>
        <time>2022-04-08T13:26:17Z</time>
      </trkpt>
      <trkpt lat="43.47114" lon="6.41049">
        <ele>141</ele>
        <time>2022-04-08T13:26:18Z</time>
      </trkpt>
      <trkpt lat="43.47115" lon="6.41049">
        <ele>141</ele>
        <time>2022-04-08T13:26:19Z</time>
      </trkpt>
      <trkpt lat="43.47115" lon="6.41048">
        <ele>141</ele>
        <time>2022-04-08T13:26:20Z</time>
      </trkpt>
      <trkpt lat="43.47116" lon="6.41048">
        <ele>141</ele>
        <time>2022-04-08T13:26:21Z</time>
      </trkpt>
      <trkpt lat="43.47117" lon="6.41048">
        <ele>142</ele>
        <time>2022-04-08T13:26:22Z</time>
      </trkpt>
      <trkpt lat="43.47117" lon="6.41047">
        <ele>142</ele>
        <time>2022-04-08T13:26:23Z</time>
      </trkpt>
      <trkpt lat="43.47118" lon="6.41047">
        <ele>142</ele>
        <time>2022-04-08T13:26:24Z</time>
      </trkpt>
      <trkpt lat="43.47119" lon="6.41047">
        <ele>142</ele>
        <time>2022-04-08T13:26:25Z</time>
      </trkpt>
      <trkpt lat="43.4712" lon="6.41047">
        <ele>143</ele>
        <time>2022-04-08T13:26:26Z</time>
      </trkpt>
      <trkpt lat="43.47121" lon="6.41046">
        <ele>143</ele>
        <time>2022-04-08T13:26:27Z</time>
      </trkpt>
      <trkpt lat="43.47122" lon="6.41046">
        <ele>143</ele>
        <time>2022-04-08T13:26:28Z</time>
      </trkpt>
      <trkpt lat="43.47123" lon="6.41046">
        <ele>143</ele>
        <time>2022-04-08T13:26:29Z</time>
      </trkpt>
      <trkpt lat="43.47124" lon="6.41045">
        <ele>143</ele>
        <time>2022-04-08T13:26:30Z</time>
      </trkpt>
      <trkpt lat="43.47125" lon="6.41045">
        <ele>143</ele>
        <time>2022-04-08T13:26:31Z</time>
      </trkpt>
      <trkpt lat="43.47126" lon="6.41045">
        <ele>143</ele>
        <time>2022-04-08T13:26:32Z</time>
      </trkpt>
      <trkpt lat="43.47127" lon="6.41044">
        <ele>143</ele>
        <time>2022-04-08T13:26:33Z</time>
      </trkpt>
      <trkpt lat="43.47128" lon="6.41044">
        <ele>143</ele>
        <time>2022-04-08T13:26:34Z</time>
      </trkpt>
      <trkpt lat="43.47128" lon="6.41044">
        <ele>143</ele>
        <time>2022-04-08T13:26:35Z</time>
      </trkpt>
      <trkpt lat="43.47129" lon="6.41044">
        <ele>143</ele>
        <time>2022-04-08T13:26:36Z</time>
      </trkpt>
      <trkpt lat="43.4713" lon="6.41044">
        <ele>143</ele>
        <time>2022-04-08T13:26:37Z</time>
      </trkpt>
      <trkpt lat="43.4713" lon="6.41044">
        <ele>143</ele>
        <time>2022-04-08T13:26:38Z</time>
      </trkpt>
      <trkpt lat="43.47131" lon="6.41044">
        <ele>143</ele>
        <time>2022-04-08T13:26:39Z</time>
      </trkpt>
      <trkpt lat="43.47131" lon="6.41043">
        <ele>143</ele>
        <time>2022-04-08T13:26:40Z</time>
      </trkpt>
      <trkpt lat="43.47132" lon="6.41043">
        <ele>143</ele>
        <time>2022-04-08T13:26:41Z</time>
      </trkpt>
      <trkpt lat="43.47132" lon="6.41043">
        <ele>143</ele>
        <time>2022-04-08T13:26:42Z</time>
      </trkpt>
      <trkpt lat="43.47133" lon="6.41043">
        <ele>142</ele>
        <time>2022-04-08T13:26:43Z</time>
      </trkpt>
      <trkpt lat="43.47133" lon="6.41042">
        <ele>142</ele>
        <time>2022-04-08T13:26:44Z</time>
      </trkpt>
      <trkpt lat="43.47133" lon="6.4104">
        <ele>142</ele>
        <time>2022-04-08T13:26:45Z</time>
      </trkpt>
      <trkpt lat="43.47133" lon="6.41039">
        <ele>142</ele>
        <time>2022-04-08T13:26:46Z</time>
      </trkpt>
      <trkpt lat="43.47133" lon="6.41039">
        <ele>142</ele>
        <time>2022-04-08T13:26:47Z</time>
      </trkpt>
      <trkpt lat="43.47133" lon="6.41038">
        <ele>142</ele>
        <time>2022-04-08T13:26:48Z</time>
      </trkpt>
      <trkpt lat="43.47133" lon="6.41037">
        <ele>142</ele>
        <time>2022-04-08T13:26:49Z</time>
      </trkpt>
      <trkpt lat="43.47133" lon="6.41037">
        <ele>142</ele>
        <time>2022-04-08T13:26:50Z</time>
      </trkpt>
      <trkpt lat="43.47132" lon="6.41037">
        <ele>142</ele>
        <time>2022-04-08T13:26:51Z</time>
      </trkpt>
      <trkpt lat="43.47132" lon="6.41037">
        <ele>142</ele>
        <time>2022-04-08T13:26:52Z</time>
      </trkpt>
      <trkpt lat="43.47132" lon="6.41037">
        <ele>142</ele>
        <time>2022-04-08T13:26:53Z</time>
      </trkpt>
      <trkpt lat="43.47132" lon="6.41037">
        <ele>142</ele>
        <time>2022-04-08T13:26:54Z</time>
      </trkpt>
      <trkpt lat="43.47132" lon="6.41037">
        <ele>142</ele>
        <time>2022-04-08T13:26:55Z</time>
      </trkpt>
      <trkpt lat="43.47131" lon="6.41037">
        <ele>142</ele>
        <time>2022-04-08T13:26:56Z</time>
      </trkpt>
      <trkpt lat="43.47131" lon="6.41037">
        <ele>142</ele>
        <time>2022-04-08T13:26:57Z</time>
      </trkpt>
      <trkpt lat="43.47131" lon="6.41038">
        <ele>142</ele>
        <time>2022-04-08T13:26:58Z</time>
      </trkpt>
      <trkpt lat="43.47131" lon="6.41038">
        <ele>142</ele>
        <time>2022-04-08T13:26:59Z</time>
      </trkpt>
      <trkpt lat="43.47131" lon="6.41038">
        <ele>142</ele>
        <time>2022-04-08T13:27:00Z</time>
      </trkpt>
      <trkpt lat="43.47131" lon="6.41038">
        <ele>142</ele>
        <time>2022-04-08T13:27:01Z</time>
      </trkpt>
      <trkpt lat="43.47132" lon="6.41038">
        <ele>142</ele>
        <time>2022-04-08T13:27:02Z</time>
      </trkpt>
      <trkpt lat="43.47132" lon="6.41038">
        <ele>142</ele>
        <time>2022-04-08T13:27:03Z</time>
      </trkpt>
      <trkpt lat="43.47132" lon="6.41038">
        <ele>142</ele>
        <time>2022-04-08T13:27:04Z</time>
      </trkpt>
      <trkpt lat="43.47131" lon="6.41038">
        <ele>142</ele>
        <time>2022-04-08T13:27:05Z</time>
      </trkpt>
      <trkpt lat="43.47131" lon="6.41038">
        <ele>142</ele>
        <time>2022-04-08T13:27:06Z</time>
      </trkpt>
      <trkpt lat="43.47131" lon="6.41038">
        <ele>142</ele>
        <time>2022-04-08T13:27:07Z</time>
      </trkpt>
      <trkpt lat="43.47131" lon="6.41038">
        <ele>142</ele>
        <time>2022-04-08T13:27:08Z</time>
      </trkpt>
      <trkpt lat="43.47131" lon="6.41038">
        <ele>142</ele>
        <time>2022-04-08T13:27:09Z</time>
      </trkpt>
      <trkpt lat="43.47131" lon="6.41038">
        <ele>142</ele>
        <time>2022-04-08T13:27:10Z</time>
      </trkpt>
      <trkpt lat="43.47131" lon="6.41038">
        <ele>142</ele>
        <time>2022-04-08T13:27:11Z</time>
      </trkpt>
      <trkpt lat="43.47131" lon="6.41038">
        <ele>142</ele>
        <time>2022-04-08T13:27:12Z</time>
      </trkpt>
      <trkpt lat="43.47131" lon="6.41038">
        <ele>142</ele>
        <time>2022-04-08T13:27:13Z</time>
      </trkpt>
      <trkpt lat="43.47131" lon="6.41038">
        <ele>142</ele>
        <time>2022-04-08T13:27:14Z</time>
      </trkpt>
      <trkpt lat="43.47131" lon="6.41038">
        <ele>142</ele>
        <time>2022-04-08T13:27:15Z</time>
      </trkpt>
      <trkpt lat="43.47131" lon="6.41038">
        <ele>142</ele>
        <time>2022-04-08T13:27:16Z</time>
      </trkpt>
      <trkpt lat="43.47131" lon="6.41038">
        <ele>142</ele>
        <time>2022-04-08T13:27:17Z</time>
      </trkpt>
      <trkpt lat="43.47131" lon="6.41038">
        <ele>142</ele>
        <time>2022-04-08T13:27:18Z</time>
      </trkpt>
      <trkpt lat="43.47131" lon="6.41038">
        <ele>142</ele>
        <time>2022-04-08T13:27:19Z</time>
      </trkpt>
      <trkpt lat="43.47132" lon="6.41038">
        <ele>142</ele>
        <time>2022-04-08T13:27:20Z</time>
      </trkpt>
      <trkpt lat="43.47132" lon="6.41038">
        <ele>142</ele>
        <time>2022-04-08T13:27:21Z</time>
      </trkpt>
      <trkpt lat="43.47133" lon="6.41037">
        <ele>142</ele>
        <time>2022-04-08T13:27:22Z</time>
      </trkpt>
      <trkpt lat="43.47133" lon="6.41037">
        <ele>142</ele>
        <time>2022-04-08T13:27:23Z</time>
      </trkpt>
      <trkpt lat="43.47134" lon="6.41037">
        <ele>142</ele>
        <time>2022-04-08T13:27:24Z</time>
      </trkpt>
      <trkpt lat="43.47134" lon="6.41037">
        <ele>142</ele>
        <time>2022-04-08T13:27:25Z</time>
      </trkpt>
      <trkpt lat="43.47134" lon="6.41037">
        <ele>142</ele>
        <time>2022-04-08T13:27:26Z</time>
      </trkpt>
      <trkpt lat="43.47134" lon="6.41036">
        <ele>140</ele>
        <time>2022-04-08T13:27:27Z</time>
      </trkpt>
      <trkpt lat="43.47134" lon="6.41035">
        <ele>140</ele>
        <time>2022-04-08T13:27:28Z</time>
      </trkpt>
      <trkpt lat="43.47135" lon="6.41035">
        <ele>140</ele>
        <time>2022-04-08T13:27:29Z</time>
      </trkpt>
      <trkpt lat="43.47135" lon="6.41035">
        <ele>140</ele>
        <time>2022-04-08T13:27:30Z</time>
      </trkpt>
      <trkpt lat="43.47135" lon="6.41035">
        <ele>140</ele>
        <time>2022-04-08T13:27:31Z</time>
      </trkpt>
      <trkpt lat="43.47135" lon="6.41035">
        <ele>140</ele>
        <time>2022-04-08T13:27:32Z</time>
      </trkpt>
      <trkpt lat="43.47135" lon="6.41035">
        <ele>140</ele>
        <time>2022-04-08T13:27:33Z</time>
      </trkpt>
      <trkpt lat="43.47135" lon="6.41035">
        <ele>140</ele>
        <time>2022-04-08T13:27:34Z</time>
      </trkpt>
      <trkpt lat="43.47135" lon="6.41035">
        <ele>140</ele>
        <time>2022-04-08T13:27:35Z</time>
      </trkpt>
      <trkpt lat="43.47135" lon="6.41035">
        <ele>140</ele>
        <time>2022-04-08T13:27:36Z</time>
      </trkpt>
      <trkpt lat="43.47135" lon="6.41035">
        <ele>140</ele>
        <time>2022-04-08T13:27:37Z</time>
      </trkpt>
      <trkpt lat="43.47136" lon="6.41034">
        <ele>140</ele>
        <time>2022-04-08T13:27:38Z</time>
      </trkpt>
      <trkpt lat="43.47137" lon="6.41033">
        <ele>140</ele>
        <time>2022-04-08T13:27:39Z</time>
      </trkpt>
      <trkpt lat="43.47138" lon="6.41033">
        <ele>140</ele>
        <time>2022-04-08T13:27:40Z</time>
      </trkpt>
      <trkpt lat="43.4714" lon="6.41033">
        <ele>140</ele>
        <time>2022-04-08T13:27:41Z</time>
      </trkpt>
      <trkpt lat="43.47141" lon="6.41033">
        <ele>140</ele>
        <time>2022-04-08T13:27:42Z</time>
      </trkpt>
      <trkpt lat="43.47142" lon="6.41034">
        <ele>140</ele>
        <time>2022-04-08T13:27:43Z</time>
      </trkpt>
      <trkpt lat="43.47143" lon="6.41034">
        <ele>140</ele>
        <time>2022-04-08T13:27:44Z</time>
      </trkpt>
      <trkpt lat="43.47144" lon="6.41034">
        <ele>139</ele>
        <time>2022-04-08T13:27:45Z</time>
      </trkpt>
      <trkpt lat="43.47145" lon="6.41034">
        <ele>139</ele>
        <time>2022-04-08T13:27:46Z</time>
      </trkpt>
      <trkpt lat="43.47146" lon="6.41035">
        <ele>139</ele>
        <time>2022-04-08T13:27:47Z</time>
      </trkpt>
      <trkpt lat="43.47146" lon="6.41035">
        <ele>139</ele>
        <time>2022-04-08T13:27:48Z</time>
      </trkpt>
      <trkpt lat="43.47147" lon="6.41035">
        <ele>139</ele>
        <time>2022-04-08T13:27:49Z</time>
      </trkpt>
      <trkpt lat="43.47147" lon="6.41035">
        <ele>139</ele>
        <time>2022-04-08T13:27:50Z</time>
      </trkpt>
      <trkpt lat="43.47147" lon="6.41035">
        <ele>139</ele>
        <time>2022-04-08T13:27:51Z</time>
      </trkpt>
      <trkpt lat="43.47147" lon="6.41035">
        <ele>139</ele>
        <time>2022-04-08T13:27:52Z</time>
      </trkpt>
      <trkpt lat="43.47147" lon="6.41035">
        <ele>139</ele>
        <time>2022-04-08T13:27:53Z</time>
      </trkpt>
      <trkpt lat="43.47147" lon="6.41035">
        <ele>139</ele>
        <time>2022-04-08T13:27:54Z</time>
      </trkpt>
      <trkpt lat="43.47147" lon="6.41035">
        <ele>139</ele>
        <time>2022-04-08T13:27:55Z</time>
      </trkpt>
      <trkpt lat="43.47147" lon="6.41035">
        <ele>139</ele>
        <time>2022-04-08T13:27:56Z</time>
      </trkpt>
      <trkpt lat="43.47147" lon="6.41035">
        <ele>139</ele>
        <time>2022-04-08T13:27:57Z</time>
      </trkpt>
      <trkpt lat="43.47147" lon="6.41035">
        <ele>139</ele>
        <time>2022-04-08T13:27:58Z</time>
      </trkpt>
      <trkpt lat="43.47147" lon="6.41035">
        <ele>139</ele>
        <time>2022-04-08T13:27:59Z</time>
      </trkpt>
      <trkpt lat="43.47147" lon="6.41035">
        <ele>139</ele>
        <time>2022-04-08T13:28:00Z</time>
      </trkpt>
      <trkpt lat="43.47147" lon="6.41035">
        <ele>139</ele>
        <time>2022-04-08T13:28:01Z</time>
      </trkpt>
      <trkpt lat="43.47147" lon="6.41035">
        <ele>139</ele>
        <time>2022-04-08T13:28:02Z</time>
      </trkpt>
      <trkpt lat="43.47146" lon="6.41035">
        <ele>139</ele>
        <time>2022-04-08T13:28:03Z</time>
      </trkpt>
      <trkpt lat="43.47146" lon="6.41035">
        <ele>139</ele>
        <time>2022-04-08T13:28:04Z</time>
      </trkpt>
      <trkpt lat="43.47147" lon="6.41034">
        <ele>139</ele>
        <time>2022-04-08T13:28:05Z</time>
      </trkpt>
      <trkpt lat="43.47147" lon="6.41034">
        <ele>139</ele>
        <time>2022-04-08T13:28:06Z</time>
      </trkpt>
      <trkpt lat="43.47148" lon="6.41034">
        <ele>139</ele>
        <time>2022-04-08T13:28:07Z</time>
      </trkpt>
      <trkpt lat="43.47149" lon="6.41034">
        <ele>139</ele>
        <time>2022-04-08T13:28:08Z</time>
      </trkpt>
      <trkpt lat="43.47149" lon="6.41035">
        <ele>139</ele>
        <time>2022-04-08T13:28:09Z</time>
      </trkpt>
      <trkpt lat="43.4715" lon="6.41035">
        <ele>139</ele>
        <time>2022-04-08T13:28:10Z</time>
      </trkpt>
      <trkpt lat="43.47151" lon="6.41036">
        <ele>139</ele>
        <time>2022-04-08T13:28:11Z</time>
      </trkpt>
      <trkpt lat="43.47152" lon="6.41036">
        <ele>139</ele>
        <time>2022-04-08T13:28:12Z</time>
      </trkpt>
      <trkpt lat="43.47153" lon="6.41037">
        <ele>139</ele>
        <time>2022-04-08T13:28:13Z</time>
      </trkpt>
      <trkpt lat="43.47154" lon="6.41037">
        <ele>139</ele>
        <time>2022-04-08T13:28:14Z</time>
      </trkpt>
      <trkpt lat="43.47155" lon="6.41038">
        <ele>138</ele>
        <time>2022-04-08T13:28:15Z</time>
      </trkpt>
      <trkpt lat="43.47156" lon="6.41039">
        <ele>138</ele>
        <time>2022-04-08T13:28:16Z</time>
      </trkpt>
      <trkpt lat="43.47157" lon="6.41039">
        <ele>138</ele>
        <time>2022-04-08T13:28:17Z</time>
      </trkpt>
      <trkpt lat="43.47157" lon="6.41038">
        <ele>138</ele>
        <time>2022-04-08T13:28:18Z</time>
      </trkpt>
      <trkpt lat="43.47158" lon="6.41038">
        <ele>138</ele>
        <time>2022-04-08T13:28:19Z</time>
      </trkpt>
      <trkpt lat="43.47158" lon="6.41039">
        <ele>138</ele>
        <time>2022-04-08T13:28:20Z</time>
      </trkpt>
      <trkpt lat="43.47159" lon="6.41039">
        <ele>137</ele>
        <time>2022-04-08T13:28:21Z</time>
      </trkpt>
      <trkpt lat="43.47159" lon="6.41041">
        <ele>137</ele>
        <time>2022-04-08T13:28:22Z</time>
      </trkpt>
      <trkpt lat="43.47159" lon="6.41042">
        <ele>137</ele>
        <time>2022-04-08T13:28:23Z</time>
      </trkpt>
      <trkpt lat="43.47159" lon="6.41043">
        <ele>137</ele>
        <time>2022-04-08T13:28:24Z</time>
      </trkpt>
      <trkpt lat="43.47159" lon="6.41043">
        <ele>137</ele>
        <time>2022-04-08T13:28:25Z</time>
      </trkpt>
      <trkpt lat="43.4716" lon="6.41044">
        <ele>137</ele>
        <time>2022-04-08T13:28:26Z</time>
      </trkpt>
      <trkpt lat="43.4716" lon="6.41044">
        <ele>137</ele>
        <time>2022-04-08T13:28:27Z</time>
      </trkpt>
      <trkpt lat="43.47161" lon="6.41044">
        <ele>137</ele>
        <time>2022-04-08T13:28:28Z</time>
      </trkpt>
      <trkpt lat="43.47161" lon="6.41045">
        <ele>137</ele>
        <time>2022-04-08T13:28:29Z</time>
      </trkpt>
      <trkpt lat="43.47162" lon="6.41045">
        <ele>136</ele>
        <time>2022-04-08T13:28:30Z</time>
      </trkpt>
      <trkpt lat="43.47162" lon="6.41045">
        <ele>136</ele>
        <time>2022-04-08T13:28:31Z</time>
      </trkpt>
      <trkpt lat="43.47163" lon="6.41046">
        <ele>135</ele>
        <time>2022-04-08T13:28:32Z</time>
      </trkpt>
      <trkpt lat="43.47163" lon="6.41046">
        <ele>135</ele>
        <time>2022-04-08T13:28:33Z</time>
      </trkpt>
      <trkpt lat="43.47164" lon="6.41046">
        <ele>135</ele>
        <time>2022-04-08T13:28:34Z</time>
      </trkpt>
      <trkpt lat="43.47164" lon="6.41046">
        <ele>135</ele>
        <time>2022-04-08T13:28:35Z</time>
      </trkpt>
      <trkpt lat="43.47165" lon="6.41047">
        <ele>134</ele>
        <time>2022-04-08T13:28:36Z</time>
      </trkpt>
      <trkpt lat="43.47166" lon="6.41047">
        <ele>134</ele>
        <time>2022-04-08T13:28:37Z</time>
      </trkpt>
      <trkpt lat="43.47166" lon="6.41046">
        <ele>134</ele>
        <time>2022-04-08T13:28:38Z</time>
      </trkpt>
      <trkpt lat="43.47167" lon="6.41046">
        <ele>134</ele>
        <time>2022-04-08T13:28:39Z</time>
      </trkpt>
      <trkpt lat="43.47168" lon="6.41046">
        <ele>134</ele>
        <time>2022-04-08T13:28:40Z</time>
      </trkpt>
      <trkpt lat="43.47168" lon="6.41046">
        <ele>134</ele>
        <time>2022-04-08T13:28:41Z</time>
      </trkpt>
      <trkpt lat="43.47169" lon="6.41047">
        <ele>134</ele>
        <time>2022-04-08T13:28:42Z</time>
      </trkpt>
      <trkpt lat="43.47169" lon="6.41047">
        <ele>134</ele>
        <time>2022-04-08T13:28:43Z</time>
      </trkpt>
      <trkpt lat="43.4717" lon="6.41047">
        <ele>134</ele>
        <time>2022-04-08T13:28:44Z</time>
      </trkpt>
      <trkpt lat="43.47171" lon="6.41047">
        <ele>134</ele>
        <time>2022-04-08T13:28:45Z</time>
      </trkpt>
      <trkpt lat="43.47171" lon="6.41047">
        <ele>134</ele>
        <time>2022-04-08T13:28:46Z</time>
      </trkpt>
      <trkpt lat="43.47171" lon="6.41047">
        <ele>134</ele>
        <time>2022-04-08T13:28:47Z</time>
      </trkpt>
      <trkpt lat="43.47172" lon="6.41047">
        <ele>134</ele>
        <time>2022-04-08T13:28:48Z</time>
      </trkpt>
      <trkpt lat="43.47173" lon="6.41046">
        <ele>133</ele>
        <time>2022-04-08T13:28:49Z</time>
      </trkpt>
      <trkpt lat="43.47173" lon="6.41046">
        <ele>133</ele>
        <time>2022-04-08T13:28:50Z</time>
      </trkpt>
      <trkpt lat="43.47174" lon="6.41044">
        <ele>133</ele>
        <time>2022-04-08T13:28:51Z</time>
      </trkpt>
      <trkpt lat="43.47174" lon="6.41043">
        <ele>133</ele>
        <time>2022-04-08T13:28:52Z</time>
      </trkpt>
      <trkpt lat="43.47175" lon="6.41042">
        <ele>133</ele>
        <time>2022-04-08T13:28:53Z</time>
      </trkpt>
      <trkpt lat="43.47176" lon="6.41041">
        <ele>132</ele>
        <time>2022-04-08T13:28:54Z</time>
      </trkpt>
      <trkpt lat="43.47177" lon="6.41041">
        <ele>132</ele>
        <time>2022-04-08T13:28:55Z</time>
      </trkpt>
      <trkpt lat="43.47177" lon="6.41041">
        <ele>132</ele>
        <time>2022-04-08T13:28:56Z</time>
      </trkpt>
      <trkpt lat="43.47178" lon="6.41042">
        <ele>131</ele>
        <time>2022-04-08T13:28:57Z</time>
      </trkpt>
      <trkpt lat="43.47178" lon="6.41043">
        <ele>131</ele>
        <time>2022-04-08T13:28:58Z</time>
      </trkpt>
      <trkpt lat="43.47177" lon="6.41043">
        <ele>131</ele>
        <time>2022-04-08T13:28:59Z</time>
      </trkpt>
      <trkpt lat="43.47177" lon="6.41044">
        <ele>131</ele>
        <time>2022-04-08T13:29:00Z</time>
      </trkpt>
      <trkpt lat="43.47177" lon="6.41044">
        <ele>131</ele>
        <time>2022-04-08T13:29:01Z</time>
      </trkpt>
      <trkpt lat="43.47177" lon="6.41044">
        <ele>131</ele>
        <time>2022-04-08T13:29:02Z</time>
      </trkpt>
      <trkpt lat="43.47177" lon="6.41044">
        <ele>131</ele>
        <time>2022-04-08T13:29:03Z</time>
      </trkpt>
      <trkpt lat="43.47177" lon="6.41044">
        <ele>131</ele>
        <time>2022-04-08T13:29:04Z</time>
      </trkpt>
      <trkpt lat="43.47177" lon="6.41044">
        <ele>131</ele>
        <time>2022-04-08T13:29:05Z</time>
      </trkpt>
      <trkpt lat="43.47177" lon="6.41044">
        <ele>131</ele>
        <time>2022-04-08T13:29:06Z</time>
      </trkpt>
      <trkpt lat="43.47177" lon="6.41044">
        <ele>131</ele>
        <time>2022-04-08T13:29:07Z</time>
      </trkpt>
      <trkpt lat="43.47177" lon="6.41044">
        <ele>131</ele>
        <time>2022-04-08T13:29:08Z</time>
      </trkpt>
      <trkpt lat="43.47177" lon="6.41044">
        <ele>131</ele>
        <time>2022-04-08T13:29:09Z</time>
      </trkpt>
      <trkpt lat="43.47177" lon="6.41044">
        <ele>131</ele>
        <time>2022-04-08T13:29:10Z</time>
      </trkpt>
      <trkpt lat="43.47177" lon="6.41044">
        <ele>131</ele>
        <time>2022-04-08T13:29:11Z</time>
      </trkpt>
      <trkpt lat="43.47178" lon="6.41043">
        <ele>131</ele>
        <time>2022-04-08T13:29:12Z</time>
      </trkpt>
      <trkpt lat="43.47179" lon="6.41042">
        <ele>131</ele>
        <time>2022-04-08T13:29:13Z</time>
      </trkpt>
      <trkpt lat="43.4718" lon="6.41042">
        <ele>131</ele>
        <time>2022-04-08T13:29:14Z</time>
      </trkpt>
      <trkpt lat="43.47181" lon="6.41041">
        <ele>131</ele>
        <time>2022-04-08T13:29:15Z</time>
      </trkpt>
      <trkpt lat="43.47182" lon="6.41041">
        <ele>131</ele>
        <time>2022-04-08T13:29:16Z</time>
      </trkpt>
      <trkpt lat="43.47184" lon="6.4104">
        <ele>131</ele>
        <time>2022-04-08T13:29:17Z</time>
      </trkpt>
      <trkpt lat="43.47185" lon="6.41039">
        <ele>131</ele>
        <time>2022-04-08T13:29:18Z</time>
      </trkpt>
      <trkpt lat="43.47185" lon="6.41039">
        <ele>131</ele>
        <time>2022-04-08T13:29:19Z</time>
      </trkpt>
      <trkpt lat="43.47186" lon="6.41038">
        <ele>131</ele>
        <time>2022-04-08T13:29:20Z</time>
      </trkpt>
      <trkpt lat="43.47187" lon="6.41037">
        <ele>131</ele>
        <time>2022-04-08T13:29:21Z</time>
      </trkpt>
      <trkpt lat="43.47188" lon="6.41036">
        <ele>131</ele>
        <time>2022-04-08T13:29:22Z</time>
      </trkpt>
      <trkpt lat="43.47189" lon="6.41035">
        <ele>130</ele>
        <time>2022-04-08T13:29:23Z</time>
      </trkpt>
      <trkpt lat="43.47189" lon="6.41034">
        <ele>130</ele>
        <time>2022-04-08T13:29:24Z</time>
      </trkpt>
      <trkpt lat="43.4719" lon="6.41034">
        <ele>130</ele>
        <time>2022-04-08T13:29:25Z</time>
      </trkpt>
      <trkpt lat="43.47191" lon="6.41033">
        <ele>130</ele>
        <time>2022-04-08T13:29:26Z</time>
      </trkpt>
      <trkpt lat="43.47192" lon="6.41033">
        <ele>130</ele>
        <time>2022-04-08T13:29:27Z</time>
      </trkpt>
      <trkpt lat="43.47193" lon="6.41033">
        <ele>130</ele>
        <time>2022-04-08T13:29:28Z</time>
      </trkpt>
      <trkpt lat="43.47194" lon="6.41032">
        <ele>130</ele>
        <time>2022-04-08T13:29:29Z</time>
      </trkpt>
      <trkpt lat="43.47195" lon="6.41032">
        <ele>130</ele>
        <time>2022-04-08T13:29:30Z</time>
      </trkpt>
      <trkpt lat="43.47195" lon="6.41032">
        <ele>130</ele>
        <time>2022-04-08T13:29:31Z</time>
      </trkpt>
      <trkpt lat="43.47196" lon="6.41031">
        <ele>130</ele>
        <time>2022-04-08T13:29:32Z</time>
      </trkpt>
      <trkpt lat="43.47197" lon="6.41032">
        <ele>129</ele>
        <time>2022-04-08T13:29:33Z</time>
      </trkpt>
      <trkpt lat="43.47198" lon="6.41032">
        <ele>129</ele>
        <time>2022-04-08T13:29:34Z</time>
      </trkpt>
      <trkpt lat="43.47199" lon="6.41033">
        <ele>129</ele>
        <time>2022-04-08T13:29:35Z</time>
      </trkpt>
      <trkpt lat="43.472" lon="6.41033">
        <ele>129</ele>
        <time>2022-04-08T13:29:36Z</time>
      </trkpt>
      <trkpt lat="43.472" lon="6.41033">
        <ele>129</ele>
        <time>2022-04-08T13:29:37Z</time>
      </trkpt>
      <trkpt lat="43.47201" lon="6.41032">
        <ele>129</ele>
        <time>2022-04-08T13:29:38Z</time>
      </trkpt>
      <trkpt lat="43.47202" lon="6.41032">
        <ele>129</ele>
        <time>2022-04-08T13:29:39Z</time>
      </trkpt>
      <trkpt lat="43.47202" lon="6.41032">
        <ele>128</ele>
        <time>2022-04-08T13:29:40Z</time>
      </trkpt>
      <trkpt lat="43.47203" lon="6.41032">
        <ele>128</ele>
        <time>2022-04-08T13:29:41Z</time>
      </trkpt>
      <trkpt lat="43.47204" lon="6.41032">
        <ele>128</ele>
        <time>2022-04-08T13:29:42Z</time>
      </trkpt>
      <trkpt lat="43.47204" lon="6.41032">
        <ele>128</ele>
        <time>2022-04-08T13:29:43Z</time>
      </trkpt>
      <trkpt lat="43.47205" lon="6.41032">
        <ele>128</ele>
        <time>2022-04-08T13:29:44Z</time>
      </trkpt>
      <trkpt lat="43.47206" lon="6.41032">
        <ele>128</ele>
        <time>2022-04-08T13:29:45Z</time>
      </trkpt>
      <trkpt lat="43.47207" lon="6.41032">
        <ele>128</ele>
        <time>2022-04-08T13:29:46Z</time>
      </trkpt>
      <trkpt lat="43.47208" lon="6.41032">
        <ele>128</ele>
        <time>2022-04-08T13:29:47Z</time>
      </trkpt>
      <trkpt lat="43.47209" lon="6.41032">
        <ele>128</ele>
        <time>2022-04-08T13:29:48Z</time>
      </trkpt>
      <trkpt lat="43.4721" lon="6.41032">
        <ele>128</ele>
        <time>2022-04-08T13:29:49Z</time>
      </trkpt>
      <trkpt lat="43.47211" lon="6.41032">
        <ele>128</ele>
        <time>2022-04-08T13:29:50Z</time>
      </trkpt>
      <trkpt lat="43.47212" lon="6.41032">
        <ele>128</ele>
        <time>2022-04-08T13:29:51Z</time>
      </trkpt>
      <trkpt lat="43.47213" lon="6.41032">
        <ele>128</ele>
        <time>2022-04-08T13:29:52Z</time>
      </trkpt>
      <trkpt lat="43.47214" lon="6.41032">
        <ele>128</ele>
        <time>2022-04-08T13:29:53Z</time>
      </trkpt>
      <trkpt lat="43.47216" lon="6.41033">
        <ele>128</ele>
        <time>2022-04-08T13:29:54Z</time>
      </trkpt>
      <trkpt lat="43.47217" lon="6.41033">
        <ele>129</ele>
        <time>2022-04-08T13:29:55Z</time>
      </trkpt>
      <trkpt lat="43.47219" lon="6.41033">
        <ele>129</ele>
        <time>2022-04-08T13:29:56Z</time>
      </trkpt>
      <trkpt lat="43.4722" lon="6.41033">
        <ele>129</ele>
        <time>2022-04-08T13:29:57Z</time>
      </trkpt>
      <trkpt lat="43.47221" lon="6.41034">
        <ele>129</ele>
        <time>2022-04-08T13:29:58Z</time>
      </trkpt>
      <trkpt lat="43.47223" lon="6.41034">
        <ele>128</ele>
        <time>2022-04-08T13:29:59Z</time>
      </trkpt>
      <trkpt lat="43.47224" lon="6.41034">
        <ele>128</ele>
        <time>2022-04-08T13:30:00Z</time>
      </trkpt>
      <trkpt lat="43.47225" lon="6.41034">
        <ele>127</ele>
        <time>2022-04-08T13:30:01Z</time>
      </trkpt>
      <trkpt lat="43.47226" lon="6.41034">
        <ele>127</ele>
        <time>2022-04-08T13:30:02Z</time>
      </trkpt>
      <trkpt lat="43.47227" lon="6.41035">
        <ele>127</ele>
        <time>2022-04-08T13:30:03Z</time>
      </trkpt>
      <trkpt lat="43.47228" lon="6.41035">
        <ele>127</ele>
        <time>2022-04-08T13:30:04Z</time>
      </trkpt>
      <trkpt lat="43.47228" lon="6.41037">
        <ele>126</ele>
        <time>2022-04-08T13:30:05Z</time>
      </trkpt>
      <trkpt lat="43.47229" lon="6.41039">
        <ele>126</ele>
        <time>2022-04-08T13:30:06Z</time>
      </trkpt>
      <trkpt lat="43.4723" lon="6.4104">
        <ele>126</ele>
        <time>2022-04-08T13:30:07Z</time>
      </trkpt>
      <trkpt lat="43.47231" lon="6.41041">
        <ele>126</ele>
        <time>2022-04-08T13:30:08Z</time>
      </trkpt>
      <trkpt lat="43.47232" lon="6.41041">
        <ele>125</ele>
        <time>2022-04-08T13:30:09Z</time>
      </trkpt>
      <trkpt lat="43.47233" lon="6.41042">
        <ele>125</ele>
        <time>2022-04-08T13:30:10Z</time>
      </trkpt>
      <trkpt lat="43.47234" lon="6.41043">
        <ele>125</ele>
        <time>2022-04-08T13:30:11Z</time>
      </trkpt>
      <trkpt lat="43.47235" lon="6.41043">
        <ele>122</ele>
        <time>2022-04-08T13:30:12Z</time>
      </trkpt>
      <trkpt lat="43.47235" lon="6.41044">
        <ele>122</ele>
        <time>2022-04-08T13:30:13Z</time>
      </trkpt>
      <trkpt lat="43.47236" lon="6.41044">
        <ele>121</ele>
        <time>2022-04-08T13:30:14Z</time>
      </trkpt>
      <trkpt lat="43.47236" lon="6.41045">
        <ele>121</ele>
        <time>2022-04-08T13:30:15Z</time>
      </trkpt>
      <trkpt lat="43.47237" lon="6.41045">
        <ele>120</ele>
        <time>2022-04-08T13:30:16Z</time>
      </trkpt>
      <trkpt lat="43.47237" lon="6.41045">
        <ele>120</ele>
        <time>2022-04-08T13:30:17Z</time>
      </trkpt>
      <trkpt lat="43.47237" lon="6.41045">
        <ele>120</ele>
        <time>2022-04-08T13:30:18Z</time>
      </trkpt>
      <trkpt lat="43.47238" lon="6.41045">
        <ele>120</ele>
        <time>2022-04-08T13:30:19Z</time>
      </trkpt>
      <trkpt lat="43.47238" lon="6.41046">
        <ele>120</ele>
        <time>2022-04-08T13:30:20Z</time>
      </trkpt>
      <trkpt lat="43.47239" lon="6.41047">
        <ele>120</ele>
        <time>2022-04-08T13:30:21Z</time>
      </trkpt>
      <trkpt lat="43.4724" lon="6.41048">
        <ele>120</ele>
        <time>2022-04-08T13:30:22Z</time>
      </trkpt>
      <trkpt lat="43.47241" lon="6.41049">
        <ele>120</ele>
        <time>2022-04-08T13:30:23Z</time>
      </trkpt>
      <trkpt lat="43.47241" lon="6.4105">
        <ele>120</ele>
        <time>2022-04-08T13:30:24Z</time>
      </trkpt>
      <trkpt lat="43.47242" lon="6.41051">
        <ele>120</ele>
        <time>2022-04-08T13:30:25Z</time>
      </trkpt>
      <trkpt lat="43.47243" lon="6.41051">
        <ele>118</ele>
        <time>2022-04-08T13:30:26Z</time>
      </trkpt>
      <trkpt lat="43.47244" lon="6.41052">
        <ele>118</ele>
        <time>2022-04-08T13:30:27Z</time>
      </trkpt>
      <trkpt lat="43.47245" lon="6.41053">
        <ele>118</ele>
        <time>2022-04-08T13:30:28Z</time>
      </trkpt>
      <trkpt lat="43.47245" lon="6.41054">
        <ele>118</ele>
        <time>2022-04-08T13:30:29Z</time>
      </trkpt>
      <trkpt lat="43.47246" lon="6.41055">
        <ele>118</ele>
        <time>2022-04-08T13:30:30Z</time>
      </trkpt>
      <trkpt lat="43.47247" lon="6.41056">
        <ele>118</ele>
        <time>2022-04-08T13:30:31Z</time>
      </trkpt>
      <trkpt lat="43.47247" lon="6.41056">
        <ele>118</ele>
        <time>2022-04-08T13:30:32Z</time>
      </trkpt>
      <trkpt lat="43.47248" lon="6.41057">
        <ele>117</ele>
        <time>2022-04-08T13:30:33Z</time>
      </trkpt>
      <trkpt lat="43.47248" lon="6.41057">
        <ele>117</ele>
        <time>2022-04-08T13:30:34Z</time>
      </trkpt>
      <trkpt lat="43.47248" lon="6.41058">
        <ele>117</ele>
        <time>2022-04-08T13:30:35Z</time>
      </trkpt>
      <trkpt lat="43.47249" lon="6.41058">
        <ele>117</ele>
        <time>2022-04-08T13:30:36Z</time>
      </trkpt>
      <trkpt lat="43.47249" lon="6.41059">
        <ele>117</ele>
        <time>2022-04-08T13:30:37Z</time>
      </trkpt>
      <trkpt lat="43.4725" lon="6.41059">
        <ele>117</ele>
        <time>2022-04-08T13:30:38Z</time>
      </trkpt>
      <trkpt lat="43.4725" lon="6.4106">
        <ele>117</ele>
        <time>2022-04-08T13:30:39Z</time>
      </trkpt>
      <trkpt lat="43.47251" lon="6.41061">
        <ele>117</ele>
        <time>2022-04-08T13:30:40Z</time>
      </trkpt>
      <trkpt lat="43.47251" lon="6.41061">
        <ele>117</ele>
        <time>2022-04-08T13:30:41Z</time>
      </trkpt>
      <trkpt lat="43.47251" lon="6.41061">
        <ele>116</ele>
        <time>2022-04-08T13:30:42Z</time>
      </trkpt>
      <trkpt lat="43.47252" lon="6.41061">
        <ele>116</ele>
        <time>2022-04-08T13:30:43Z</time>
      </trkpt>
      <trkpt lat="43.47252" lon="6.41061">
        <ele>116</ele>
        <time>2022-04-08T13:30:44Z</time>
      </trkpt>
      <trkpt lat="43.47252" lon="6.41062">
        <ele>116</ele>
        <time>2022-04-08T13:30:45Z</time>
      </trkpt>
      <trkpt lat="43.47252" lon="6.41063">
        <ele>116</ele>
        <time>2022-04-08T13:30:46Z</time>
      </trkpt>
      <trkpt lat="43.47252" lon="6.41064">
        <ele>116</ele>
        <time>2022-04-08T13:30:47Z</time>
      </trkpt>
      <trkpt lat="43.47251" lon="6.41064">
        <ele>116</ele>
        <time>2022-04-08T13:30:48Z</time>
      </trkpt>
      <trkpt lat="43.47251" lon="6.41065">
        <ele>116</ele>
        <time>2022-04-08T13:30:49Z</time>
      </trkpt>
      <trkpt lat="43.47252" lon="6.41066">
        <ele>116</ele>
        <time>2022-04-08T13:30:50Z</time>
      </trkpt>
      <trkpt lat="43.47252" lon="6.41066">
        <ele>116</ele>
        <time>2022-04-08T13:30:51Z</time>
      </trkpt>
      <trkpt lat="43.47253" lon="6.41067">
        <ele>116</ele>
        <time>2022-04-08T13:30:52Z</time>
      </trkpt>
      <trkpt lat="43.47253" lon="6.41068">
        <ele>116</ele>
        <time>2022-04-08T13:30:53Z</time>
      </trkpt>
      <trkpt lat="43.47254" lon="6.41068">
        <ele>116</ele>
        <time>2022-04-08T13:30:54Z</time>
      </trkpt>
      <trkpt lat="43.47255" lon="6.41069">
        <ele>117</ele>
        <time>2022-04-08T13:30:55Z</time>
      </trkpt>
      <trkpt lat="43.47255" lon="6.4107">
        <ele>117</ele>
        <time>2022-04-08T13:30:56Z</time>
      </trkpt>
      <trkpt lat="43.47256" lon="6.41072">
        <ele>117</ele>
        <time>2022-04-08T13:30:57Z</time>
      </trkpt>
      <trkpt lat="43.47256" lon="6.41073">
        <ele>117</ele>
        <time>2022-04-08T13:30:58Z</time>
      </trkpt>
      <trkpt lat="43.47257" lon="6.41073">
        <ele>118</ele>
        <time>2022-04-08T13:30:59Z</time>
      </trkpt>
      <trkpt lat="43.47257" lon="6.41074">
        <ele>118</ele>
        <time>2022-04-08T13:31:00Z</time>
      </trkpt>
      <trkpt lat="43.47257" lon="6.41075">
        <ele>118</ele>
        <time>2022-04-08T13:31:01Z</time>
      </trkpt>
      <trkpt lat="43.47257" lon="6.41076">
        <ele>118</ele>
        <time>2022-04-08T13:31:02Z</time>
      </trkpt>
      <trkpt lat="43.47257" lon="6.41077">
        <ele>118</ele>
        <time>2022-04-08T13:31:03Z</time>
      </trkpt>
      <trkpt lat="43.47258" lon="6.41078">
        <ele>118</ele>
        <time>2022-04-08T13:31:04Z</time>
      </trkpt>
      <trkpt lat="43.47258" lon="6.41079">
        <ele>118</ele>
        <time>2022-04-08T13:31:05Z</time>
      </trkpt>
      <trkpt lat="43.47258" lon="6.4108">
        <ele>118</ele>
        <time>2022-04-08T13:31:06Z</time>
      </trkpt>
      <trkpt lat="43.47258" lon="6.41081">
        <ele>118</ele>
        <time>2022-04-08T13:31:07Z</time>
      </trkpt>
      <trkpt lat="43.47259" lon="6.41082">
        <ele>118</ele>
        <time>2022-04-08T13:31:08Z</time>
      </trkpt>
      <trkpt lat="43.47259" lon="6.41083">
        <ele>118</ele>
        <time>2022-04-08T13:31:09Z</time>
      </trkpt>
      <trkpt lat="43.47259" lon="6.41084">
        <ele>118</ele>
        <time>2022-04-08T13:31:10Z</time>
      </trkpt>
      <trkpt lat="43.47259" lon="6.41085">
        <ele>118</ele>
        <time>2022-04-08T13:31:11Z</time>
      </trkpt>
      <trkpt lat="43.47259" lon="6.41087">
        <ele>117</ele>
        <time>2022-04-08T13:31:12Z</time>
      </trkpt>
      <trkpt lat="43.47258" lon="6.41088">
        <ele>117</ele>
        <time>2022-04-08T13:31:13Z</time>
      </trkpt>
      <trkpt lat="43.47258" lon="6.41089">
        <ele>117</ele>
        <time>2022-04-08T13:31:14Z</time>
      </trkpt>
      <trkpt lat="43.47258" lon="6.4109">
        <ele>117</ele>
        <time>2022-04-08T13:31:15Z</time>
      </trkpt>
      <trkpt lat="43.47257" lon="6.4109">
        <ele>116</ele>
        <time>2022-04-08T13:31:16Z</time>
      </trkpt>
      <trkpt lat="43.47257" lon="6.41091">
        <ele>116</ele>
        <time>2022-04-08T13:31:17Z</time>
      </trkpt>
      <trkpt lat="43.47256" lon="6.41092">
        <ele>116</ele>
        <time>2022-04-08T13:31:18Z</time>
      </trkpt>
      <trkpt lat="43.47256" lon="6.41092">
        <ele>116</ele>
        <time>2022-04-08T13:31:19Z</time>
      </trkpt>
      <trkpt lat="43.47256" lon="6.41092">
        <ele>116</ele>
        <time>2022-04-08T13:31:20Z</time>
      </trkpt>
      <trkpt lat="43.47255" lon="6.41092">
        <ele>116</ele>
        <time>2022-04-08T13:31:21Z</time>
      </trkpt>
      <trkpt lat="43.47255" lon="6.41093">
        <ele>116</ele>
        <time>2022-04-08T13:31:22Z</time>
      </trkpt>
      <trkpt lat="43.47255" lon="6.41093">
        <ele>116</ele>
        <time>2022-04-08T13:31:23Z</time>
      </trkpt>
      <trkpt lat="43.47255" lon="6.41092">
        <ele>116</ele>
        <time>2022-04-08T13:31:24Z</time>
      </trkpt>
      <trkpt lat="43.47254" lon="6.41092">
        <ele>115</ele>
        <time>2022-04-08T13:31:25Z</time>
      </trkpt>
      <trkpt lat="43.47254" lon="6.41092">
        <ele>115</ele>
        <time>2022-04-08T13:31:26Z</time>
      </trkpt>
      <trkpt lat="43.47253" lon="6.41093">
        <ele>115</ele>
        <time>2022-04-08T13:31:27Z</time>
      </trkpt>
      <trkpt lat="43.47253" lon="6.41094">
        <ele>114</ele>
        <time>2022-04-08T13:31:28Z</time>
      </trkpt>
      <trkpt lat="43.47252" lon="6.41095">
        <ele>114</ele>
        <time>2022-04-08T13:31:29Z</time>
      </trkpt>
      <trkpt lat="43.47252" lon="6.41095">
        <ele>114</ele>
        <time>2022-04-08T13:31:30Z</time>
      </trkpt>
      <trkpt lat="43.47251" lon="6.41096">
        <ele>114</ele>
        <time>2022-04-08T13:31:31Z</time>
      </trkpt>
      <trkpt lat="43.4725" lon="6.41096">
        <ele>113</ele>
        <time>2022-04-08T13:31:32Z</time>
      </trkpt>
      <trkpt lat="43.4725" lon="6.41097">
        <ele>113</ele>
        <time>2022-04-08T13:31:33Z</time>
      </trkpt>
      <trkpt lat="43.47249" lon="6.41098">
        <ele>113</ele>
        <time>2022-04-08T13:31:34Z</time>
      </trkpt>
      <trkpt lat="43.47249" lon="6.41099">
        <ele>113</ele>
        <time>2022-04-08T13:31:35Z</time>
      </trkpt>
      <trkpt lat="43.47249" lon="6.411">
        <ele>113</ele>
        <time>2022-04-08T13:31:36Z</time>
      </trkpt>
      <trkpt lat="43.47248" lon="6.411">
        <ele>113</ele>
        <time>2022-04-08T13:31:37Z</time>
      </trkpt>
      <trkpt lat="43.47248" lon="6.41101">
        <ele>113</ele>
        <time>2022-04-08T13:31:38Z</time>
      </trkpt>
      <trkpt lat="43.47247" lon="6.41101">
        <ele>113</ele>
        <time>2022-04-08T13:31:39Z</time>
      </trkpt>
      <trkpt lat="43.47247" lon="6.41102">
        <ele>112</ele>
        <time>2022-04-08T13:31:40Z</time>
      </trkpt>
      <trkpt lat="43.47247" lon="6.41103">
        <ele>112</ele>
        <time>2022-04-08T13:31:41Z</time>
      </trkpt>
      <trkpt lat="43.47246" lon="6.41103">
        <ele>111</ele>
        <time>2022-04-08T13:31:42Z</time>
      </trkpt>
      <trkpt lat="43.47246" lon="6.41104">
        <ele>111</ele>
        <time>2022-04-08T13:31:43Z</time>
      </trkpt>
      <trkpt lat="43.47246" lon="6.41105">
        <ele>111</ele>
        <time>2022-04-08T13:31:44Z</time>
      </trkpt>
      <trkpt lat="43.47245" lon="6.41105">
        <ele>111</ele>
        <time>2022-04-08T13:31:45Z</time>
      </trkpt>
      <trkpt lat="43.47245" lon="6.41106">
        <ele>111</ele>
        <time>2022-04-08T13:31:46Z</time>
      </trkpt>
      <trkpt lat="43.47245" lon="6.41106">
        <ele>111</ele>
        <time>2022-04-08T13:31:47Z</time>
      </trkpt>
      <trkpt lat="43.47244" lon="6.41107">
        <ele>111</ele>
        <time>2022-04-08T13:31:48Z</time>
      </trkpt>
      <trkpt lat="43.47244" lon="6.41107">
        <ele>111</ele>
        <time>2022-04-08T13:31:49Z</time>
      </trkpt>
      <trkpt lat="43.47243" lon="6.41108">
        <ele>111</ele>
        <time>2022-04-08T13:31:50Z</time>
      </trkpt>
      <trkpt lat="43.47243" lon="6.41109">
        <ele>111</ele>
        <time>2022-04-08T13:31:51Z</time>
      </trkpt>
      <trkpt lat="43.47242" lon="6.4111">
        <ele>111</ele>
        <time>2022-04-08T13:31:52Z</time>
      </trkpt>
      <trkpt lat="43.47242" lon="6.41111">
        <ele>111</ele>
        <time>2022-04-08T13:31:53Z</time>
      </trkpt>
      <trkpt lat="43.47242" lon="6.41112">
        <ele>111</ele>
        <time>2022-04-08T13:31:54Z</time>
      </trkpt>
      <trkpt lat="43.47241" lon="6.41112">
        <ele>111</ele>
        <time>2022-04-08T13:31:55Z</time>
      </trkpt>
      <trkpt lat="43.47241" lon="6.41113">
        <ele>112</ele>
        <time>2022-04-08T13:31:56Z</time>
      </trkpt>
      <trkpt lat="43.47241" lon="6.41113">
        <ele>112</ele>
        <time>2022-04-08T13:31:57Z</time>
      </trkpt>
      <trkpt lat="43.47241" lon="6.41113">
        <ele>112</ele>
        <time>2022-04-08T13:31:58Z</time>
      </trkpt>
      <trkpt lat="43.47241" lon="6.41114">
        <ele>112</ele>
        <time>2022-04-08T13:31:59Z</time>
      </trkpt>
      <trkpt lat="43.4724" lon="6.41114">
        <ele>112</ele>
        <time>2022-04-08T13:32:00Z</time>
      </trkpt>
      <trkpt lat="43.4724" lon="6.41115">
        <ele>112</ele>
        <time>2022-04-08T13:32:01Z</time>
      </trkpt>
      <trkpt lat="43.4724" lon="6.41116">
        <ele>112</ele>
        <time>2022-04-08T13:32:02Z</time>
      </trkpt>
      <trkpt lat="43.47239" lon="6.41117">
        <ele>112</ele>
        <time>2022-04-08T13:32:03Z</time>
      </trkpt>
      <trkpt lat="43.47238" lon="6.41118">
        <ele>112</ele>
        <time>2022-04-08T13:32:04Z</time>
      </trkpt>
      <trkpt lat="43.47238" lon="6.41119">
        <ele>112</ele>
        <time>2022-04-08T13:32:05Z</time>
      </trkpt>
      <trkpt lat="43.47238" lon="6.4112">
        <ele>112</ele>
        <time>2022-04-08T13:32:06Z</time>
      </trkpt>
      <trkpt lat="43.47237" lon="6.41121">
        <ele>112</ele>
        <time>2022-04-08T13:32:07Z</time>
      </trkpt>
      <trkpt lat="43.47237" lon="6.41122">
        <ele>112</ele>
        <time>2022-04-08T13:32:08Z</time>
      </trkpt>
      <trkpt lat="43.47236" lon="6.41123">
        <ele>111</ele>
        <time>2022-04-08T13:32:09Z</time>
      </trkpt>
      <trkpt lat="43.47236" lon="6.41125">
        <ele>111</ele>
        <time>2022-04-08T13:32:10Z</time>
      </trkpt>
      <trkpt lat="43.47235" lon="6.41126">
        <ele>111</ele>
        <time>2022-04-08T13:32:11Z</time>
      </trkpt>
      <trkpt lat="43.47235" lon="6.41126">
        <ele>111</ele>
        <time>2022-04-08T13:32:12Z</time>
      </trkpt>
      <trkpt lat="43.47235" lon="6.41127">
        <ele>111</ele>
        <time>2022-04-08T13:32:13Z</time>
      </trkpt>
      <trkpt lat="43.47234" lon="6.41128">
        <ele>111</ele>
        <time>2022-04-08T13:32:14Z</time>
      </trkpt>
      <trkpt lat="43.47234" lon="6.41129">
        <ele>111</ele>
        <time>2022-04-08T13:32:15Z</time>
      </trkpt>
      <trkpt lat="43.47234" lon="6.4113">
        <ele>111</ele>
        <time>2022-04-08T13:32:16Z</time>
      </trkpt>
      <trkpt lat="43.47234" lon="6.41131">
        <ele>111</ele>
        <time>2022-04-08T13:32:17Z</time>
      </trkpt>
      <trkpt lat="43.47234" lon="6.41132">
        <ele>111</ele>
        <time>2022-04-08T13:32:18Z</time>
      </trkpt>
      <trkpt lat="43.47234" lon="6.41133">
        <ele>111</ele>
        <time>2022-04-08T13:32:19Z</time>
      </trkpt>
      <trkpt lat="43.47234" lon="6.41132">
        <ele>111</ele>
        <time>2022-04-08T13:32:20Z</time>
      </trkpt>
      <trkpt lat="43.47234" lon="6.41133">
        <ele>111</ele>
        <time>2022-04-08T13:32:21Z</time>
      </trkpt>
      <trkpt lat="43.47234" lon="6.41134">
        <ele>111</ele>
        <time>2022-04-08T13:32:22Z</time>
      </trkpt>
      <trkpt lat="43.47234" lon="6.41135">
        <ele>111</ele>
        <time>2022-04-08T13:32:23Z</time>
      </trkpt>
      <trkpt lat="43.47234" lon="6.41136">
        <ele>111</ele>
        <time>2022-04-08T13:32:24Z</time>
      </trkpt>
      <trkpt lat="43.47234" lon="6.41137">
        <ele>112</ele>
        <time>2022-04-08T13:32:25Z</time>
      </trkpt>
      <trkpt lat="43.47234" lon="6.41138">
        <ele>112</ele>
        <time>2022-04-08T13:32:26Z</time>
      </trkpt>
      <trkpt lat="43.47234" lon="6.41139">
        <ele>112</ele>
        <time>2022-04-08T13:32:27Z</time>
      </trkpt>
      <trkpt lat="43.47233" lon="6.4114">
        <ele>112</ele>
        <time>2022-04-08T13:32:28Z</time>
      </trkpt>
      <trkpt lat="43.47233" lon="6.41141">
        <ele>112</ele>
        <time>2022-04-08T13:32:29Z</time>
      </trkpt>
      <trkpt lat="43.47232" lon="6.41141">
        <ele>111</ele>
        <time>2022-04-08T13:32:30Z</time>
      </trkpt>
      <trkpt lat="43.47232" lon="6.41142">
        <ele>111</ele>
        <time>2022-04-08T13:32:31Z</time>
      </trkpt>
      <trkpt lat="43.47232" lon="6.41143">
        <ele>111</ele>
        <time>2022-04-08T13:32:32Z</time>
      </trkpt>
      <trkpt lat="43.47232" lon="6.41144">
        <ele>111</ele>
        <time>2022-04-08T13:32:33Z</time>
      </trkpt>
      <trkpt lat="43.47232" lon="6.41144">
        <ele>110</ele>
        <time>2022-04-08T13:32:34Z</time>
      </trkpt>
      <trkpt lat="43.47232" lon="6.41146">
        <ele>110</ele>
        <time>2022-04-08T13:32:35Z</time>
      </trkpt>
      <trkpt lat="43.47232" lon="6.41147">
        <ele>110</ele>
        <time>2022-04-08T13:32:36Z</time>
      </trkpt>
      <trkpt lat="43.47232" lon="6.41148">
        <ele>110</ele>
        <time>2022-04-08T13:32:37Z</time>
      </trkpt>
      <trkpt lat="43.47232" lon="6.41149">
        <ele>110</ele>
        <time>2022-04-08T13:32:38Z</time>
      </trkpt>
      <trkpt lat="43.47232" lon="6.4115">
        <ele>109</ele>
        <time>2022-04-08T13:32:39Z</time>
      </trkpt>
      <trkpt lat="43.47232" lon="6.41151">
        <ele>109</ele>
        <time>2022-04-08T13:32:40Z</time>
      </trkpt>
      <trkpt lat="43.47231" lon="6.41152">
        <ele>109</ele>
        <time>2022-04-08T13:32:41Z</time>
      </trkpt>
      <trkpt lat="43.47231" lon="6.41153">
        <ele>107</ele>
        <time>2022-04-08T13:32:42Z</time>
      </trkpt>
      <trkpt lat="43.47231" lon="6.41154">
        <ele>106</ele>
        <time>2022-04-08T13:32:43Z</time>
      </trkpt>
      <trkpt lat="43.4723" lon="6.41155">
        <ele>106</ele>
        <time>2022-04-08T13:32:44Z</time>
      </trkpt>
      <trkpt lat="43.4723" lon="6.41156">
        <ele>105</ele>
        <time>2022-04-08T13:32:45Z</time>
      </trkpt>
      <trkpt lat="43.4723" lon="6.41157">
        <ele>105</ele>
        <time>2022-04-08T13:32:46Z</time>
      </trkpt>
      <trkpt lat="43.4723" lon="6.41158">
        <ele>105</ele>
        <time>2022-04-08T13:32:47Z</time>
      </trkpt>
      <trkpt lat="43.4723" lon="6.41159">
        <ele>105</ele>
        <time>2022-04-08T13:32:48Z</time>
      </trkpt>
      <trkpt lat="43.4723" lon="6.4116">
        <ele>105</ele>
        <time>2022-04-08T13:32:49Z</time>
      </trkpt>
      <trkpt lat="43.47229" lon="6.41161">
        <ele>104</ele>
        <time>2022-04-08T13:32:50Z</time>
      </trkpt>
      <trkpt lat="43.47229" lon="6.41162">
        <ele>104</ele>
        <time>2022-04-08T13:32:51Z</time>
      </trkpt>
      <trkpt lat="43.47229" lon="6.41162">
        <ele>104</ele>
        <time>2022-04-08T13:32:52Z</time>
      </trkpt>
      <trkpt lat="43.47229" lon="6.41163">
        <ele>104</ele>
        <time>2022-04-08T13:32:53Z</time>
      </trkpt>
      <trkpt lat="43.47229" lon="6.41164">
        <ele>104</ele>
        <time>2022-04-08T13:32:54Z</time>
      </trkpt>
      <trkpt lat="43.47229" lon="6.41165">
        <ele>104</ele>
        <time>2022-04-08T13:32:55Z</time>
      </trkpt>
      <trkpt lat="43.47229" lon="6.41165">
        <ele>103</ele>
        <time>2022-04-08T13:32:56Z</time>
      </trkpt>
      <trkpt lat="43.47229" lon="6.41166">
        <ele>102</ele>
        <time>2022-04-08T13:32:57Z</time>
      </trkpt>
      <trkpt lat="43.47229" lon="6.41168">
        <ele>102</ele>
        <time>2022-04-08T13:32:58Z</time>
      </trkpt>
      <trkpt lat="43.47229" lon="6.41169">
        <ele>102</ele>
        <time>2022-04-08T13:32:59Z</time>
      </trkpt>
      <trkpt lat="43.47229" lon="6.4117">
        <ele>102</ele>
        <time>2022-04-08T13:33:00Z</time>
      </trkpt>
      <trkpt lat="43.47228" lon="6.41171">
        <ele>101</ele>
        <time>2022-04-08T13:33:01Z</time>
      </trkpt>
      <trkpt lat="43.47228" lon="6.41172">
        <ele>101</ele>
        <time>2022-04-08T13:33:02Z</time>
      </trkpt>
      <trkpt lat="43.47228" lon="6.41173">
        <ele>101</ele>
        <time>2022-04-08T13:33:03Z</time>
      </trkpt>
      <trkpt lat="43.47228" lon="6.41174">
        <ele>101</ele>
        <time>2022-04-08T13:33:04Z</time>
      </trkpt>
      <trkpt lat="43.47227" lon="6.41174">
        <ele>101</ele>
        <time>2022-04-08T13:33:05Z</time>
      </trkpt>
      <trkpt lat="43.47227" lon="6.41175">
        <ele>100</ele>
        <time>2022-04-08T13:33:06Z</time>
      </trkpt>
      <trkpt lat="43.47227" lon="6.41176">
        <ele>100</ele>
        <time>2022-04-08T13:33:07Z</time>
      </trkpt>
      <trkpt lat="43.47226" lon="6.41177">
        <ele>100</ele>
        <time>2022-04-08T13:33:08Z</time>
      </trkpt>
      <trkpt lat="43.47226" lon="6.41179">
        <ele>100</ele>
        <time>2022-04-08T13:33:09Z</time>
      </trkpt>
      <trkpt lat="43.47226" lon="6.4118">
        <ele>100</ele>
        <time>2022-04-08T13:33:10Z</time>
      </trkpt>
      <trkpt lat="43.47226" lon="6.41181">
        <ele>100</ele>
        <time>2022-04-08T13:33:11Z</time>
      </trkpt>
      <trkpt lat="43.47225" lon="6.41183">
        <ele>99</ele>
        <time>2022-04-08T13:33:12Z</time>
      </trkpt>
      <trkpt lat="43.47225" lon="6.41184">
        <ele>98</ele>
        <time>2022-04-08T13:33:13Z</time>
      </trkpt>
      <trkpt lat="43.47225" lon="6.41186">
        <ele>98</ele>
        <time>2022-04-08T13:33:14Z</time>
      </trkpt>
      <trkpt lat="43.47224" lon="6.41187">
        <ele>98</ele>
        <time>2022-04-08T13:33:15Z</time>
      </trkpt>
      <trkpt lat="43.47224" lon="6.41188">
        <ele>98</ele>
        <time>2022-04-08T13:33:16Z</time>
      </trkpt>
      <trkpt lat="43.47223" lon="6.41189">
        <ele>98</ele>
        <time>2022-04-08T13:33:17Z</time>
      </trkpt>
      <trkpt lat="43.47223" lon="6.41189">
        <ele>98</ele>
        <time>2022-04-08T13:33:18Z</time>
      </trkpt>
      <trkpt lat="43.47222" lon="6.4119">
        <ele>97</ele>
        <time>2022-04-08T13:33:19Z</time>
      </trkpt>
      <trkpt lat="43.47221" lon="6.41191">
        <ele>97</ele>
        <time>2022-04-08T13:33:20Z</time>
      </trkpt>
      <trkpt lat="43.47221" lon="6.41191">
        <ele>97</ele>
        <time>2022-04-08T13:33:21Z</time>
      </trkpt>
      <trkpt lat="43.4722" lon="6.41192">
        <ele>97</ele>
        <time>2022-04-08T13:33:22Z</time>
      </trkpt>
      <trkpt lat="43.4722" lon="6.41193">
        <ele>97</ele>
        <time>2022-04-08T13:33:23Z</time>
      </trkpt>
      <trkpt lat="43.47219" lon="6.41194">
        <ele>97</ele>
        <time>2022-04-08T13:33:24Z</time>
      </trkpt>
      <trkpt lat="43.47219" lon="6.41196">
        <ele>97</ele>
        <time>2022-04-08T13:33:25Z</time>
      </trkpt>
      <trkpt lat="43.47218" lon="6.41197">
        <ele>97</ele>
        <time>2022-04-08T13:33:26Z</time>
      </trkpt>
      <trkpt lat="43.47218" lon="6.41199">
        <ele>97</ele>
        <time>2022-04-08T13:33:27Z</time>
      </trkpt>
      <trkpt lat="43.47218" lon="6.412">
        <ele>97</ele>
        <time>2022-04-08T13:33:28Z</time>
      </trkpt>
      <trkpt lat="43.47217" lon="6.41201">
        <ele>97</ele>
        <time>2022-04-08T13:33:29Z</time>
      </trkpt>
      <trkpt lat="43.47217" lon="6.41203">
        <ele>97</ele>
        <time>2022-04-08T13:33:30Z</time>
      </trkpt>
      <trkpt lat="43.47216" lon="6.41204">
        <ele>97</ele>
        <time>2022-04-08T13:33:31Z</time>
      </trkpt>
      <trkpt lat="43.47216" lon="6.41205">
        <ele>97</ele>
        <time>2022-04-08T13:33:32Z</time>
      </trkpt>
      <trkpt lat="43.47216" lon="6.41206">
        <ele>97</ele>
        <time>2022-04-08T13:33:33Z</time>
      </trkpt>
      <trkpt lat="43.47216" lon="6.41207">
        <ele>97</ele>
        <time>2022-04-08T13:33:34Z</time>
      </trkpt>
      <trkpt lat="43.47216" lon="6.41208">
        <ele>96</ele>
        <time>2022-04-08T13:33:35Z</time>
      </trkpt>
      <trkpt lat="43.47215" lon="6.41209">
        <ele>96</ele>
        <time>2022-04-08T13:33:36Z</time>
      </trkpt>
      <trkpt lat="43.47215" lon="6.4121">
        <ele>96</ele>
        <time>2022-04-08T13:33:37Z</time>
      </trkpt>
      <trkpt lat="43.47215" lon="6.41211">
        <ele>96</ele>
        <time>2022-04-08T13:33:38Z</time>
      </trkpt>
      <trkpt lat="43.47214" lon="6.41211">
        <ele>96</ele>
        <time>2022-04-08T13:33:39Z</time>
      </trkpt>
      <trkpt lat="43.47214" lon="6.41212">
        <ele>95</ele>
        <time>2022-04-08T13:33:40Z</time>
      </trkpt>
      <trkpt lat="43.47214" lon="6.41213">
        <ele>95</ele>
        <time>2022-04-08T13:33:41Z</time>
      </trkpt>
      <trkpt lat="43.47214" lon="6.41214">
        <ele>95</ele>
        <time>2022-04-08T13:33:42Z</time>
      </trkpt>
      <trkpt lat="43.47214" lon="6.41214">
        <ele>95</ele>
        <time>2022-04-08T13:33:43Z</time>
      </trkpt>
      <trkpt lat="43.47214" lon="6.41215">
        <ele>95</ele>
        <time>2022-04-08T13:33:44Z</time>
      </trkpt>
      <trkpt lat="43.47214" lon="6.41216">
        <ele>95</ele>
        <time>2022-04-08T13:33:45Z</time>
      </trkpt>
      <trkpt lat="43.47213" lon="6.41217">
        <ele>95</ele>
        <time>2022-04-08T13:33:46Z</time>
      </trkpt>
      <trkpt lat="43.47213" lon="6.41218">
        <ele>95</ele>
        <time>2022-04-08T13:33:47Z</time>
      </trkpt>
      <trkpt lat="43.47213" lon="6.4122">
        <ele>94</ele>
        <time>2022-04-08T13:33:48Z</time>
      </trkpt>
      <trkpt lat="43.47213" lon="6.41221">
        <ele>94</ele>
        <time>2022-04-08T13:33:49Z</time>
      </trkpt>
      <trkpt lat="43.47213" lon="6.41224">
        <ele>93</ele>
        <time>2022-04-08T13:33:50Z</time>
      </trkpt>
      <trkpt lat="43.47213" lon="6.41225">
        <ele>93</ele>
        <time>2022-04-08T13:33:51Z</time>
      </trkpt>
      <trkpt lat="43.47213" lon="6.41227">
        <ele>93</ele>
        <time>2022-04-08T13:33:52Z</time>
      </trkpt>
      <trkpt lat="43.47213" lon="6.41228">
        <ele>93</ele>
        <time>2022-04-08T13:33:53Z</time>
      </trkpt>
      <trkpt lat="43.47213" lon="6.41229">
        <ele>93</ele>
        <time>2022-04-08T13:33:54Z</time>
      </trkpt>
      <trkpt lat="43.47213" lon="6.4123">
        <ele>93</ele>
        <time>2022-04-08T13:33:55Z</time>
      </trkpt>
      <trkpt lat="43.47213" lon="6.41231">
        <ele>93</ele>
        <time>2022-04-08T13:33:56Z</time>
      </trkpt>
      <trkpt lat="43.47213" lon="6.41232">
        <ele>93</ele>
        <time>2022-04-08T13:33:57Z</time>
      </trkpt>
      <trkpt lat="43.47213" lon="6.41233">
        <ele>93</ele>
        <time>2022-04-08T13:33:58Z</time>
      </trkpt>
      <trkpt lat="43.47213" lon="6.41233">
        <ele>93</ele>
        <time>2022-04-08T13:33:59Z</time>
      </trkpt>
      <trkpt lat="43.47213" lon="6.41233">
        <ele>93</ele>
        <time>2022-04-08T13:34:00Z</time>
      </trkpt>
      <trkpt lat="43.47213" lon="6.41233">
        <ele>93</ele>
        <time>2022-04-08T13:34:01Z</time>
      </trkpt>
      <trkpt lat="43.47213" lon="6.41233">
        <ele>93</ele>
        <time>2022-04-08T13:34:02Z</time>
      </trkpt>
      <trkpt lat="43.47213" lon="6.41233">
        <ele>93</ele>
        <time>2022-04-08T13:34:03Z</time>
      </trkpt>
      <trkpt lat="43.47213" lon="6.41233">
        <ele>93</ele>
        <time>2022-04-08T13:34:04Z</time>
      </trkpt>
      <trkpt lat="43.47213" lon="6.41233">
        <ele>93</ele>
        <time>2022-04-08T13:34:05Z</time>
      </trkpt>
      <trkpt lat="43.47213" lon="6.41233">
        <ele>93</ele>
        <time>2022-04-08T13:34:06Z</time>
      </trkpt>
      <trkpt lat="43.47213" lon="6.41233">
        <ele>93</ele>
        <time>2022-04-08T13:34:07Z</time>
      </trkpt>
      <trkpt lat="43.47213" lon="6.41233">
        <ele>93</ele>
        <time>2022-04-08T13:34:08Z</time>
      </trkpt>
      <trkpt lat="43.47213" lon="6.41233">
        <ele>93</ele>
        <time>2022-04-08T13:34:09Z</time>
      </trkpt>
      <trkpt lat="43.47213" lon="6.41233">
        <ele>93</ele>
        <time>2022-04-08T13:34:10Z</time>
      </trkpt>
      <trkpt lat="43.47213" lon="6.41233">
        <ele>93</ele>
        <time>2022-04-08T13:34:11Z</time>
      </trkpt>
      <trkpt lat="43.47213" lon="6.41233">
        <ele>93</ele>
        <time>2022-04-08T13:34:12Z</time>
      </trkpt>
      <trkpt lat="43.47213" lon="6.41233">
        <ele>93</ele>
        <time>2022-04-08T13:34:13Z</time>
      </trkpt>
      <trkpt lat="43.47213" lon="6.41233">
        <ele>93</ele>
        <time>2022-04-08T13:34:14Z</time>
      </trkpt>
      <trkpt lat="43.47213" lon="6.41233">
        <ele>93</ele>
        <time>2022-04-08T13:34:15Z</time>
      </trkpt>
      <trkpt lat="43.47213" lon="6.41233">
        <ele>93</ele>
        <time>2022-04-08T13:34:16Z</time>
      </trkpt>
      <trkpt lat="43.47213" lon="6.41231">
        <ele>93</ele>
        <time>2022-04-08T13:34:17Z</time>
      </trkpt>
      <trkpt lat="43.47213" lon="6.41231">
        <ele>93</ele>
        <time>2022-04-08T13:34:18Z</time>
      </trkpt>
      <trkpt lat="43.47213" lon="6.41232">
        <ele>93</ele>
        <time>2022-04-08T13:34:19Z</time>
      </trkpt>
      <trkpt lat="43.47214" lon="6.41232">
        <ele>93</ele>
        <time>2022-04-08T13:34:20Z</time>
      </trkpt>
      <trkpt lat="43.47214" lon="6.41233">
        <ele>93</ele>
        <time>2022-04-08T13:34:21Z</time>
      </trkpt>
      <trkpt lat="43.47214" lon="6.41234">
        <ele>93</ele>
        <time>2022-04-08T13:34:22Z</time>
      </trkpt>
      <trkpt lat="43.47214" lon="6.41235">
        <ele>93</ele>
        <time>2022-04-08T13:34:23Z</time>
      </trkpt>
      <trkpt lat="43.47214" lon="6.41236">
        <ele>93</ele>
        <time>2022-04-08T13:34:24Z</time>
      </trkpt>
      <trkpt lat="43.47214" lon="6.41236">
        <ele>93</ele>
        <time>2022-04-08T13:34:25Z</time>
      </trkpt>
      <trkpt lat="43.47214" lon="6.41237">
        <ele>93</ele>
        <time>2022-04-08T13:34:26Z</time>
      </trkpt>
      <trkpt lat="43.47214" lon="6.41238">
        <ele>93</ele>
        <time>2022-04-08T13:34:27Z</time>
      </trkpt>
      <trkpt lat="43.47214" lon="6.41238">
        <ele>93</ele>
        <time>2022-04-08T13:34:28Z</time>
      </trkpt>
      <trkpt lat="43.47214" lon="6.41239">
        <ele>93</ele>
        <time>2022-04-08T13:34:29Z</time>
      </trkpt>
      <trkpt lat="43.47214" lon="6.41239">
        <ele>93</ele>
        <time>2022-04-08T13:34:30Z</time>
      </trkpt>
      <trkpt lat="43.47213" lon="6.41239">
        <ele>93</ele>
        <time>2022-04-08T13:34:31Z</time>
      </trkpt>
      <trkpt lat="43.47213" lon="6.41239">
        <ele>93</ele>
        <time>2022-04-08T13:34:32Z</time>
      </trkpt>
      <trkpt lat="43.47213" lon="6.4124">
        <ele>93</ele>
        <time>2022-04-08T13:34:33Z</time>
      </trkpt>
      <trkpt lat="43.47213" lon="6.41241">
        <ele>93</ele>
        <time>2022-04-08T13:34:34Z</time>
      </trkpt>
      <trkpt lat="43.47213" lon="6.41242">
        <ele>93</ele>
        <time>2022-04-08T13:34:35Z</time>
      </trkpt>
      <trkpt lat="43.47213" lon="6.41243">
        <ele>93</ele>
        <time>2022-04-08T13:34:36Z</time>
      </trkpt>
      <trkpt lat="43.47213" lon="6.41244">
        <ele>93</ele>
        <time>2022-04-08T13:34:37Z</time>
      </trkpt>
      <trkpt lat="43.47213" lon="6.41245">
        <ele>93</ele>
        <time>2022-04-08T13:34:38Z</time>
      </trkpt>
      <trkpt lat="43.47213" lon="6.41246">
        <ele>93</ele>
        <time>2022-04-08T13:34:39Z</time>
      </trkpt>
      <trkpt lat="43.47214" lon="6.41247">
        <ele>93</ele>
        <time>2022-04-08T13:34:40Z</time>
      </trkpt>
      <trkpt lat="43.47214" lon="6.41248">
        <ele>93</ele>
        <time>2022-04-08T13:34:41Z</time>
      </trkpt>
      <trkpt lat="43.47214" lon="6.4125">
        <ele>93</ele>
        <time>2022-04-08T13:34:42Z</time>
      </trkpt>
      <trkpt lat="43.47214" lon="6.41251">
        <ele>93</ele>
        <time>2022-04-08T13:34:43Z</time>
      </trkpt>
      <trkpt lat="43.47215" lon="6.41252">
        <ele>93</ele>
        <time>2022-04-08T13:34:44Z</time>
      </trkpt>
      <trkpt lat="43.47215" lon="6.41253">
        <ele>93</ele>
        <time>2022-04-08T13:34:45Z</time>
      </trkpt>
      <trkpt lat="43.47215" lon="6.41254">
        <ele>93</ele>
        <time>2022-04-08T13:34:46Z</time>
      </trkpt>
      <trkpt lat="43.47216" lon="6.41256">
        <ele>93</ele>
        <time>2022-04-08T13:34:47Z</time>
      </trkpt>
      <trkpt lat="43.47217" lon="6.41257">
        <ele>93</ele>
        <time>2022-04-08T13:34:48Z</time>
      </trkpt>
      <trkpt lat="43.47217" lon="6.41258">
        <ele>93</ele>
        <time>2022-04-08T13:34:49Z</time>
      </trkpt>
      <trkpt lat="43.47217" lon="6.41259">
        <ele>93</ele>
        <time>2022-04-08T13:34:50Z</time>
      </trkpt>
      <trkpt lat="43.47217" lon="6.4126">
        <ele>93</ele>
        <time>2022-04-08T13:34:51Z</time>
      </trkpt>
      <trkpt lat="43.47217" lon="6.41261">
        <ele>93</ele>
        <time>2022-04-08T13:34:52Z</time>
      </trkpt>
      <trkpt lat="43.47217" lon="6.41262">
        <ele>93</ele>
        <time>2022-04-08T13:34:53Z</time>
      </trkpt>
      <trkpt lat="43.47217" lon="6.41263">
        <ele>93</ele>
        <time>2022-04-08T13:34:54Z</time>
      </trkpt>
      <trkpt lat="43.47218" lon="6.41264">
        <ele>93</ele>
        <time>2022-04-08T13:34:55Z</time>
      </trkpt>
      <trkpt lat="43.47218" lon="6.41264">
        <ele>94</ele>
        <time>2022-04-08T13:34:56Z</time>
      </trkpt>
      <trkpt lat="43.47218" lon="6.41265">
        <ele>94</ele>
        <time>2022-04-08T13:34:57Z</time>
      </trkpt>
      <trkpt lat="43.47219" lon="6.41266">
        <ele>94</ele>
        <time>2022-04-08T13:34:58Z</time>
      </trkpt>
      <trkpt lat="43.47219" lon="6.41267">
        <ele>94</ele>
        <time>2022-04-08T13:34:59Z</time>
      </trkpt>
      <trkpt lat="43.4722" lon="6.41268">
        <ele>94</ele>
        <time>2022-04-08T13:35:00Z</time>
      </trkpt>
      <trkpt lat="43.4722" lon="6.4127">
        <ele>94</ele>
        <time>2022-04-08T13:35:01Z</time>
      </trkpt>
      <trkpt lat="43.47221" lon="6.41271">
        <ele>94</ele>
        <time>2022-04-08T13:35:02Z</time>
      </trkpt>
      <trkpt lat="43.47221" lon="6.41272">
        <ele>94</ele>
        <time>2022-04-08T13:35:03Z</time>
      </trkpt>
      <trkpt lat="43.47221" lon="6.41273">
        <ele>94</ele>
        <time>2022-04-08T13:35:04Z</time>
      </trkpt>
      <trkpt lat="43.47221" lon="6.41275">
        <ele>94</ele>
        <time>2022-04-08T13:35:05Z</time>
      </trkpt>
      <trkpt lat="43.47221" lon="6.41275">
        <ele>94</ele>
        <time>2022-04-08T13:35:06Z</time>
      </trkpt>
      <trkpt lat="43.4722" lon="6.41275">
        <ele>94</ele>
        <time>2022-04-08T13:35:07Z</time>
      </trkpt>
      <trkpt lat="43.4722" lon="6.41275">
        <ele>94</ele>
        <time>2022-04-08T13:35:08Z</time>
      </trkpt>
      <trkpt lat="43.4722" lon="6.41275">
        <ele>94</ele>
        <time>2022-04-08T13:35:09Z</time>
      </trkpt>
      <trkpt lat="43.47219" lon="6.41276">
        <ele>94</ele>
        <time>2022-04-08T13:35:10Z</time>
      </trkpt>
      <trkpt lat="43.47219" lon="6.41276">
        <ele>94</ele>
        <time>2022-04-08T13:35:11Z</time>
      </trkpt>
      <trkpt lat="43.4722" lon="6.41276">
        <ele>94</ele>
        <time>2022-04-08T13:35:12Z</time>
      </trkpt>
      <trkpt lat="43.4722" lon="6.41277">
        <ele>94</ele>
        <time>2022-04-08T13:35:13Z</time>
      </trkpt>
      <trkpt lat="43.47221" lon="6.41279">
        <ele>95</ele>
        <time>2022-04-08T13:35:14Z</time>
      </trkpt>
      <trkpt lat="43.47222" lon="6.4128">
        <ele>95</ele>
        <time>2022-04-08T13:35:15Z</time>
      </trkpt>
      <trkpt lat="43.47223" lon="6.41281">
        <ele>95</ele>
        <time>2022-04-08T13:35:16Z</time>
      </trkpt>
      <trkpt lat="43.47223" lon="6.41281">
        <ele>95</ele>
        <time>2022-04-08T13:35:17Z</time>
      </trkpt>
      <trkpt lat="43.47223" lon="6.41282">
        <ele>95</ele>
        <time>2022-04-08T13:35:18Z</time>
      </trkpt>
      <trkpt lat="43.47224" lon="6.41283">
        <ele>95</ele>
        <time>2022-04-08T13:35:19Z</time>
      </trkpt>
      <trkpt lat="43.47224" lon="6.41283">
        <ele>95</ele>
        <time>2022-04-08T13:35:20Z</time>
      </trkpt>
      <trkpt lat="43.47224" lon="6.41284">
        <ele>95</ele>
        <time>2022-04-08T13:35:21Z</time>
      </trkpt>
      <trkpt lat="43.47225" lon="6.41285">
        <ele>95</ele>
        <time>2022-04-08T13:35:22Z</time>
      </trkpt>
      <trkpt lat="43.47225" lon="6.41286">
        <ele>95</ele>
        <time>2022-04-08T13:35:23Z</time>
      </trkpt>
      <trkpt lat="43.47226" lon="6.41287">
        <ele>95</ele>
        <time>2022-04-08T13:35:24Z</time>
      </trkpt>
      <trkpt lat="43.47226" lon="6.41287">
        <ele>96</ele>
        <time>2022-04-08T13:35:25Z</time>
      </trkpt>
      <trkpt lat="43.47226" lon="6.41287">
        <ele>97</ele>
        <time>2022-04-08T13:35:26Z</time>
      </trkpt>
      <trkpt lat="43.47227" lon="6.41287">
        <ele>97</ele>
        <time>2022-04-08T13:35:27Z</time>
      </trkpt>
      <trkpt lat="43.47227" lon="6.41287">
        <ele>97</ele>
        <time>2022-04-08T13:35:28Z</time>
      </trkpt>
      <trkpt lat="43.47227" lon="6.41287">
        <ele>97</ele>
        <time>2022-04-08T13:35:29Z</time>
      </trkpt>
      <trkpt lat="43.47227" lon="6.41287">
        <ele>97</ele>
        <time>2022-04-08T13:35:30Z</time>
      </trkpt>
      <trkpt lat="43.47228" lon="6.41287">
        <ele>97</ele>
        <time>2022-04-08T13:35:31Z</time>
      </trkpt>
      <trkpt lat="43.47228" lon="6.41287">
        <ele>97</ele>
        <time>2022-04-08T13:35:32Z</time>
      </trkpt>
      <trkpt lat="43.47228" lon="6.41287">
        <ele>97</ele>
        <time>2022-04-08T13:35:33Z</time>
      </trkpt>
      <trkpt lat="43.47228" lon="6.41287">
        <ele>97</ele>
        <time>2022-04-08T13:35:34Z</time>
      </trkpt>
      <trkpt lat="43.47228" lon="6.41287">
        <ele>97</ele>
        <time>2022-04-08T13:35:35Z</time>
      </trkpt>
      <trkpt lat="43.47228" lon="6.41287">
        <ele>97</ele>
        <time>2022-04-08T13:35:36Z</time>
      </trkpt>
      <trkpt lat="43.47228" lon="6.41287">
        <ele>97</ele>
        <time>2022-04-08T13:35:37Z</time>
      </trkpt>
      <trkpt lat="43.47228" lon="6.41287">
        <ele>97</ele>
        <time>2022-04-08T13:35:38Z</time>
      </trkpt>
      <trkpt lat="43.47228" lon="6.41287">
        <ele>97</ele>
        <time>2022-04-08T13:35:39Z</time>
      </trkpt>
      <trkpt lat="43.47228" lon="6.41287">
        <ele>97</ele>
        <time>2022-04-08T13:35:40Z</time>
      </trkpt>
      <trkpt lat="43.47228" lon="6.41287">
        <ele>97</ele>
        <time>2022-04-08T13:35:41Z</time>
      </trkpt>
      <trkpt lat="43.47228" lon="6.41287">
        <ele>97</ele>
        <time>2022-04-08T13:35:42Z</time>
      </trkpt>
      <trkpt lat="43.47228" lon="6.41287">
        <ele>97</ele>
        <time>2022-04-08T13:35:43Z</time>
      </trkpt>
      <trkpt lat="43.47228" lon="6.41287">
        <ele>97</ele>
        <time>2022-04-08T13:35:44Z</time>
      </trkpt>
      <trkpt lat="43.47228" lon="6.41287">
        <ele>97</ele>
        <time>2022-04-08T13:35:45Z</time>
      </trkpt>
      <trkpt lat="43.47228" lon="6.41287">
        <ele>97</ele>
        <time>2022-04-08T13:35:46Z</time>
      </trkpt>
      <trkpt lat="43.47228" lon="6.41287">
        <ele>97</ele>
        <time>2022-04-08T13:35:47Z</time>
      </trkpt>
      <trkpt lat="43.47228" lon="6.41287">
        <ele>97</ele>
        <time>2022-04-08T13:35:48Z</time>
      </trkpt>
      <trkpt lat="43.47228" lon="6.41287">
        <ele>97</ele>
        <time>2022-04-08T13:35:49Z</time>
      </trkpt>
      <trkpt lat="43.47228" lon="6.41287">
        <ele>97</ele>
        <time>2022-04-08T13:35:50Z</time>
      </trkpt>
      <trkpt lat="43.47228" lon="6.41287">
        <ele>97</ele>
        <time>2022-04-08T13:35:51Z</time>
      </trkpt>
      <trkpt lat="43.47228" lon="6.41287">
        <ele>97</ele>
        <time>2022-04-08T13:35:52Z</time>
      </trkpt>
      <trkpt lat="43.47228" lon="6.41287">
        <ele>97</ele>
        <time>2022-04-08T13:35:53Z</time>
      </trkpt>
      <trkpt lat="43.47228" lon="6.41287">
        <ele>97</ele>
        <time>2022-04-08T13:35:54Z</time>
      </trkpt>
      <trkpt lat="43.47228" lon="6.41287">
        <ele>97</ele>
        <time>2022-04-08T13:35:55Z</time>
      </trkpt>
      <trkpt lat="43.47228" lon="6.41287">
        <ele>97</ele>
        <time>2022-04-08T13:35:56Z</time>
      </trkpt>
      <trkpt lat="43.47228" lon="6.41287">
        <ele>97</ele>
        <time>2022-04-08T13:35:57Z</time>
      </trkpt>
      <trkpt lat="43.47228" lon="6.41287">
        <ele>97</ele>
        <time>2022-04-08T13:35:58Z</time>
      </trkpt>
      <trkpt lat="43.47228" lon="6.41287">
        <ele>97</ele>
        <time>2022-04-08T13:35:59Z</time>
      </trkpt>
      <trkpt lat="43.4723" lon="6.41289">
        <ele>97</ele>
        <time>2022-04-08T13:36:00Z</time>
      </trkpt>
      <trkpt lat="43.4723" lon="6.4129">
        <ele>98</ele>
        <time>2022-04-08T13:36:01Z</time>
      </trkpt>
      <trkpt lat="43.4723" lon="6.4129">
        <ele>98</ele>
        <time>2022-04-08T13:36:02Z</time>
      </trkpt>
      <trkpt lat="43.4723" lon="6.4129">
        <ele>98</ele>
        <time>2022-04-08T13:36:03Z</time>
      </trkpt>
      <trkpt lat="43.4723" lon="6.4129">
        <ele>98</ele>
        <time>2022-04-08T13:36:04Z</time>
      </trkpt>
      <trkpt lat="43.4723" lon="6.4129">
        <ele>98</ele>
        <time>2022-04-08T13:36:05Z</time>
      </trkpt>
      <trkpt lat="43.4723" lon="6.4129">
        <ele>98</ele>
        <time>2022-04-08T13:36:06Z</time>
      </trkpt>
      <trkpt lat="43.4723" lon="6.4129">
        <ele>98</ele>
        <time>2022-04-08T13:36:07Z</time>
      </trkpt>
      <trkpt lat="43.4723" lon="6.4129">
        <ele>98</ele>
        <time>2022-04-08T13:36:08Z</time>
      </trkpt>
      <trkpt lat="43.4723" lon="6.4129">
        <ele>98</ele>
        <time>2022-04-08T13:36:09Z</time>
      </trkpt>
      <trkpt lat="43.4723" lon="6.41289">
        <ele>98</ele>
        <time>2022-04-08T13:36:10Z</time>
      </trkpt>
      <trkpt lat="43.4723" lon="6.41289">
        <ele>98</ele>
        <time>2022-04-08T13:36:11Z</time>
      </trkpt>
      <trkpt lat="43.4723" lon="6.41289">
        <ele>98</ele>
        <time>2022-04-08T13:36:12Z</time>
      </trkpt>
      <trkpt lat="43.4723" lon="6.41289">
        <ele>98</ele>
        <time>2022-04-08T13:36:13Z</time>
      </trkpt>
      <trkpt lat="43.4723" lon="6.41289">
        <ele>98</ele>
        <time>2022-04-08T13:36:14Z</time>
      </trkpt>
      <trkpt lat="43.4723" lon="6.41289">
        <ele>98</ele>
        <time>2022-04-08T13:36:15Z</time>
      </trkpt>
      <trkpt lat="43.4723" lon="6.41289">
        <ele>98</ele>
        <time>2022-04-08T13:36:16Z</time>
      </trkpt>
      <trkpt lat="43.4723" lon="6.41289">
        <ele>98</ele>
        <time>2022-04-08T13:36:17Z</time>
      </trkpt>
      <trkpt lat="43.4723" lon="6.41289">
        <ele>98</ele>
        <time>2022-04-08T13:36:18Z</time>
      </trkpt>
      <trkpt lat="43.4723" lon="6.41289">
        <ele>98</ele>
        <time>2022-04-08T13:36:19Z</time>
      </trkpt>
      <trkpt lat="43.4723" lon="6.41289">
        <ele>98</ele>
        <time>2022-04-08T13:36:20Z</time>
      </trkpt>
      <trkpt lat="43.4723" lon="6.41289">
        <ele>98</ele>
        <time>2022-04-08T13:36:21Z</time>
      </trkpt>
      <trkpt lat="43.4723" lon="6.41289">
        <ele>98</ele>
        <time>2022-04-08T13:36:22Z</time>
      </trkpt>
      <trkpt lat="43.4723" lon="6.41289">
        <ele>98</ele>
        <time>2022-04-08T13:36:23Z</time>
      </trkpt>
      <trkpt lat="43.4723" lon="6.41289">
        <ele>98</ele>
        <time>2022-04-08T13:36:24Z</time>
      </trkpt>
      <trkpt lat="43.4723" lon="6.41289">
        <ele>98</ele>
        <time>2022-04-08T13:36:25Z</time>
      </trkpt>
      <trkpt lat="43.4723" lon="6.41289">
        <ele>98</ele>
        <time>2022-04-08T13:36:26Z</time>
      </trkpt>
      <trkpt lat="43.4723" lon="6.41289">
        <ele>98</ele>
        <time>2022-04-08T13:36:27Z</time>
      </trkpt>
      <trkpt lat="43.4723" lon="6.41289">
        <ele>98</ele>
        <time>2022-04-08T13:36:28Z</time>
      </trkpt>
      <trkpt lat="43.4723" lon="6.41289">
        <ele>98</ele>
        <time>2022-04-08T13:36:29Z</time>
      </trkpt>
      <trkpt lat="43.4723" lon="6.41289">
        <ele>98</ele>
        <time>2022-04-08T13:36:30Z</time>
      </trkpt>
      <trkpt lat="43.47231" lon="6.41289">
        <ele>98</ele>
        <time>2022-04-08T13:36:31Z</time>
      </trkpt>
      <trkpt lat="43.47231" lon="6.41289">
        <ele>98</ele>
        <time>2022-04-08T13:36:32Z</time>
      </trkpt>
      <trkpt lat="43.4723" lon="6.41289">
        <ele>98</ele>
        <time>2022-04-08T13:36:33Z</time>
      </trkpt>
      <trkpt lat="43.4723" lon="6.4129">
        <ele>98</ele>
        <time>2022-04-08T13:36:34Z</time>
      </trkpt>
      <trkpt lat="43.47229" lon="6.4129">
        <ele>98</ele>
        <time>2022-04-08T13:36:35Z</time>
      </trkpt>
      <trkpt lat="43.47229" lon="6.41291">
        <ele>98</ele>
        <time>2022-04-08T13:36:36Z</time>
      </trkpt>
      <trkpt lat="43.47229" lon="6.41291">
        <ele>98</ele>
        <time>2022-04-08T13:36:37Z</time>
      </trkpt>
      <trkpt lat="43.47228" lon="6.41292">
        <ele>98</ele>
        <time>2022-04-08T13:36:38Z</time>
      </trkpt>
      <trkpt lat="43.47228" lon="6.41293">
        <ele>98</ele>
        <time>2022-04-08T13:36:39Z</time>
      </trkpt>
      <trkpt lat="43.47229" lon="6.41293">
        <ele>98</ele>
        <time>2022-04-08T13:36:40Z</time>
      </trkpt>
      <trkpt lat="43.47229" lon="6.41294">
        <ele>98</ele>
        <time>2022-04-08T13:36:41Z</time>
      </trkpt>
      <trkpt lat="43.47229" lon="6.41295">
        <ele>98</ele>
        <time>2022-04-08T13:36:42Z</time>
      </trkpt>
      <trkpt lat="43.47229" lon="6.41296">
        <ele>98</ele>
        <time>2022-04-08T13:36:43Z</time>
      </trkpt>
      <trkpt lat="43.47229" lon="6.41298">
        <ele>98</ele>
        <time>2022-04-08T13:36:44Z</time>
      </trkpt>
      <trkpt lat="43.47229" lon="6.413">
        <ele>98</ele>
        <time>2022-04-08T13:36:45Z</time>
      </trkpt>
      <trkpt lat="43.47229" lon="6.41301">
        <ele>98</ele>
        <time>2022-04-08T13:36:46Z</time>
      </trkpt>
      <trkpt lat="43.47229" lon="6.41301">
        <ele>98</ele>
        <time>2022-04-08T13:36:47Z</time>
      </trkpt>
      <trkpt lat="43.4723" lon="6.41302">
        <ele>98</ele>
        <time>2022-04-08T13:36:48Z</time>
      </trkpt>
      <trkpt lat="43.4723" lon="6.41303">
        <ele>98</ele>
        <time>2022-04-08T13:36:49Z</time>
      </trkpt>
      <trkpt lat="43.47231" lon="6.41304">
        <ele>98</ele>
        <time>2022-04-08T13:36:50Z</time>
      </trkpt>
      <trkpt lat="43.47231" lon="6.41305">
        <ele>98</ele>
        <time>2022-04-08T13:36:51Z</time>
      </trkpt>
      <trkpt lat="43.47231" lon="6.41306">
        <ele>99</ele>
        <time>2022-04-08T13:36:52Z</time>
      </trkpt>
      <trkpt lat="43.47232" lon="6.41307">
        <ele>99</ele>
        <time>2022-04-08T13:36:53Z</time>
      </trkpt>
      <trkpt lat="43.47232" lon="6.41308">
        <ele>99</ele>
        <time>2022-04-08T13:36:54Z</time>
      </trkpt>
      <trkpt lat="43.47233" lon="6.41309">
        <ele>99</ele>
        <time>2022-04-08T13:36:55Z</time>
      </trkpt>
      <trkpt lat="43.47233" lon="6.4131">
        <ele>99</ele>
        <time>2022-04-08T13:36:56Z</time>
      </trkpt>
      <trkpt lat="43.47233" lon="6.4131">
        <ele>99</ele>
        <time>2022-04-08T13:36:57Z</time>
      </trkpt>
      <trkpt lat="43.47233" lon="6.41311">
        <ele>99</ele>
        <time>2022-04-08T13:36:58Z</time>
      </trkpt>
      <trkpt lat="43.47233" lon="6.41312">
        <ele>99</ele>
        <time>2022-04-08T13:36:59Z</time>
      </trkpt>
      <trkpt lat="43.47234" lon="6.41314">
        <ele>99</ele>
        <time>2022-04-08T13:37:00Z</time>
      </trkpt>
      <trkpt lat="43.47235" lon="6.41317">
        <ele>101</ele>
        <time>2022-04-08T13:37:01Z</time>
      </trkpt>
      <trkpt lat="43.47235" lon="6.41319">
        <ele>101</ele>
        <time>2022-04-08T13:37:02Z</time>
      </trkpt>
      <trkpt lat="43.47235" lon="6.4132">
        <ele>101</ele>
        <time>2022-04-08T13:37:03Z</time>
      </trkpt>
      <trkpt lat="43.47236" lon="6.41322">
        <ele>102</ele>
        <time>2022-04-08T13:37:04Z</time>
      </trkpt>
      <trkpt lat="43.47236" lon="6.41323">
        <ele>102</ele>
        <time>2022-04-08T13:37:05Z</time>
      </trkpt>
      <trkpt lat="43.47236" lon="6.41324">
        <ele>102</ele>
        <time>2022-04-08T13:37:06Z</time>
      </trkpt>
      <trkpt lat="43.47237" lon="6.41325">
        <ele>102</ele>
        <time>2022-04-08T13:37:07Z</time>
      </trkpt>
      <trkpt lat="43.47237" lon="6.41326">
        <ele>102</ele>
        <time>2022-04-08T13:37:08Z</time>
      </trkpt>
      <trkpt lat="43.47237" lon="6.41328">
        <ele>102</ele>
        <time>2022-04-08T13:37:09Z</time>
      </trkpt>
      <trkpt lat="43.47237" lon="6.41329">
        <ele>102</ele>
        <time>2022-04-08T13:37:10Z</time>
      </trkpt>
      <trkpt lat="43.47238" lon="6.41331">
        <ele>102</ele>
        <time>2022-04-08T13:37:11Z</time>
      </trkpt>
      <trkpt lat="43.47238" lon="6.41332">
        <ele>102</ele>
        <time>2022-04-08T13:37:12Z</time>
      </trkpt>
      <trkpt lat="43.47239" lon="6.41333">
        <ele>102</ele>
        <time>2022-04-08T13:37:13Z</time>
      </trkpt>
      <trkpt lat="43.47239" lon="6.41335">
        <ele>103</ele>
        <time>2022-04-08T13:37:14Z</time>
      </trkpt>
      <trkpt lat="43.47239" lon="6.41336">
        <ele>103</ele>
        <time>2022-04-08T13:37:15Z</time>
      </trkpt>
      <trkpt lat="43.47239" lon="6.41338">
        <ele>103</ele>
        <time>2022-04-08T13:37:16Z</time>
      </trkpt>
      <trkpt lat="43.47239" lon="6.4134">
        <ele>102</ele>
        <time>2022-04-08T13:37:17Z</time>
      </trkpt>
      <trkpt lat="43.4724" lon="6.41341">
        <ele>102</ele>
        <time>2022-04-08T13:37:18Z</time>
      </trkpt>
      <trkpt lat="43.4724" lon="6.41342">
        <ele>102</ele>
        <time>2022-04-08T13:37:19Z</time>
      </trkpt>
      <trkpt lat="43.4724" lon="6.41343">
        <ele>102</ele>
        <time>2022-04-08T13:37:20Z</time>
      </trkpt>
      <trkpt lat="43.4724" lon="6.41344">
        <ele>102</ele>
        <time>2022-04-08T13:37:21Z</time>
      </trkpt>
      <trkpt lat="43.4724" lon="6.41345">
        <ele>102</ele>
        <time>2022-04-08T13:37:22Z</time>
      </trkpt>
      <trkpt lat="43.4724" lon="6.41347">
        <ele>101</ele>
        <time>2022-04-08T13:37:23Z</time>
      </trkpt>
      <trkpt lat="43.4724" lon="6.41348">
        <ele>101</ele>
        <time>2022-04-08T13:37:24Z</time>
      </trkpt>
      <trkpt lat="43.47241" lon="6.41349">
        <ele>101</ele>
        <time>2022-04-08T13:37:25Z</time>
      </trkpt>
      <trkpt lat="43.47241" lon="6.4135">
        <ele>101</ele>
        <time>2022-04-08T13:37:26Z</time>
      </trkpt>
      <trkpt lat="43.47242" lon="6.41351">
        <ele>101</ele>
        <time>2022-04-08T13:37:27Z</time>
      </trkpt>
      <trkpt lat="43.47242" lon="6.41352">
        <ele>100</ele>
        <time>2022-04-08T13:37:28Z</time>
      </trkpt>
      <trkpt lat="43.47242" lon="6.41353">
        <ele>100</ele>
        <time>2022-04-08T13:37:29Z</time>
      </trkpt>
      <trkpt lat="43.47243" lon="6.41354">
        <ele>100</ele>
        <time>2022-04-08T13:37:30Z</time>
      </trkpt>
      <trkpt lat="43.47244" lon="6.41355">
        <ele>100</ele>
        <time>2022-04-08T13:37:31Z</time>
      </trkpt>
      <trkpt lat="43.47244" lon="6.41356">
        <ele>100</ele>
        <time>2022-04-08T13:37:32Z</time>
      </trkpt>
      <trkpt lat="43.47245" lon="6.41357">
        <ele>100</ele>
        <time>2022-04-08T13:37:33Z</time>
      </trkpt>
      <trkpt lat="43.47246" lon="6.41357">
        <ele>99</ele>
        <time>2022-04-08T13:37:34Z</time>
      </trkpt>
      <trkpt lat="43.47247" lon="6.41358">
        <ele>99</ele>
        <time>2022-04-08T13:37:35Z</time>
      </trkpt>
      <trkpt lat="43.47248" lon="6.41359">
        <ele>99</ele>
        <time>2022-04-08T13:37:36Z</time>
      </trkpt>
      <trkpt lat="43.47248" lon="6.41359">
        <ele>99</ele>
        <time>2022-04-08T13:37:37Z</time>
      </trkpt>
      <trkpt lat="43.47249" lon="6.4136">
        <ele>99</ele>
        <time>2022-04-08T13:37:38Z</time>
      </trkpt>
      <trkpt lat="43.4725" lon="6.41361">
        <ele>99</ele>
        <time>2022-04-08T13:37:39Z</time>
      </trkpt>
      <trkpt lat="43.47251" lon="6.41361">
        <ele>99</ele>
        <time>2022-04-08T13:37:40Z</time>
      </trkpt>
      <trkpt lat="43.47252" lon="6.41362">
        <ele>99</ele>
        <time>2022-04-08T13:37:41Z</time>
      </trkpt>
      <trkpt lat="43.47253" lon="6.41363">
        <ele>99</ele>
        <time>2022-04-08T13:37:42Z</time>
      </trkpt>
      <trkpt lat="43.47253" lon="6.41364">
        <ele>99</ele>
        <time>2022-04-08T13:37:43Z</time>
      </trkpt>
      <trkpt lat="43.47254" lon="6.41364">
        <ele>99</ele>
        <time>2022-04-08T13:37:44Z</time>
      </trkpt>
      <trkpt lat="43.47255" lon="6.41365">
        <ele>99</ele>
        <time>2022-04-08T13:37:45Z</time>
      </trkpt>
      <trkpt lat="43.47256" lon="6.41366">
        <ele>99</ele>
        <time>2022-04-08T13:37:46Z</time>
      </trkpt>
      <trkpt lat="43.47257" lon="6.41366">
        <ele>99</ele>
        <time>2022-04-08T13:37:47Z</time>
      </trkpt>
      <trkpt lat="43.47257" lon="6.41367">
        <ele>100</ele>
        <time>2022-04-08T13:37:48Z</time>
      </trkpt>
      <trkpt lat="43.47258" lon="6.41368">
        <ele>100</ele>
        <time>2022-04-08T13:37:49Z</time>
      </trkpt>
      <trkpt lat="43.47259" lon="6.41368">
        <ele>100</ele>
        <time>2022-04-08T13:37:50Z</time>
      </trkpt>
      <trkpt lat="43.4726" lon="6.41368">
        <ele>100</ele>
        <time>2022-04-08T13:37:51Z</time>
      </trkpt>
      <trkpt lat="43.47261" lon="6.41369">
        <ele>100</ele>
        <time>2022-04-08T13:37:52Z</time>
      </trkpt>
      <trkpt lat="43.47262" lon="6.41369">
        <ele>100</ele>
        <time>2022-04-08T13:37:53Z</time>
      </trkpt>
      <trkpt lat="43.47263" lon="6.4137">
        <ele>101</ele>
        <time>2022-04-08T13:37:54Z</time>
      </trkpt>
      <trkpt lat="43.47264" lon="6.41371">
        <ele>101</ele>
        <time>2022-04-08T13:37:55Z</time>
      </trkpt>
      <trkpt lat="43.47264" lon="6.41372">
        <ele>102</ele>
        <time>2022-04-08T13:37:56Z</time>
      </trkpt>
      <trkpt lat="43.47265" lon="6.41372">
        <ele>102</ele>
        <time>2022-04-08T13:37:57Z</time>
      </trkpt>
      <trkpt lat="43.47265" lon="6.41373">
        <ele>102</ele>
        <time>2022-04-08T13:37:58Z</time>
      </trkpt>
      <trkpt lat="43.47266" lon="6.41375">
        <ele>102</ele>
        <time>2022-04-08T13:37:59Z</time>
      </trkpt>
      <trkpt lat="43.47266" lon="6.41376">
        <ele>102</ele>
        <time>2022-04-08T13:38:00Z</time>
      </trkpt>
      <trkpt lat="43.47267" lon="6.41376">
        <ele>102</ele>
        <time>2022-04-08T13:38:01Z</time>
      </trkpt>
      <trkpt lat="43.47267" lon="6.41377">
        <ele>102</ele>
        <time>2022-04-08T13:38:02Z</time>
      </trkpt>
      <trkpt lat="43.47268" lon="6.41377">
        <ele>102</ele>
        <time>2022-04-08T13:38:03Z</time>
      </trkpt>
      <trkpt lat="43.47268" lon="6.41378">
        <ele>102</ele>
        <time>2022-04-08T13:38:04Z</time>
      </trkpt>
      <trkpt lat="43.47269" lon="6.41378">
        <ele>102</ele>
        <time>2022-04-08T13:38:05Z</time>
      </trkpt>
      <trkpt lat="43.4727" lon="6.41379">
        <ele>102</ele>
        <time>2022-04-08T13:38:06Z</time>
      </trkpt>
      <trkpt lat="43.47271" lon="6.4138">
        <ele>102</ele>
        <time>2022-04-08T13:38:07Z</time>
      </trkpt>
      <trkpt lat="43.47271" lon="6.4138">
        <ele>101</ele>
        <time>2022-04-08T13:38:08Z</time>
      </trkpt>
      <trkpt lat="43.47272" lon="6.41381">
        <ele>101</ele>
        <time>2022-04-08T13:38:09Z</time>
      </trkpt>
      <trkpt lat="43.47273" lon="6.41381">
        <ele>101</ele>
        <time>2022-04-08T13:38:10Z</time>
      </trkpt>
      <trkpt lat="43.47273" lon="6.41382">
        <ele>101</ele>
        <time>2022-04-08T13:38:11Z</time>
      </trkpt>
      <trkpt lat="43.47274" lon="6.41382">
        <ele>101</ele>
        <time>2022-04-08T13:38:12Z</time>
      </trkpt>
      <trkpt lat="43.47274" lon="6.41383">
        <ele>101</ele>
        <time>2022-04-08T13:38:13Z</time>
      </trkpt>
      <trkpt lat="43.47275" lon="6.41383">
        <ele>101</ele>
        <time>2022-04-08T13:38:14Z</time>
      </trkpt>
      <trkpt lat="43.47276" lon="6.41384">
        <ele>101</ele>
        <time>2022-04-08T13:38:15Z</time>
      </trkpt>
      <trkpt lat="43.47276" lon="6.41384">
        <ele>101</ele>
        <time>2022-04-08T13:38:16Z</time>
      </trkpt>
      <trkpt lat="43.47277" lon="6.41385">
        <ele>101</ele>
        <time>2022-04-08T13:38:17Z</time>
      </trkpt>
      <trkpt lat="43.47277" lon="6.41386">
        <ele>101</ele>
        <time>2022-04-08T13:38:18Z</time>
      </trkpt>
      <trkpt lat="43.47278" lon="6.41387">
        <ele>101</ele>
        <time>2022-04-08T13:38:19Z</time>
      </trkpt>
      <trkpt lat="43.47279" lon="6.41387">
        <ele>101</ele>
        <time>2022-04-08T13:38:20Z</time>
      </trkpt>
      <trkpt lat="43.47279" lon="6.41388">
        <ele>101</ele>
        <time>2022-04-08T13:38:21Z</time>
      </trkpt>
      <trkpt lat="43.4728" lon="6.41388">
        <ele>101</ele>
        <time>2022-04-08T13:38:22Z</time>
      </trkpt>
      <trkpt lat="43.47281" lon="6.41389">
        <ele>101</ele>
        <time>2022-04-08T13:38:23Z</time>
      </trkpt>
      <trkpt lat="43.47283" lon="6.41389">
        <ele>101</ele>
        <time>2022-04-08T13:38:24Z</time>
      </trkpt>
      <trkpt lat="43.47284" lon="6.41389">
        <ele>101</ele>
        <time>2022-04-08T13:38:25Z</time>
      </trkpt>
      <trkpt lat="43.47285" lon="6.41389">
        <ele>102</ele>
        <time>2022-04-08T13:38:26Z</time>
      </trkpt>
      <trkpt lat="43.47286" lon="6.4139">
        <ele>102</ele>
        <time>2022-04-08T13:38:27Z</time>
      </trkpt>
      <trkpt lat="43.47287" lon="6.4139">
        <ele>102</ele>
        <time>2022-04-08T13:38:28Z</time>
      </trkpt>
      <trkpt lat="43.47287" lon="6.41391">
        <ele>102</ele>
        <time>2022-04-08T13:38:29Z</time>
      </trkpt>
      <trkpt lat="43.47288" lon="6.41391">
        <ele>101</ele>
        <time>2022-04-08T13:38:30Z</time>
      </trkpt>
      <trkpt lat="43.47289" lon="6.41392">
        <ele>101</ele>
        <time>2022-04-08T13:38:31Z</time>
      </trkpt>
      <trkpt lat="43.4729" lon="6.41393">
        <ele>101</ele>
        <time>2022-04-08T13:38:32Z</time>
      </trkpt>
      <trkpt lat="43.47291" lon="6.41393">
        <ele>101</ele>
        <time>2022-04-08T13:38:33Z</time>
      </trkpt>
      <trkpt lat="43.47293" lon="6.41394">
        <ele>101</ele>
        <time>2022-04-08T13:38:34Z</time>
      </trkpt>
      <trkpt lat="43.47294" lon="6.41395">
        <ele>101</ele>
        <time>2022-04-08T13:38:35Z</time>
      </trkpt>
      <trkpt lat="43.47295" lon="6.41396">
        <ele>102</ele>
        <time>2022-04-08T13:38:36Z</time>
      </trkpt>
      <trkpt lat="43.47296" lon="6.41396">
        <ele>102</ele>
        <time>2022-04-08T13:38:37Z</time>
      </trkpt>
      <trkpt lat="43.47298" lon="6.41397">
        <ele>102</ele>
        <time>2022-04-08T13:38:38Z</time>
      </trkpt>
      <trkpt lat="43.47299" lon="6.41398">
        <ele>102</ele>
        <time>2022-04-08T13:38:39Z</time>
      </trkpt>
      <trkpt lat="43.473" lon="6.41399">
        <ele>102</ele>
        <time>2022-04-08T13:38:40Z</time>
      </trkpt>
      <trkpt lat="43.47301" lon="6.414">
        <ele>102</ele>
        <time>2022-04-08T13:38:41Z</time>
      </trkpt>
      <trkpt lat="43.47302" lon="6.41401">
        <ele>102</ele>
        <time>2022-04-08T13:38:42Z</time>
      </trkpt>
      <trkpt lat="43.47304" lon="6.41402">
        <ele>102</ele>
        <time>2022-04-08T13:38:43Z</time>
      </trkpt>
      <trkpt lat="43.47305" lon="6.41402">
        <ele>102</ele>
        <time>2022-04-08T13:38:44Z</time>
      </trkpt>
      <trkpt lat="43.47306" lon="6.41403">
        <ele>102</ele>
        <time>2022-04-08T13:38:45Z</time>
      </trkpt>
      <trkpt lat="43.47307" lon="6.41404">
        <ele>102</ele>
        <time>2022-04-08T13:38:46Z</time>
      </trkpt>
      <trkpt lat="43.47308" lon="6.41405">
        <ele>102</ele>
        <time>2022-04-08T13:38:47Z</time>
      </trkpt>
      <trkpt lat="43.47309" lon="6.41406">
        <ele>102</ele>
        <time>2022-04-08T13:38:48Z</time>
      </trkpt>
      <trkpt lat="43.4731" lon="6.41406">
        <ele>102</ele>
        <time>2022-04-08T13:38:49Z</time>
      </trkpt>
      <trkpt lat="43.47311" lon="6.41407">
        <ele>102</ele>
        <time>2022-04-08T13:38:50Z</time>
      </trkpt>
      <trkpt lat="43.47312" lon="6.41408">
        <ele>102</ele>
        <time>2022-04-08T13:38:51Z</time>
      </trkpt>
      <trkpt lat="43.47312" lon="6.41408">
        <ele>102</ele>
        <time>2022-04-08T13:38:52Z</time>
      </trkpt>
      <trkpt lat="43.47313" lon="6.41409">
        <ele>102</ele>
        <time>2022-04-08T13:38:53Z</time>
      </trkpt>
      <trkpt lat="43.47314" lon="6.4141">
        <ele>102</ele>
        <time>2022-04-08T13:38:54Z</time>
      </trkpt>
      <trkpt lat="43.47315" lon="6.41411">
        <ele>102</ele>
        <time>2022-04-08T13:38:55Z</time>
      </trkpt>
      <trkpt lat="43.47316" lon="6.41412">
        <ele>102</ele>
        <time>2022-04-08T13:38:56Z</time>
      </trkpt>
      <trkpt lat="43.47316" lon="6.41413">
        <ele>102</ele>
        <time>2022-04-08T13:38:57Z</time>
      </trkpt>
      <trkpt lat="43.47317" lon="6.41413">
        <ele>102</ele>
        <time>2022-04-08T13:38:58Z</time>
      </trkpt>
      <trkpt lat="43.47317" lon="6.41414">
        <ele>103</ele>
        <time>2022-04-08T13:38:59Z</time>
      </trkpt>
      <trkpt lat="43.47318" lon="6.41415">
        <ele>103</ele>
        <time>2022-04-08T13:39:00Z</time>
      </trkpt>
      <trkpt lat="43.47319" lon="6.41416">
        <ele>103</ele>
        <time>2022-04-08T13:39:01Z</time>
      </trkpt>
      <trkpt lat="43.4732" lon="6.41417">
        <ele>103</ele>
        <time>2022-04-08T13:39:02Z</time>
      </trkpt>
      <trkpt lat="43.4732" lon="6.41418">
        <ele>103</ele>
        <time>2022-04-08T13:39:03Z</time>
      </trkpt>
      <trkpt lat="43.47321" lon="6.41418">
        <ele>103</ele>
        <time>2022-04-08T13:39:04Z</time>
      </trkpt>
      <trkpt lat="43.47322" lon="6.41419">
        <ele>103</ele>
        <time>2022-04-08T13:39:05Z</time>
      </trkpt>
      <trkpt lat="43.47323" lon="6.41419">
        <ele>103</ele>
        <time>2022-04-08T13:39:06Z</time>
      </trkpt>
      <trkpt lat="43.47324" lon="6.4142">
        <ele>103</ele>
        <time>2022-04-08T13:39:07Z</time>
      </trkpt>
      <trkpt lat="43.47325" lon="6.41421">
        <ele>103</ele>
        <time>2022-04-08T13:39:08Z</time>
      </trkpt>
      <trkpt lat="43.47326" lon="6.41422">
        <ele>103</ele>
        <time>2022-04-08T13:39:09Z</time>
      </trkpt>
      <trkpt lat="43.47327" lon="6.41423">
        <ele>103</ele>
        <time>2022-04-08T13:39:10Z</time>
      </trkpt>
      <trkpt lat="43.47327" lon="6.41424">
        <ele>103</ele>
        <time>2022-04-08T13:39:11Z</time>
      </trkpt>
      <trkpt lat="43.47328" lon="6.41424">
        <ele>103</ele>
        <time>2022-04-08T13:39:12Z</time>
      </trkpt>
      <trkpt lat="43.47329" lon="6.41425">
        <ele>103</ele>
        <time>2022-04-08T13:39:13Z</time>
      </trkpt>
      <trkpt lat="43.4733" lon="6.41426">
        <ele>103</ele>
        <time>2022-04-08T13:39:14Z</time>
      </trkpt>
      <trkpt lat="43.47331" lon="6.41427">
        <ele>103</ele>
        <time>2022-04-08T13:39:15Z</time>
      </trkpt>
      <trkpt lat="43.47331" lon="6.41428">
        <ele>103</ele>
        <time>2022-04-08T13:39:16Z</time>
      </trkpt>
      <trkpt lat="43.47332" lon="6.41428">
        <ele>103</ele>
        <time>2022-04-08T13:39:17Z</time>
      </trkpt>
      <trkpt lat="43.47333" lon="6.41429">
        <ele>103</ele>
        <time>2022-04-08T13:39:18Z</time>
      </trkpt>
      <trkpt lat="43.47334" lon="6.4143">
        <ele>103</ele>
        <time>2022-04-08T13:39:19Z</time>
      </trkpt>
      <trkpt lat="43.47334" lon="6.41431">
        <ele>103</ele>
        <time>2022-04-08T13:39:20Z</time>
      </trkpt>
      <trkpt lat="43.47335" lon="6.41432">
        <ele>103</ele>
        <time>2022-04-08T13:39:21Z</time>
      </trkpt>
      <trkpt lat="43.47336" lon="6.41433">
        <ele>103</ele>
        <time>2022-04-08T13:39:22Z</time>
      </trkpt>
      <trkpt lat="43.47337" lon="6.41433">
        <ele>103</ele>
        <time>2022-04-08T13:39:23Z</time>
      </trkpt>
      <trkpt lat="43.47337" lon="6.41434">
        <ele>103</ele>
        <time>2022-04-08T13:39:24Z</time>
      </trkpt>
      <trkpt lat="43.47338" lon="6.41435">
        <ele>103</ele>
        <time>2022-04-08T13:39:25Z</time>
      </trkpt>
      <trkpt lat="43.47339" lon="6.41435">
        <ele>103</ele>
        <time>2022-04-08T13:39:26Z</time>
      </trkpt>
      <trkpt lat="43.4734" lon="6.41436">
        <ele>103</ele>
        <time>2022-04-08T13:39:27Z</time>
      </trkpt>
      <trkpt lat="43.4734" lon="6.41437">
        <ele>103</ele>
        <time>2022-04-08T13:39:28Z</time>
      </trkpt>
      <trkpt lat="43.47341" lon="6.41437">
        <ele>103</ele>
        <time>2022-04-08T13:39:29Z</time>
      </trkpt>
      <trkpt lat="43.47342" lon="6.41438">
        <ele>102</ele>
        <time>2022-04-08T13:39:30Z</time>
      </trkpt>
      <trkpt lat="43.47343" lon="6.41439">
        <ele>102</ele>
        <time>2022-04-08T13:39:31Z</time>
      </trkpt>
      <trkpt lat="43.47343" lon="6.41439">
        <ele>102</ele>
        <time>2022-04-08T13:39:32Z</time>
      </trkpt>
      <trkpt lat="43.47344" lon="6.4144">
        <ele>102</ele>
        <time>2022-04-08T13:39:33Z</time>
      </trkpt>
      <trkpt lat="43.47345" lon="6.41441">
        <ele>102</ele>
        <time>2022-04-08T13:39:34Z</time>
      </trkpt>
      <trkpt lat="43.47346" lon="6.41442">
        <ele>102</ele>
        <time>2022-04-08T13:39:35Z</time>
      </trkpt>
      <trkpt lat="43.47346" lon="6.41443">
        <ele>102</ele>
        <time>2022-04-08T13:39:36Z</time>
      </trkpt>
      <trkpt lat="43.47347" lon="6.41443">
        <ele>102</ele>
        <time>2022-04-08T13:39:37Z</time>
      </trkpt>
      <trkpt lat="43.47348" lon="6.41444">
        <ele>102</ele>
        <time>2022-04-08T13:39:38Z</time>
      </trkpt>
      <trkpt lat="43.47349" lon="6.41445">
        <ele>102</ele>
        <time>2022-04-08T13:39:39Z</time>
      </trkpt>
      <trkpt lat="43.4735" lon="6.41445">
        <ele>102</ele>
        <time>2022-04-08T13:39:40Z</time>
      </trkpt>
      <trkpt lat="43.47351" lon="6.41446">
        <ele>102</ele>
        <time>2022-04-08T13:39:41Z</time>
      </trkpt>
      <trkpt lat="43.47351" lon="6.41447">
        <ele>103</ele>
        <time>2022-04-08T13:39:42Z</time>
      </trkpt>
      <trkpt lat="43.47352" lon="6.41447">
        <ele>103</ele>
        <time>2022-04-08T13:39:43Z</time>
      </trkpt>
      <trkpt lat="43.47353" lon="6.41448">
        <ele>104</ele>
        <time>2022-04-08T13:39:44Z</time>
      </trkpt>
      <trkpt lat="43.47354" lon="6.41449">
        <ele>104</ele>
        <time>2022-04-08T13:39:45Z</time>
      </trkpt>
      <trkpt lat="43.47355" lon="6.4145">
        <ele>104</ele>
        <time>2022-04-08T13:39:46Z</time>
      </trkpt>
      <trkpt lat="43.47355" lon="6.41451">
        <ele>104</ele>
        <time>2022-04-08T13:39:47Z</time>
      </trkpt>
      <trkpt lat="43.47356" lon="6.41452">
        <ele>104</ele>
        <time>2022-04-08T13:39:48Z</time>
      </trkpt>
      <trkpt lat="43.47357" lon="6.41453">
        <ele>105</ele>
        <time>2022-04-08T13:39:49Z</time>
      </trkpt>
      <trkpt lat="43.47357" lon="6.41454">
        <ele>105</ele>
        <time>2022-04-08T13:39:50Z</time>
      </trkpt>
      <trkpt lat="43.47358" lon="6.41455">
        <ele>105</ele>
        <time>2022-04-08T13:39:51Z</time>
      </trkpt>
      <trkpt lat="43.47359" lon="6.41456">
        <ele>105</ele>
        <time>2022-04-08T13:39:52Z</time>
      </trkpt>
      <trkpt lat="43.47359" lon="6.41457">
        <ele>105</ele>
        <time>2022-04-08T13:39:53Z</time>
      </trkpt>
      <trkpt lat="43.4736" lon="6.41458">
        <ele>105</ele>
        <time>2022-04-08T13:39:54Z</time>
      </trkpt>
      <trkpt lat="43.4736" lon="6.41459">
        <ele>105</ele>
        <time>2022-04-08T13:39:55Z</time>
      </trkpt>
      <trkpt lat="43.47361" lon="6.4146">
        <ele>105</ele>
        <time>2022-04-08T13:39:56Z</time>
      </trkpt>
      <trkpt lat="43.47361" lon="6.4146">
        <ele>105</ele>
        <time>2022-04-08T13:39:57Z</time>
      </trkpt>
      <trkpt lat="43.47362" lon="6.41461">
        <ele>105</ele>
        <time>2022-04-08T13:39:58Z</time>
      </trkpt>
      <trkpt lat="43.47362" lon="6.41462">
        <ele>105</ele>
        <time>2022-04-08T13:39:59Z</time>
      </trkpt>
      <trkpt lat="43.47363" lon="6.41463">
        <ele>105</ele>
        <time>2022-04-08T13:40:00Z</time>
      </trkpt>
      <trkpt lat="43.47363" lon="6.41464">
        <ele>105</ele>
        <time>2022-04-08T13:40:01Z</time>
      </trkpt>
      <trkpt lat="43.47364" lon="6.41465">
        <ele>105</ele>
        <time>2022-04-08T13:40:02Z</time>
      </trkpt>
      <trkpt lat="43.47364" lon="6.41466">
        <ele>105</ele>
        <time>2022-04-08T13:40:03Z</time>
      </trkpt>
      <trkpt lat="43.47365" lon="6.41467">
        <ele>105</ele>
        <time>2022-04-08T13:40:04Z</time>
      </trkpt>
      <trkpt lat="43.47365" lon="6.41468">
        <ele>105</ele>
        <time>2022-04-08T13:40:05Z</time>
      </trkpt>
      <trkpt lat="43.47366" lon="6.41468">
        <ele>105</ele>
        <time>2022-04-08T13:40:06Z</time>
      </trkpt>
      <trkpt lat="43.47367" lon="6.41469">
        <ele>105</ele>
        <time>2022-04-08T13:40:07Z</time>
      </trkpt>
      <trkpt lat="43.47367" lon="6.4147">
        <ele>105</ele>
        <time>2022-04-08T13:40:08Z</time>
      </trkpt>
      <trkpt lat="43.47368" lon="6.4147">
        <ele>105</ele>
        <time>2022-04-08T13:40:09Z</time>
      </trkpt>
      <trkpt lat="43.47368" lon="6.41471">
        <ele>106</ele>
        <time>2022-04-08T13:40:10Z</time>
      </trkpt>
      <trkpt lat="43.47368" lon="6.41471">
        <ele>106</ele>
        <time>2022-04-08T13:40:11Z</time>
      </trkpt>
      <trkpt lat="43.47368" lon="6.41472">
        <ele>106</ele>
        <time>2022-04-08T13:40:12Z</time>
      </trkpt>
      <trkpt lat="43.47369" lon="6.41473">
        <ele>107</ele>
        <time>2022-04-08T13:40:13Z</time>
      </trkpt>
      <trkpt lat="43.47369" lon="6.41473">
        <ele>107</ele>
        <time>2022-04-08T13:40:14Z</time>
      </trkpt>
      <trkpt lat="43.47369" lon="6.41473">
        <ele>108</ele>
        <time>2022-04-08T13:40:15Z</time>
      </trkpt>
      <trkpt lat="43.47369" lon="6.41474">
        <ele>108</ele>
        <time>2022-04-08T13:40:16Z</time>
      </trkpt>
      <trkpt lat="43.47369" lon="6.41474">
        <ele>108</ele>
        <time>2022-04-08T13:40:17Z</time>
      </trkpt>
      <trkpt lat="43.47369" lon="6.41474">
        <ele>109</ele>
        <time>2022-04-08T13:40:18Z</time>
      </trkpt>
      <trkpt lat="43.47369" lon="6.41474">
        <ele>109</ele>
        <time>2022-04-08T13:40:19Z</time>
      </trkpt>
      <trkpt lat="43.47369" lon="6.41474">
        <ele>109</ele>
        <time>2022-04-08T13:40:20Z</time>
      </trkpt>
      <trkpt lat="43.47369" lon="6.41474">
        <ele>109</ele>
        <time>2022-04-08T13:40:21Z</time>
      </trkpt>
      <trkpt lat="43.47369" lon="6.41474">
        <ele>109</ele>
        <time>2022-04-08T13:40:22Z</time>
      </trkpt>
      <trkpt lat="43.47369" lon="6.41474">
        <ele>109</ele>
        <time>2022-04-08T13:40:23Z</time>
      </trkpt>
      <trkpt lat="43.47369" lon="6.41474">
        <ele>109</ele>
        <time>2022-04-08T13:40:24Z</time>
      </trkpt>
      <trkpt lat="43.47369" lon="6.41474">
        <ele>109</ele>
        <time>2022-04-08T13:40:25Z</time>
      </trkpt>
      <trkpt lat="43.47369" lon="6.41474">
        <ele>109</ele>
        <time>2022-04-08T13:40:26Z</time>
      </trkpt>
      <trkpt lat="43.47369" lon="6.41474">
        <ele>110</ele>
        <time>2022-04-08T13:40:27Z</time>
      </trkpt>
      <trkpt lat="43.47369" lon="6.41474">
        <ele>110</ele>
        <time>2022-04-08T13:40:28Z</time>
      </trkpt>
      <trkpt lat="43.47369" lon="6.41474">
        <ele>110</ele>
        <time>2022-04-08T13:40:29Z</time>
      </trkpt>
      <trkpt lat="43.47369" lon="6.41474">
        <ele>110</ele>
        <time>2022-04-08T13:40:30Z</time>
      </trkpt>
      <trkpt lat="43.47371" lon="6.41474">
        <ele>110</ele>
        <time>2022-04-08T13:40:31Z</time>
      </trkpt>
      <trkpt lat="43.47372" lon="6.41474">
        <ele>110</ele>
        <time>2022-04-08T13:40:32Z</time>
      </trkpt>
      <trkpt lat="43.47373" lon="6.41474">
        <ele>110</ele>
        <time>2022-04-08T13:40:33Z</time>
      </trkpt>
      <trkpt lat="43.47374" lon="6.41474">
        <ele>110</ele>
        <time>2022-04-08T13:40:34Z</time>
      </trkpt>
      <trkpt lat="43.47374" lon="6.41473">
        <ele>110</ele>
        <time>2022-04-08T13:40:35Z</time>
      </trkpt>
      <trkpt lat="43.47375" lon="6.41473">
        <ele>110</ele>
        <time>2022-04-08T13:40:36Z</time>
      </trkpt>
      <trkpt lat="43.47375" lon="6.41472">
        <ele>110</ele>
        <time>2022-04-08T13:40:37Z</time>
      </trkpt>
      <trkpt lat="43.47376" lon="6.41471">
        <ele>110</ele>
        <time>2022-04-08T13:40:38Z</time>
      </trkpt>
      <trkpt lat="43.47376" lon="6.4147">
        <ele>110</ele>
        <time>2022-04-08T13:40:39Z</time>
      </trkpt>
      <trkpt lat="43.47376" lon="6.41469">
        <ele>110</ele>
        <time>2022-04-08T13:40:40Z</time>
      </trkpt>
      <trkpt lat="43.47376" lon="6.41469">
        <ele>110</ele>
        <time>2022-04-08T13:40:41Z</time>
      </trkpt>
      <trkpt lat="43.47376" lon="6.41468">
        <ele>110</ele>
        <time>2022-04-08T13:40:42Z</time>
      </trkpt>
      <trkpt lat="43.47376" lon="6.41466">
        <ele>110</ele>
        <time>2022-04-08T13:40:43Z</time>
      </trkpt>
      <trkpt lat="43.47375" lon="6.41465">
        <ele>110</ele>
        <time>2022-04-08T13:40:44Z</time>
      </trkpt>
      <trkpt lat="43.47375" lon="6.41464">
        <ele>110</ele>
        <time>2022-04-08T13:40:45Z</time>
      </trkpt>
      <trkpt lat="43.47374" lon="6.41463">
        <ele>110</ele>
        <time>2022-04-08T13:40:46Z</time>
      </trkpt>
      <trkpt lat="43.47374" lon="6.41462">
        <ele>110</ele>
        <time>2022-04-08T13:40:47Z</time>
      </trkpt>
      <trkpt lat="43.47373" lon="6.41461">
        <ele>110</ele>
        <time>2022-04-08T13:40:48Z</time>
      </trkpt>
      <trkpt lat="43.47372" lon="6.4146">
        <ele>110</ele>
        <time>2022-04-08T13:40:49Z</time>
      </trkpt>
      <trkpt lat="43.47372" lon="6.41459">
        <ele>110</ele>
        <time>2022-04-08T13:40:50Z</time>
      </trkpt>
      <trkpt lat="43.47371" lon="6.41458">
        <ele>110</ele>
        <time>2022-04-08T13:40:51Z</time>
      </trkpt>
      <trkpt lat="43.4737" lon="6.41456">
        <ele>110</ele>
        <time>2022-04-08T13:40:52Z</time>
      </trkpt>
      <trkpt lat="43.4737" lon="6.41455">
        <ele>110</ele>
        <time>2022-04-08T13:40:53Z</time>
      </trkpt>
      <trkpt lat="43.47369" lon="6.41454">
        <ele>110</ele>
        <time>2022-04-08T13:40:54Z</time>
      </trkpt>
      <trkpt lat="43.47368" lon="6.41453">
        <ele>110</ele>
        <time>2022-04-08T13:40:55Z</time>
      </trkpt>
      <trkpt lat="43.47367" lon="6.41452">
        <ele>110</ele>
        <time>2022-04-08T13:40:56Z</time>
      </trkpt>
      <trkpt lat="43.47367" lon="6.41451">
        <ele>110</ele>
        <time>2022-04-08T13:40:57Z</time>
      </trkpt>
      <trkpt lat="43.47366" lon="6.4145">
        <ele>110</ele>
        <time>2022-04-08T13:40:58Z</time>
      </trkpt>
      <trkpt lat="43.47365" lon="6.41449">
        <ele>110</ele>
        <time>2022-04-08T13:40:59Z</time>
      </trkpt>
      <trkpt lat="43.47365" lon="6.41448">
        <ele>110</ele>
        <time>2022-04-08T13:41:00Z</time>
      </trkpt>
      <trkpt lat="43.47364" lon="6.41447">
        <ele>109</ele>
        <time>2022-04-08T13:41:01Z</time>
      </trkpt>
      <trkpt lat="43.47363" lon="6.41446">
        <ele>109</ele>
        <time>2022-04-08T13:41:02Z</time>
      </trkpt>
      <trkpt lat="43.47362" lon="6.41446">
        <ele>109</ele>
        <time>2022-04-08T13:41:03Z</time>
      </trkpt>
      <trkpt lat="43.47361" lon="6.41445">
        <ele>109</ele>
        <time>2022-04-08T13:41:04Z</time>
      </trkpt>
      <trkpt lat="43.47361" lon="6.41444">
        <ele>109</ele>
        <time>2022-04-08T13:41:05Z</time>
      </trkpt>
      <trkpt lat="43.4736" lon="6.41443">
        <ele>109</ele>
        <time>2022-04-08T13:41:06Z</time>
      </trkpt>
      <trkpt lat="43.47359" lon="6.41442">
        <ele>109</ele>
        <time>2022-04-08T13:41:07Z</time>
      </trkpt>
      <trkpt lat="43.47358" lon="6.41441">
        <ele>108</ele>
        <time>2022-04-08T13:41:08Z</time>
      </trkpt>
      <trkpt lat="43.47358" lon="6.4144">
        <ele>108</ele>
        <time>2022-04-08T13:41:09Z</time>
      </trkpt>
      <trkpt lat="43.47357" lon="6.41439">
        <ele>107</ele>
        <time>2022-04-08T13:41:10Z</time>
      </trkpt>
      <trkpt lat="43.47356" lon="6.41438">
        <ele>107</ele>
        <time>2022-04-08T13:41:11Z</time>
      </trkpt>
      <trkpt lat="43.47355" lon="6.41437">
        <ele>107</ele>
        <time>2022-04-08T13:41:12Z</time>
      </trkpt>
      <trkpt lat="43.47354" lon="6.41436">
        <ele>107</ele>
        <time>2022-04-08T13:41:14Z</time>
      </trkpt>
      <trkpt lat="43.47353" lon="6.41435">
        <ele>107</ele>
        <time>2022-04-08T13:41:15Z</time>
      </trkpt>
      <trkpt lat="43.47353" lon="6.41434">
        <ele>107</ele>
        <time>2022-04-08T13:41:16Z</time>
      </trkpt>
      <trkpt lat="43.47352" lon="6.41433">
        <ele>107</ele>
        <time>2022-04-08T13:41:17Z</time>
      </trkpt>
      <trkpt lat="43.47352" lon="6.41432">
        <ele>107</ele>
        <time>2022-04-08T13:41:18Z</time>
      </trkpt>
      <trkpt lat="43.47351" lon="6.41431">
        <ele>107</ele>
        <time>2022-04-08T13:41:19Z</time>
      </trkpt>
      <trkpt lat="43.47351" lon="6.4143">
        <ele>107</ele>
        <time>2022-04-08T13:41:20Z</time>
      </trkpt>
      <trkpt lat="43.4735" lon="6.41429">
        <ele>107</ele>
        <time>2022-04-08T13:41:21Z</time>
      </trkpt>
      <trkpt lat="43.47349" lon="6.41428">
        <ele>107</ele>
        <time>2022-04-08T13:41:22Z</time>
      </trkpt>
      <trkpt lat="43.47349" lon="6.41428">
        <ele>107</ele>
        <time>2022-04-08T13:41:23Z</time>
      </trkpt>
      <trkpt lat="43.47348" lon="6.41427">
        <ele>107</ele>
        <time>2022-04-08T13:41:24Z</time>
      </trkpt>
      <trkpt lat="43.47348" lon="6.41426">
        <ele>108</ele>
        <time>2022-04-08T13:41:25Z</time>
      </trkpt>
      <trkpt lat="43.47347" lon="6.41425">
        <ele>108</ele>
        <time>2022-04-08T13:41:26Z</time>
      </trkpt>
      <trkpt lat="43.47347" lon="6.41424">
        <ele>108</ele>
        <time>2022-04-08T13:41:27Z</time>
      </trkpt>
      <trkpt lat="43.47346" lon="6.41423">
        <ele>108</ele>
        <time>2022-04-08T13:41:28Z</time>
      </trkpt>
      <trkpt lat="43.47346" lon="6.41422">
        <ele>108</ele>
        <time>2022-04-08T13:41:29Z</time>
      </trkpt>
      <trkpt lat="43.47345" lon="6.41421">
        <ele>108</ele>
        <time>2022-04-08T13:41:30Z</time>
      </trkpt>
      <trkpt lat="43.47345" lon="6.41421">
        <ele>108</ele>
        <time>2022-04-08T13:41:31Z</time>
      </trkpt>
      <trkpt lat="43.47344" lon="6.4142">
        <ele>108</ele>
        <time>2022-04-08T13:41:32Z</time>
      </trkpt>
      <trkpt lat="43.47344" lon="6.41419">
        <ele>108</ele>
        <time>2022-04-08T13:41:33Z</time>
      </trkpt>
      <trkpt lat="43.47343" lon="6.41418">
        <ele>108</ele>
        <time>2022-04-08T13:41:34Z</time>
      </trkpt>
      <trkpt lat="43.47343" lon="6.41418">
        <ele>108</ele>
        <time>2022-04-08T13:41:35Z</time>
      </trkpt>
      <trkpt lat="43.47342" lon="6.41417">
        <ele>108</ele>
        <time>2022-04-08T13:41:36Z</time>
      </trkpt>
      <trkpt lat="43.47342" lon="6.41416">
        <ele>108</ele>
        <time>2022-04-08T13:41:37Z</time>
      </trkpt>
      <trkpt lat="43.47342" lon="6.41415">
        <ele>108</ele>
        <time>2022-04-08T13:41:38Z</time>
      </trkpt>
      <trkpt lat="43.47341" lon="6.41414">
        <ele>108</ele>
        <time>2022-04-08T13:41:39Z</time>
      </trkpt>
      <trkpt lat="43.47341" lon="6.41414">
        <ele>108</ele>
        <time>2022-04-08T13:41:40Z</time>
      </trkpt>
      <trkpt lat="43.4734" lon="6.41413">
        <ele>107</ele>
        <time>2022-04-08T13:41:41Z</time>
      </trkpt>
      <trkpt lat="43.4734" lon="6.41412">
        <ele>107</ele>
        <time>2022-04-08T13:41:42Z</time>
      </trkpt>
      <trkpt lat="43.47339" lon="6.41411">
        <ele>107</ele>
        <time>2022-04-08T13:41:43Z</time>
      </trkpt>
      <trkpt lat="43.47339" lon="6.4141">
        <ele>107</ele>
        <time>2022-04-08T13:41:44Z</time>
      </trkpt>
      <trkpt lat="43.47338" lon="6.41409">
        <ele>107</ele>
        <time>2022-04-08T13:41:45Z</time>
      </trkpt>
      <trkpt lat="43.47338" lon="6.41408">
        <ele>107</ele>
        <time>2022-04-08T13:41:46Z</time>
      </trkpt>
      <trkpt lat="43.47338" lon="6.41407">
        <ele>107</ele>
        <time>2022-04-08T13:41:47Z</time>
      </trkpt>
      <trkpt lat="43.47337" lon="6.41406">
        <ele>107</ele>
        <time>2022-04-08T13:41:48Z</time>
      </trkpt>
      <trkpt lat="43.47337" lon="6.41405">
        <ele>107</ele>
        <time>2022-04-08T13:41:49Z</time>
      </trkpt>
      <trkpt lat="43.47336" lon="6.41404">
        <ele>107</ele>
        <time>2022-04-08T13:41:50Z</time>
      </trkpt>
      <trkpt lat="43.47336" lon="6.41403">
        <ele>107</ele>
        <time>2022-04-08T13:41:51Z</time>
      </trkpt>
      <trkpt lat="43.47335" lon="6.41402">
        <ele>107</ele>
        <time>2022-04-08T13:41:52Z</time>
      </trkpt>
      <trkpt lat="43.47335" lon="6.41402">
        <ele>107</ele>
        <time>2022-04-08T13:41:53Z</time>
      </trkpt>
      <trkpt lat="43.47334" lon="6.41401">
        <ele>107</ele>
        <time>2022-04-08T13:41:54Z</time>
      </trkpt>
      <trkpt lat="43.47334" lon="6.414">
        <ele>107</ele>
        <time>2022-04-08T13:41:55Z</time>
      </trkpt>
      <trkpt lat="43.47333" lon="6.41399">
        <ele>107</ele>
        <time>2022-04-08T13:41:56Z</time>
      </trkpt>
      <trkpt lat="43.47333" lon="6.41398">
        <ele>107</ele>
        <time>2022-04-08T13:41:57Z</time>
      </trkpt>
      <trkpt lat="43.47333" lon="6.41397">
        <ele>107</ele>
        <time>2022-04-08T13:41:58Z</time>
      </trkpt>
      <trkpt lat="43.47332" lon="6.41396">
        <ele>107</ele>
        <time>2022-04-08T13:41:59Z</time>
      </trkpt>
      <trkpt lat="43.47332" lon="6.41395">
        <ele>107</ele>
        <time>2022-04-08T13:42:00Z</time>
      </trkpt>
      <trkpt lat="43.47332" lon="6.41394">
        <ele>107</ele>
        <time>2022-04-08T13:42:01Z</time>
      </trkpt>
      <trkpt lat="43.47332" lon="6.41393">
        <ele>107</ele>
        <time>2022-04-08T13:42:02Z</time>
      </trkpt>
      <trkpt lat="43.47331" lon="6.41392">
        <ele>107</ele>
        <time>2022-04-08T13:42:03Z</time>
      </trkpt>
      <trkpt lat="43.47331" lon="6.41391">
        <ele>107</ele>
        <time>2022-04-08T13:42:04Z</time>
      </trkpt>
      <trkpt lat="43.47331" lon="6.4139">
        <ele>107</ele>
        <time>2022-04-08T13:42:05Z</time>
      </trkpt>
      <trkpt lat="43.47331" lon="6.41389">
        <ele>107</ele>
        <time>2022-04-08T13:42:06Z</time>
      </trkpt>
      <trkpt lat="43.4733" lon="6.41388">
        <ele>107</ele>
        <time>2022-04-08T13:42:07Z</time>
      </trkpt>
      <trkpt lat="43.4733" lon="6.41386">
        <ele>108</ele>
        <time>2022-04-08T13:42:08Z</time>
      </trkpt>
      <trkpt lat="43.4733" lon="6.41385">
        <ele>108</ele>
        <time>2022-04-08T13:42:09Z</time>
      </trkpt>
      <trkpt lat="43.4733" lon="6.41384">
        <ele>108</ele>
        <time>2022-04-08T13:42:10Z</time>
      </trkpt>
      <trkpt lat="43.47329" lon="6.41383">
        <ele>108</ele>
        <time>2022-04-08T13:42:11Z</time>
      </trkpt>
      <trkpt lat="43.47329" lon="6.41382">
        <ele>108</ele>
        <time>2022-04-08T13:42:12Z</time>
      </trkpt>
      <trkpt lat="43.47329" lon="6.4138">
        <ele>109</ele>
        <time>2022-04-08T13:42:13Z</time>
      </trkpt>
      <trkpt lat="43.47328" lon="6.41379">
        <ele>109</ele>
        <time>2022-04-08T13:42:14Z</time>
      </trkpt>
      <trkpt lat="43.47328" lon="6.41378">
        <ele>109</ele>
        <time>2022-04-08T13:42:15Z</time>
      </trkpt>
      <trkpt lat="43.47328" lon="6.41377">
        <ele>109</ele>
        <time>2022-04-08T13:42:16Z</time>
      </trkpt>
      <trkpt lat="43.47328" lon="6.41375">
        <ele>109</ele>
        <time>2022-04-08T13:42:17Z</time>
      </trkpt>
      <trkpt lat="43.47328" lon="6.41374">
        <ele>109</ele>
        <time>2022-04-08T13:42:18Z</time>
      </trkpt>
      <trkpt lat="43.47327" lon="6.41373">
        <ele>110</ele>
        <time>2022-04-08T13:42:19Z</time>
      </trkpt>
      <trkpt lat="43.47327" lon="6.41372">
        <ele>110</ele>
        <time>2022-04-08T13:42:20Z</time>
      </trkpt>
      <trkpt lat="43.47327" lon="6.41371">
        <ele>110</ele>
        <time>2022-04-08T13:42:21Z</time>
      </trkpt>
      <trkpt lat="43.47327" lon="6.41369">
        <ele>110</ele>
        <time>2022-04-08T13:42:22Z</time>
      </trkpt>
      <trkpt lat="43.47327" lon="6.41368">
        <ele>110</ele>
        <time>2022-04-08T13:42:23Z</time>
      </trkpt>
      <trkpt lat="43.47327" lon="6.41367">
        <ele>110</ele>
        <time>2022-04-08T13:42:24Z</time>
      </trkpt>
      <trkpt lat="43.47326" lon="6.41366">
        <ele>110</ele>
        <time>2022-04-08T13:42:25Z</time>
      </trkpt>
      <trkpt lat="43.47326" lon="6.41364">
        <ele>110</ele>
        <time>2022-04-08T13:42:26Z</time>
      </trkpt>
      <trkpt lat="43.47326" lon="6.41363">
        <ele>110</ele>
        <time>2022-04-08T13:42:27Z</time>
      </trkpt>
      <trkpt lat="43.47326" lon="6.41362">
        <ele>110</ele>
        <time>2022-04-08T13:42:28Z</time>
      </trkpt>
      <trkpt lat="43.47326" lon="6.41361">
        <ele>110</ele>
        <time>2022-04-08T13:42:29Z</time>
      </trkpt>
      <trkpt lat="43.47326" lon="6.4136">
        <ele>111</ele>
        <time>2022-04-08T13:42:30Z</time>
      </trkpt>
      <trkpt lat="43.47326" lon="6.41359">
        <ele>111</ele>
        <time>2022-04-08T13:42:31Z</time>
      </trkpt>
      <trkpt lat="43.47326" lon="6.41357">
        <ele>111</ele>
        <time>2022-04-08T13:42:32Z</time>
      </trkpt>
      <trkpt lat="43.47326" lon="6.41356">
        <ele>111</ele>
        <time>2022-04-08T13:42:33Z</time>
      </trkpt>
      <trkpt lat="43.47326" lon="6.41355">
        <ele>111</ele>
        <time>2022-04-08T13:42:34Z</time>
      </trkpt>
      <trkpt lat="43.47326" lon="6.41354">
        <ele>111</ele>
        <time>2022-04-08T13:42:35Z</time>
      </trkpt>
      <trkpt lat="43.47326" lon="6.41353">
        <ele>111</ele>
        <time>2022-04-08T13:42:36Z</time>
      </trkpt>
      <trkpt lat="43.47326" lon="6.41352">
        <ele>111</ele>
        <time>2022-04-08T13:42:37Z</time>
      </trkpt>
      <trkpt lat="43.47326" lon="6.41351">
        <ele>111</ele>
        <time>2022-04-08T13:42:38Z</time>
      </trkpt>
      <trkpt lat="43.47326" lon="6.4135">
        <ele>111</ele>
        <time>2022-04-08T13:42:39Z</time>
      </trkpt>
      <trkpt lat="43.47327" lon="6.41349">
        <ele>111</ele>
        <time>2022-04-08T13:42:40Z</time>
      </trkpt>
      <trkpt lat="43.47327" lon="6.41348">
        <ele>111</ele>
        <time>2022-04-08T13:42:41Z</time>
      </trkpt>
      <trkpt lat="43.47327" lon="6.41347">
        <ele>112</ele>
        <time>2022-04-08T13:42:42Z</time>
      </trkpt>
      <trkpt lat="43.47327" lon="6.41346">
        <ele>112</ele>
        <time>2022-04-08T13:42:43Z</time>
      </trkpt>
      <trkpt lat="43.47327" lon="6.41345">
        <ele>112</ele>
        <time>2022-04-08T13:42:44Z</time>
      </trkpt>
      <trkpt lat="43.47327" lon="6.41344">
        <ele>112</ele>
        <time>2022-04-08T13:42:45Z</time>
      </trkpt>
      <trkpt lat="43.47327" lon="6.41343">
        <ele>112</ele>
        <time>2022-04-08T13:42:46Z</time>
      </trkpt>
      <trkpt lat="43.47327" lon="6.41342">
        <ele>112</ele>
        <time>2022-04-08T13:42:47Z</time>
      </trkpt>
      <trkpt lat="43.47327" lon="6.41341">
        <ele>112</ele>
        <time>2022-04-08T13:42:48Z</time>
      </trkpt>
      <trkpt lat="43.47327" lon="6.4134">
        <ele>113</ele>
        <time>2022-04-08T13:42:49Z</time>
      </trkpt>
      <trkpt lat="43.47327" lon="6.41339">
        <ele>113</ele>
        <time>2022-04-08T13:42:50Z</time>
      </trkpt>
      <trkpt lat="43.47327" lon="6.41338">
        <ele>113</ele>
        <time>2022-04-08T13:42:51Z</time>
      </trkpt>
      <trkpt lat="43.47327" lon="6.41337">
        <ele>113</ele>
        <time>2022-04-08T13:42:52Z</time>
      </trkpt>
      <trkpt lat="43.47328" lon="6.41336">
        <ele>113</ele>
        <time>2022-04-08T13:42:53Z</time>
      </trkpt>
      <trkpt lat="43.47328" lon="6.41335">
        <ele>113</ele>
        <time>2022-04-08T13:42:54Z</time>
      </trkpt>
      <trkpt lat="43.47328" lon="6.41334">
        <ele>113</ele>
        <time>2022-04-08T13:42:55Z</time>
      </trkpt>
      <trkpt lat="43.47328" lon="6.41333">
        <ele>114</ele>
        <time>2022-04-08T13:42:56Z</time>
      </trkpt>
      <trkpt lat="43.47329" lon="6.41332">
        <ele>114</ele>
        <time>2022-04-08T13:42:57Z</time>
      </trkpt>
      <trkpt lat="43.47329" lon="6.41331">
        <ele>114</ele>
        <time>2022-04-08T13:42:58Z</time>
      </trkpt>
      <trkpt lat="43.47329" lon="6.4133">
        <ele>114</ele>
        <time>2022-04-08T13:42:59Z</time>
      </trkpt>
      <trkpt lat="43.47329" lon="6.41328">
        <ele>114</ele>
        <time>2022-04-08T13:43:00Z</time>
      </trkpt>
      <trkpt lat="43.47329" lon="6.41327">
        <ele>114</ele>
        <time>2022-04-08T13:43:01Z</time>
      </trkpt>
      <trkpt lat="43.4733" lon="6.41326">
        <ele>116</ele>
        <time>2022-04-08T13:43:02Z</time>
      </trkpt>
      <trkpt lat="43.4733" lon="6.41325">
        <ele>116</ele>
        <time>2022-04-08T13:43:03Z</time>
      </trkpt>
      <trkpt lat="43.4733" lon="6.41325">
        <ele>116</ele>
        <time>2022-04-08T13:43:04Z</time>
      </trkpt>
      <trkpt lat="43.4733" lon="6.41324">
        <ele>116</ele>
        <time>2022-04-08T13:43:05Z</time>
      </trkpt>
      <trkpt lat="43.47331" lon="6.41323">
        <ele>116</ele>
        <time>2022-04-08T13:43:06Z</time>
      </trkpt>
      <trkpt lat="43.47331" lon="6.41322">
        <ele>117</ele>
        <time>2022-04-08T13:43:07Z</time>
      </trkpt>
      <trkpt lat="43.47331" lon="6.41321">
        <ele>117</ele>
        <time>2022-04-08T13:43:08Z</time>
      </trkpt>
      <trkpt lat="43.47331" lon="6.41321">
        <ele>117</ele>
        <time>2022-04-08T13:43:09Z</time>
      </trkpt>
      <trkpt lat="43.47331" lon="6.4132">
        <ele>117</ele>
        <time>2022-04-08T13:43:10Z</time>
      </trkpt>
      <trkpt lat="43.47331" lon="6.41319">
        <ele>117</ele>
        <time>2022-04-08T13:43:11Z</time>
      </trkpt>
      <trkpt lat="43.47331" lon="6.41318">
        <ele>117</ele>
        <time>2022-04-08T13:43:12Z</time>
      </trkpt>
      <trkpt lat="43.47331" lon="6.41317">
        <ele>117</ele>
        <time>2022-04-08T13:43:13Z</time>
      </trkpt>
      <trkpt lat="43.47332" lon="6.41317">
        <ele>117</ele>
        <time>2022-04-08T13:43:14Z</time>
      </trkpt>
      <trkpt lat="43.47332" lon="6.41316">
        <ele>117</ele>
        <time>2022-04-08T13:43:15Z</time>
      </trkpt>
      <trkpt lat="43.47332" lon="6.41316">
        <ele>117</ele>
        <time>2022-04-08T13:43:16Z</time>
      </trkpt>
      <trkpt lat="43.47332" lon="6.41316">
        <ele>117</ele>
        <time>2022-04-08T13:43:17Z</time>
      </trkpt>
      <trkpt lat="43.47331" lon="6.41317">
        <ele>117</ele>
        <time>2022-04-08T13:43:18Z</time>
      </trkpt>
      <trkpt lat="43.47331" lon="6.41317">
        <ele>117</ele>
        <time>2022-04-08T13:43:19Z</time>
      </trkpt>
      <trkpt lat="43.47331" lon="6.41317">
        <ele>117</ele>
        <time>2022-04-08T13:43:20Z</time>
      </trkpt>
      <trkpt lat="43.47331" lon="6.41318">
        <ele>117</ele>
        <time>2022-04-08T13:43:21Z</time>
      </trkpt>
      <trkpt lat="43.47331" lon="6.41318">
        <ele>117</ele>
        <time>2022-04-08T13:43:22Z</time>
      </trkpt>
      <trkpt lat="43.47331" lon="6.41318">
        <ele>117</ele>
        <time>2022-04-08T13:43:23Z</time>
      </trkpt>
      <trkpt lat="43.47331" lon="6.41318">
        <ele>117</ele>
        <time>2022-04-08T13:43:24Z</time>
      </trkpt>
      <trkpt lat="43.47332" lon="6.41318">
        <ele>117</ele>
        <time>2022-04-08T13:43:25Z</time>
      </trkpt>
      <trkpt lat="43.47332" lon="6.41318">
        <ele>117</ele>
        <time>2022-04-08T13:43:26Z</time>
      </trkpt>
      <trkpt lat="43.47333" lon="6.41317">
        <ele>117</ele>
        <time>2022-04-08T13:43:27Z</time>
      </trkpt>
      <trkpt lat="43.47333" lon="6.41316">
        <ele>117</ele>
        <time>2022-04-08T13:43:28Z</time>
      </trkpt>
      <trkpt lat="43.47334" lon="6.41315">
        <ele>117</ele>
        <time>2022-04-08T13:43:29Z</time>
      </trkpt>
      <trkpt lat="43.47334" lon="6.41313">
        <ele>117</ele>
        <time>2022-04-08T13:43:30Z</time>
      </trkpt>
      <trkpt lat="43.47335" lon="6.41313">
        <ele>116</ele>
        <time>2022-04-08T13:43:31Z</time>
      </trkpt>
      <trkpt lat="43.47335" lon="6.41312">
        <ele>116</ele>
        <time>2022-04-08T13:43:32Z</time>
      </trkpt>
      <trkpt lat="43.47335" lon="6.41312">
        <ele>116</ele>
        <time>2022-04-08T13:43:33Z</time>
      </trkpt>
      <trkpt lat="43.47335" lon="6.41311">
        <ele>116</ele>
        <time>2022-04-08T13:43:34Z</time>
      </trkpt>
      <trkpt lat="43.47335" lon="6.41311">
        <ele>116</ele>
        <time>2022-04-08T13:43:35Z</time>
      </trkpt>
      <trkpt lat="43.47335" lon="6.41311">
        <ele>116</ele>
        <time>2022-04-08T13:43:36Z</time>
      </trkpt>
      <trkpt lat="43.47335" lon="6.4131">
        <ele>116</ele>
        <time>2022-04-08T13:43:37Z</time>
      </trkpt>
      <trkpt lat="43.47335" lon="6.41309">
        <ele>116</ele>
        <time>2022-04-08T13:43:38Z</time>
      </trkpt>
      <trkpt lat="43.47336" lon="6.41307">
        <ele>116</ele>
        <time>2022-04-08T13:43:39Z</time>
      </trkpt>
      <trkpt lat="43.47336" lon="6.41304">
        <ele>116</ele>
        <time>2022-04-08T13:43:40Z</time>
      </trkpt>
      <trkpt lat="43.47337" lon="6.41301">
        <ele>116</ele>
        <time>2022-04-08T13:43:41Z</time>
      </trkpt>
      <trkpt lat="43.47337" lon="6.413">
        <ele>116</ele>
        <time>2022-04-08T13:43:42Z</time>
      </trkpt>
      <trkpt lat="43.47338" lon="6.41299">
        <ele>116</ele>
        <time>2022-04-08T13:43:43Z</time>
      </trkpt>
      <trkpt lat="43.47338" lon="6.41298">
        <ele>116</ele>
        <time>2022-04-08T13:43:44Z</time>
      </trkpt>
      <trkpt lat="43.47338" lon="6.41297">
        <ele>116</ele>
        <time>2022-04-08T13:43:45Z</time>
      </trkpt>
      <trkpt lat="43.47339" lon="6.41295">
        <ele>116</ele>
        <time>2022-04-08T13:43:46Z</time>
      </trkpt>
      <trkpt lat="43.47339" lon="6.41294">
        <ele>116</ele>
        <time>2022-04-08T13:43:47Z</time>
      </trkpt>
      <trkpt lat="43.4734" lon="6.41294">
        <ele>116</ele>
        <time>2022-04-08T13:43:48Z</time>
      </trkpt>
      <trkpt lat="43.4734" lon="6.41293">
        <ele>116</ele>
        <time>2022-04-08T13:43:49Z</time>
      </trkpt>
      <trkpt lat="43.4734" lon="6.41292">
        <ele>116</ele>
        <time>2022-04-08T13:43:50Z</time>
      </trkpt>
      <trkpt lat="43.47341" lon="6.4129">
        <ele>115</ele>
        <time>2022-04-08T13:43:51Z</time>
      </trkpt>
      <trkpt lat="43.47341" lon="6.41289">
        <ele>115</ele>
        <time>2022-04-08T13:43:52Z</time>
      </trkpt>
      <trkpt lat="43.47341" lon="6.41288">
        <ele>115</ele>
        <time>2022-04-08T13:43:53Z</time>
      </trkpt>
      <trkpt lat="43.47342" lon="6.41288">
        <ele>116</ele>
        <time>2022-04-08T13:43:54Z</time>
      </trkpt>
      <trkpt lat="43.47342" lon="6.41287">
        <ele>116</ele>
        <time>2022-04-08T13:43:55Z</time>
      </trkpt>
      <trkpt lat="43.47342" lon="6.41285">
        <ele>116</ele>
        <time>2022-04-08T13:43:56Z</time>
      </trkpt>
      <trkpt lat="43.47343" lon="6.41283">
        <ele>116</ele>
        <time>2022-04-08T13:43:57Z</time>
      </trkpt>
      <trkpt lat="43.47343" lon="6.41282">
        <ele>116</ele>
        <time>2022-04-08T13:43:58Z</time>
      </trkpt>
      <trkpt lat="43.47343" lon="6.41281">
        <ele>116</ele>
        <time>2022-04-08T13:43:59Z</time>
      </trkpt>
      <trkpt lat="43.47344" lon="6.4128">
        <ele>116</ele>
        <time>2022-04-08T13:44:00Z</time>
      </trkpt>
      <trkpt lat="43.47344" lon="6.41279">
        <ele>116</ele>
        <time>2022-04-08T13:44:01Z</time>
      </trkpt>
      <trkpt lat="43.47344" lon="6.41278">
        <ele>116</ele>
        <time>2022-04-08T13:44:02Z</time>
      </trkpt>
      <trkpt lat="43.47345" lon="6.41277">
        <ele>116</ele>
        <time>2022-04-08T13:44:03Z</time>
      </trkpt>
      <trkpt lat="43.47345" lon="6.41276">
        <ele>116</ele>
        <time>2022-04-08T13:44:04Z</time>
      </trkpt>
      <trkpt lat="43.47345" lon="6.41275">
        <ele>116</ele>
        <time>2022-04-08T13:44:05Z</time>
      </trkpt>
      <trkpt lat="43.47346" lon="6.41274">
        <ele>116</ele>
        <time>2022-04-08T13:44:06Z</time>
      </trkpt>
      <trkpt lat="43.47346" lon="6.41273">
        <ele>116</ele>
        <time>2022-04-08T13:44:07Z</time>
      </trkpt>
      <trkpt lat="43.47346" lon="6.41272">
        <ele>117</ele>
        <time>2022-04-08T13:44:08Z</time>
      </trkpt>
      <trkpt lat="43.47346" lon="6.41271">
        <ele>117</ele>
        <time>2022-04-08T13:44:09Z</time>
      </trkpt>
      <trkpt lat="43.47347" lon="6.41271">
        <ele>117</ele>
        <time>2022-04-08T13:44:10Z</time>
      </trkpt>
      <trkpt lat="43.47347" lon="6.41271">
        <ele>117</ele>
        <time>2022-04-08T13:44:11Z</time>
      </trkpt>
      <trkpt lat="43.47347" lon="6.41271">
        <ele>117</ele>
        <time>2022-04-08T13:44:12Z</time>
      </trkpt>
      <trkpt lat="43.47347" lon="6.4127">
        <ele>117</ele>
        <time>2022-04-08T13:44:13Z</time>
      </trkpt>
      <trkpt lat="43.47348" lon="6.41269">
        <ele>117</ele>
        <time>2022-04-08T13:44:14Z</time>
      </trkpt>
      <trkpt lat="43.47348" lon="6.41268">
        <ele>117</ele>
        <time>2022-04-08T13:44:15Z</time>
      </trkpt>
      <trkpt lat="43.47349" lon="6.41268">
        <ele>117</ele>
        <time>2022-04-08T13:44:16Z</time>
      </trkpt>
      <trkpt lat="43.47349" lon="6.41267">
        <ele>117</ele>
        <time>2022-04-08T13:44:17Z</time>
      </trkpt>
      <trkpt lat="43.4735" lon="6.41267">
        <ele>117</ele>
        <time>2022-04-08T13:44:18Z</time>
      </trkpt>
      <trkpt lat="43.47351" lon="6.41266">
        <ele>117</ele>
        <time>2022-04-08T13:44:19Z</time>
      </trkpt>
      <trkpt lat="43.47351" lon="6.41265">
        <ele>117</ele>
        <time>2022-04-08T13:44:20Z</time>
      </trkpt>
      <trkpt lat="43.47351" lon="6.41265">
        <ele>117</ele>
        <time>2022-04-08T13:44:21Z</time>
      </trkpt>
      <trkpt lat="43.47351" lon="6.41265">
        <ele>117</ele>
        <time>2022-04-08T13:44:22Z</time>
      </trkpt>
      <trkpt lat="43.47352" lon="6.41265">
        <ele>117</ele>
        <time>2022-04-08T13:44:23Z</time>
      </trkpt>
      <trkpt lat="43.47352" lon="6.41264">
        <ele>117</ele>
        <time>2022-04-08T13:44:24Z</time>
      </trkpt>
      <trkpt lat="43.47354" lon="6.41263">
        <ele>117</ele>
        <time>2022-04-08T13:44:25Z</time>
      </trkpt>
      <trkpt lat="43.47355" lon="6.41262">
        <ele>117</ele>
        <time>2022-04-08T13:44:26Z</time>
      </trkpt>
      <trkpt lat="43.47356" lon="6.41261">
        <ele>117</ele>
        <time>2022-04-08T13:44:27Z</time>
      </trkpt>
      <trkpt lat="43.47357" lon="6.41261">
        <ele>117</ele>
        <time>2022-04-08T13:44:28Z</time>
      </trkpt>
      <trkpt lat="43.47358" lon="6.4126">
        <ele>117</ele>
        <time>2022-04-08T13:44:29Z</time>
      </trkpt>
      <trkpt lat="43.47358" lon="6.4126">
        <ele>117</ele>
        <time>2022-04-08T13:44:30Z</time>
      </trkpt>
      <trkpt lat="43.47358" lon="6.4126">
        <ele>117</ele>
        <time>2022-04-08T13:44:31Z</time>
      </trkpt>
      <trkpt lat="43.47359" lon="6.4126">
        <ele>117</ele>
        <time>2022-04-08T13:44:32Z</time>
      </trkpt>
      <trkpt lat="43.47359" lon="6.4126">
        <ele>117</ele>
        <time>2022-04-08T13:44:33Z</time>
      </trkpt>
      <trkpt lat="43.47359" lon="6.41259">
        <ele>118</ele>
        <time>2022-04-08T13:44:34Z</time>
      </trkpt>
      <trkpt lat="43.4736" lon="6.41259">
        <ele>118</ele>
        <time>2022-04-08T13:44:35Z</time>
      </trkpt>
      <trkpt lat="43.47361" lon="6.41258">
        <ele>118</ele>
        <time>2022-04-08T13:44:36Z</time>
      </trkpt>
      <trkpt lat="43.47362" lon="6.41257">
        <ele>118</ele>
        <time>2022-04-08T13:44:37Z</time>
      </trkpt>
      <trkpt lat="43.47363" lon="6.41256">
        <ele>118</ele>
        <time>2022-04-08T13:44:38Z</time>
      </trkpt>
      <trkpt lat="43.47365" lon="6.41255">
        <ele>118</ele>
        <time>2022-04-08T13:44:39Z</time>
      </trkpt>
      <trkpt lat="43.47366" lon="6.41254">
        <ele>118</ele>
        <time>2022-04-08T13:44:40Z</time>
      </trkpt>
      <trkpt lat="43.47366" lon="6.41253">
        <ele>118</ele>
        <time>2022-04-08T13:44:41Z</time>
      </trkpt>
      <trkpt lat="43.47367" lon="6.41252">
        <ele>118</ele>
        <time>2022-04-08T13:44:42Z</time>
      </trkpt>
      <trkpt lat="43.47368" lon="6.41252">
        <ele>118</ele>
        <time>2022-04-08T13:44:43Z</time>
      </trkpt>
      <trkpt lat="43.47368" lon="6.41251">
        <ele>118</ele>
        <time>2022-04-08T13:44:44Z</time>
      </trkpt>
      <trkpt lat="43.47368" lon="6.41251">
        <ele>118</ele>
        <time>2022-04-08T13:44:45Z</time>
      </trkpt>
      <trkpt lat="43.47369" lon="6.4125">
        <ele>118</ele>
        <time>2022-04-08T13:44:46Z</time>
      </trkpt>
      <trkpt lat="43.47369" lon="6.4125">
        <ele>118</ele>
        <time>2022-04-08T13:44:47Z</time>
      </trkpt>
      <trkpt lat="43.4737" lon="6.41249">
        <ele>118</ele>
        <time>2022-04-08T13:44:48Z</time>
      </trkpt>
      <trkpt lat="43.4737" lon="6.41248">
        <ele>118</ele>
        <time>2022-04-08T13:44:49Z</time>
      </trkpt>
      <trkpt lat="43.47371" lon="6.41247">
        <ele>118</ele>
        <time>2022-04-08T13:44:50Z</time>
      </trkpt>
      <trkpt lat="43.47372" lon="6.41246">
        <ele>118</ele>
        <time>2022-04-08T13:44:51Z</time>
      </trkpt>
      <trkpt lat="43.47373" lon="6.41245">
        <ele>118</ele>
        <time>2022-04-08T13:44:52Z</time>
      </trkpt>
      <trkpt lat="43.47374" lon="6.41243">
        <ele>118</ele>
        <time>2022-04-08T13:44:53Z</time>
      </trkpt>
      <trkpt lat="43.47375" lon="6.41241">
        <ele>119</ele>
        <time>2022-04-08T13:44:54Z</time>
      </trkpt>
      <trkpt lat="43.47377" lon="6.4124">
        <ele>120</ele>
        <time>2022-04-08T13:44:55Z</time>
      </trkpt>
      <trkpt lat="43.47378" lon="6.41238">
        <ele>120</ele>
        <time>2022-04-08T13:44:56Z</time>
      </trkpt>
      <trkpt lat="43.4738" lon="6.41236">
        <ele>120</ele>
        <time>2022-04-08T13:44:57Z</time>
      </trkpt>
      <trkpt lat="43.47381" lon="6.41235">
        <ele>120</ele>
        <time>2022-04-08T13:44:58Z</time>
      </trkpt>
      <trkpt lat="43.47382" lon="6.41233">
        <ele>120</ele>
        <time>2022-04-08T13:44:59Z</time>
      </trkpt>
      <trkpt lat="43.47383" lon="6.41232">
        <ele>120</ele>
        <time>2022-04-08T13:45:00Z</time>
      </trkpt>
      <trkpt lat="43.47384" lon="6.41231">
        <ele>120</ele>
        <time>2022-04-08T13:45:01Z</time>
      </trkpt>
      <trkpt lat="43.47385" lon="6.4123">
        <ele>120</ele>
        <time>2022-04-08T13:45:02Z</time>
      </trkpt>
      <trkpt lat="43.47386" lon="6.41229">
        <ele>120</ele>
        <time>2022-04-08T13:45:03Z</time>
      </trkpt>
      <trkpt lat="43.47387" lon="6.41228">
        <ele>120</ele>
        <time>2022-04-08T13:45:04Z</time>
      </trkpt>
      <trkpt lat="43.47388" lon="6.41227">
        <ele>120</ele>
        <time>2022-04-08T13:45:05Z</time>
      </trkpt>
      <trkpt lat="43.47389" lon="6.41226">
        <ele>120</ele>
        <time>2022-04-08T13:45:06Z</time>
      </trkpt>
      <trkpt lat="43.4739" lon="6.41225">
        <ele>120</ele>
        <time>2022-04-08T13:45:07Z</time>
      </trkpt>
      <trkpt lat="43.47391" lon="6.41224">
        <ele>121</ele>
        <time>2022-04-08T13:45:08Z</time>
      </trkpt>
      <trkpt lat="43.47391" lon="6.41223">
        <ele>121</ele>
        <time>2022-04-08T13:45:09Z</time>
      </trkpt>
      <trkpt lat="43.47392" lon="6.41222">
        <ele>121</ele>
        <time>2022-04-08T13:45:10Z</time>
      </trkpt>
      <trkpt lat="43.47393" lon="6.41221">
        <ele>121</ele>
        <time>2022-04-08T13:45:11Z</time>
      </trkpt>
      <trkpt lat="43.47394" lon="6.4122">
        <ele>121</ele>
        <time>2022-04-08T13:45:12Z</time>
      </trkpt>
      <trkpt lat="43.47395" lon="6.4122">
        <ele>122</ele>
        <time>2022-04-08T13:45:13Z</time>
      </trkpt>
      <trkpt lat="43.47396" lon="6.41219">
        <ele>122</ele>
        <time>2022-04-08T13:45:14Z</time>
      </trkpt>
      <trkpt lat="43.47397" lon="6.41218">
        <ele>122</ele>
        <time>2022-04-08T13:45:15Z</time>
      </trkpt>
      <trkpt lat="43.47398" lon="6.41218">
        <ele>122</ele>
        <time>2022-04-08T13:45:16Z</time>
      </trkpt>
      <trkpt lat="43.47399" lon="6.41217">
        <ele>122</ele>
        <time>2022-04-08T13:45:17Z</time>
      </trkpt>
      <trkpt lat="43.474" lon="6.41216">
        <ele>122</ele>
        <time>2022-04-08T13:45:18Z</time>
      </trkpt>
      <trkpt lat="43.47401" lon="6.41216">
        <ele>122</ele>
        <time>2022-04-08T13:45:19Z</time>
      </trkpt>
      <trkpt lat="43.47402" lon="6.41215">
        <ele>122</ele>
        <time>2022-04-08T13:45:20Z</time>
      </trkpt>
      <trkpt lat="43.47403" lon="6.41214">
        <ele>122</ele>
        <time>2022-04-08T13:45:21Z</time>
      </trkpt>
      <trkpt lat="43.47404" lon="6.41213">
        <ele>122</ele>
        <time>2022-04-08T13:45:22Z</time>
      </trkpt>
      <trkpt lat="43.47405" lon="6.41213">
        <ele>122</ele>
        <time>2022-04-08T13:45:23Z</time>
      </trkpt>
      <trkpt lat="43.47405" lon="6.41212">
        <ele>122</ele>
        <time>2022-04-08T13:45:24Z</time>
      </trkpt>
      <trkpt lat="43.47406" lon="6.41211">
        <ele>122</ele>
        <time>2022-04-08T13:45:25Z</time>
      </trkpt>
      <trkpt lat="43.47407" lon="6.41211">
        <ele>122</ele>
        <time>2022-04-08T13:45:26Z</time>
      </trkpt>
      <trkpt lat="43.47408" lon="6.4121">
        <ele>122</ele>
        <time>2022-04-08T13:45:27Z</time>
      </trkpt>
      <trkpt lat="43.47409" lon="6.4121">
        <ele>122</ele>
        <time>2022-04-08T13:45:28Z</time>
      </trkpt>
      <trkpt lat="43.47409" lon="6.41209">
        <ele>122</ele>
        <time>2022-04-08T13:45:29Z</time>
      </trkpt>
      <trkpt lat="43.4741" lon="6.41209">
        <ele>122</ele>
        <time>2022-04-08T13:45:30Z</time>
      </trkpt>
      <trkpt lat="43.47411" lon="6.41208">
        <ele>122</ele>
        <time>2022-04-08T13:45:31Z</time>
      </trkpt>
      <trkpt lat="43.47412" lon="6.41208">
        <ele>122</ele>
        <time>2022-04-08T13:45:32Z</time>
      </trkpt>
      <trkpt lat="43.47413" lon="6.41207">
        <ele>122</ele>
        <time>2022-04-08T13:45:33Z</time>
      </trkpt>
      <trkpt lat="43.47414" lon="6.41207">
        <ele>122</ele>
        <time>2022-04-08T13:45:34Z</time>
      </trkpt>
      <trkpt lat="43.47415" lon="6.41206">
        <ele>122</ele>
        <time>2022-04-08T13:45:35Z</time>
      </trkpt>
      <trkpt lat="43.47416" lon="6.41206">
        <ele>122</ele>
        <time>2022-04-08T13:45:36Z</time>
      </trkpt>
      <trkpt lat="43.47416" lon="6.41206">
        <ele>121</ele>
        <time>2022-04-08T13:45:37Z</time>
      </trkpt>
      <trkpt lat="43.47417" lon="6.41206">
        <ele>121</ele>
        <time>2022-04-08T13:45:38Z</time>
      </trkpt>
      <trkpt lat="43.47418" lon="6.41205">
        <ele>121</ele>
        <time>2022-04-08T13:45:39Z</time>
      </trkpt>
      <trkpt lat="43.47419" lon="6.41205">
        <ele>121</ele>
        <time>2022-04-08T13:45:40Z</time>
      </trkpt>
      <trkpt lat="43.4742" lon="6.41205">
        <ele>121</ele>
        <time>2022-04-08T13:45:41Z</time>
      </trkpt>
      <trkpt lat="43.47421" lon="6.41205">
        <ele>121</ele>
        <time>2022-04-08T13:45:42Z</time>
      </trkpt>
      <trkpt lat="43.47421" lon="6.41204">
        <ele>120</ele>
        <time>2022-04-08T13:45:43Z</time>
      </trkpt>
      <trkpt lat="43.47422" lon="6.41204">
        <ele>120</ele>
        <time>2022-04-08T13:45:44Z</time>
      </trkpt>
      <trkpt lat="43.47423" lon="6.41203">
        <ele>120</ele>
        <time>2022-04-08T13:45:45Z</time>
      </trkpt>
      <trkpt lat="43.47424" lon="6.41203">
        <ele>120</ele>
        <time>2022-04-08T13:45:46Z</time>
      </trkpt>
      <trkpt lat="43.47425" lon="6.41202">
        <ele>120</ele>
        <time>2022-04-08T13:45:47Z</time>
      </trkpt>
      <trkpt lat="43.47426" lon="6.41202">
        <ele>120</ele>
        <time>2022-04-08T13:45:48Z</time>
      </trkpt>
      <trkpt lat="43.47427" lon="6.41201">
        <ele>119</ele>
        <time>2022-04-08T13:45:49Z</time>
      </trkpt>
      <trkpt lat="43.47428" lon="6.41201">
        <ele>119</ele>
        <time>2022-04-08T13:45:50Z</time>
      </trkpt>
      <trkpt lat="43.47428" lon="6.412">
        <ele>119</ele>
        <time>2022-04-08T13:45:51Z</time>
      </trkpt>
      <trkpt lat="43.47429" lon="6.41199">
        <ele>119</ele>
        <time>2022-04-08T13:45:52Z</time>
      </trkpt>
      <trkpt lat="43.4743" lon="6.41199">
        <ele>119</ele>
        <time>2022-04-08T13:45:53Z</time>
      </trkpt>
      <trkpt lat="43.47431" lon="6.41198">
        <ele>119</ele>
        <time>2022-04-08T13:45:54Z</time>
      </trkpt>
      <trkpt lat="43.47432" lon="6.41198">
        <ele>119</ele>
        <time>2022-04-08T13:45:55Z</time>
      </trkpt>
      <trkpt lat="43.47433" lon="6.41197">
        <ele>119</ele>
        <time>2022-04-08T13:45:56Z</time>
      </trkpt>
      <trkpt lat="43.47433" lon="6.41197">
        <ele>119</ele>
        <time>2022-04-08T13:45:57Z</time>
      </trkpt>
      <trkpt lat="43.47434" lon="6.41196">
        <ele>119</ele>
        <time>2022-04-08T13:45:58Z</time>
      </trkpt>
      <trkpt lat="43.47435" lon="6.41196">
        <ele>119</ele>
        <time>2022-04-08T13:45:59Z</time>
      </trkpt>
      <trkpt lat="43.47436" lon="6.41195">
        <ele>119</ele>
        <time>2022-04-08T13:46:00Z</time>
      </trkpt>
      <trkpt lat="43.47436" lon="6.41195">
        <ele>119</ele>
        <time>2022-04-08T13:46:01Z</time>
      </trkpt>
      <trkpt lat="43.47437" lon="6.41195">
        <ele>119</ele>
        <time>2022-04-08T13:46:02Z</time>
      </trkpt>
      <trkpt lat="43.47438" lon="6.41195">
        <ele>119</ele>
        <time>2022-04-08T13:46:03Z</time>
      </trkpt>
      <trkpt lat="43.47439" lon="6.41194">
        <ele>119</ele>
        <time>2022-04-08T13:46:04Z</time>
      </trkpt>
      <trkpt lat="43.47439" lon="6.41194">
        <ele>119</ele>
        <time>2022-04-08T13:46:05Z</time>
      </trkpt>
      <trkpt lat="43.4744" lon="6.41194">
        <ele>119</ele>
        <time>2022-04-08T13:46:06Z</time>
      </trkpt>
      <trkpt lat="43.47441" lon="6.41195">
        <ele>119</ele>
        <time>2022-04-08T13:46:07Z</time>
      </trkpt>
      <trkpt lat="43.47442" lon="6.41195">
        <ele>119</ele>
        <time>2022-04-08T13:46:08Z</time>
      </trkpt>
      <trkpt lat="43.47443" lon="6.41195">
        <ele>119</ele>
        <time>2022-04-08T13:46:09Z</time>
      </trkpt>
      <trkpt lat="43.47444" lon="6.41195">
        <ele>119</ele>
        <time>2022-04-08T13:46:10Z</time>
      </trkpt>
      <trkpt lat="43.47445" lon="6.41195">
        <ele>119</ele>
        <time>2022-04-08T13:46:11Z</time>
      </trkpt>
      <trkpt lat="43.47446" lon="6.41195">
        <ele>119</ele>
        <time>2022-04-08T13:46:12Z</time>
      </trkpt>
      <trkpt lat="43.47447" lon="6.41196">
        <ele>119</ele>
        <time>2022-04-08T13:46:13Z</time>
      </trkpt>
      <trkpt lat="43.47449" lon="6.41196">
        <ele>120</ele>
        <time>2022-04-08T13:46:14Z</time>
      </trkpt>
      <trkpt lat="43.4745" lon="6.41196">
        <ele>120</ele>
        <time>2022-04-08T13:46:15Z</time>
      </trkpt>
      <trkpt lat="43.47451" lon="6.41196">
        <ele>120</ele>
        <time>2022-04-08T13:46:16Z</time>
      </trkpt>
      <trkpt lat="43.47452" lon="6.41196">
        <ele>120</ele>
        <time>2022-04-08T13:46:17Z</time>
      </trkpt>
      <trkpt lat="43.47453" lon="6.41196">
        <ele>120</ele>
        <time>2022-04-08T13:46:18Z</time>
      </trkpt>
      <trkpt lat="43.47454" lon="6.41197">
        <ele>120</ele>
        <time>2022-04-08T13:46:19Z</time>
      </trkpt>
      <trkpt lat="43.47455" lon="6.41197">
        <ele>120</ele>
        <time>2022-04-08T13:46:20Z</time>
      </trkpt>
      <trkpt lat="43.47455" lon="6.41197">
        <ele>120</ele>
        <time>2022-04-08T13:46:21Z</time>
      </trkpt>
      <trkpt lat="43.47456" lon="6.41198">
        <ele>120</ele>
        <time>2022-04-08T13:46:22Z</time>
      </trkpt>
      <trkpt lat="43.47457" lon="6.41198">
        <ele>120</ele>
        <time>2022-04-08T13:46:23Z</time>
      </trkpt>
      <trkpt lat="43.47459" lon="6.41198">
        <ele>120</ele>
        <time>2022-04-08T13:46:24Z</time>
      </trkpt>
      <trkpt lat="43.4746" lon="6.41198">
        <ele>120</ele>
        <time>2022-04-08T13:46:25Z</time>
      </trkpt>
      <trkpt lat="43.47461" lon="6.41198">
        <ele>120</ele>
        <time>2022-04-08T13:46:26Z</time>
      </trkpt>
      <trkpt lat="43.47462" lon="6.41198">
        <ele>120</ele>
        <time>2022-04-08T13:46:27Z</time>
      </trkpt>
      <trkpt lat="43.47463" lon="6.41198">
        <ele>120</ele>
        <time>2022-04-08T13:46:28Z</time>
      </trkpt>
      <trkpt lat="43.47464" lon="6.41198">
        <ele>120</ele>
        <time>2022-04-08T13:46:29Z</time>
      </trkpt>
      <trkpt lat="43.47465" lon="6.41198">
        <ele>120</ele>
        <time>2022-04-08T13:46:30Z</time>
      </trkpt>
      <trkpt lat="43.47466" lon="6.41198">
        <ele>120</ele>
        <time>2022-04-08T13:46:31Z</time>
      </trkpt>
      <trkpt lat="43.47467" lon="6.41199">
        <ele>120</ele>
        <time>2022-04-08T13:46:32Z</time>
      </trkpt>
      <trkpt lat="43.47468" lon="6.41199">
        <ele>120</ele>
        <time>2022-04-08T13:46:33Z</time>
      </trkpt>
      <trkpt lat="43.47468" lon="6.41199">
        <ele>120</ele>
        <time>2022-04-08T13:46:34Z</time>
      </trkpt>
      <trkpt lat="43.47469" lon="6.41199">
        <ele>120</ele>
        <time>2022-04-08T13:46:35Z</time>
      </trkpt>
      <trkpt lat="43.4747" lon="6.41199">
        <ele>120</ele>
        <time>2022-04-08T13:46:36Z</time>
      </trkpt>
      <trkpt lat="43.47471" lon="6.41199">
        <ele>120</ele>
        <time>2022-04-08T13:46:37Z</time>
      </trkpt>
      <trkpt lat="43.47472" lon="6.41199">
        <ele>120</ele>
        <time>2022-04-08T13:46:38Z</time>
      </trkpt>
      <trkpt lat="43.47473" lon="6.41199">
        <ele>121</ele>
        <time>2022-04-08T13:46:39Z</time>
      </trkpt>
      <trkpt lat="43.47474" lon="6.41199">
        <ele>121</ele>
        <time>2022-04-08T13:46:40Z</time>
      </trkpt>
      <trkpt lat="43.47475" lon="6.41199">
        <ele>121</ele>
        <time>2022-04-08T13:46:41Z</time>
      </trkpt>
      <trkpt lat="43.47476" lon="6.41199">
        <ele>121</ele>
        <time>2022-04-08T13:46:42Z</time>
      </trkpt>
      <trkpt lat="43.47477" lon="6.41199">
        <ele>121</ele>
        <time>2022-04-08T13:46:43Z</time>
      </trkpt>
      <trkpt lat="43.47478" lon="6.41199">
        <ele>122</ele>
        <time>2022-04-08T13:46:44Z</time>
      </trkpt>
      <trkpt lat="43.47478" lon="6.41199">
        <ele>122</ele>
        <time>2022-04-08T13:46:45Z</time>
      </trkpt>
      <trkpt lat="43.47479" lon="6.41199">
        <ele>122</ele>
        <time>2022-04-08T13:46:46Z</time>
      </trkpt>
      <trkpt lat="43.4748" lon="6.41199">
        <ele>122</ele>
        <time>2022-04-08T13:46:47Z</time>
      </trkpt>
      <trkpt lat="43.47481" lon="6.412">
        <ele>122</ele>
        <time>2022-04-08T13:46:48Z</time>
      </trkpt>
      <trkpt lat="43.47482" lon="6.412">
        <ele>121</ele>
        <time>2022-04-08T13:46:49Z</time>
      </trkpt>
      <trkpt lat="43.47482" lon="6.41199">
        <ele>121</ele>
        <time>2022-04-08T13:46:50Z</time>
      </trkpt>
      <trkpt lat="43.47483" lon="6.41198">
        <ele>121</ele>
        <time>2022-04-08T13:46:51Z</time>
      </trkpt>
      <trkpt lat="43.47484" lon="6.41197">
        <ele>121</ele>
        <time>2022-04-08T13:46:52Z</time>
      </trkpt>
      <trkpt lat="43.47484" lon="6.41197">
        <ele>121</ele>
        <time>2022-04-08T13:46:53Z</time>
      </trkpt>
      <trkpt lat="43.47485" lon="6.41196">
        <ele>121</ele>
        <time>2022-04-08T13:46:54Z</time>
      </trkpt>
      <trkpt lat="43.47485" lon="6.41195">
        <ele>121</ele>
        <time>2022-04-08T13:46:55Z</time>
      </trkpt>
      <trkpt lat="43.47485" lon="6.41195">
        <ele>121</ele>
        <time>2022-04-08T13:46:56Z</time>
      </trkpt>
      <trkpt lat="43.47485" lon="6.41194">
        <ele>121</ele>
        <time>2022-04-08T13:46:57Z</time>
      </trkpt>
      <trkpt lat="43.47485" lon="6.41194">
        <ele>121</ele>
        <time>2022-04-08T13:46:58Z</time>
      </trkpt>
      <trkpt lat="43.47485" lon="6.41194">
        <ele>121</ele>
        <time>2022-04-08T13:46:59Z</time>
      </trkpt>
      <trkpt lat="43.47485" lon="6.41194">
        <ele>121</ele>
        <time>2022-04-08T13:47:00Z</time>
      </trkpt>
      <trkpt lat="43.47485" lon="6.41194">
        <ele>121</ele>
        <time>2022-04-08T13:47:01Z</time>
      </trkpt>
      <trkpt lat="43.47485" lon="6.41194">
        <ele>121</ele>
        <time>2022-04-08T13:47:02Z</time>
      </trkpt>
      <trkpt lat="43.47485" lon="6.41194">
        <ele>121</ele>
        <time>2022-04-08T13:47:03Z</time>
      </trkpt>
      <trkpt lat="43.47485" lon="6.41194">
        <ele>121</ele>
        <time>2022-04-08T13:47:04Z</time>
      </trkpt>
      <trkpt lat="43.47485" lon="6.41194">
        <ele>121</ele>
        <time>2022-04-08T13:47:05Z</time>
      </trkpt>
      <trkpt lat="43.47485" lon="6.41194">
        <ele>121</ele>
        <time>2022-04-08T13:47:06Z</time>
      </trkpt>
      <trkpt lat="43.47485" lon="6.41194">
        <ele>121</ele>
        <time>2022-04-08T13:47:07Z</time>
      </trkpt>
      <trkpt lat="43.47485" lon="6.41194">
        <ele>121</ele>
        <time>2022-04-08T13:47:08Z</time>
      </trkpt>
      <trkpt lat="43.47485" lon="6.41194">
        <ele>121</ele>
        <time>2022-04-08T13:47:09Z</time>
      </trkpt>
      <trkpt lat="43.47485" lon="6.41194">
        <ele>121</ele>
        <time>2022-04-08T13:47:10Z</time>
      </trkpt>
      <trkpt lat="43.47485" lon="6.41194">
        <ele>121</ele>
        <time>2022-04-08T13:47:11Z</time>
      </trkpt>
      <trkpt lat="43.47484" lon="6.41195">
        <ele>121</ele>
        <time>2022-04-08T13:47:12Z</time>
      </trkpt>
      <trkpt lat="43.47484" lon="6.41195">
        <ele>121</ele>
        <time>2022-04-08T13:47:13Z</time>
      </trkpt>
      <trkpt lat="43.47484" lon="6.41195">
        <ele>121</ele>
        <time>2022-04-08T13:47:14Z</time>
      </trkpt>
      <trkpt lat="43.47483" lon="6.41195">
        <ele>121</ele>
        <time>2022-04-08T13:47:15Z</time>
      </trkpt>
      <trkpt lat="43.47483" lon="6.41196">
        <ele>121</ele>
        <time>2022-04-08T13:47:16Z</time>
      </trkpt>
      <trkpt lat="43.47483" lon="6.41196">
        <ele>121</ele>
        <time>2022-04-08T13:47:17Z</time>
      </trkpt>
      <trkpt lat="43.47483" lon="6.41196">
        <ele>121</ele>
        <time>2022-04-08T13:47:18Z</time>
      </trkpt>
      <trkpt lat="43.47483" lon="6.41196">
        <ele>121</ele>
        <time>2022-04-08T13:47:19Z</time>
      </trkpt>
      <trkpt lat="43.47483" lon="6.41196">
        <ele>121</ele>
        <time>2022-04-08T13:47:20Z</time>
      </trkpt>
      <trkpt lat="43.47483" lon="6.41196">
        <ele>121</ele>
        <time>2022-04-08T13:47:21Z</time>
      </trkpt>
      <trkpt lat="43.47482" lon="6.41196">
        <ele>121</ele>
        <time>2022-04-08T13:47:22Z</time>
      </trkpt>
      <trkpt lat="43.47482" lon="6.41196">
        <ele>121</ele>
        <time>2022-04-08T13:47:23Z</time>
      </trkpt>
      <trkpt lat="43.47482" lon="6.41196">
        <ele>121</ele>
        <time>2022-04-08T13:47:24Z</time>
      </trkpt>
      <trkpt lat="43.47483" lon="6.41196">
        <ele>121</ele>
        <time>2022-04-08T13:47:25Z</time>
      </trkpt>
      <trkpt lat="43.47484" lon="6.41197">
        <ele>121</ele>
        <time>2022-04-08T13:47:26Z</time>
      </trkpt>
      <trkpt lat="43.47485" lon="6.41197">
        <ele>121</ele>
        <time>2022-04-08T13:47:27Z</time>
      </trkpt>
      <trkpt lat="43.47486" lon="6.41197">
        <ele>121</ele>
        <time>2022-04-08T13:47:28Z</time>
      </trkpt>
      <trkpt lat="43.47488" lon="6.41198">
        <ele>121</ele>
        <time>2022-04-08T13:47:29Z</time>
      </trkpt>
      <trkpt lat="43.47489" lon="6.41198">
        <ele>121</ele>
        <time>2022-04-08T13:47:30Z</time>
      </trkpt>
      <trkpt lat="43.47489" lon="6.41199">
        <ele>121</ele>
        <time>2022-04-08T13:47:31Z</time>
      </trkpt>
      <trkpt lat="43.4749" lon="6.41199">
        <ele>121</ele>
        <time>2022-04-08T13:47:32Z</time>
      </trkpt>
      <trkpt lat="43.47491" lon="6.41199">
        <ele>121</ele>
        <time>2022-04-08T13:47:33Z</time>
      </trkpt>
      <trkpt lat="43.47491" lon="6.412">
        <ele>121</ele>
        <time>2022-04-08T13:47:34Z</time>
      </trkpt>
      <trkpt lat="43.47492" lon="6.412">
        <ele>121</ele>
        <time>2022-04-08T13:47:35Z</time>
      </trkpt>
      <trkpt lat="43.47493" lon="6.412">
        <ele>122</ele>
        <time>2022-04-08T13:47:36Z</time>
      </trkpt>
      <trkpt lat="43.47493" lon="6.412">
        <ele>122</ele>
        <time>2022-04-08T13:47:37Z</time>
      </trkpt>
      <trkpt lat="43.47493" lon="6.41201">
        <ele>122</ele>
        <time>2022-04-08T13:47:38Z</time>
      </trkpt>
      <trkpt lat="43.47494" lon="6.41201">
        <ele>122</ele>
        <time>2022-04-08T13:47:39Z</time>
      </trkpt>
      <trkpt lat="43.47494" lon="6.41201">
        <ele>122</ele>
        <time>2022-04-08T13:47:40Z</time>
      </trkpt>
      <trkpt lat="43.47495" lon="6.41201">
        <ele>122</ele>
        <time>2022-04-08T13:47:41Z</time>
      </trkpt>
      <trkpt lat="43.47497" lon="6.41201">
        <ele>122</ele>
        <time>2022-04-08T13:47:42Z</time>
      </trkpt>
      <trkpt lat="43.47499" lon="6.41201">
        <ele>122</ele>
        <time>2022-04-08T13:47:43Z</time>
      </trkpt>
      <trkpt lat="43.475" lon="6.41201">
        <ele>122</ele>
        <time>2022-04-08T13:47:44Z</time>
      </trkpt>
      <trkpt lat="43.47501" lon="6.41201">
        <ele>123</ele>
        <time>2022-04-08T13:47:45Z</time>
      </trkpt>
      <trkpt lat="43.47502" lon="6.41201">
        <ele>123</ele>
        <time>2022-04-08T13:47:46Z</time>
      </trkpt>
      <trkpt lat="43.47503" lon="6.41201">
        <ele>123</ele>
        <time>2022-04-08T13:47:47Z</time>
      </trkpt>
      <trkpt lat="43.47504" lon="6.41201">
        <ele>123</ele>
        <time>2022-04-08T13:47:48Z</time>
      </trkpt>
      <trkpt lat="43.47505" lon="6.41201">
        <ele>124</ele>
        <time>2022-04-08T13:47:49Z</time>
      </trkpt>
      <trkpt lat="43.47506" lon="6.41201">
        <ele>124</ele>
        <time>2022-04-08T13:47:50Z</time>
      </trkpt>
      <trkpt lat="43.47507" lon="6.41201">
        <ele>124</ele>
        <time>2022-04-08T13:47:51Z</time>
      </trkpt>
      <trkpt lat="43.47508" lon="6.412">
        <ele>124</ele>
        <time>2022-04-08T13:47:52Z</time>
      </trkpt>
      <trkpt lat="43.47509" lon="6.412">
        <ele>124</ele>
        <time>2022-04-08T13:47:53Z</time>
      </trkpt>
      <trkpt lat="43.4751" lon="6.412">
        <ele>125</ele>
        <time>2022-04-08T13:47:54Z</time>
      </trkpt>
      <trkpt lat="43.47511" lon="6.412">
        <ele>125</ele>
        <time>2022-04-08T13:47:55Z</time>
      </trkpt>
      <trkpt lat="43.47512" lon="6.41201">
        <ele>125</ele>
        <time>2022-04-08T13:47:56Z</time>
      </trkpt>
      <trkpt lat="43.47514" lon="6.41201">
        <ele>125</ele>
        <time>2022-04-08T13:47:57Z</time>
      </trkpt>
      <trkpt lat="43.47515" lon="6.41201">
        <ele>125</ele>
        <time>2022-04-08T13:47:58Z</time>
      </trkpt>
      <trkpt lat="43.47516" lon="6.41201">
        <ele>125</ele>
        <time>2022-04-08T13:47:59Z</time>
      </trkpt>
      <trkpt lat="43.47518" lon="6.41201">
        <ele>125</ele>
        <time>2022-04-08T13:48:00Z</time>
      </trkpt>
      <trkpt lat="43.47519" lon="6.41201">
        <ele>125</ele>
        <time>2022-04-08T13:48:01Z</time>
      </trkpt>
      <trkpt lat="43.47521" lon="6.41201">
        <ele>125</ele>
        <time>2022-04-08T13:48:02Z</time>
      </trkpt>
      <trkpt lat="43.47524" lon="6.41201">
        <ele>125</ele>
        <time>2022-04-08T13:48:03Z</time>
      </trkpt>
      <trkpt lat="43.47526" lon="6.41201">
        <ele>125</ele>
        <time>2022-04-08T13:48:04Z</time>
      </trkpt>
      <trkpt lat="43.47527" lon="6.412">
        <ele>125</ele>
        <time>2022-04-08T13:48:05Z</time>
      </trkpt>
      <trkpt lat="43.47529" lon="6.412">
        <ele>125</ele>
        <time>2022-04-08T13:48:06Z</time>
      </trkpt>
      <trkpt lat="43.4753" lon="6.412">
        <ele>125</ele>
        <time>2022-04-08T13:48:07Z</time>
      </trkpt>
      <trkpt lat="43.47532" lon="6.412">
        <ele>125</ele>
        <time>2022-04-08T13:48:08Z</time>
      </trkpt>
      <trkpt lat="43.47533" lon="6.412">
        <ele>125</ele>
        <time>2022-04-08T13:48:09Z</time>
      </trkpt>
      <trkpt lat="43.47535" lon="6.41201">
        <ele>125</ele>
        <time>2022-04-08T13:48:10Z</time>
      </trkpt>
      <trkpt lat="43.47536" lon="6.41201">
        <ele>125</ele>
        <time>2022-04-08T13:48:11Z</time>
      </trkpt>
      <trkpt lat="43.47538" lon="6.41201">
        <ele>125</ele>
        <time>2022-04-08T13:48:12Z</time>
      </trkpt>
      <trkpt lat="43.4754" lon="6.41202">
        <ele>125</ele>
        <time>2022-04-08T13:48:13Z</time>
      </trkpt>
      <trkpt lat="43.47541" lon="6.41202">
        <ele>125</ele>
        <time>2022-04-08T13:48:14Z</time>
      </trkpt>
      <trkpt lat="43.47543" lon="6.41202">
        <ele>125</ele>
        <time>2022-04-08T13:48:15Z</time>
      </trkpt>
      <trkpt lat="43.47544" lon="6.41203">
        <ele>125</ele>
        <time>2022-04-08T13:48:16Z</time>
      </trkpt>
      <trkpt lat="43.47546" lon="6.41203">
        <ele>125</ele>
        <time>2022-04-08T13:48:17Z</time>
      </trkpt>
      <trkpt lat="43.47547" lon="6.41203">
        <ele>124</ele>
        <time>2022-04-08T13:48:18Z</time>
      </trkpt>
      <trkpt lat="43.47548" lon="6.41204">
        <ele>124</ele>
        <time>2022-04-08T13:48:19Z</time>
      </trkpt>
      <trkpt lat="43.47549" lon="6.41204">
        <ele>124</ele>
        <time>2022-04-08T13:48:20Z</time>
      </trkpt>
      <trkpt lat="43.47551" lon="6.41204">
        <ele>124</ele>
        <time>2022-04-08T13:48:21Z</time>
      </trkpt>
      <trkpt lat="43.47552" lon="6.41204">
        <ele>124</ele>
        <time>2022-04-08T13:48:22Z</time>
      </trkpt>
      <trkpt lat="43.47553" lon="6.41205">
        <ele>124</ele>
        <time>2022-04-08T13:48:23Z</time>
      </trkpt>
      <trkpt lat="43.47555" lon="6.41205">
        <ele>124</ele>
        <time>2022-04-08T13:48:24Z</time>
      </trkpt>
      <trkpt lat="43.47556" lon="6.41206">
        <ele>124</ele>
        <time>2022-04-08T13:48:25Z</time>
      </trkpt>
      <trkpt lat="43.47557" lon="6.41206">
        <ele>124</ele>
        <time>2022-04-08T13:48:26Z</time>
      </trkpt>
      <trkpt lat="43.47559" lon="6.41207">
        <ele>124</ele>
        <time>2022-04-08T13:48:27Z</time>
      </trkpt>
      <trkpt lat="43.4756" lon="6.41207">
        <ele>124</ele>
        <time>2022-04-08T13:48:28Z</time>
      </trkpt>
      <trkpt lat="43.47562" lon="6.41208">
        <ele>124</ele>
        <time>2022-04-08T13:48:29Z</time>
      </trkpt>
      <trkpt lat="43.47563" lon="6.41209">
        <ele>124</ele>
        <time>2022-04-08T13:48:30Z</time>
      </trkpt>
      <trkpt lat="43.47564" lon="6.41209">
        <ele>124</ele>
        <time>2022-04-08T13:48:31Z</time>
      </trkpt>
      <trkpt lat="43.47566" lon="6.4121">
        <ele>124</ele>
        <time>2022-04-08T13:48:32Z</time>
      </trkpt>
      <trkpt lat="43.47567" lon="6.41211">
        <ele>124</ele>
        <time>2022-04-08T13:48:33Z</time>
      </trkpt>
      <trkpt lat="43.47568" lon="6.41212">
        <ele>124</ele>
        <time>2022-04-08T13:48:34Z</time>
      </trkpt>
      <trkpt lat="43.47569" lon="6.41213">
        <ele>124</ele>
        <time>2022-04-08T13:48:35Z</time>
      </trkpt>
      <trkpt lat="43.4757" lon="6.41213">
        <ele>124</ele>
        <time>2022-04-08T13:48:36Z</time>
      </trkpt>
      <trkpt lat="43.47572" lon="6.41214">
        <ele>124</ele>
        <time>2022-04-08T13:48:37Z</time>
      </trkpt>
      <trkpt lat="43.47573" lon="6.41216">
        <ele>124</ele>
        <time>2022-04-08T13:48:38Z</time>
      </trkpt>
      <trkpt lat="43.47574" lon="6.41217">
        <ele>124</ele>
        <time>2022-04-08T13:48:39Z</time>
      </trkpt>
      <trkpt lat="43.47575" lon="6.41218">
        <ele>124</ele>
        <time>2022-04-08T13:48:40Z</time>
      </trkpt>
      <trkpt lat="43.47577" lon="6.41219">
        <ele>124</ele>
        <time>2022-04-08T13:48:41Z</time>
      </trkpt>
      <trkpt lat="43.47578" lon="6.4122">
        <ele>125</ele>
        <time>2022-04-08T13:48:42Z</time>
      </trkpt>
      <trkpt lat="43.47579" lon="6.41222">
        <ele>125</ele>
        <time>2022-04-08T13:48:43Z</time>
      </trkpt>
      <trkpt lat="43.4758" lon="6.41223">
        <ele>125</ele>
        <time>2022-04-08T13:48:44Z</time>
      </trkpt>
      <trkpt lat="43.47581" lon="6.41225">
        <ele>125</ele>
        <time>2022-04-08T13:48:45Z</time>
      </trkpt>
      <trkpt lat="43.47582" lon="6.41226">
        <ele>125</ele>
        <time>2022-04-08T13:48:46Z</time>
      </trkpt>
      <trkpt lat="43.47583" lon="6.41227">
        <ele>125</ele>
        <time>2022-04-08T13:48:47Z</time>
      </trkpt>
      <trkpt lat="43.47585" lon="6.41229">
        <ele>126</ele>
        <time>2022-04-08T13:48:48Z</time>
      </trkpt>
      <trkpt lat="43.47586" lon="6.4123">
        <ele>126</ele>
        <time>2022-04-08T13:48:49Z</time>
      </trkpt>
      <trkpt lat="43.47587" lon="6.41232">
        <ele>126</ele>
        <time>2022-04-08T13:48:50Z</time>
      </trkpt>
      <trkpt lat="43.47588" lon="6.41233">
        <ele>126</ele>
        <time>2022-04-08T13:48:51Z</time>
      </trkpt>
      <trkpt lat="43.47589" lon="6.41235">
        <ele>126</ele>
        <time>2022-04-08T13:48:52Z</time>
      </trkpt>
      <trkpt lat="43.4759" lon="6.41236">
        <ele>126</ele>
        <time>2022-04-08T13:48:53Z</time>
      </trkpt>
      <trkpt lat="43.47591" lon="6.41238">
        <ele>126</ele>
        <time>2022-04-08T13:48:54Z</time>
      </trkpt>
      <trkpt lat="43.47592" lon="6.41239">
        <ele>126</ele>
        <time>2022-04-08T13:48:55Z</time>
      </trkpt>
      <trkpt lat="43.47593" lon="6.41241">
        <ele>126</ele>
        <time>2022-04-08T13:48:56Z</time>
      </trkpt>
      <trkpt lat="43.47594" lon="6.41242">
        <ele>127</ele>
        <time>2022-04-08T13:48:57Z</time>
      </trkpt>
      <trkpt lat="43.47595" lon="6.41243">
        <ele>127</ele>
        <time>2022-04-08T13:48:58Z</time>
      </trkpt>
      <trkpt lat="43.47596" lon="6.41245">
        <ele>128</ele>
        <time>2022-04-08T13:48:59Z</time>
      </trkpt>
      <trkpt lat="43.47597" lon="6.41246">
        <ele>128</ele>
        <time>2022-04-08T13:49:00Z</time>
      </trkpt>
      <trkpt lat="43.47598" lon="6.41247">
        <ele>128</ele>
        <time>2022-04-08T13:49:01Z</time>
      </trkpt>
      <trkpt lat="43.476" lon="6.41249">
        <ele>128</ele>
        <time>2022-04-08T13:49:02Z</time>
      </trkpt>
      <trkpt lat="43.47601" lon="6.4125">
        <ele>128</ele>
        <time>2022-04-08T13:49:03Z</time>
      </trkpt>
      <trkpt lat="43.47602" lon="6.41251">
        <ele>128</ele>
        <time>2022-04-08T13:49:04Z</time>
      </trkpt>
      <trkpt lat="43.47603" lon="6.41252">
        <ele>129</ele>
        <time>2022-04-08T13:49:05Z</time>
      </trkpt>
      <trkpt lat="43.47604" lon="6.41254">
        <ele>129</ele>
        <time>2022-04-08T13:49:06Z</time>
      </trkpt>
      <trkpt lat="43.47605" lon="6.41255">
        <ele>129</ele>
        <time>2022-04-08T13:49:07Z</time>
      </trkpt>
      <trkpt lat="43.47606" lon="6.41256">
        <ele>129</ele>
        <time>2022-04-08T13:49:08Z</time>
      </trkpt>
      <trkpt lat="43.47607" lon="6.41257">
        <ele>130</ele>
        <time>2022-04-08T13:49:09Z</time>
      </trkpt>
      <trkpt lat="43.47608" lon="6.41259">
        <ele>130</ele>
        <time>2022-04-08T13:49:10Z</time>
      </trkpt>
      <trkpt lat="43.47609" lon="6.4126">
        <ele>130</ele>
        <time>2022-04-08T13:49:11Z</time>
      </trkpt>
      <trkpt lat="43.4761" lon="6.41261">
        <ele>130</ele>
        <time>2022-04-08T13:49:12Z</time>
      </trkpt>
      <trkpt lat="43.47611" lon="6.41262">
        <ele>130</ele>
        <time>2022-04-08T13:49:13Z</time>
      </trkpt>
      <trkpt lat="43.47612" lon="6.41264">
        <ele>131</ele>
        <time>2022-04-08T13:49:14Z</time>
      </trkpt>
      <trkpt lat="43.47613" lon="6.41265">
        <ele>131</ele>
        <time>2022-04-08T13:49:15Z</time>
      </trkpt>
      <trkpt lat="43.47614" lon="6.41266">
        <ele>132</ele>
        <time>2022-04-08T13:49:16Z</time>
      </trkpt>
      <trkpt lat="43.47614" lon="6.41268">
        <ele>132</ele>
        <time>2022-04-08T13:49:17Z</time>
      </trkpt>
      <trkpt lat="43.47615" lon="6.41269">
        <ele>132</ele>
        <time>2022-04-08T13:49:18Z</time>
      </trkpt>
      <trkpt lat="43.47616" lon="6.4127">
        <ele>132</ele>
        <time>2022-04-08T13:49:19Z</time>
      </trkpt>
      <trkpt lat="43.47617" lon="6.41272">
        <ele>133</ele>
        <time>2022-04-08T13:49:20Z</time>
      </trkpt>
      <trkpt lat="43.47618" lon="6.41274">
        <ele>133</ele>
        <time>2022-04-08T13:49:21Z</time>
      </trkpt>
      <trkpt lat="43.47618" lon="6.41276">
        <ele>133</ele>
        <time>2022-04-08T13:49:22Z</time>
      </trkpt>
      <trkpt lat="43.47619" lon="6.41278">
        <ele>133</ele>
        <time>2022-04-08T13:49:23Z</time>
      </trkpt>
      <trkpt lat="43.47619" lon="6.4128">
        <ele>134</ele>
        <time>2022-04-08T13:49:24Z</time>
      </trkpt>
      <trkpt lat="43.4762" lon="6.41282">
        <ele>134</ele>
        <time>2022-04-08T13:49:25Z</time>
      </trkpt>
      <trkpt lat="43.4762" lon="6.41284">
        <ele>135</ele>
        <time>2022-04-08T13:49:26Z</time>
      </trkpt>
      <trkpt lat="43.47621" lon="6.41285">
        <ele>135</ele>
        <time>2022-04-08T13:49:27Z</time>
      </trkpt>
      <trkpt lat="43.47622" lon="6.41287">
        <ele>135</ele>
        <time>2022-04-08T13:49:28Z</time>
      </trkpt>
      <trkpt lat="43.47622" lon="6.41289">
        <ele>135</ele>
        <time>2022-04-08T13:49:29Z</time>
      </trkpt>
      <trkpt lat="43.47623" lon="6.41291">
        <ele>135</ele>
        <time>2022-04-08T13:49:30Z</time>
      </trkpt>
      <trkpt lat="43.47623" lon="6.41293">
        <ele>135</ele>
        <time>2022-04-08T13:49:31Z</time>
      </trkpt>
      <trkpt lat="43.47624" lon="6.41295">
        <ele>135</ele>
        <time>2022-04-08T13:49:32Z</time>
      </trkpt>
      <trkpt lat="43.47624" lon="6.41297">
        <ele>136</ele>
        <time>2022-04-08T13:49:33Z</time>
      </trkpt>
      <trkpt lat="43.47625" lon="6.41299">
        <ele>136</ele>
        <time>2022-04-08T13:49:34Z</time>
      </trkpt>
      <trkpt lat="43.47625" lon="6.41301">
        <ele>136</ele>
        <time>2022-04-08T13:49:35Z</time>
      </trkpt>
      <trkpt lat="43.47625" lon="6.41303">
        <ele>136</ele>
        <time>2022-04-08T13:49:36Z</time>
      </trkpt>
      <trkpt lat="43.47626" lon="6.41305">
        <ele>136</ele>
        <time>2022-04-08T13:49:37Z</time>
      </trkpt>
      <trkpt lat="43.47626" lon="6.41307">
        <ele>136</ele>
        <time>2022-04-08T13:49:38Z</time>
      </trkpt>
      <trkpt lat="43.47626" lon="6.41309">
        <ele>136</ele>
        <time>2022-04-08T13:49:39Z</time>
      </trkpt>
      <trkpt lat="43.47627" lon="6.41311">
        <ele>136</ele>
        <time>2022-04-08T13:49:40Z</time>
      </trkpt>
      <trkpt lat="43.47627" lon="6.41313">
        <ele>136</ele>
        <time>2022-04-08T13:49:41Z</time>
      </trkpt>
      <trkpt lat="43.47627" lon="6.41315">
        <ele>136</ele>
        <time>2022-04-08T13:49:42Z</time>
      </trkpt>
      <trkpt lat="43.47628" lon="6.41317">
        <ele>137</ele>
        <time>2022-04-08T13:49:43Z</time>
      </trkpt>
      <trkpt lat="43.47628" lon="6.41319">
        <ele>137</ele>
        <time>2022-04-08T13:49:44Z</time>
      </trkpt>
      <trkpt lat="43.47628" lon="6.41321">
        <ele>137</ele>
        <time>2022-04-08T13:49:45Z</time>
      </trkpt>
      <trkpt lat="43.47628" lon="6.41323">
        <ele>137</ele>
        <time>2022-04-08T13:49:46Z</time>
      </trkpt>
      <trkpt lat="43.47629" lon="6.41325">
        <ele>137</ele>
        <time>2022-04-08T13:49:47Z</time>
      </trkpt>
      <trkpt lat="43.47629" lon="6.41327">
        <ele>137</ele>
        <time>2022-04-08T13:49:48Z</time>
      </trkpt>
      <trkpt lat="43.4763" lon="6.41329">
        <ele>137</ele>
        <time>2022-04-08T13:49:49Z</time>
      </trkpt>
      <trkpt lat="43.4763" lon="6.41331">
        <ele>137</ele>
        <time>2022-04-08T13:49:50Z</time>
      </trkpt>
      <trkpt lat="43.4763" lon="6.41333">
        <ele>137</ele>
        <time>2022-04-08T13:49:51Z</time>
      </trkpt>
      <trkpt lat="43.47631" lon="6.41335">
        <ele>138</ele>
        <time>2022-04-08T13:49:52Z</time>
      </trkpt>
      <trkpt lat="43.47631" lon="6.41337">
        <ele>138</ele>
        <time>2022-04-08T13:49:53Z</time>
      </trkpt>
      <trkpt lat="43.47631" lon="6.41339">
        <ele>138</ele>
        <time>2022-04-08T13:49:54Z</time>
      </trkpt>
      <trkpt lat="43.47631" lon="6.41341">
        <ele>138</ele>
        <time>2022-04-08T13:49:55Z</time>
      </trkpt>
      <trkpt lat="43.47631" lon="6.41343">
        <ele>138</ele>
        <time>2022-04-08T13:49:56Z</time>
      </trkpt>
      <trkpt lat="43.47632" lon="6.41345">
        <ele>138</ele>
        <time>2022-04-08T13:49:57Z</time>
      </trkpt>
      <trkpt lat="43.47632" lon="6.41347">
        <ele>138</ele>
        <time>2022-04-08T13:49:58Z</time>
      </trkpt>
      <trkpt lat="43.47632" lon="6.41349">
        <ele>137</ele>
        <time>2022-04-08T13:49:59Z</time>
      </trkpt>
      <trkpt lat="43.47632" lon="6.41352">
        <ele>137</ele>
        <time>2022-04-08T13:50:00Z</time>
      </trkpt>
      <trkpt lat="43.47632" lon="6.41354">
        <ele>137</ele>
        <time>2022-04-08T13:50:01Z</time>
      </trkpt>
      <trkpt lat="43.47632" lon="6.41356">
        <ele>137</ele>
        <time>2022-04-08T13:50:02Z</time>
      </trkpt>
      <trkpt lat="43.47632" lon="6.41358">
        <ele>137</ele>
        <time>2022-04-08T13:50:03Z</time>
      </trkpt>
      <trkpt lat="43.47632" lon="6.41361">
        <ele>137</ele>
        <time>2022-04-08T13:50:04Z</time>
      </trkpt>
      <trkpt lat="43.47633" lon="6.41363">
        <ele>137</ele>
        <time>2022-04-08T13:50:05Z</time>
      </trkpt>
      <trkpt lat="43.47633" lon="6.41365">
        <ele>137</ele>
        <time>2022-04-08T13:50:06Z</time>
      </trkpt>
      <trkpt lat="43.47633" lon="6.41367">
        <ele>137</ele>
        <time>2022-04-08T13:50:07Z</time>
      </trkpt>
      <trkpt lat="43.47634" lon="6.41369">
        <ele>137</ele>
        <time>2022-04-08T13:50:08Z</time>
      </trkpt>
      <trkpt lat="43.47634" lon="6.41371">
        <ele>137</ele>
        <time>2022-04-08T13:50:09Z</time>
      </trkpt>
      <trkpt lat="43.47634" lon="6.41373">
        <ele>137</ele>
        <time>2022-04-08T13:50:10Z</time>
      </trkpt>
      <trkpt lat="43.47634" lon="6.41375">
        <ele>136</ele>
        <time>2022-04-08T13:50:11Z</time>
      </trkpt>
      <trkpt lat="43.47634" lon="6.41377">
        <ele>136</ele>
        <time>2022-04-08T13:50:12Z</time>
      </trkpt>
      <trkpt lat="43.47634" lon="6.41379">
        <ele>136</ele>
        <time>2022-04-08T13:50:13Z</time>
      </trkpt>
      <trkpt lat="43.47634" lon="6.41381">
        <ele>136</ele>
        <time>2022-04-08T13:50:14Z</time>
      </trkpt>
      <trkpt lat="43.47634" lon="6.41383">
        <ele>136</ele>
        <time>2022-04-08T13:50:15Z</time>
      </trkpt>
      <trkpt lat="43.47634" lon="6.41385">
        <ele>135</ele>
        <time>2022-04-08T13:50:16Z</time>
      </trkpt>
      <trkpt lat="43.47634" lon="6.41387">
        <ele>135</ele>
        <time>2022-04-08T13:50:17Z</time>
      </trkpt>
      <trkpt lat="43.47634" lon="6.4139">
        <ele>135</ele>
        <time>2022-04-08T13:50:18Z</time>
      </trkpt>
      <trkpt lat="43.47634" lon="6.41392">
        <ele>135</ele>
        <time>2022-04-08T13:50:19Z</time>
      </trkpt>
      <trkpt lat="43.47633" lon="6.41394">
        <ele>135</ele>
        <time>2022-04-08T13:50:20Z</time>
      </trkpt>
      <trkpt lat="43.47633" lon="6.41396">
        <ele>135</ele>
        <time>2022-04-08T13:50:21Z</time>
      </trkpt>
      <trkpt lat="43.47633" lon="6.41399">
        <ele>135</ele>
        <time>2022-04-08T13:50:22Z</time>
      </trkpt>
      <trkpt lat="43.47633" lon="6.41401">
        <ele>135</ele>
        <time>2022-04-08T13:50:23Z</time>
      </trkpt>
      <trkpt lat="43.47632" lon="6.41403">
        <ele>135</ele>
        <time>2022-04-08T13:50:24Z</time>
      </trkpt>
      <trkpt lat="43.47632" lon="6.41406">
        <ele>135</ele>
        <time>2022-04-08T13:50:25Z</time>
      </trkpt>
      <trkpt lat="43.47632" lon="6.41407">
        <ele>135</ele>
        <time>2022-04-08T13:50:26Z</time>
      </trkpt>
      <trkpt lat="43.47631" lon="6.41409">
        <ele>136</ele>
        <time>2022-04-08T13:50:27Z</time>
      </trkpt>
      <trkpt lat="43.47631" lon="6.41411">
        <ele>136</ele>
        <time>2022-04-08T13:50:28Z</time>
      </trkpt>
      <trkpt lat="43.47631" lon="6.41412">
        <ele>136</ele>
        <time>2022-04-08T13:50:29Z</time>
      </trkpt>
      <trkpt lat="43.4763" lon="6.41414">
        <ele>136</ele>
        <time>2022-04-08T13:50:30Z</time>
      </trkpt>
      <trkpt lat="43.4763" lon="6.41416">
        <ele>136</ele>
        <time>2022-04-08T13:50:31Z</time>
      </trkpt>
      <trkpt lat="43.4763" lon="6.41417">
        <ele>136</ele>
        <time>2022-04-08T13:50:32Z</time>
      </trkpt>
      <trkpt lat="43.4763" lon="6.41418">
        <ele>136</ele>
        <time>2022-04-08T13:50:33Z</time>
      </trkpt>
      <trkpt lat="43.4763" lon="6.4142">
        <ele>136</ele>
        <time>2022-04-08T13:50:34Z</time>
      </trkpt>
      <trkpt lat="43.4763" lon="6.41421">
        <ele>136</ele>
        <time>2022-04-08T13:50:35Z</time>
      </trkpt>
      <trkpt lat="43.4763" lon="6.41423">
        <ele>136</ele>
        <time>2022-04-08T13:50:36Z</time>
      </trkpt>
      <trkpt lat="43.4763" lon="6.41424">
        <ele>136</ele>
        <time>2022-04-08T13:50:37Z</time>
      </trkpt>
      <trkpt lat="43.4763" lon="6.41425">
        <ele>136</ele>
        <time>2022-04-08T13:50:38Z</time>
      </trkpt>
      <trkpt lat="43.4763" lon="6.41427">
        <ele>136</ele>
        <time>2022-04-08T13:50:39Z</time>
      </trkpt>
      <trkpt lat="43.4763" lon="6.41428">
        <ele>136</ele>
        <time>2022-04-08T13:50:40Z</time>
      </trkpt>
      <trkpt lat="43.47629" lon="6.4143">
        <ele>136</ele>
        <time>2022-04-08T13:50:41Z</time>
      </trkpt>
      <trkpt lat="43.47629" lon="6.41431">
        <ele>136</ele>
        <time>2022-04-08T13:50:42Z</time>
      </trkpt>
      <trkpt lat="43.47629" lon="6.41432">
        <ele>136</ele>
        <time>2022-04-08T13:50:43Z</time>
      </trkpt>
      <trkpt lat="43.47628" lon="6.41433">
        <ele>136</ele>
        <time>2022-04-08T13:50:44Z</time>
      </trkpt>
      <trkpt lat="43.47628" lon="6.41435">
        <ele>136</ele>
        <time>2022-04-08T13:50:45Z</time>
      </trkpt>
      <trkpt lat="43.47628" lon="6.41436">
        <ele>136</ele>
        <time>2022-04-08T13:50:46Z</time>
      </trkpt>
      <trkpt lat="43.47628" lon="6.41437">
        <ele>135</ele>
        <time>2022-04-08T13:50:47Z</time>
      </trkpt>
      <trkpt lat="43.47628" lon="6.41439">
        <ele>135</ele>
        <time>2022-04-08T13:50:48Z</time>
      </trkpt>
      <trkpt lat="43.47628" lon="6.4144">
        <ele>135</ele>
        <time>2022-04-08T13:50:49Z</time>
      </trkpt>
      <trkpt lat="43.47627" lon="6.41442">
        <ele>134</ele>
        <time>2022-04-08T13:50:50Z</time>
      </trkpt>
      <trkpt lat="43.47627" lon="6.41444">
        <ele>134</ele>
        <time>2022-04-08T13:50:51Z</time>
      </trkpt>
      <trkpt lat="43.47627" lon="6.41445">
        <ele>134</ele>
        <time>2022-04-08T13:50:52Z</time>
      </trkpt>
      <trkpt lat="43.47627" lon="6.41447">
        <ele>134</ele>
        <time>2022-04-08T13:50:53Z</time>
      </trkpt>
      <trkpt lat="43.47627" lon="6.41449">
        <ele>134</ele>
        <time>2022-04-08T13:50:54Z</time>
      </trkpt>
      <trkpt lat="43.47626" lon="6.4145">
        <ele>134</ele>
        <time>2022-04-08T13:50:55Z</time>
      </trkpt>
      <trkpt lat="43.47626" lon="6.41452">
        <ele>134</ele>
        <time>2022-04-08T13:50:56Z</time>
      </trkpt>
      <trkpt lat="43.47626" lon="6.41454">
        <ele>134</ele>
        <time>2022-04-08T13:50:57Z</time>
      </trkpt>
      <trkpt lat="43.47625" lon="6.41456">
        <ele>134</ele>
        <time>2022-04-08T13:50:58Z</time>
      </trkpt>
      <trkpt lat="43.47625" lon="6.41458">
        <ele>134</ele>
        <time>2022-04-08T13:50:59Z</time>
      </trkpt>
      <trkpt lat="43.47625" lon="6.4146">
        <ele>134</ele>
        <time>2022-04-08T13:51:00Z</time>
      </trkpt>
      <trkpt lat="43.47624" lon="6.41461">
        <ele>134</ele>
        <time>2022-04-08T13:51:01Z</time>
      </trkpt>
      <trkpt lat="43.47624" lon="6.41463">
        <ele>134</ele>
        <time>2022-04-08T13:51:02Z</time>
      </trkpt>
      <trkpt lat="43.47624" lon="6.41465">
        <ele>134</ele>
        <time>2022-04-08T13:51:03Z</time>
      </trkpt>
      <trkpt lat="43.47623" lon="6.41467">
        <ele>134</ele>
        <time>2022-04-08T13:51:04Z</time>
      </trkpt>
      <trkpt lat="43.47623" lon="6.41468">
        <ele>134</ele>
        <time>2022-04-08T13:51:05Z</time>
      </trkpt>
      <trkpt lat="43.47622" lon="6.4147">
        <ele>134</ele>
        <time>2022-04-08T13:51:06Z</time>
      </trkpt>
      <trkpt lat="43.47622" lon="6.41471">
        <ele>134</ele>
        <time>2022-04-08T13:51:07Z</time>
      </trkpt>
      <trkpt lat="43.47622" lon="6.41473">
        <ele>134</ele>
        <time>2022-04-08T13:51:08Z</time>
      </trkpt>
      <trkpt lat="43.47622" lon="6.41474">
        <ele>134</ele>
        <time>2022-04-08T13:51:09Z</time>
      </trkpt>
      <trkpt lat="43.47621" lon="6.41476">
        <ele>134</ele>
        <time>2022-04-08T13:51:10Z</time>
      </trkpt>
      <trkpt lat="43.47621" lon="6.41478">
        <ele>134</ele>
        <time>2022-04-08T13:51:11Z</time>
      </trkpt>
      <trkpt lat="43.47621" lon="6.4148">
        <ele>135</ele>
        <time>2022-04-08T13:51:12Z</time>
      </trkpt>
      <trkpt lat="43.4762" lon="6.41482">
        <ele>135</ele>
        <time>2022-04-08T13:51:13Z</time>
      </trkpt>
      <trkpt lat="43.4762" lon="6.41484">
        <ele>135</ele>
        <time>2022-04-08T13:51:14Z</time>
      </trkpt>
      <trkpt lat="43.4762" lon="6.41486">
        <ele>135</ele>
        <time>2022-04-08T13:51:15Z</time>
      </trkpt>
      <trkpt lat="43.4762" lon="6.41488">
        <ele>135</ele>
        <time>2022-04-08T13:51:16Z</time>
      </trkpt>
      <trkpt lat="43.4762" lon="6.4149">
        <ele>136</ele>
        <time>2022-04-08T13:51:17Z</time>
      </trkpt>
      <trkpt lat="43.4762" lon="6.41492">
        <ele>136</ele>
        <time>2022-04-08T13:51:18Z</time>
      </trkpt>
      <trkpt lat="43.4762" lon="6.41494">
        <ele>136</ele>
        <time>2022-04-08T13:51:19Z</time>
      </trkpt>
      <trkpt lat="43.4762" lon="6.41496">
        <ele>136</ele>
        <time>2022-04-08T13:51:20Z</time>
      </trkpt>
      <trkpt lat="43.47621" lon="6.41498">
        <ele>136</ele>
        <time>2022-04-08T13:51:21Z</time>
      </trkpt>
      <trkpt lat="43.47622" lon="6.41499">
        <ele>136</ele>
        <time>2022-04-08T13:51:22Z</time>
      </trkpt>
      <trkpt lat="43.47622" lon="6.415">
        <ele>136</ele>
        <time>2022-04-08T13:51:23Z</time>
      </trkpt>
      <trkpt lat="43.47622" lon="6.41502">
        <ele>136</ele>
        <time>2022-04-08T13:51:24Z</time>
      </trkpt>
      <trkpt lat="43.47623" lon="6.41503">
        <ele>136</ele>
        <time>2022-04-08T13:51:25Z</time>
      </trkpt>
      <trkpt lat="43.47623" lon="6.41505">
        <ele>136</ele>
        <time>2022-04-08T13:51:26Z</time>
      </trkpt>
      <trkpt lat="43.47623" lon="6.41506">
        <ele>136</ele>
        <time>2022-04-08T13:51:27Z</time>
      </trkpt>
      <trkpt lat="43.47624" lon="6.41508">
        <ele>136</ele>
        <time>2022-04-08T13:51:28Z</time>
      </trkpt>
      <trkpt lat="43.47625" lon="6.41509">
        <ele>136</ele>
        <time>2022-04-08T13:51:29Z</time>
      </trkpt>
      <trkpt lat="43.47625" lon="6.4151">
        <ele>136</ele>
        <time>2022-04-08T13:51:30Z</time>
      </trkpt>
      <trkpt lat="43.47627" lon="6.41511">
        <ele>137</ele>
        <time>2022-04-08T13:51:31Z</time>
      </trkpt>
      <trkpt lat="43.47627" lon="6.41512">
        <ele>137</ele>
        <time>2022-04-08T13:51:32Z</time>
      </trkpt>
      <trkpt lat="43.47628" lon="6.41513">
        <ele>137</ele>
        <time>2022-04-08T13:51:33Z</time>
      </trkpt>
      <trkpt lat="43.47628" lon="6.41514">
        <ele>137</ele>
        <time>2022-04-08T13:51:34Z</time>
      </trkpt>
      <trkpt lat="43.47628" lon="6.41515">
        <ele>137</ele>
        <time>2022-04-08T13:51:35Z</time>
      </trkpt>
      <trkpt lat="43.47627" lon="6.41515">
        <ele>137</ele>
        <time>2022-04-08T13:51:36Z</time>
      </trkpt>
      <trkpt lat="43.47626" lon="6.41515">
        <ele>137</ele>
        <time>2022-04-08T13:51:37Z</time>
      </trkpt>
      <trkpt lat="43.47626" lon="6.41515">
        <ele>137</ele>
        <time>2022-04-08T13:51:38Z</time>
      </trkpt>
      <trkpt lat="43.47626" lon="6.41514">
        <ele>137</ele>
        <time>2022-04-08T13:51:39Z</time>
      </trkpt>
      <trkpt lat="43.47626" lon="6.41514">
        <ele>137</ele>
        <time>2022-04-08T13:51:40Z</time>
      </trkpt>
      <trkpt lat="43.47626" lon="6.41514">
        <ele>137</ele>
        <time>2022-04-08T13:51:41Z</time>
      </trkpt>
      <trkpt lat="43.47625" lon="6.41514">
        <ele>137</ele>
        <time>2022-04-08T13:51:42Z</time>
      </trkpt>
      <trkpt lat="43.47625" lon="6.41514">
        <ele>137</ele>
        <time>2022-04-08T13:51:43Z</time>
      </trkpt>
      <trkpt lat="43.47624" lon="6.41514">
        <ele>137</ele>
        <time>2022-04-08T13:51:44Z</time>
      </trkpt>
      <trkpt lat="43.47624" lon="6.41513">
        <ele>137</ele>
        <time>2022-04-08T13:51:45Z</time>
      </trkpt>
      <trkpt lat="43.47623" lon="6.41512">
        <ele>137</ele>
        <time>2022-04-08T13:51:46Z</time>
      </trkpt>
      <trkpt lat="43.47624" lon="6.41511">
        <ele>137</ele>
        <time>2022-04-08T13:51:47Z</time>
      </trkpt>
      <trkpt lat="43.47624" lon="6.41512">
        <ele>137</ele>
        <time>2022-04-08T13:51:48Z</time>
      </trkpt>
      <trkpt lat="43.47625" lon="6.41512">
        <ele>137</ele>
        <time>2022-04-08T13:51:49Z</time>
      </trkpt>
      <trkpt lat="43.47625" lon="6.41512">
        <ele>137</ele>
        <time>2022-04-08T13:51:50Z</time>
      </trkpt>
      <trkpt lat="43.47625" lon="6.41512">
        <ele>137</ele>
        <time>2022-04-08T13:51:51Z</time>
      </trkpt>
      <trkpt lat="43.47625" lon="6.41512">
        <ele>137</ele>
        <time>2022-04-08T13:51:52Z</time>
      </trkpt>
      <trkpt lat="43.47625" lon="6.41512">
        <ele>137</ele>
        <time>2022-04-08T13:51:53Z</time>
      </trkpt>
      <trkpt lat="43.47625" lon="6.41513">
        <ele>137</ele>
        <time>2022-04-08T13:51:54Z</time>
      </trkpt>
      <trkpt lat="43.47625" lon="6.41514">
        <ele>137</ele>
        <time>2022-04-08T13:51:55Z</time>
      </trkpt>
      <trkpt lat="43.47625" lon="6.41513">
        <ele>137</ele>
        <time>2022-04-08T13:51:56Z</time>
      </trkpt>
      <trkpt lat="43.47625" lon="6.41512">
        <ele>137</ele>
        <time>2022-04-08T13:51:57Z</time>
      </trkpt>
      <trkpt lat="43.47625" lon="6.41512">
        <ele>137</ele>
        <time>2022-04-08T13:51:58Z</time>
      </trkpt>
      <trkpt lat="43.47626" lon="6.41511">
        <ele>137</ele>
        <time>2022-04-08T13:51:59Z</time>
      </trkpt>
      <trkpt lat="43.47627" lon="6.41511">
        <ele>137</ele>
        <time>2022-04-08T13:52:00Z</time>
      </trkpt>
      <trkpt lat="43.47627" lon="6.41512">
        <ele>137</ele>
        <time>2022-04-08T13:52:01Z</time>
      </trkpt>
      <trkpt lat="43.47628" lon="6.41512">
        <ele>137</ele>
        <time>2022-04-08T13:52:02Z</time>
      </trkpt>
      <trkpt lat="43.47628" lon="6.41512">
        <ele>137</ele>
        <time>2022-04-08T13:52:03Z</time>
      </trkpt>
      <trkpt lat="43.47628" lon="6.41512">
        <ele>137</ele>
        <time>2022-04-08T13:52:04Z</time>
      </trkpt>
      <trkpt lat="43.47628" lon="6.41512">
        <ele>137</ele>
        <time>2022-04-08T13:52:05Z</time>
      </trkpt>
      <trkpt lat="43.47628" lon="6.41512">
        <ele>137</ele>
        <time>2022-04-08T13:52:06Z</time>
      </trkpt>
      <trkpt lat="43.47628" lon="6.41512">
        <ele>137</ele>
        <time>2022-04-08T13:52:07Z</time>
      </trkpt>
      <trkpt lat="43.47628" lon="6.41512">
        <ele>137</ele>
        <time>2022-04-08T13:52:08Z</time>
      </trkpt>
      <trkpt lat="43.47628" lon="6.41512">
        <ele>137</ele>
        <time>2022-04-08T13:52:09Z</time>
      </trkpt>
      <trkpt lat="43.47628" lon="6.41512">
        <ele>137</ele>
        <time>2022-04-08T13:52:10Z</time>
      </trkpt>
      <trkpt lat="43.47628" lon="6.41512">
        <ele>137</ele>
        <time>2022-04-08T13:52:11Z</time>
      </trkpt>
      <trkpt lat="43.47627" lon="6.41512">
        <ele>137</ele>
        <time>2022-04-08T13:52:12Z</time>
      </trkpt>
      <trkpt lat="43.47627" lon="6.41513">
        <ele>137</ele>
        <time>2022-04-08T13:52:13Z</time>
      </trkpt>
      <trkpt lat="43.47627" lon="6.41514">
        <ele>137</ele>
        <time>2022-04-08T13:52:14Z</time>
      </trkpt>
      <trkpt lat="43.47627" lon="6.41514">
        <ele>137</ele>
        <time>2022-04-08T13:52:15Z</time>
      </trkpt>
      <trkpt lat="43.47627" lon="6.41514">
        <ele>138</ele>
        <time>2022-04-08T13:52:16Z</time>
      </trkpt>
      <trkpt lat="43.47627" lon="6.41514">
        <ele>138</ele>
        <time>2022-04-08T13:52:17Z</time>
      </trkpt>
      <trkpt lat="43.47627" lon="6.41514">
        <ele>138</ele>
        <time>2022-04-08T13:52:18Z</time>
      </trkpt>
      <trkpt lat="43.47627" lon="6.41514">
        <ele>138</ele>
        <time>2022-04-08T13:52:19Z</time>
      </trkpt>
      <trkpt lat="43.47627" lon="6.41514">
        <ele>138</ele>
        <time>2022-04-08T13:52:20Z</time>
      </trkpt>
      <trkpt lat="43.47627" lon="6.41514">
        <ele>138</ele>
        <time>2022-04-08T13:52:21Z</time>
      </trkpt>
      <trkpt lat="43.47627" lon="6.41514">
        <ele>138</ele>
        <time>2022-04-08T13:52:22Z</time>
      </trkpt>
      <trkpt lat="43.47627" lon="6.41514">
        <ele>138</ele>
        <time>2022-04-08T13:52:23Z</time>
      </trkpt>
      <trkpt lat="43.47627" lon="6.41514">
        <ele>138</ele>
        <time>2022-04-08T13:52:24Z</time>
      </trkpt>
      <trkpt lat="43.47627" lon="6.41514">
        <ele>138</ele>
        <time>2022-04-08T13:52:25Z</time>
      </trkpt>
      <trkpt lat="43.47627" lon="6.41514">
        <ele>138</ele>
        <time>2022-04-08T13:52:26Z</time>
      </trkpt>
      <trkpt lat="43.47627" lon="6.41514">
        <ele>138</ele>
        <time>2022-04-08T13:52:27Z</time>
      </trkpt>
      <trkpt lat="43.47627" lon="6.41514">
        <ele>138</ele>
        <time>2022-04-08T13:52:28Z</time>
      </trkpt>
      <trkpt lat="43.47627" lon="6.41514">
        <ele>138</ele>
        <time>2022-04-08T13:52:29Z</time>
      </trkpt>
      <trkpt lat="43.47627" lon="6.41514">
        <ele>138</ele>
        <time>2022-04-08T13:52:30Z</time>
      </trkpt>
      <trkpt lat="43.47627" lon="6.41514">
        <ele>138</ele>
        <time>2022-04-08T13:52:31Z</time>
      </trkpt>
      <trkpt lat="43.47627" lon="6.41514">
        <ele>138</ele>
        <time>2022-04-08T13:52:32Z</time>
      </trkpt>
      <trkpt lat="43.47627" lon="6.41514">
        <ele>138</ele>
        <time>2022-04-08T13:52:33Z</time>
      </trkpt>
      <trkpt lat="43.47627" lon="6.41514">
        <ele>138</ele>
        <time>2022-04-08T13:52:34Z</time>
      </trkpt>
      <trkpt lat="43.47627" lon="6.41514">
        <ele>138</ele>
        <time>2022-04-08T13:52:35Z</time>
      </trkpt>
      <trkpt lat="43.47627" lon="6.41514">
        <ele>138</ele>
        <time>2022-04-08T13:52:36Z</time>
      </trkpt>
      <trkpt lat="43.47627" lon="6.41514">
        <ele>138</ele>
        <time>2022-04-08T13:52:37Z</time>
      </trkpt>
      <trkpt lat="43.47627" lon="6.41514">
        <ele>138</ele>
        <time>2022-04-08T13:52:38Z</time>
      </trkpt>
      <trkpt lat="43.47627" lon="6.41514">
        <ele>138</ele>
        <time>2022-04-08T13:52:39Z</time>
      </trkpt>
      <trkpt lat="43.47627" lon="6.41514">
        <ele>138</ele>
        <time>2022-04-08T13:52:40Z</time>
      </trkpt>
      <trkpt lat="43.47627" lon="6.41514">
        <ele>138</ele>
        <time>2022-04-08T13:52:41Z</time>
      </trkpt>
      <trkpt lat="43.47627" lon="6.41514">
        <ele>138</ele>
        <time>2022-04-08T13:52:42Z</time>
      </trkpt>
      <trkpt lat="43.47627" lon="6.41514">
        <ele>138</ele>
        <time>2022-04-08T13:52:43Z</time>
      </trkpt>
      <trkpt lat="43.47627" lon="6.41514">
        <ele>138</ele>
        <time>2022-04-08T13:52:44Z</time>
      </trkpt>
      <trkpt lat="43.47627" lon="6.41514">
        <ele>138</ele>
        <time>2022-04-08T13:52:45Z</time>
      </trkpt>
      <trkpt lat="43.47627" lon="6.41514">
        <ele>138</ele>
        <time>2022-04-08T13:52:46Z</time>
      </trkpt>
      <trkpt lat="43.47627" lon="6.41514">
        <ele>138</ele>
        <time>2022-04-08T13:52:47Z</time>
      </trkpt>
      <trkpt lat="43.47627" lon="6.41514">
        <ele>138</ele>
        <time>2022-04-08T13:52:48Z</time>
      </trkpt>
      <trkpt lat="43.47627" lon="6.41514">
        <ele>138</ele>
        <time>2022-04-08T13:52:49Z</time>
      </trkpt>
      <trkpt lat="43.47627" lon="6.41514">
        <ele>138</ele>
        <time>2022-04-08T13:52:50Z</time>
      </trkpt>
      <trkpt lat="43.47627" lon="6.41514">
        <ele>138</ele>
        <time>2022-04-08T13:52:51Z</time>
      </trkpt>
      <trkpt lat="43.47627" lon="6.41514">
        <ele>138</ele>
        <time>2022-04-08T13:52:52Z</time>
      </trkpt>
      <trkpt lat="43.47627" lon="6.41514">
        <ele>138</ele>
        <time>2022-04-08T13:52:53Z</time>
      </trkpt>
      <trkpt lat="43.47627" lon="6.41514">
        <ele>138</ele>
        <time>2022-04-08T13:52:54Z</time>
      </trkpt>
      <trkpt lat="43.47627" lon="6.41514">
        <ele>138</ele>
        <time>2022-04-08T13:52:55Z</time>
      </trkpt>
      <trkpt lat="43.47627" lon="6.41514">
        <ele>138</ele>
        <time>2022-04-08T13:52:56Z</time>
      </trkpt>
      <trkpt lat="43.47627" lon="6.41514">
        <ele>138</ele>
        <time>2022-04-08T13:52:57Z</time>
      </trkpt>
      <trkpt lat="43.47627" lon="6.41514">
        <ele>138</ele>
        <time>2022-04-08T13:52:58Z</time>
      </trkpt>
      <trkpt lat="43.47627" lon="6.41514">
        <ele>138</ele>
        <time>2022-04-08T13:52:59Z</time>
      </trkpt>
      <trkpt lat="43.47627" lon="6.41514">
        <ele>138</ele>
        <time>2022-04-08T13:53:00Z</time>
      </trkpt>
      <trkpt lat="43.47627" lon="6.41514">
        <ele>138</ele>
        <time>2022-04-08T13:53:01Z</time>
      </trkpt>
      <trkpt lat="43.47627" lon="6.41514">
        <ele>138</ele>
        <time>2022-04-08T13:53:02Z</time>
      </trkpt>
      <trkpt lat="43.47627" lon="6.41514">
        <ele>138</ele>
        <time>2022-04-08T13:53:03Z</time>
      </trkpt>
      <trkpt lat="43.47624" lon="6.41515">
        <ele>138</ele>
        <time>2022-04-08T13:53:04Z</time>
      </trkpt>
      <trkpt lat="43.47623" lon="6.41515">
        <ele>138</ele>
        <time>2022-04-08T13:53:05Z</time>
      </trkpt>
      <trkpt lat="43.47624" lon="6.41515">
        <ele>138</ele>
        <time>2022-04-08T13:53:06Z</time>
      </trkpt>
      <trkpt lat="43.47624" lon="6.41515">
        <ele>138</ele>
        <time>2022-04-08T13:53:07Z</time>
      </trkpt>
      <trkpt lat="43.47624" lon="6.41515">
        <ele>138</ele>
        <time>2022-04-08T13:53:08Z</time>
      </trkpt>
      <trkpt lat="43.47624" lon="6.41515">
        <ele>138</ele>
        <time>2022-04-08T13:53:09Z</time>
      </trkpt>
      <trkpt lat="43.47624" lon="6.41515">
        <ele>138</ele>
        <time>2022-04-08T13:53:10Z</time>
      </trkpt>
      <trkpt lat="43.47624" lon="6.41515">
        <ele>138</ele>
        <time>2022-04-08T13:53:11Z</time>
      </trkpt>
      <trkpt lat="43.47624" lon="6.41515">
        <ele>138</ele>
        <time>2022-04-08T13:53:12Z</time>
      </trkpt>
      <trkpt lat="43.47624" lon="6.41515">
        <ele>138</ele>
        <time>2022-04-08T13:53:13Z</time>
      </trkpt>
      <trkpt lat="43.47624" lon="6.41514">
        <ele>138</ele>
        <time>2022-04-08T13:53:14Z</time>
      </trkpt>
      <trkpt lat="43.47624" lon="6.41514">
        <ele>138</ele>
        <time>2022-04-08T13:53:15Z</time>
      </trkpt>
      <trkpt lat="43.47624" lon="6.41514">
        <ele>138</ele>
        <time>2022-04-08T13:53:16Z</time>
      </trkpt>
      <trkpt lat="43.47624" lon="6.41514">
        <ele>138</ele>
        <time>2022-04-08T13:53:17Z</time>
      </trkpt>
      <trkpt lat="43.47624" lon="6.41514">
        <ele>138</ele>
        <time>2022-04-08T13:53:18Z</time>
      </trkpt>
      <trkpt lat="43.47624" lon="6.41514">
        <ele>138</ele>
        <time>2022-04-08T13:53:19Z</time>
      </trkpt>
      <trkpt lat="43.47624" lon="6.41514">
        <ele>138</ele>
        <time>2022-04-08T13:53:20Z</time>
      </trkpt>
      <trkpt lat="43.47624" lon="6.41514">
        <ele>138</ele>
        <time>2022-04-08T13:53:21Z</time>
      </trkpt>
      <trkpt lat="43.47624" lon="6.41514">
        <ele>138</ele>
        <time>2022-04-08T13:53:22Z</time>
      </trkpt>
      <trkpt lat="43.47624" lon="6.41514">
        <ele>138</ele>
        <time>2022-04-08T13:53:23Z</time>
      </trkpt>
      <trkpt lat="43.47624" lon="6.41514">
        <ele>138</ele>
        <time>2022-04-08T13:53:24Z</time>
      </trkpt>
      <trkpt lat="43.47624" lon="6.41514">
        <ele>138</ele>
        <time>2022-04-08T13:53:25Z</time>
      </trkpt>
      <trkpt lat="43.47624" lon="6.41514">
        <ele>138</ele>
        <time>2022-04-08T13:53:26Z</time>
      </trkpt>
      <trkpt lat="43.47624" lon="6.41514">
        <ele>138</ele>
        <time>2022-04-08T13:53:27Z</time>
      </trkpt>
      <trkpt lat="43.47624" lon="6.41514">
        <ele>138</ele>
        <time>2022-04-08T13:53:28Z</time>
      </trkpt>
      <trkpt lat="43.47624" lon="6.41514">
        <ele>138</ele>
        <time>2022-04-08T13:53:29Z</time>
      </trkpt>
      <trkpt lat="43.47624" lon="6.41514">
        <ele>138</ele>
        <time>2022-04-08T13:53:30Z</time>
      </trkpt>
      <trkpt lat="43.47624" lon="6.41514">
        <ele>138</ele>
        <time>2022-04-08T13:53:31Z</time>
      </trkpt>
      <trkpt lat="43.47624" lon="6.41514">
        <ele>138</ele>
        <time>2022-04-08T13:53:32Z</time>
      </trkpt>
      <trkpt lat="43.47624" lon="6.41514">
        <ele>138</ele>
        <time>2022-04-08T13:53:33Z</time>
      </trkpt>
      <trkpt lat="43.47624" lon="6.41514">
        <ele>138</ele>
        <time>2022-04-08T13:53:34Z</time>
      </trkpt>
      <trkpt lat="43.47624" lon="6.41514">
        <ele>138</ele>
        <time>2022-04-08T13:53:35Z</time>
      </trkpt>
      <trkpt lat="43.47624" lon="6.41514">
        <ele>138</ele>
        <time>2022-04-08T13:53:36Z</time>
      </trkpt>
      <trkpt lat="43.47624" lon="6.41514">
        <ele>138</ele>
        <time>2022-04-08T13:53:37Z</time>
      </trkpt>
      <trkpt lat="43.47624" lon="6.41514">
        <ele>138</ele>
        <time>2022-04-08T13:53:38Z</time>
      </trkpt>
      <trkpt lat="43.47624" lon="6.41514">
        <ele>138</ele>
        <time>2022-04-08T13:53:39Z</time>
      </trkpt>
      <trkpt lat="43.47624" lon="6.41514">
        <ele>138</ele>
        <time>2022-04-08T13:53:40Z</time>
      </trkpt>
      <trkpt lat="43.47624" lon="6.41514">
        <ele>138</ele>
        <time>2022-04-08T13:53:41Z</time>
      </trkpt>
      <trkpt lat="43.47624" lon="6.41514">
        <ele>138</ele>
        <time>2022-04-08T13:53:42Z</time>
      </trkpt>
      <trkpt lat="43.47624" lon="6.41514">
        <ele>138</ele>
        <time>2022-04-08T13:53:43Z</time>
      </trkpt>
      <trkpt lat="43.47624" lon="6.41514">
        <ele>138</ele>
        <time>2022-04-08T13:53:44Z</time>
      </trkpt>
      <trkpt lat="43.47624" lon="6.41514">
        <ele>138</ele>
        <time>2022-04-08T13:53:45Z</time>
      </trkpt>
      <trkpt lat="43.47624" lon="6.41514">
        <ele>138</ele>
        <time>2022-04-08T13:53:46Z</time>
      </trkpt>
      <trkpt lat="43.47624" lon="6.41514">
        <ele>138</ele>
        <time>2022-04-08T13:53:47Z</time>
      </trkpt>
      <trkpt lat="43.47624" lon="6.41514">
        <ele>138</ele>
        <time>2022-04-08T13:53:48Z</time>
      </trkpt>
      <trkpt lat="43.47624" lon="6.41514">
        <ele>138</ele>
        <time>2022-04-08T13:53:49Z</time>
      </trkpt>
      <trkpt lat="43.47624" lon="6.41514">
        <ele>138</ele>
        <time>2022-04-08T13:53:50Z</time>
      </trkpt>
      <trkpt lat="43.47624" lon="6.41514">
        <ele>138</ele>
        <time>2022-04-08T13:53:51Z</time>
      </trkpt>
      <trkpt lat="43.47624" lon="6.41514">
        <ele>138</ele>
        <time>2022-04-08T13:53:52Z</time>
      </trkpt>
      <trkpt lat="43.47624" lon="6.41514">
        <ele>138</ele>
        <time>2022-04-08T13:53:53Z</time>
      </trkpt>
      <trkpt lat="43.47624" lon="6.41514">
        <ele>138</ele>
        <time>2022-04-08T13:53:54Z</time>
      </trkpt>
      <trkpt lat="43.47624" lon="6.41514">
        <ele>138</ele>
        <time>2022-04-08T13:53:55Z</time>
      </trkpt>
      <trkpt lat="43.47624" lon="6.41514">
        <ele>138</ele>
        <time>2022-04-08T13:53:56Z</time>
      </trkpt>
      <trkpt lat="43.47624" lon="6.41514">
        <ele>138</ele>
        <time>2022-04-08T13:53:57Z</time>
      </trkpt>
      <trkpt lat="43.47624" lon="6.41514">
        <ele>138</ele>
        <time>2022-04-08T13:53:58Z</time>
      </trkpt>
      <trkpt lat="43.47624" lon="6.41514">
        <ele>138</ele>
        <time>2022-04-08T13:53:59Z</time>
      </trkpt>
      <trkpt lat="43.47624" lon="6.41514">
        <ele>138</ele>
        <time>2022-04-08T13:54:00Z</time>
      </trkpt>
      <trkpt lat="43.47624" lon="6.41514">
        <ele>138</ele>
        <time>2022-04-08T13:54:01Z</time>
      </trkpt>
      <trkpt lat="43.47624" lon="6.41514">
        <ele>138</ele>
        <time>2022-04-08T13:54:02Z</time>
      </trkpt>
      <trkpt lat="43.47624" lon="6.41514">
        <ele>138</ele>
        <time>2022-04-08T13:54:03Z</time>
      </trkpt>
      <trkpt lat="43.47624" lon="6.41514">
        <ele>138</ele>
        <time>2022-04-08T13:54:04Z</time>
      </trkpt>
      <trkpt lat="43.47624" lon="6.41514">
        <ele>138</ele>
        <time>2022-04-08T13:54:05Z</time>
      </trkpt>
      <trkpt lat="43.47624" lon="6.41514">
        <ele>138</ele>
        <time>2022-04-08T13:54:06Z</time>
      </trkpt>
      <trkpt lat="43.47624" lon="6.41514">
        <ele>138</ele>
        <time>2022-04-08T13:54:07Z</time>
      </trkpt>
      <trkpt lat="43.47624" lon="6.41514">
        <ele>138</ele>
        <time>2022-04-08T13:54:08Z</time>
      </trkpt>
      <trkpt lat="43.47624" lon="6.41514">
        <ele>138</ele>
        <time>2022-04-08T13:54:09Z</time>
      </trkpt>
      <trkpt lat="43.47624" lon="6.41514">
        <ele>138</ele>
        <time>2022-04-08T13:54:10Z</time>
      </trkpt>
      <trkpt lat="43.47624" lon="6.41514">
        <ele>138</ele>
        <time>2022-04-08T13:54:11Z</time>
      </trkpt>
      <trkpt lat="43.47624" lon="6.41514">
        <ele>138</ele>
        <time>2022-04-08T13:54:12Z</time>
      </trkpt>
      <trkpt lat="43.47624" lon="6.41514">
        <ele>138</ele>
        <time>2022-04-08T13:54:13Z</time>
      </trkpt>
      <trkpt lat="43.47624" lon="6.41514">
        <ele>138</ele>
        <time>2022-04-08T13:54:14Z</time>
      </trkpt>
      <trkpt lat="43.47624" lon="6.41514">
        <ele>138</ele>
        <time>2022-04-08T13:54:15Z</time>
      </trkpt>
      <trkpt lat="43.47624" lon="6.41514">
        <ele>138</ele>
        <time>2022-04-08T13:54:16Z</time>
      </trkpt>
      <trkpt lat="43.47624" lon="6.41514">
        <ele>138</ele>
        <time>2022-04-08T13:54:17Z</time>
      </trkpt>
      <trkpt lat="43.47624" lon="6.41514">
        <ele>138</ele>
        <time>2022-04-08T13:54:18Z</time>
      </trkpt>
      <trkpt lat="43.47624" lon="6.41514">
        <ele>138</ele>
        <time>2022-04-08T13:54:19Z</time>
      </trkpt>
      <trkpt lat="43.47624" lon="6.41514">
        <ele>138</ele>
        <time>2022-04-08T13:54:20Z</time>
      </trkpt>
      <trkpt lat="43.47624" lon="6.41514">
        <ele>138</ele>
        <time>2022-04-08T13:54:21Z</time>
      </trkpt>
      <trkpt lat="43.47624" lon="6.41514">
        <ele>138</ele>
        <time>2022-04-08T13:54:22Z</time>
      </trkpt>
      <trkpt lat="43.47624" lon="6.41514">
        <ele>138</ele>
        <time>2022-04-08T13:54:23Z</time>
      </trkpt>
      <trkpt lat="43.47624" lon="6.41514">
        <ele>138</ele>
        <time>2022-04-08T13:54:24Z</time>
      </trkpt>
      <trkpt lat="43.47624" lon="6.41514">
        <ele>138</ele>
        <time>2022-04-08T13:54:25Z</time>
      </trkpt>
      <trkpt lat="43.47624" lon="6.41514">
        <ele>138</ele>
        <time>2022-04-08T13:54:26Z</time>
      </trkpt>
      <trkpt lat="43.47624" lon="6.41514">
        <ele>138</ele>
        <time>2022-04-08T13:54:27Z</time>
      </trkpt>
      <trkpt lat="43.47624" lon="6.41514">
        <ele>138</ele>
        <time>2022-04-08T13:54:28Z</time>
      </trkpt>
      <trkpt lat="43.47624" lon="6.41514">
        <ele>138</ele>
        <time>2022-04-08T13:54:29Z</time>
      </trkpt>
      <trkpt lat="43.47624" lon="6.41514">
        <ele>138</ele>
        <time>2022-04-08T13:54:30Z</time>
      </trkpt>
      <trkpt lat="43.47624" lon="6.41514">
        <ele>138</ele>
        <time>2022-04-08T13:54:31Z</time>
      </trkpt>
      <trkpt lat="43.47624" lon="6.41514">
        <ele>138</ele>
        <time>2022-04-08T13:54:32Z</time>
      </trkpt>
      <trkpt lat="43.47624" lon="6.41514">
        <ele>138</ele>
        <time>2022-04-08T13:54:33Z</time>
      </trkpt>
      <trkpt lat="43.47624" lon="6.41514">
        <ele>138</ele>
        <time>2022-04-08T13:54:34Z</time>
      </trkpt>
      <trkpt lat="43.47624" lon="6.41514">
        <ele>138</ele>
        <time>2022-04-08T13:54:35Z</time>
      </trkpt>
      <trkpt lat="43.47624" lon="6.41514">
        <ele>138</ele>
        <time>2022-04-08T13:54:36Z</time>
      </trkpt>
      <trkpt lat="43.47624" lon="6.41514">
        <ele>138</ele>
        <time>2022-04-08T13:54:37Z</time>
      </trkpt>
      <trkpt lat="43.47624" lon="6.41514">
        <ele>138</ele>
        <time>2022-04-08T13:54:38Z</time>
      </trkpt>
      <trkpt lat="43.47624" lon="6.41514">
        <ele>138</ele>
        <time>2022-04-08T13:54:39Z</time>
      </trkpt>
      <trkpt lat="43.47624" lon="6.41514">
        <ele>138</ele>
        <time>2022-04-08T13:54:40Z</time>
      </trkpt>
      <trkpt lat="43.47624" lon="6.41514">
        <ele>138</ele>
        <time>2022-04-08T13:54:41Z</time>
      </trkpt>
      <trkpt lat="43.47624" lon="6.41514">
        <ele>138</ele>
        <time>2022-04-08T13:54:42Z</time>
      </trkpt>
      <trkpt lat="43.47624" lon="6.41514">
        <ele>138</ele>
        <time>2022-04-08T13:54:43Z</time>
      </trkpt>
      <trkpt lat="43.47624" lon="6.41514">
        <ele>138</ele>
        <time>2022-04-08T13:54:44Z</time>
      </trkpt>
      <trkpt lat="43.47624" lon="6.41514">
        <ele>138</ele>
        <time>2022-04-08T13:54:45Z</time>
      </trkpt>
      <trkpt lat="43.47624" lon="6.41514">
        <ele>138</ele>
        <time>2022-04-08T13:54:46Z</time>
      </trkpt>
      <trkpt lat="43.47624" lon="6.41514">
        <ele>138</ele>
        <time>2022-04-08T13:54:47Z</time>
      </trkpt>
      <trkpt lat="43.47624" lon="6.41515">
        <ele>138</ele>
        <time>2022-04-08T13:54:48Z</time>
      </trkpt>
      <trkpt lat="43.47624" lon="6.41515">
        <ele>138</ele>
        <time>2022-04-08T13:54:49Z</time>
      </trkpt>
      <trkpt lat="43.47624" lon="6.41515">
        <ele>138</ele>
        <time>2022-04-08T13:54:50Z</time>
      </trkpt>
      <trkpt lat="43.47624" lon="6.41515">
        <ele>138</ele>
        <time>2022-04-08T13:54:51Z</time>
      </trkpt>
      <trkpt lat="43.47624" lon="6.41515">
        <ele>138</ele>
        <time>2022-04-08T13:54:52Z</time>
      </trkpt>
      <trkpt lat="43.47624" lon="6.41515">
        <ele>138</ele>
        <time>2022-04-08T13:54:53Z</time>
      </trkpt>
      <trkpt lat="43.47624" lon="6.41515">
        <ele>138</ele>
        <time>2022-04-08T13:54:54Z</time>
      </trkpt>
      <trkpt lat="43.47624" lon="6.41515">
        <ele>138</ele>
        <time>2022-04-08T13:54:55Z</time>
      </trkpt>
      <trkpt lat="43.47624" lon="6.41515">
        <ele>138</ele>
        <time>2022-04-08T13:54:56Z</time>
      </trkpt>
      <trkpt lat="43.47624" lon="6.41515">
        <ele>138</ele>
        <time>2022-04-08T13:54:57Z</time>
      </trkpt>
      <trkpt lat="43.47624" lon="6.41515">
        <ele>138</ele>
        <time>2022-04-08T13:54:58Z</time>
      </trkpt>
      <trkpt lat="43.47624" lon="6.41515">
        <ele>138</ele>
        <time>2022-04-08T13:54:59Z</time>
      </trkpt>
      <trkpt lat="43.47624" lon="6.41515">
        <ele>138</ele>
        <time>2022-04-08T13:55:00Z</time>
      </trkpt>
      <trkpt lat="43.47624" lon="6.41515">
        <ele>138</ele>
        <time>2022-04-08T13:55:01Z</time>
      </trkpt>
      <trkpt lat="43.47624" lon="6.41515">
        <ele>138</ele>
        <time>2022-04-08T13:55:02Z</time>
      </trkpt>
      <trkpt lat="43.47624" lon="6.41515">
        <ele>138</ele>
        <time>2022-04-08T13:55:03Z</time>
      </trkpt>
      <trkpt lat="43.47624" lon="6.41515">
        <ele>138</ele>
        <time>2022-04-08T13:55:04Z</time>
      </trkpt>
      <trkpt lat="43.47624" lon="6.41515">
        <ele>138</ele>
        <time>2022-04-08T13:55:05Z</time>
      </trkpt>
      <trkpt lat="43.47624" lon="6.41515">
        <ele>138</ele>
        <time>2022-04-08T13:55:06Z</time>
      </trkpt>
      <trkpt lat="43.47624" lon="6.41515">
        <ele>138</ele>
        <time>2022-04-08T13:55:07Z</time>
      </trkpt>
      <trkpt lat="43.47624" lon="6.41515">
        <ele>138</ele>
        <time>2022-04-08T13:55:08Z</time>
      </trkpt>
      <trkpt lat="43.47624" lon="6.41515">
        <ele>138</ele>
        <time>2022-04-08T13:55:09Z</time>
      </trkpt>
      <trkpt lat="43.47624" lon="6.41515">
        <ele>138</ele>
        <time>2022-04-08T13:55:10Z</time>
      </trkpt>
      <trkpt lat="43.47624" lon="6.41515">
        <ele>138</ele>
        <time>2022-04-08T13:55:11Z</time>
      </trkpt>
      <trkpt lat="43.47624" lon="6.41515">
        <ele>138</ele>
        <time>2022-04-08T13:55:12Z</time>
      </trkpt>
      <trkpt lat="43.47624" lon="6.41515">
        <ele>138</ele>
        <time>2022-04-08T13:55:13Z</time>
      </trkpt>
      <trkpt lat="43.47624" lon="6.41515">
        <ele>138</ele>
        <time>2022-04-08T13:55:14Z</time>
      </trkpt>
      <trkpt lat="43.47624" lon="6.41515">
        <ele>138</ele>
        <time>2022-04-08T13:55:15Z</time>
      </trkpt>
      <trkpt lat="43.47624" lon="6.41515">
        <ele>138</ele>
        <time>2022-04-08T13:55:16Z</time>
      </trkpt>
      <trkpt lat="43.47624" lon="6.41515">
        <ele>138</ele>
        <time>2022-04-08T13:55:17Z</time>
      </trkpt>
      <trkpt lat="43.47624" lon="6.41515">
        <ele>138</ele>
        <time>2022-04-08T13:55:18Z</time>
      </trkpt>
      <trkpt lat="43.47624" lon="6.41515">
        <ele>138</ele>
        <time>2022-04-08T13:55:19Z</time>
      </trkpt>
      <trkpt lat="43.47624" lon="6.41515">
        <ele>138</ele>
        <time>2022-04-08T13:55:20Z</time>
      </trkpt>
      <trkpt lat="43.47624" lon="6.41515">
        <ele>138</ele>
        <time>2022-04-08T13:55:21Z</time>
      </trkpt>
      <trkpt lat="43.47624" lon="6.41515">
        <ele>138</ele>
        <time>2022-04-08T13:55:22Z</time>
      </trkpt>
      <trkpt lat="43.47624" lon="6.41515">
        <ele>138</ele>
        <time>2022-04-08T13:55:23Z</time>
      </trkpt>
      <trkpt lat="43.47624" lon="6.41515">
        <ele>138</ele>
        <time>2022-04-08T13:55:24Z</time>
      </trkpt>
      <trkpt lat="43.47624" lon="6.41515">
        <ele>138</ele>
        <time>2022-04-08T13:55:25Z</time>
      </trkpt>
      <trkpt lat="43.47624" lon="6.41515">
        <ele>138</ele>
        <time>2022-04-08T13:55:26Z</time>
      </trkpt>
      <trkpt lat="43.47624" lon="6.41515">
        <ele>138</ele>
        <time>2022-04-08T13:55:27Z</time>
      </trkpt>
      <trkpt lat="43.47624" lon="6.41515">
        <ele>138</ele>
        <time>2022-04-08T13:55:28Z</time>
      </trkpt>
      <trkpt lat="43.47624" lon="6.41515">
        <ele>138</ele>
        <time>2022-04-08T13:55:29Z</time>
      </trkpt>
      <trkpt lat="43.47624" lon="6.41515">
        <ele>138</ele>
        <time>2022-04-08T13:55:30Z</time>
      </trkpt>
      <trkpt lat="43.47624" lon="6.41515">
        <ele>138</ele>
        <time>2022-04-08T13:55:31Z</time>
      </trkpt>
      <trkpt lat="43.47624" lon="6.41515">
        <ele>138</ele>
        <time>2022-04-08T13:55:32Z</time>
      </trkpt>
      <trkpt lat="43.47624" lon="6.41515">
        <ele>138</ele>
        <time>2022-04-08T13:55:33Z</time>
      </trkpt>
      <trkpt lat="43.47624" lon="6.41515">
        <ele>138</ele>
        <time>2022-04-08T13:55:34Z</time>
      </trkpt>
      <trkpt lat="43.47624" lon="6.41515">
        <ele>138</ele>
        <time>2022-04-08T13:55:35Z</time>
      </trkpt>
      <trkpt lat="43.47624" lon="6.41515">
        <ele>138</ele>
        <time>2022-04-08T13:55:36Z</time>
      </trkpt>
      <trkpt lat="43.47624" lon="6.41515">
        <ele>138</ele>
        <time>2022-04-08T13:55:37Z</time>
      </trkpt>
      <trkpt lat="43.47624" lon="6.41515">
        <ele>138</ele>
        <time>2022-04-08T13:55:38Z</time>
      </trkpt>
      <trkpt lat="43.4765" lon="6.41514">
        <ele>138</ele>
        <time>2022-04-08T13:56:13Z</time>
      </trkpt>
      <trkpt lat="43.4763" lon="6.41503">
        <ele>138</ele>
        <time>2022-04-08T13:56:15Z</time>
      </trkpt>
      <trkpt lat="43.47631" lon="6.41515">
        <ele>138</ele>
        <time>2022-04-08T13:56:17Z</time>
      </trkpt>
      <trkpt lat="43.47631" lon="6.41515">
        <ele>138</ele>
        <time>2022-04-08T13:56:18Z</time>
      </trkpt>
      <trkpt lat="43.47631" lon="6.41515">
        <ele>138</ele>
        <time>2022-04-08T13:56:19Z</time>
      </trkpt>
      <trkpt lat="43.47631" lon="6.41515">
        <ele>138</ele>
        <time>2022-04-08T13:56:20Z</time>
      </trkpt>
      <trkpt lat="43.47631" lon="6.41515">
        <ele>138</ele>
        <time>2022-04-08T13:56:21Z</time>
      </trkpt>
      <trkpt lat="43.47631" lon="6.41515">
        <ele>138</ele>
        <time>2022-04-08T13:56:22Z</time>
      </trkpt>
      <trkpt lat="43.47631" lon="6.41515">
        <ele>138</ele>
        <time>2022-04-08T13:56:23Z</time>
      </trkpt>
      <trkpt lat="43.47631" lon="6.41515">
        <ele>138</ele>
        <time>2022-04-08T13:56:24Z</time>
      </trkpt>
      <trkpt lat="43.47631" lon="6.41515">
        <ele>138</ele>
        <time>2022-04-08T13:56:25Z</time>
      </trkpt>
      <trkpt lat="43.47631" lon="6.41515">
        <ele>138</ele>
        <time>2022-04-08T13:56:26Z</time>
      </trkpt>
      <trkpt lat="43.47631" lon="6.41515">
        <ele>138</ele>
        <time>2022-04-08T13:56:27Z</time>
      </trkpt>
      <trkpt lat="43.47631" lon="6.41515">
        <ele>138</ele>
        <time>2022-04-08T13:56:28Z</time>
      </trkpt>
      <trkpt lat="43.47631" lon="6.41515">
        <ele>139</ele>
        <time>2022-04-08T13:56:29Z</time>
      </trkpt>
      <trkpt lat="43.47631" lon="6.41515">
        <ele>139</ele>
        <time>2022-04-08T13:56:30Z</time>
      </trkpt>
      <trkpt lat="43.47631" lon="6.41515">
        <ele>139</ele>
        <time>2022-04-08T13:56:31Z</time>
      </trkpt>
      <trkpt lat="43.47631" lon="6.41515">
        <ele>139</ele>
        <time>2022-04-08T13:56:32Z</time>
      </trkpt>
      <trkpt lat="43.47631" lon="6.41515">
        <ele>139</ele>
        <time>2022-04-08T13:56:33Z</time>
      </trkpt>
      <trkpt lat="43.47631" lon="6.41515">
        <ele>139</ele>
        <time>2022-04-08T13:56:34Z</time>
      </trkpt>
      <trkpt lat="43.47631" lon="6.41515">
        <ele>139</ele>
        <time>2022-04-08T13:56:35Z</time>
      </trkpt>
      <trkpt lat="43.47631" lon="6.41515">
        <ele>139</ele>
        <time>2022-04-08T13:56:36Z</time>
      </trkpt>
      <trkpt lat="43.47631" lon="6.41515">
        <ele>139</ele>
        <time>2022-04-08T13:56:37Z</time>
      </trkpt>
      <trkpt lat="43.47631" lon="6.41515">
        <ele>139</ele>
        <time>2022-04-08T13:56:38Z</time>
      </trkpt>
      <trkpt lat="43.47631" lon="6.41515">
        <ele>139</ele>
        <time>2022-04-08T13:56:39Z</time>
      </trkpt>
      <trkpt lat="43.47631" lon="6.41515">
        <ele>139</ele>
        <time>2022-04-08T13:56:40Z</time>
      </trkpt>
      <trkpt lat="43.47631" lon="6.41515">
        <ele>139</ele>
        <time>2022-04-08T13:56:41Z</time>
      </trkpt>
      <trkpt lat="43.47631" lon="6.41515">
        <ele>139</ele>
        <time>2022-04-08T13:56:42Z</time>
      </trkpt>
      <trkpt lat="43.47632" lon="6.41517">
        <ele>139</ele>
        <time>2022-04-08T13:56:43Z</time>
      </trkpt>
      <trkpt lat="43.47632" lon="6.41517">
        <ele>139</ele>
        <time>2022-04-08T13:56:44Z</time>
      </trkpt>
      <trkpt lat="43.47632" lon="6.41518">
        <ele>139</ele>
        <time>2022-04-08T13:56:45Z</time>
      </trkpt>
      <trkpt lat="43.47632" lon="6.41518">
        <ele>139</ele>
        <time>2022-04-08T13:56:46Z</time>
      </trkpt>
      <trkpt lat="43.47633" lon="6.41518">
        <ele>139</ele>
        <time>2022-04-08T13:56:47Z</time>
      </trkpt>
      <trkpt lat="43.47633" lon="6.41518">
        <ele>139</ele>
        <time>2022-04-08T13:56:48Z</time>
      </trkpt>
      <trkpt lat="43.47633" lon="6.41518">
        <ele>139</ele>
        <time>2022-04-08T13:56:49Z</time>
      </trkpt>
      <trkpt lat="43.47634" lon="6.41519">
        <ele>144</ele>
        <time>2022-04-08T13:56:50Z</time>
      </trkpt>
      <trkpt lat="43.47635" lon="6.41519">
        <ele>146</ele>
        <time>2022-04-08T13:56:51Z</time>
      </trkpt>
      <trkpt lat="43.47636" lon="6.4152">
        <ele>146</ele>
        <time>2022-04-08T13:56:52Z</time>
      </trkpt>
      <trkpt lat="43.47637" lon="6.41521">
        <ele>147</ele>
        <time>2022-04-08T13:56:53Z</time>
      </trkpt>
      <trkpt lat="43.47637" lon="6.41522">
        <ele>147</ele>
        <time>2022-04-08T13:56:54Z</time>
      </trkpt>
      <trkpt lat="43.47638" lon="6.41522">
        <ele>147</ele>
        <time>2022-04-08T13:56:55Z</time>
      </trkpt>
      <trkpt lat="43.47638" lon="6.41523">
        <ele>147</ele>
        <time>2022-04-08T13:56:56Z</time>
      </trkpt>
      <trkpt lat="43.47639" lon="6.41524">
        <ele>147</ele>
        <time>2022-04-08T13:56:57Z</time>
      </trkpt>
      <trkpt lat="43.47639" lon="6.41524">
        <ele>147</ele>
        <time>2022-04-08T13:56:58Z</time>
      </trkpt>
      <trkpt lat="43.4764" lon="6.41525">
        <ele>147</ele>
        <time>2022-04-08T13:56:59Z</time>
      </trkpt>
      <trkpt lat="43.47641" lon="6.41526">
        <ele>147</ele>
        <time>2022-04-08T13:57:00Z</time>
      </trkpt>
      <trkpt lat="43.47642" lon="6.41526">
        <ele>147</ele>
        <time>2022-04-08T13:57:01Z</time>
      </trkpt>
      <trkpt lat="43.47643" lon="6.41527">
        <ele>147</ele>
        <time>2022-04-08T13:57:02Z</time>
      </trkpt>
      <trkpt lat="43.47644" lon="6.41527">
        <ele>147</ele>
        <time>2022-04-08T13:57:03Z</time>
      </trkpt>
      <trkpt lat="43.47645" lon="6.41527">
        <ele>147</ele>
        <time>2022-04-08T13:57:04Z</time>
      </trkpt>
      <trkpt lat="43.47646" lon="6.41528">
        <ele>146</ele>
        <time>2022-04-08T13:57:05Z</time>
      </trkpt>
      <trkpt lat="43.47646" lon="6.41528">
        <ele>146</ele>
        <time>2022-04-08T13:57:06Z</time>
      </trkpt>
      <trkpt lat="43.47647" lon="6.41528">
        <ele>146</ele>
        <time>2022-04-08T13:57:07Z</time>
      </trkpt>
      <trkpt lat="43.47648" lon="6.41528">
        <ele>146</ele>
        <time>2022-04-08T13:57:08Z</time>
      </trkpt>
      <trkpt lat="43.47648" lon="6.41528">
        <ele>146</ele>
        <time>2022-04-08T13:57:09Z</time>
      </trkpt>
      <trkpt lat="43.4765" lon="6.41528">
        <ele>145</ele>
        <time>2022-04-08T13:57:10Z</time>
      </trkpt>
      <trkpt lat="43.47651" lon="6.41528">
        <ele>145</ele>
        <time>2022-04-08T13:57:11Z</time>
      </trkpt>
      <trkpt lat="43.47653" lon="6.41528">
        <ele>144</ele>
        <time>2022-04-08T13:57:12Z</time>
      </trkpt>
      <trkpt lat="43.47655" lon="6.41529">
        <ele>144</ele>
        <time>2022-04-08T13:57:13Z</time>
      </trkpt>
      <trkpt lat="43.47657" lon="6.41529">
        <ele>144</ele>
        <time>2022-04-08T13:57:14Z</time>
      </trkpt>
      <trkpt lat="43.47658" lon="6.41529">
        <ele>143</ele>
        <time>2022-04-08T13:57:15Z</time>
      </trkpt>
      <trkpt lat="43.4766" lon="6.4153">
        <ele>143</ele>
        <time>2022-04-08T13:57:16Z</time>
      </trkpt>
      <trkpt lat="43.47661" lon="6.4153">
        <ele>143</ele>
        <time>2022-04-08T13:57:17Z</time>
      </trkpt>
      <trkpt lat="43.47663" lon="6.41531">
        <ele>143</ele>
        <time>2022-04-08T13:57:18Z</time>
      </trkpt>
      <trkpt lat="43.47664" lon="6.41531">
        <ele>143</ele>
        <time>2022-04-08T13:57:19Z</time>
      </trkpt>
      <trkpt lat="43.47666" lon="6.41531">
        <ele>143</ele>
        <time>2022-04-08T13:57:20Z</time>
      </trkpt>
      <trkpt lat="43.47667" lon="6.41531">
        <ele>143</ele>
        <time>2022-04-08T13:57:21Z</time>
      </trkpt>
      <trkpt lat="43.47668" lon="6.41531">
        <ele>142</ele>
        <time>2022-04-08T13:57:22Z</time>
      </trkpt>
      <trkpt lat="43.47669" lon="6.41531">
        <ele>142</ele>
        <time>2022-04-08T13:57:23Z</time>
      </trkpt>
      <trkpt lat="43.47671" lon="6.41532">
        <ele>142</ele>
        <time>2022-04-08T13:57:24Z</time>
      </trkpt>
      <trkpt lat="43.47672" lon="6.41532">
        <ele>142</ele>
        <time>2022-04-08T13:57:25Z</time>
      </trkpt>
      <trkpt lat="43.47673" lon="6.41532">
        <ele>142</ele>
        <time>2022-04-08T13:57:26Z</time>
      </trkpt>
      <trkpt lat="43.47675" lon="6.41532">
        <ele>142</ele>
        <time>2022-04-08T13:57:27Z</time>
      </trkpt>
      <trkpt lat="43.47676" lon="6.41533">
        <ele>142</ele>
        <time>2022-04-08T13:57:28Z</time>
      </trkpt>
      <trkpt lat="43.47677" lon="6.41533">
        <ele>142</ele>
        <time>2022-04-08T13:57:29Z</time>
      </trkpt>
      <trkpt lat="43.47679" lon="6.41533">
        <ele>142</ele>
        <time>2022-04-08T13:57:30Z</time>
      </trkpt>
      <trkpt lat="43.4768" lon="6.41533">
        <ele>142</ele>
        <time>2022-04-08T13:57:31Z</time>
      </trkpt>
      <trkpt lat="43.47681" lon="6.41533">
        <ele>142</ele>
        <time>2022-04-08T13:57:32Z</time>
      </trkpt>
      <trkpt lat="43.47682" lon="6.41533">
        <ele>142</ele>
        <time>2022-04-08T13:57:33Z</time>
      </trkpt>
      <trkpt lat="43.47683" lon="6.41533">
        <ele>142</ele>
        <time>2022-04-08T13:57:34Z</time>
      </trkpt>
      <trkpt lat="43.47684" lon="6.41533">
        <ele>141</ele>
        <time>2022-04-08T13:57:35Z</time>
      </trkpt>
      <trkpt lat="43.47685" lon="6.41534">
        <ele>141</ele>
        <time>2022-04-08T13:57:36Z</time>
      </trkpt>
      <trkpt lat="43.47687" lon="6.41534">
        <ele>141</ele>
        <time>2022-04-08T13:57:37Z</time>
      </trkpt>
      <trkpt lat="43.47688" lon="6.41534">
        <ele>141</ele>
        <time>2022-04-08T13:57:38Z</time>
      </trkpt>
      <trkpt lat="43.47689" lon="6.41534">
        <ele>141</ele>
        <time>2022-04-08T13:57:39Z</time>
      </trkpt>
      <trkpt lat="43.4769" lon="6.41534">
        <ele>141</ele>
        <time>2022-04-08T13:57:40Z</time>
      </trkpt>
      <trkpt lat="43.47691" lon="6.41534">
        <ele>141</ele>
        <time>2022-04-08T13:57:41Z</time>
      </trkpt>
      <trkpt lat="43.47692" lon="6.41534">
        <ele>141</ele>
        <time>2022-04-08T13:57:42Z</time>
      </trkpt>
      <trkpt lat="43.47693" lon="6.41534">
        <ele>141</ele>
        <time>2022-04-08T13:57:43Z</time>
      </trkpt>
      <trkpt lat="43.47694" lon="6.41535">
        <ele>141</ele>
        <time>2022-04-08T13:57:44Z</time>
      </trkpt>
      <trkpt lat="43.47695" lon="6.41535">
        <ele>141</ele>
        <time>2022-04-08T13:57:45Z</time>
      </trkpt>
      <trkpt lat="43.47697" lon="6.41535">
        <ele>141</ele>
        <time>2022-04-08T13:57:46Z</time>
      </trkpt>
      <trkpt lat="43.47698" lon="6.41536">
        <ele>141</ele>
        <time>2022-04-08T13:57:47Z</time>
      </trkpt>
      <trkpt lat="43.47699" lon="6.41536">
        <ele>141</ele>
        <time>2022-04-08T13:57:48Z</time>
      </trkpt>
      <trkpt lat="43.477" lon="6.41536">
        <ele>141</ele>
        <time>2022-04-08T13:57:49Z</time>
      </trkpt>
      <trkpt lat="43.47701" lon="6.41537">
        <ele>141</ele>
        <time>2022-04-08T13:57:50Z</time>
      </trkpt>
      <trkpt lat="43.47702" lon="6.41538">
        <ele>141</ele>
        <time>2022-04-08T13:57:51Z</time>
      </trkpt>
      <trkpt lat="43.47703" lon="6.41538">
        <ele>141</ele>
        <time>2022-04-08T13:57:52Z</time>
      </trkpt>
      <trkpt lat="43.47705" lon="6.41538">
        <ele>141</ele>
        <time>2022-04-08T13:57:53Z</time>
      </trkpt>
      <trkpt lat="43.47706" lon="6.41539">
        <ele>141</ele>
        <time>2022-04-08T13:57:54Z</time>
      </trkpt>
      <trkpt lat="43.47707" lon="6.41539">
        <ele>141</ele>
        <time>2022-04-08T13:57:55Z</time>
      </trkpt>
      <trkpt lat="43.47709" lon="6.4154">
        <ele>141</ele>
        <time>2022-04-08T13:57:56Z</time>
      </trkpt>
      <trkpt lat="43.4771" lon="6.4154">
        <ele>142</ele>
        <time>2022-04-08T13:57:57Z</time>
      </trkpt>
      <trkpt lat="43.47711" lon="6.4154">
        <ele>142</ele>
        <time>2022-04-08T13:57:58Z</time>
      </trkpt>
      <trkpt lat="43.47712" lon="6.41541">
        <ele>142</ele>
        <time>2022-04-08T13:57:59Z</time>
      </trkpt>
      <trkpt lat="43.47713" lon="6.41541">
        <ele>142</ele>
        <time>2022-04-08T13:58:00Z</time>
      </trkpt>
      <trkpt lat="43.47714" lon="6.41542">
        <ele>142</ele>
        <time>2022-04-08T13:58:01Z</time>
      </trkpt>
      <trkpt lat="43.47715" lon="6.41543">
        <ele>142</ele>
        <time>2022-04-08T13:58:02Z</time>
      </trkpt>
      <trkpt lat="43.47716" lon="6.41543">
        <ele>142</ele>
        <time>2022-04-08T13:58:03Z</time>
      </trkpt>
      <trkpt lat="43.47717" lon="6.41544">
        <ele>142</ele>
        <time>2022-04-08T13:58:04Z</time>
      </trkpt>
      <trkpt lat="43.47718" lon="6.41545">
        <ele>142</ele>
        <time>2022-04-08T13:58:05Z</time>
      </trkpt>
      <trkpt lat="43.47719" lon="6.41545">
        <ele>142</ele>
        <time>2022-04-08T13:58:06Z</time>
      </trkpt>
      <trkpt lat="43.4772" lon="6.41546">
        <ele>141</ele>
        <time>2022-04-08T13:58:07Z</time>
      </trkpt>
      <trkpt lat="43.47721" lon="6.41547">
        <ele>141</ele>
        <time>2022-04-08T13:58:08Z</time>
      </trkpt>
      <trkpt lat="43.47722" lon="6.41547">
        <ele>141</ele>
        <time>2022-04-08T13:58:09Z</time>
      </trkpt>
      <trkpt lat="43.47723" lon="6.41548">
        <ele>141</ele>
        <time>2022-04-08T13:58:10Z</time>
      </trkpt>
      <trkpt lat="43.47724" lon="6.41548">
        <ele>141</ele>
        <time>2022-04-08T13:58:11Z</time>
      </trkpt>
      <trkpt lat="43.47725" lon="6.41549">
        <ele>141</ele>
        <time>2022-04-08T13:58:12Z</time>
      </trkpt>
      <trkpt lat="43.47726" lon="6.4155">
        <ele>141</ele>
        <time>2022-04-08T13:58:13Z</time>
      </trkpt>
      <trkpt lat="43.47727" lon="6.4155">
        <ele>141</ele>
        <time>2022-04-08T13:58:14Z</time>
      </trkpt>
      <trkpt lat="43.47728" lon="6.4155">
        <ele>141</ele>
        <time>2022-04-08T13:58:15Z</time>
      </trkpt>
      <trkpt lat="43.47729" lon="6.41551">
        <ele>141</ele>
        <time>2022-04-08T13:58:16Z</time>
      </trkpt>
      <trkpt lat="43.4773" lon="6.41551">
        <ele>141</ele>
        <time>2022-04-08T13:58:17Z</time>
      </trkpt>
      <trkpt lat="43.47731" lon="6.41552">
        <ele>141</ele>
        <time>2022-04-08T13:58:18Z</time>
      </trkpt>
      <trkpt lat="43.47732" lon="6.41552">
        <ele>141</ele>
        <time>2022-04-08T13:58:19Z</time>
      </trkpt>
      <trkpt lat="43.47733" lon="6.41553">
        <ele>141</ele>
        <time>2022-04-08T13:58:20Z</time>
      </trkpt>
      <trkpt lat="43.47734" lon="6.41553">
        <ele>141</ele>
        <time>2022-04-08T13:58:21Z</time>
      </trkpt>
      <trkpt lat="43.47735" lon="6.41554">
        <ele>141</ele>
        <time>2022-04-08T13:58:22Z</time>
      </trkpt>
      <trkpt lat="43.47736" lon="6.41554">
        <ele>141</ele>
        <time>2022-04-08T13:58:23Z</time>
      </trkpt>
      <trkpt lat="43.47737" lon="6.41554">
        <ele>142</ele>
        <time>2022-04-08T13:58:24Z</time>
      </trkpt>
      <trkpt lat="43.47738" lon="6.41554">
        <ele>142</ele>
        <time>2022-04-08T13:58:25Z</time>
      </trkpt>
      <trkpt lat="43.47739" lon="6.41554">
        <ele>142</ele>
        <time>2022-04-08T13:58:26Z</time>
      </trkpt>
      <trkpt lat="43.4774" lon="6.41554">
        <ele>142</ele>
        <time>2022-04-08T13:58:27Z</time>
      </trkpt>
      <trkpt lat="43.47742" lon="6.41554">
        <ele>142</ele>
        <time>2022-04-08T13:58:28Z</time>
      </trkpt>
      <trkpt lat="43.47743" lon="6.41554">
        <ele>142</ele>
        <time>2022-04-08T13:58:29Z</time>
      </trkpt>
      <trkpt lat="43.47744" lon="6.41554">
        <ele>142</ele>
        <time>2022-04-08T13:58:30Z</time>
      </trkpt>
      <trkpt lat="43.47745" lon="6.41554">
        <ele>142</ele>
        <time>2022-04-08T13:58:31Z</time>
      </trkpt>
      <trkpt lat="43.47746" lon="6.41554">
        <ele>142</ele>
        <time>2022-04-08T13:58:32Z</time>
      </trkpt>
      <trkpt lat="43.47747" lon="6.41555">
        <ele>143</ele>
        <time>2022-04-08T13:58:33Z</time>
      </trkpt>
      <trkpt lat="43.47748" lon="6.41555">
        <ele>143</ele>
        <time>2022-04-08T13:58:34Z</time>
      </trkpt>
      <trkpt lat="43.47749" lon="6.41555">
        <ele>143</ele>
        <time>2022-04-08T13:58:35Z</time>
      </trkpt>
      <trkpt lat="43.4775" lon="6.41555">
        <ele>143</ele>
        <time>2022-04-08T13:58:36Z</time>
      </trkpt>
      <trkpt lat="43.4775" lon="6.41554">
        <ele>143</ele>
        <time>2022-04-08T13:58:37Z</time>
      </trkpt>
      <trkpt lat="43.47751" lon="6.41554">
        <ele>143</ele>
        <time>2022-04-08T13:58:38Z</time>
      </trkpt>
      <trkpt lat="43.47752" lon="6.41554">
        <ele>143</ele>
        <time>2022-04-08T13:58:39Z</time>
      </trkpt>
      <trkpt lat="43.47753" lon="6.41554">
        <ele>143</ele>
        <time>2022-04-08T13:58:40Z</time>
      </trkpt>
      <trkpt lat="43.47754" lon="6.41553">
        <ele>143</ele>
        <time>2022-04-08T13:58:41Z</time>
      </trkpt>
      <trkpt lat="43.47755" lon="6.41553">
        <ele>144</ele>
        <time>2022-04-08T13:58:42Z</time>
      </trkpt>
      <trkpt lat="43.47756" lon="6.41553">
        <ele>144</ele>
        <time>2022-04-08T13:58:43Z</time>
      </trkpt>
      <trkpt lat="43.47757" lon="6.41553">
        <ele>144</ele>
        <time>2022-04-08T13:58:44Z</time>
      </trkpt>
      <trkpt lat="43.47758" lon="6.41553">
        <ele>144</ele>
        <time>2022-04-08T13:58:45Z</time>
      </trkpt>
      <trkpt lat="43.47759" lon="6.41553">
        <ele>144</ele>
        <time>2022-04-08T13:58:46Z</time>
      </trkpt>
      <trkpt lat="43.4776" lon="6.41553">
        <ele>144</ele>
        <time>2022-04-08T13:58:47Z</time>
      </trkpt>
      <trkpt lat="43.47761" lon="6.41552">
        <ele>144</ele>
        <time>2022-04-08T13:58:48Z</time>
      </trkpt>
      <trkpt lat="43.47761" lon="6.41552">
        <ele>144</ele>
        <time>2022-04-08T13:58:49Z</time>
      </trkpt>
      <trkpt lat="43.47762" lon="6.41551">
        <ele>144</ele>
        <time>2022-04-08T13:58:50Z</time>
      </trkpt>
      <trkpt lat="43.47763" lon="6.4155">
        <ele>144</ele>
        <time>2022-04-08T13:58:51Z</time>
      </trkpt>
      <trkpt lat="43.47764" lon="6.4155">
        <ele>144</ele>
        <time>2022-04-08T13:58:52Z</time>
      </trkpt>
      <trkpt lat="43.47765" lon="6.41549">
        <ele>144</ele>
        <time>2022-04-08T13:58:53Z</time>
      </trkpt>
      <trkpt lat="43.47766" lon="6.41548">
        <ele>144</ele>
        <time>2022-04-08T13:58:54Z</time>
      </trkpt>
      <trkpt lat="43.47767" lon="6.41547">
        <ele>144</ele>
        <time>2022-04-08T13:58:55Z</time>
      </trkpt>
      <trkpt lat="43.47767" lon="6.41547">
        <ele>144</ele>
        <time>2022-04-08T13:58:56Z</time>
      </trkpt>
      <trkpt lat="43.47768" lon="6.41546">
        <ele>144</ele>
        <time>2022-04-08T13:58:57Z</time>
      </trkpt>
      <trkpt lat="43.47769" lon="6.41546">
        <ele>144</ele>
        <time>2022-04-08T13:58:58Z</time>
      </trkpt>
      <trkpt lat="43.47769" lon="6.41545">
        <ele>144</ele>
        <time>2022-04-08T13:58:59Z</time>
      </trkpt>
      <trkpt lat="43.4777" lon="6.41544">
        <ele>144</ele>
        <time>2022-04-08T13:59:00Z</time>
      </trkpt>
      <trkpt lat="43.4777" lon="6.41544">
        <ele>144</ele>
        <time>2022-04-08T13:59:01Z</time>
      </trkpt>
      <trkpt lat="43.47771" lon="6.41543">
        <ele>144</ele>
        <time>2022-04-08T13:59:02Z</time>
      </trkpt>
      <trkpt lat="43.47772" lon="6.41543">
        <ele>145</ele>
        <time>2022-04-08T13:59:03Z</time>
      </trkpt>
      <trkpt lat="43.47773" lon="6.41542">
        <ele>145</ele>
        <time>2022-04-08T13:59:04Z</time>
      </trkpt>
      <trkpt lat="43.47773" lon="6.41541">
        <ele>145</ele>
        <time>2022-04-08T13:59:05Z</time>
      </trkpt>
      <trkpt lat="43.47774" lon="6.41541">
        <ele>145</ele>
        <time>2022-04-08T13:59:06Z</time>
      </trkpt>
      <trkpt lat="43.47774" lon="6.4154">
        <ele>145</ele>
        <time>2022-04-08T13:59:07Z</time>
      </trkpt>
      <trkpt lat="43.47775" lon="6.4154">
        <ele>145</ele>
        <time>2022-04-08T13:59:08Z</time>
      </trkpt>
      <trkpt lat="43.47775" lon="6.4154">
        <ele>145</ele>
        <time>2022-04-08T13:59:09Z</time>
      </trkpt>
      <trkpt lat="43.47776" lon="6.41539">
        <ele>145</ele>
        <time>2022-04-08T13:59:10Z</time>
      </trkpt>
      <trkpt lat="43.47776" lon="6.41539">
        <ele>145</ele>
        <time>2022-04-08T13:59:11Z</time>
      </trkpt>
      <trkpt lat="43.47777" lon="6.41539">
        <ele>145</ele>
        <time>2022-04-08T13:59:12Z</time>
      </trkpt>
      <trkpt lat="43.47777" lon="6.41538">
        <ele>145</ele>
        <time>2022-04-08T13:59:13Z</time>
      </trkpt>
      <trkpt lat="43.47778" lon="6.41538">
        <ele>145</ele>
        <time>2022-04-08T13:59:14Z</time>
      </trkpt>
      <trkpt lat="43.47778" lon="6.41537">
        <ele>145</ele>
        <time>2022-04-08T13:59:15Z</time>
      </trkpt>
      <trkpt lat="43.47779" lon="6.41537">
        <ele>145</ele>
        <time>2022-04-08T13:59:16Z</time>
      </trkpt>
      <trkpt lat="43.4778" lon="6.41537">
        <ele>145</ele>
        <time>2022-04-08T13:59:17Z</time>
      </trkpt>
      <trkpt lat="43.4778" lon="6.41537">
        <ele>145</ele>
        <time>2022-04-08T13:59:18Z</time>
      </trkpt>
      <trkpt lat="43.47781" lon="6.41536">
        <ele>145</ele>
        <time>2022-04-08T13:59:19Z</time>
      </trkpt>
      <trkpt lat="43.47782" lon="6.41536">
        <ele>145</ele>
        <time>2022-04-08T13:59:20Z</time>
      </trkpt>
      <trkpt lat="43.47783" lon="6.41535">
        <ele>145</ele>
        <time>2022-04-08T13:59:21Z</time>
      </trkpt>
      <trkpt lat="43.47784" lon="6.41534">
        <ele>145</ele>
        <time>2022-04-08T13:59:22Z</time>
      </trkpt>
      <trkpt lat="43.47784" lon="6.41534">
        <ele>145</ele>
        <time>2022-04-08T13:59:23Z</time>
      </trkpt>
      <trkpt lat="43.47785" lon="6.41533">
        <ele>145</ele>
        <time>2022-04-08T13:59:24Z</time>
      </trkpt>
      <trkpt lat="43.47786" lon="6.41533">
        <ele>145</ele>
        <time>2022-04-08T13:59:25Z</time>
      </trkpt>
      <trkpt lat="43.47787" lon="6.41532">
        <ele>145</ele>
        <time>2022-04-08T13:59:26Z</time>
      </trkpt>
      <trkpt lat="43.47789" lon="6.41532">
        <ele>145</ele>
        <time>2022-04-08T13:59:27Z</time>
      </trkpt>
      <trkpt lat="43.47791" lon="6.41532">
        <ele>146</ele>
        <time>2022-04-08T13:59:28Z</time>
      </trkpt>
      <trkpt lat="43.47793" lon="6.41532">
        <ele>147</ele>
        <time>2022-04-08T13:59:29Z</time>
      </trkpt>
      <trkpt lat="43.47795" lon="6.41532">
        <ele>147</ele>
        <time>2022-04-08T13:59:30Z</time>
      </trkpt>
      <trkpt lat="43.47796" lon="6.41532">
        <ele>147</ele>
        <time>2022-04-08T13:59:31Z</time>
      </trkpt>
      <trkpt lat="43.47798" lon="6.41532">
        <ele>147</ele>
        <time>2022-04-08T13:59:32Z</time>
      </trkpt>
      <trkpt lat="43.478" lon="6.41532">
        <ele>147</ele>
        <time>2022-04-08T13:59:33Z</time>
      </trkpt>
      <trkpt lat="43.47801" lon="6.41531">
        <ele>147</ele>
        <time>2022-04-08T13:59:34Z</time>
      </trkpt>
      <trkpt lat="43.47802" lon="6.4153">
        <ele>147</ele>
        <time>2022-04-08T13:59:35Z</time>
      </trkpt>
      <trkpt lat="43.47803" lon="6.41529">
        <ele>147</ele>
        <time>2022-04-08T13:59:36Z</time>
      </trkpt>
      <trkpt lat="43.47804" lon="6.41528">
        <ele>147</ele>
        <time>2022-04-08T13:59:37Z</time>
      </trkpt>
      <trkpt lat="43.47804" lon="6.41528">
        <ele>147</ele>
        <time>2022-04-08T13:59:38Z</time>
      </trkpt>
      <trkpt lat="43.47805" lon="6.41527">
        <ele>147</ele>
        <time>2022-04-08T13:59:39Z</time>
      </trkpt>
      <trkpt lat="43.47806" lon="6.41526">
        <ele>147</ele>
        <time>2022-04-08T13:59:40Z</time>
      </trkpt>
      <trkpt lat="43.47807" lon="6.41525">
        <ele>147</ele>
        <time>2022-04-08T13:59:41Z</time>
      </trkpt>
      <trkpt lat="43.47808" lon="6.41525">
        <ele>147</ele>
        <time>2022-04-08T13:59:42Z</time>
      </trkpt>
      <trkpt lat="43.47809" lon="6.41524">
        <ele>147</ele>
        <time>2022-04-08T13:59:43Z</time>
      </trkpt>
      <trkpt lat="43.4781" lon="6.41523">
        <ele>147</ele>
        <time>2022-04-08T13:59:44Z</time>
      </trkpt>
      <trkpt lat="43.47811" lon="6.41523">
        <ele>147</ele>
        <time>2022-04-08T13:59:45Z</time>
      </trkpt>
      <trkpt lat="43.47812" lon="6.41522">
        <ele>147</ele>
        <time>2022-04-08T13:59:46Z</time>
      </trkpt>
      <trkpt lat="43.47813" lon="6.41522">
        <ele>148</ele>
        <time>2022-04-08T13:59:47Z</time>
      </trkpt>
      <trkpt lat="43.47814" lon="6.41521">
        <ele>148</ele>
        <time>2022-04-08T13:59:48Z</time>
      </trkpt>
      <trkpt lat="43.47815" lon="6.4152">
        <ele>148</ele>
        <time>2022-04-08T13:59:49Z</time>
      </trkpt>
      <trkpt lat="43.47816" lon="6.4152">
        <ele>148</ele>
        <time>2022-04-08T13:59:50Z</time>
      </trkpt>
      <trkpt lat="43.47817" lon="6.41519">
        <ele>148</ele>
        <time>2022-04-08T13:59:51Z</time>
      </trkpt>
      <trkpt lat="43.47817" lon="6.41519">
        <ele>148</ele>
        <time>2022-04-08T13:59:52Z</time>
      </trkpt>
      <trkpt lat="43.47818" lon="6.41518">
        <ele>147</ele>
        <time>2022-04-08T13:59:53Z</time>
      </trkpt>
      <trkpt lat="43.47819" lon="6.41519">
        <ele>147</ele>
        <time>2022-04-08T13:59:54Z</time>
      </trkpt>
      <trkpt lat="43.4782" lon="6.4152">
        <ele>147</ele>
        <time>2022-04-08T13:59:55Z</time>
      </trkpt>
      <trkpt lat="43.47821" lon="6.4152">
        <ele>147</ele>
        <time>2022-04-08T13:59:56Z</time>
      </trkpt>
      <trkpt lat="43.47822" lon="6.4152">
        <ele>147</ele>
        <time>2022-04-08T13:59:57Z</time>
      </trkpt>
      <trkpt lat="43.47824" lon="6.4152">
        <ele>147</ele>
        <time>2022-04-08T13:59:58Z</time>
      </trkpt>
      <trkpt lat="43.47825" lon="6.4152">
        <ele>147</ele>
        <time>2022-04-08T13:59:59Z</time>
      </trkpt>
      <trkpt lat="43.47826" lon="6.4152">
        <ele>147</ele>
        <time>2022-04-08T14:00:00Z</time>
      </trkpt>
      <trkpt lat="43.47827" lon="6.4152">
        <ele>147</ele>
        <time>2022-04-08T14:00:01Z</time>
      </trkpt>
      <trkpt lat="43.47828" lon="6.41519">
        <ele>147</ele>
        <time>2022-04-08T14:00:02Z</time>
      </trkpt>
      <trkpt lat="43.47829" lon="6.41519">
        <ele>147</ele>
        <time>2022-04-08T14:00:03Z</time>
      </trkpt>
      <trkpt lat="43.4783" lon="6.41519">
        <ele>147</ele>
        <time>2022-04-08T14:00:04Z</time>
      </trkpt>
      <trkpt lat="43.47831" lon="6.41518">
        <ele>146</ele>
        <time>2022-04-08T14:00:05Z</time>
      </trkpt>
      <trkpt lat="43.47832" lon="6.41518">
        <ele>146</ele>
        <time>2022-04-08T14:00:06Z</time>
      </trkpt>
      <trkpt lat="43.47833" lon="6.41517">
        <ele>146</ele>
        <time>2022-04-08T14:00:07Z</time>
      </trkpt>
      <trkpt lat="43.47834" lon="6.41517">
        <ele>146</ele>
        <time>2022-04-08T14:00:08Z</time>
      </trkpt>
      <trkpt lat="43.47835" lon="6.41516">
        <ele>145</ele>
        <time>2022-04-08T14:00:09Z</time>
      </trkpt>
      <trkpt lat="43.47836" lon="6.41516">
        <ele>145</ele>
        <time>2022-04-08T14:00:10Z</time>
      </trkpt>
      <trkpt lat="43.47837" lon="6.41515">
        <ele>145</ele>
        <time>2022-04-08T14:00:11Z</time>
      </trkpt>
      <trkpt lat="43.47838" lon="6.41514">
        <ele>145</ele>
        <time>2022-04-08T14:00:12Z</time>
      </trkpt>
      <trkpt lat="43.47839" lon="6.41513">
        <ele>145</ele>
        <time>2022-04-08T14:00:13Z</time>
      </trkpt>
      <trkpt lat="43.4784" lon="6.41513">
        <ele>145</ele>
        <time>2022-04-08T14:00:14Z</time>
      </trkpt>
      <trkpt lat="43.47841" lon="6.41512">
        <ele>145</ele>
        <time>2022-04-08T14:00:15Z</time>
      </trkpt>
      <trkpt lat="43.47843" lon="6.41512">
        <ele>145</ele>
        <time>2022-04-08T14:00:16Z</time>
      </trkpt>
      <trkpt lat="43.47844" lon="6.41512">
        <ele>145</ele>
        <time>2022-04-08T14:00:17Z</time>
      </trkpt>
      <trkpt lat="43.47845" lon="6.41512">
        <ele>145</ele>
        <time>2022-04-08T14:00:18Z</time>
      </trkpt>
      <trkpt lat="43.47847" lon="6.41512">
        <ele>145</ele>
        <time>2022-04-08T14:00:19Z</time>
      </trkpt>
      <trkpt lat="43.47848" lon="6.41512">
        <ele>145</ele>
        <time>2022-04-08T14:00:20Z</time>
      </trkpt>
      <trkpt lat="43.47849" lon="6.41511">
        <ele>145</ele>
        <time>2022-04-08T14:00:21Z</time>
      </trkpt>
      <trkpt lat="43.4785" lon="6.41511">
        <ele>145</ele>
        <time>2022-04-08T14:00:22Z</time>
      </trkpt>
      <trkpt lat="43.47852" lon="6.4151">
        <ele>145</ele>
        <time>2022-04-08T14:00:23Z</time>
      </trkpt>
      <trkpt lat="43.47853" lon="6.4151">
        <ele>145</ele>
        <time>2022-04-08T14:00:24Z</time>
      </trkpt>
      <trkpt lat="43.47854" lon="6.4151">
        <ele>146</ele>
        <time>2022-04-08T14:00:25Z</time>
      </trkpt>
      <trkpt lat="43.47855" lon="6.41509">
        <ele>146</ele>
        <time>2022-04-08T14:00:26Z</time>
      </trkpt>
      <trkpt lat="43.47856" lon="6.41509">
        <ele>146</ele>
        <time>2022-04-08T14:00:27Z</time>
      </trkpt>
      <trkpt lat="43.47857" lon="6.41508">
        <ele>146</ele>
        <time>2022-04-08T14:00:28Z</time>
      </trkpt>
      <trkpt lat="43.47858" lon="6.41508">
        <ele>146</ele>
        <time>2022-04-08T14:00:29Z</time>
      </trkpt>
      <trkpt lat="43.47859" lon="6.41507">
        <ele>146</ele>
        <time>2022-04-08T14:00:30Z</time>
      </trkpt>
      <trkpt lat="43.4786" lon="6.41508">
        <ele>146</ele>
        <time>2022-04-08T14:00:31Z</time>
      </trkpt>
      <trkpt lat="43.47861" lon="6.41508">
        <ele>147</ele>
        <time>2022-04-08T14:00:32Z</time>
      </trkpt>
      <trkpt lat="43.47862" lon="6.41507">
        <ele>147</ele>
        <time>2022-04-08T14:00:33Z</time>
      </trkpt>
      <trkpt lat="43.47863" lon="6.41507">
        <ele>147</ele>
        <time>2022-04-08T14:00:34Z</time>
      </trkpt>
      <trkpt lat="43.47864" lon="6.41507">
        <ele>147</ele>
        <time>2022-04-08T14:00:35Z</time>
      </trkpt>
      <trkpt lat="43.47865" lon="6.41507">
        <ele>147</ele>
        <time>2022-04-08T14:00:36Z</time>
      </trkpt>
      <trkpt lat="43.47865" lon="6.41507">
        <ele>147</ele>
        <time>2022-04-08T14:00:37Z</time>
      </trkpt>
      <trkpt lat="43.47866" lon="6.41507">
        <ele>147</ele>
        <time>2022-04-08T14:00:38Z</time>
      </trkpt>
      <trkpt lat="43.47867" lon="6.41507">
        <ele>147</ele>
        <time>2022-04-08T14:00:39Z</time>
      </trkpt>
      <trkpt lat="43.47868" lon="6.41507">
        <ele>148</ele>
        <time>2022-04-08T14:00:40Z</time>
      </trkpt>
      <trkpt lat="43.47869" lon="6.41506">
        <ele>148</ele>
        <time>2022-04-08T14:00:41Z</time>
      </trkpt>
      <trkpt lat="43.4787" lon="6.41506">
        <ele>148</ele>
        <time>2022-04-08T14:00:42Z</time>
      </trkpt>
      <trkpt lat="43.47871" lon="6.41506">
        <ele>148</ele>
        <time>2022-04-08T14:00:43Z</time>
      </trkpt>
      <trkpt lat="43.47872" lon="6.41506">
        <ele>148</ele>
        <time>2022-04-08T14:00:44Z</time>
      </trkpt>
      <trkpt lat="43.47873" lon="6.41507">
        <ele>148</ele>
        <time>2022-04-08T14:00:45Z</time>
      </trkpt>
      <trkpt lat="43.47874" lon="6.41509">
        <ele>148</ele>
        <time>2022-04-08T14:00:46Z</time>
      </trkpt>
      <trkpt lat="43.47875" lon="6.4151">
        <ele>148</ele>
        <time>2022-04-08T14:00:47Z</time>
      </trkpt>
      <trkpt lat="43.47876" lon="6.4151">
        <ele>148</ele>
        <time>2022-04-08T14:00:48Z</time>
      </trkpt>
      <trkpt lat="43.47877" lon="6.4151">
        <ele>148</ele>
        <time>2022-04-08T14:00:49Z</time>
      </trkpt>
      <trkpt lat="43.47878" lon="6.4151">
        <ele>148</ele>
        <time>2022-04-08T14:00:50Z</time>
      </trkpt>
      <trkpt lat="43.47879" lon="6.4151">
        <ele>148</ele>
        <time>2022-04-08T14:00:51Z</time>
      </trkpt>
      <trkpt lat="43.4788" lon="6.4151">
        <ele>148</ele>
        <time>2022-04-08T14:00:52Z</time>
      </trkpt>
      <trkpt lat="43.47881" lon="6.4151">
        <ele>148</ele>
        <time>2022-04-08T14:00:53Z</time>
      </trkpt>
      <trkpt lat="43.47882" lon="6.4151">
        <ele>149</ele>
        <time>2022-04-08T14:00:54Z</time>
      </trkpt>
      <trkpt lat="43.47882" lon="6.4151">
        <ele>149</ele>
        <time>2022-04-08T14:00:55Z</time>
      </trkpt>
      <trkpt lat="43.47883" lon="6.4151">
        <ele>149</ele>
        <time>2022-04-08T14:00:56Z</time>
      </trkpt>
      <trkpt lat="43.47885" lon="6.4151">
        <ele>149</ele>
        <time>2022-04-08T14:00:57Z</time>
      </trkpt>
      <trkpt lat="43.47886" lon="6.4151">
        <ele>149</ele>
        <time>2022-04-08T14:00:58Z</time>
      </trkpt>
      <trkpt lat="43.47886" lon="6.41511">
        <ele>149</ele>
        <time>2022-04-08T14:00:59Z</time>
      </trkpt>
      <trkpt lat="43.47888" lon="6.41512">
        <ele>149</ele>
        <time>2022-04-08T14:01:00Z</time>
      </trkpt>
      <trkpt lat="43.47889" lon="6.41513">
        <ele>149</ele>
        <time>2022-04-08T14:01:01Z</time>
      </trkpt>
      <trkpt lat="43.4789" lon="6.41514">
        <ele>150</ele>
        <time>2022-04-08T14:01:02Z</time>
      </trkpt>
      <trkpt lat="43.47892" lon="6.41514">
        <ele>150</ele>
        <time>2022-04-08T14:01:03Z</time>
      </trkpt>
      <trkpt lat="43.47893" lon="6.41514">
        <ele>150</ele>
        <time>2022-04-08T14:01:04Z</time>
      </trkpt>
      <trkpt lat="43.47894" lon="6.41514">
        <ele>151</ele>
        <time>2022-04-08T14:01:05Z</time>
      </trkpt>
      <trkpt lat="43.47895" lon="6.41514">
        <ele>151</ele>
        <time>2022-04-08T14:01:06Z</time>
      </trkpt>
      <trkpt lat="43.47896" lon="6.41514">
        <ele>151</ele>
        <time>2022-04-08T14:01:07Z</time>
      </trkpt>
      <trkpt lat="43.47897" lon="6.41514">
        <ele>151</ele>
        <time>2022-04-08T14:01:08Z</time>
      </trkpt>
      <trkpt lat="43.47898" lon="6.41513">
        <ele>151</ele>
        <time>2022-04-08T14:01:09Z</time>
      </trkpt>
      <trkpt lat="43.47899" lon="6.41514">
        <ele>151</ele>
        <time>2022-04-08T14:01:10Z</time>
      </trkpt>
      <trkpt lat="43.479" lon="6.41514">
        <ele>152</ele>
        <time>2022-04-08T14:01:11Z</time>
      </trkpt>
      <trkpt lat="43.47901" lon="6.41514">
        <ele>152</ele>
        <time>2022-04-08T14:01:12Z</time>
      </trkpt>
      <trkpt lat="43.47902" lon="6.41514">
        <ele>153</ele>
        <time>2022-04-08T14:01:13Z</time>
      </trkpt>
      <trkpt lat="43.47903" lon="6.41515">
        <ele>153</ele>
        <time>2022-04-08T14:01:14Z</time>
      </trkpt>
      <trkpt lat="43.47904" lon="6.41515">
        <ele>153</ele>
        <time>2022-04-08T14:01:15Z</time>
      </trkpt>
      <trkpt lat="43.47905" lon="6.41515">
        <ele>153</ele>
        <time>2022-04-08T14:01:16Z</time>
      </trkpt>
      <trkpt lat="43.47906" lon="6.41516">
        <ele>153</ele>
        <time>2022-04-08T14:01:17Z</time>
      </trkpt>
      <trkpt lat="43.47908" lon="6.41518">
        <ele>153</ele>
        <time>2022-04-08T14:01:18Z</time>
      </trkpt>
      <trkpt lat="43.47909" lon="6.41519">
        <ele>153</ele>
        <time>2022-04-08T14:01:19Z</time>
      </trkpt>
      <trkpt lat="43.4791" lon="6.4152">
        <ele>154</ele>
        <time>2022-04-08T14:01:20Z</time>
      </trkpt>
      <trkpt lat="43.47911" lon="6.41521">
        <ele>154</ele>
        <time>2022-04-08T14:01:21Z</time>
      </trkpt>
      <trkpt lat="43.47912" lon="6.41522">
        <ele>154</ele>
        <time>2022-04-08T14:01:22Z</time>
      </trkpt>
      <trkpt lat="43.47913" lon="6.41523">
        <ele>154</ele>
        <time>2022-04-08T14:01:23Z</time>
      </trkpt>
      <trkpt lat="43.47914" lon="6.41524">
        <ele>154</ele>
        <time>2022-04-08T14:01:24Z</time>
      </trkpt>
      <trkpt lat="43.47915" lon="6.41525">
        <ele>154</ele>
        <time>2022-04-08T14:01:25Z</time>
      </trkpt>
      <trkpt lat="43.47916" lon="6.41526">
        <ele>154</ele>
        <time>2022-04-08T14:01:26Z</time>
      </trkpt>
      <trkpt lat="43.47916" lon="6.41528">
        <ele>154</ele>
        <time>2022-04-08T14:01:27Z</time>
      </trkpt>
      <trkpt lat="43.47917" lon="6.41529">
        <ele>154</ele>
        <time>2022-04-08T14:01:28Z</time>
      </trkpt>
      <trkpt lat="43.47917" lon="6.4153">
        <ele>154</ele>
        <time>2022-04-08T14:01:29Z</time>
      </trkpt>
      <trkpt lat="43.47918" lon="6.41531">
        <ele>154</ele>
        <time>2022-04-08T14:01:30Z</time>
      </trkpt>
      <trkpt lat="43.47919" lon="6.41532">
        <ele>154</ele>
        <time>2022-04-08T14:01:31Z</time>
      </trkpt>
      <trkpt lat="43.47919" lon="6.41533">
        <ele>154</ele>
        <time>2022-04-08T14:01:32Z</time>
      </trkpt>
      <trkpt lat="43.4792" lon="6.41534">
        <ele>154</ele>
        <time>2022-04-08T14:01:33Z</time>
      </trkpt>
      <trkpt lat="43.4792" lon="6.41536">
        <ele>154</ele>
        <time>2022-04-08T14:01:34Z</time>
      </trkpt>
      <trkpt lat="43.47921" lon="6.41537">
        <ele>154</ele>
        <time>2022-04-08T14:01:35Z</time>
      </trkpt>
      <trkpt lat="43.47921" lon="6.41538">
        <ele>154</ele>
        <time>2022-04-08T14:01:36Z</time>
      </trkpt>
      <trkpt lat="43.47922" lon="6.41539">
        <ele>154</ele>
        <time>2022-04-08T14:01:37Z</time>
      </trkpt>
      <trkpt lat="43.47922" lon="6.4154">
        <ele>154</ele>
        <time>2022-04-08T14:01:38Z</time>
      </trkpt>
      <trkpt lat="43.47923" lon="6.41541">
        <ele>154</ele>
        <time>2022-04-08T14:01:39Z</time>
      </trkpt>
      <trkpt lat="43.47923" lon="6.41542">
        <ele>154</ele>
        <time>2022-04-08T14:01:40Z</time>
      </trkpt>
      <trkpt lat="43.47923" lon="6.41543">
        <ele>154</ele>
        <time>2022-04-08T14:01:41Z</time>
      </trkpt>
      <trkpt lat="43.47923" lon="6.41545">
        <ele>154</ele>
        <time>2022-04-08T14:01:42Z</time>
      </trkpt>
      <trkpt lat="43.47923" lon="6.41547">
        <ele>154</ele>
        <time>2022-04-08T14:01:43Z</time>
      </trkpt>
      <trkpt lat="43.47923" lon="6.41549">
        <ele>154</ele>
        <time>2022-04-08T14:01:44Z</time>
      </trkpt>
      <trkpt lat="43.47923" lon="6.41551">
        <ele>154</ele>
        <time>2022-04-08T14:01:45Z</time>
      </trkpt>
      <trkpt lat="43.47923" lon="6.41552">
        <ele>154</ele>
        <time>2022-04-08T14:01:46Z</time>
      </trkpt>
      <trkpt lat="43.47923" lon="6.41554">
        <ele>154</ele>
        <time>2022-04-08T14:01:47Z</time>
      </trkpt>
      <trkpt lat="43.47923" lon="6.41556">
        <ele>154</ele>
        <time>2022-04-08T14:01:48Z</time>
      </trkpt>
      <trkpt lat="43.47923" lon="6.41558">
        <ele>155</ele>
        <time>2022-04-08T14:01:49Z</time>
      </trkpt>
      <trkpt lat="43.47923" lon="6.4156">
        <ele>155</ele>
        <time>2022-04-08T14:01:50Z</time>
      </trkpt>
      <trkpt lat="43.47923" lon="6.41562">
        <ele>155</ele>
        <time>2022-04-08T14:01:51Z</time>
      </trkpt>
      <trkpt lat="43.47923" lon="6.41563">
        <ele>155</ele>
        <time>2022-04-08T14:01:52Z</time>
      </trkpt>
      <trkpt lat="43.47923" lon="6.41565">
        <ele>155</ele>
        <time>2022-04-08T14:01:53Z</time>
      </trkpt>
      <trkpt lat="43.47924" lon="6.41566">
        <ele>155</ele>
        <time>2022-04-08T14:01:54Z</time>
      </trkpt>
      <trkpt lat="43.47924" lon="6.41567">
        <ele>155</ele>
        <time>2022-04-08T14:01:55Z</time>
      </trkpt>
      <trkpt lat="43.47924" lon="6.41569">
        <ele>155</ele>
        <time>2022-04-08T14:01:56Z</time>
      </trkpt>
      <trkpt lat="43.47924" lon="6.4157">
        <ele>155</ele>
        <time>2022-04-08T14:01:57Z</time>
      </trkpt>
      <trkpt lat="43.47924" lon="6.41572">
        <ele>155</ele>
        <time>2022-04-08T14:01:58Z</time>
      </trkpt>
      <trkpt lat="43.47924" lon="6.41574">
        <ele>155</ele>
        <time>2022-04-08T14:01:59Z</time>
      </trkpt>
      <trkpt lat="43.47924" lon="6.41575">
        <ele>155</ele>
        <time>2022-04-08T14:02:00Z</time>
      </trkpt>
      <trkpt lat="43.47924" lon="6.41576">
        <ele>156</ele>
        <time>2022-04-08T14:02:01Z</time>
      </trkpt>
      <trkpt lat="43.47924" lon="6.41578">
        <ele>156</ele>
        <time>2022-04-08T14:02:02Z</time>
      </trkpt>
      <trkpt lat="43.47924" lon="6.41579">
        <ele>156</ele>
        <time>2022-04-08T14:02:03Z</time>
      </trkpt>
      <trkpt lat="43.47924" lon="6.41581">
        <ele>156</ele>
        <time>2022-04-08T14:02:04Z</time>
      </trkpt>
      <trkpt lat="43.47924" lon="6.41582">
        <ele>155</ele>
        <time>2022-04-08T14:02:05Z</time>
      </trkpt>
      <trkpt lat="43.47924" lon="6.41583">
        <ele>155</ele>
        <time>2022-04-08T14:02:06Z</time>
      </trkpt>
      <trkpt lat="43.47924" lon="6.41585">
        <ele>155</ele>
        <time>2022-04-08T14:02:07Z</time>
      </trkpt>
      <trkpt lat="43.47925" lon="6.41586">
        <ele>155</ele>
        <time>2022-04-08T14:02:08Z</time>
      </trkpt>
      <trkpt lat="43.47925" lon="6.41587">
        <ele>156</ele>
        <time>2022-04-08T14:02:09Z</time>
      </trkpt>
      <trkpt lat="43.47925" lon="6.41588">
        <ele>156</ele>
        <time>2022-04-08T14:02:10Z</time>
      </trkpt>
      <trkpt lat="43.47925" lon="6.4159">
        <ele>156</ele>
        <time>2022-04-08T14:02:11Z</time>
      </trkpt>
      <trkpt lat="43.47926" lon="6.41591">
        <ele>156</ele>
        <time>2022-04-08T14:02:12Z</time>
      </trkpt>
      <trkpt lat="43.47926" lon="6.41592">
        <ele>157</ele>
        <time>2022-04-08T14:02:13Z</time>
      </trkpt>
      <trkpt lat="43.47926" lon="6.41594">
        <ele>157</ele>
        <time>2022-04-08T14:02:14Z</time>
      </trkpt>
      <trkpt lat="43.47925" lon="6.41595">
        <ele>157</ele>
        <time>2022-04-08T14:02:15Z</time>
      </trkpt>
      <trkpt lat="43.47926" lon="6.41597">
        <ele>157</ele>
        <time>2022-04-08T14:02:16Z</time>
      </trkpt>
      <trkpt lat="43.47926" lon="6.41598">
        <ele>157</ele>
        <time>2022-04-08T14:02:17Z</time>
      </trkpt>
      <trkpt lat="43.47926" lon="6.416">
        <ele>157</ele>
        <time>2022-04-08T14:02:18Z</time>
      </trkpt>
      <trkpt lat="43.47927" lon="6.41601">
        <ele>157</ele>
        <time>2022-04-08T14:02:19Z</time>
      </trkpt>
      <trkpt lat="43.47927" lon="6.41602">
        <ele>157</ele>
        <time>2022-04-08T14:02:20Z</time>
      </trkpt>
      <trkpt lat="43.47927" lon="6.41603">
        <ele>157</ele>
        <time>2022-04-08T14:02:21Z</time>
      </trkpt>
      <trkpt lat="43.47927" lon="6.41604">
        <ele>157</ele>
        <time>2022-04-08T14:02:22Z</time>
      </trkpt>
      <trkpt lat="43.47928" lon="6.41605">
        <ele>157</ele>
        <time>2022-04-08T14:02:23Z</time>
      </trkpt>
      <trkpt lat="43.47928" lon="6.41607">
        <ele>157</ele>
        <time>2022-04-08T14:02:24Z</time>
      </trkpt>
      <trkpt lat="43.47928" lon="6.41608">
        <ele>156</ele>
        <time>2022-04-08T14:02:25Z</time>
      </trkpt>
      <trkpt lat="43.47928" lon="6.41609">
        <ele>156</ele>
        <time>2022-04-08T14:02:26Z</time>
      </trkpt>
      <trkpt lat="43.47929" lon="6.4161">
        <ele>156</ele>
        <time>2022-04-08T14:02:27Z</time>
      </trkpt>
      <trkpt lat="43.47929" lon="6.41611">
        <ele>155</ele>
        <time>2022-04-08T14:02:28Z</time>
      </trkpt>
      <trkpt lat="43.4793" lon="6.41612">
        <ele>155</ele>
        <time>2022-04-08T14:02:29Z</time>
      </trkpt>
      <trkpt lat="43.4793" lon="6.41613">
        <ele>155</ele>
        <time>2022-04-08T14:02:30Z</time>
      </trkpt>
      <trkpt lat="43.4793" lon="6.41614">
        <ele>155</ele>
        <time>2022-04-08T14:02:31Z</time>
      </trkpt>
      <trkpt lat="43.4793" lon="6.41616">
        <ele>155</ele>
        <time>2022-04-08T14:02:32Z</time>
      </trkpt>
      <trkpt lat="43.47931" lon="6.41617">
        <ele>155</ele>
        <time>2022-04-08T14:02:33Z</time>
      </trkpt>
      <trkpt lat="43.47931" lon="6.41618">
        <ele>155</ele>
        <time>2022-04-08T14:02:34Z</time>
      </trkpt>
      <trkpt lat="43.47931" lon="6.41619">
        <ele>155</ele>
        <time>2022-04-08T14:02:35Z</time>
      </trkpt>
      <trkpt lat="43.47931" lon="6.41621">
        <ele>155</ele>
        <time>2022-04-08T14:02:36Z</time>
      </trkpt>
      <trkpt lat="43.47932" lon="6.41622">
        <ele>155</ele>
        <time>2022-04-08T14:02:37Z</time>
      </trkpt>
      <trkpt lat="43.47932" lon="6.41623">
        <ele>155</ele>
        <time>2022-04-08T14:02:38Z</time>
      </trkpt>
      <trkpt lat="43.47932" lon="6.41625">
        <ele>154</ele>
        <time>2022-04-08T14:02:39Z</time>
      </trkpt>
      <trkpt lat="43.47932" lon="6.41626">
        <ele>154</ele>
        <time>2022-04-08T14:02:40Z</time>
      </trkpt>
      <trkpt lat="43.47933" lon="6.41627">
        <ele>154</ele>
        <time>2022-04-08T14:02:41Z</time>
      </trkpt>
      <trkpt lat="43.47933" lon="6.41629">
        <ele>154</ele>
        <time>2022-04-08T14:02:42Z</time>
      </trkpt>
      <trkpt lat="43.47933" lon="6.4163">
        <ele>153</ele>
        <time>2022-04-08T14:02:43Z</time>
      </trkpt>
      <trkpt lat="43.47934" lon="6.41632">
        <ele>153</ele>
        <time>2022-04-08T14:02:44Z</time>
      </trkpt>
      <trkpt lat="43.47934" lon="6.41633">
        <ele>153</ele>
        <time>2022-04-08T14:02:45Z</time>
      </trkpt>
      <trkpt lat="43.47934" lon="6.41635">
        <ele>152</ele>
        <time>2022-04-08T14:02:46Z</time>
      </trkpt>
      <trkpt lat="43.47935" lon="6.41636">
        <ele>152</ele>
        <time>2022-04-08T14:02:47Z</time>
      </trkpt>
      <trkpt lat="43.47935" lon="6.41637">
        <ele>152</ele>
        <time>2022-04-08T14:02:48Z</time>
      </trkpt>
      <trkpt lat="43.47935" lon="6.41639">
        <ele>152</ele>
        <time>2022-04-08T14:02:49Z</time>
      </trkpt>
      <trkpt lat="43.47936" lon="6.4164">
        <ele>152</ele>
        <time>2022-04-08T14:02:50Z</time>
      </trkpt>
      <trkpt lat="43.47936" lon="6.41642">
        <ele>152</ele>
        <time>2022-04-08T14:02:51Z</time>
      </trkpt>
      <trkpt lat="43.47937" lon="6.41643">
        <ele>152</ele>
        <time>2022-04-08T14:02:52Z</time>
      </trkpt>
      <trkpt lat="43.47937" lon="6.41645">
        <ele>152</ele>
        <time>2022-04-08T14:02:53Z</time>
      </trkpt>
      <trkpt lat="43.47937" lon="6.41646">
        <ele>152</ele>
        <time>2022-04-08T14:02:54Z</time>
      </trkpt>
      <trkpt lat="43.47937" lon="6.41647">
        <ele>152</ele>
        <time>2022-04-08T14:02:55Z</time>
      </trkpt>
      <trkpt lat="43.47938" lon="6.41649">
        <ele>152</ele>
        <time>2022-04-08T14:02:56Z</time>
      </trkpt>
      <trkpt lat="43.47938" lon="6.4165">
        <ele>152</ele>
        <time>2022-04-08T14:02:57Z</time>
      </trkpt>
      <trkpt lat="43.47938" lon="6.41652">
        <ele>152</ele>
        <time>2022-04-08T14:02:58Z</time>
      </trkpt>
      <trkpt lat="43.47939" lon="6.41653">
        <ele>151</ele>
        <time>2022-04-08T14:02:59Z</time>
      </trkpt>
      <trkpt lat="43.47939" lon="6.41654">
        <ele>151</ele>
        <time>2022-04-08T14:03:00Z</time>
      </trkpt>
      <trkpt lat="43.47939" lon="6.41656">
        <ele>151</ele>
        <time>2022-04-08T14:03:01Z</time>
      </trkpt>
      <trkpt lat="43.47939" lon="6.41657">
        <ele>151</ele>
        <time>2022-04-08T14:03:02Z</time>
      </trkpt>
      <trkpt lat="43.47939" lon="6.41659">
        <ele>151</ele>
        <time>2022-04-08T14:03:03Z</time>
      </trkpt>
      <trkpt lat="43.47939" lon="6.41661">
        <ele>151</ele>
        <time>2022-04-08T14:03:04Z</time>
      </trkpt>
      <trkpt lat="43.47939" lon="6.41662">
        <ele>151</ele>
        <time>2022-04-08T14:03:05Z</time>
      </trkpt>
      <trkpt lat="43.47939" lon="6.41663">
        <ele>151</ele>
        <time>2022-04-08T14:03:06Z</time>
      </trkpt>
      <trkpt lat="43.47939" lon="6.41665">
        <ele>151</ele>
        <time>2022-04-08T14:03:07Z</time>
      </trkpt>
      <trkpt lat="43.47939" lon="6.41666">
        <ele>151</ele>
        <time>2022-04-08T14:03:08Z</time>
      </trkpt>
      <trkpt lat="43.47939" lon="6.41668">
        <ele>151</ele>
        <time>2022-04-08T14:03:09Z</time>
      </trkpt>
      <trkpt lat="43.47939" lon="6.41669">
        <ele>151</ele>
        <time>2022-04-08T14:03:10Z</time>
      </trkpt>
      <trkpt lat="43.47939" lon="6.41671">
        <ele>151</ele>
        <time>2022-04-08T14:03:11Z</time>
      </trkpt>
      <trkpt lat="43.47939" lon="6.41672">
        <ele>151</ele>
        <time>2022-04-08T14:03:12Z</time>
      </trkpt>
      <trkpt lat="43.47939" lon="6.41674">
        <ele>151</ele>
        <time>2022-04-08T14:03:13Z</time>
      </trkpt>
      <trkpt lat="43.47939" lon="6.41675">
        <ele>151</ele>
        <time>2022-04-08T14:03:14Z</time>
      </trkpt>
      <trkpt lat="43.47939" lon="6.41677">
        <ele>152</ele>
        <time>2022-04-08T14:03:15Z</time>
      </trkpt>
      <trkpt lat="43.47939" lon="6.41678">
        <ele>152</ele>
        <time>2022-04-08T14:03:16Z</time>
      </trkpt>
      <trkpt lat="43.4794" lon="6.41679">
        <ele>152</ele>
        <time>2022-04-08T14:03:17Z</time>
      </trkpt>
      <trkpt lat="43.4794" lon="6.41681">
        <ele>152</ele>
        <time>2022-04-08T14:03:18Z</time>
      </trkpt>
      <trkpt lat="43.4794" lon="6.41683">
        <ele>152</ele>
        <time>2022-04-08T14:03:19Z</time>
      </trkpt>
      <trkpt lat="43.4794" lon="6.41684">
        <ele>152</ele>
        <time>2022-04-08T14:03:20Z</time>
      </trkpt>
      <trkpt lat="43.4794" lon="6.41685">
        <ele>153</ele>
        <time>2022-04-08T14:03:21Z</time>
      </trkpt>
      <trkpt lat="43.4794" lon="6.41687">
        <ele>153</ele>
        <time>2022-04-08T14:03:22Z</time>
      </trkpt>
      <trkpt lat="43.4794" lon="6.41688">
        <ele>153</ele>
        <time>2022-04-08T14:03:23Z</time>
      </trkpt>
      <trkpt lat="43.4794" lon="6.4169">
        <ele>153</ele>
        <time>2022-04-08T14:03:24Z</time>
      </trkpt>
      <trkpt lat="43.4794" lon="6.41692">
        <ele>153</ele>
        <time>2022-04-08T14:03:25Z</time>
      </trkpt>
      <trkpt lat="43.4794" lon="6.41693">
        <ele>153</ele>
        <time>2022-04-08T14:03:26Z</time>
      </trkpt>
      <trkpt lat="43.4794" lon="6.41694">
        <ele>153</ele>
        <time>2022-04-08T14:03:27Z</time>
      </trkpt>
      <trkpt lat="43.4794" lon="6.41696">
        <ele>153</ele>
        <time>2022-04-08T14:03:28Z</time>
      </trkpt>
      <trkpt lat="43.4794" lon="6.41697">
        <ele>153</ele>
        <time>2022-04-08T14:03:29Z</time>
      </trkpt>
      <trkpt lat="43.4794" lon="6.41699">
        <ele>153</ele>
        <time>2022-04-08T14:03:30Z</time>
      </trkpt>
      <trkpt lat="43.4794" lon="6.417">
        <ele>153</ele>
        <time>2022-04-08T14:03:31Z</time>
      </trkpt>
      <trkpt lat="43.4794" lon="6.41702">
        <ele>153</ele>
        <time>2022-04-08T14:03:32Z</time>
      </trkpt>
      <trkpt lat="43.47941" lon="6.41704">
        <ele>154</ele>
        <time>2022-04-08T14:03:33Z</time>
      </trkpt>
      <trkpt lat="43.47941" lon="6.41705">
        <ele>154</ele>
        <time>2022-04-08T14:03:34Z</time>
      </trkpt>
      <trkpt lat="43.47941" lon="6.41706">
        <ele>154</ele>
        <time>2022-04-08T14:03:35Z</time>
      </trkpt>
      <trkpt lat="43.47941" lon="6.41708">
        <ele>154</ele>
        <time>2022-04-08T14:03:36Z</time>
      </trkpt>
      <trkpt lat="43.47941" lon="6.41709">
        <ele>154</ele>
        <time>2022-04-08T14:03:37Z</time>
      </trkpt>
      <trkpt lat="43.47941" lon="6.41711">
        <ele>155</ele>
        <time>2022-04-08T14:03:38Z</time>
      </trkpt>
      <trkpt lat="43.47941" lon="6.41712">
        <ele>155</ele>
        <time>2022-04-08T14:03:39Z</time>
      </trkpt>
      <trkpt lat="43.47941" lon="6.41714">
        <ele>155</ele>
        <time>2022-04-08T14:03:40Z</time>
      </trkpt>
      <trkpt lat="43.47941" lon="6.41716">
        <ele>155</ele>
        <time>2022-04-08T14:03:41Z</time>
      </trkpt>
      <trkpt lat="43.47941" lon="6.41718">
        <ele>155</ele>
        <time>2022-04-08T14:03:42Z</time>
      </trkpt>
      <trkpt lat="43.47941" lon="6.41719">
        <ele>155</ele>
        <time>2022-04-08T14:03:43Z</time>
      </trkpt>
      <trkpt lat="43.47941" lon="6.41721">
        <ele>155</ele>
        <time>2022-04-08T14:03:44Z</time>
      </trkpt>
      <trkpt lat="43.4794" lon="6.41722">
        <ele>155</ele>
        <time>2022-04-08T14:03:45Z</time>
      </trkpt>
      <trkpt lat="43.4794" lon="6.41724">
        <ele>156</ele>
        <time>2022-04-08T14:03:46Z</time>
      </trkpt>
      <trkpt lat="43.4794" lon="6.41726">
        <ele>156</ele>
        <time>2022-04-08T14:03:47Z</time>
      </trkpt>
      <trkpt lat="43.4794" lon="6.41727">
        <ele>156</ele>
        <time>2022-04-08T14:03:48Z</time>
      </trkpt>
      <trkpt lat="43.4794" lon="6.41729">
        <ele>156</ele>
        <time>2022-04-08T14:03:49Z</time>
      </trkpt>
      <trkpt lat="43.4794" lon="6.41731">
        <ele>156</ele>
        <time>2022-04-08T14:03:50Z</time>
      </trkpt>
      <trkpt lat="43.4794" lon="6.41732">
        <ele>156</ele>
        <time>2022-04-08T14:03:51Z</time>
      </trkpt>
      <trkpt lat="43.4794" lon="6.41734">
        <ele>156</ele>
        <time>2022-04-08T14:03:52Z</time>
      </trkpt>
      <trkpt lat="43.47939" lon="6.41735">
        <ele>156</ele>
        <time>2022-04-08T14:03:53Z</time>
      </trkpt>
      <trkpt lat="43.47939" lon="6.41737">
        <ele>156</ele>
        <time>2022-04-08T14:03:54Z</time>
      </trkpt>
      <trkpt lat="43.47939" lon="6.41738">
        <ele>156</ele>
        <time>2022-04-08T14:03:55Z</time>
      </trkpt>
      <trkpt lat="43.47939" lon="6.4174">
        <ele>156</ele>
        <time>2022-04-08T14:03:56Z</time>
      </trkpt>
      <trkpt lat="43.47939" lon="6.41741">
        <ele>156</ele>
        <time>2022-04-08T14:03:57Z</time>
      </trkpt>
      <trkpt lat="43.47939" lon="6.41743">
        <ele>156</ele>
        <time>2022-04-08T14:03:58Z</time>
      </trkpt>
      <trkpt lat="43.47939" lon="6.41744">
        <ele>156</ele>
        <time>2022-04-08T14:03:59Z</time>
      </trkpt>
      <trkpt lat="43.47939" lon="6.41746">
        <ele>156</ele>
        <time>2022-04-08T14:04:00Z</time>
      </trkpt>
      <trkpt lat="43.47939" lon="6.41747">
        <ele>156</ele>
        <time>2022-04-08T14:04:01Z</time>
      </trkpt>
      <trkpt lat="43.47939" lon="6.41749">
        <ele>156</ele>
        <time>2022-04-08T14:04:02Z</time>
      </trkpt>
      <trkpt lat="43.47939" lon="6.4175">
        <ele>156</ele>
        <time>2022-04-08T14:04:03Z</time>
      </trkpt>
      <trkpt lat="43.47939" lon="6.41752">
        <ele>156</ele>
        <time>2022-04-08T14:04:04Z</time>
      </trkpt>
      <trkpt lat="43.47939" lon="6.41753">
        <ele>156</ele>
        <time>2022-04-08T14:04:05Z</time>
      </trkpt>
      <trkpt lat="43.4794" lon="6.41755">
        <ele>156</ele>
        <time>2022-04-08T14:04:06Z</time>
      </trkpt>
      <trkpt lat="43.4794" lon="6.41756">
        <ele>156</ele>
        <time>2022-04-08T14:04:07Z</time>
      </trkpt>
      <trkpt lat="43.4794" lon="6.41758">
        <ele>156</ele>
        <time>2022-04-08T14:04:08Z</time>
      </trkpt>
      <trkpt lat="43.4794" lon="6.41759">
        <ele>156</ele>
        <time>2022-04-08T14:04:09Z</time>
      </trkpt>
      <trkpt lat="43.4794" lon="6.4176">
        <ele>156</ele>
        <time>2022-04-08T14:04:10Z</time>
      </trkpt>
      <trkpt lat="43.47939" lon="6.41761">
        <ele>156</ele>
        <time>2022-04-08T14:04:11Z</time>
      </trkpt>
      <trkpt lat="43.47939" lon="6.41763">
        <ele>156</ele>
        <time>2022-04-08T14:04:12Z</time>
      </trkpt>
      <trkpt lat="43.47939" lon="6.41764">
        <ele>156</ele>
        <time>2022-04-08T14:04:13Z</time>
      </trkpt>
      <trkpt lat="43.4794" lon="6.41766">
        <ele>156</ele>
        <time>2022-04-08T14:04:14Z</time>
      </trkpt>
      <trkpt lat="43.4794" lon="6.41767">
        <ele>156</ele>
        <time>2022-04-08T14:04:15Z</time>
      </trkpt>
      <trkpt lat="43.4794" lon="6.41768">
        <ele>156</ele>
        <time>2022-04-08T14:04:16Z</time>
      </trkpt>
      <trkpt lat="43.4794" lon="6.41769">
        <ele>155</ele>
        <time>2022-04-08T14:04:17Z</time>
      </trkpt>
      <trkpt lat="43.4794" lon="6.41771">
        <ele>155</ele>
        <time>2022-04-08T14:04:18Z</time>
      </trkpt>
      <trkpt lat="43.4794" lon="6.41772">
        <ele>155</ele>
        <time>2022-04-08T14:04:19Z</time>
      </trkpt>
      <trkpt lat="43.4794" lon="6.41774">
        <ele>155</ele>
        <time>2022-04-08T14:04:20Z</time>
      </trkpt>
      <trkpt lat="43.4794" lon="6.41775">
        <ele>155</ele>
        <time>2022-04-08T14:04:21Z</time>
      </trkpt>
      <trkpt lat="43.4794" lon="6.41776">
        <ele>155</ele>
        <time>2022-04-08T14:04:22Z</time>
      </trkpt>
      <trkpt lat="43.4794" lon="6.41778">
        <ele>155</ele>
        <time>2022-04-08T14:04:23Z</time>
      </trkpt>
      <trkpt lat="43.4794" lon="6.41779">
        <ele>155</ele>
        <time>2022-04-08T14:04:24Z</time>
      </trkpt>
      <trkpt lat="43.4794" lon="6.41781">
        <ele>155</ele>
        <time>2022-04-08T14:04:25Z</time>
      </trkpt>
      <trkpt lat="43.4794" lon="6.41782">
        <ele>155</ele>
        <time>2022-04-08T14:04:26Z</time>
      </trkpt>
      <trkpt lat="43.4794" lon="6.41784">
        <ele>155</ele>
        <time>2022-04-08T14:04:27Z</time>
      </trkpt>
      <trkpt lat="43.4794" lon="6.41785">
        <ele>155</ele>
        <time>2022-04-08T14:04:28Z</time>
      </trkpt>
      <trkpt lat="43.4794" lon="6.41787">
        <ele>155</ele>
        <time>2022-04-08T14:04:29Z</time>
      </trkpt>
      <trkpt lat="43.4794" lon="6.41788">
        <ele>154</ele>
        <time>2022-04-08T14:04:30Z</time>
      </trkpt>
      <trkpt lat="43.4794" lon="6.41789">
        <ele>154</ele>
        <time>2022-04-08T14:04:31Z</time>
      </trkpt>
      <trkpt lat="43.4794" lon="6.41791">
        <ele>154</ele>
        <time>2022-04-08T14:04:32Z</time>
      </trkpt>
      <trkpt lat="43.47941" lon="6.41792">
        <ele>154</ele>
        <time>2022-04-08T14:04:33Z</time>
      </trkpt>
      <trkpt lat="43.47941" lon="6.41794">
        <ele>154</ele>
        <time>2022-04-08T14:04:34Z</time>
      </trkpt>
      <trkpt lat="43.47941" lon="6.41796">
        <ele>154</ele>
        <time>2022-04-08T14:04:35Z</time>
      </trkpt>
      <trkpt lat="43.4794" lon="6.41797">
        <ele>154</ele>
        <time>2022-04-08T14:04:36Z</time>
      </trkpt>
      <trkpt lat="43.4794" lon="6.41799">
        <ele>154</ele>
        <time>2022-04-08T14:04:37Z</time>
      </trkpt>
      <trkpt lat="43.47941" lon="6.418">
        <ele>154</ele>
        <time>2022-04-08T14:04:38Z</time>
      </trkpt>
      <trkpt lat="43.47941" lon="6.41801">
        <ele>154</ele>
        <time>2022-04-08T14:04:39Z</time>
      </trkpt>
      <trkpt lat="43.47941" lon="6.41802">
        <ele>155</ele>
        <time>2022-04-08T14:04:40Z</time>
      </trkpt>
      <trkpt lat="43.47942" lon="6.41804">
        <ele>155</ele>
        <time>2022-04-08T14:04:41Z</time>
      </trkpt>
      <trkpt lat="43.47942" lon="6.41805">
        <ele>155</ele>
        <time>2022-04-08T14:04:42Z</time>
      </trkpt>
      <trkpt lat="43.47942" lon="6.41807">
        <ele>155</ele>
        <time>2022-04-08T14:04:43Z</time>
      </trkpt>
      <trkpt lat="43.47942" lon="6.41808">
        <ele>155</ele>
        <time>2022-04-08T14:04:44Z</time>
      </trkpt>
      <trkpt lat="43.47942" lon="6.41809">
        <ele>155</ele>
        <time>2022-04-08T14:04:45Z</time>
      </trkpt>
      <trkpt lat="43.47942" lon="6.41811">
        <ele>155</ele>
        <time>2022-04-08T14:04:46Z</time>
      </trkpt>
      <trkpt lat="43.47943" lon="6.41812">
        <ele>155</ele>
        <time>2022-04-08T14:04:47Z</time>
      </trkpt>
      <trkpt lat="43.47943" lon="6.41813">
        <ele>155</ele>
        <time>2022-04-08T14:04:48Z</time>
      </trkpt>
      <trkpt lat="43.47943" lon="6.41815">
        <ele>155</ele>
        <time>2022-04-08T14:04:49Z</time>
      </trkpt>
      <trkpt lat="43.47943" lon="6.41816">
        <ele>155</ele>
        <time>2022-04-08T14:04:50Z</time>
      </trkpt>
      <trkpt lat="43.47943" lon="6.41818">
        <ele>155</ele>
        <time>2022-04-08T14:04:51Z</time>
      </trkpt>
      <trkpt lat="43.47943" lon="6.41819">
        <ele>155</ele>
        <time>2022-04-08T14:04:52Z</time>
      </trkpt>
      <trkpt lat="43.47944" lon="6.4182">
        <ele>155</ele>
        <time>2022-04-08T14:04:53Z</time>
      </trkpt>
      <trkpt lat="43.47944" lon="6.41821">
        <ele>155</ele>
        <time>2022-04-08T14:04:54Z</time>
      </trkpt>
      <trkpt lat="43.47945" lon="6.41822">
        <ele>154</ele>
        <time>2022-04-08T14:04:55Z</time>
      </trkpt>
      <trkpt lat="43.47945" lon="6.41824">
        <ele>154</ele>
        <time>2022-04-08T14:04:56Z</time>
      </trkpt>
      <trkpt lat="43.47945" lon="6.41825">
        <ele>154</ele>
        <time>2022-04-08T14:04:57Z</time>
      </trkpt>
      <trkpt lat="43.47946" lon="6.41826">
        <ele>154</ele>
        <time>2022-04-08T14:04:58Z</time>
      </trkpt>
      <trkpt lat="43.47946" lon="6.41827">
        <ele>154</ele>
        <time>2022-04-08T14:04:59Z</time>
      </trkpt>
      <trkpt lat="43.47947" lon="6.41829">
        <ele>154</ele>
        <time>2022-04-08T14:05:00Z</time>
      </trkpt>
      <trkpt lat="43.47948" lon="6.4183">
        <ele>154</ele>
        <time>2022-04-08T14:05:01Z</time>
      </trkpt>
      <trkpt lat="43.47948" lon="6.4183">
        <ele>154</ele>
        <time>2022-04-08T14:05:02Z</time>
      </trkpt>
      <trkpt lat="43.47949" lon="6.41831">
        <ele>154</ele>
        <time>2022-04-08T14:05:03Z</time>
      </trkpt>
      <trkpt lat="43.4795" lon="6.41832">
        <ele>154</ele>
        <time>2022-04-08T14:05:04Z</time>
      </trkpt>
      <trkpt lat="43.47951" lon="6.41833">
        <ele>155</ele>
        <time>2022-04-08T14:05:05Z</time>
      </trkpt>
      <trkpt lat="43.47953" lon="6.41833">
        <ele>155</ele>
        <time>2022-04-08T14:05:06Z</time>
      </trkpt>
      <trkpt lat="43.47953" lon="6.41834">
        <ele>155</ele>
        <time>2022-04-08T14:05:07Z</time>
      </trkpt>
      <trkpt lat="43.47954" lon="6.41834">
        <ele>155</ele>
        <time>2022-04-08T14:05:08Z</time>
      </trkpt>
      <trkpt lat="43.47955" lon="6.41834">
        <ele>156</ele>
        <time>2022-04-08T14:05:09Z</time>
      </trkpt>
      <trkpt lat="43.47956" lon="6.41834">
        <ele>156</ele>
        <time>2022-04-08T14:05:10Z</time>
      </trkpt>
      <trkpt lat="43.47957" lon="6.41834">
        <ele>156</ele>
        <time>2022-04-08T14:05:11Z</time>
      </trkpt>
      <trkpt lat="43.47958" lon="6.41834">
        <ele>156</ele>
        <time>2022-04-08T14:05:12Z</time>
      </trkpt>
      <trkpt lat="43.47959" lon="6.41833">
        <ele>156</ele>
        <time>2022-04-08T14:05:13Z</time>
      </trkpt>
      <trkpt lat="43.47961" lon="6.41832">
        <ele>156</ele>
        <time>2022-04-08T14:05:14Z</time>
      </trkpt>
      <trkpt lat="43.47962" lon="6.41831">
        <ele>156</ele>
        <time>2022-04-08T14:05:15Z</time>
      </trkpt>
      <trkpt lat="43.47963" lon="6.41831">
        <ele>156</ele>
        <time>2022-04-08T14:05:16Z</time>
      </trkpt>
      <trkpt lat="43.47964" lon="6.4183">
        <ele>156</ele>
        <time>2022-04-08T14:05:17Z</time>
      </trkpt>
      <trkpt lat="43.47964" lon="6.4183">
        <ele>156</ele>
        <time>2022-04-08T14:05:18Z</time>
      </trkpt>
      <trkpt lat="43.47965" lon="6.4183">
        <ele>156</ele>
        <time>2022-04-08T14:05:19Z</time>
      </trkpt>
      <trkpt lat="43.47966" lon="6.41829">
        <ele>156</ele>
        <time>2022-04-08T14:05:20Z</time>
      </trkpt>
      <trkpt lat="43.47966" lon="6.41828">
        <ele>156</ele>
        <time>2022-04-08T14:05:21Z</time>
      </trkpt>
      <trkpt lat="43.47967" lon="6.41828">
        <ele>156</ele>
        <time>2022-04-08T14:05:22Z</time>
      </trkpt>
      <trkpt lat="43.47968" lon="6.41827">
        <ele>156</ele>
        <time>2022-04-08T14:05:23Z</time>
      </trkpt>
      <trkpt lat="43.47968" lon="6.41826">
        <ele>156</ele>
        <time>2022-04-08T14:05:24Z</time>
      </trkpt>
      <trkpt lat="43.47969" lon="6.41825">
        <ele>156</ele>
        <time>2022-04-08T14:05:25Z</time>
      </trkpt>
      <trkpt lat="43.4797" lon="6.41824">
        <ele>156</ele>
        <time>2022-04-08T14:05:26Z</time>
      </trkpt>
      <trkpt lat="43.47971" lon="6.41824">
        <ele>156</ele>
        <time>2022-04-08T14:05:27Z</time>
      </trkpt>
      <trkpt lat="43.47971" lon="6.41823">
        <ele>156</ele>
        <time>2022-04-08T14:05:28Z</time>
      </trkpt>
      <trkpt lat="43.47972" lon="6.41823">
        <ele>156</ele>
        <time>2022-04-08T14:05:29Z</time>
      </trkpt>
      <trkpt lat="43.47972" lon="6.41822">
        <ele>156</ele>
        <time>2022-04-08T14:05:30Z</time>
      </trkpt>
      <trkpt lat="43.47973" lon="6.41821">
        <ele>156</ele>
        <time>2022-04-08T14:05:31Z</time>
      </trkpt>
      <trkpt lat="43.47974" lon="6.41819">
        <ele>156</ele>
        <time>2022-04-08T14:05:32Z</time>
      </trkpt>
      <trkpt lat="43.47974" lon="6.41818">
        <ele>156</ele>
        <time>2022-04-08T14:05:33Z</time>
      </trkpt>
      <trkpt lat="43.47975" lon="6.41817">
        <ele>156</ele>
        <time>2022-04-08T14:05:34Z</time>
      </trkpt>
      <trkpt lat="43.47976" lon="6.41816">
        <ele>156</ele>
        <time>2022-04-08T14:05:35Z</time>
      </trkpt>
      <trkpt lat="43.47976" lon="6.41815">
        <ele>156</ele>
        <time>2022-04-08T14:05:36Z</time>
      </trkpt>
      <trkpt lat="43.47977" lon="6.41814">
        <ele>156</ele>
        <time>2022-04-08T14:05:37Z</time>
      </trkpt>
      <trkpt lat="43.47977" lon="6.41813">
        <ele>156</ele>
        <time>2022-04-08T14:05:38Z</time>
      </trkpt>
      <trkpt lat="43.47978" lon="6.41812">
        <ele>156</ele>
        <time>2022-04-08T14:05:39Z</time>
      </trkpt>
      <trkpt lat="43.47979" lon="6.41811">
        <ele>156</ele>
        <time>2022-04-08T14:05:40Z</time>
      </trkpt>
      <trkpt lat="43.4798" lon="6.4181">
        <ele>156</ele>
        <time>2022-04-08T14:05:41Z</time>
      </trkpt>
      <trkpt lat="43.47981" lon="6.4181">
        <ele>156</ele>
        <time>2022-04-08T14:05:42Z</time>
      </trkpt>
      <trkpt lat="43.47983" lon="6.41809">
        <ele>156</ele>
        <time>2022-04-08T14:05:43Z</time>
      </trkpt>
      <trkpt lat="43.47985" lon="6.41809">
        <ele>156</ele>
        <time>2022-04-08T14:05:44Z</time>
      </trkpt>
      <trkpt lat="43.47986" lon="6.41808">
        <ele>156</ele>
        <time>2022-04-08T14:05:45Z</time>
      </trkpt>
      <trkpt lat="43.47987" lon="6.41808">
        <ele>156</ele>
        <time>2022-04-08T14:05:46Z</time>
      </trkpt>
      <trkpt lat="43.47988" lon="6.41807">
        <ele>156</ele>
        <time>2022-04-08T14:05:47Z</time>
      </trkpt>
      <trkpt lat="43.47989" lon="6.41806">
        <ele>156</ele>
        <time>2022-04-08T14:05:48Z</time>
      </trkpt>
      <trkpt lat="43.4799" lon="6.41805">
        <ele>156</ele>
        <time>2022-04-08T14:05:49Z</time>
      </trkpt>
      <trkpt lat="43.47991" lon="6.41803">
        <ele>156</ele>
        <time>2022-04-08T14:05:50Z</time>
      </trkpt>
      <trkpt lat="43.47992" lon="6.41802">
        <ele>156</ele>
        <time>2022-04-08T14:05:51Z</time>
      </trkpt>
      <trkpt lat="43.47993" lon="6.41801">
        <ele>156</ele>
        <time>2022-04-08T14:05:52Z</time>
      </trkpt>
      <trkpt lat="43.47993" lon="6.41799">
        <ele>156</ele>
        <time>2022-04-08T14:05:53Z</time>
      </trkpt>
      <trkpt lat="43.47994" lon="6.41798">
        <ele>156</ele>
        <time>2022-04-08T14:05:54Z</time>
      </trkpt>
      <trkpt lat="43.47995" lon="6.41797">
        <ele>157</ele>
        <time>2022-04-08T14:05:55Z</time>
      </trkpt>
      <trkpt lat="43.47996" lon="6.41796">
        <ele>157</ele>
        <time>2022-04-08T14:05:56Z</time>
      </trkpt>
      <trkpt lat="43.47997" lon="6.41796">
        <ele>157</ele>
        <time>2022-04-08T14:05:57Z</time>
      </trkpt>
      <trkpt lat="43.47999" lon="6.41796">
        <ele>157</ele>
        <time>2022-04-08T14:05:58Z</time>
      </trkpt>
      <trkpt lat="43.48001" lon="6.41795">
        <ele>157</ele>
        <time>2022-04-08T14:05:59Z</time>
      </trkpt>
      <trkpt lat="43.48003" lon="6.41795">
        <ele>157</ele>
        <time>2022-04-08T14:06:00Z</time>
      </trkpt>
      <trkpt lat="43.48004" lon="6.41795">
        <ele>157</ele>
        <time>2022-04-08T14:06:01Z</time>
      </trkpt>
      <trkpt lat="43.48006" lon="6.41794">
        <ele>157</ele>
        <time>2022-04-08T14:06:02Z</time>
      </trkpt>
      <trkpt lat="43.48007" lon="6.41794">
        <ele>157</ele>
        <time>2022-04-08T14:06:03Z</time>
      </trkpt>
      <trkpt lat="43.48008" lon="6.41793">
        <ele>157</ele>
        <time>2022-04-08T14:06:04Z</time>
      </trkpt>
      <trkpt lat="43.4801" lon="6.41793">
        <ele>157</ele>
        <time>2022-04-08T14:06:05Z</time>
      </trkpt>
      <trkpt lat="43.48011" lon="6.41792">
        <ele>158</ele>
        <time>2022-04-08T14:06:06Z</time>
      </trkpt>
      <trkpt lat="43.48012" lon="6.41792">
        <ele>158</ele>
        <time>2022-04-08T14:06:07Z</time>
      </trkpt>
      <trkpt lat="43.48013" lon="6.41792">
        <ele>158</ele>
        <time>2022-04-08T14:06:08Z</time>
      </trkpt>
      <trkpt lat="43.48014" lon="6.41791">
        <ele>158</ele>
        <time>2022-04-08T14:06:09Z</time>
      </trkpt>
      <trkpt lat="43.48015" lon="6.4179">
        <ele>158</ele>
        <time>2022-04-08T14:06:10Z</time>
      </trkpt>
      <trkpt lat="43.48015" lon="6.41788">
        <ele>158</ele>
        <time>2022-04-08T14:06:11Z</time>
      </trkpt>
      <trkpt lat="43.48016" lon="6.41787">
        <ele>157</ele>
        <time>2022-04-08T14:06:12Z</time>
      </trkpt>
      <trkpt lat="43.48017" lon="6.41786">
        <ele>157</ele>
        <time>2022-04-08T14:06:13Z</time>
      </trkpt>
      <trkpt lat="43.48017" lon="6.41785">
        <ele>157</ele>
        <time>2022-04-08T14:06:14Z</time>
      </trkpt>
      <trkpt lat="43.48018" lon="6.41784">
        <ele>157</ele>
        <time>2022-04-08T14:06:15Z</time>
      </trkpt>
      <trkpt lat="43.4802" lon="6.41784">
        <ele>157</ele>
        <time>2022-04-08T14:06:16Z</time>
      </trkpt>
      <trkpt lat="43.48021" lon="6.41784">
        <ele>157</ele>
        <time>2022-04-08T14:06:17Z</time>
      </trkpt>
      <trkpt lat="43.48022" lon="6.41783">
        <ele>157</ele>
        <time>2022-04-08T14:06:18Z</time>
      </trkpt>
      <trkpt lat="43.48023" lon="6.41783">
        <ele>157</ele>
        <time>2022-04-08T14:06:19Z</time>
      </trkpt>
      <trkpt lat="43.48023" lon="6.41782">
        <ele>157</ele>
        <time>2022-04-08T14:06:20Z</time>
      </trkpt>
      <trkpt lat="43.48024" lon="6.41781">
        <ele>157</ele>
        <time>2022-04-08T14:06:21Z</time>
      </trkpt>
      <trkpt lat="43.48025" lon="6.4178">
        <ele>157</ele>
        <time>2022-04-08T14:06:22Z</time>
      </trkpt>
      <trkpt lat="43.48025" lon="6.4178">
        <ele>157</ele>
        <time>2022-04-08T14:06:23Z</time>
      </trkpt>
      <trkpt lat="43.48026" lon="6.41779">
        <ele>157</ele>
        <time>2022-04-08T14:06:24Z</time>
      </trkpt>
      <trkpt lat="43.48026" lon="6.41779">
        <ele>157</ele>
        <time>2022-04-08T14:06:25Z</time>
      </trkpt>
      <trkpt lat="43.48027" lon="6.41778">
        <ele>157</ele>
        <time>2022-04-08T14:06:26Z</time>
      </trkpt>
      <trkpt lat="43.48028" lon="6.41777">
        <ele>158</ele>
        <time>2022-04-08T14:06:27Z</time>
      </trkpt>
      <trkpt lat="43.48028" lon="6.41777">
        <ele>158</ele>
        <time>2022-04-08T14:06:28Z</time>
      </trkpt>
      <trkpt lat="43.48029" lon="6.41776">
        <ele>158</ele>
        <time>2022-04-08T14:06:29Z</time>
      </trkpt>
      <trkpt lat="43.4803" lon="6.41776">
        <ele>158</ele>
        <time>2022-04-08T14:06:30Z</time>
      </trkpt>
      <trkpt lat="43.48031" lon="6.41776">
        <ele>158</ele>
        <time>2022-04-08T14:06:31Z</time>
      </trkpt>
      <trkpt lat="43.48032" lon="6.41775">
        <ele>158</ele>
        <time>2022-04-08T14:06:32Z</time>
      </trkpt>
      <trkpt lat="43.48033" lon="6.41775">
        <ele>159</ele>
        <time>2022-04-08T14:06:33Z</time>
      </trkpt>
      <trkpt lat="43.48034" lon="6.41775">
        <ele>159</ele>
        <time>2022-04-08T14:06:34Z</time>
      </trkpt>
      <trkpt lat="43.48036" lon="6.41774">
        <ele>159</ele>
        <time>2022-04-08T14:06:35Z</time>
      </trkpt>
      <trkpt lat="43.48037" lon="6.41774">
        <ele>159</ele>
        <time>2022-04-08T14:06:36Z</time>
      </trkpt>
      <trkpt lat="43.48038" lon="6.41774">
        <ele>159</ele>
        <time>2022-04-08T14:06:37Z</time>
      </trkpt>
      <trkpt lat="43.48039" lon="6.41773">
        <ele>159</ele>
        <time>2022-04-08T14:06:38Z</time>
      </trkpt>
      <trkpt lat="43.4804" lon="6.41772">
        <ele>159</ele>
        <time>2022-04-08T14:06:39Z</time>
      </trkpt>
      <trkpt lat="43.4804" lon="6.41772">
        <ele>159</ele>
        <time>2022-04-08T14:06:40Z</time>
      </trkpt>
      <trkpt lat="43.48041" lon="6.41771">
        <ele>158</ele>
        <time>2022-04-08T14:06:41Z</time>
      </trkpt>
      <trkpt lat="43.48043" lon="6.4177">
        <ele>158</ele>
        <time>2022-04-08T14:06:42Z</time>
      </trkpt>
      <trkpt lat="43.48044" lon="6.4177">
        <ele>158</ele>
        <time>2022-04-08T14:06:43Z</time>
      </trkpt>
      <trkpt lat="43.48045" lon="6.4177">
        <ele>158</ele>
        <time>2022-04-08T14:06:44Z</time>
      </trkpt>
      <trkpt lat="43.48046" lon="6.4177">
        <ele>158</ele>
        <time>2022-04-08T14:06:45Z</time>
      </trkpt>
      <trkpt lat="43.48047" lon="6.41769">
        <ele>158</ele>
        <time>2022-04-08T14:06:46Z</time>
      </trkpt>
      <trkpt lat="43.48048" lon="6.41768">
        <ele>158</ele>
        <time>2022-04-08T14:06:47Z</time>
      </trkpt>
      <trkpt lat="43.48049" lon="6.41767">
        <ele>158</ele>
        <time>2022-04-08T14:06:48Z</time>
      </trkpt>
      <trkpt lat="43.48051" lon="6.41767">
        <ele>157</ele>
        <time>2022-04-08T14:06:49Z</time>
      </trkpt>
      <trkpt lat="43.48052" lon="6.41767">
        <ele>157</ele>
        <time>2022-04-08T14:06:50Z</time>
      </trkpt>
      <trkpt lat="43.48053" lon="6.41767">
        <ele>157</ele>
        <time>2022-04-08T14:06:51Z</time>
      </trkpt>
      <trkpt lat="43.48054" lon="6.41766">
        <ele>157</ele>
        <time>2022-04-08T14:06:52Z</time>
      </trkpt>
      <trkpt lat="43.48055" lon="6.41765">
        <ele>157</ele>
        <time>2022-04-08T14:06:53Z</time>
      </trkpt>
      <trkpt lat="43.48056" lon="6.41764">
        <ele>157</ele>
        <time>2022-04-08T14:06:54Z</time>
      </trkpt>
      <trkpt lat="43.48057" lon="6.41763">
        <ele>157</ele>
        <time>2022-04-08T14:06:55Z</time>
      </trkpt>
      <trkpt lat="43.48057" lon="6.41762">
        <ele>157</ele>
        <time>2022-04-08T14:06:56Z</time>
      </trkpt>
      <trkpt lat="43.48058" lon="6.41761">
        <ele>157</ele>
        <time>2022-04-08T14:06:57Z</time>
      </trkpt>
      <trkpt lat="43.48059" lon="6.4176">
        <ele>157</ele>
        <time>2022-04-08T14:06:58Z</time>
      </trkpt>
      <trkpt lat="43.4806" lon="6.41759">
        <ele>157</ele>
        <time>2022-04-08T14:06:59Z</time>
      </trkpt>
      <trkpt lat="43.48061" lon="6.41759">
        <ele>157</ele>
        <time>2022-04-08T14:07:00Z</time>
      </trkpt>
      <trkpt lat="43.48061" lon="6.41758">
        <ele>157</ele>
        <time>2022-04-08T14:07:01Z</time>
      </trkpt>
      <trkpt lat="43.48062" lon="6.41757">
        <ele>157</ele>
        <time>2022-04-08T14:07:02Z</time>
      </trkpt>
      <trkpt lat="43.48063" lon="6.41758">
        <ele>157</ele>
        <time>2022-04-08T14:07:03Z</time>
      </trkpt>
      <trkpt lat="43.48064" lon="6.41758">
        <ele>157</ele>
        <time>2022-04-08T14:07:04Z</time>
      </trkpt>
      <trkpt lat="43.48064" lon="6.41759">
        <ele>157</ele>
        <time>2022-04-08T14:07:05Z</time>
      </trkpt>
      <trkpt lat="43.48065" lon="6.4176">
        <ele>157</ele>
        <time>2022-04-08T14:07:06Z</time>
      </trkpt>
      <trkpt lat="43.48065" lon="6.41761">
        <ele>157</ele>
        <time>2022-04-08T14:07:07Z</time>
      </trkpt>
      <trkpt lat="43.48065" lon="6.41761">
        <ele>157</ele>
        <time>2022-04-08T14:07:08Z</time>
      </trkpt>
      <trkpt lat="43.48065" lon="6.41761">
        <ele>157</ele>
        <time>2022-04-08T14:07:09Z</time>
      </trkpt>
      <trkpt lat="43.48065" lon="6.41761">
        <ele>157</ele>
        <time>2022-04-08T14:07:10Z</time>
      </trkpt>
      <trkpt lat="43.48065" lon="6.41761">
        <ele>157</ele>
        <time>2022-04-08T14:07:11Z</time>
      </trkpt>
      <trkpt lat="43.48065" lon="6.41761">
        <ele>157</ele>
        <time>2022-04-08T14:07:12Z</time>
      </trkpt>
      <trkpt lat="43.48065" lon="6.41761">
        <ele>157</ele>
        <time>2022-04-08T14:07:13Z</time>
      </trkpt>
      <trkpt lat="43.48065" lon="6.41761">
        <ele>157</ele>
        <time>2022-04-08T14:07:14Z</time>
      </trkpt>
      <trkpt lat="43.48065" lon="6.41761">
        <ele>157</ele>
        <time>2022-04-08T14:07:15Z</time>
      </trkpt>
      <trkpt lat="43.48065" lon="6.41761">
        <ele>157</ele>
        <time>2022-04-08T14:07:16Z</time>
      </trkpt>
      <trkpt lat="43.48066" lon="6.41763">
        <ele>157</ele>
        <time>2022-04-08T14:07:17Z</time>
      </trkpt>
      <trkpt lat="43.48067" lon="6.41762">
        <ele>157</ele>
        <time>2022-04-08T14:07:18Z</time>
      </trkpt>
      <trkpt lat="43.48067" lon="6.41761">
        <ele>157</ele>
        <time>2022-04-08T14:07:19Z</time>
      </trkpt>
      <trkpt lat="43.48068" lon="6.4176">
        <ele>158</ele>
        <time>2022-04-08T14:07:20Z</time>
      </trkpt>
      <trkpt lat="43.48068" lon="6.4176">
        <ele>158</ele>
        <time>2022-04-08T14:07:21Z</time>
      </trkpt>
      <trkpt lat="43.48069" lon="6.41759">
        <ele>158</ele>
        <time>2022-04-08T14:07:22Z</time>
      </trkpt>
      <trkpt lat="43.48069" lon="6.41758">
        <ele>158</ele>
        <time>2022-04-08T14:07:23Z</time>
      </trkpt>
      <trkpt lat="43.4807" lon="6.41757">
        <ele>158</ele>
        <time>2022-04-08T14:07:24Z</time>
      </trkpt>
      <trkpt lat="43.4807" lon="6.41756">
        <ele>158</ele>
        <time>2022-04-08T14:07:25Z</time>
      </trkpt>
      <trkpt lat="43.4807" lon="6.41756">
        <ele>158</ele>
        <time>2022-04-08T14:07:26Z</time>
      </trkpt>
      <trkpt lat="43.48071" lon="6.41755">
        <ele>158</ele>
        <time>2022-04-08T14:07:27Z</time>
      </trkpt>
      <trkpt lat="43.48071" lon="6.41754">
        <ele>158</ele>
        <time>2022-04-08T14:07:28Z</time>
      </trkpt>
      <trkpt lat="43.48071" lon="6.41753">
        <ele>158</ele>
        <time>2022-04-08T14:07:29Z</time>
      </trkpt>
      <trkpt lat="43.48072" lon="6.41751">
        <ele>159</ele>
        <time>2022-04-08T14:07:30Z</time>
      </trkpt>
      <trkpt lat="43.48073" lon="6.4175">
        <ele>159</ele>
        <time>2022-04-08T14:07:31Z</time>
      </trkpt>
      <trkpt lat="43.48074" lon="6.41749">
        <ele>160</ele>
        <time>2022-04-08T14:07:32Z</time>
      </trkpt>
      <trkpt lat="43.48075" lon="6.41748">
        <ele>160</ele>
        <time>2022-04-08T14:07:33Z</time>
      </trkpt>
      <trkpt lat="43.48075" lon="6.41747">
        <ele>160</ele>
        <time>2022-04-08T14:07:34Z</time>
      </trkpt>
      <trkpt lat="43.48076" lon="6.41745">
        <ele>160</ele>
        <time>2022-04-08T14:07:35Z</time>
      </trkpt>
      <trkpt lat="43.48077" lon="6.41745">
        <ele>160</ele>
        <time>2022-04-08T14:07:36Z</time>
      </trkpt>
      <trkpt lat="43.48077" lon="6.41744">
        <ele>160</ele>
        <time>2022-04-08T14:07:37Z</time>
      </trkpt>
      <trkpt lat="43.48078" lon="6.41743">
        <ele>160</ele>
        <time>2022-04-08T14:07:38Z</time>
      </trkpt>
      <trkpt lat="43.48078" lon="6.41742">
        <ele>161</ele>
        <time>2022-04-08T14:07:39Z</time>
      </trkpt>
      <trkpt lat="43.48078" lon="6.41741">
        <ele>161</ele>
        <time>2022-04-08T14:07:40Z</time>
      </trkpt>
      <trkpt lat="43.48078" lon="6.41739">
        <ele>161</ele>
        <time>2022-04-08T14:07:41Z</time>
      </trkpt>
      <trkpt lat="43.48079" lon="6.41738">
        <ele>161</ele>
        <time>2022-04-08T14:07:42Z</time>
      </trkpt>
      <trkpt lat="43.48079" lon="6.41737">
        <ele>161</ele>
        <time>2022-04-08T14:07:43Z</time>
      </trkpt>
      <trkpt lat="43.4808" lon="6.41737">
        <ele>161</ele>
        <time>2022-04-08T14:07:44Z</time>
      </trkpt>
      <trkpt lat="43.4808" lon="6.41737">
        <ele>161</ele>
        <time>2022-04-08T14:07:45Z</time>
      </trkpt>
      <trkpt lat="43.4808" lon="6.41737">
        <ele>161</ele>
        <time>2022-04-08T14:07:46Z</time>
      </trkpt>
      <trkpt lat="43.4808" lon="6.41737">
        <ele>161</ele>
        <time>2022-04-08T14:07:47Z</time>
      </trkpt>
      <trkpt lat="43.4808" lon="6.41737">
        <ele>161</ele>
        <time>2022-04-08T14:07:48Z</time>
      </trkpt>
      <trkpt lat="43.4808" lon="6.41737">
        <ele>161</ele>
        <time>2022-04-08T14:07:49Z</time>
      </trkpt>
      <trkpt lat="43.4808" lon="6.41737">
        <ele>161</ele>
        <time>2022-04-08T14:07:50Z</time>
      </trkpt>
      <trkpt lat="43.4808" lon="6.41737">
        <ele>161</ele>
        <time>2022-04-08T14:07:51Z</time>
      </trkpt>
      <trkpt lat="43.4808" lon="6.41737">
        <ele>161</ele>
        <time>2022-04-08T14:07:52Z</time>
      </trkpt>
      <trkpt lat="43.4808" lon="6.41737">
        <ele>161</ele>
        <time>2022-04-08T14:07:53Z</time>
      </trkpt>
      <trkpt lat="43.4808" lon="6.41737">
        <ele>161</ele>
        <time>2022-04-08T14:07:54Z</time>
      </trkpt>
      <trkpt lat="43.4808" lon="6.41737">
        <ele>161</ele>
        <time>2022-04-08T14:07:55Z</time>
      </trkpt>
      <trkpt lat="43.4808" lon="6.41737">
        <ele>161</ele>
        <time>2022-04-08T14:07:56Z</time>
      </trkpt>
      <trkpt lat="43.4808" lon="6.41737">
        <ele>161</ele>
        <time>2022-04-08T14:07:57Z</time>
      </trkpt>
      <trkpt lat="43.4808" lon="6.41737">
        <ele>161</ele>
        <time>2022-04-08T14:07:58Z</time>
      </trkpt>
      <trkpt lat="43.4808" lon="6.41737">
        <ele>161</ele>
        <time>2022-04-08T14:07:59Z</time>
      </trkpt>
      <trkpt lat="43.4808" lon="6.41737">
        <ele>161</ele>
        <time>2022-04-08T14:08:00Z</time>
      </trkpt>
      <trkpt lat="43.4808" lon="6.41737">
        <ele>161</ele>
        <time>2022-04-08T14:08:01Z</time>
      </trkpt>
      <trkpt lat="43.4808" lon="6.41737">
        <ele>161</ele>
        <time>2022-04-08T14:08:02Z</time>
      </trkpt>
      <trkpt lat="43.4808" lon="6.41737">
        <ele>161</ele>
        <time>2022-04-08T14:08:03Z</time>
      </trkpt>
      <trkpt lat="43.4808" lon="6.41737">
        <ele>161</ele>
        <time>2022-04-08T14:08:04Z</time>
      </trkpt>
      <trkpt lat="43.48081" lon="6.41741">
        <ele>161</ele>
        <time>2022-04-08T14:08:05Z</time>
      </trkpt>
      <trkpt lat="43.48081" lon="6.41741">
        <ele>161</ele>
        <time>2022-04-08T14:08:06Z</time>
      </trkpt>
      <trkpt lat="43.48082" lon="6.41741">
        <ele>161</ele>
        <time>2022-04-08T14:08:07Z</time>
      </trkpt>
      <trkpt lat="43.48082" lon="6.4174">
        <ele>161</ele>
        <time>2022-04-08T14:08:08Z</time>
      </trkpt>
      <trkpt lat="43.48082" lon="6.41739">
        <ele>161</ele>
        <time>2022-04-08T14:08:09Z</time>
      </trkpt>
      <trkpt lat="43.48083" lon="6.41738">
        <ele>161</ele>
        <time>2022-04-08T14:08:10Z</time>
      </trkpt>
      <trkpt lat="43.48084" lon="6.41738">
        <ele>161</ele>
        <time>2022-04-08T14:08:11Z</time>
      </trkpt>
      <trkpt lat="43.48084" lon="6.41738">
        <ele>161</ele>
        <time>2022-04-08T14:08:12Z</time>
      </trkpt>
      <trkpt lat="43.48085" lon="6.41737">
        <ele>161</ele>
        <time>2022-04-08T14:08:13Z</time>
      </trkpt>
      <trkpt lat="43.48085" lon="6.41737">
        <ele>161</ele>
        <time>2022-04-08T14:08:14Z</time>
      </trkpt>
      <trkpt lat="43.48085" lon="6.41737">
        <ele>161</ele>
        <time>2022-04-08T14:08:15Z</time>
      </trkpt>
      <trkpt lat="43.48085" lon="6.41737">
        <ele>161</ele>
        <time>2022-04-08T14:08:16Z</time>
      </trkpt>
      <trkpt lat="43.48085" lon="6.41737">
        <ele>161</ele>
        <time>2022-04-08T14:08:17Z</time>
      </trkpt>
      <trkpt lat="43.48085" lon="6.41737">
        <ele>161</ele>
        <time>2022-04-08T14:08:18Z</time>
      </trkpt>
      <trkpt lat="43.48085" lon="6.41737">
        <ele>161</ele>
        <time>2022-04-08T14:08:19Z</time>
      </trkpt>
      <trkpt lat="43.48085" lon="6.41737">
        <ele>161</ele>
        <time>2022-04-08T14:08:20Z</time>
      </trkpt>
      <trkpt lat="43.48085" lon="6.41738">
        <ele>161</ele>
        <time>2022-04-08T14:08:21Z</time>
      </trkpt>
      <trkpt lat="43.48085" lon="6.41737">
        <ele>161</ele>
        <time>2022-04-08T14:08:22Z</time>
      </trkpt>
      <trkpt lat="43.48085" lon="6.41737">
        <ele>161</ele>
        <time>2022-04-08T14:08:23Z</time>
      </trkpt>
      <trkpt lat="43.48085" lon="6.41737">
        <ele>161</ele>
        <time>2022-04-08T14:08:24Z</time>
      </trkpt>
      <trkpt lat="43.48085" lon="6.41736">
        <ele>161</ele>
        <time>2022-04-08T14:08:25Z</time>
      </trkpt>
      <trkpt lat="43.48085" lon="6.41736">
        <ele>161</ele>
        <time>2022-04-08T14:08:26Z</time>
      </trkpt>
      <trkpt lat="43.48085" lon="6.41736">
        <ele>161</ele>
        <time>2022-04-08T14:08:27Z</time>
      </trkpt>
      <trkpt lat="43.48084" lon="6.41736">
        <ele>161</ele>
        <time>2022-04-08T14:08:28Z</time>
      </trkpt>
      <trkpt lat="43.48084" lon="6.41736">
        <ele>161</ele>
        <time>2022-04-08T14:08:29Z</time>
      </trkpt>
      <trkpt lat="43.48084" lon="6.41736">
        <ele>161</ele>
        <time>2022-04-08T14:08:30Z</time>
      </trkpt>
      <trkpt lat="43.48084" lon="6.41737">
        <ele>161</ele>
        <time>2022-04-08T14:08:31Z</time>
      </trkpt>
      <trkpt lat="43.48084" lon="6.41737">
        <ele>161</ele>
        <time>2022-04-08T14:08:32Z</time>
      </trkpt>
      <trkpt lat="43.48084" lon="6.41737">
        <ele>161</ele>
        <time>2022-04-08T14:08:33Z</time>
      </trkpt>
      <trkpt lat="43.48084" lon="6.41737">
        <ele>161</ele>
        <time>2022-04-08T14:08:34Z</time>
      </trkpt>
      <trkpt lat="43.48084" lon="6.41737">
        <ele>161</ele>
        <time>2022-04-08T14:08:35Z</time>
      </trkpt>
      <trkpt lat="43.48084" lon="6.41737">
        <ele>161</ele>
        <time>2022-04-08T14:08:36Z</time>
      </trkpt>
      <trkpt lat="43.48084" lon="6.41737">
        <ele>161</ele>
        <time>2022-04-08T14:08:37Z</time>
      </trkpt>
      <trkpt lat="43.48084" lon="6.41737">
        <ele>161</ele>
        <time>2022-04-08T14:08:38Z</time>
      </trkpt>
      <trkpt lat="43.48084" lon="6.41737">
        <ele>161</ele>
        <time>2022-04-08T14:08:39Z</time>
      </trkpt>
      <trkpt lat="43.48084" lon="6.41737">
        <ele>161</ele>
        <time>2022-04-08T14:08:40Z</time>
      </trkpt>
      <trkpt lat="43.48084" lon="6.41737">
        <ele>161</ele>
        <time>2022-04-08T14:08:41Z</time>
      </trkpt>
      <trkpt lat="43.48084" lon="6.41737">
        <ele>161</ele>
        <time>2022-04-08T14:08:42Z</time>
      </trkpt>
      <trkpt lat="43.48084" lon="6.41737">
        <ele>161</ele>
        <time>2022-04-08T14:08:43Z</time>
      </trkpt>
      <trkpt lat="43.48084" lon="6.41737">
        <ele>161</ele>
        <time>2022-04-08T14:08:44Z</time>
      </trkpt>
      <trkpt lat="43.48084" lon="6.41737">
        <ele>161</ele>
        <time>2022-04-08T14:08:45Z</time>
      </trkpt>
      <trkpt lat="43.48084" lon="6.41737">
        <ele>161</ele>
        <time>2022-04-08T14:08:46Z</time>
      </trkpt>
      <trkpt lat="43.48084" lon="6.41737">
        <ele>161</ele>
        <time>2022-04-08T14:08:47Z</time>
      </trkpt>
      <trkpt lat="43.48084" lon="6.41737">
        <ele>161</ele>
        <time>2022-04-08T14:08:48Z</time>
      </trkpt>
      <trkpt lat="43.48084" lon="6.41737">
        <ele>161</ele>
        <time>2022-04-08T14:08:49Z</time>
      </trkpt>
      <trkpt lat="43.48084" lon="6.41737">
        <ele>161</ele>
        <time>2022-04-08T14:08:50Z</time>
      </trkpt>
      <trkpt lat="43.48084" lon="6.41737">
        <ele>161</ele>
        <time>2022-04-08T14:08:51Z</time>
      </trkpt>
      <trkpt lat="43.48084" lon="6.41737">
        <ele>161</ele>
        <time>2022-04-08T14:08:52Z</time>
      </trkpt>
      <trkpt lat="43.48084" lon="6.41737">
        <ele>161</ele>
        <time>2022-04-08T14:08:53Z</time>
      </trkpt>
      <trkpt lat="43.48084" lon="6.41737">
        <ele>161</ele>
        <time>2022-04-08T14:08:54Z</time>
      </trkpt>
      <trkpt lat="43.48084" lon="6.41737">
        <ele>161</ele>
        <time>2022-04-08T14:08:55Z</time>
      </trkpt>
      <trkpt lat="43.48084" lon="6.41737">
        <ele>161</ele>
        <time>2022-04-08T14:08:56Z</time>
      </trkpt>
      <trkpt lat="43.48084" lon="6.41737">
        <ele>161</ele>
        <time>2022-04-08T14:08:57Z</time>
      </trkpt>
      <trkpt lat="43.48084" lon="6.41737">
        <ele>161</ele>
        <time>2022-04-08T14:08:58Z</time>
      </trkpt>
      <trkpt lat="43.48084" lon="6.41737">
        <ele>161</ele>
        <time>2022-04-08T14:08:59Z</time>
      </trkpt>
      <trkpt lat="43.48084" lon="6.41737">
        <ele>161</ele>
        <time>2022-04-08T14:09:00Z</time>
      </trkpt>
      <trkpt lat="43.48084" lon="6.41737">
        <ele>161</ele>
        <time>2022-04-08T14:09:01Z</time>
      </trkpt>
      <trkpt lat="43.48084" lon="6.41737">
        <ele>161</ele>
        <time>2022-04-08T14:09:02Z</time>
      </trkpt>
      <trkpt lat="43.48084" lon="6.41737">
        <ele>161</ele>
        <time>2022-04-08T14:09:03Z</time>
      </trkpt>
      <trkpt lat="43.48084" lon="6.41737">
        <ele>161</ele>
        <time>2022-04-08T14:09:04Z</time>
      </trkpt>
      <trkpt lat="43.48084" lon="6.41737">
        <ele>161</ele>
        <time>2022-04-08T14:09:05Z</time>
      </trkpt>
      <trkpt lat="43.48084" lon="6.41737">
        <ele>161</ele>
        <time>2022-04-08T14:09:06Z</time>
      </trkpt>
      <trkpt lat="43.48084" lon="6.41737">
        <ele>161</ele>
        <time>2022-04-08T14:09:07Z</time>
      </trkpt>
      <trkpt lat="43.48084" lon="6.41737">
        <ele>161</ele>
        <time>2022-04-08T14:09:08Z</time>
      </trkpt>
      <trkpt lat="43.48084" lon="6.41737">
        <ele>161</ele>
        <time>2022-04-08T14:09:09Z</time>
      </trkpt>
      <trkpt lat="43.48084" lon="6.41737">
        <ele>161</ele>
        <time>2022-04-08T14:09:10Z</time>
      </trkpt>
      <trkpt lat="43.48084" lon="6.41737">
        <ele>161</ele>
        <time>2022-04-08T14:09:11Z</time>
      </trkpt>
      <trkpt lat="43.48084" lon="6.41737">
        <ele>161</ele>
        <time>2022-04-08T14:09:12Z</time>
      </trkpt>
      <trkpt lat="43.48084" lon="6.41737">
        <ele>161</ele>
        <time>2022-04-08T14:09:13Z</time>
      </trkpt>
      <trkpt lat="43.48084" lon="6.41737">
        <ele>161</ele>
        <time>2022-04-08T14:09:14Z</time>
      </trkpt>
      <trkpt lat="43.48084" lon="6.41737">
        <ele>161</ele>
        <time>2022-04-08T14:09:15Z</time>
      </trkpt>
      <trkpt lat="43.48084" lon="6.41737">
        <ele>161</ele>
        <time>2022-04-08T14:09:16Z</time>
      </trkpt>
      <trkpt lat="43.48084" lon="6.41737">
        <ele>161</ele>
        <time>2022-04-08T14:09:17Z</time>
      </trkpt>
      <trkpt lat="43.48084" lon="6.41737">
        <ele>161</ele>
        <time>2022-04-08T14:09:18Z</time>
      </trkpt>
      <trkpt lat="43.48084" lon="6.41737">
        <ele>161</ele>
        <time>2022-04-08T14:09:19Z</time>
      </trkpt>
      <trkpt lat="43.48084" lon="6.41737">
        <ele>161</ele>
        <time>2022-04-08T14:09:20Z</time>
      </trkpt>
      <trkpt lat="43.48084" lon="6.41737">
        <ele>161</ele>
        <time>2022-04-08T14:09:21Z</time>
      </trkpt>
      <trkpt lat="43.48084" lon="6.41737">
        <ele>161</ele>
        <time>2022-04-08T14:09:22Z</time>
      </trkpt>
      <trkpt lat="43.48084" lon="6.41737">
        <ele>161</ele>
        <time>2022-04-08T14:09:23Z</time>
      </trkpt>
      <trkpt lat="43.48084" lon="6.41737">
        <ele>161</ele>
        <time>2022-04-08T14:09:24Z</time>
      </trkpt>
      <trkpt lat="43.48084" lon="6.41737">
        <ele>161</ele>
        <time>2022-04-08T14:09:25Z</time>
      </trkpt>
      <trkpt lat="43.48084" lon="6.41737">
        <ele>161</ele>
        <time>2022-04-08T14:09:26Z</time>
      </trkpt>
      <trkpt lat="43.48084" lon="6.41737">
        <ele>161</ele>
        <time>2022-04-08T14:09:27Z</time>
      </trkpt>
      <trkpt lat="43.48084" lon="6.41737">
        <ele>161</ele>
        <time>2022-04-08T14:09:28Z</time>
      </trkpt>
      <trkpt lat="43.48084" lon="6.41737">
        <ele>161</ele>
        <time>2022-04-08T14:09:29Z</time>
      </trkpt>
      <trkpt lat="43.48084" lon="6.41737">
        <ele>161</ele>
        <time>2022-04-08T14:09:30Z</time>
      </trkpt>
      <trkpt lat="43.48087" lon="6.41744">
        <ele>161</ele>
        <time>2022-04-08T14:09:31Z</time>
      </trkpt>
      <trkpt lat="43.48087" lon="6.41744">
        <ele>161</ele>
        <time>2022-04-08T14:09:32Z</time>
      </trkpt>
      <trkpt lat="43.48087" lon="6.41744">
        <ele>161</ele>
        <time>2022-04-08T14:09:33Z</time>
      </trkpt>
      <trkpt lat="43.48087" lon="6.41744">
        <ele>161</ele>
        <time>2022-04-08T14:09:34Z</time>
      </trkpt>
      <trkpt lat="43.48087" lon="6.41744">
        <ele>161</ele>
        <time>2022-04-08T14:09:35Z</time>
      </trkpt>
      <trkpt lat="43.48087" lon="6.41745">
        <ele>161</ele>
        <time>2022-04-08T14:09:36Z</time>
      </trkpt>
      <trkpt lat="43.48087" lon="6.41744">
        <ele>161</ele>
        <time>2022-04-08T14:09:37Z</time>
      </trkpt>
      <trkpt lat="43.48088" lon="6.41744">
        <ele>161</ele>
        <time>2022-04-08T14:09:38Z</time>
      </trkpt>
      <trkpt lat="43.48088" lon="6.41744">
        <ele>161</ele>
        <time>2022-04-08T14:09:39Z</time>
      </trkpt>
      <trkpt lat="43.48088" lon="6.41744">
        <ele>161</ele>
        <time>2022-04-08T14:09:40Z</time>
      </trkpt>
      <trkpt lat="43.48088" lon="6.41744">
        <ele>161</ele>
        <time>2022-04-08T14:09:41Z</time>
      </trkpt>
      <trkpt lat="43.48088" lon="6.41744">
        <ele>161</ele>
        <time>2022-04-08T14:09:42Z</time>
      </trkpt>
      <trkpt lat="43.48088" lon="6.41744">
        <ele>161</ele>
        <time>2022-04-08T14:09:43Z</time>
      </trkpt>
      <trkpt lat="43.48088" lon="6.41744">
        <ele>161</ele>
        <time>2022-04-08T14:09:44Z</time>
      </trkpt>
      <trkpt lat="43.48088" lon="6.41744">
        <ele>161</ele>
        <time>2022-04-08T14:09:45Z</time>
      </trkpt>
      <trkpt lat="43.48088" lon="6.41744">
        <ele>161</ele>
        <time>2022-04-08T14:09:46Z</time>
      </trkpt>
      <trkpt lat="43.48088" lon="6.41744">
        <ele>161</ele>
        <time>2022-04-08T14:09:47Z</time>
      </trkpt>
      <trkpt lat="43.48088" lon="6.41744">
        <ele>161</ele>
        <time>2022-04-08T14:09:48Z</time>
      </trkpt>
      <trkpt lat="43.48088" lon="6.41744">
        <ele>161</ele>
        <time>2022-04-08T14:09:49Z</time>
      </trkpt>
      <trkpt lat="43.48088" lon="6.41744">
        <ele>161</ele>
        <time>2022-04-08T14:09:50Z</time>
      </trkpt>
      <trkpt lat="43.48088" lon="6.41744">
        <ele>161</ele>
        <time>2022-04-08T14:09:51Z</time>
      </trkpt>
      <trkpt lat="43.48088" lon="6.41744">
        <ele>161</ele>
        <time>2022-04-08T14:09:52Z</time>
      </trkpt>
      <trkpt lat="43.48088" lon="6.41744">
        <ele>161</ele>
        <time>2022-04-08T14:09:53Z</time>
      </trkpt>
      <trkpt lat="43.48088" lon="6.41744">
        <ele>161</ele>
        <time>2022-04-08T14:09:54Z</time>
      </trkpt>
      <trkpt lat="43.48088" lon="6.41744">
        <ele>161</ele>
        <time>2022-04-08T14:09:55Z</time>
      </trkpt>
      <trkpt lat="43.48088" lon="6.41744">
        <ele>161</ele>
        <time>2022-04-08T14:09:56Z</time>
      </trkpt>
      <trkpt lat="43.48088" lon="6.41744">
        <ele>161</ele>
        <time>2022-04-08T14:09:57Z</time>
      </trkpt>
      <trkpt lat="43.48088" lon="6.41744">
        <ele>161</ele>
        <time>2022-04-08T14:09:58Z</time>
      </trkpt>
      <trkpt lat="43.48088" lon="6.41744">
        <ele>161</ele>
        <time>2022-04-08T14:09:59Z</time>
      </trkpt>
      <trkpt lat="43.48088" lon="6.41744">
        <ele>161</ele>
        <time>2022-04-08T14:10:00Z</time>
      </trkpt>
      <trkpt lat="43.48088" lon="6.41742">
        <ele>161</ele>
        <time>2022-04-08T14:10:01Z</time>
      </trkpt>
      <trkpt lat="43.48088" lon="6.41741">
        <ele>161</ele>
        <time>2022-04-08T14:10:02Z</time>
      </trkpt>
      <trkpt lat="43.48087" lon="6.41741">
        <ele>161</ele>
        <time>2022-04-08T14:10:03Z</time>
      </trkpt>
      <trkpt lat="43.48087" lon="6.4174">
        <ele>161</ele>
        <time>2022-04-08T14:10:04Z</time>
      </trkpt>
      <trkpt lat="43.48086" lon="6.4174">
        <ele>161</ele>
        <time>2022-04-08T14:10:05Z</time>
      </trkpt>
      <trkpt lat="43.48086" lon="6.41739">
        <ele>161</ele>
        <time>2022-04-08T14:10:06Z</time>
      </trkpt>
      <trkpt lat="43.48086" lon="6.41738">
        <ele>161</ele>
        <time>2022-04-08T14:10:07Z</time>
      </trkpt>
      <trkpt lat="43.48086" lon="6.41738">
        <ele>161</ele>
        <time>2022-04-08T14:10:08Z</time>
      </trkpt>
      <trkpt lat="43.48086" lon="6.41737">
        <ele>161</ele>
        <time>2022-04-08T14:10:09Z</time>
      </trkpt>
      <trkpt lat="43.48086" lon="6.41736">
        <ele>161</ele>
        <time>2022-04-08T14:10:10Z</time>
      </trkpt>
      <trkpt lat="43.48087" lon="6.41735">
        <ele>161</ele>
        <time>2022-04-08T14:10:11Z</time>
      </trkpt>
      <trkpt lat="43.48087" lon="6.41734">
        <ele>161</ele>
        <time>2022-04-08T14:10:12Z</time>
      </trkpt>
      <trkpt lat="43.48088" lon="6.41733">
        <ele>161</ele>
        <time>2022-04-08T14:10:13Z</time>
      </trkpt>
      <trkpt lat="43.48089" lon="6.41732">
        <ele>160</ele>
        <time>2022-04-08T14:10:14Z</time>
      </trkpt>
      <trkpt lat="43.4809" lon="6.41731">
        <ele>160</ele>
        <time>2022-04-08T14:10:15Z</time>
      </trkpt>
      <trkpt lat="43.4809" lon="6.4173">
        <ele>160</ele>
        <time>2022-04-08T14:10:16Z</time>
      </trkpt>
      <trkpt lat="43.4809" lon="6.4173">
        <ele>160</ele>
        <time>2022-04-08T14:10:17Z</time>
      </trkpt>
      <trkpt lat="43.4809" lon="6.4173">
        <ele>160</ele>
        <time>2022-04-08T14:10:18Z</time>
      </trkpt>
      <trkpt lat="43.4809" lon="6.4173">
        <ele>160</ele>
        <time>2022-04-08T14:10:19Z</time>
      </trkpt>
      <trkpt lat="43.48092" lon="6.4173">
        <ele>160</ele>
        <time>2022-04-08T14:10:20Z</time>
      </trkpt>
      <trkpt lat="43.48093" lon="6.4173">
        <ele>160</ele>
        <time>2022-04-08T14:10:21Z</time>
      </trkpt>
      <trkpt lat="43.48094" lon="6.4173">
        <ele>160</ele>
        <time>2022-04-08T14:10:22Z</time>
      </trkpt>
      <trkpt lat="43.48095" lon="6.4173">
        <ele>160</ele>
        <time>2022-04-08T14:10:23Z</time>
      </trkpt>
      <trkpt lat="43.48096" lon="6.41729">
        <ele>160</ele>
        <time>2022-04-08T14:10:24Z</time>
      </trkpt>
      <trkpt lat="43.48097" lon="6.41729">
        <ele>160</ele>
        <time>2022-04-08T14:10:25Z</time>
      </trkpt>
      <trkpt lat="43.48097" lon="6.41728">
        <ele>160</ele>
        <time>2022-04-08T14:10:26Z</time>
      </trkpt>
      <trkpt lat="43.48098" lon="6.41727">
        <ele>160</ele>
        <time>2022-04-08T14:10:27Z</time>
      </trkpt>
      <trkpt lat="43.48098" lon="6.41727">
        <ele>160</ele>
        <time>2022-04-08T14:10:28Z</time>
      </trkpt>
      <trkpt lat="43.48099" lon="6.41726">
        <ele>160</ele>
        <time>2022-04-08T14:10:29Z</time>
      </trkpt>
      <trkpt lat="43.481" lon="6.41725">
        <ele>160</ele>
        <time>2022-04-08T14:10:30Z</time>
      </trkpt>
      <trkpt lat="43.48101" lon="6.41724">
        <ele>160</ele>
        <time>2022-04-08T14:10:31Z</time>
      </trkpt>
      <trkpt lat="43.48102" lon="6.41723">
        <ele>160</ele>
        <time>2022-04-08T14:10:32Z</time>
      </trkpt>
      <trkpt lat="43.48103" lon="6.41722">
        <ele>160</ele>
        <time>2022-04-08T14:10:33Z</time>
      </trkpt>
      <trkpt lat="43.48104" lon="6.41722">
        <ele>160</ele>
        <time>2022-04-08T14:10:34Z</time>
      </trkpt>
      <trkpt lat="43.48105" lon="6.41721">
        <ele>160</ele>
        <time>2022-04-08T14:10:35Z</time>
      </trkpt>
      <trkpt lat="43.48106" lon="6.4172">
        <ele>160</ele>
        <time>2022-04-08T14:10:36Z</time>
      </trkpt>
      <trkpt lat="43.48106" lon="6.41719">
        <ele>160</ele>
        <time>2022-04-08T14:10:37Z</time>
      </trkpt>
      <trkpt lat="43.48107" lon="6.41718">
        <ele>160</ele>
        <time>2022-04-08T14:10:38Z</time>
      </trkpt>
      <trkpt lat="43.48109" lon="6.41717">
        <ele>160</ele>
        <time>2022-04-08T14:10:39Z</time>
      </trkpt>
      <trkpt lat="43.4811" lon="6.41716">
        <ele>160</ele>
        <time>2022-04-08T14:10:40Z</time>
      </trkpt>
      <trkpt lat="43.48111" lon="6.41715">
        <ele>161</ele>
        <time>2022-04-08T14:10:41Z</time>
      </trkpt>
      <trkpt lat="43.48112" lon="6.41714">
        <ele>161</ele>
        <time>2022-04-08T14:10:42Z</time>
      </trkpt>
      <trkpt lat="43.48113" lon="6.41713">
        <ele>161</ele>
        <time>2022-04-08T14:10:43Z</time>
      </trkpt>
      <trkpt lat="43.48113" lon="6.41712">
        <ele>161</ele>
        <time>2022-04-08T14:10:44Z</time>
      </trkpt>
      <trkpt lat="43.48113" lon="6.41712">
        <ele>161</ele>
        <time>2022-04-08T14:10:45Z</time>
      </trkpt>
      <trkpt lat="43.48114" lon="6.41712">
        <ele>161</ele>
        <time>2022-04-08T14:10:46Z</time>
      </trkpt>
      <trkpt lat="43.48114" lon="6.41711">
        <ele>161</ele>
        <time>2022-04-08T14:10:47Z</time>
      </trkpt>
      <trkpt lat="43.48115" lon="6.41711">
        <ele>161</ele>
        <time>2022-04-08T14:10:48Z</time>
      </trkpt>
      <trkpt lat="43.48116" lon="6.4171">
        <ele>161</ele>
        <time>2022-04-08T14:10:49Z</time>
      </trkpt>
      <trkpt lat="43.48117" lon="6.41709">
        <ele>161</ele>
        <time>2022-04-08T14:10:50Z</time>
      </trkpt>
      <trkpt lat="43.48117" lon="6.41708">
        <ele>161</ele>
        <time>2022-04-08T14:10:51Z</time>
      </trkpt>
      <trkpt lat="43.48117" lon="6.41708">
        <ele>161</ele>
        <time>2022-04-08T14:10:52Z</time>
      </trkpt>
      <trkpt lat="43.48118" lon="6.41707">
        <ele>161</ele>
        <time>2022-04-08T14:10:53Z</time>
      </trkpt>
      <trkpt lat="43.48118" lon="6.41707">
        <ele>161</ele>
        <time>2022-04-08T14:10:54Z</time>
      </trkpt>
      <trkpt lat="43.48118" lon="6.41707">
        <ele>161</ele>
        <time>2022-04-08T14:10:55Z</time>
      </trkpt>
      <trkpt lat="43.48119" lon="6.41706">
        <ele>160</ele>
        <time>2022-04-08T14:10:56Z</time>
      </trkpt>
      <trkpt lat="43.48119" lon="6.41706">
        <ele>160</ele>
        <time>2022-04-08T14:10:57Z</time>
      </trkpt>
      <trkpt lat="43.4812" lon="6.41705">
        <ele>160</ele>
        <time>2022-04-08T14:10:58Z</time>
      </trkpt>
      <trkpt lat="43.4812" lon="6.41705">
        <ele>160</ele>
        <time>2022-04-08T14:10:59Z</time>
      </trkpt>
      <trkpt lat="43.48121" lon="6.41705">
        <ele>160</ele>
        <time>2022-04-08T14:11:00Z</time>
      </trkpt>
      <trkpt lat="43.48121" lon="6.41704">
        <ele>160</ele>
        <time>2022-04-08T14:11:01Z</time>
      </trkpt>
      <trkpt lat="43.48122" lon="6.41703">
        <ele>160</ele>
        <time>2022-04-08T14:11:02Z</time>
      </trkpt>
      <trkpt lat="43.48122" lon="6.41703">
        <ele>161</ele>
        <time>2022-04-08T14:11:03Z</time>
      </trkpt>
      <trkpt lat="43.48123" lon="6.41702">
        <ele>161</ele>
        <time>2022-04-08T14:11:04Z</time>
      </trkpt>
      <trkpt lat="43.48124" lon="6.41702">
        <ele>161</ele>
        <time>2022-04-08T14:11:05Z</time>
      </trkpt>
      <trkpt lat="43.48124" lon="6.41701">
        <ele>161</ele>
        <time>2022-04-08T14:11:06Z</time>
      </trkpt>
      <trkpt lat="43.48125" lon="6.417">
        <ele>161</ele>
        <time>2022-04-08T14:11:07Z</time>
      </trkpt>
      <trkpt lat="43.48127" lon="6.41699">
        <ele>161</ele>
        <time>2022-04-08T14:11:08Z</time>
      </trkpt>
      <trkpt lat="43.48128" lon="6.41698">
        <ele>161</ele>
        <time>2022-04-08T14:11:09Z</time>
      </trkpt>
      <trkpt lat="43.4813" lon="6.41696">
        <ele>161</ele>
        <time>2022-04-08T14:11:10Z</time>
      </trkpt>
      <trkpt lat="43.4813" lon="6.41695">
        <ele>161</ele>
        <time>2022-04-08T14:11:11Z</time>
      </trkpt>
      <trkpt lat="43.48132" lon="6.41693">
        <ele>161</ele>
        <time>2022-04-08T14:11:13Z</time>
      </trkpt>
      <trkpt lat="43.48133" lon="6.41692">
        <ele>161</ele>
        <time>2022-04-08T14:11:14Z</time>
      </trkpt>
      <trkpt lat="43.48133" lon="6.41692">
        <ele>161</ele>
        <time>2022-04-08T14:11:15Z</time>
      </trkpt>
      <trkpt lat="43.48134" lon="6.41691">
        <ele>161</ele>
        <time>2022-04-08T14:11:16Z</time>
      </trkpt>
      <trkpt lat="43.48134" lon="6.41691">
        <ele>161</ele>
        <time>2022-04-08T14:11:17Z</time>
      </trkpt>
      <trkpt lat="43.48135" lon="6.4169">
        <ele>161</ele>
        <time>2022-04-08T14:11:18Z</time>
      </trkpt>
      <trkpt lat="43.48135" lon="6.4169">
        <ele>161</ele>
        <time>2022-04-08T14:11:19Z</time>
      </trkpt>
      <trkpt lat="43.48135" lon="6.4169">
        <ele>161</ele>
        <time>2022-04-08T14:11:20Z</time>
      </trkpt>
      <trkpt lat="43.48136" lon="6.41689">
        <ele>161</ele>
        <time>2022-04-08T14:11:21Z</time>
      </trkpt>
      <trkpt lat="43.48136" lon="6.41688">
        <ele>161</ele>
        <time>2022-04-08T14:11:22Z</time>
      </trkpt>
      <trkpt lat="43.48137" lon="6.41688">
        <ele>161</ele>
        <time>2022-04-08T14:11:23Z</time>
      </trkpt>
      <trkpt lat="43.48137" lon="6.41687">
        <ele>162</ele>
        <time>2022-04-08T14:11:24Z</time>
      </trkpt>
      <trkpt lat="43.48138" lon="6.41686">
        <ele>162</ele>
        <time>2022-04-08T14:11:25Z</time>
      </trkpt>
      <trkpt lat="43.48138" lon="6.41685">
        <ele>162</ele>
        <time>2022-04-08T14:11:26Z</time>
      </trkpt>
      <trkpt lat="43.48139" lon="6.41684">
        <ele>162</ele>
        <time>2022-04-08T14:11:27Z</time>
      </trkpt>
      <trkpt lat="43.4814" lon="6.41683">
        <ele>162</ele>
        <time>2022-04-08T14:11:28Z</time>
      </trkpt>
      <trkpt lat="43.4814" lon="6.41682">
        <ele>162</ele>
        <time>2022-04-08T14:11:29Z</time>
      </trkpt>
      <trkpt lat="43.48141" lon="6.4168">
        <ele>162</ele>
        <time>2022-04-08T14:11:30Z</time>
      </trkpt>
      <trkpt lat="43.48142" lon="6.41678">
        <ele>163</ele>
        <time>2022-04-08T14:11:31Z</time>
      </trkpt>
      <trkpt lat="43.48143" lon="6.41676">
        <ele>163</ele>
        <time>2022-04-08T14:11:32Z</time>
      </trkpt>
      <trkpt lat="43.48144" lon="6.41675">
        <ele>163</ele>
        <time>2022-04-08T14:11:33Z</time>
      </trkpt>
      <trkpt lat="43.48145" lon="6.41674">
        <ele>163</ele>
        <time>2022-04-08T14:11:34Z</time>
      </trkpt>
      <trkpt lat="43.48146" lon="6.41672">
        <ele>163</ele>
        <time>2022-04-08T14:11:35Z</time>
      </trkpt>
      <trkpt lat="43.48147" lon="6.41671">
        <ele>163</ele>
        <time>2022-04-08T14:11:36Z</time>
      </trkpt>
      <trkpt lat="43.48147" lon="6.41671">
        <ele>163</ele>
        <time>2022-04-08T14:11:37Z</time>
      </trkpt>
      <trkpt lat="43.48148" lon="6.4167">
        <ele>162</ele>
        <time>2022-04-08T14:11:38Z</time>
      </trkpt>
      <trkpt lat="43.48148" lon="6.41669">
        <ele>162</ele>
        <time>2022-04-08T14:11:39Z</time>
      </trkpt>
      <trkpt lat="43.48149" lon="6.41667">
        <ele>162</ele>
        <time>2022-04-08T14:11:40Z</time>
      </trkpt>
      <trkpt lat="43.48151" lon="6.41664">
        <ele>162</ele>
        <time>2022-04-08T14:11:41Z</time>
      </trkpt>
      <trkpt lat="43.48153" lon="6.41662">
        <ele>162</ele>
        <time>2022-04-08T14:11:42Z</time>
      </trkpt>
      <trkpt lat="43.48154" lon="6.41661">
        <ele>162</ele>
        <time>2022-04-08T14:11:43Z</time>
      </trkpt>
      <trkpt lat="43.48155" lon="6.4166">
        <ele>163</ele>
        <time>2022-04-08T14:11:44Z</time>
      </trkpt>
      <trkpt lat="43.48155" lon="6.41659">
        <ele>163</ele>
        <time>2022-04-08T14:11:45Z</time>
      </trkpt>
      <trkpt lat="43.48156" lon="6.41658">
        <ele>163</ele>
        <time>2022-04-08T14:11:46Z</time>
      </trkpt>
      <trkpt lat="43.48157" lon="6.41657">
        <ele>163</ele>
        <time>2022-04-08T14:11:47Z</time>
      </trkpt>
      <trkpt lat="43.48157" lon="6.41656">
        <ele>163</ele>
        <time>2022-04-08T14:11:48Z</time>
      </trkpt>
      <trkpt lat="43.48158" lon="6.41655">
        <ele>163</ele>
        <time>2022-04-08T14:11:49Z</time>
      </trkpt>
      <trkpt lat="43.48158" lon="6.41654">
        <ele>163</ele>
        <time>2022-04-08T14:11:50Z</time>
      </trkpt>
      <trkpt lat="43.48159" lon="6.41654">
        <ele>163</ele>
        <time>2022-04-08T14:11:51Z</time>
      </trkpt>
      <trkpt lat="43.48159" lon="6.41653">
        <ele>163</ele>
        <time>2022-04-08T14:11:52Z</time>
      </trkpt>
      <trkpt lat="43.48159" lon="6.41653">
        <ele>163</ele>
        <time>2022-04-08T14:11:53Z</time>
      </trkpt>
      <trkpt lat="43.48159" lon="6.41653">
        <ele>163</ele>
        <time>2022-04-08T14:11:54Z</time>
      </trkpt>
      <trkpt lat="43.48159" lon="6.41653">
        <ele>163</ele>
        <time>2022-04-08T14:11:55Z</time>
      </trkpt>
      <trkpt lat="43.48159" lon="6.41652">
        <ele>163</ele>
        <time>2022-04-08T14:11:56Z</time>
      </trkpt>
      <trkpt lat="43.4816" lon="6.41652">
        <ele>163</ele>
        <time>2022-04-08T14:11:57Z</time>
      </trkpt>
      <trkpt lat="43.4816" lon="6.41652">
        <ele>163</ele>
        <time>2022-04-08T14:11:58Z</time>
      </trkpt>
      <trkpt lat="43.4816" lon="6.41651">
        <ele>163</ele>
        <time>2022-04-08T14:11:59Z</time>
      </trkpt>
      <trkpt lat="43.48161" lon="6.4165">
        <ele>163</ele>
        <time>2022-04-08T14:12:00Z</time>
      </trkpt>
      <trkpt lat="43.48161" lon="6.4165">
        <ele>163</ele>
        <time>2022-04-08T14:12:01Z</time>
      </trkpt>
      <trkpt lat="43.48161" lon="6.4165">
        <ele>163</ele>
        <time>2022-04-08T14:12:02Z</time>
      </trkpt>
      <trkpt lat="43.48161" lon="6.41649">
        <ele>163</ele>
        <time>2022-04-08T14:12:03Z</time>
      </trkpt>
      <trkpt lat="43.48162" lon="6.41649">
        <ele>163</ele>
        <time>2022-04-08T14:12:04Z</time>
      </trkpt>
      <trkpt lat="43.48162" lon="6.41648">
        <ele>163</ele>
        <time>2022-04-08T14:12:05Z</time>
      </trkpt>
      <trkpt lat="43.48163" lon="6.41647">
        <ele>163</ele>
        <time>2022-04-08T14:12:06Z</time>
      </trkpt>
      <trkpt lat="43.48164" lon="6.41645">
        <ele>162</ele>
        <time>2022-04-08T14:12:07Z</time>
      </trkpt>
      <trkpt lat="43.48165" lon="6.41643">
        <ele>162</ele>
        <time>2022-04-08T14:12:08Z</time>
      </trkpt>
      <trkpt lat="43.48166" lon="6.41642">
        <ele>162</ele>
        <time>2022-04-08T14:12:09Z</time>
      </trkpt>
      <trkpt lat="43.48167" lon="6.4164">
        <ele>162</ele>
        <time>2022-04-08T14:12:10Z</time>
      </trkpt>
      <trkpt lat="43.48168" lon="6.4164">
        <ele>162</ele>
        <time>2022-04-08T14:12:11Z</time>
      </trkpt>
      <trkpt lat="43.48168" lon="6.41639">
        <ele>162</ele>
        <time>2022-04-08T14:12:12Z</time>
      </trkpt>
      <trkpt lat="43.48168" lon="6.41639">
        <ele>162</ele>
        <time>2022-04-08T14:12:13Z</time>
      </trkpt>
      <trkpt lat="43.48169" lon="6.41638">
        <ele>162</ele>
        <time>2022-04-08T14:12:14Z</time>
      </trkpt>
      <trkpt lat="43.48169" lon="6.41637">
        <ele>162</ele>
        <time>2022-04-08T14:12:15Z</time>
      </trkpt>
      <trkpt lat="43.4817" lon="6.41636">
        <ele>162</ele>
        <time>2022-04-08T14:12:16Z</time>
      </trkpt>
      <trkpt lat="43.4817" lon="6.41636">
        <ele>161</ele>
        <time>2022-04-08T14:12:17Z</time>
      </trkpt>
      <trkpt lat="43.4817" lon="6.41635">
        <ele>161</ele>
        <time>2022-04-08T14:12:18Z</time>
      </trkpt>
      <trkpt lat="43.48171" lon="6.41635">
        <ele>161</ele>
        <time>2022-04-08T14:12:19Z</time>
      </trkpt>
      <trkpt lat="43.48171" lon="6.41634">
        <ele>161</ele>
        <time>2022-04-08T14:12:20Z</time>
      </trkpt>
      <trkpt lat="43.48172" lon="6.41633">
        <ele>161</ele>
        <time>2022-04-08T14:12:21Z</time>
      </trkpt>
      <trkpt lat="43.48173" lon="6.41632">
        <ele>161</ele>
        <time>2022-04-08T14:12:22Z</time>
      </trkpt>
      <trkpt lat="43.48174" lon="6.41631">
        <ele>161</ele>
        <time>2022-04-08T14:12:23Z</time>
      </trkpt>
      <trkpt lat="43.48175" lon="6.4163">
        <ele>161</ele>
        <time>2022-04-08T14:12:24Z</time>
      </trkpt>
      <trkpt lat="43.48176" lon="6.41628">
        <ele>161</ele>
        <time>2022-04-08T14:12:25Z</time>
      </trkpt>
      <trkpt lat="43.48177" lon="6.41627">
        <ele>161</ele>
        <time>2022-04-08T14:12:26Z</time>
      </trkpt>
      <trkpt lat="43.48178" lon="6.41627">
        <ele>161</ele>
        <time>2022-04-08T14:12:27Z</time>
      </trkpt>
      <trkpt lat="43.48178" lon="6.41626">
        <ele>161</ele>
        <time>2022-04-08T14:12:28Z</time>
      </trkpt>
      <trkpt lat="43.48178" lon="6.41626">
        <ele>161</ele>
        <time>2022-04-08T14:12:29Z</time>
      </trkpt>
      <trkpt lat="43.48179" lon="6.41626">
        <ele>161</ele>
        <time>2022-04-08T14:12:30Z</time>
      </trkpt>
      <trkpt lat="43.48179" lon="6.41625">
        <ele>161</ele>
        <time>2022-04-08T14:12:31Z</time>
      </trkpt>
      <trkpt lat="43.48179" lon="6.41625">
        <ele>161</ele>
        <time>2022-04-08T14:12:32Z</time>
      </trkpt>
      <trkpt lat="43.4818" lon="6.41624">
        <ele>161</ele>
        <time>2022-04-08T14:12:33Z</time>
      </trkpt>
      <trkpt lat="43.4818" lon="6.41623">
        <ele>161</ele>
        <time>2022-04-08T14:12:34Z</time>
      </trkpt>
      <trkpt lat="43.4818" lon="6.41623">
        <ele>161</ele>
        <time>2022-04-08T14:12:35Z</time>
      </trkpt>
      <trkpt lat="43.48181" lon="6.41622">
        <ele>161</ele>
        <time>2022-04-08T14:12:36Z</time>
      </trkpt>
      <trkpt lat="43.48181" lon="6.41621">
        <ele>161</ele>
        <time>2022-04-08T14:12:37Z</time>
      </trkpt>
      <trkpt lat="43.48181" lon="6.4162">
        <ele>161</ele>
        <time>2022-04-08T14:12:38Z</time>
      </trkpt>
      <trkpt lat="43.48182" lon="6.41619">
        <ele>161</ele>
        <time>2022-04-08T14:12:39Z</time>
      </trkpt>
      <trkpt lat="43.48182" lon="6.41618">
        <ele>161</ele>
        <time>2022-04-08T14:12:40Z</time>
      </trkpt>
      <trkpt lat="43.48182" lon="6.41616">
        <ele>161</ele>
        <time>2022-04-08T14:12:41Z</time>
      </trkpt>
      <trkpt lat="43.48183" lon="6.41613">
        <ele>162</ele>
        <time>2022-04-08T14:12:42Z</time>
      </trkpt>
      <trkpt lat="43.48184" lon="6.41611">
        <ele>162</ele>
        <time>2022-04-08T14:12:43Z</time>
      </trkpt>
      <trkpt lat="43.48184" lon="6.41608">
        <ele>162</ele>
        <time>2022-04-08T14:12:44Z</time>
      </trkpt>
      <trkpt lat="43.48184" lon="6.41606">
        <ele>162</ele>
        <time>2022-04-08T14:12:45Z</time>
      </trkpt>
      <trkpt lat="43.48185" lon="6.41604">
        <ele>162</ele>
        <time>2022-04-08T14:12:46Z</time>
      </trkpt>
      <trkpt lat="43.48185" lon="6.41602">
        <ele>163</ele>
        <time>2022-04-08T14:12:47Z</time>
      </trkpt>
      <trkpt lat="43.48185" lon="6.41601">
        <ele>163</ele>
        <time>2022-04-08T14:12:48Z</time>
      </trkpt>
      <trkpt lat="43.48186" lon="6.41601">
        <ele>163</ele>
        <time>2022-04-08T14:12:49Z</time>
      </trkpt>
      <trkpt lat="43.48186" lon="6.416">
        <ele>163</ele>
        <time>2022-04-08T14:12:50Z</time>
      </trkpt>
      <trkpt lat="43.48186" lon="6.41599">
        <ele>163</ele>
        <time>2022-04-08T14:12:51Z</time>
      </trkpt>
      <trkpt lat="43.48186" lon="6.41598">
        <ele>163</ele>
        <time>2022-04-08T14:12:52Z</time>
      </trkpt>
      <trkpt lat="43.48186" lon="6.41596">
        <ele>163</ele>
        <time>2022-04-08T14:12:53Z</time>
      </trkpt>
      <trkpt lat="43.48187" lon="6.41594">
        <ele>163</ele>
        <time>2022-04-08T14:12:54Z</time>
      </trkpt>
      <trkpt lat="43.48187" lon="6.41593">
        <ele>163</ele>
        <time>2022-04-08T14:12:55Z</time>
      </trkpt>
      <trkpt lat="43.48188" lon="6.41591">
        <ele>163</ele>
        <time>2022-04-08T14:12:56Z</time>
      </trkpt>
      <trkpt lat="43.48188" lon="6.4159">
        <ele>163</ele>
        <time>2022-04-08T14:12:57Z</time>
      </trkpt>
      <trkpt lat="43.48188" lon="6.41589">
        <ele>163</ele>
        <time>2022-04-08T14:12:58Z</time>
      </trkpt>
      <trkpt lat="43.48189" lon="6.41587">
        <ele>163</ele>
        <time>2022-04-08T14:12:59Z</time>
      </trkpt>
      <trkpt lat="43.4819" lon="6.41585">
        <ele>164</ele>
        <time>2022-04-08T14:13:00Z</time>
      </trkpt>
      <trkpt lat="43.4819" lon="6.41582">
        <ele>164</ele>
        <time>2022-04-08T14:13:01Z</time>
      </trkpt>
      <trkpt lat="43.48191" lon="6.4158">
        <ele>163</ele>
        <time>2022-04-08T14:13:02Z</time>
      </trkpt>
      <trkpt lat="43.48191" lon="6.4158">
        <ele>163</ele>
        <time>2022-04-08T14:13:03Z</time>
      </trkpt>
      <trkpt lat="43.48191" lon="6.41579">
        <ele>163</ele>
        <time>2022-04-08T14:13:04Z</time>
      </trkpt>
      <trkpt lat="43.48191" lon="6.41579">
        <ele>163</ele>
        <time>2022-04-08T14:13:05Z</time>
      </trkpt>
      <trkpt lat="43.48191" lon="6.41578">
        <ele>163</ele>
        <time>2022-04-08T14:13:06Z</time>
      </trkpt>
      <trkpt lat="43.48192" lon="6.41577">
        <ele>163</ele>
        <time>2022-04-08T14:13:07Z</time>
      </trkpt>
      <trkpt lat="43.48192" lon="6.41576">
        <ele>163</ele>
        <time>2022-04-08T14:13:08Z</time>
      </trkpt>
      <trkpt lat="43.48193" lon="6.41574">
        <ele>164</ele>
        <time>2022-04-08T14:13:09Z</time>
      </trkpt>
      <trkpt lat="43.48193" lon="6.41573">
        <ele>164</ele>
        <time>2022-04-08T14:13:10Z</time>
      </trkpt>
      <trkpt lat="43.48194" lon="6.41572">
        <ele>164</ele>
        <time>2022-04-08T14:13:11Z</time>
      </trkpt>
      <trkpt lat="43.48195" lon="6.4157">
        <ele>164</ele>
        <time>2022-04-08T14:13:12Z</time>
      </trkpt>
      <trkpt lat="43.48196" lon="6.41569">
        <ele>164</ele>
        <time>2022-04-08T14:13:13Z</time>
      </trkpt>
      <trkpt lat="43.48197" lon="6.41567">
        <ele>164</ele>
        <time>2022-04-08T14:13:14Z</time>
      </trkpt>
      <trkpt lat="43.48198" lon="6.41565">
        <ele>164</ele>
        <time>2022-04-08T14:13:15Z</time>
      </trkpt>
      <trkpt lat="43.48199" lon="6.41564">
        <ele>164</ele>
        <time>2022-04-08T14:13:16Z</time>
      </trkpt>
      <trkpt lat="43.482" lon="6.41564">
        <ele>164</ele>
        <time>2022-04-08T14:13:17Z</time>
      </trkpt>
      <trkpt lat="43.482" lon="6.41563">
        <ele>164</ele>
        <time>2022-04-08T14:13:18Z</time>
      </trkpt>
      <trkpt lat="43.48201" lon="6.41563">
        <ele>164</ele>
        <time>2022-04-08T14:13:19Z</time>
      </trkpt>
      <trkpt lat="43.48201" lon="6.41563">
        <ele>164</ele>
        <time>2022-04-08T14:13:20Z</time>
      </trkpt>
      <trkpt lat="43.48201" lon="6.41563">
        <ele>164</ele>
        <time>2022-04-08T14:13:21Z</time>
      </trkpt>
      <trkpt lat="43.48202" lon="6.41562">
        <ele>164</ele>
        <time>2022-04-08T14:13:22Z</time>
      </trkpt>
      <trkpt lat="43.48202" lon="6.41562">
        <ele>164</ele>
        <time>2022-04-08T14:13:23Z</time>
      </trkpt>
      <trkpt lat="43.48203" lon="6.41561">
        <ele>164</ele>
        <time>2022-04-08T14:13:24Z</time>
      </trkpt>
      <trkpt lat="43.48204" lon="6.4156">
        <ele>163</ele>
        <time>2022-04-08T14:13:25Z</time>
      </trkpt>
      <trkpt lat="43.48205" lon="6.4156">
        <ele>163</ele>
        <time>2022-04-08T14:13:26Z</time>
      </trkpt>
      <trkpt lat="43.48206" lon="6.41559">
        <ele>163</ele>
        <time>2022-04-08T14:13:27Z</time>
      </trkpt>
      <trkpt lat="43.48207" lon="6.41559">
        <ele>163</ele>
        <time>2022-04-08T14:13:28Z</time>
      </trkpt>
      <trkpt lat="43.48208" lon="6.41558">
        <ele>163</ele>
        <time>2022-04-08T14:13:29Z</time>
      </trkpt>
      <trkpt lat="43.48209" lon="6.41558">
        <ele>162</ele>
        <time>2022-04-08T14:13:30Z</time>
      </trkpt>
      <trkpt lat="43.4821" lon="6.41558">
        <ele>162</ele>
        <time>2022-04-08T14:13:31Z</time>
      </trkpt>
      <trkpt lat="43.48212" lon="6.41557">
        <ele>162</ele>
        <time>2022-04-08T14:13:32Z</time>
      </trkpt>
      <trkpt lat="43.48214" lon="6.41557">
        <ele>162</ele>
        <time>2022-04-08T14:13:33Z</time>
      </trkpt>
      <trkpt lat="43.48215" lon="6.41556">
        <ele>162</ele>
        <time>2022-04-08T14:13:34Z</time>
      </trkpt>
      <trkpt lat="43.48216" lon="6.41556">
        <ele>161</ele>
        <time>2022-04-08T14:13:35Z</time>
      </trkpt>
      <trkpt lat="43.48217" lon="6.41556">
        <ele>161</ele>
        <time>2022-04-08T14:13:36Z</time>
      </trkpt>
      <trkpt lat="43.48218" lon="6.41556">
        <ele>161</ele>
        <time>2022-04-08T14:13:37Z</time>
      </trkpt>
      <trkpt lat="43.48218" lon="6.41556">
        <ele>161</ele>
        <time>2022-04-08T14:13:38Z</time>
      </trkpt>
      <trkpt lat="43.48219" lon="6.41556">
        <ele>161</ele>
        <time>2022-04-08T14:13:39Z</time>
      </trkpt>
      <trkpt lat="43.4822" lon="6.41556">
        <ele>161</ele>
        <time>2022-04-08T14:13:40Z</time>
      </trkpt>
      <trkpt lat="43.48221" lon="6.41556">
        <ele>160</ele>
        <time>2022-04-08T14:13:41Z</time>
      </trkpt>
      <trkpt lat="43.48222" lon="6.41556">
        <ele>160</ele>
        <time>2022-04-08T14:13:42Z</time>
      </trkpt>
      <trkpt lat="43.48223" lon="6.41556">
        <ele>160</ele>
        <time>2022-04-08T14:13:43Z</time>
      </trkpt>
      <trkpt lat="43.48224" lon="6.41556">
        <ele>160</ele>
        <time>2022-04-08T14:13:44Z</time>
      </trkpt>
      <trkpt lat="43.48225" lon="6.41556">
        <ele>160</ele>
        <time>2022-04-08T14:13:45Z</time>
      </trkpt>
      <trkpt lat="43.48226" lon="6.41555">
        <ele>159</ele>
        <time>2022-04-08T14:13:46Z</time>
      </trkpt>
      <trkpt lat="43.48227" lon="6.41555">
        <ele>159</ele>
        <time>2022-04-08T14:13:47Z</time>
      </trkpt>
      <trkpt lat="43.48228" lon="6.41555">
        <ele>159</ele>
        <time>2022-04-08T14:13:48Z</time>
      </trkpt>
      <trkpt lat="43.48229" lon="6.41555">
        <ele>159</ele>
        <time>2022-04-08T14:13:49Z</time>
      </trkpt>
      <trkpt lat="43.48231" lon="6.41555">
        <ele>159</ele>
        <time>2022-04-08T14:13:50Z</time>
      </trkpt>
      <trkpt lat="43.48233" lon="6.41555">
        <ele>159</ele>
        <time>2022-04-08T14:13:51Z</time>
      </trkpt>
      <trkpt lat="43.48233" lon="6.41555">
        <ele>159</ele>
        <time>2022-04-08T14:13:52Z</time>
      </trkpt>
      <trkpt lat="43.48234" lon="6.41555">
        <ele>159</ele>
        <time>2022-04-08T14:13:53Z</time>
      </trkpt>
      <trkpt lat="43.48235" lon="6.41555">
        <ele>159</ele>
        <time>2022-04-08T14:13:54Z</time>
      </trkpt>
      <trkpt lat="43.48235" lon="6.41555">
        <ele>159</ele>
        <time>2022-04-08T14:13:55Z</time>
      </trkpt>
      <trkpt lat="43.48236" lon="6.41555">
        <ele>159</ele>
        <time>2022-04-08T14:13:56Z</time>
      </trkpt>
      <trkpt lat="43.48237" lon="6.41555">
        <ele>160</ele>
        <time>2022-04-08T14:13:57Z</time>
      </trkpt>
      <trkpt lat="43.48238" lon="6.41555">
        <ele>160</ele>
        <time>2022-04-08T14:13:58Z</time>
      </trkpt>
      <trkpt lat="43.48239" lon="6.41555">
        <ele>160</ele>
        <time>2022-04-08T14:13:59Z</time>
      </trkpt>
      <trkpt lat="43.4824" lon="6.41555">
        <ele>160</ele>
        <time>2022-04-08T14:14:00Z</time>
      </trkpt>
      <trkpt lat="43.48242" lon="6.41555">
        <ele>160</ele>
        <time>2022-04-08T14:14:01Z</time>
      </trkpt>
      <trkpt lat="43.48244" lon="6.41555">
        <ele>160</ele>
        <time>2022-04-08T14:14:02Z</time>
      </trkpt>
      <trkpt lat="43.48245" lon="6.41555">
        <ele>160</ele>
        <time>2022-04-08T14:14:03Z</time>
      </trkpt>
      <trkpt lat="43.48246" lon="6.41555">
        <ele>160</ele>
        <time>2022-04-08T14:14:04Z</time>
      </trkpt>
      <trkpt lat="43.48247" lon="6.41555">
        <ele>160</ele>
        <time>2022-04-08T14:14:05Z</time>
      </trkpt>
      <trkpt lat="43.48248" lon="6.41555">
        <ele>160</ele>
        <time>2022-04-08T14:14:06Z</time>
      </trkpt>
      <trkpt lat="43.4825" lon="6.41555">
        <ele>161</ele>
        <time>2022-04-08T14:14:07Z</time>
      </trkpt>
      <trkpt lat="43.48252" lon="6.41555">
        <ele>161</ele>
        <time>2022-04-08T14:14:08Z</time>
      </trkpt>
      <trkpt lat="43.48258" lon="6.41554">
        <ele>162</ele>
        <time>2022-04-08T14:14:09Z</time>
      </trkpt>
      <trkpt lat="43.48259" lon="6.41554">
        <ele>162</ele>
        <time>2022-04-08T14:14:10Z</time>
      </trkpt>
      <trkpt lat="43.48259" lon="6.41554">
        <ele>162</ele>
        <time>2022-04-08T14:14:11Z</time>
      </trkpt>
      <trkpt lat="43.48259" lon="6.41554">
        <ele>162</ele>
        <time>2022-04-08T14:14:12Z</time>
      </trkpt>
      <trkpt lat="43.48259" lon="6.41554">
        <ele>162</ele>
        <time>2022-04-08T14:14:13Z</time>
      </trkpt>
      <trkpt lat="43.48259" lon="6.41554">
        <ele>162</ele>
        <time>2022-04-08T14:14:14Z</time>
      </trkpt>
      <trkpt lat="43.4826" lon="6.41554">
        <ele>162</ele>
        <time>2022-04-08T14:14:15Z</time>
      </trkpt>
      <trkpt lat="43.4826" lon="6.41554">
        <ele>162</ele>
        <time>2022-04-08T14:14:16Z</time>
      </trkpt>
      <trkpt lat="43.4826" lon="6.41555">
        <ele>162</ele>
        <time>2022-04-08T14:14:17Z</time>
      </trkpt>
      <trkpt lat="43.48261" lon="6.41555">
        <ele>162</ele>
        <time>2022-04-08T14:14:18Z</time>
      </trkpt>
      <trkpt lat="43.48261" lon="6.41556">
        <ele>162</ele>
        <time>2022-04-08T14:14:19Z</time>
      </trkpt>
      <trkpt lat="43.48262" lon="6.41556">
        <ele>162</ele>
        <time>2022-04-08T14:14:20Z</time>
      </trkpt>
      <trkpt lat="43.48263" lon="6.41556">
        <ele>162</ele>
        <time>2022-04-08T14:14:21Z</time>
      </trkpt>
      <trkpt lat="43.48265" lon="6.41556">
        <ele>162</ele>
        <time>2022-04-08T14:14:22Z</time>
      </trkpt>
      <trkpt lat="43.48266" lon="6.41556">
        <ele>162</ele>
        <time>2022-04-08T14:14:23Z</time>
      </trkpt>
      <trkpt lat="43.48267" lon="6.41556">
        <ele>161</ele>
        <time>2022-04-08T14:14:24Z</time>
      </trkpt>
      <trkpt lat="43.48267" lon="6.41555">
        <ele>161</ele>
        <time>2022-04-08T14:14:25Z</time>
      </trkpt>
      <trkpt lat="43.48267" lon="6.41555">
        <ele>161</ele>
        <time>2022-04-08T14:14:26Z</time>
      </trkpt>
      <trkpt lat="43.48268" lon="6.41555">
        <ele>161</ele>
        <time>2022-04-08T14:14:27Z</time>
      </trkpt>
      <trkpt lat="43.48268" lon="6.41555">
        <ele>161</ele>
        <time>2022-04-08T14:14:28Z</time>
      </trkpt>
      <trkpt lat="43.48269" lon="6.41555">
        <ele>161</ele>
        <time>2022-04-08T14:14:29Z</time>
      </trkpt>
      <trkpt lat="43.4827" lon="6.41554">
        <ele>161</ele>
        <time>2022-04-08T14:14:30Z</time>
      </trkpt>
      <trkpt lat="43.4827" lon="6.41554">
        <ele>161</ele>
        <time>2022-04-08T14:14:31Z</time>
      </trkpt>
      <trkpt lat="43.4827" lon="6.41554">
        <ele>161</ele>
        <time>2022-04-08T14:14:32Z</time>
      </trkpt>
      <trkpt lat="43.48271" lon="6.41553">
        <ele>161</ele>
        <time>2022-04-08T14:14:33Z</time>
      </trkpt>
      <trkpt lat="43.48271" lon="6.41553">
        <ele>161</ele>
        <time>2022-04-08T14:14:34Z</time>
      </trkpt>
      <trkpt lat="43.48271" lon="6.41553">
        <ele>161</ele>
        <time>2022-04-08T14:14:35Z</time>
      </trkpt>
      <trkpt lat="43.48272" lon="6.41552">
        <ele>162</ele>
        <time>2022-04-08T14:14:36Z</time>
      </trkpt>
      <trkpt lat="43.48272" lon="6.41552">
        <ele>162</ele>
        <time>2022-04-08T14:14:37Z</time>
      </trkpt>
      <trkpt lat="43.48272" lon="6.41551">
        <ele>162</ele>
        <time>2022-04-08T14:14:38Z</time>
      </trkpt>
      <trkpt lat="43.48272" lon="6.41551">
        <ele>162</ele>
        <time>2022-04-08T14:14:39Z</time>
      </trkpt>
      <trkpt lat="43.48273" lon="6.41551">
        <ele>162</ele>
        <time>2022-04-08T14:14:40Z</time>
      </trkpt>
      <trkpt lat="43.48273" lon="6.4155">
        <ele>162</ele>
        <time>2022-04-08T14:14:41Z</time>
      </trkpt>
      <trkpt lat="43.48273" lon="6.4155">
        <ele>162</ele>
        <time>2022-04-08T14:14:42Z</time>
      </trkpt>
      <trkpt lat="43.48273" lon="6.4155">
        <ele>162</ele>
        <time>2022-04-08T14:14:43Z</time>
      </trkpt>
      <trkpt lat="43.48273" lon="6.4155">
        <ele>162</ele>
        <time>2022-04-08T14:14:44Z</time>
      </trkpt>
      <trkpt lat="43.48273" lon="6.4155">
        <ele>162</ele>
        <time>2022-04-08T14:14:45Z</time>
      </trkpt>
      <trkpt lat="43.48273" lon="6.4155">
        <ele>162</ele>
        <time>2022-04-08T14:14:46Z</time>
      </trkpt>
      <trkpt lat="43.48273" lon="6.4155">
        <ele>162</ele>
        <time>2022-04-08T14:14:47Z</time>
      </trkpt>
      <trkpt lat="43.48273" lon="6.4155">
        <ele>162</ele>
        <time>2022-04-08T14:14:48Z</time>
      </trkpt>
      <trkpt lat="43.48273" lon="6.4155">
        <ele>162</ele>
        <time>2022-04-08T14:14:49Z</time>
      </trkpt>
      <trkpt lat="43.48273" lon="6.4155">
        <ele>162</ele>
        <time>2022-04-08T14:14:50Z</time>
      </trkpt>
      <trkpt lat="43.48273" lon="6.4155">
        <ele>162</ele>
        <time>2022-04-08T14:14:51Z</time>
      </trkpt>
      <trkpt lat="43.48274" lon="6.41549">
        <ele>162</ele>
        <time>2022-04-08T14:14:52Z</time>
      </trkpt>
      <trkpt lat="43.48274" lon="6.4155">
        <ele>162</ele>
        <time>2022-04-08T14:14:53Z</time>
      </trkpt>
      <trkpt lat="43.48275" lon="6.4155">
        <ele>162</ele>
        <time>2022-04-08T14:14:54Z</time>
      </trkpt>
      <trkpt lat="43.48275" lon="6.4155">
        <ele>162</ele>
        <time>2022-04-08T14:14:55Z</time>
      </trkpt>
      <trkpt lat="43.48275" lon="6.41551">
        <ele>162</ele>
        <time>2022-04-08T14:14:56Z</time>
      </trkpt>
      <trkpt lat="43.48275" lon="6.41551">
        <ele>162</ele>
        <time>2022-04-08T14:14:57Z</time>
      </trkpt>
      <trkpt lat="43.48275" lon="6.41551">
        <ele>162</ele>
        <time>2022-04-08T14:14:58Z</time>
      </trkpt>
      <trkpt lat="43.48276" lon="6.41551">
        <ele>162</ele>
        <time>2022-04-08T14:14:59Z</time>
      </trkpt>
      <trkpt lat="43.48276" lon="6.41551">
        <ele>162</ele>
        <time>2022-04-08T14:15:00Z</time>
      </trkpt>
      <trkpt lat="43.48276" lon="6.41552">
        <ele>162</ele>
        <time>2022-04-08T14:15:01Z</time>
      </trkpt>
      <trkpt lat="43.48276" lon="6.41552">
        <ele>162</ele>
        <time>2022-04-08T14:15:02Z</time>
      </trkpt>
      <trkpt lat="43.48276" lon="6.41552">
        <ele>162</ele>
        <time>2022-04-08T14:15:03Z</time>
      </trkpt>
      <trkpt lat="43.48276" lon="6.41552">
        <ele>162</ele>
        <time>2022-04-08T14:15:04Z</time>
      </trkpt>
      <trkpt lat="43.48276" lon="6.41552">
        <ele>162</ele>
        <time>2022-04-08T14:15:05Z</time>
      </trkpt>
      <trkpt lat="43.48276" lon="6.41552">
        <ele>162</ele>
        <time>2022-04-08T14:15:06Z</time>
      </trkpt>
      <trkpt lat="43.48276" lon="6.41552">
        <ele>162</ele>
        <time>2022-04-08T14:15:07Z</time>
      </trkpt>
      <trkpt lat="43.48276" lon="6.41552">
        <ele>162</ele>
        <time>2022-04-08T14:15:08Z</time>
      </trkpt>
      <trkpt lat="43.48276" lon="6.41552">
        <ele>162</ele>
        <time>2022-04-08T14:15:09Z</time>
      </trkpt>
      <trkpt lat="43.48276" lon="6.41552">
        <ele>162</ele>
        <time>2022-04-08T14:15:10Z</time>
      </trkpt>
      <trkpt lat="43.48276" lon="6.41552">
        <ele>162</ele>
        <time>2022-04-08T14:15:11Z</time>
      </trkpt>
      <trkpt lat="43.48276" lon="6.41552">
        <ele>162</ele>
        <time>2022-04-08T14:15:12Z</time>
      </trkpt>
      <trkpt lat="43.48276" lon="6.41552">
        <ele>162</ele>
        <time>2022-04-08T14:15:13Z</time>
      </trkpt>
      <trkpt lat="43.48276" lon="6.41552">
        <ele>162</ele>
        <time>2022-04-08T14:15:14Z</time>
      </trkpt>
      <trkpt lat="43.48276" lon="6.41552">
        <ele>162</ele>
        <time>2022-04-08T14:15:15Z</time>
      </trkpt>
      <trkpt lat="43.48276" lon="6.41552">
        <ele>162</ele>
        <time>2022-04-08T14:15:16Z</time>
      </trkpt>
      <trkpt lat="43.48276" lon="6.41552">
        <ele>162</ele>
        <time>2022-04-08T14:15:17Z</time>
      </trkpt>
      <trkpt lat="43.48276" lon="6.41552">
        <ele>162</ele>
        <time>2022-04-08T14:15:18Z</time>
      </trkpt>
      <trkpt lat="43.48276" lon="6.41552">
        <ele>162</ele>
        <time>2022-04-08T14:15:19Z</time>
      </trkpt>
      <trkpt lat="43.48276" lon="6.41552">
        <ele>162</ele>
        <time>2022-04-08T14:15:20Z</time>
      </trkpt>
      <trkpt lat="43.48276" lon="6.41552">
        <ele>162</ele>
        <time>2022-04-08T14:15:21Z</time>
      </trkpt>
      <trkpt lat="43.48276" lon="6.41552">
        <ele>162</ele>
        <time>2022-04-08T14:15:22Z</time>
      </trkpt>
      <trkpt lat="43.48276" lon="6.41552">
        <ele>162</ele>
        <time>2022-04-08T14:15:23Z</time>
      </trkpt>
      <trkpt lat="43.48276" lon="6.41552">
        <ele>162</ele>
        <time>2022-04-08T14:15:24Z</time>
      </trkpt>
      <trkpt lat="43.48276" lon="6.41552">
        <ele>162</ele>
        <time>2022-04-08T14:15:25Z</time>
      </trkpt>
      <trkpt lat="43.48276" lon="6.41552">
        <ele>162</ele>
        <time>2022-04-08T14:15:26Z</time>
      </trkpt>
      <trkpt lat="43.48276" lon="6.41552">
        <ele>162</ele>
        <time>2022-04-08T14:15:27Z</time>
      </trkpt>
      <trkpt lat="43.48276" lon="6.41552">
        <ele>162</ele>
        <time>2022-04-08T14:15:28Z</time>
      </trkpt>
      <trkpt lat="43.48276" lon="6.41552">
        <ele>162</ele>
        <time>2022-04-08T14:15:29Z</time>
      </trkpt>
      <trkpt lat="43.48276" lon="6.41552">
        <ele>162</ele>
        <time>2022-04-08T14:15:30Z</time>
      </trkpt>
      <trkpt lat="43.48276" lon="6.41552">
        <ele>162</ele>
        <time>2022-04-08T14:15:31Z</time>
      </trkpt>
      <trkpt lat="43.48276" lon="6.41552">
        <ele>162</ele>
        <time>2022-04-08T14:15:32Z</time>
      </trkpt>
      <trkpt lat="43.48276" lon="6.41552">
        <ele>162</ele>
        <time>2022-04-08T14:15:33Z</time>
      </trkpt>
      <trkpt lat="43.48276" lon="6.41552">
        <ele>162</ele>
        <time>2022-04-08T14:15:34Z</time>
      </trkpt>
      <trkpt lat="43.48276" lon="6.41552">
        <ele>162</ele>
        <time>2022-04-08T14:15:35Z</time>
      </trkpt>
      <trkpt lat="43.48276" lon="6.41552">
        <ele>162</ele>
        <time>2022-04-08T14:15:36Z</time>
      </trkpt>
      <trkpt lat="43.48276" lon="6.41552">
        <ele>162</ele>
        <time>2022-04-08T14:15:37Z</time>
      </trkpt>
      <trkpt lat="43.48276" lon="6.41552">
        <ele>162</ele>
        <time>2022-04-08T14:15:38Z</time>
      </trkpt>
      <trkpt lat="43.48276" lon="6.41552">
        <ele>162</ele>
        <time>2022-04-08T14:15:39Z</time>
      </trkpt>
      <trkpt lat="43.48276" lon="6.41552">
        <ele>162</ele>
        <time>2022-04-08T14:15:40Z</time>
      </trkpt>
      <trkpt lat="43.48276" lon="6.41552">
        <ele>162</ele>
        <time>2022-04-08T14:15:41Z</time>
      </trkpt>
      <trkpt lat="43.48276" lon="6.41552">
        <ele>162</ele>
        <time>2022-04-08T14:15:42Z</time>
      </trkpt>
      <trkpt lat="43.48276" lon="6.41552">
        <ele>162</ele>
        <time>2022-04-08T14:15:43Z</time>
      </trkpt>
      <trkpt lat="43.48276" lon="6.41552">
        <ele>162</ele>
        <time>2022-04-08T14:15:44Z</time>
      </trkpt>
      <trkpt lat="43.48276" lon="6.41552">
        <ele>162</ele>
        <time>2022-04-08T14:15:45Z</time>
      </trkpt>
      <trkpt lat="43.48276" lon="6.41552">
        <ele>162</ele>
        <time>2022-04-08T14:15:46Z</time>
      </trkpt>
      <trkpt lat="43.48276" lon="6.41552">
        <ele>162</ele>
        <time>2022-04-08T14:15:47Z</time>
      </trkpt>
      <trkpt lat="43.48276" lon="6.41552">
        <ele>162</ele>
        <time>2022-04-08T14:15:48Z</time>
      </trkpt>
      <trkpt lat="43.48276" lon="6.41552">
        <ele>162</ele>
        <time>2022-04-08T14:15:49Z</time>
      </trkpt>
      <trkpt lat="43.48276" lon="6.41552">
        <ele>162</ele>
        <time>2022-04-08T14:15:50Z</time>
      </trkpt>
      <trkpt lat="43.48276" lon="6.41551">
        <ele>162</ele>
        <time>2022-04-08T14:15:51Z</time>
      </trkpt>
      <trkpt lat="43.48276" lon="6.41551">
        <ele>162</ele>
        <time>2022-04-08T14:15:52Z</time>
      </trkpt>
      <trkpt lat="43.48276" lon="6.41551">
        <ele>162</ele>
        <time>2022-04-08T14:15:53Z</time>
      </trkpt>
      <trkpt lat="43.48276" lon="6.4155">
        <ele>162</ele>
        <time>2022-04-08T14:15:54Z</time>
      </trkpt>
      <trkpt lat="43.48276" lon="6.4155">
        <ele>162</ele>
        <time>2022-04-08T14:15:55Z</time>
      </trkpt>
      <trkpt lat="43.48275" lon="6.41549">
        <ele>162</ele>
        <time>2022-04-08T14:15:56Z</time>
      </trkpt>
      <trkpt lat="43.48276" lon="6.41548">
        <ele>162</ele>
        <time>2022-04-08T14:15:57Z</time>
      </trkpt>
      <trkpt lat="43.48276" lon="6.41547">
        <ele>162</ele>
        <time>2022-04-08T14:15:58Z</time>
      </trkpt>
      <trkpt lat="43.48276" lon="6.41546">
        <ele>162</ele>
        <time>2022-04-08T14:15:59Z</time>
      </trkpt>
      <trkpt lat="43.48276" lon="6.41544">
        <ele>162</ele>
        <time>2022-04-08T14:16:00Z</time>
      </trkpt>
      <trkpt lat="43.48276" lon="6.41542">
        <ele>162</ele>
        <time>2022-04-08T14:16:01Z</time>
      </trkpt>
      <trkpt lat="43.48276" lon="6.41539">
        <ele>162</ele>
        <time>2022-04-08T14:16:02Z</time>
      </trkpt>
      <trkpt lat="43.48276" lon="6.41537">
        <ele>162</ele>
        <time>2022-04-08T14:16:03Z</time>
      </trkpt>
      <trkpt lat="43.48276" lon="6.41535">
        <ele>161</ele>
        <time>2022-04-08T14:16:04Z</time>
      </trkpt>
      <trkpt lat="43.48276" lon="6.41534">
        <ele>161</ele>
        <time>2022-04-08T14:16:05Z</time>
      </trkpt>
      <trkpt lat="43.48276" lon="6.41533">
        <ele>161</ele>
        <time>2022-04-08T14:16:06Z</time>
      </trkpt>
      <trkpt lat="43.48276" lon="6.41532">
        <ele>161</ele>
        <time>2022-04-08T14:16:07Z</time>
      </trkpt>
      <trkpt lat="43.48276" lon="6.41531">
        <ele>161</ele>
        <time>2022-04-08T14:16:08Z</time>
      </trkpt>
      <trkpt lat="43.48276" lon="6.4153">
        <ele>161</ele>
        <time>2022-04-08T14:16:09Z</time>
      </trkpt>
      <trkpt lat="43.48276" lon="6.41529">
        <ele>161</ele>
        <time>2022-04-08T14:16:10Z</time>
      </trkpt>
      <trkpt lat="43.48276" lon="6.41528">
        <ele>161</ele>
        <time>2022-04-08T14:16:11Z</time>
      </trkpt>
      <trkpt lat="43.48276" lon="6.41526">
        <ele>161</ele>
        <time>2022-04-08T14:16:12Z</time>
      </trkpt>
      <trkpt lat="43.48275" lon="6.41525">
        <ele>161</ele>
        <time>2022-04-08T14:16:13Z</time>
      </trkpt>
      <trkpt lat="43.48275" lon="6.41523">
        <ele>161</ele>
        <time>2022-04-08T14:16:14Z</time>
      </trkpt>
      <trkpt lat="43.48275" lon="6.41521">
        <ele>162</ele>
        <time>2022-04-08T14:16:15Z</time>
      </trkpt>
      <trkpt lat="43.48274" lon="6.41516">
        <ele>162</ele>
        <time>2022-04-08T14:16:16Z</time>
      </trkpt>
      <trkpt lat="43.48274" lon="6.41513">
        <ele>162</ele>
        <time>2022-04-08T14:16:17Z</time>
      </trkpt>
      <trkpt lat="43.48274" lon="6.41511">
        <ele>162</ele>
        <time>2022-04-08T14:16:18Z</time>
      </trkpt>
      <trkpt lat="43.48274" lon="6.41509">
        <ele>163</ele>
        <time>2022-04-08T14:16:19Z</time>
      </trkpt>
      <trkpt lat="43.48274" lon="6.41507">
        <ele>163</ele>
        <time>2022-04-08T14:16:20Z</time>
      </trkpt>
      <trkpt lat="43.48274" lon="6.41506">
        <ele>163</ele>
        <time>2022-04-08T14:16:21Z</time>
      </trkpt>
      <trkpt lat="43.48274" lon="6.41504">
        <ele>164</ele>
        <time>2022-04-08T14:16:22Z</time>
      </trkpt>
      <trkpt lat="43.48274" lon="6.41503">
        <ele>164</ele>
        <time>2022-04-08T14:16:23Z</time>
      </trkpt>
      <trkpt lat="43.48274" lon="6.41503">
        <ele>164</ele>
        <time>2022-04-08T14:16:24Z</time>
      </trkpt>
      <trkpt lat="43.48274" lon="6.41502">
        <ele>164</ele>
        <time>2022-04-08T14:16:25Z</time>
      </trkpt>
      <trkpt lat="43.48274" lon="6.41501">
        <ele>165</ele>
        <time>2022-04-08T14:16:26Z</time>
      </trkpt>
      <trkpt lat="43.48274" lon="6.41499">
        <ele>165</ele>
        <time>2022-04-08T14:16:27Z</time>
      </trkpt>
      <trkpt lat="43.48275" lon="6.41496">
        <ele>165</ele>
        <time>2022-04-08T14:16:28Z</time>
      </trkpt>
      <trkpt lat="43.48275" lon="6.41493">
        <ele>165</ele>
        <time>2022-04-08T14:16:29Z</time>
      </trkpt>
      <trkpt lat="43.48276" lon="6.4149">
        <ele>165</ele>
        <time>2022-04-08T14:16:30Z</time>
      </trkpt>
      <trkpt lat="43.48276" lon="6.41486">
        <ele>164</ele>
        <time>2022-04-08T14:16:31Z</time>
      </trkpt>
      <trkpt lat="43.48277" lon="6.41483">
        <ele>164</ele>
        <time>2022-04-08T14:16:32Z</time>
      </trkpt>
      <trkpt lat="43.48277" lon="6.41481">
        <ele>164</ele>
        <time>2022-04-08T14:16:33Z</time>
      </trkpt>
      <trkpt lat="43.48277" lon="6.41478">
        <ele>164</ele>
        <time>2022-04-08T14:16:34Z</time>
      </trkpt>
      <trkpt lat="43.48277" lon="6.41476">
        <ele>164</ele>
        <time>2022-04-08T14:16:35Z</time>
      </trkpt>
      <trkpt lat="43.48277" lon="6.41474">
        <ele>163</ele>
        <time>2022-04-08T14:16:36Z</time>
      </trkpt>
      <trkpt lat="43.48278" lon="6.41472">
        <ele>163</ele>
        <time>2022-04-08T14:16:37Z</time>
      </trkpt>
      <trkpt lat="43.48278" lon="6.4147">
        <ele>163</ele>
        <time>2022-04-08T14:16:38Z</time>
      </trkpt>
      <trkpt lat="43.48278" lon="6.41469">
        <ele>163</ele>
        <time>2022-04-08T14:16:39Z</time>
      </trkpt>
      <trkpt lat="43.48278" lon="6.41467">
        <ele>163</ele>
        <time>2022-04-08T14:16:40Z</time>
      </trkpt>
      <trkpt lat="43.48278" lon="6.41466">
        <ele>163</ele>
        <time>2022-04-08T14:16:41Z</time>
      </trkpt>
      <trkpt lat="43.48278" lon="6.41465">
        <ele>163</ele>
        <time>2022-04-08T14:16:42Z</time>
      </trkpt>
      <trkpt lat="43.48278" lon="6.41464">
        <ele>162</ele>
        <time>2022-04-08T14:16:43Z</time>
      </trkpt>
      <trkpt lat="43.48278" lon="6.41462">
        <ele>162</ele>
        <time>2022-04-08T14:16:44Z</time>
      </trkpt>
      <trkpt lat="43.48278" lon="6.41461">
        <ele>162</ele>
        <time>2022-04-08T14:16:45Z</time>
      </trkpt>
      <trkpt lat="43.48278" lon="6.41459">
        <ele>162</ele>
        <time>2022-04-08T14:16:46Z</time>
      </trkpt>
      <trkpt lat="43.48278" lon="6.41457">
        <ele>162</ele>
        <time>2022-04-08T14:16:47Z</time>
      </trkpt>
      <trkpt lat="43.48278" lon="6.41455">
        <ele>162</ele>
        <time>2022-04-08T14:16:48Z</time>
      </trkpt>
      <trkpt lat="43.48278" lon="6.41453">
        <ele>162</ele>
        <time>2022-04-08T14:16:49Z</time>
      </trkpt>
      <trkpt lat="43.48278" lon="6.41451">
        <ele>162</ele>
        <time>2022-04-08T14:16:50Z</time>
      </trkpt>
      <trkpt lat="43.48278" lon="6.4145">
        <ele>161</ele>
        <time>2022-04-08T14:16:51Z</time>
      </trkpt>
      <trkpt lat="43.48278" lon="6.41448">
        <ele>161</ele>
        <time>2022-04-08T14:16:52Z</time>
      </trkpt>
      <trkpt lat="43.48278" lon="6.41447">
        <ele>161</ele>
        <time>2022-04-08T14:16:53Z</time>
      </trkpt>
      <trkpt lat="43.48278" lon="6.41445">
        <ele>161</ele>
        <time>2022-04-08T14:16:54Z</time>
      </trkpt>
      <trkpt lat="43.48277" lon="6.41444">
        <ele>161</ele>
        <time>2022-04-08T14:16:55Z</time>
      </trkpt>
      <trkpt lat="43.48277" lon="6.41442">
        <ele>161</ele>
        <time>2022-04-08T14:16:56Z</time>
      </trkpt>
      <trkpt lat="43.48277" lon="6.41441">
        <ele>161</ele>
        <time>2022-04-08T14:16:57Z</time>
      </trkpt>
      <trkpt lat="43.48277" lon="6.4144">
        <ele>161</ele>
        <time>2022-04-08T14:16:58Z</time>
      </trkpt>
      <trkpt lat="43.48277" lon="6.41438">
        <ele>161</ele>
        <time>2022-04-08T14:16:59Z</time>
      </trkpt>
      <trkpt lat="43.48276" lon="6.41437">
        <ele>161</ele>
        <time>2022-04-08T14:17:00Z</time>
      </trkpt>
      <trkpt lat="43.48276" lon="6.41435">
        <ele>161</ele>
        <time>2022-04-08T14:17:01Z</time>
      </trkpt>
      <trkpt lat="43.48276" lon="6.41434">
        <ele>161</ele>
        <time>2022-04-08T14:17:02Z</time>
      </trkpt>
      <trkpt lat="43.48276" lon="6.41432">
        <ele>161</ele>
        <time>2022-04-08T14:17:03Z</time>
      </trkpt>
      <trkpt lat="43.48276" lon="6.4143">
        <ele>162</ele>
        <time>2022-04-08T14:17:04Z</time>
      </trkpt>
      <trkpt lat="43.48276" lon="6.41429">
        <ele>162</ele>
        <time>2022-04-08T14:17:05Z</time>
      </trkpt>
      <trkpt lat="43.48276" lon="6.41427">
        <ele>162</ele>
        <time>2022-04-08T14:17:06Z</time>
      </trkpt>
      <trkpt lat="43.48275" lon="6.41425">
        <ele>162</ele>
        <time>2022-04-08T14:17:07Z</time>
      </trkpt>
      <trkpt lat="43.48275" lon="6.41424">
        <ele>162</ele>
        <time>2022-04-08T14:17:08Z</time>
      </trkpt>
      <trkpt lat="43.48275" lon="6.41422">
        <ele>162</ele>
        <time>2022-04-08T14:17:09Z</time>
      </trkpt>
      <trkpt lat="43.48275" lon="6.41421">
        <ele>162</ele>
        <time>2022-04-08T14:17:10Z</time>
      </trkpt>
      <trkpt lat="43.48274" lon="6.41419">
        <ele>163</ele>
        <time>2022-04-08T14:17:11Z</time>
      </trkpt>
      <trkpt lat="43.48274" lon="6.41417">
        <ele>163</ele>
        <time>2022-04-08T14:17:12Z</time>
      </trkpt>
      <trkpt lat="43.48274" lon="6.41416">
        <ele>163</ele>
        <time>2022-04-08T14:17:13Z</time>
      </trkpt>
      <trkpt lat="43.48273" lon="6.41414">
        <ele>163</ele>
        <time>2022-04-08T14:17:14Z</time>
      </trkpt>
      <trkpt lat="43.48272" lon="6.41412">
        <ele>163</ele>
        <time>2022-04-08T14:17:15Z</time>
      </trkpt>
      <trkpt lat="43.48272" lon="6.41411">
        <ele>163</ele>
        <time>2022-04-08T14:17:16Z</time>
      </trkpt>
      <trkpt lat="43.48272" lon="6.41409">
        <ele>163</ele>
        <time>2022-04-08T14:17:17Z</time>
      </trkpt>
      <trkpt lat="43.48271" lon="6.41407">
        <ele>163</ele>
        <time>2022-04-08T14:17:18Z</time>
      </trkpt>
      <trkpt lat="43.48271" lon="6.41406">
        <ele>163</ele>
        <time>2022-04-08T14:17:19Z</time>
      </trkpt>
      <trkpt lat="43.48271" lon="6.41404">
        <ele>163</ele>
        <time>2022-04-08T14:17:20Z</time>
      </trkpt>
      <trkpt lat="43.48271" lon="6.41403">
        <ele>163</ele>
        <time>2022-04-08T14:17:21Z</time>
      </trkpt>
      <trkpt lat="43.4827" lon="6.41401">
        <ele>163</ele>
        <time>2022-04-08T14:17:22Z</time>
      </trkpt>
      <trkpt lat="43.4827" lon="6.41399">
        <ele>163</ele>
        <time>2022-04-08T14:17:23Z</time>
      </trkpt>
      <trkpt lat="43.4827" lon="6.41398">
        <ele>163</ele>
        <time>2022-04-08T14:17:24Z</time>
      </trkpt>
      <trkpt lat="43.48269" lon="6.41396">
        <ele>163</ele>
        <time>2022-04-08T14:17:25Z</time>
      </trkpt>
      <trkpt lat="43.48269" lon="6.41395">
        <ele>163</ele>
        <time>2022-04-08T14:17:26Z</time>
      </trkpt>
      <trkpt lat="43.48268" lon="6.41393">
        <ele>163</ele>
        <time>2022-04-08T14:17:27Z</time>
      </trkpt>
      <trkpt lat="43.48268" lon="6.41391">
        <ele>163</ele>
        <time>2022-04-08T14:17:28Z</time>
      </trkpt>
      <trkpt lat="43.48267" lon="6.4139">
        <ele>163</ele>
        <time>2022-04-08T14:17:29Z</time>
      </trkpt>
      <trkpt lat="43.48267" lon="6.41389">
        <ele>163</ele>
        <time>2022-04-08T14:17:30Z</time>
      </trkpt>
      <trkpt lat="43.48266" lon="6.41387">
        <ele>163</ele>
        <time>2022-04-08T14:17:31Z</time>
      </trkpt>
      <trkpt lat="43.48265" lon="6.41386">
        <ele>163</ele>
        <time>2022-04-08T14:17:32Z</time>
      </trkpt>
      <trkpt lat="43.48265" lon="6.41385">
        <ele>163</ele>
        <time>2022-04-08T14:17:33Z</time>
      </trkpt>
      <trkpt lat="43.48264" lon="6.41384">
        <ele>163</ele>
        <time>2022-04-08T14:17:34Z</time>
      </trkpt>
      <trkpt lat="43.48263" lon="6.41383">
        <ele>163</ele>
        <time>2022-04-08T14:17:35Z</time>
      </trkpt>
      <trkpt lat="43.48263" lon="6.41381">
        <ele>163</ele>
        <time>2022-04-08T14:17:36Z</time>
      </trkpt>
      <trkpt lat="43.48262" lon="6.4138">
        <ele>163</ele>
        <time>2022-04-08T14:17:37Z</time>
      </trkpt>
      <trkpt lat="43.48261" lon="6.41379">
        <ele>163</ele>
        <time>2022-04-08T14:17:38Z</time>
      </trkpt>
      <trkpt lat="43.4826" lon="6.41378">
        <ele>163</ele>
        <time>2022-04-08T14:17:39Z</time>
      </trkpt>
      <trkpt lat="43.48259" lon="6.41376">
        <ele>163</ele>
        <time>2022-04-08T14:17:40Z</time>
      </trkpt>
      <trkpt lat="43.48258" lon="6.41375">
        <ele>163</ele>
        <time>2022-04-08T14:17:41Z</time>
      </trkpt>
      <trkpt lat="43.48258" lon="6.41374">
        <ele>163</ele>
        <time>2022-04-08T14:17:42Z</time>
      </trkpt>
      <trkpt lat="43.48257" lon="6.41373">
        <ele>163</ele>
        <time>2022-04-08T14:17:43Z</time>
      </trkpt>
      <trkpt lat="43.48257" lon="6.41373">
        <ele>163</ele>
        <time>2022-04-08T14:17:44Z</time>
      </trkpt>
      <trkpt lat="43.48256" lon="6.41372">
        <ele>163</ele>
        <time>2022-04-08T14:17:45Z</time>
      </trkpt>
      <trkpt lat="43.48256" lon="6.41371">
        <ele>163</ele>
        <time>2022-04-08T14:17:46Z</time>
      </trkpt>
      <trkpt lat="43.48256" lon="6.4137">
        <ele>163</ele>
        <time>2022-04-08T14:17:47Z</time>
      </trkpt>
      <trkpt lat="43.48255" lon="6.41369">
        <ele>164</ele>
        <time>2022-04-08T14:17:48Z</time>
      </trkpt>
      <trkpt lat="43.48255" lon="6.41368">
        <ele>164</ele>
        <time>2022-04-08T14:17:49Z</time>
      </trkpt>
      <trkpt lat="43.48254" lon="6.41367">
        <ele>164</ele>
        <time>2022-04-08T14:17:50Z</time>
      </trkpt>
      <trkpt lat="43.48253" lon="6.41366">
        <ele>164</ele>
        <time>2022-04-08T14:17:51Z</time>
      </trkpt>
      <trkpt lat="43.48253" lon="6.41365">
        <ele>164</ele>
        <time>2022-04-08T14:17:52Z</time>
      </trkpt>
      <trkpt lat="43.48252" lon="6.41364">
        <ele>164</ele>
        <time>2022-04-08T14:17:53Z</time>
      </trkpt>
      <trkpt lat="43.48251" lon="6.41363">
        <ele>164</ele>
        <time>2022-04-08T14:17:54Z</time>
      </trkpt>
      <trkpt lat="43.48251" lon="6.41362">
        <ele>164</ele>
        <time>2022-04-08T14:17:55Z</time>
      </trkpt>
      <trkpt lat="43.4825" lon="6.41361">
        <ele>165</ele>
        <time>2022-04-08T14:17:56Z</time>
      </trkpt>
      <trkpt lat="43.4825" lon="6.4136">
        <ele>165</ele>
        <time>2022-04-08T14:17:57Z</time>
      </trkpt>
      <trkpt lat="43.48249" lon="6.41359">
        <ele>165</ele>
        <time>2022-04-08T14:17:58Z</time>
      </trkpt>
      <trkpt lat="43.48248" lon="6.41358">
        <ele>165</ele>
        <time>2022-04-08T14:17:59Z</time>
      </trkpt>
      <trkpt lat="43.48247" lon="6.41358">
        <ele>165</ele>
        <time>2022-04-08T14:18:00Z</time>
      </trkpt>
      <trkpt lat="43.48246" lon="6.41357">
        <ele>165</ele>
        <time>2022-04-08T14:18:01Z</time>
      </trkpt>
      <trkpt lat="43.48245" lon="6.41357">
        <ele>165</ele>
        <time>2022-04-08T14:18:02Z</time>
      </trkpt>
      <trkpt lat="43.48245" lon="6.41356">
        <ele>165</ele>
        <time>2022-04-08T14:18:03Z</time>
      </trkpt>
      <trkpt lat="43.48245" lon="6.41355">
        <ele>165</ele>
        <time>2022-04-08T14:18:04Z</time>
      </trkpt>
      <trkpt lat="43.48245" lon="6.41353">
        <ele>165</ele>
        <time>2022-04-08T14:18:05Z</time>
      </trkpt>
      <trkpt lat="43.48244" lon="6.41352">
        <ele>165</ele>
        <time>2022-04-08T14:18:06Z</time>
      </trkpt>
      <trkpt lat="43.48244" lon="6.4135">
        <ele>164</ele>
        <time>2022-04-08T14:18:07Z</time>
      </trkpt>
      <trkpt lat="43.48244" lon="6.41348">
        <ele>164</ele>
        <time>2022-04-08T14:18:08Z</time>
      </trkpt>
      <trkpt lat="43.48244" lon="6.41347">
        <ele>164</ele>
        <time>2022-04-08T14:18:09Z</time>
      </trkpt>
      <trkpt lat="43.48243" lon="6.41345">
        <ele>164</ele>
        <time>2022-04-08T14:18:10Z</time>
      </trkpt>
      <trkpt lat="43.48243" lon="6.41344">
        <ele>164</ele>
        <time>2022-04-08T14:18:11Z</time>
      </trkpt>
      <trkpt lat="43.48242" lon="6.41342">
        <ele>164</ele>
        <time>2022-04-08T14:18:12Z</time>
      </trkpt>
      <trkpt lat="43.48241" lon="6.41341">
        <ele>164</ele>
        <time>2022-04-08T14:18:13Z</time>
      </trkpt>
      <trkpt lat="43.48241" lon="6.41339">
        <ele>163</ele>
        <time>2022-04-08T14:18:14Z</time>
      </trkpt>
      <trkpt lat="43.4824" lon="6.41338">
        <ele>163</ele>
        <time>2022-04-08T14:18:15Z</time>
      </trkpt>
      <trkpt lat="43.4824" lon="6.41336">
        <ele>163</ele>
        <time>2022-04-08T14:18:16Z</time>
      </trkpt>
      <trkpt lat="43.4824" lon="6.41334">
        <ele>163</ele>
        <time>2022-04-08T14:18:17Z</time>
      </trkpt>
      <trkpt lat="43.4824" lon="6.41332">
        <ele>163</ele>
        <time>2022-04-08T14:18:18Z</time>
      </trkpt>
      <trkpt lat="43.4824" lon="6.4133">
        <ele>162</ele>
        <time>2022-04-08T14:18:19Z</time>
      </trkpt>
      <trkpt lat="43.48239" lon="6.41329">
        <ele>162</ele>
        <time>2022-04-08T14:18:20Z</time>
      </trkpt>
      <trkpt lat="43.48239" lon="6.41327">
        <ele>162</ele>
        <time>2022-04-08T14:18:21Z</time>
      </trkpt>
      <trkpt lat="43.48239" lon="6.41325">
        <ele>161</ele>
        <time>2022-04-08T14:18:22Z</time>
      </trkpt>
      <trkpt lat="43.48239" lon="6.41323">
        <ele>161</ele>
        <time>2022-04-08T14:18:23Z</time>
      </trkpt>
      <trkpt lat="43.48239" lon="6.41322">
        <ele>161</ele>
        <time>2022-04-08T14:18:24Z</time>
      </trkpt>
      <trkpt lat="43.48239" lon="6.41321">
        <ele>161</ele>
        <time>2022-04-08T14:18:25Z</time>
      </trkpt>
      <trkpt lat="43.48238" lon="6.41319">
        <ele>160</ele>
        <time>2022-04-08T14:18:26Z</time>
      </trkpt>
      <trkpt lat="43.48238" lon="6.41317">
        <ele>160</ele>
        <time>2022-04-08T14:18:27Z</time>
      </trkpt>
      <trkpt lat="43.48238" lon="6.41315">
        <ele>160</ele>
        <time>2022-04-08T14:18:28Z</time>
      </trkpt>
      <trkpt lat="43.48238" lon="6.41314">
        <ele>160</ele>
        <time>2022-04-08T14:18:29Z</time>
      </trkpt>
      <trkpt lat="43.48237" lon="6.41312">
        <ele>159</ele>
        <time>2022-04-08T14:18:30Z</time>
      </trkpt>
      <trkpt lat="43.48237" lon="6.4131">
        <ele>159</ele>
        <time>2022-04-08T14:18:31Z</time>
      </trkpt>
      <trkpt lat="43.48237" lon="6.41308">
        <ele>159</ele>
        <time>2022-04-08T14:18:32Z</time>
      </trkpt>
      <trkpt lat="43.48237" lon="6.41307">
        <ele>159</ele>
        <time>2022-04-08T14:18:33Z</time>
      </trkpt>
      <trkpt lat="43.48237" lon="6.41305">
        <ele>158</ele>
        <time>2022-04-08T14:18:34Z</time>
      </trkpt>
      <trkpt lat="43.48237" lon="6.41304">
        <ele>158</ele>
        <time>2022-04-08T14:18:35Z</time>
      </trkpt>
      <trkpt lat="43.48237" lon="6.41302">
        <ele>158</ele>
        <time>2022-04-08T14:18:36Z</time>
      </trkpt>
      <trkpt lat="43.48236" lon="6.41301">
        <ele>158</ele>
        <time>2022-04-08T14:18:37Z</time>
      </trkpt>
      <trkpt lat="43.48236" lon="6.41299">
        <ele>158</ele>
        <time>2022-04-08T14:18:38Z</time>
      </trkpt>
      <trkpt lat="43.48236" lon="6.41298">
        <ele>157</ele>
        <time>2022-04-08T14:18:39Z</time>
      </trkpt>
      <trkpt lat="43.48236" lon="6.41296">
        <ele>157</ele>
        <time>2022-04-08T14:18:40Z</time>
      </trkpt>
      <trkpt lat="43.48235" lon="6.41295">
        <ele>157</ele>
        <time>2022-04-08T14:18:41Z</time>
      </trkpt>
      <trkpt lat="43.48235" lon="6.41293">
        <ele>157</ele>
        <time>2022-04-08T14:18:42Z</time>
      </trkpt>
      <trkpt lat="43.48235" lon="6.41291">
        <ele>157</ele>
        <time>2022-04-08T14:18:43Z</time>
      </trkpt>
      <trkpt lat="43.48235" lon="6.4129">
        <ele>156</ele>
        <time>2022-04-08T14:18:44Z</time>
      </trkpt>
      <trkpt lat="43.48235" lon="6.41289">
        <ele>156</ele>
        <time>2022-04-08T14:18:45Z</time>
      </trkpt>
      <trkpt lat="43.48235" lon="6.41287">
        <ele>156</ele>
        <time>2022-04-08T14:18:46Z</time>
      </trkpt>
      <trkpt lat="43.48235" lon="6.41286">
        <ele>156</ele>
        <time>2022-04-08T14:18:47Z</time>
      </trkpt>
      <trkpt lat="43.48234" lon="6.41285">
        <ele>156</ele>
        <time>2022-04-08T14:18:48Z</time>
      </trkpt>
      <trkpt lat="43.48234" lon="6.41283">
        <ele>156</ele>
        <time>2022-04-08T14:18:49Z</time>
      </trkpt>
      <trkpt lat="43.48235" lon="6.41281">
        <ele>156</ele>
        <time>2022-04-08T14:18:50Z</time>
      </trkpt>
      <trkpt lat="43.48235" lon="6.4128">
        <ele>155</ele>
        <time>2022-04-08T14:18:51Z</time>
      </trkpt>
      <trkpt lat="43.48235" lon="6.41278">
        <ele>155</ele>
        <time>2022-04-08T14:18:52Z</time>
      </trkpt>
      <trkpt lat="43.48235" lon="6.41276">
        <ele>155</ele>
        <time>2022-04-08T14:18:53Z</time>
      </trkpt>
      <trkpt lat="43.48235" lon="6.41274">
        <ele>155</ele>
        <time>2022-04-08T14:18:54Z</time>
      </trkpt>
      <trkpt lat="43.48235" lon="6.41273">
        <ele>155</ele>
        <time>2022-04-08T14:18:55Z</time>
      </trkpt>
      <trkpt lat="43.48235" lon="6.41271">
        <ele>156</ele>
        <time>2022-04-08T14:18:56Z</time>
      </trkpt>
      <trkpt lat="43.48235" lon="6.4127">
        <ele>156</ele>
        <time>2022-04-08T14:18:57Z</time>
      </trkpt>
      <trkpt lat="43.48235" lon="6.41268">
        <ele>156</ele>
        <time>2022-04-08T14:18:58Z</time>
      </trkpt>
      <trkpt lat="43.48235" lon="6.41267">
        <ele>156</ele>
        <time>2022-04-08T14:18:59Z</time>
      </trkpt>
      <trkpt lat="43.48234" lon="6.41265">
        <ele>156</ele>
        <time>2022-04-08T14:19:00Z</time>
      </trkpt>
      <trkpt lat="43.48234" lon="6.41263">
        <ele>156</ele>
        <time>2022-04-08T14:19:01Z</time>
      </trkpt>
      <trkpt lat="43.48234" lon="6.41262">
        <ele>156</ele>
        <time>2022-04-08T14:19:02Z</time>
      </trkpt>
      <trkpt lat="43.48234" lon="6.4126">
        <ele>155</ele>
        <time>2022-04-08T14:19:03Z</time>
      </trkpt>
      <trkpt lat="43.48235" lon="6.41259">
        <ele>155</ele>
        <time>2022-04-08T14:19:04Z</time>
      </trkpt>
      <trkpt lat="43.48234" lon="6.41258">
        <ele>155</ele>
        <time>2022-04-08T14:19:05Z</time>
      </trkpt>
      <trkpt lat="43.48234" lon="6.41256">
        <ele>155</ele>
        <time>2022-04-08T14:19:06Z</time>
      </trkpt>
      <trkpt lat="43.48234" lon="6.41255">
        <ele>155</ele>
        <time>2022-04-08T14:19:07Z</time>
      </trkpt>
      <trkpt lat="43.48234" lon="6.41253">
        <ele>155</ele>
        <time>2022-04-08T14:19:08Z</time>
      </trkpt>
      <trkpt lat="43.48234" lon="6.41252">
        <ele>155</ele>
        <time>2022-04-08T14:19:09Z</time>
      </trkpt>
      <trkpt lat="43.48234" lon="6.4125">
        <ele>155</ele>
        <time>2022-04-08T14:19:10Z</time>
      </trkpt>
      <trkpt lat="43.48234" lon="6.41249">
        <ele>155</ele>
        <time>2022-04-08T14:19:11Z</time>
      </trkpt>
      <trkpt lat="43.48234" lon="6.41247">
        <ele>155</ele>
        <time>2022-04-08T14:19:12Z</time>
      </trkpt>
      <trkpt lat="43.48234" lon="6.41246">
        <ele>154</ele>
        <time>2022-04-08T14:19:13Z</time>
      </trkpt>
      <trkpt lat="43.48234" lon="6.41245">
        <ele>154</ele>
        <time>2022-04-08T14:19:14Z</time>
      </trkpt>
      <trkpt lat="43.48235" lon="6.41245">
        <ele>154</ele>
        <time>2022-04-08T14:19:15Z</time>
      </trkpt>
      <trkpt lat="43.48235" lon="6.41244">
        <ele>153</ele>
        <time>2022-04-08T14:19:16Z</time>
      </trkpt>
      <trkpt lat="43.48235" lon="6.41243">
        <ele>153</ele>
        <time>2022-04-08T14:19:17Z</time>
      </trkpt>
      <trkpt lat="43.48235" lon="6.41242">
        <ele>153</ele>
        <time>2022-04-08T14:19:18Z</time>
      </trkpt>
      <trkpt lat="43.48235" lon="6.41242">
        <ele>153</ele>
        <time>2022-04-08T14:19:19Z</time>
      </trkpt>
      <trkpt lat="43.48235" lon="6.41241">
        <ele>153</ele>
        <time>2022-04-08T14:19:20Z</time>
      </trkpt>
      <trkpt lat="43.48235" lon="6.41241">
        <ele>153</ele>
        <time>2022-04-08T14:19:21Z</time>
      </trkpt>
      <trkpt lat="43.48235" lon="6.4124">
        <ele>153</ele>
        <time>2022-04-08T14:19:22Z</time>
      </trkpt>
      <trkpt lat="43.48235" lon="6.4124">
        <ele>153</ele>
        <time>2022-04-08T14:19:23Z</time>
      </trkpt>
      <trkpt lat="43.48235" lon="6.41239">
        <ele>153</ele>
        <time>2022-04-08T14:19:24Z</time>
      </trkpt>
      <trkpt lat="43.48235" lon="6.41237">
        <ele>153</ele>
        <time>2022-04-08T14:19:25Z</time>
      </trkpt>
      <trkpt lat="43.48235" lon="6.41236">
        <ele>152</ele>
        <time>2022-04-08T14:19:26Z</time>
      </trkpt>
      <trkpt lat="43.48235" lon="6.41235">
        <ele>152</ele>
        <time>2022-04-08T14:19:27Z</time>
      </trkpt>
      <trkpt lat="43.48234" lon="6.41233">
        <ele>152</ele>
        <time>2022-04-08T14:19:28Z</time>
      </trkpt>
      <trkpt lat="43.48235" lon="6.41232">
        <ele>152</ele>
        <time>2022-04-08T14:19:29Z</time>
      </trkpt>
      <trkpt lat="43.48235" lon="6.4123">
        <ele>152</ele>
        <time>2022-04-08T14:19:30Z</time>
      </trkpt>
      <trkpt lat="43.48235" lon="6.41229">
        <ele>151</ele>
        <time>2022-04-08T14:19:31Z</time>
      </trkpt>
      <trkpt lat="43.48235" lon="6.41227">
        <ele>151</ele>
        <time>2022-04-08T14:19:32Z</time>
      </trkpt>
      <trkpt lat="43.48236" lon="6.41225">
        <ele>151</ele>
        <time>2022-04-08T14:19:33Z</time>
      </trkpt>
      <trkpt lat="43.48236" lon="6.41223">
        <ele>151</ele>
        <time>2022-04-08T14:19:34Z</time>
      </trkpt>
      <trkpt lat="43.48236" lon="6.41221">
        <ele>151</ele>
        <time>2022-04-08T14:19:35Z</time>
      </trkpt>
      <trkpt lat="43.48236" lon="6.41219">
        <ele>151</ele>
        <time>2022-04-08T14:19:36Z</time>
      </trkpt>
      <trkpt lat="43.48236" lon="6.41218">
        <ele>150</ele>
        <time>2022-04-08T14:19:37Z</time>
      </trkpt>
      <trkpt lat="43.48236" lon="6.41216">
        <ele>150</ele>
        <time>2022-04-08T14:19:38Z</time>
      </trkpt>
      <trkpt lat="43.48236" lon="6.41215">
        <ele>150</ele>
        <time>2022-04-08T14:19:39Z</time>
      </trkpt>
      <trkpt lat="43.48237" lon="6.41213">
        <ele>150</ele>
        <time>2022-04-08T14:19:40Z</time>
      </trkpt>
      <trkpt lat="43.48237" lon="6.41212">
        <ele>150</ele>
        <time>2022-04-08T14:19:41Z</time>
      </trkpt>
      <trkpt lat="43.48237" lon="6.41211">
        <ele>150</ele>
        <time>2022-04-08T14:19:42Z</time>
      </trkpt>
      <trkpt lat="43.48237" lon="6.41209">
        <ele>149</ele>
        <time>2022-04-08T14:19:43Z</time>
      </trkpt>
      <trkpt lat="43.48237" lon="6.41208">
        <ele>149</ele>
        <time>2022-04-08T14:19:44Z</time>
      </trkpt>
      <trkpt lat="43.48237" lon="6.41206">
        <ele>149</ele>
        <time>2022-04-08T14:19:45Z</time>
      </trkpt>
      <trkpt lat="43.48238" lon="6.41205">
        <ele>149</ele>
        <time>2022-04-08T14:19:46Z</time>
      </trkpt>
      <trkpt lat="43.48238" lon="6.41203">
        <ele>149</ele>
        <time>2022-04-08T14:19:47Z</time>
      </trkpt>
      <trkpt lat="43.48238" lon="6.41202">
        <ele>149</ele>
        <time>2022-04-08T14:19:48Z</time>
      </trkpt>
      <trkpt lat="43.48238" lon="6.412">
        <ele>149</ele>
        <time>2022-04-08T14:19:49Z</time>
      </trkpt>
      <trkpt lat="43.48238" lon="6.41199">
        <ele>149</ele>
        <time>2022-04-08T14:19:50Z</time>
      </trkpt>
      <trkpt lat="43.48238" lon="6.41197">
        <ele>149</ele>
        <time>2022-04-08T14:19:51Z</time>
      </trkpt>
      <trkpt lat="43.48238" lon="6.41196">
        <ele>148</ele>
        <time>2022-04-08T14:19:52Z</time>
      </trkpt>
      <trkpt lat="43.48238" lon="6.41194">
        <ele>148</ele>
        <time>2022-04-08T14:19:53Z</time>
      </trkpt>
      <trkpt lat="43.48238" lon="6.41193">
        <ele>148</ele>
        <time>2022-04-08T14:19:54Z</time>
      </trkpt>
      <trkpt lat="43.48238" lon="6.41192">
        <ele>148</ele>
        <time>2022-04-08T14:19:55Z</time>
      </trkpt>
      <trkpt lat="43.48238" lon="6.4119">
        <ele>148</ele>
        <time>2022-04-08T14:19:56Z</time>
      </trkpt>
      <trkpt lat="43.48238" lon="6.41189">
        <ele>148</ele>
        <time>2022-04-08T14:19:57Z</time>
      </trkpt>
      <trkpt lat="43.48238" lon="6.41188">
        <ele>148</ele>
        <time>2022-04-08T14:19:58Z</time>
      </trkpt>
      <trkpt lat="43.48238" lon="6.41186">
        <ele>147</ele>
        <time>2022-04-08T14:19:59Z</time>
      </trkpt>
      <trkpt lat="43.48238" lon="6.41184">
        <ele>147</ele>
        <time>2022-04-08T14:20:00Z</time>
      </trkpt>
      <trkpt lat="43.48238" lon="6.41183">
        <ele>147</ele>
        <time>2022-04-08T14:20:01Z</time>
      </trkpt>
      <trkpt lat="43.48238" lon="6.41181">
        <ele>147</ele>
        <time>2022-04-08T14:20:02Z</time>
      </trkpt>
      <trkpt lat="43.48238" lon="6.4118">
        <ele>147</ele>
        <time>2022-04-08T14:20:03Z</time>
      </trkpt>
      <trkpt lat="43.48238" lon="6.41178">
        <ele>146</ele>
        <time>2022-04-08T14:20:04Z</time>
      </trkpt>
      <trkpt lat="43.48239" lon="6.41177">
        <ele>146</ele>
        <time>2022-04-08T14:20:05Z</time>
      </trkpt>
      <trkpt lat="43.48239" lon="6.41176">
        <ele>146</ele>
        <time>2022-04-08T14:20:06Z</time>
      </trkpt>
      <trkpt lat="43.48239" lon="6.41175">
        <ele>146</ele>
        <time>2022-04-08T14:20:07Z</time>
      </trkpt>
      <trkpt lat="43.48239" lon="6.41174">
        <ele>146</ele>
        <time>2022-04-08T14:20:08Z</time>
      </trkpt>
      <trkpt lat="43.48239" lon="6.41172">
        <ele>146</ele>
        <time>2022-04-08T14:20:09Z</time>
      </trkpt>
      <trkpt lat="43.48239" lon="6.41171">
        <ele>146</ele>
        <time>2022-04-08T14:20:10Z</time>
      </trkpt>
      <trkpt lat="43.48239" lon="6.41169">
        <ele>146</ele>
        <time>2022-04-08T14:20:11Z</time>
      </trkpt>
      <trkpt lat="43.48239" lon="6.41167">
        <ele>146</ele>
        <time>2022-04-08T14:20:12Z</time>
      </trkpt>
      <trkpt lat="43.48239" lon="6.41166">
        <ele>146</ele>
        <time>2022-04-08T14:20:13Z</time>
      </trkpt>
      <trkpt lat="43.48239" lon="6.41164">
        <ele>146</ele>
        <time>2022-04-08T14:20:14Z</time>
      </trkpt>
      <trkpt lat="43.48239" lon="6.41163">
        <ele>146</ele>
        <time>2022-04-08T14:20:15Z</time>
      </trkpt>
      <trkpt lat="43.4824" lon="6.41161">
        <ele>146</ele>
        <time>2022-04-08T14:20:16Z</time>
      </trkpt>
      <trkpt lat="43.4824" lon="6.41159">
        <ele>146</ele>
        <time>2022-04-08T14:20:17Z</time>
      </trkpt>
      <trkpt lat="43.4824" lon="6.41158">
        <ele>146</ele>
        <time>2022-04-08T14:20:18Z</time>
      </trkpt>
      <trkpt lat="43.48241" lon="6.41156">
        <ele>146</ele>
        <time>2022-04-08T14:20:19Z</time>
      </trkpt>
      <trkpt lat="43.48241" lon="6.41155">
        <ele>146</ele>
        <time>2022-04-08T14:20:20Z</time>
      </trkpt>
      <trkpt lat="43.48241" lon="6.41153">
        <ele>146</ele>
        <time>2022-04-08T14:20:21Z</time>
      </trkpt>
      <trkpt lat="43.48241" lon="6.41152">
        <ele>147</ele>
        <time>2022-04-08T14:20:22Z</time>
      </trkpt>
      <trkpt lat="43.48242" lon="6.4115">
        <ele>147</ele>
        <time>2022-04-08T14:20:23Z</time>
      </trkpt>
      <trkpt lat="43.48242" lon="6.41148">
        <ele>146</ele>
        <time>2022-04-08T14:20:24Z</time>
      </trkpt>
      <trkpt lat="43.48243" lon="6.41146">
        <ele>146</ele>
        <time>2022-04-08T14:20:25Z</time>
      </trkpt>
      <trkpt lat="43.48243" lon="6.41144">
        <ele>146</ele>
        <time>2022-04-08T14:20:26Z</time>
      </trkpt>
      <trkpt lat="43.48243" lon="6.41143">
        <ele>146</ele>
        <time>2022-04-08T14:20:27Z</time>
      </trkpt>
      <trkpt lat="43.48243" lon="6.41141">
        <ele>146</ele>
        <time>2022-04-08T14:20:28Z</time>
      </trkpt>
      <trkpt lat="43.48244" lon="6.41139">
        <ele>146</ele>
        <time>2022-04-08T14:20:29Z</time>
      </trkpt>
      <trkpt lat="43.48244" lon="6.41138">
        <ele>146</ele>
        <time>2022-04-08T14:20:30Z</time>
      </trkpt>
      <trkpt lat="43.48244" lon="6.41137">
        <ele>146</ele>
        <time>2022-04-08T14:20:31Z</time>
      </trkpt>
      <trkpt lat="43.48245" lon="6.41135">
        <ele>146</ele>
        <time>2022-04-08T14:20:32Z</time>
      </trkpt>
      <trkpt lat="43.48247" lon="6.41134">
        <ele>146</ele>
        <time>2022-04-08T14:20:33Z</time>
      </trkpt>
      <trkpt lat="43.48247" lon="6.41132">
        <ele>146</ele>
        <time>2022-04-08T14:20:34Z</time>
      </trkpt>
      <trkpt lat="43.48247" lon="6.41131">
        <ele>146</ele>
        <time>2022-04-08T14:20:35Z</time>
      </trkpt>
      <trkpt lat="43.48247" lon="6.41129">
        <ele>146</ele>
        <time>2022-04-08T14:20:36Z</time>
      </trkpt>
      <trkpt lat="43.48247" lon="6.41127">
        <ele>146</ele>
        <time>2022-04-08T14:20:37Z</time>
      </trkpt>
      <trkpt lat="43.48246" lon="6.41126">
        <ele>145</ele>
        <time>2022-04-08T14:20:38Z</time>
      </trkpt>
      <trkpt lat="43.48247" lon="6.41125">
        <ele>145</ele>
        <time>2022-04-08T14:20:39Z</time>
      </trkpt>
      <trkpt lat="43.48247" lon="6.41123">
        <ele>145</ele>
        <time>2022-04-08T14:20:40Z</time>
      </trkpt>
      <trkpt lat="43.48248" lon="6.41122">
        <ele>145</ele>
        <time>2022-04-08T14:20:41Z</time>
      </trkpt>
      <trkpt lat="43.48248" lon="6.41121">
        <ele>144</ele>
        <time>2022-04-08T14:20:42Z</time>
      </trkpt>
      <trkpt lat="43.48248" lon="6.4112">
        <ele>144</ele>
        <time>2022-04-08T14:20:43Z</time>
      </trkpt>
      <trkpt lat="43.48249" lon="6.4112">
        <ele>144</ele>
        <time>2022-04-08T14:20:44Z</time>
      </trkpt>
      <trkpt lat="43.48249" lon="6.41118">
        <ele>144</ele>
        <time>2022-04-08T14:20:45Z</time>
      </trkpt>
      <trkpt lat="43.48249" lon="6.41117">
        <ele>144</ele>
        <time>2022-04-08T14:20:46Z</time>
      </trkpt>
      <trkpt lat="43.48249" lon="6.41117">
        <ele>144</ele>
        <time>2022-04-08T14:20:47Z</time>
      </trkpt>
      <trkpt lat="43.48249" lon="6.41116">
        <ele>143</ele>
        <time>2022-04-08T14:20:48Z</time>
      </trkpt>
      <trkpt lat="43.4825" lon="6.41115">
        <ele>143</ele>
        <time>2022-04-08T14:20:49Z</time>
      </trkpt>
      <trkpt lat="43.4825" lon="6.41114">
        <ele>143</ele>
        <time>2022-04-08T14:20:50Z</time>
      </trkpt>
      <trkpt lat="43.48251" lon="6.41112">
        <ele>142</ele>
        <time>2022-04-08T14:20:51Z</time>
      </trkpt>
      <trkpt lat="43.48251" lon="6.4111">
        <ele>141</ele>
        <time>2022-04-08T14:20:52Z</time>
      </trkpt>
      <trkpt lat="43.48251" lon="6.41109">
        <ele>141</ele>
        <time>2022-04-08T14:20:53Z</time>
      </trkpt>
      <trkpt lat="43.48251" lon="6.41108">
        <ele>141</ele>
        <time>2022-04-08T14:20:54Z</time>
      </trkpt>
      <trkpt lat="43.48252" lon="6.41107">
        <ele>141</ele>
        <time>2022-04-08T14:20:55Z</time>
      </trkpt>
      <trkpt lat="43.48252" lon="6.41106">
        <ele>141</ele>
        <time>2022-04-08T14:20:56Z</time>
      </trkpt>
      <trkpt lat="43.48252" lon="6.41105">
        <ele>141</ele>
        <time>2022-04-08T14:20:57Z</time>
      </trkpt>
      <trkpt lat="43.48253" lon="6.41103">
        <ele>141</ele>
        <time>2022-04-08T14:20:58Z</time>
      </trkpt>
      <trkpt lat="43.48253" lon="6.41102">
        <ele>141</ele>
        <time>2022-04-08T14:20:59Z</time>
      </trkpt>
      <trkpt lat="43.48254" lon="6.41101">
        <ele>141</ele>
        <time>2022-04-08T14:21:00Z</time>
      </trkpt>
      <trkpt lat="43.48254" lon="6.411">
        <ele>141</ele>
        <time>2022-04-08T14:21:01Z</time>
      </trkpt>
      <trkpt lat="43.48255" lon="6.41098">
        <ele>141</ele>
        <time>2022-04-08T14:21:02Z</time>
      </trkpt>
      <trkpt lat="43.48255" lon="6.41097">
        <ele>140</ele>
        <time>2022-04-08T14:21:03Z</time>
      </trkpt>
      <trkpt lat="43.48256" lon="6.41095">
        <ele>140</ele>
        <time>2022-04-08T14:21:04Z</time>
      </trkpt>
      <trkpt lat="43.48257" lon="6.41094">
        <ele>140</ele>
        <time>2022-04-08T14:21:05Z</time>
      </trkpt>
      <trkpt lat="43.48257" lon="6.41092">
        <ele>140</ele>
        <time>2022-04-08T14:21:06Z</time>
      </trkpt>
      <trkpt lat="43.48258" lon="6.41091">
        <ele>140</ele>
        <time>2022-04-08T14:21:07Z</time>
      </trkpt>
      <trkpt lat="43.48259" lon="6.4109">
        <ele>140</ele>
        <time>2022-04-08T14:21:08Z</time>
      </trkpt>
      <trkpt lat="43.4826" lon="6.41089">
        <ele>140</ele>
        <time>2022-04-08T14:21:09Z</time>
      </trkpt>
      <trkpt lat="43.48261" lon="6.41088">
        <ele>141</ele>
        <time>2022-04-08T14:21:10Z</time>
      </trkpt>
      <trkpt lat="43.48262" lon="6.41087">
        <ele>141</ele>
        <time>2022-04-08T14:21:11Z</time>
      </trkpt>
      <trkpt lat="43.48262" lon="6.41086">
        <ele>140</ele>
        <time>2022-04-08T14:21:12Z</time>
      </trkpt>
      <trkpt lat="43.48263" lon="6.41085">
        <ele>140</ele>
        <time>2022-04-08T14:21:13Z</time>
      </trkpt>
      <trkpt lat="43.48263" lon="6.41084">
        <ele>140</ele>
        <time>2022-04-08T14:21:14Z</time>
      </trkpt>
      <trkpt lat="43.48264" lon="6.41083">
        <ele>140</ele>
        <time>2022-04-08T14:21:15Z</time>
      </trkpt>
      <trkpt lat="43.48265" lon="6.41081">
        <ele>140</ele>
        <time>2022-04-08T14:21:16Z</time>
      </trkpt>
      <trkpt lat="43.48266" lon="6.4108">
        <ele>140</ele>
        <time>2022-04-08T14:21:17Z</time>
      </trkpt>
      <trkpt lat="43.48266" lon="6.4108">
        <ele>140</ele>
        <time>2022-04-08T14:21:18Z</time>
      </trkpt>
      <trkpt lat="43.48267" lon="6.41079">
        <ele>140</ele>
        <time>2022-04-08T14:21:19Z</time>
      </trkpt>
      <trkpt lat="43.48268" lon="6.41078">
        <ele>140</ele>
        <time>2022-04-08T14:21:20Z</time>
      </trkpt>
      <trkpt lat="43.48268" lon="6.41077">
        <ele>140</ele>
        <time>2022-04-08T14:21:21Z</time>
      </trkpt>
      <trkpt lat="43.48268" lon="6.41075">
        <ele>140</ele>
        <time>2022-04-08T14:21:22Z</time>
      </trkpt>
      <trkpt lat="43.48269" lon="6.41074">
        <ele>140</ele>
        <time>2022-04-08T14:21:23Z</time>
      </trkpt>
      <trkpt lat="43.48269" lon="6.41073">
        <ele>140</ele>
        <time>2022-04-08T14:21:24Z</time>
      </trkpt>
      <trkpt lat="43.48269" lon="6.41071">
        <ele>140</ele>
        <time>2022-04-08T14:21:25Z</time>
      </trkpt>
      <trkpt lat="43.4827" lon="6.4107">
        <ele>140</ele>
        <time>2022-04-08T14:21:26Z</time>
      </trkpt>
      <trkpt lat="43.4827" lon="6.41069">
        <ele>141</ele>
        <time>2022-04-08T14:21:27Z</time>
      </trkpt>
      <trkpt lat="43.4827" lon="6.41067">
        <ele>141</ele>
        <time>2022-04-08T14:21:28Z</time>
      </trkpt>
      <trkpt lat="43.4827" lon="6.41065">
        <ele>141</ele>
        <time>2022-04-08T14:21:29Z</time>
      </trkpt>
      <trkpt lat="43.4827" lon="6.41063">
        <ele>141</ele>
        <time>2022-04-08T14:21:30Z</time>
      </trkpt>
      <trkpt lat="43.48271" lon="6.41062">
        <ele>141</ele>
        <time>2022-04-08T14:21:31Z</time>
      </trkpt>
      <trkpt lat="43.48271" lon="6.41061">
        <ele>141</ele>
        <time>2022-04-08T14:21:32Z</time>
      </trkpt>
      <trkpt lat="43.48272" lon="6.41061">
        <ele>141</ele>
        <time>2022-04-08T14:21:33Z</time>
      </trkpt>
      <trkpt lat="43.48272" lon="6.4106">
        <ele>141</ele>
        <time>2022-04-08T14:21:34Z</time>
      </trkpt>
      <trkpt lat="43.48271" lon="6.4106">
        <ele>140</ele>
        <time>2022-04-08T14:21:35Z</time>
      </trkpt>
      <trkpt lat="43.48272" lon="6.41058">
        <ele>140</ele>
        <time>2022-04-08T14:21:36Z</time>
      </trkpt>
      <trkpt lat="43.48273" lon="6.41057">
        <ele>140</ele>
        <time>2022-04-08T14:21:37Z</time>
      </trkpt>
      <trkpt lat="43.48274" lon="6.41056">
        <ele>139</ele>
        <time>2022-04-08T14:21:38Z</time>
      </trkpt>
      <trkpt lat="43.48275" lon="6.41055">
        <ele>139</ele>
        <time>2022-04-08T14:21:39Z</time>
      </trkpt>
      <trkpt lat="43.48275" lon="6.41054">
        <ele>139</ele>
        <time>2022-04-08T14:21:40Z</time>
      </trkpt>
      <trkpt lat="43.48275" lon="6.41053">
        <ele>139</ele>
        <time>2022-04-08T14:21:41Z</time>
      </trkpt>
      <trkpt lat="43.48274" lon="6.41053">
        <ele>138</ele>
        <time>2022-04-08T14:21:42Z</time>
      </trkpt>
      <trkpt lat="43.48274" lon="6.41054">
        <ele>138</ele>
        <time>2022-04-08T14:21:43Z</time>
      </trkpt>
      <trkpt lat="43.48273" lon="6.41053">
        <ele>138</ele>
        <time>2022-04-08T14:21:44Z</time>
      </trkpt>
      <trkpt lat="43.48273" lon="6.41052">
        <ele>138</ele>
        <time>2022-04-08T14:21:45Z</time>
      </trkpt>
      <trkpt lat="43.48274" lon="6.41051">
        <ele>138</ele>
        <time>2022-04-08T14:21:46Z</time>
      </trkpt>
      <trkpt lat="43.48274" lon="6.4105">
        <ele>138</ele>
        <time>2022-04-08T14:21:47Z</time>
      </trkpt>
      <trkpt lat="43.48275" lon="6.41049">
        <ele>138</ele>
        <time>2022-04-08T14:21:48Z</time>
      </trkpt>
      <trkpt lat="43.48276" lon="6.41048">
        <ele>138</ele>
        <time>2022-04-08T14:21:49Z</time>
      </trkpt>
      <trkpt lat="43.48277" lon="6.41047">
        <ele>138</ele>
        <time>2022-04-08T14:21:50Z</time>
      </trkpt>
      <trkpt lat="43.48278" lon="6.41045">
        <ele>138</ele>
        <time>2022-04-08T14:21:51Z</time>
      </trkpt>
      <trkpt lat="43.48279" lon="6.41044">
        <ele>138</ele>
        <time>2022-04-08T14:21:52Z</time>
      </trkpt>
      <trkpt lat="43.4828" lon="6.41043">
        <ele>139</ele>
        <time>2022-04-08T14:21:53Z</time>
      </trkpt>
      <trkpt lat="43.48281" lon="6.41042">
        <ele>139</ele>
        <time>2022-04-08T14:21:54Z</time>
      </trkpt>
      <trkpt lat="43.48282" lon="6.41041">
        <ele>139</ele>
        <time>2022-04-08T14:21:55Z</time>
      </trkpt>
      <trkpt lat="43.48282" lon="6.41039">
        <ele>139</ele>
        <time>2022-04-08T14:21:56Z</time>
      </trkpt>
      <trkpt lat="43.48283" lon="6.41038">
        <ele>139</ele>
        <time>2022-04-08T14:21:57Z</time>
      </trkpt>
      <trkpt lat="43.48283" lon="6.41036">
        <ele>139</ele>
        <time>2022-04-08T14:21:58Z</time>
      </trkpt>
      <trkpt lat="43.48283" lon="6.41035">
        <ele>139</ele>
        <time>2022-04-08T14:21:59Z</time>
      </trkpt>
      <trkpt lat="43.48284" lon="6.41034">
        <ele>139</ele>
        <time>2022-04-08T14:22:00Z</time>
      </trkpt>
      <trkpt lat="43.48285" lon="6.41033">
        <ele>139</ele>
        <time>2022-04-08T14:22:01Z</time>
      </trkpt>
      <trkpt lat="43.48286" lon="6.41032">
        <ele>139</ele>
        <time>2022-04-08T14:22:02Z</time>
      </trkpt>
      <trkpt lat="43.48287" lon="6.4103">
        <ele>139</ele>
        <time>2022-04-08T14:22:03Z</time>
      </trkpt>
      <trkpt lat="43.48289" lon="6.41029">
        <ele>138</ele>
        <time>2022-04-08T14:22:04Z</time>
      </trkpt>
      <trkpt lat="43.4829" lon="6.41028">
        <ele>138</ele>
        <time>2022-04-08T14:22:05Z</time>
      </trkpt>
      <trkpt lat="43.48291" lon="6.41026">
        <ele>138</ele>
        <time>2022-04-08T14:22:06Z</time>
      </trkpt>
      <trkpt lat="43.48292" lon="6.41025">
        <ele>138</ele>
        <time>2022-04-08T14:22:07Z</time>
      </trkpt>
      <trkpt lat="43.48293" lon="6.41024">
        <ele>138</ele>
        <time>2022-04-08T14:22:08Z</time>
      </trkpt>
      <trkpt lat="43.48294" lon="6.41023">
        <ele>138</ele>
        <time>2022-04-08T14:22:09Z</time>
      </trkpt>
      <trkpt lat="43.48296" lon="6.41021">
        <ele>138</ele>
        <time>2022-04-08T14:22:10Z</time>
      </trkpt>
      <trkpt lat="43.48297" lon="6.4102">
        <ele>137</ele>
        <time>2022-04-08T14:22:11Z</time>
      </trkpt>
      <trkpt lat="43.48298" lon="6.41019">
        <ele>137</ele>
        <time>2022-04-08T14:22:12Z</time>
      </trkpt>
      <trkpt lat="43.48299" lon="6.41018">
        <ele>137</ele>
        <time>2022-04-08T14:22:13Z</time>
      </trkpt>
      <trkpt lat="43.483" lon="6.41017">
        <ele>137</ele>
        <time>2022-04-08T14:22:14Z</time>
      </trkpt>
      <trkpt lat="43.48301" lon="6.41016">
        <ele>137</ele>
        <time>2022-04-08T14:22:15Z</time>
      </trkpt>
      <trkpt lat="43.48302" lon="6.41015">
        <ele>136</ele>
        <time>2022-04-08T14:22:16Z</time>
      </trkpt>
      <trkpt lat="43.48303" lon="6.41013">
        <ele>136</ele>
        <time>2022-04-08T14:22:17Z</time>
      </trkpt>
      <trkpt lat="43.48304" lon="6.41012">
        <ele>136</ele>
        <time>2022-04-08T14:22:18Z</time>
      </trkpt>
      <trkpt lat="43.48305" lon="6.41011">
        <ele>136</ele>
        <time>2022-04-08T14:22:19Z</time>
      </trkpt>
      <trkpt lat="43.48306" lon="6.4101">
        <ele>136</ele>
        <time>2022-04-08T14:22:20Z</time>
      </trkpt>
      <trkpt lat="43.48307" lon="6.41009">
        <ele>136</ele>
        <time>2022-04-08T14:22:21Z</time>
      </trkpt>
      <trkpt lat="43.48308" lon="6.41008">
        <ele>136</ele>
        <time>2022-04-08T14:22:22Z</time>
      </trkpt>
      <trkpt lat="43.48309" lon="6.41007">
        <ele>136</ele>
        <time>2022-04-08T14:22:23Z</time>
      </trkpt>
      <trkpt lat="43.4831" lon="6.41006">
        <ele>136</ele>
        <time>2022-04-08T14:22:24Z</time>
      </trkpt>
      <trkpt lat="43.48312" lon="6.41006">
        <ele>136</ele>
        <time>2022-04-08T14:22:25Z</time>
      </trkpt>
      <trkpt lat="43.48313" lon="6.41005">
        <ele>136</ele>
        <time>2022-04-08T14:22:26Z</time>
      </trkpt>
      <trkpt lat="43.48314" lon="6.41005">
        <ele>136</ele>
        <time>2022-04-08T14:22:27Z</time>
      </trkpt>
      <trkpt lat="43.48315" lon="6.41004">
        <ele>136</ele>
        <time>2022-04-08T14:22:28Z</time>
      </trkpt>
      <trkpt lat="43.48316" lon="6.41003">
        <ele>136</ele>
        <time>2022-04-08T14:22:29Z</time>
      </trkpt>
      <trkpt lat="43.48317" lon="6.41002">
        <ele>136</ele>
        <time>2022-04-08T14:22:30Z</time>
      </trkpt>
      <trkpt lat="43.48318" lon="6.41001">
        <ele>136</ele>
        <time>2022-04-08T14:22:31Z</time>
      </trkpt>
      <trkpt lat="43.48319" lon="6.41">
        <ele>136</ele>
        <time>2022-04-08T14:22:32Z</time>
      </trkpt>
      <trkpt lat="43.4832" lon="6.40999">
        <ele>136</ele>
        <time>2022-04-08T14:22:33Z</time>
      </trkpt>
      <trkpt lat="43.48321" lon="6.40998">
        <ele>136</ele>
        <time>2022-04-08T14:22:34Z</time>
      </trkpt>
      <trkpt lat="43.48322" lon="6.40997">
        <ele>136</ele>
        <time>2022-04-08T14:22:35Z</time>
      </trkpt>
      <trkpt lat="43.48323" lon="6.40996">
        <ele>135</ele>
        <time>2022-04-08T14:22:36Z</time>
      </trkpt>
      <trkpt lat="43.48324" lon="6.40994">
        <ele>135</ele>
        <time>2022-04-08T14:22:37Z</time>
      </trkpt>
      <trkpt lat="43.48325" lon="6.40993">
        <ele>135</ele>
        <time>2022-04-08T14:22:38Z</time>
      </trkpt>
      <trkpt lat="43.48326" lon="6.40992">
        <ele>134</ele>
        <time>2022-04-08T14:22:39Z</time>
      </trkpt>
      <trkpt lat="43.48327" lon="6.40991">
        <ele>134</ele>
        <time>2022-04-08T14:22:40Z</time>
      </trkpt>
      <trkpt lat="43.48328" lon="6.4099">
        <ele>134</ele>
        <time>2022-04-08T14:22:41Z</time>
      </trkpt>
      <trkpt lat="43.48329" lon="6.40989">
        <ele>134</ele>
        <time>2022-04-08T14:22:42Z</time>
      </trkpt>
      <trkpt lat="43.48329" lon="6.40988">
        <ele>134</ele>
        <time>2022-04-08T14:22:43Z</time>
      </trkpt>
      <trkpt lat="43.4833" lon="6.40987">
        <ele>134</ele>
        <time>2022-04-08T14:22:44Z</time>
      </trkpt>
      <trkpt lat="43.48331" lon="6.40986">
        <ele>134</ele>
        <time>2022-04-08T14:22:45Z</time>
      </trkpt>
      <trkpt lat="43.48332" lon="6.40985">
        <ele>134</ele>
        <time>2022-04-08T14:22:46Z</time>
      </trkpt>
      <trkpt lat="43.48333" lon="6.40984">
        <ele>134</ele>
        <time>2022-04-08T14:22:47Z</time>
      </trkpt>
      <trkpt lat="43.48333" lon="6.40983">
        <ele>134</ele>
        <time>2022-04-08T14:22:48Z</time>
      </trkpt>
      <trkpt lat="43.48334" lon="6.40982">
        <ele>134</ele>
        <time>2022-04-08T14:22:49Z</time>
      </trkpt>
      <trkpt lat="43.48334" lon="6.40981">
        <ele>134</ele>
        <time>2022-04-08T14:22:50Z</time>
      </trkpt>
      <trkpt lat="43.48335" lon="6.4098">
        <ele>134</ele>
        <time>2022-04-08T14:22:51Z</time>
      </trkpt>
      <trkpt lat="43.48335" lon="6.40978">
        <ele>134</ele>
        <time>2022-04-08T14:22:52Z</time>
      </trkpt>
      <trkpt lat="43.48336" lon="6.40977">
        <ele>134</ele>
        <time>2022-04-08T14:22:53Z</time>
      </trkpt>
      <trkpt lat="43.48336" lon="6.40976">
        <ele>134</ele>
        <time>2022-04-08T14:22:54Z</time>
      </trkpt>
      <trkpt lat="43.48337" lon="6.40975">
        <ele>134</ele>
        <time>2022-04-08T14:22:55Z</time>
      </trkpt>
      <trkpt lat="43.48338" lon="6.40974">
        <ele>134</ele>
        <time>2022-04-08T14:22:56Z</time>
      </trkpt>
      <trkpt lat="43.48338" lon="6.40973">
        <ele>134</ele>
        <time>2022-04-08T14:22:57Z</time>
      </trkpt>
      <trkpt lat="43.48338" lon="6.40971">
        <ele>134</ele>
        <time>2022-04-08T14:22:58Z</time>
      </trkpt>
      <trkpt lat="43.48338" lon="6.4097">
        <ele>134</ele>
        <time>2022-04-08T14:22:59Z</time>
      </trkpt>
      <trkpt lat="43.48339" lon="6.4097">
        <ele>134</ele>
        <time>2022-04-08T14:23:00Z</time>
      </trkpt>
      <trkpt lat="43.48339" lon="6.40969">
        <ele>134</ele>
        <time>2022-04-08T14:23:01Z</time>
      </trkpt>
      <trkpt lat="43.48339" lon="6.40967">
        <ele>134</ele>
        <time>2022-04-08T14:23:02Z</time>
      </trkpt>
      <trkpt lat="43.48339" lon="6.40966">
        <ele>134</ele>
        <time>2022-04-08T14:23:03Z</time>
      </trkpt>
      <trkpt lat="43.48339" lon="6.40965">
        <ele>134</ele>
        <time>2022-04-08T14:23:04Z</time>
      </trkpt>
      <trkpt lat="43.4834" lon="6.40964">
        <ele>134</ele>
        <time>2022-04-08T14:23:05Z</time>
      </trkpt>
      <trkpt lat="43.4834" lon="6.40962">
        <ele>134</ele>
        <time>2022-04-08T14:23:06Z</time>
      </trkpt>
      <trkpt lat="43.4834" lon="6.40961">
        <ele>134</ele>
        <time>2022-04-08T14:23:07Z</time>
      </trkpt>
      <trkpt lat="43.48341" lon="6.4096">
        <ele>134</ele>
        <time>2022-04-08T14:23:08Z</time>
      </trkpt>
      <trkpt lat="43.48341" lon="6.40959">
        <ele>133</ele>
        <time>2022-04-08T14:23:09Z</time>
      </trkpt>
      <trkpt lat="43.48342" lon="6.40958">
        <ele>133</ele>
        <time>2022-04-08T14:23:10Z</time>
      </trkpt>
      <trkpt lat="43.48343" lon="6.40958">
        <ele>133</ele>
        <time>2022-04-08T14:23:11Z</time>
      </trkpt>
      <trkpt lat="43.48344" lon="6.40958">
        <ele>133</ele>
        <time>2022-04-08T14:23:12Z</time>
      </trkpt>
      <trkpt lat="43.48345" lon="6.40958">
        <ele>133</ele>
        <time>2022-04-08T14:23:13Z</time>
      </trkpt>
      <trkpt lat="43.48346" lon="6.40958">
        <ele>133</ele>
        <time>2022-04-08T14:23:14Z</time>
      </trkpt>
      <trkpt lat="43.48346" lon="6.40958">
        <ele>133</ele>
        <time>2022-04-08T14:23:15Z</time>
      </trkpt>
      <trkpt lat="43.48346" lon="6.40958">
        <ele>133</ele>
        <time>2022-04-08T14:23:16Z</time>
      </trkpt>
      <trkpt lat="43.48346" lon="6.40957">
        <ele>133</ele>
        <time>2022-04-08T14:23:17Z</time>
      </trkpt>
      <trkpt lat="43.48346" lon="6.40956">
        <ele>133</ele>
        <time>2022-04-08T14:23:18Z</time>
      </trkpt>
      <trkpt lat="43.48346" lon="6.40954">
        <ele>133</ele>
        <time>2022-04-08T14:23:19Z</time>
      </trkpt>
      <trkpt lat="43.48347" lon="6.40953">
        <ele>132</ele>
        <time>2022-04-08T14:23:20Z</time>
      </trkpt>
      <trkpt lat="43.48348" lon="6.40952">
        <ele>132</ele>
        <time>2022-04-08T14:23:21Z</time>
      </trkpt>
      <trkpt lat="43.48348" lon="6.40951">
        <ele>132</ele>
        <time>2022-04-08T14:23:22Z</time>
      </trkpt>
      <trkpt lat="43.48349" lon="6.4095">
        <ele>132</ele>
        <time>2022-04-08T14:23:23Z</time>
      </trkpt>
      <trkpt lat="43.48349" lon="6.40949">
        <ele>132</ele>
        <time>2022-04-08T14:23:24Z</time>
      </trkpt>
      <trkpt lat="43.4835" lon="6.40948">
        <ele>132</ele>
        <time>2022-04-08T14:23:25Z</time>
      </trkpt>
      <trkpt lat="43.48351" lon="6.40946">
        <ele>132</ele>
        <time>2022-04-08T14:23:26Z</time>
      </trkpt>
      <trkpt lat="43.48351" lon="6.40945">
        <ele>132</ele>
        <time>2022-04-08T14:23:27Z</time>
      </trkpt>
      <trkpt lat="43.48351" lon="6.40944">
        <ele>132</ele>
        <time>2022-04-08T14:23:28Z</time>
      </trkpt>
      <trkpt lat="43.48352" lon="6.40943">
        <ele>132</ele>
        <time>2022-04-08T14:23:29Z</time>
      </trkpt>
      <trkpt lat="43.48352" lon="6.40942">
        <ele>132</ele>
        <time>2022-04-08T14:23:30Z</time>
      </trkpt>
      <trkpt lat="43.48352" lon="6.4094">
        <ele>132</ele>
        <time>2022-04-08T14:23:31Z</time>
      </trkpt>
      <trkpt lat="43.48353" lon="6.40938">
        <ele>132</ele>
        <time>2022-04-08T14:23:32Z</time>
      </trkpt>
      <trkpt lat="43.48354" lon="6.40937">
        <ele>132</ele>
        <time>2022-04-08T14:23:33Z</time>
      </trkpt>
      <trkpt lat="43.48354" lon="6.40935">
        <ele>132</ele>
        <time>2022-04-08T14:23:34Z</time>
      </trkpt>
      <trkpt lat="43.48354" lon="6.40934">
        <ele>132</ele>
        <time>2022-04-08T14:23:35Z</time>
      </trkpt>
      <trkpt lat="43.48355" lon="6.40932">
        <ele>132</ele>
        <time>2022-04-08T14:23:36Z</time>
      </trkpt>
      <trkpt lat="43.48355" lon="6.40931">
        <ele>132</ele>
        <time>2022-04-08T14:23:37Z</time>
      </trkpt>
      <trkpt lat="43.48355" lon="6.4093">
        <ele>132</ele>
        <time>2022-04-08T14:23:38Z</time>
      </trkpt>
      <trkpt lat="43.48356" lon="6.40929">
        <ele>132</ele>
        <time>2022-04-08T14:23:39Z</time>
      </trkpt>
      <trkpt lat="43.48357" lon="6.40928">
        <ele>132</ele>
        <time>2022-04-08T14:23:40Z</time>
      </trkpt>
      <trkpt lat="43.48358" lon="6.40926">
        <ele>132</ele>
        <time>2022-04-08T14:23:41Z</time>
      </trkpt>
      <trkpt lat="43.48359" lon="6.40925">
        <ele>132</ele>
        <time>2022-04-08T14:23:42Z</time>
      </trkpt>
      <trkpt lat="43.4836" lon="6.40923">
        <ele>132</ele>
        <time>2022-04-08T14:23:43Z</time>
      </trkpt>
      <trkpt lat="43.4836" lon="6.40922">
        <ele>132</ele>
        <time>2022-04-08T14:23:44Z</time>
      </trkpt>
      <trkpt lat="43.48361" lon="6.40921">
        <ele>132</ele>
        <time>2022-04-08T14:23:45Z</time>
      </trkpt>
      <trkpt lat="43.48362" lon="6.40919">
        <ele>132</ele>
        <time>2022-04-08T14:23:46Z</time>
      </trkpt>
      <trkpt lat="43.48363" lon="6.40918">
        <ele>132</ele>
        <time>2022-04-08T14:23:47Z</time>
      </trkpt>
      <trkpt lat="43.48364" lon="6.40917">
        <ele>132</ele>
        <time>2022-04-08T14:23:48Z</time>
      </trkpt>
      <trkpt lat="43.48365" lon="6.40916">
        <ele>132</ele>
        <time>2022-04-08T14:23:49Z</time>
      </trkpt>
      <trkpt lat="43.48366" lon="6.40915">
        <ele>132</ele>
        <time>2022-04-08T14:23:50Z</time>
      </trkpt>
      <trkpt lat="43.48367" lon="6.40915">
        <ele>133</ele>
        <time>2022-04-08T14:23:51Z</time>
      </trkpt>
      <trkpt lat="43.48368" lon="6.40914">
        <ele>133</ele>
        <time>2022-04-08T14:23:52Z</time>
      </trkpt>
      <trkpt lat="43.48369" lon="6.40913">
        <ele>133</ele>
        <time>2022-04-08T14:23:53Z</time>
      </trkpt>
      <trkpt lat="43.4837" lon="6.40912">
        <ele>133</ele>
        <time>2022-04-08T14:23:54Z</time>
      </trkpt>
      <trkpt lat="43.4837" lon="6.40912">
        <ele>133</ele>
        <time>2022-04-08T14:23:55Z</time>
      </trkpt>
      <trkpt lat="43.48371" lon="6.40911">
        <ele>133</ele>
        <time>2022-04-08T14:23:56Z</time>
      </trkpt>
      <trkpt lat="43.48372" lon="6.40911">
        <ele>133</ele>
        <time>2022-04-08T14:23:57Z</time>
      </trkpt>
      <trkpt lat="43.48372" lon="6.4091">
        <ele>133</ele>
        <time>2022-04-08T14:23:58Z</time>
      </trkpt>
      <trkpt lat="43.48373" lon="6.4091">
        <ele>133</ele>
        <time>2022-04-08T14:23:59Z</time>
      </trkpt>
      <trkpt lat="43.48373" lon="6.40909">
        <ele>133</ele>
        <time>2022-04-08T14:24:00Z</time>
      </trkpt>
      <trkpt lat="43.48374" lon="6.40908">
        <ele>133</ele>
        <time>2022-04-08T14:24:01Z</time>
      </trkpt>
      <trkpt lat="43.48375" lon="6.40907">
        <ele>133</ele>
        <time>2022-04-08T14:24:02Z</time>
      </trkpt>
      <trkpt lat="43.48376" lon="6.40906">
        <ele>133</ele>
        <time>2022-04-08T14:24:03Z</time>
      </trkpt>
      <trkpt lat="43.48378" lon="6.40903">
        <ele>133</ele>
        <time>2022-04-08T14:24:04Z</time>
      </trkpt>
      <trkpt lat="43.4838" lon="6.40901">
        <ele>133</ele>
        <time>2022-04-08T14:24:05Z</time>
      </trkpt>
      <trkpt lat="43.48381" lon="6.40899">
        <ele>133</ele>
        <time>2022-04-08T14:24:06Z</time>
      </trkpt>
      <trkpt lat="43.48382" lon="6.40897">
        <ele>133</ele>
        <time>2022-04-08T14:24:07Z</time>
      </trkpt>
      <trkpt lat="43.48383" lon="6.40896">
        <ele>133</ele>
        <time>2022-04-08T14:24:08Z</time>
      </trkpt>
      <trkpt lat="43.48384" lon="6.40895">
        <ele>133</ele>
        <time>2022-04-08T14:24:09Z</time>
      </trkpt>
      <trkpt lat="43.48385" lon="6.40893">
        <ele>133</ele>
        <time>2022-04-08T14:24:10Z</time>
      </trkpt>
      <trkpt lat="43.48385" lon="6.40892">
        <ele>133</ele>
        <time>2022-04-08T14:24:11Z</time>
      </trkpt>
      <trkpt lat="43.48386" lon="6.4089">
        <ele>133</ele>
        <time>2022-04-08T14:24:12Z</time>
      </trkpt>
      <trkpt lat="43.48387" lon="6.40889">
        <ele>134</ele>
        <time>2022-04-08T14:24:13Z</time>
      </trkpt>
      <trkpt lat="43.48388" lon="6.40888">
        <ele>133</ele>
        <time>2022-04-08T14:24:14Z</time>
      </trkpt>
      <trkpt lat="43.48389" lon="6.40886">
        <ele>133</ele>
        <time>2022-04-08T14:24:15Z</time>
      </trkpt>
      <trkpt lat="43.4839" lon="6.40885">
        <ele>133</ele>
        <time>2022-04-08T14:24:16Z</time>
      </trkpt>
      <trkpt lat="43.48391" lon="6.40884">
        <ele>133</ele>
        <time>2022-04-08T14:24:17Z</time>
      </trkpt>
      <trkpt lat="43.48391" lon="6.40883">
        <ele>133</ele>
        <time>2022-04-08T14:24:18Z</time>
      </trkpt>
      <trkpt lat="43.48392" lon="6.40882">
        <ele>133</ele>
        <time>2022-04-08T14:24:19Z</time>
      </trkpt>
      <trkpt lat="43.48393" lon="6.40881">
        <ele>133</ele>
        <time>2022-04-08T14:24:20Z</time>
      </trkpt>
      <trkpt lat="43.48393" lon="6.4088">
        <ele>133</ele>
        <time>2022-04-08T14:24:21Z</time>
      </trkpt>
      <trkpt lat="43.48392" lon="6.40878">
        <ele>133</ele>
        <time>2022-04-08T14:24:22Z</time>
      </trkpt>
      <trkpt lat="43.48392" lon="6.40877">
        <ele>133</ele>
        <time>2022-04-08T14:24:23Z</time>
      </trkpt>
      <trkpt lat="43.48392" lon="6.40876">
        <ele>134</ele>
        <time>2022-04-08T14:24:24Z</time>
      </trkpt>
      <trkpt lat="43.48392" lon="6.40875">
        <ele>134</ele>
        <time>2022-04-08T14:24:25Z</time>
      </trkpt>
      <trkpt lat="43.48393" lon="6.40875">
        <ele>134</ele>
        <time>2022-04-08T14:24:26Z</time>
      </trkpt>
      <trkpt lat="43.48393" lon="6.40874">
        <ele>134</ele>
        <time>2022-04-08T14:24:27Z</time>
      </trkpt>
      <trkpt lat="43.48394" lon="6.40874">
        <ele>134</ele>
        <time>2022-04-08T14:24:28Z</time>
      </trkpt>
      <trkpt lat="43.48395" lon="6.40873">
        <ele>134</ele>
        <time>2022-04-08T14:24:29Z</time>
      </trkpt>
      <trkpt lat="43.48396" lon="6.40873">
        <ele>134</ele>
        <time>2022-04-08T14:24:30Z</time>
      </trkpt>
      <trkpt lat="43.48397" lon="6.40873">
        <ele>134</ele>
        <time>2022-04-08T14:24:31Z</time>
      </trkpt>
      <trkpt lat="43.48398" lon="6.40872">
        <ele>134</ele>
        <time>2022-04-08T14:24:32Z</time>
      </trkpt>
      <trkpt lat="43.48398" lon="6.40871">
        <ele>134</ele>
        <time>2022-04-08T14:24:33Z</time>
      </trkpt>
      <trkpt lat="43.48399" lon="6.4087">
        <ele>134</ele>
        <time>2022-04-08T14:24:34Z</time>
      </trkpt>
      <trkpt lat="43.484" lon="6.40869">
        <ele>134</ele>
        <time>2022-04-08T14:24:35Z</time>
      </trkpt>
      <trkpt lat="43.48401" lon="6.40868">
        <ele>134</ele>
        <time>2022-04-08T14:24:36Z</time>
      </trkpt>
      <trkpt lat="43.48401" lon="6.40867">
        <ele>134</ele>
        <time>2022-04-08T14:24:37Z</time>
      </trkpt>
      <trkpt lat="43.48402" lon="6.40866">
        <ele>134</ele>
        <time>2022-04-08T14:24:38Z</time>
      </trkpt>
      <trkpt lat="43.48402" lon="6.40865">
        <ele>134</ele>
        <time>2022-04-08T14:24:39Z</time>
      </trkpt>
      <trkpt lat="43.48402" lon="6.40864">
        <ele>135</ele>
        <time>2022-04-08T14:24:40Z</time>
      </trkpt>
      <trkpt lat="43.48402" lon="6.40863">
        <ele>135</ele>
        <time>2022-04-08T14:24:41Z</time>
      </trkpt>
      <trkpt lat="43.48402" lon="6.40862">
        <ele>135</ele>
        <time>2022-04-08T14:24:42Z</time>
      </trkpt>
      <trkpt lat="43.48403" lon="6.40861">
        <ele>135</ele>
        <time>2022-04-08T14:24:43Z</time>
      </trkpt>
      <trkpt lat="43.48403" lon="6.40861">
        <ele>135</ele>
        <time>2022-04-08T14:24:44Z</time>
      </trkpt>
      <trkpt lat="43.48404" lon="6.4086">
        <ele>135</ele>
        <time>2022-04-08T14:24:45Z</time>
      </trkpt>
      <trkpt lat="43.48404" lon="6.4086">
        <ele>135</ele>
        <time>2022-04-08T14:24:46Z</time>
      </trkpt>
      <trkpt lat="43.48405" lon="6.40859">
        <ele>135</ele>
        <time>2022-04-08T14:24:47Z</time>
      </trkpt>
      <trkpt lat="43.48405" lon="6.40858">
        <ele>135</ele>
        <time>2022-04-08T14:24:48Z</time>
      </trkpt>
      <trkpt lat="43.48406" lon="6.40857">
        <ele>135</ele>
        <time>2022-04-08T14:24:49Z</time>
      </trkpt>
      <trkpt lat="43.48407" lon="6.40856">
        <ele>136</ele>
        <time>2022-04-08T14:24:50Z</time>
      </trkpt>
      <trkpt lat="43.48408" lon="6.40855">
        <ele>136</ele>
        <time>2022-04-08T14:24:51Z</time>
      </trkpt>
      <trkpt lat="43.48409" lon="6.40854">
        <ele>136</ele>
        <time>2022-04-08T14:24:52Z</time>
      </trkpt>
      <trkpt lat="43.4841" lon="6.40853">
        <ele>136</ele>
        <time>2022-04-08T14:24:53Z</time>
      </trkpt>
      <trkpt lat="43.48411" lon="6.40852">
        <ele>136</ele>
        <time>2022-04-08T14:24:54Z</time>
      </trkpt>
      <trkpt lat="43.48412" lon="6.40851">
        <ele>136</ele>
        <time>2022-04-08T14:24:55Z</time>
      </trkpt>
      <trkpt lat="43.48413" lon="6.4085">
        <ele>137</ele>
        <time>2022-04-08T14:24:56Z</time>
      </trkpt>
      <trkpt lat="43.48415" lon="6.40849">
        <ele>137</ele>
        <time>2022-04-08T14:24:57Z</time>
      </trkpt>
      <trkpt lat="43.48416" lon="6.40848">
        <ele>137</ele>
        <time>2022-04-08T14:24:58Z</time>
      </trkpt>
      <trkpt lat="43.48417" lon="6.40847">
        <ele>137</ele>
        <time>2022-04-08T14:24:59Z</time>
      </trkpt>
      <trkpt lat="43.48418" lon="6.40846">
        <ele>137</ele>
        <time>2022-04-08T14:25:00Z</time>
      </trkpt>
      <trkpt lat="43.48419" lon="6.40845">
        <ele>137</ele>
        <time>2022-04-08T14:25:01Z</time>
      </trkpt>
      <trkpt lat="43.48419" lon="6.40844">
        <ele>137</ele>
        <time>2022-04-08T14:25:02Z</time>
      </trkpt>
      <trkpt lat="43.4842" lon="6.40843">
        <ele>138</ele>
        <time>2022-04-08T14:25:03Z</time>
      </trkpt>
      <trkpt lat="43.48421" lon="6.40842">
        <ele>138</ele>
        <time>2022-04-08T14:25:04Z</time>
      </trkpt>
      <trkpt lat="43.48422" lon="6.40841">
        <ele>138</ele>
        <time>2022-04-08T14:25:05Z</time>
      </trkpt>
      <trkpt lat="43.48423" lon="6.4084">
        <ele>138</ele>
        <time>2022-04-08T14:25:06Z</time>
      </trkpt>
      <trkpt lat="43.48424" lon="6.40839">
        <ele>138</ele>
        <time>2022-04-08T14:25:07Z</time>
      </trkpt>
      <trkpt lat="43.48424" lon="6.40838">
        <ele>139</ele>
        <time>2022-04-08T14:25:08Z</time>
      </trkpt>
      <trkpt lat="43.48425" lon="6.40837">
        <ele>139</ele>
        <time>2022-04-08T14:25:09Z</time>
      </trkpt>
      <trkpt lat="43.48425" lon="6.40836">
        <ele>139</ele>
        <time>2022-04-08T14:25:10Z</time>
      </trkpt>
      <trkpt lat="43.48426" lon="6.40835">
        <ele>139</ele>
        <time>2022-04-08T14:25:11Z</time>
      </trkpt>
      <trkpt lat="43.48426" lon="6.40833">
        <ele>139</ele>
        <time>2022-04-08T14:25:12Z</time>
      </trkpt>
      <trkpt lat="43.48427" lon="6.40832">
        <ele>139</ele>
        <time>2022-04-08T14:25:13Z</time>
      </trkpt>
      <trkpt lat="43.48427" lon="6.40831">
        <ele>139</ele>
        <time>2022-04-08T14:25:14Z</time>
      </trkpt>
      <trkpt lat="43.48428" lon="6.4083">
        <ele>140</ele>
        <time>2022-04-08T14:25:15Z</time>
      </trkpt>
      <trkpt lat="43.48428" lon="6.40829">
        <ele>140</ele>
        <time>2022-04-08T14:25:16Z</time>
      </trkpt>
      <trkpt lat="43.48429" lon="6.40828">
        <ele>140</ele>
        <time>2022-04-08T14:25:17Z</time>
      </trkpt>
      <trkpt lat="43.48429" lon="6.40827">
        <ele>140</ele>
        <time>2022-04-08T14:25:18Z</time>
      </trkpt>
      <trkpt lat="43.48429" lon="6.40826">
        <ele>140</ele>
        <time>2022-04-08T14:25:19Z</time>
      </trkpt>
      <trkpt lat="43.4843" lon="6.40826">
        <ele>140</ele>
        <time>2022-04-08T14:25:20Z</time>
      </trkpt>
      <trkpt lat="43.48432" lon="6.40825">
        <ele>140</ele>
        <time>2022-04-08T14:25:21Z</time>
      </trkpt>
      <trkpt lat="43.48432" lon="6.40825">
        <ele>140</ele>
        <time>2022-04-08T14:25:22Z</time>
      </trkpt>
      <trkpt lat="43.48433" lon="6.40824">
        <ele>140</ele>
        <time>2022-04-08T14:25:23Z</time>
      </trkpt>
      <trkpt lat="43.48434" lon="6.40824">
        <ele>140</ele>
        <time>2022-04-08T14:25:24Z</time>
      </trkpt>
      <trkpt lat="43.48435" lon="6.40823">
        <ele>140</ele>
        <time>2022-04-08T14:25:25Z</time>
      </trkpt>
      <trkpt lat="43.48436" lon="6.40822">
        <ele>140</ele>
        <time>2022-04-08T14:25:26Z</time>
      </trkpt>
      <trkpt lat="43.48436" lon="6.40821">
        <ele>140</ele>
        <time>2022-04-08T14:25:27Z</time>
      </trkpt>
      <trkpt lat="43.48436" lon="6.4082">
        <ele>140</ele>
        <time>2022-04-08T14:25:28Z</time>
      </trkpt>
      <trkpt lat="43.48437" lon="6.40819">
        <ele>141</ele>
        <time>2022-04-08T14:25:29Z</time>
      </trkpt>
      <trkpt lat="43.48437" lon="6.40818">
        <ele>141</ele>
        <time>2022-04-08T14:25:30Z</time>
      </trkpt>
      <trkpt lat="43.48437" lon="6.40817">
        <ele>141</ele>
        <time>2022-04-08T14:25:31Z</time>
      </trkpt>
      <trkpt lat="43.48438" lon="6.40815">
        <ele>141</ele>
        <time>2022-04-08T14:25:32Z</time>
      </trkpt>
      <trkpt lat="43.48438" lon="6.40815">
        <ele>141</ele>
        <time>2022-04-08T14:25:33Z</time>
      </trkpt>
      <trkpt lat="43.48438" lon="6.40814">
        <ele>141</ele>
        <time>2022-04-08T14:25:34Z</time>
      </trkpt>
      <trkpt lat="43.48439" lon="6.40813">
        <ele>141</ele>
        <time>2022-04-08T14:25:35Z</time>
      </trkpt>
      <trkpt lat="43.48439" lon="6.40811">
        <ele>141</ele>
        <time>2022-04-08T14:25:36Z</time>
      </trkpt>
      <trkpt lat="43.48439" lon="6.4081">
        <ele>142</ele>
        <time>2022-04-08T14:25:37Z</time>
      </trkpt>
      <trkpt lat="43.48439" lon="6.4081">
        <ele>142</ele>
        <time>2022-04-08T14:25:38Z</time>
      </trkpt>
      <trkpt lat="43.48439" lon="6.40809">
        <ele>142</ele>
        <time>2022-04-08T14:25:39Z</time>
      </trkpt>
      <trkpt lat="43.48439" lon="6.40808">
        <ele>142</ele>
        <time>2022-04-08T14:25:40Z</time>
      </trkpt>
      <trkpt lat="43.4844" lon="6.40807">
        <ele>143</ele>
        <time>2022-04-08T14:25:41Z</time>
      </trkpt>
      <trkpt lat="43.4844" lon="6.40807">
        <ele>143</ele>
        <time>2022-04-08T14:25:42Z</time>
      </trkpt>
      <trkpt lat="43.4844" lon="6.40806">
        <ele>143</ele>
        <time>2022-04-08T14:25:43Z</time>
      </trkpt>
      <trkpt lat="43.4844" lon="6.40805">
        <ele>143</ele>
        <time>2022-04-08T14:25:44Z</time>
      </trkpt>
      <trkpt lat="43.48441" lon="6.40805">
        <ele>143</ele>
        <time>2022-04-08T14:25:45Z</time>
      </trkpt>
      <trkpt lat="43.48441" lon="6.40804">
        <ele>143</ele>
        <time>2022-04-08T14:25:46Z</time>
      </trkpt>
      <trkpt lat="43.48441" lon="6.40804">
        <ele>143</ele>
        <time>2022-04-08T14:25:47Z</time>
      </trkpt>
      <trkpt lat="43.48441" lon="6.40803">
        <ele>143</ele>
        <time>2022-04-08T14:25:48Z</time>
      </trkpt>
      <trkpt lat="43.48442" lon="6.40803">
        <ele>143</ele>
        <time>2022-04-08T14:25:49Z</time>
      </trkpt>
      <trkpt lat="43.48442" lon="6.40802">
        <ele>143</ele>
        <time>2022-04-08T14:25:50Z</time>
      </trkpt>
      <trkpt lat="43.48442" lon="6.40802">
        <ele>143</ele>
        <time>2022-04-08T14:25:51Z</time>
      </trkpt>
      <trkpt lat="43.48443" lon="6.40801">
        <ele>143</ele>
        <time>2022-04-08T14:25:52Z</time>
      </trkpt>
      <trkpt lat="43.48443" lon="6.40801">
        <ele>143</ele>
        <time>2022-04-08T14:25:53Z</time>
      </trkpt>
      <trkpt lat="43.48444" lon="6.408">
        <ele>143</ele>
        <time>2022-04-08T14:25:54Z</time>
      </trkpt>
      <trkpt lat="43.48444" lon="6.408">
        <ele>143</ele>
        <time>2022-04-08T14:25:55Z</time>
      </trkpt>
      <trkpt lat="43.48444" lon="6.40799">
        <ele>143</ele>
        <time>2022-04-08T14:25:56Z</time>
      </trkpt>
      <trkpt lat="43.48444" lon="6.40799">
        <ele>143</ele>
        <time>2022-04-08T14:25:57Z</time>
      </trkpt>
      <trkpt lat="43.48444" lon="6.40797">
        <ele>142</ele>
        <time>2022-04-08T14:25:58Z</time>
      </trkpt>
      <trkpt lat="43.48444" lon="6.40796">
        <ele>142</ele>
        <time>2022-04-08T14:25:59Z</time>
      </trkpt>
      <trkpt lat="43.48445" lon="6.40795">
        <ele>142</ele>
        <time>2022-04-08T14:26:00Z</time>
      </trkpt>
      <trkpt lat="43.48445" lon="6.40794">
        <ele>142</ele>
        <time>2022-04-08T14:26:01Z</time>
      </trkpt>
      <trkpt lat="43.48446" lon="6.40792">
        <ele>142</ele>
        <time>2022-04-08T14:26:02Z</time>
      </trkpt>
      <trkpt lat="43.48447" lon="6.40791">
        <ele>142</ele>
        <time>2022-04-08T14:26:03Z</time>
      </trkpt>
      <trkpt lat="43.48447" lon="6.40789">
        <ele>142</ele>
        <time>2022-04-08T14:26:04Z</time>
      </trkpt>
      <trkpt lat="43.48447" lon="6.40788">
        <ele>142</ele>
        <time>2022-04-08T14:26:05Z</time>
      </trkpt>
      <trkpt lat="43.48448" lon="6.40787">
        <ele>141</ele>
        <time>2022-04-08T14:26:06Z</time>
      </trkpt>
      <trkpt lat="43.48448" lon="6.40785">
        <ele>141</ele>
        <time>2022-04-08T14:26:07Z</time>
      </trkpt>
      <trkpt lat="43.48448" lon="6.40784">
        <ele>141</ele>
        <time>2022-04-08T14:26:08Z</time>
      </trkpt>
      <trkpt lat="43.48449" lon="6.40783">
        <ele>141</ele>
        <time>2022-04-08T14:26:09Z</time>
      </trkpt>
      <trkpt lat="43.48449" lon="6.40781">
        <ele>141</ele>
        <time>2022-04-08T14:26:10Z</time>
      </trkpt>
      <trkpt lat="43.4845" lon="6.40779">
        <ele>141</ele>
        <time>2022-04-08T14:26:11Z</time>
      </trkpt>
      <trkpt lat="43.48451" lon="6.40777">
        <ele>141</ele>
        <time>2022-04-08T14:26:12Z</time>
      </trkpt>
      <trkpt lat="43.48452" lon="6.40775">
        <ele>141</ele>
        <time>2022-04-08T14:26:13Z</time>
      </trkpt>
      <trkpt lat="43.48454" lon="6.40773">
        <ele>141</ele>
        <time>2022-04-08T14:26:14Z</time>
      </trkpt>
      <trkpt lat="43.48455" lon="6.40771">
        <ele>141</ele>
        <time>2022-04-08T14:26:15Z</time>
      </trkpt>
      <trkpt lat="43.48455" lon="6.4077">
        <ele>140</ele>
        <time>2022-04-08T14:26:16Z</time>
      </trkpt>
      <trkpt lat="43.48456" lon="6.40768">
        <ele>140</ele>
        <time>2022-04-08T14:26:17Z</time>
      </trkpt>
      <trkpt lat="43.48456" lon="6.40766">
        <ele>140</ele>
        <time>2022-04-08T14:26:18Z</time>
      </trkpt>
      <trkpt lat="43.48457" lon="6.40764">
        <ele>140</ele>
        <time>2022-04-08T14:26:19Z</time>
      </trkpt>
      <trkpt lat="43.48457" lon="6.40763">
        <ele>140</ele>
        <time>2022-04-08T14:26:20Z</time>
      </trkpt>
      <trkpt lat="43.48458" lon="6.40761">
        <ele>140</ele>
        <time>2022-04-08T14:26:21Z</time>
      </trkpt>
      <trkpt lat="43.48459" lon="6.40759">
        <ele>140</ele>
        <time>2022-04-08T14:26:22Z</time>
      </trkpt>
      <trkpt lat="43.4846" lon="6.40757">
        <ele>140</ele>
        <time>2022-04-08T14:26:23Z</time>
      </trkpt>
      <trkpt lat="43.4846" lon="6.40755">
        <ele>140</ele>
        <time>2022-04-08T14:26:24Z</time>
      </trkpt>
      <trkpt lat="43.4846" lon="6.40754">
        <ele>140</ele>
        <time>2022-04-08T14:26:25Z</time>
      </trkpt>
      <trkpt lat="43.4846" lon="6.40753">
        <ele>140</ele>
        <time>2022-04-08T14:26:26Z</time>
      </trkpt>
      <trkpt lat="43.4846" lon="6.40751">
        <ele>140</ele>
        <time>2022-04-08T14:26:27Z</time>
      </trkpt>
      <trkpt lat="43.4846" lon="6.4075">
        <ele>140</ele>
        <time>2022-04-08T14:26:28Z</time>
      </trkpt>
      <trkpt lat="43.48461" lon="6.40748">
        <ele>140</ele>
        <time>2022-04-08T14:26:29Z</time>
      </trkpt>
      <trkpt lat="43.48461" lon="6.40747">
        <ele>140</ele>
        <time>2022-04-08T14:26:30Z</time>
      </trkpt>
      <trkpt lat="43.48462" lon="6.40745">
        <ele>140</ele>
        <time>2022-04-08T14:26:31Z</time>
      </trkpt>
      <trkpt lat="43.48462" lon="6.40743">
        <ele>140</ele>
        <time>2022-04-08T14:26:32Z</time>
      </trkpt>
      <trkpt lat="43.48462" lon="6.40742">
        <ele>141</ele>
        <time>2022-04-08T14:26:33Z</time>
      </trkpt>
      <trkpt lat="43.48463" lon="6.40741">
        <ele>141</ele>
        <time>2022-04-08T14:26:34Z</time>
      </trkpt>
      <trkpt lat="43.48463" lon="6.4074">
        <ele>141</ele>
        <time>2022-04-08T14:26:35Z</time>
      </trkpt>
      <trkpt lat="43.48463" lon="6.40738">
        <ele>141</ele>
        <time>2022-04-08T14:26:36Z</time>
      </trkpt>
      <trkpt lat="43.48464" lon="6.40737">
        <ele>141</ele>
        <time>2022-04-08T14:26:37Z</time>
      </trkpt>
      <trkpt lat="43.48464" lon="6.40735">
        <ele>141</ele>
        <time>2022-04-08T14:26:38Z</time>
      </trkpt>
      <trkpt lat="43.48465" lon="6.40733">
        <ele>141</ele>
        <time>2022-04-08T14:26:39Z</time>
      </trkpt>
      <trkpt lat="43.48465" lon="6.40732">
        <ele>141</ele>
        <time>2022-04-08T14:26:40Z</time>
      </trkpt>
      <trkpt lat="43.48465" lon="6.4073">
        <ele>141</ele>
        <time>2022-04-08T14:26:41Z</time>
      </trkpt>
      <trkpt lat="43.48465" lon="6.40729">
        <ele>141</ele>
        <time>2022-04-08T14:26:42Z</time>
      </trkpt>
      <trkpt lat="43.48465" lon="6.40727">
        <ele>141</ele>
        <time>2022-04-08T14:26:43Z</time>
      </trkpt>
      <trkpt lat="43.48466" lon="6.40726">
        <ele>142</ele>
        <time>2022-04-08T14:26:44Z</time>
      </trkpt>
      <trkpt lat="43.48466" lon="6.40724">
        <ele>142</ele>
        <time>2022-04-08T14:26:45Z</time>
      </trkpt>
      <trkpt lat="43.48466" lon="6.40722">
        <ele>142</ele>
        <time>2022-04-08T14:26:46Z</time>
      </trkpt>
      <trkpt lat="43.48466" lon="6.40721">
        <ele>142</ele>
        <time>2022-04-08T14:26:47Z</time>
      </trkpt>
      <trkpt lat="43.48466" lon="6.40719">
        <ele>142</ele>
        <time>2022-04-08T14:26:48Z</time>
      </trkpt>
      <trkpt lat="43.48467" lon="6.40717">
        <ele>142</ele>
        <time>2022-04-08T14:26:49Z</time>
      </trkpt>
      <trkpt lat="43.48467" lon="6.40716">
        <ele>142</ele>
        <time>2022-04-08T14:26:50Z</time>
      </trkpt>
      <trkpt lat="43.48467" lon="6.40715">
        <ele>142</ele>
        <time>2022-04-08T14:26:51Z</time>
      </trkpt>
      <trkpt lat="43.48468" lon="6.40713">
        <ele>142</ele>
        <time>2022-04-08T14:26:52Z</time>
      </trkpt>
      <trkpt lat="43.48468" lon="6.40712">
        <ele>142</ele>
        <time>2022-04-08T14:26:53Z</time>
      </trkpt>
      <trkpt lat="43.48469" lon="6.4071">
        <ele>142</ele>
        <time>2022-04-08T14:26:54Z</time>
      </trkpt>
      <trkpt lat="43.48469" lon="6.40708">
        <ele>142</ele>
        <time>2022-04-08T14:26:55Z</time>
      </trkpt>
      <trkpt lat="43.4847" lon="6.40706">
        <ele>142</ele>
        <time>2022-04-08T14:26:56Z</time>
      </trkpt>
      <trkpt lat="43.4847" lon="6.40705">
        <ele>142</ele>
        <time>2022-04-08T14:26:57Z</time>
      </trkpt>
      <trkpt lat="43.4847" lon="6.40703">
        <ele>142</ele>
        <time>2022-04-08T14:26:58Z</time>
      </trkpt>
      <trkpt lat="43.4847" lon="6.40702">
        <ele>142</ele>
        <time>2022-04-08T14:26:59Z</time>
      </trkpt>
      <trkpt lat="43.4847" lon="6.407">
        <ele>142</ele>
        <time>2022-04-08T14:27:00Z</time>
      </trkpt>
      <trkpt lat="43.48471" lon="6.40699">
        <ele>143</ele>
        <time>2022-04-08T14:27:01Z</time>
      </trkpt>
      <trkpt lat="43.48471" lon="6.40697">
        <ele>143</ele>
        <time>2022-04-08T14:27:02Z</time>
      </trkpt>
      <trkpt lat="43.48471" lon="6.40696">
        <ele>143</ele>
        <time>2022-04-08T14:27:03Z</time>
      </trkpt>
      <trkpt lat="43.48472" lon="6.40694">
        <ele>143</ele>
        <time>2022-04-08T14:27:04Z</time>
      </trkpt>
      <trkpt lat="43.48472" lon="6.40693">
        <ele>143</ele>
        <time>2022-04-08T14:27:05Z</time>
      </trkpt>
      <trkpt lat="43.48472" lon="6.40692">
        <ele>143</ele>
        <time>2022-04-08T14:27:06Z</time>
      </trkpt>
      <trkpt lat="43.48472" lon="6.40691">
        <ele>143</ele>
        <time>2022-04-08T14:27:07Z</time>
      </trkpt>
      <trkpt lat="43.48471" lon="6.40689">
        <ele>143</ele>
        <time>2022-04-08T14:27:08Z</time>
      </trkpt>
      <trkpt lat="43.48471" lon="6.40688">
        <ele>143</ele>
        <time>2022-04-08T14:27:09Z</time>
      </trkpt>
      <trkpt lat="43.48471" lon="6.40686">
        <ele>143</ele>
        <time>2022-04-08T14:27:10Z</time>
      </trkpt>
      <trkpt lat="43.48471" lon="6.40685">
        <ele>143</ele>
        <time>2022-04-08T14:27:11Z</time>
      </trkpt>
      <trkpt lat="43.48471" lon="6.40683">
        <ele>143</ele>
        <time>2022-04-08T14:27:12Z</time>
      </trkpt>
      <trkpt lat="43.48471" lon="6.40681">
        <ele>143</ele>
        <time>2022-04-08T14:27:13Z</time>
      </trkpt>
      <trkpt lat="43.48471" lon="6.4068">
        <ele>143</ele>
        <time>2022-04-08T14:27:14Z</time>
      </trkpt>
      <trkpt lat="43.48471" lon="6.40678">
        <ele>143</ele>
        <time>2022-04-08T14:27:15Z</time>
      </trkpt>
      <trkpt lat="43.48471" lon="6.40677">
        <ele>143</ele>
        <time>2022-04-08T14:27:16Z</time>
      </trkpt>
      <trkpt lat="43.48471" lon="6.40676">
        <ele>143</ele>
        <time>2022-04-08T14:27:17Z</time>
      </trkpt>
      <trkpt lat="43.48471" lon="6.40674">
        <ele>143</ele>
        <time>2022-04-08T14:27:18Z</time>
      </trkpt>
      <trkpt lat="43.48471" lon="6.40672">
        <ele>142</ele>
        <time>2022-04-08T14:27:19Z</time>
      </trkpt>
      <trkpt lat="43.4847" lon="6.40671">
        <ele>142</ele>
        <time>2022-04-08T14:27:20Z</time>
      </trkpt>
      <trkpt lat="43.4847" lon="6.4067">
        <ele>142</ele>
        <time>2022-04-08T14:27:21Z</time>
      </trkpt>
      <trkpt lat="43.4847" lon="6.40668">
        <ele>142</ele>
        <time>2022-04-08T14:27:22Z</time>
      </trkpt>
      <trkpt lat="43.4847" lon="6.40666">
        <ele>142</ele>
        <time>2022-04-08T14:27:23Z</time>
      </trkpt>
      <trkpt lat="43.4847" lon="6.40664">
        <ele>142</ele>
        <time>2022-04-08T14:27:24Z</time>
      </trkpt>
      <trkpt lat="43.4847" lon="6.40663">
        <ele>143</ele>
        <time>2022-04-08T14:27:25Z</time>
      </trkpt>
      <trkpt lat="43.4847" lon="6.40661">
        <ele>143</ele>
        <time>2022-04-08T14:27:26Z</time>
      </trkpt>
      <trkpt lat="43.4847" lon="6.4066">
        <ele>143</ele>
        <time>2022-04-08T14:27:27Z</time>
      </trkpt>
      <trkpt lat="43.48469" lon="6.40658">
        <ele>143</ele>
        <time>2022-04-08T14:27:28Z</time>
      </trkpt>
      <trkpt lat="43.48469" lon="6.40657">
        <ele>143</ele>
        <time>2022-04-08T14:27:29Z</time>
      </trkpt>
      <trkpt lat="43.48469" lon="6.40655">
        <ele>143</ele>
        <time>2022-04-08T14:27:30Z</time>
      </trkpt>
      <trkpt lat="43.48468" lon="6.40654">
        <ele>143</ele>
        <time>2022-04-08T14:27:31Z</time>
      </trkpt>
      <trkpt lat="43.48468" lon="6.40652">
        <ele>143</ele>
        <time>2022-04-08T14:27:32Z</time>
      </trkpt>
      <trkpt lat="43.48468" lon="6.4065">
        <ele>143</ele>
        <time>2022-04-08T14:27:33Z</time>
      </trkpt>
      <trkpt lat="43.48469" lon="6.40649">
        <ele>143</ele>
        <time>2022-04-08T14:27:34Z</time>
      </trkpt>
      <trkpt lat="43.48469" lon="6.40647">
        <ele>143</ele>
        <time>2022-04-08T14:27:35Z</time>
      </trkpt>
      <trkpt lat="43.48469" lon="6.40645">
        <ele>143</ele>
        <time>2022-04-08T14:27:36Z</time>
      </trkpt>
      <trkpt lat="43.48469" lon="6.40644">
        <ele>144</ele>
        <time>2022-04-08T14:27:37Z</time>
      </trkpt>
      <trkpt lat="43.48469" lon="6.40642">
        <ele>144</ele>
        <time>2022-04-08T14:27:38Z</time>
      </trkpt>
      <trkpt lat="43.48469" lon="6.40641">
        <ele>144</ele>
        <time>2022-04-08T14:27:39Z</time>
      </trkpt>
      <trkpt lat="43.48468" lon="6.40639">
        <ele>144</ele>
        <time>2022-04-08T14:27:40Z</time>
      </trkpt>
      <trkpt lat="43.48468" lon="6.40638">
        <ele>144</ele>
        <time>2022-04-08T14:27:41Z</time>
      </trkpt>
      <trkpt lat="43.48469" lon="6.40636">
        <ele>144</ele>
        <time>2022-04-08T14:27:42Z</time>
      </trkpt>
      <trkpt lat="43.48469" lon="6.40634">
        <ele>144</ele>
        <time>2022-04-08T14:27:43Z</time>
      </trkpt>
      <trkpt lat="43.48469" lon="6.40632">
        <ele>144</ele>
        <time>2022-04-08T14:27:44Z</time>
      </trkpt>
      <trkpt lat="43.48469" lon="6.40631">
        <ele>144</ele>
        <time>2022-04-08T14:27:45Z</time>
      </trkpt>
      <trkpt lat="43.48469" lon="6.40629">
        <ele>144</ele>
        <time>2022-04-08T14:27:46Z</time>
      </trkpt>
      <trkpt lat="43.48469" lon="6.40627">
        <ele>143</ele>
        <time>2022-04-08T14:27:47Z</time>
      </trkpt>
      <trkpt lat="43.48469" lon="6.40625">
        <ele>143</ele>
        <time>2022-04-08T14:27:48Z</time>
      </trkpt>
      <trkpt lat="43.4847" lon="6.40624">
        <ele>143</ele>
        <time>2022-04-08T14:27:49Z</time>
      </trkpt>
      <trkpt lat="43.48469" lon="6.40623">
        <ele>143</ele>
        <time>2022-04-08T14:27:50Z</time>
      </trkpt>
      <trkpt lat="43.48469" lon="6.40621">
        <ele>143</ele>
        <time>2022-04-08T14:27:51Z</time>
      </trkpt>
      <trkpt lat="43.48469" lon="6.4062">
        <ele>143</ele>
        <time>2022-04-08T14:27:52Z</time>
      </trkpt>
      <trkpt lat="43.48469" lon="6.40618">
        <ele>143</ele>
        <time>2022-04-08T14:27:53Z</time>
      </trkpt>
      <trkpt lat="43.48469" lon="6.40617">
        <ele>143</ele>
        <time>2022-04-08T14:27:54Z</time>
      </trkpt>
      <trkpt lat="43.4847" lon="6.40616">
        <ele>143</ele>
        <time>2022-04-08T14:27:55Z</time>
      </trkpt>
      <trkpt lat="43.4847" lon="6.40614">
        <ele>143</ele>
        <time>2022-04-08T14:27:56Z</time>
      </trkpt>
      <trkpt lat="43.4847" lon="6.40613">
        <ele>143</ele>
        <time>2022-04-08T14:27:57Z</time>
      </trkpt>
      <trkpt lat="43.4847" lon="6.40611">
        <ele>143</ele>
        <time>2022-04-08T14:27:58Z</time>
      </trkpt>
      <trkpt lat="43.4847" lon="6.40609">
        <ele>143</ele>
        <time>2022-04-08T14:27:59Z</time>
      </trkpt>
      <trkpt lat="43.4847" lon="6.40608">
        <ele>143</ele>
        <time>2022-04-08T14:28:00Z</time>
      </trkpt>
      <trkpt lat="43.4847" lon="6.40607">
        <ele>143</ele>
        <time>2022-04-08T14:28:01Z</time>
      </trkpt>
      <trkpt lat="43.48469" lon="6.40606">
        <ele>143</ele>
        <time>2022-04-08T14:28:02Z</time>
      </trkpt>
      <trkpt lat="43.48469" lon="6.40605">
        <ele>142</ele>
        <time>2022-04-08T14:28:03Z</time>
      </trkpt>
      <trkpt lat="43.48469" lon="6.40604">
        <ele>142</ele>
        <time>2022-04-08T14:28:04Z</time>
      </trkpt>
      <trkpt lat="43.48469" lon="6.40603">
        <ele>142</ele>
        <time>2022-04-08T14:28:05Z</time>
      </trkpt>
      <trkpt lat="43.48469" lon="6.40602">
        <ele>142</ele>
        <time>2022-04-08T14:28:06Z</time>
      </trkpt>
      <trkpt lat="43.48469" lon="6.40601">
        <ele>142</ele>
        <time>2022-04-08T14:28:07Z</time>
      </trkpt>
      <trkpt lat="43.48469" lon="6.40601">
        <ele>142</ele>
        <time>2022-04-08T14:28:08Z</time>
      </trkpt>
      <trkpt lat="43.48469" lon="6.406">
        <ele>142</ele>
        <time>2022-04-08T14:28:09Z</time>
      </trkpt>
      <trkpt lat="43.48469" lon="6.40599">
        <ele>142</ele>
        <time>2022-04-08T14:28:10Z</time>
      </trkpt>
      <trkpt lat="43.48469" lon="6.40599">
        <ele>142</ele>
        <time>2022-04-08T14:28:11Z</time>
      </trkpt>
      <trkpt lat="43.4847" lon="6.40598">
        <ele>142</ele>
        <time>2022-04-08T14:28:12Z</time>
      </trkpt>
      <trkpt lat="43.4847" lon="6.40597">
        <ele>142</ele>
        <time>2022-04-08T14:28:13Z</time>
      </trkpt>
      <trkpt lat="43.4847" lon="6.40596">
        <ele>143</ele>
        <time>2022-04-08T14:28:14Z</time>
      </trkpt>
      <trkpt lat="43.4847" lon="6.40595">
        <ele>143</ele>
        <time>2022-04-08T14:28:15Z</time>
      </trkpt>
      <trkpt lat="43.4847" lon="6.40593">
        <ele>142</ele>
        <time>2022-04-08T14:28:16Z</time>
      </trkpt>
      <trkpt lat="43.48469" lon="6.40592">
        <ele>142</ele>
        <time>2022-04-08T14:28:17Z</time>
      </trkpt>
      <trkpt lat="43.4847" lon="6.40591">
        <ele>142</ele>
        <time>2022-04-08T14:28:18Z</time>
      </trkpt>
      <trkpt lat="43.4847" lon="6.40589">
        <ele>142</ele>
        <time>2022-04-08T14:28:19Z</time>
      </trkpt>
      <trkpt lat="43.4847" lon="6.40588">
        <ele>142</ele>
        <time>2022-04-08T14:28:20Z</time>
      </trkpt>
      <trkpt lat="43.4847" lon="6.40587">
        <ele>142</ele>
        <time>2022-04-08T14:28:21Z</time>
      </trkpt>
      <trkpt lat="43.4847" lon="6.40586">
        <ele>142</ele>
        <time>2022-04-08T14:28:22Z</time>
      </trkpt>
      <trkpt lat="43.4847" lon="6.40584">
        <ele>142</ele>
        <time>2022-04-08T14:28:23Z</time>
      </trkpt>
      <trkpt lat="43.4847" lon="6.40583">
        <ele>142</ele>
        <time>2022-04-08T14:28:24Z</time>
      </trkpt>
      <trkpt lat="43.4847" lon="6.40581">
        <ele>142</ele>
        <time>2022-04-08T14:28:25Z</time>
      </trkpt>
      <trkpt lat="43.4847" lon="6.40579">
        <ele>141</ele>
        <time>2022-04-08T14:28:26Z</time>
      </trkpt>
      <trkpt lat="43.4847" lon="6.40577">
        <ele>141</ele>
        <time>2022-04-08T14:28:27Z</time>
      </trkpt>
      <trkpt lat="43.48469" lon="6.40575">
        <ele>141</ele>
        <time>2022-04-08T14:28:28Z</time>
      </trkpt>
      <trkpt lat="43.48469" lon="6.40573">
        <ele>141</ele>
        <time>2022-04-08T14:28:29Z</time>
      </trkpt>
      <trkpt lat="43.48469" lon="6.40572">
        <ele>141</ele>
        <time>2022-04-08T14:28:30Z</time>
      </trkpt>
      <trkpt lat="43.48469" lon="6.40571">
        <ele>141</ele>
        <time>2022-04-08T14:28:31Z</time>
      </trkpt>
      <trkpt lat="43.4847" lon="6.4057">
        <ele>141</ele>
        <time>2022-04-08T14:28:32Z</time>
      </trkpt>
      <trkpt lat="43.4847" lon="6.40569">
        <ele>141</ele>
        <time>2022-04-08T14:28:33Z</time>
      </trkpt>
      <trkpt lat="43.4847" lon="6.40567">
        <ele>141</ele>
        <time>2022-04-08T14:28:34Z</time>
      </trkpt>
      <trkpt lat="43.4847" lon="6.40566">
        <ele>141</ele>
        <time>2022-04-08T14:28:35Z</time>
      </trkpt>
      <trkpt lat="43.48471" lon="6.40564">
        <ele>141</ele>
        <time>2022-04-08T14:28:36Z</time>
      </trkpt>
      <trkpt lat="43.48471" lon="6.40562">
        <ele>140</ele>
        <time>2022-04-08T14:28:37Z</time>
      </trkpt>
      <trkpt lat="43.48471" lon="6.4056">
        <ele>140</ele>
        <time>2022-04-08T14:28:38Z</time>
      </trkpt>
      <trkpt lat="43.48471" lon="6.40559">
        <ele>140</ele>
        <time>2022-04-08T14:28:39Z</time>
      </trkpt>
      <trkpt lat="43.48471" lon="6.40557">
        <ele>140</ele>
        <time>2022-04-08T14:28:40Z</time>
      </trkpt>
      <trkpt lat="43.48471" lon="6.40555">
        <ele>140</ele>
        <time>2022-04-08T14:28:41Z</time>
      </trkpt>
      <trkpt lat="43.48471" lon="6.40553">
        <ele>139</ele>
        <time>2022-04-08T14:28:42Z</time>
      </trkpt>
      <trkpt lat="43.48471" lon="6.40552">
        <ele>139</ele>
        <time>2022-04-08T14:28:43Z</time>
      </trkpt>
      <trkpt lat="43.48471" lon="6.4055">
        <ele>139</ele>
        <time>2022-04-08T14:28:44Z</time>
      </trkpt>
      <trkpt lat="43.48471" lon="6.40549">
        <ele>139</ele>
        <time>2022-04-08T14:28:45Z</time>
      </trkpt>
      <trkpt lat="43.48471" lon="6.40547">
        <ele>139</ele>
        <time>2022-04-08T14:28:46Z</time>
      </trkpt>
      <trkpt lat="43.48472" lon="6.40545">
        <ele>139</ele>
        <time>2022-04-08T14:28:47Z</time>
      </trkpt>
      <trkpt lat="43.48472" lon="6.40544">
        <ele>139</ele>
        <time>2022-04-08T14:28:48Z</time>
      </trkpt>
      <trkpt lat="43.48472" lon="6.40542">
        <ele>139</ele>
        <time>2022-04-08T14:28:49Z</time>
      </trkpt>
      <trkpt lat="43.48473" lon="6.40541">
        <ele>139</ele>
        <time>2022-04-08T14:28:50Z</time>
      </trkpt>
      <trkpt lat="43.48473" lon="6.40539">
        <ele>139</ele>
        <time>2022-04-08T14:28:51Z</time>
      </trkpt>
      <trkpt lat="43.48473" lon="6.40538">
        <ele>139</ele>
        <time>2022-04-08T14:28:52Z</time>
      </trkpt>
      <trkpt lat="43.48473" lon="6.40536">
        <ele>139</ele>
        <time>2022-04-08T14:28:53Z</time>
      </trkpt>
      <trkpt lat="43.48473" lon="6.40535">
        <ele>139</ele>
        <time>2022-04-08T14:28:54Z</time>
      </trkpt>
      <trkpt lat="43.48473" lon="6.40533">
        <ele>139</ele>
        <time>2022-04-08T14:28:55Z</time>
      </trkpt>
      <trkpt lat="43.48473" lon="6.40531">
        <ele>139</ele>
        <time>2022-04-08T14:28:56Z</time>
      </trkpt>
      <trkpt lat="43.48473" lon="6.40529">
        <ele>139</ele>
        <time>2022-04-08T14:28:57Z</time>
      </trkpt>
      <trkpt lat="43.48473" lon="6.40528">
        <ele>139</ele>
        <time>2022-04-08T14:28:58Z</time>
      </trkpt>
      <trkpt lat="43.48473" lon="6.40526">
        <ele>139</ele>
        <time>2022-04-08T14:28:59Z</time>
      </trkpt>
      <trkpt lat="43.48473" lon="6.40524">
        <ele>139</ele>
        <time>2022-04-08T14:29:00Z</time>
      </trkpt>
      <trkpt lat="43.48473" lon="6.40522">
        <ele>139</ele>
        <time>2022-04-08T14:29:01Z</time>
      </trkpt>
      <trkpt lat="43.48473" lon="6.4052">
        <ele>139</ele>
        <time>2022-04-08T14:29:02Z</time>
      </trkpt>
      <trkpt lat="43.48472" lon="6.40519">
        <ele>139</ele>
        <time>2022-04-08T14:29:03Z</time>
      </trkpt>
      <trkpt lat="43.48472" lon="6.40517">
        <ele>138</ele>
        <time>2022-04-08T14:29:04Z</time>
      </trkpt>
      <trkpt lat="43.48472" lon="6.40516">
        <ele>138</ele>
        <time>2022-04-08T14:29:05Z</time>
      </trkpt>
      <trkpt lat="43.48472" lon="6.40514">
        <ele>138</ele>
        <time>2022-04-08T14:29:06Z</time>
      </trkpt>
      <trkpt lat="43.48472" lon="6.40512">
        <ele>138</ele>
        <time>2022-04-08T14:29:07Z</time>
      </trkpt>
      <trkpt lat="43.48472" lon="6.40511">
        <ele>138</ele>
        <time>2022-04-08T14:29:08Z</time>
      </trkpt>
      <trkpt lat="43.48472" lon="6.4051">
        <ele>138</ele>
        <time>2022-04-08T14:29:09Z</time>
      </trkpt>
      <trkpt lat="43.48473" lon="6.40508">
        <ele>137</ele>
        <time>2022-04-08T14:29:10Z</time>
      </trkpt>
      <trkpt lat="43.48473" lon="6.40507">
        <ele>136</ele>
        <time>2022-04-08T14:29:11Z</time>
      </trkpt>
      <trkpt lat="43.48472" lon="6.40505">
        <ele>136</ele>
        <time>2022-04-08T14:29:12Z</time>
      </trkpt>
      <trkpt lat="43.48473" lon="6.40503">
        <ele>136</ele>
        <time>2022-04-08T14:29:13Z</time>
      </trkpt>
      <trkpt lat="43.48472" lon="6.40501">
        <ele>136</ele>
        <time>2022-04-08T14:29:14Z</time>
      </trkpt>
      <trkpt lat="43.48472" lon="6.405">
        <ele>136</ele>
        <time>2022-04-08T14:29:15Z</time>
      </trkpt>
      <trkpt lat="43.48473" lon="6.40499">
        <ele>135</ele>
        <time>2022-04-08T14:29:16Z</time>
      </trkpt>
      <trkpt lat="43.48473" lon="6.40498">
        <ele>135</ele>
        <time>2022-04-08T14:29:17Z</time>
      </trkpt>
      <trkpt lat="43.48473" lon="6.40497">
        <ele>135</ele>
        <time>2022-04-08T14:29:18Z</time>
      </trkpt>
      <trkpt lat="43.48473" lon="6.40496">
        <ele>135</ele>
        <time>2022-04-08T14:29:19Z</time>
      </trkpt>
      <trkpt lat="43.48474" lon="6.40495">
        <ele>135</ele>
        <time>2022-04-08T14:29:20Z</time>
      </trkpt>
      <trkpt lat="43.48474" lon="6.40493">
        <ele>135</ele>
        <time>2022-04-08T14:29:21Z</time>
      </trkpt>
      <trkpt lat="43.48474" lon="6.40492">
        <ele>134</ele>
        <time>2022-04-08T14:29:22Z</time>
      </trkpt>
      <trkpt lat="43.48474" lon="6.40492">
        <ele>134</ele>
        <time>2022-04-08T14:29:23Z</time>
      </trkpt>
      <trkpt lat="43.48474" lon="6.40491">
        <ele>133</ele>
        <time>2022-04-08T14:29:24Z</time>
      </trkpt>
      <trkpt lat="43.48475" lon="6.40489">
        <ele>133</ele>
        <time>2022-04-08T14:29:25Z</time>
      </trkpt>
      <trkpt lat="43.48475" lon="6.40488">
        <ele>133</ele>
        <time>2022-04-08T14:29:26Z</time>
      </trkpt>
      <trkpt lat="43.48475" lon="6.40487">
        <ele>133</ele>
        <time>2022-04-08T14:29:27Z</time>
      </trkpt>
      <trkpt lat="43.48475" lon="6.40485">
        <ele>133</ele>
        <time>2022-04-08T14:29:28Z</time>
      </trkpt>
      <trkpt lat="43.48475" lon="6.40484">
        <ele>133</ele>
        <time>2022-04-08T14:29:29Z</time>
      </trkpt>
      <trkpt lat="43.48475" lon="6.40482">
        <ele>133</ele>
        <time>2022-04-08T14:29:30Z</time>
      </trkpt>
      <trkpt lat="43.48475" lon="6.40481">
        <ele>133</ele>
        <time>2022-04-08T14:29:31Z</time>
      </trkpt>
      <trkpt lat="43.48476" lon="6.40479">
        <ele>133</ele>
        <time>2022-04-08T14:29:32Z</time>
      </trkpt>
      <trkpt lat="43.48476" lon="6.40478">
        <ele>133</ele>
        <time>2022-04-08T14:29:33Z</time>
      </trkpt>
      <trkpt lat="43.48476" lon="6.40476">
        <ele>133</ele>
        <time>2022-04-08T14:29:34Z</time>
      </trkpt>
      <trkpt lat="43.48477" lon="6.40474">
        <ele>133</ele>
        <time>2022-04-08T14:29:35Z</time>
      </trkpt>
      <trkpt lat="43.48477" lon="6.40472">
        <ele>133</ele>
        <time>2022-04-08T14:29:36Z</time>
      </trkpt>
      <trkpt lat="43.48477" lon="6.40471">
        <ele>134</ele>
        <time>2022-04-08T14:29:37Z</time>
      </trkpt>
      <trkpt lat="43.48478" lon="6.40469">
        <ele>134</ele>
        <time>2022-04-08T14:29:38Z</time>
      </trkpt>
      <trkpt lat="43.48478" lon="6.40467">
        <ele>134</ele>
        <time>2022-04-08T14:29:39Z</time>
      </trkpt>
      <trkpt lat="43.48479" lon="6.40466">
        <ele>134</ele>
        <time>2022-04-08T14:29:40Z</time>
      </trkpt>
      <trkpt lat="43.48479" lon="6.40464">
        <ele>134</ele>
        <time>2022-04-08T14:29:41Z</time>
      </trkpt>
      <trkpt lat="43.4848" lon="6.40463">
        <ele>134</ele>
        <time>2022-04-08T14:29:42Z</time>
      </trkpt>
      <trkpt lat="43.4848" lon="6.40461">
        <ele>134</ele>
        <time>2022-04-08T14:29:43Z</time>
      </trkpt>
      <trkpt lat="43.48481" lon="6.4046">
        <ele>134</ele>
        <time>2022-04-08T14:29:44Z</time>
      </trkpt>
      <trkpt lat="43.48481" lon="6.40459">
        <ele>134</ele>
        <time>2022-04-08T14:29:45Z</time>
      </trkpt>
      <trkpt lat="43.48481" lon="6.40457">
        <ele>134</ele>
        <time>2022-04-08T14:29:46Z</time>
      </trkpt>
      <trkpt lat="43.48482" lon="6.40456">
        <ele>134</ele>
        <time>2022-04-08T14:29:47Z</time>
      </trkpt>
      <trkpt lat="43.48482" lon="6.40455">
        <ele>134</ele>
        <time>2022-04-08T14:29:48Z</time>
      </trkpt>
      <trkpt lat="43.48483" lon="6.40454">
        <ele>134</ele>
        <time>2022-04-08T14:29:49Z</time>
      </trkpt>
      <trkpt lat="43.48483" lon="6.40453">
        <ele>134</ele>
        <time>2022-04-08T14:29:50Z</time>
      </trkpt>
      <trkpt lat="43.48483" lon="6.40451">
        <ele>133</ele>
        <time>2022-04-08T14:29:51Z</time>
      </trkpt>
      <trkpt lat="43.48483" lon="6.4045">
        <ele>133</ele>
        <time>2022-04-08T14:29:52Z</time>
      </trkpt>
      <trkpt lat="43.48483" lon="6.40448">
        <ele>133</ele>
        <time>2022-04-08T14:29:53Z</time>
      </trkpt>
      <trkpt lat="43.48483" lon="6.40447">
        <ele>133</ele>
        <time>2022-04-08T14:29:54Z</time>
      </trkpt>
      <trkpt lat="43.48484" lon="6.40445">
        <ele>133</ele>
        <time>2022-04-08T14:29:55Z</time>
      </trkpt>
      <trkpt lat="43.48484" lon="6.40444">
        <ele>133</ele>
        <time>2022-04-08T14:29:56Z</time>
      </trkpt>
      <trkpt lat="43.48485" lon="6.40443">
        <ele>133</ele>
        <time>2022-04-08T14:29:57Z</time>
      </trkpt>
      <trkpt lat="43.48485" lon="6.40441">
        <ele>133</ele>
        <time>2022-04-08T14:29:58Z</time>
      </trkpt>
      <trkpt lat="43.48486" lon="6.4044">
        <ele>133</ele>
        <time>2022-04-08T14:29:59Z</time>
      </trkpt>
      <trkpt lat="43.48486" lon="6.40439">
        <ele>133</ele>
        <time>2022-04-08T14:30:00Z</time>
      </trkpt>
      <trkpt lat="43.48487" lon="6.40438">
        <ele>133</ele>
        <time>2022-04-08T14:30:01Z</time>
      </trkpt>
      <trkpt lat="43.48487" lon="6.40437">
        <ele>133</ele>
        <time>2022-04-08T14:30:02Z</time>
      </trkpt>
      <trkpt lat="43.48488" lon="6.40435">
        <ele>132</ele>
        <time>2022-04-08T14:30:03Z</time>
      </trkpt>
      <trkpt lat="43.48488" lon="6.40434">
        <ele>132</ele>
        <time>2022-04-08T14:30:04Z</time>
      </trkpt>
      <trkpt lat="43.48489" lon="6.40433">
        <ele>132</ele>
        <time>2022-04-08T14:30:05Z</time>
      </trkpt>
      <trkpt lat="43.48489" lon="6.40431">
        <ele>132</ele>
        <time>2022-04-08T14:30:06Z</time>
      </trkpt>
      <trkpt lat="43.4849" lon="6.4043">
        <ele>132</ele>
        <time>2022-04-08T14:30:07Z</time>
      </trkpt>
      <trkpt lat="43.4849" lon="6.40429">
        <ele>132</ele>
        <time>2022-04-08T14:30:08Z</time>
      </trkpt>
      <trkpt lat="43.48491" lon="6.40428">
        <ele>132</ele>
        <time>2022-04-08T14:30:09Z</time>
      </trkpt>
      <trkpt lat="43.48491" lon="6.40427">
        <ele>132</ele>
        <time>2022-04-08T14:30:10Z</time>
      </trkpt>
      <trkpt lat="43.48492" lon="6.40426">
        <ele>132</ele>
        <time>2022-04-08T14:30:11Z</time>
      </trkpt>
      <trkpt lat="43.48492" lon="6.40425">
        <ele>132</ele>
        <time>2022-04-08T14:30:12Z</time>
      </trkpt>
      <trkpt lat="43.48493" lon="6.40423">
        <ele>132</ele>
        <time>2022-04-08T14:30:13Z</time>
      </trkpt>
      <trkpt lat="43.48493" lon="6.40422">
        <ele>132</ele>
        <time>2022-04-08T14:30:14Z</time>
      </trkpt>
      <trkpt lat="43.48494" lon="6.40421">
        <ele>132</ele>
        <time>2022-04-08T14:30:15Z</time>
      </trkpt>
      <trkpt lat="43.48494" lon="6.40419">
        <ele>131</ele>
        <time>2022-04-08T14:30:16Z</time>
      </trkpt>
      <trkpt lat="43.48495" lon="6.40418">
        <ele>132</ele>
        <time>2022-04-08T14:30:17Z</time>
      </trkpt>
      <trkpt lat="43.48495" lon="6.40417">
        <ele>131</ele>
        <time>2022-04-08T14:30:18Z</time>
      </trkpt>
      <trkpt lat="43.48496" lon="6.40416">
        <ele>131</ele>
        <time>2022-04-08T14:30:19Z</time>
      </trkpt>
      <trkpt lat="43.48496" lon="6.40415">
        <ele>131</ele>
        <time>2022-04-08T14:30:20Z</time>
      </trkpt>
      <trkpt lat="43.48497" lon="6.40414">
        <ele>131</ele>
        <time>2022-04-08T14:30:21Z</time>
      </trkpt>
      <trkpt lat="43.48498" lon="6.40412">
        <ele>131</ele>
        <time>2022-04-08T14:30:22Z</time>
      </trkpt>
      <trkpt lat="43.48498" lon="6.40411">
        <ele>131</ele>
        <time>2022-04-08T14:30:23Z</time>
      </trkpt>
      <trkpt lat="43.48498" lon="6.40409">
        <ele>131</ele>
        <time>2022-04-08T14:30:24Z</time>
      </trkpt>
      <trkpt lat="43.48499" lon="6.40408">
        <ele>131</ele>
        <time>2022-04-08T14:30:25Z</time>
      </trkpt>
      <trkpt lat="43.485" lon="6.40406">
        <ele>131</ele>
        <time>2022-04-08T14:30:26Z</time>
      </trkpt>
      <trkpt lat="43.485" lon="6.40404">
        <ele>131</ele>
        <time>2022-04-08T14:30:27Z</time>
      </trkpt>
      <trkpt lat="43.48501" lon="6.40403">
        <ele>131</ele>
        <time>2022-04-08T14:30:28Z</time>
      </trkpt>
      <trkpt lat="43.48501" lon="6.40402">
        <ele>131</ele>
        <time>2022-04-08T14:30:29Z</time>
      </trkpt>
      <trkpt lat="43.48501" lon="6.404">
        <ele>131</ele>
        <time>2022-04-08T14:30:30Z</time>
      </trkpt>
      <trkpt lat="43.48502" lon="6.40399">
        <ele>131</ele>
        <time>2022-04-08T14:30:31Z</time>
      </trkpt>
      <trkpt lat="43.48502" lon="6.40397">
        <ele>131</ele>
        <time>2022-04-08T14:30:32Z</time>
      </trkpt>
      <trkpt lat="43.48503" lon="6.40396">
        <ele>131</ele>
        <time>2022-04-08T14:30:33Z</time>
      </trkpt>
      <trkpt lat="43.48503" lon="6.40394">
        <ele>131</ele>
        <time>2022-04-08T14:30:34Z</time>
      </trkpt>
      <trkpt lat="43.48504" lon="6.40393">
        <ele>131</ele>
        <time>2022-04-08T14:30:35Z</time>
      </trkpt>
      <trkpt lat="43.48505" lon="6.40392">
        <ele>131</ele>
        <time>2022-04-08T14:30:36Z</time>
      </trkpt>
      <trkpt lat="43.48505" lon="6.40391">
        <ele>131</ele>
        <time>2022-04-08T14:30:37Z</time>
      </trkpt>
      <trkpt lat="43.48506" lon="6.40389">
        <ele>131</ele>
        <time>2022-04-08T14:30:38Z</time>
      </trkpt>
      <trkpt lat="43.48506" lon="6.40388">
        <ele>131</ele>
        <time>2022-04-08T14:30:39Z</time>
      </trkpt>
      <trkpt lat="43.48506" lon="6.40387">
        <ele>131</ele>
        <time>2022-04-08T14:30:40Z</time>
      </trkpt>
      <trkpt lat="43.48507" lon="6.40386">
        <ele>131</ele>
        <time>2022-04-08T14:30:41Z</time>
      </trkpt>
      <trkpt lat="43.48507" lon="6.40385">
        <ele>131</ele>
        <time>2022-04-08T14:30:42Z</time>
      </trkpt>
      <trkpt lat="43.48508" lon="6.40384">
        <ele>131</ele>
        <time>2022-04-08T14:30:43Z</time>
      </trkpt>
      <trkpt lat="43.48509" lon="6.40383">
        <ele>131</ele>
        <time>2022-04-08T14:30:44Z</time>
      </trkpt>
      <trkpt lat="43.48509" lon="6.40382">
        <ele>131</ele>
        <time>2022-04-08T14:30:45Z</time>
      </trkpt>
      <trkpt lat="43.4851" lon="6.40381">
        <ele>131</ele>
        <time>2022-04-08T14:30:46Z</time>
      </trkpt>
      <trkpt lat="43.4851" lon="6.4038">
        <ele>131</ele>
        <time>2022-04-08T14:30:47Z</time>
      </trkpt>
      <trkpt lat="43.48511" lon="6.40378">
        <ele>131</ele>
        <time>2022-04-08T14:30:48Z</time>
      </trkpt>
      <trkpt lat="43.48511" lon="6.40377">
        <ele>131</ele>
        <time>2022-04-08T14:30:49Z</time>
      </trkpt>
      <trkpt lat="43.48512" lon="6.40376">
        <ele>131</ele>
        <time>2022-04-08T14:30:50Z</time>
      </trkpt>
      <trkpt lat="43.48512" lon="6.40375">
        <ele>131</ele>
        <time>2022-04-08T14:30:51Z</time>
      </trkpt>
      <trkpt lat="43.48513" lon="6.40374">
        <ele>131</ele>
        <time>2022-04-08T14:30:52Z</time>
      </trkpt>
      <trkpt lat="43.48513" lon="6.40373">
        <ele>131</ele>
        <time>2022-04-08T14:30:53Z</time>
      </trkpt>
      <trkpt lat="43.48514" lon="6.40372">
        <ele>131</ele>
        <time>2022-04-08T14:30:54Z</time>
      </trkpt>
      <trkpt lat="43.48514" lon="6.40371">
        <ele>131</ele>
        <time>2022-04-08T14:30:55Z</time>
      </trkpt>
      <trkpt lat="43.48514" lon="6.4037">
        <ele>131</ele>
        <time>2022-04-08T14:30:56Z</time>
      </trkpt>
      <trkpt lat="43.48515" lon="6.40368">
        <ele>131</ele>
        <time>2022-04-08T14:30:57Z</time>
      </trkpt>
      <trkpt lat="43.48515" lon="6.40367">
        <ele>131</ele>
        <time>2022-04-08T14:30:58Z</time>
      </trkpt>
      <trkpt lat="43.48515" lon="6.40366">
        <ele>131</ele>
        <time>2022-04-08T14:30:59Z</time>
      </trkpt>
      <trkpt lat="43.48515" lon="6.40365">
        <ele>132</ele>
        <time>2022-04-08T14:31:00Z</time>
      </trkpt>
      <trkpt lat="43.48516" lon="6.40364">
        <ele>132</ele>
        <time>2022-04-08T14:31:01Z</time>
      </trkpt>
      <trkpt lat="43.48516" lon="6.40363">
        <ele>132</ele>
        <time>2022-04-08T14:31:02Z</time>
      </trkpt>
      <trkpt lat="43.48516" lon="6.40362">
        <ele>132</ele>
        <time>2022-04-08T14:31:03Z</time>
      </trkpt>
      <trkpt lat="43.48517" lon="6.4036">
        <ele>132</ele>
        <time>2022-04-08T14:31:04Z</time>
      </trkpt>
      <trkpt lat="43.48517" lon="6.40359">
        <ele>133</ele>
        <time>2022-04-08T14:31:05Z</time>
      </trkpt>
      <trkpt lat="43.48517" lon="6.40358">
        <ele>133</ele>
        <time>2022-04-08T14:31:06Z</time>
      </trkpt>
      <trkpt lat="43.48517" lon="6.40356">
        <ele>133</ele>
        <time>2022-04-08T14:31:07Z</time>
      </trkpt>
      <trkpt lat="43.48517" lon="6.40355">
        <ele>133</ele>
        <time>2022-04-08T14:31:08Z</time>
      </trkpt>
      <trkpt lat="43.48517" lon="6.40353">
        <ele>133</ele>
        <time>2022-04-08T14:31:09Z</time>
      </trkpt>
      <trkpt lat="43.48517" lon="6.40351">
        <ele>134</ele>
        <time>2022-04-08T14:31:10Z</time>
      </trkpt>
      <trkpt lat="43.48517" lon="6.4035">
        <ele>134</ele>
        <time>2022-04-08T14:31:11Z</time>
      </trkpt>
      <trkpt lat="43.48517" lon="6.40348">
        <ele>134</ele>
        <time>2022-04-08T14:31:12Z</time>
      </trkpt>
      <trkpt lat="43.48517" lon="6.40347">
        <ele>134</ele>
        <time>2022-04-08T14:31:13Z</time>
      </trkpt>
      <trkpt lat="43.48518" lon="6.40346">
        <ele>134</ele>
        <time>2022-04-08T14:31:14Z</time>
      </trkpt>
      <trkpt lat="43.48518" lon="6.40344">
        <ele>134</ele>
        <time>2022-04-08T14:31:15Z</time>
      </trkpt>
      <trkpt lat="43.48518" lon="6.40343">
        <ele>134</ele>
        <time>2022-04-08T14:31:16Z</time>
      </trkpt>
      <trkpt lat="43.48518" lon="6.40341">
        <ele>135</ele>
        <time>2022-04-08T14:31:17Z</time>
      </trkpt>
      <trkpt lat="43.48518" lon="6.40339">
        <ele>135</ele>
        <time>2022-04-08T14:31:18Z</time>
      </trkpt>
      <trkpt lat="43.48518" lon="6.40338">
        <ele>135</ele>
        <time>2022-04-08T14:31:19Z</time>
      </trkpt>
      <trkpt lat="43.48518" lon="6.40336">
        <ele>136</ele>
        <time>2022-04-08T14:31:20Z</time>
      </trkpt>
      <trkpt lat="43.48519" lon="6.40335">
        <ele>136</ele>
        <time>2022-04-08T14:31:21Z</time>
      </trkpt>
      <trkpt lat="43.48519" lon="6.40333">
        <ele>136</ele>
        <time>2022-04-08T14:31:22Z</time>
      </trkpt>
      <trkpt lat="43.48519" lon="6.40332">
        <ele>137</ele>
        <time>2022-04-08T14:31:23Z</time>
      </trkpt>
      <trkpt lat="43.48519" lon="6.4033">
        <ele>137</ele>
        <time>2022-04-08T14:31:24Z</time>
      </trkpt>
      <trkpt lat="43.48519" lon="6.40328">
        <ele>137</ele>
        <time>2022-04-08T14:31:25Z</time>
      </trkpt>
      <trkpt lat="43.48519" lon="6.40327">
        <ele>137</ele>
        <time>2022-04-08T14:31:26Z</time>
      </trkpt>
      <trkpt lat="43.48519" lon="6.40325">
        <ele>138</ele>
        <time>2022-04-08T14:31:27Z</time>
      </trkpt>
      <trkpt lat="43.4852" lon="6.40324">
        <ele>138</ele>
        <time>2022-04-08T14:31:28Z</time>
      </trkpt>
      <trkpt lat="43.4852" lon="6.40322">
        <ele>138</ele>
        <time>2022-04-08T14:31:29Z</time>
      </trkpt>
      <trkpt lat="43.48521" lon="6.40321">
        <ele>138</ele>
        <time>2022-04-08T14:31:30Z</time>
      </trkpt>
      <trkpt lat="43.48521" lon="6.4032">
        <ele>138</ele>
        <time>2022-04-08T14:31:31Z</time>
      </trkpt>
      <trkpt lat="43.48522" lon="6.40319">
        <ele>138</ele>
        <time>2022-04-08T14:31:32Z</time>
      </trkpt>
      <trkpt lat="43.48522" lon="6.40318">
        <ele>138</ele>
        <time>2022-04-08T14:31:33Z</time>
      </trkpt>
      <trkpt lat="43.48522" lon="6.40316">
        <ele>138</ele>
        <time>2022-04-08T14:31:34Z</time>
      </trkpt>
      <trkpt lat="43.48523" lon="6.40315">
        <ele>138</ele>
        <time>2022-04-08T14:31:35Z</time>
      </trkpt>
      <trkpt lat="43.48524" lon="6.40314">
        <ele>138</ele>
        <time>2022-04-08T14:31:36Z</time>
      </trkpt>
      <trkpt lat="43.48524" lon="6.40313">
        <ele>138</ele>
        <time>2022-04-08T14:31:37Z</time>
      </trkpt>
      <trkpt lat="43.48525" lon="6.40312">
        <ele>138</ele>
        <time>2022-04-08T14:31:38Z</time>
      </trkpt>
      <trkpt lat="43.48525" lon="6.40311">
        <ele>138</ele>
        <time>2022-04-08T14:31:39Z</time>
      </trkpt>
      <trkpt lat="43.48526" lon="6.4031">
        <ele>138</ele>
        <time>2022-04-08T14:31:40Z</time>
      </trkpt>
      <trkpt lat="43.48526" lon="6.40309">
        <ele>138</ele>
        <time>2022-04-08T14:31:41Z</time>
      </trkpt>
      <trkpt lat="43.48527" lon="6.40308">
        <ele>138</ele>
        <time>2022-04-08T14:31:42Z</time>
      </trkpt>
      <trkpt lat="43.48527" lon="6.40307">
        <ele>139</ele>
        <time>2022-04-08T14:31:43Z</time>
      </trkpt>
      <trkpt lat="43.48529" lon="6.40307">
        <ele>139</ele>
        <time>2022-04-08T14:31:44Z</time>
      </trkpt>
      <trkpt lat="43.4853" lon="6.40306">
        <ele>139</ele>
        <time>2022-04-08T14:31:45Z</time>
      </trkpt>
      <trkpt lat="43.48531" lon="6.40305">
        <ele>139</ele>
        <time>2022-04-08T14:31:46Z</time>
      </trkpt>
      <trkpt lat="43.48532" lon="6.40304">
        <ele>138</ele>
        <time>2022-04-08T14:31:47Z</time>
      </trkpt>
      <trkpt lat="43.48532" lon="6.40303">
        <ele>138</ele>
        <time>2022-04-08T14:31:48Z</time>
      </trkpt>
      <trkpt lat="43.48533" lon="6.40301">
        <ele>138</ele>
        <time>2022-04-08T14:31:49Z</time>
      </trkpt>
      <trkpt lat="43.48534" lon="6.403">
        <ele>138</ele>
        <time>2022-04-08T14:31:50Z</time>
      </trkpt>
      <trkpt lat="43.48535" lon="6.40299">
        <ele>138</ele>
        <time>2022-04-08T14:31:51Z</time>
      </trkpt>
      <trkpt lat="43.48536" lon="6.40298">
        <ele>138</ele>
        <time>2022-04-08T14:31:52Z</time>
      </trkpt>
      <trkpt lat="43.48537" lon="6.40297">
        <ele>138</ele>
        <time>2022-04-08T14:31:53Z</time>
      </trkpt>
      <trkpt lat="43.48537" lon="6.40296">
        <ele>137</ele>
        <time>2022-04-08T14:31:54Z</time>
      </trkpt>
      <trkpt lat="43.48538" lon="6.40295">
        <ele>136</ele>
        <time>2022-04-08T14:31:55Z</time>
      </trkpt>
      <trkpt lat="43.48539" lon="6.40294">
        <ele>136</ele>
        <time>2022-04-08T14:31:56Z</time>
      </trkpt>
      <trkpt lat="43.4854" lon="6.40292">
        <ele>136</ele>
        <time>2022-04-08T14:31:57Z</time>
      </trkpt>
      <trkpt lat="43.48541" lon="6.40291">
        <ele>136</ele>
        <time>2022-04-08T14:31:58Z</time>
      </trkpt>
      <trkpt lat="43.48542" lon="6.4029">
        <ele>135</ele>
        <time>2022-04-08T14:31:59Z</time>
      </trkpt>
      <trkpt lat="43.48543" lon="6.40289">
        <ele>135</ele>
        <time>2022-04-08T14:32:00Z</time>
      </trkpt>
      <trkpt lat="43.48544" lon="6.40288">
        <ele>135</ele>
        <time>2022-04-08T14:32:01Z</time>
      </trkpt>
      <trkpt lat="43.48544" lon="6.40287">
        <ele>134</ele>
        <time>2022-04-08T14:32:02Z</time>
      </trkpt>
      <trkpt lat="43.48545" lon="6.40286">
        <ele>134</ele>
        <time>2022-04-08T14:32:03Z</time>
      </trkpt>
      <trkpt lat="43.48546" lon="6.40285">
        <ele>134</ele>
        <time>2022-04-08T14:32:04Z</time>
      </trkpt>
      <trkpt lat="43.48546" lon="6.40284">
        <ele>133</ele>
        <time>2022-04-08T14:32:05Z</time>
      </trkpt>
      <trkpt lat="43.48547" lon="6.40283">
        <ele>133</ele>
        <time>2022-04-08T14:32:06Z</time>
      </trkpt>
      <trkpt lat="43.48547" lon="6.40282">
        <ele>133</ele>
        <time>2022-04-08T14:32:07Z</time>
      </trkpt>
      <trkpt lat="43.48548" lon="6.40281">
        <ele>133</ele>
        <time>2022-04-08T14:32:08Z</time>
      </trkpt>
      <trkpt lat="43.48548" lon="6.4028">
        <ele>133</ele>
        <time>2022-04-08T14:32:09Z</time>
      </trkpt>
      <trkpt lat="43.48549" lon="6.40278">
        <ele>133</ele>
        <time>2022-04-08T14:32:10Z</time>
      </trkpt>
      <trkpt lat="43.48549" lon="6.40276">
        <ele>132</ele>
        <time>2022-04-08T14:32:11Z</time>
      </trkpt>
      <trkpt lat="43.4855" lon="6.40274">
        <ele>132</ele>
        <time>2022-04-08T14:32:12Z</time>
      </trkpt>
      <trkpt lat="43.4855" lon="6.40273">
        <ele>131</ele>
        <time>2022-04-08T14:32:13Z</time>
      </trkpt>
      <trkpt lat="43.4855" lon="6.40272">
        <ele>131</ele>
        <time>2022-04-08T14:32:14Z</time>
      </trkpt>
      <trkpt lat="43.48551" lon="6.40271">
        <ele>131</ele>
        <time>2022-04-08T14:32:15Z</time>
      </trkpt>
      <trkpt lat="43.48551" lon="6.4027">
        <ele>131</ele>
        <time>2022-04-08T14:32:16Z</time>
      </trkpt>
      <trkpt lat="43.48551" lon="6.40269">
        <ele>131</ele>
        <time>2022-04-08T14:32:17Z</time>
      </trkpt>
      <trkpt lat="43.48551" lon="6.40267">
        <ele>131</ele>
        <time>2022-04-08T14:32:18Z</time>
      </trkpt>
      <trkpt lat="43.48551" lon="6.40266">
        <ele>131</ele>
        <time>2022-04-08T14:32:19Z</time>
      </trkpt>
      <trkpt lat="43.48551" lon="6.40264">
        <ele>131</ele>
        <time>2022-04-08T14:32:20Z</time>
      </trkpt>
      <trkpt lat="43.48551" lon="6.40262">
        <ele>131</ele>
        <time>2022-04-08T14:32:21Z</time>
      </trkpt>
      <trkpt lat="43.48552" lon="6.4026">
        <ele>131</ele>
        <time>2022-04-08T14:32:22Z</time>
      </trkpt>
      <trkpt lat="43.48552" lon="6.40258">
        <ele>131</ele>
        <time>2022-04-08T14:32:23Z</time>
      </trkpt>
      <trkpt lat="43.48552" lon="6.40257">
        <ele>131</ele>
        <time>2022-04-08T14:32:24Z</time>
      </trkpt>
      <trkpt lat="43.48552" lon="6.40256">
        <ele>131</ele>
        <time>2022-04-08T14:32:25Z</time>
      </trkpt>
      <trkpt lat="43.48553" lon="6.40255">
        <ele>131</ele>
        <time>2022-04-08T14:32:26Z</time>
      </trkpt>
      <trkpt lat="43.48553" lon="6.40255">
        <ele>131</ele>
        <time>2022-04-08T14:32:27Z</time>
      </trkpt>
      <trkpt lat="43.48553" lon="6.40254">
        <ele>131</ele>
        <time>2022-04-08T14:32:28Z</time>
      </trkpt>
      <trkpt lat="43.48553" lon="6.40252">
        <ele>131</ele>
        <time>2022-04-08T14:32:29Z</time>
      </trkpt>
      <trkpt lat="43.48553" lon="6.40251">
        <ele>131</ele>
        <time>2022-04-08T14:32:30Z</time>
      </trkpt>
      <trkpt lat="43.48553" lon="6.40249">
        <ele>131</ele>
        <time>2022-04-08T14:32:31Z</time>
      </trkpt>
      <trkpt lat="43.48553" lon="6.40248">
        <ele>131</ele>
        <time>2022-04-08T14:32:32Z</time>
      </trkpt>
      <trkpt lat="43.48553" lon="6.40246">
        <ele>131</ele>
        <time>2022-04-08T14:32:33Z</time>
      </trkpt>
      <trkpt lat="43.48553" lon="6.40245">
        <ele>131</ele>
        <time>2022-04-08T14:32:34Z</time>
      </trkpt>
      <trkpt lat="43.48553" lon="6.40244">
        <ele>130</ele>
        <time>2022-04-08T14:32:35Z</time>
      </trkpt>
      <trkpt lat="43.48554" lon="6.40243">
        <ele>130</ele>
        <time>2022-04-08T14:32:36Z</time>
      </trkpt>
      <trkpt lat="43.48554" lon="6.40242">
        <ele>130</ele>
        <time>2022-04-08T14:32:37Z</time>
      </trkpt>
      <trkpt lat="43.48554" lon="6.40241">
        <ele>130</ele>
        <time>2022-04-08T14:32:38Z</time>
      </trkpt>
      <trkpt lat="43.48554" lon="6.40239">
        <ele>129</ele>
        <time>2022-04-08T14:32:39Z</time>
      </trkpt>
      <trkpt lat="43.48554" lon="6.40238">
        <ele>128</ele>
        <time>2022-04-08T14:32:40Z</time>
      </trkpt>
      <trkpt lat="43.48554" lon="6.40236">
        <ele>128</ele>
        <time>2022-04-08T14:32:41Z</time>
      </trkpt>
      <trkpt lat="43.48554" lon="6.40234">
        <ele>127</ele>
        <time>2022-04-08T14:32:42Z</time>
      </trkpt>
      <trkpt lat="43.48554" lon="6.40233">
        <ele>127</ele>
        <time>2022-04-08T14:32:43Z</time>
      </trkpt>
      <trkpt lat="43.48554" lon="6.40232">
        <ele>127</ele>
        <time>2022-04-08T14:32:44Z</time>
      </trkpt>
      <trkpt lat="43.48554" lon="6.4023">
        <ele>127</ele>
        <time>2022-04-08T14:32:45Z</time>
      </trkpt>
      <trkpt lat="43.48554" lon="6.40229">
        <ele>127</ele>
        <time>2022-04-08T14:32:46Z</time>
      </trkpt>
      <trkpt lat="43.48554" lon="6.40227">
        <ele>127</ele>
        <time>2022-04-08T14:32:47Z</time>
      </trkpt>
      <trkpt lat="43.48554" lon="6.40226">
        <ele>126</ele>
        <time>2022-04-08T14:32:48Z</time>
      </trkpt>
      <trkpt lat="43.48554" lon="6.40224">
        <ele>126</ele>
        <time>2022-04-08T14:32:49Z</time>
      </trkpt>
      <trkpt lat="43.48554" lon="6.40222">
        <ele>126</ele>
        <time>2022-04-08T14:32:50Z</time>
      </trkpt>
      <trkpt lat="43.48554" lon="6.40221">
        <ele>126</ele>
        <time>2022-04-08T14:32:51Z</time>
      </trkpt>
      <trkpt lat="43.48554" lon="6.40219">
        <ele>126</ele>
        <time>2022-04-08T14:32:52Z</time>
      </trkpt>
      <trkpt lat="43.48554" lon="6.40218">
        <ele>126</ele>
        <time>2022-04-08T14:32:53Z</time>
      </trkpt>
      <trkpt lat="43.48554" lon="6.40216">
        <ele>125</ele>
        <time>2022-04-08T14:32:54Z</time>
      </trkpt>
      <trkpt lat="43.48555" lon="6.40215">
        <ele>125</ele>
        <time>2022-04-08T14:32:55Z</time>
      </trkpt>
      <trkpt lat="43.48555" lon="6.40213">
        <ele>124</ele>
        <time>2022-04-08T14:32:56Z</time>
      </trkpt>
      <trkpt lat="43.48555" lon="6.40212">
        <ele>123</ele>
        <time>2022-04-08T14:32:57Z</time>
      </trkpt>
      <trkpt lat="43.48555" lon="6.40211">
        <ele>123</ele>
        <time>2022-04-08T14:32:58Z</time>
      </trkpt>
      <trkpt lat="43.48555" lon="6.40209">
        <ele>123</ele>
        <time>2022-04-08T14:32:59Z</time>
      </trkpt>
      <trkpt lat="43.48554" lon="6.40208">
        <ele>123</ele>
        <time>2022-04-08T14:33:00Z</time>
      </trkpt>
      <trkpt lat="43.48554" lon="6.40207">
        <ele>122</ele>
        <time>2022-04-08T14:33:01Z</time>
      </trkpt>
      <trkpt lat="43.48554" lon="6.40206">
        <ele>122</ele>
        <time>2022-04-08T14:33:02Z</time>
      </trkpt>
      <trkpt lat="43.48553" lon="6.40204">
        <ele>122</ele>
        <time>2022-04-08T14:33:03Z</time>
      </trkpt>
      <trkpt lat="43.48553" lon="6.40203">
        <ele>122</ele>
        <time>2022-04-08T14:33:04Z</time>
      </trkpt>
      <trkpt lat="43.48553" lon="6.40203">
        <ele>122</ele>
        <time>2022-04-08T14:33:05Z</time>
      </trkpt>
      <trkpt lat="43.48553" lon="6.40202">
        <ele>122</ele>
        <time>2022-04-08T14:33:06Z</time>
      </trkpt>
      <trkpt lat="43.48553" lon="6.40202">
        <ele>122</ele>
        <time>2022-04-08T14:33:07Z</time>
      </trkpt>
      <trkpt lat="43.48553" lon="6.40201">
        <ele>122</ele>
        <time>2022-04-08T14:33:08Z</time>
      </trkpt>
      <trkpt lat="43.48553" lon="6.402">
        <ele>122</ele>
        <time>2022-04-08T14:33:09Z</time>
      </trkpt>
      <trkpt lat="43.48553" lon="6.40199">
        <ele>122</ele>
        <time>2022-04-08T14:33:10Z</time>
      </trkpt>
      <trkpt lat="43.48553" lon="6.40197">
        <ele>122</ele>
        <time>2022-04-08T14:33:11Z</time>
      </trkpt>
      <trkpt lat="43.48552" lon="6.40196">
        <ele>122</ele>
        <time>2022-04-08T14:33:12Z</time>
      </trkpt>
      <trkpt lat="43.48552" lon="6.40194">
        <ele>122</ele>
        <time>2022-04-08T14:33:13Z</time>
      </trkpt>
      <trkpt lat="43.48551" lon="6.40193">
        <ele>121</ele>
        <time>2022-04-08T14:33:14Z</time>
      </trkpt>
      <trkpt lat="43.48551" lon="6.40191">
        <ele>121</ele>
        <time>2022-04-08T14:33:15Z</time>
      </trkpt>
      <trkpt lat="43.48551" lon="6.4019">
        <ele>121</ele>
        <time>2022-04-08T14:33:16Z</time>
      </trkpt>
      <trkpt lat="43.48551" lon="6.40188">
        <ele>121</ele>
        <time>2022-04-08T14:33:17Z</time>
      </trkpt>
      <trkpt lat="43.48551" lon="6.40187">
        <ele>121</ele>
        <time>2022-04-08T14:33:18Z</time>
      </trkpt>
      <trkpt lat="43.48551" lon="6.40185">
        <ele>121</ele>
        <time>2022-04-08T14:33:19Z</time>
      </trkpt>
      <trkpt lat="43.4855" lon="6.40183">
        <ele>120</ele>
        <time>2022-04-08T14:33:20Z</time>
      </trkpt>
      <trkpt lat="43.4855" lon="6.40181">
        <ele>120</ele>
        <time>2022-04-08T14:33:21Z</time>
      </trkpt>
      <trkpt lat="43.4855" lon="6.40179">
        <ele>120</ele>
        <time>2022-04-08T14:33:22Z</time>
      </trkpt>
      <trkpt lat="43.4855" lon="6.40177">
        <ele>120</ele>
        <time>2022-04-08T14:33:23Z</time>
      </trkpt>
      <trkpt lat="43.4855" lon="6.40175">
        <ele>120</ele>
        <time>2022-04-08T14:33:24Z</time>
      </trkpt>
      <trkpt lat="43.4855" lon="6.40174">
        <ele>120</ele>
        <time>2022-04-08T14:33:25Z</time>
      </trkpt>
      <trkpt lat="43.48551" lon="6.40172">
        <ele>120</ele>
        <time>2022-04-08T14:33:26Z</time>
      </trkpt>
      <trkpt lat="43.48551" lon="6.40171">
        <ele>120</ele>
        <time>2022-04-08T14:33:27Z</time>
      </trkpt>
      <trkpt lat="43.48552" lon="6.40169">
        <ele>121</ele>
        <time>2022-04-08T14:33:28Z</time>
      </trkpt>
      <trkpt lat="43.48552" lon="6.40168">
        <ele>121</ele>
        <time>2022-04-08T14:33:29Z</time>
      </trkpt>
      <trkpt lat="43.48552" lon="6.40166">
        <ele>121</ele>
        <time>2022-04-08T14:33:30Z</time>
      </trkpt>
      <trkpt lat="43.48553" lon="6.40165">
        <ele>121</ele>
        <time>2022-04-08T14:33:31Z</time>
      </trkpt>
      <trkpt lat="43.48553" lon="6.40163">
        <ele>121</ele>
        <time>2022-04-08T14:33:32Z</time>
      </trkpt>
      <trkpt lat="43.48553" lon="6.40162">
        <ele>121</ele>
        <time>2022-04-08T14:33:33Z</time>
      </trkpt>
      <trkpt lat="43.48554" lon="6.40161">
        <ele>121</ele>
        <time>2022-04-08T14:33:34Z</time>
      </trkpt>
      <trkpt lat="43.48554" lon="6.40159">
        <ele>121</ele>
        <time>2022-04-08T14:33:35Z</time>
      </trkpt>
      <trkpt lat="43.48554" lon="6.40158">
        <ele>121</ele>
        <time>2022-04-08T14:33:36Z</time>
      </trkpt>
      <trkpt lat="43.48554" lon="6.40157">
        <ele>122</ele>
        <time>2022-04-08T14:33:37Z</time>
      </trkpt>
      <trkpt lat="43.48554" lon="6.40155">
        <ele>122</ele>
        <time>2022-04-08T14:33:38Z</time>
      </trkpt>
      <trkpt lat="43.48554" lon="6.40154">
        <ele>122</ele>
        <time>2022-04-08T14:33:39Z</time>
      </trkpt>
      <trkpt lat="43.48555" lon="6.40152">
        <ele>122</ele>
        <time>2022-04-08T14:33:40Z</time>
      </trkpt>
      <trkpt lat="43.48555" lon="6.40151">
        <ele>121</ele>
        <time>2022-04-08T14:33:41Z</time>
      </trkpt>
      <trkpt lat="43.48554" lon="6.40149">
        <ele>121</ele>
        <time>2022-04-08T14:33:42Z</time>
      </trkpt>
      <trkpt lat="43.48554" lon="6.40148">
        <ele>121</ele>
        <time>2022-04-08T14:33:43Z</time>
      </trkpt>
      <trkpt lat="43.48554" lon="6.40147">
        <ele>121</ele>
        <time>2022-04-08T14:33:44Z</time>
      </trkpt>
      <trkpt lat="43.48554" lon="6.40146">
        <ele>121</ele>
        <time>2022-04-08T14:33:45Z</time>
      </trkpt>
      <trkpt lat="43.48554" lon="6.40145">
        <ele>121</ele>
        <time>2022-04-08T14:33:46Z</time>
      </trkpt>
      <trkpt lat="43.48554" lon="6.40144">
        <ele>121</ele>
        <time>2022-04-08T14:33:47Z</time>
      </trkpt>
      <trkpt lat="43.48554" lon="6.40143">
        <ele>121</ele>
        <time>2022-04-08T14:33:48Z</time>
      </trkpt>
      <trkpt lat="43.48554" lon="6.40142">
        <ele>121</ele>
        <time>2022-04-08T14:33:49Z</time>
      </trkpt>
      <trkpt lat="43.48554" lon="6.40142">
        <ele>121</ele>
        <time>2022-04-08T14:33:50Z</time>
      </trkpt>
      <trkpt lat="43.48554" lon="6.40141">
        <ele>121</ele>
        <time>2022-04-08T14:33:51Z</time>
      </trkpt>
      <trkpt lat="43.48554" lon="6.4014">
        <ele>121</ele>
        <time>2022-04-08T14:33:52Z</time>
      </trkpt>
      <trkpt lat="43.48554" lon="6.40139">
        <ele>121</ele>
        <time>2022-04-08T14:33:53Z</time>
      </trkpt>
      <trkpt lat="43.48553" lon="6.40138">
        <ele>121</ele>
        <time>2022-04-08T14:33:54Z</time>
      </trkpt>
      <trkpt lat="43.48553" lon="6.40137">
        <ele>121</ele>
        <time>2022-04-08T14:33:55Z</time>
      </trkpt>
      <trkpt lat="43.48553" lon="6.40136">
        <ele>121</ele>
        <time>2022-04-08T14:33:56Z</time>
      </trkpt>
      <trkpt lat="43.48553" lon="6.40135">
        <ele>121</ele>
        <time>2022-04-08T14:33:57Z</time>
      </trkpt>
      <trkpt lat="43.48553" lon="6.40134">
        <ele>121</ele>
        <time>2022-04-08T14:33:58Z</time>
      </trkpt>
      <trkpt lat="43.48552" lon="6.40133">
        <ele>121</ele>
        <time>2022-04-08T14:33:59Z</time>
      </trkpt>
      <trkpt lat="43.48551" lon="6.40132">
        <ele>121</ele>
        <time>2022-04-08T14:34:00Z</time>
      </trkpt>
      <trkpt lat="43.48551" lon="6.40131">
        <ele>121</ele>
        <time>2022-04-08T14:34:01Z</time>
      </trkpt>
      <trkpt lat="43.4855" lon="6.4013">
        <ele>121</ele>
        <time>2022-04-08T14:34:02Z</time>
      </trkpt>
      <trkpt lat="43.4855" lon="6.40129">
        <ele>121</ele>
        <time>2022-04-08T14:34:03Z</time>
      </trkpt>
      <trkpt lat="43.48549" lon="6.40128">
        <ele>122</ele>
        <time>2022-04-08T14:34:04Z</time>
      </trkpt>
      <trkpt lat="43.48549" lon="6.40127">
        <ele>122</ele>
        <time>2022-04-08T14:34:05Z</time>
      </trkpt>
      <trkpt lat="43.48549" lon="6.40126">
        <ele>122</ele>
        <time>2022-04-08T14:34:06Z</time>
      </trkpt>
      <trkpt lat="43.48548" lon="6.40125">
        <ele>122</ele>
        <time>2022-04-08T14:34:07Z</time>
      </trkpt>
      <trkpt lat="43.48548" lon="6.40124">
        <ele>122</ele>
        <time>2022-04-08T14:34:08Z</time>
      </trkpt>
      <trkpt lat="43.48548" lon="6.40123">
        <ele>122</ele>
        <time>2022-04-08T14:34:09Z</time>
      </trkpt>
      <trkpt lat="43.48548" lon="6.40122">
        <ele>122</ele>
        <time>2022-04-08T14:34:10Z</time>
      </trkpt>
      <trkpt lat="43.48547" lon="6.40121">
        <ele>122</ele>
        <time>2022-04-08T14:34:11Z</time>
      </trkpt>
      <trkpt lat="43.48547" lon="6.4012">
        <ele>122</ele>
        <time>2022-04-08T14:34:12Z</time>
      </trkpt>
      <trkpt lat="43.48547" lon="6.40119">
        <ele>122</ele>
        <time>2022-04-08T14:34:13Z</time>
      </trkpt>
      <trkpt lat="43.48546" lon="6.40118">
        <ele>122</ele>
        <time>2022-04-08T14:34:14Z</time>
      </trkpt>
      <trkpt lat="43.48546" lon="6.40116">
        <ele>122</ele>
        <time>2022-04-08T14:34:15Z</time>
      </trkpt>
      <trkpt lat="43.48546" lon="6.40115">
        <ele>122</ele>
        <time>2022-04-08T14:34:16Z</time>
      </trkpt>
      <trkpt lat="43.48546" lon="6.40114">
        <ele>122</ele>
        <time>2022-04-08T14:34:17Z</time>
      </trkpt>
      <trkpt lat="43.48546" lon="6.40113">
        <ele>122</ele>
        <time>2022-04-08T14:34:18Z</time>
      </trkpt>
      <trkpt lat="43.48546" lon="6.40112">
        <ele>122</ele>
        <time>2022-04-08T14:34:19Z</time>
      </trkpt>
      <trkpt lat="43.48546" lon="6.4011">
        <ele>122</ele>
        <time>2022-04-08T14:34:20Z</time>
      </trkpt>
      <trkpt lat="43.48546" lon="6.40109">
        <ele>122</ele>
        <time>2022-04-08T14:34:21Z</time>
      </trkpt>
      <trkpt lat="43.48545" lon="6.40108">
        <ele>121</ele>
        <time>2022-04-08T14:34:22Z</time>
      </trkpt>
      <trkpt lat="43.48545" lon="6.40106">
        <ele>121</ele>
        <time>2022-04-08T14:34:23Z</time>
      </trkpt>
      <trkpt lat="43.48544" lon="6.40105">
        <ele>120</ele>
        <time>2022-04-08T14:34:24Z</time>
      </trkpt>
      <trkpt lat="43.48544" lon="6.40106">
        <ele>120</ele>
        <time>2022-04-08T14:34:25Z</time>
      </trkpt>
      <trkpt lat="43.48543" lon="6.40107">
        <ele>120</ele>
        <time>2022-04-08T14:34:26Z</time>
      </trkpt>
      <trkpt lat="43.48543" lon="6.40107">
        <ele>120</ele>
        <time>2022-04-08T14:34:27Z</time>
      </trkpt>
      <trkpt lat="43.48542" lon="6.40108">
        <ele>120</ele>
        <time>2022-04-08T14:34:28Z</time>
      </trkpt>
      <trkpt lat="43.48542" lon="6.40108">
        <ele>120</ele>
        <time>2022-04-08T14:34:29Z</time>
      </trkpt>
      <trkpt lat="43.48542" lon="6.40108">
        <ele>120</ele>
        <time>2022-04-08T14:34:30Z</time>
      </trkpt>
      <trkpt lat="43.48542" lon="6.40108">
        <ele>120</ele>
        <time>2022-04-08T14:34:31Z</time>
      </trkpt>
      <trkpt lat="43.48542" lon="6.40108">
        <ele>120</ele>
        <time>2022-04-08T14:34:32Z</time>
      </trkpt>
      <trkpt lat="43.48542" lon="6.40108">
        <ele>120</ele>
        <time>2022-04-08T14:34:33Z</time>
      </trkpt>
      <trkpt lat="43.48542" lon="6.40108">
        <ele>120</ele>
        <time>2022-04-08T14:34:34Z</time>
      </trkpt>
      <trkpt lat="43.48542" lon="6.40108">
        <ele>120</ele>
        <time>2022-04-08T14:34:35Z</time>
      </trkpt>
      <trkpt lat="43.48542" lon="6.40108">
        <ele>120</ele>
        <time>2022-04-08T14:34:36Z</time>
      </trkpt>
      <trkpt lat="43.48542" lon="6.40108">
        <ele>120</ele>
        <time>2022-04-08T14:34:37Z</time>
      </trkpt>
      <trkpt lat="43.48542" lon="6.40108">
        <ele>120</ele>
        <time>2022-04-08T14:34:38Z</time>
      </trkpt>
      <trkpt lat="43.48542" lon="6.40108">
        <ele>120</ele>
        <time>2022-04-08T14:34:39Z</time>
      </trkpt>
      <trkpt lat="43.48544" lon="6.40107">
        <ele>120</ele>
        <time>2022-04-08T14:34:40Z</time>
      </trkpt>
      <trkpt lat="43.48544" lon="6.40106">
        <ele>120</ele>
        <time>2022-04-08T14:34:41Z</time>
      </trkpt>
      <trkpt lat="43.48545" lon="6.40106">
        <ele>120</ele>
        <time>2022-04-08T14:34:42Z</time>
      </trkpt>
      <trkpt lat="43.48545" lon="6.40105">
        <ele>120</ele>
        <time>2022-04-08T14:34:43Z</time>
      </trkpt>
      <trkpt lat="43.48545" lon="6.40104">
        <ele>120</ele>
        <time>2022-04-08T14:34:44Z</time>
      </trkpt>
      <trkpt lat="43.48545" lon="6.40103">
        <ele>120</ele>
        <time>2022-04-08T14:34:45Z</time>
      </trkpt>
      <trkpt lat="43.48546" lon="6.40103">
        <ele>120</ele>
        <time>2022-04-08T14:34:46Z</time>
      </trkpt>
      <trkpt lat="43.48546" lon="6.40103">
        <ele>120</ele>
        <time>2022-04-08T14:34:47Z</time>
      </trkpt>
      <trkpt lat="43.48546" lon="6.40102">
        <ele>120</ele>
        <time>2022-04-08T14:34:48Z</time>
      </trkpt>
      <trkpt lat="43.48546" lon="6.40102">
        <ele>120</ele>
        <time>2022-04-08T14:34:49Z</time>
      </trkpt>
      <trkpt lat="43.48546" lon="6.40101">
        <ele>120</ele>
        <time>2022-04-08T14:34:50Z</time>
      </trkpt>
      <trkpt lat="43.48547" lon="6.40101">
        <ele>120</ele>
        <time>2022-04-08T14:34:51Z</time>
      </trkpt>
      <trkpt lat="43.48547" lon="6.40101">
        <ele>120</ele>
        <time>2022-04-08T14:34:52Z</time>
      </trkpt>
      <trkpt lat="43.48547" lon="6.401">
        <ele>120</ele>
        <time>2022-04-08T14:34:53Z</time>
      </trkpt>
      <trkpt lat="43.48547" lon="6.40099">
        <ele>120</ele>
        <time>2022-04-08T14:34:54Z</time>
      </trkpt>
      <trkpt lat="43.48547" lon="6.40099">
        <ele>120</ele>
        <time>2022-04-08T14:34:55Z</time>
      </trkpt>
      <trkpt lat="43.48546" lon="6.40098">
        <ele>120</ele>
        <time>2022-04-08T14:34:56Z</time>
      </trkpt>
      <trkpt lat="43.48546" lon="6.40098">
        <ele>120</ele>
        <time>2022-04-08T14:34:57Z</time>
      </trkpt>
      <trkpt lat="43.48546" lon="6.40098">
        <ele>120</ele>
        <time>2022-04-08T14:34:58Z</time>
      </trkpt>
      <trkpt lat="43.48545" lon="6.40097">
        <ele>120</ele>
        <time>2022-04-08T14:34:59Z</time>
      </trkpt>
      <trkpt lat="43.48545" lon="6.40097">
        <ele>120</ele>
        <time>2022-04-08T14:35:00Z</time>
      </trkpt>
      <trkpt lat="43.48545" lon="6.40097">
        <ele>120</ele>
        <time>2022-04-08T14:35:01Z</time>
      </trkpt>
      <trkpt lat="43.48545" lon="6.40097">
        <ele>120</ele>
        <time>2022-04-08T14:35:02Z</time>
      </trkpt>
      <trkpt lat="43.48545" lon="6.40097">
        <ele>120</ele>
        <time>2022-04-08T14:35:03Z</time>
      </trkpt>
      <trkpt lat="43.48545" lon="6.40097">
        <ele>120</ele>
        <time>2022-04-08T14:35:04Z</time>
      </trkpt>
      <trkpt lat="43.48545" lon="6.40097">
        <ele>120</ele>
        <time>2022-04-08T14:35:05Z</time>
      </trkpt>
      <trkpt lat="43.48545" lon="6.40097">
        <ele>120</ele>
        <time>2022-04-08T14:35:06Z</time>
      </trkpt>
      <trkpt lat="43.48545" lon="6.40097">
        <ele>120</ele>
        <time>2022-04-08T14:35:07Z</time>
      </trkpt>
      <trkpt lat="43.48544" lon="6.40096">
        <ele>120</ele>
        <time>2022-04-08T14:35:08Z</time>
      </trkpt>
      <trkpt lat="43.48544" lon="6.40096">
        <ele>120</ele>
        <time>2022-04-08T14:35:09Z</time>
      </trkpt>
      <trkpt lat="43.48545" lon="6.40096">
        <ele>120</ele>
        <time>2022-04-08T14:35:10Z</time>
      </trkpt>
      <trkpt lat="43.48545" lon="6.40096">
        <ele>120</ele>
        <time>2022-04-08T14:35:11Z</time>
      </trkpt>
      <trkpt lat="43.48546" lon="6.40096">
        <ele>120</ele>
        <time>2022-04-08T14:35:12Z</time>
      </trkpt>
      <trkpt lat="43.48546" lon="6.40096">
        <ele>120</ele>
        <time>2022-04-08T14:35:13Z</time>
      </trkpt>
      <trkpt lat="43.48547" lon="6.40096">
        <ele>120</ele>
        <time>2022-04-08T14:35:14Z</time>
      </trkpt>
      <trkpt lat="43.48547" lon="6.40096">
        <ele>120</ele>
        <time>2022-04-08T14:35:15Z</time>
      </trkpt>
      <trkpt lat="43.48547" lon="6.40096">
        <ele>120</ele>
        <time>2022-04-08T14:35:16Z</time>
      </trkpt>
      <trkpt lat="43.48548" lon="6.40096">
        <ele>120</ele>
        <time>2022-04-08T14:35:17Z</time>
      </trkpt>
      <trkpt lat="43.48548" lon="6.40096">
        <ele>120</ele>
        <time>2022-04-08T14:35:18Z</time>
      </trkpt>
      <trkpt lat="43.48548" lon="6.40096">
        <ele>120</ele>
        <time>2022-04-08T14:35:19Z</time>
      </trkpt>
      <trkpt lat="43.48548" lon="6.40096">
        <ele>120</ele>
        <time>2022-04-08T14:35:20Z</time>
      </trkpt>
      <trkpt lat="43.48548" lon="6.40096">
        <ele>120</ele>
        <time>2022-04-08T14:35:21Z</time>
      </trkpt>
      <trkpt lat="43.48548" lon="6.40096">
        <ele>120</ele>
        <time>2022-04-08T14:35:22Z</time>
      </trkpt>
      <trkpt lat="43.48548" lon="6.40096">
        <ele>120</ele>
        <time>2022-04-08T14:35:23Z</time>
      </trkpt>
      <trkpt lat="43.48548" lon="6.40096">
        <ele>120</ele>
        <time>2022-04-08T14:35:24Z</time>
      </trkpt>
      <trkpt lat="43.48548" lon="6.40096">
        <ele>120</ele>
        <time>2022-04-08T14:35:25Z</time>
      </trkpt>
      <trkpt lat="43.48548" lon="6.40096">
        <ele>120</ele>
        <time>2022-04-08T14:35:26Z</time>
      </trkpt>
      <trkpt lat="43.48549" lon="6.40096">
        <ele>121</ele>
        <time>2022-04-08T14:35:27Z</time>
      </trkpt>
      <trkpt lat="43.48549" lon="6.40096">
        <ele>121</ele>
        <time>2022-04-08T14:35:28Z</time>
      </trkpt>
      <trkpt lat="43.4855" lon="6.40096">
        <ele>121</ele>
        <time>2022-04-08T14:35:29Z</time>
      </trkpt>
      <trkpt lat="43.4855" lon="6.40096">
        <ele>121</ele>
        <time>2022-04-08T14:35:30Z</time>
      </trkpt>
      <trkpt lat="43.4855" lon="6.40096">
        <ele>121</ele>
        <time>2022-04-08T14:35:31Z</time>
      </trkpt>
      <trkpt lat="43.4855" lon="6.40096">
        <ele>121</ele>
        <time>2022-04-08T14:35:32Z</time>
      </trkpt>
      <trkpt lat="43.4855" lon="6.40096">
        <ele>121</ele>
        <time>2022-04-08T14:35:33Z</time>
      </trkpt>
      <trkpt lat="43.4855" lon="6.40096">
        <ele>121</ele>
        <time>2022-04-08T14:35:34Z</time>
      </trkpt>
      <trkpt lat="43.4855" lon="6.40096">
        <ele>121</ele>
        <time>2022-04-08T14:35:35Z</time>
      </trkpt>
      <trkpt lat="43.4855" lon="6.40096">
        <ele>121</ele>
        <time>2022-04-08T14:35:36Z</time>
      </trkpt>
      <trkpt lat="43.4855" lon="6.40096">
        <ele>121</ele>
        <time>2022-04-08T14:35:37Z</time>
      </trkpt>
      <trkpt lat="43.4855" lon="6.40096">
        <ele>121</ele>
        <time>2022-04-08T14:35:38Z</time>
      </trkpt>
      <trkpt lat="43.4855" lon="6.40096">
        <ele>121</ele>
        <time>2022-04-08T14:35:39Z</time>
      </trkpt>
      <trkpt lat="43.4855" lon="6.40096">
        <ele>121</ele>
        <time>2022-04-08T14:35:40Z</time>
      </trkpt>
      <trkpt lat="43.4855" lon="6.40096">
        <ele>121</ele>
        <time>2022-04-08T14:35:41Z</time>
      </trkpt>
      <trkpt lat="43.4855" lon="6.40096">
        <ele>121</ele>
        <time>2022-04-08T14:35:42Z</time>
      </trkpt>
      <trkpt lat="43.4855" lon="6.40096">
        <ele>121</ele>
        <time>2022-04-08T14:35:43Z</time>
      </trkpt>
      <trkpt lat="43.4855" lon="6.40096">
        <ele>121</ele>
        <time>2022-04-08T14:35:44Z</time>
      </trkpt>
      <trkpt lat="43.4855" lon="6.40096">
        <ele>121</ele>
        <time>2022-04-08T14:35:45Z</time>
      </trkpt>
      <trkpt lat="43.4855" lon="6.40096">
        <ele>121</ele>
        <time>2022-04-08T14:35:46Z</time>
      </trkpt>
      <trkpt lat="43.4855" lon="6.40096">
        <ele>121</ele>
        <time>2022-04-08T14:35:47Z</time>
      </trkpt>
      <trkpt lat="43.4855" lon="6.40096">
        <ele>121</ele>
        <time>2022-04-08T14:35:48Z</time>
      </trkpt>
      <trkpt lat="43.4855" lon="6.40096">
        <ele>121</ele>
        <time>2022-04-08T14:35:49Z</time>
      </trkpt>
      <trkpt lat="43.4855" lon="6.40096">
        <ele>121</ele>
        <time>2022-04-08T14:35:50Z</time>
      </trkpt>
      <trkpt lat="43.4855" lon="6.40096">
        <ele>121</ele>
        <time>2022-04-08T14:35:51Z</time>
      </trkpt>
      <trkpt lat="43.4855" lon="6.40096">
        <ele>121</ele>
        <time>2022-04-08T14:35:52Z</time>
      </trkpt>
      <trkpt lat="43.4855" lon="6.40096">
        <ele>121</ele>
        <time>2022-04-08T14:35:53Z</time>
      </trkpt>
      <trkpt lat="43.4855" lon="6.40096">
        <ele>121</ele>
        <time>2022-04-08T14:35:54Z</time>
      </trkpt>
      <trkpt lat="43.4855" lon="6.40096">
        <ele>121</ele>
        <time>2022-04-08T14:35:55Z</time>
      </trkpt>
      <trkpt lat="43.4855" lon="6.40096">
        <ele>121</ele>
        <time>2022-04-08T14:35:56Z</time>
      </trkpt>
      <trkpt lat="43.4855" lon="6.40096">
        <ele>121</ele>
        <time>2022-04-08T14:35:57Z</time>
      </trkpt>
      <trkpt lat="43.4855" lon="6.40096">
        <ele>121</ele>
        <time>2022-04-08T14:35:58Z</time>
      </trkpt>
      <trkpt lat="43.4855" lon="6.40096">
        <ele>121</ele>
        <time>2022-04-08T14:35:59Z</time>
      </trkpt>
      <trkpt lat="43.4855" lon="6.40096">
        <ele>121</ele>
        <time>2022-04-08T14:36:00Z</time>
      </trkpt>
      <trkpt lat="43.4855" lon="6.40096">
        <ele>121</ele>
        <time>2022-04-08T14:36:01Z</time>
      </trkpt>
      <trkpt lat="43.4855" lon="6.40096">
        <ele>121</ele>
        <time>2022-04-08T14:36:02Z</time>
      </trkpt>
      <trkpt lat="43.4855" lon="6.40096">
        <ele>121</ele>
        <time>2022-04-08T14:36:03Z</time>
      </trkpt>
      <trkpt lat="43.4855" lon="6.40096">
        <ele>121</ele>
        <time>2022-04-08T14:36:04Z</time>
      </trkpt>
      <trkpt lat="43.4855" lon="6.40096">
        <ele>121</ele>
        <time>2022-04-08T14:36:05Z</time>
      </trkpt>
      <trkpt lat="43.4855" lon="6.40096">
        <ele>121</ele>
        <time>2022-04-08T14:36:06Z</time>
      </trkpt>
      <trkpt lat="43.4855" lon="6.40096">
        <ele>121</ele>
        <time>2022-04-08T14:36:07Z</time>
      </trkpt>
      <trkpt lat="43.4855" lon="6.40096">
        <ele>121</ele>
        <time>2022-04-08T14:36:08Z</time>
      </trkpt>
      <trkpt lat="43.4855" lon="6.40096">
        <ele>121</ele>
        <time>2022-04-08T14:36:09Z</time>
      </trkpt>
      <trkpt lat="43.4855" lon="6.40096">
        <ele>121</ele>
        <time>2022-04-08T14:36:10Z</time>
      </trkpt>
      <trkpt lat="43.4855" lon="6.40096">
        <ele>121</ele>
        <time>2022-04-08T14:36:11Z</time>
      </trkpt>
      <trkpt lat="43.4855" lon="6.40096">
        <ele>121</ele>
        <time>2022-04-08T14:36:12Z</time>
      </trkpt>
      <trkpt lat="43.4855" lon="6.40096">
        <ele>121</ele>
        <time>2022-04-08T14:36:13Z</time>
      </trkpt>
      <trkpt lat="43.4855" lon="6.40096">
        <ele>121</ele>
        <time>2022-04-08T14:36:14Z</time>
      </trkpt>
      <trkpt lat="43.4855" lon="6.40096">
        <ele>121</ele>
        <time>2022-04-08T14:36:15Z</time>
      </trkpt>
      <trkpt lat="43.4855" lon="6.40096">
        <ele>121</ele>
        <time>2022-04-08T14:36:16Z</time>
      </trkpt>
      <trkpt lat="43.4855" lon="6.40096">
        <ele>121</ele>
        <time>2022-04-08T14:36:17Z</time>
      </trkpt>
      <trkpt lat="43.4855" lon="6.40096">
        <ele>121</ele>
        <time>2022-04-08T14:36:18Z</time>
      </trkpt>
      <trkpt lat="43.4855" lon="6.40096">
        <ele>121</ele>
        <time>2022-04-08T14:36:19Z</time>
      </trkpt>
      <trkpt lat="43.4855" lon="6.40096">
        <ele>121</ele>
        <time>2022-04-08T14:36:20Z</time>
      </trkpt>
      <trkpt lat="43.4855" lon="6.40096">
        <ele>121</ele>
        <time>2022-04-08T14:36:21Z</time>
      </trkpt>
      <trkpt lat="43.4855" lon="6.40096">
        <ele>121</ele>
        <time>2022-04-08T14:36:22Z</time>
      </trkpt>
      <trkpt lat="43.4855" lon="6.40096">
        <ele>121</ele>
        <time>2022-04-08T14:36:23Z</time>
      </trkpt>
      <trkpt lat="43.4855" lon="6.40096">
        <ele>121</ele>
        <time>2022-04-08T14:36:24Z</time>
      </trkpt>
      <trkpt lat="43.4855" lon="6.40096">
        <ele>121</ele>
        <time>2022-04-08T14:36:25Z</time>
      </trkpt>
      <trkpt lat="43.4855" lon="6.40096">
        <ele>121</ele>
        <time>2022-04-08T14:36:26Z</time>
      </trkpt>
      <trkpt lat="43.4855" lon="6.40096">
        <ele>121</ele>
        <time>2022-04-08T14:36:27Z</time>
      </trkpt>
      <trkpt lat="43.4855" lon="6.40096">
        <ele>121</ele>
        <time>2022-04-08T14:36:28Z</time>
      </trkpt>
      <trkpt lat="43.4855" lon="6.40096">
        <ele>121</ele>
        <time>2022-04-08T14:36:29Z</time>
      </trkpt>
      <trkpt lat="43.4855" lon="6.40096">
        <ele>121</ele>
        <time>2022-04-08T14:36:30Z</time>
      </trkpt>
      <trkpt lat="43.4855" lon="6.40096">
        <ele>121</ele>
        <time>2022-04-08T14:36:31Z</time>
      </trkpt>
      <trkpt lat="43.4855" lon="6.40096">
        <ele>121</ele>
        <time>2022-04-08T14:36:32Z</time>
      </trkpt>
      <trkpt lat="43.4855" lon="6.40096">
        <ele>121</ele>
        <time>2022-04-08T14:36:33Z</time>
      </trkpt>
      <trkpt lat="43.4855" lon="6.40096">
        <ele>121</ele>
        <time>2022-04-08T14:36:34Z</time>
      </trkpt>
      <trkpt lat="43.4855" lon="6.40096">
        <ele>121</ele>
        <time>2022-04-08T14:36:35Z</time>
      </trkpt>
      <trkpt lat="43.4855" lon="6.40096">
        <ele>121</ele>
        <time>2022-04-08T14:36:36Z</time>
      </trkpt>
      <trkpt lat="43.4855" lon="6.40096">
        <ele>121</ele>
        <time>2022-04-08T14:36:37Z</time>
      </trkpt>
      <trkpt lat="43.4855" lon="6.40096">
        <ele>121</ele>
        <time>2022-04-08T14:36:38Z</time>
      </trkpt>
      <trkpt lat="43.4855" lon="6.40096">
        <ele>121</ele>
        <time>2022-04-08T14:36:39Z</time>
      </trkpt>
      <trkpt lat="43.4855" lon="6.40096">
        <ele>121</ele>
        <time>2022-04-08T14:36:40Z</time>
      </trkpt>
      <trkpt lat="43.4855" lon="6.40096">
        <ele>121</ele>
        <time>2022-04-08T14:36:41Z</time>
      </trkpt>
      <trkpt lat="43.4855" lon="6.40096">
        <ele>121</ele>
        <time>2022-04-08T14:36:42Z</time>
      </trkpt>
      <trkpt lat="43.4855" lon="6.40096">
        <ele>121</ele>
        <time>2022-04-08T14:36:43Z</time>
      </trkpt>
      <trkpt lat="43.4855" lon="6.40096">
        <ele>121</ele>
        <time>2022-04-08T14:36:44Z</time>
      </trkpt>
      <trkpt lat="43.4855" lon="6.40096">
        <ele>121</ele>
        <time>2022-04-08T14:36:45Z</time>
      </trkpt>
      <trkpt lat="43.4855" lon="6.40096">
        <ele>121</ele>
        <time>2022-04-08T14:36:46Z</time>
      </trkpt>
      <trkpt lat="43.4855" lon="6.40096">
        <ele>121</ele>
        <time>2022-04-08T14:36:47Z</time>
      </trkpt>
      <trkpt lat="43.4855" lon="6.40096">
        <ele>121</ele>
        <time>2022-04-08T14:36:48Z</time>
      </trkpt>
      <trkpt lat="43.4855" lon="6.40096">
        <ele>121</ele>
        <time>2022-04-08T14:36:49Z</time>
      </trkpt>
      <trkpt lat="43.4855" lon="6.40096">
        <ele>121</ele>
        <time>2022-04-08T14:36:50Z</time>
      </trkpt>
      <trkpt lat="43.4855" lon="6.40096">
        <ele>121</ele>
        <time>2022-04-08T14:36:51Z</time>
      </trkpt>
      <trkpt lat="43.4855" lon="6.40096">
        <ele>121</ele>
        <time>2022-04-08T14:36:52Z</time>
      </trkpt>
      <trkpt lat="43.4855" lon="6.40096">
        <ele>121</ele>
        <time>2022-04-08T14:36:53Z</time>
      </trkpt>
      <trkpt lat="43.4855" lon="6.40096">
        <ele>121</ele>
        <time>2022-04-08T14:36:54Z</time>
      </trkpt>
      <trkpt lat="43.4855" lon="6.40096">
        <ele>121</ele>
        <time>2022-04-08T14:36:55Z</time>
      </trkpt>
      <trkpt lat="43.4855" lon="6.40096">
        <ele>121</ele>
        <time>2022-04-08T14:36:56Z</time>
      </trkpt>
      <trkpt lat="43.4855" lon="6.40096">
        <ele>121</ele>
        <time>2022-04-08T14:36:57Z</time>
      </trkpt>
      <trkpt lat="43.4855" lon="6.40096">
        <ele>121</ele>
        <time>2022-04-08T14:36:58Z</time>
      </trkpt>
      <trkpt lat="43.4855" lon="6.40096">
        <ele>121</ele>
        <time>2022-04-08T14:36:59Z</time>
      </trkpt>
      <trkpt lat="43.4855" lon="6.40096">
        <ele>121</ele>
        <time>2022-04-08T14:37:00Z</time>
      </trkpt>
      <trkpt lat="43.4855" lon="6.40096">
        <ele>121</ele>
        <time>2022-04-08T14:37:01Z</time>
      </trkpt>
      <trkpt lat="43.4855" lon="6.40096">
        <ele>121</ele>
        <time>2022-04-08T14:37:02Z</time>
      </trkpt>
      <trkpt lat="43.4855" lon="6.40096">
        <ele>121</ele>
        <time>2022-04-08T14:37:03Z</time>
      </trkpt>
      <trkpt lat="43.4855" lon="6.40096">
        <ele>121</ele>
        <time>2022-04-08T14:37:04Z</time>
      </trkpt>
      <trkpt lat="43.4855" lon="6.40096">
        <ele>121</ele>
        <time>2022-04-08T14:37:05Z</time>
      </trkpt>
      <trkpt lat="43.4855" lon="6.40096">
        <ele>121</ele>
        <time>2022-04-08T14:37:06Z</time>
      </trkpt>
      <trkpt lat="43.4855" lon="6.40096">
        <ele>121</ele>
        <time>2022-04-08T14:37:07Z</time>
      </trkpt>
      <trkpt lat="43.48551" lon="6.40094">
        <ele>121</ele>
        <time>2022-04-08T14:37:08Z</time>
      </trkpt>
      <trkpt lat="43.48551" lon="6.40094">
        <ele>121</ele>
        <time>2022-04-08T14:37:09Z</time>
      </trkpt>
      <trkpt lat="43.48551" lon="6.40094">
        <ele>121</ele>
        <time>2022-04-08T14:37:10Z</time>
      </trkpt>
      <trkpt lat="43.48551" lon="6.40094">
        <ele>121</ele>
        <time>2022-04-08T14:37:11Z</time>
      </trkpt>
      <trkpt lat="43.48551" lon="6.40094">
        <ele>121</ele>
        <time>2022-04-08T14:37:12Z</time>
      </trkpt>
      <trkpt lat="43.48551" lon="6.40094">
        <ele>121</ele>
        <time>2022-04-08T14:37:13Z</time>
      </trkpt>
      <trkpt lat="43.48551" lon="6.40094">
        <ele>121</ele>
        <time>2022-04-08T14:37:14Z</time>
      </trkpt>
      <trkpt lat="43.48551" lon="6.40094">
        <ele>121</ele>
        <time>2022-04-08T14:37:15Z</time>
      </trkpt>
      <trkpt lat="43.48551" lon="6.40094">
        <ele>121</ele>
        <time>2022-04-08T14:37:16Z</time>
      </trkpt>
      <trkpt lat="43.48551" lon="6.40094">
        <ele>121</ele>
        <time>2022-04-08T14:37:17Z</time>
      </trkpt>
      <trkpt lat="43.48551" lon="6.40094">
        <ele>121</ele>
        <time>2022-04-08T14:37:18Z</time>
      </trkpt>
      <trkpt lat="43.48551" lon="6.40094">
        <ele>121</ele>
        <time>2022-04-08T14:37:19Z</time>
      </trkpt>
      <trkpt lat="43.48552" lon="6.40093">
        <ele>121</ele>
        <time>2022-04-08T14:37:20Z</time>
      </trkpt>
      <trkpt lat="43.48553" lon="6.40093">
        <ele>121</ele>
        <time>2022-04-08T14:37:21Z</time>
      </trkpt>
      <trkpt lat="43.48554" lon="6.40092">
        <ele>121</ele>
        <time>2022-04-08T14:37:22Z</time>
      </trkpt>
      <trkpt lat="43.48555" lon="6.40092">
        <ele>121</ele>
        <time>2022-04-08T14:37:23Z</time>
      </trkpt>
      <trkpt lat="43.48555" lon="6.40091">
        <ele>121</ele>
        <time>2022-04-08T14:37:24Z</time>
      </trkpt>
      <trkpt lat="43.48555" lon="6.40091">
        <ele>121</ele>
        <time>2022-04-08T14:37:25Z</time>
      </trkpt>
      <trkpt lat="43.48556" lon="6.4009">
        <ele>121</ele>
        <time>2022-04-08T14:37:26Z</time>
      </trkpt>
      <trkpt lat="43.48556" lon="6.40089">
        <ele>121</ele>
        <time>2022-04-08T14:37:27Z</time>
      </trkpt>
      <trkpt lat="43.48557" lon="6.40088">
        <ele>121</ele>
        <time>2022-04-08T14:37:28Z</time>
      </trkpt>
      <trkpt lat="43.48557" lon="6.40087">
        <ele>121</ele>
        <time>2022-04-08T14:37:29Z</time>
      </trkpt>
      <trkpt lat="43.48557" lon="6.40086">
        <ele>121</ele>
        <time>2022-04-08T14:37:30Z</time>
      </trkpt>
      <trkpt lat="43.48557" lon="6.40085">
        <ele>121</ele>
        <time>2022-04-08T14:37:31Z</time>
      </trkpt>
      <trkpt lat="43.48557" lon="6.40085">
        <ele>122</ele>
        <time>2022-04-08T14:37:32Z</time>
      </trkpt>
      <trkpt lat="43.48557" lon="6.40084">
        <ele>122</ele>
        <time>2022-04-08T14:37:33Z</time>
      </trkpt>
      <trkpt lat="43.48557" lon="6.40084">
        <ele>122</ele>
        <time>2022-04-08T14:37:34Z</time>
      </trkpt>
      <trkpt lat="43.48557" lon="6.40084">
        <ele>122</ele>
        <time>2022-04-08T14:37:35Z</time>
      </trkpt>
      <trkpt lat="43.48557" lon="6.40083">
        <ele>122</ele>
        <time>2022-04-08T14:37:36Z</time>
      </trkpt>
      <trkpt lat="43.48557" lon="6.40082">
        <ele>122</ele>
        <time>2022-04-08T14:37:37Z</time>
      </trkpt>
      <trkpt lat="43.48557" lon="6.40081">
        <ele>122</ele>
        <time>2022-04-08T14:37:38Z</time>
      </trkpt>
      <trkpt lat="43.48557" lon="6.4008">
        <ele>122</ele>
        <time>2022-04-08T14:37:39Z</time>
      </trkpt>
      <trkpt lat="43.48557" lon="6.40078">
        <ele>122</ele>
        <time>2022-04-08T14:37:40Z</time>
      </trkpt>
      <trkpt lat="43.48557" lon="6.40077">
        <ele>122</ele>
        <time>2022-04-08T14:37:41Z</time>
      </trkpt>
      <trkpt lat="43.48557" lon="6.40076">
        <ele>122</ele>
        <time>2022-04-08T14:37:42Z</time>
      </trkpt>
      <trkpt lat="43.48557" lon="6.40075">
        <ele>122</ele>
        <time>2022-04-08T14:37:43Z</time>
      </trkpt>
      <trkpt lat="43.48557" lon="6.40075">
        <ele>122</ele>
        <time>2022-04-08T14:37:44Z</time>
      </trkpt>
      <trkpt lat="43.48557" lon="6.40075">
        <ele>122</ele>
        <time>2022-04-08T14:37:45Z</time>
      </trkpt>
      <trkpt lat="43.48557" lon="6.40074">
        <ele>122</ele>
        <time>2022-04-08T14:37:46Z</time>
      </trkpt>
      <trkpt lat="43.48557" lon="6.40074">
        <ele>122</ele>
        <time>2022-04-08T14:37:47Z</time>
      </trkpt>
      <trkpt lat="43.48558" lon="6.40073">
        <ele>122</ele>
        <time>2022-04-08T14:37:48Z</time>
      </trkpt>
      <trkpt lat="43.48558" lon="6.40072">
        <ele>122</ele>
        <time>2022-04-08T14:37:49Z</time>
      </trkpt>
      <trkpt lat="43.48558" lon="6.40071">
        <ele>122</ele>
        <time>2022-04-08T14:37:50Z</time>
      </trkpt>
      <trkpt lat="43.48559" lon="6.4007">
        <ele>122</ele>
        <time>2022-04-08T14:37:51Z</time>
      </trkpt>
      <trkpt lat="43.48559" lon="6.40069">
        <ele>122</ele>
        <time>2022-04-08T14:37:52Z</time>
      </trkpt>
      <trkpt lat="43.4856" lon="6.40068">
        <ele>122</ele>
        <time>2022-04-08T14:37:53Z</time>
      </trkpt>
      <trkpt lat="43.4856" lon="6.40068">
        <ele>123</ele>
        <time>2022-04-08T14:37:54Z</time>
      </trkpt>
      <trkpt lat="43.48561" lon="6.40067">
        <ele>123</ele>
        <time>2022-04-08T14:37:55Z</time>
      </trkpt>
      <trkpt lat="43.48561" lon="6.40067">
        <ele>123</ele>
        <time>2022-04-08T14:37:56Z</time>
      </trkpt>
      <trkpt lat="43.48561" lon="6.40066">
        <ele>123</ele>
        <time>2022-04-08T14:37:57Z</time>
      </trkpt>
      <trkpt lat="43.48561" lon="6.40066">
        <ele>123</ele>
        <time>2022-04-08T14:37:58Z</time>
      </trkpt>
      <trkpt lat="43.48561" lon="6.40066">
        <ele>123</ele>
        <time>2022-04-08T14:37:59Z</time>
      </trkpt>
      <trkpt lat="43.48561" lon="6.40066">
        <ele>123</ele>
        <time>2022-04-08T14:38:00Z</time>
      </trkpt>
      <trkpt lat="43.48561" lon="6.40066">
        <ele>123</ele>
        <time>2022-04-08T14:38:01Z</time>
      </trkpt>
      <trkpt lat="43.48561" lon="6.40065">
        <ele>123</ele>
        <time>2022-04-08T14:38:02Z</time>
      </trkpt>
      <trkpt lat="43.48561" lon="6.40065">
        <ele>123</ele>
        <time>2022-04-08T14:38:03Z</time>
      </trkpt>
      <trkpt lat="43.48561" lon="6.40064">
        <ele>123</ele>
        <time>2022-04-08T14:38:04Z</time>
      </trkpt>
      <trkpt lat="43.48562" lon="6.40064">
        <ele>123</ele>
        <time>2022-04-08T14:38:05Z</time>
      </trkpt>
      <trkpt lat="43.48562" lon="6.40064">
        <ele>123</ele>
        <time>2022-04-08T14:38:06Z</time>
      </trkpt>
      <trkpt lat="43.48562" lon="6.40063">
        <ele>123</ele>
        <time>2022-04-08T14:38:07Z</time>
      </trkpt>
      <trkpt lat="43.48562" lon="6.40062">
        <ele>123</ele>
        <time>2022-04-08T14:38:08Z</time>
      </trkpt>
      <trkpt lat="43.48562" lon="6.4006">
        <ele>122</ele>
        <time>2022-04-08T14:38:08Z</time>
      </trkpt>
      <trkpt lat="43.48562" lon="6.40058">
        <ele>122</ele>
        <time>2022-04-08T14:38:09Z</time>
      </trkpt>
      <trkpt lat="43.48563" lon="6.40057">
        <ele>122</ele>
        <time>2022-04-08T14:38:10Z</time>
      </trkpt>
      <trkpt lat="43.48563" lon="6.40056">
        <ele>122</ele>
        <time>2022-04-08T14:38:11Z</time>
      </trkpt>
      <trkpt lat="43.48563" lon="6.40055">
        <ele>122</ele>
        <time>2022-04-08T14:38:12Z</time>
      </trkpt>
      <trkpt lat="43.48563" lon="6.40054">
        <ele>122</ele>
        <time>2022-04-08T14:38:13Z</time>
      </trkpt>
      <trkpt lat="43.48564" lon="6.40053">
        <ele>122</ele>
        <time>2022-04-08T14:38:14Z</time>
      </trkpt>
      <trkpt lat="43.48564" lon="6.40052">
        <ele>122</ele>
        <time>2022-04-08T14:38:15Z</time>
      </trkpt>
      <trkpt lat="43.48564" lon="6.40051">
        <ele>122</ele>
        <time>2022-04-08T14:38:16Z</time>
      </trkpt>
      <trkpt lat="43.48564" lon="6.4005">
        <ele>122</ele>
        <time>2022-04-08T14:38:17Z</time>
      </trkpt>
      <trkpt lat="43.48564" lon="6.4005">
        <ele>122</ele>
        <time>2022-04-08T14:38:18Z</time>
      </trkpt>
      <trkpt lat="43.48563" lon="6.40049">
        <ele>122</ele>
        <time>2022-04-08T14:38:19Z</time>
      </trkpt>
      <trkpt lat="43.48563" lon="6.40048">
        <ele>122</ele>
        <time>2022-04-08T14:38:20Z</time>
      </trkpt>
      <trkpt lat="43.48562" lon="6.40047">
        <ele>122</ele>
        <time>2022-04-08T14:38:21Z</time>
      </trkpt>
      <trkpt lat="43.48562" lon="6.40046">
        <ele>122</ele>
        <time>2022-04-08T14:38:22Z</time>
      </trkpt>
      <trkpt lat="43.48561" lon="6.40045">
        <ele>122</ele>
        <time>2022-04-08T14:38:23Z</time>
      </trkpt>
      <trkpt lat="43.48561" lon="6.40044">
        <ele>122</ele>
        <time>2022-04-08T14:38:24Z</time>
      </trkpt>
      <trkpt lat="43.4856" lon="6.40043">
        <ele>122</ele>
        <time>2022-04-08T14:38:25Z</time>
      </trkpt>
      <trkpt lat="43.4856" lon="6.40042">
        <ele>122</ele>
        <time>2022-04-08T14:38:26Z</time>
      </trkpt>
      <trkpt lat="43.48559" lon="6.40041">
        <ele>122</ele>
        <time>2022-04-08T14:38:27Z</time>
      </trkpt>
      <trkpt lat="43.48558" lon="6.4004">
        <ele>122</ele>
        <time>2022-04-08T14:38:28Z</time>
      </trkpt>
      <trkpt lat="43.48558" lon="6.40039">
        <ele>123</ele>
        <time>2022-04-08T14:38:29Z</time>
      </trkpt>
      <trkpt lat="43.48557" lon="6.40039">
        <ele>123</ele>
        <time>2022-04-08T14:38:30Z</time>
      </trkpt>
      <trkpt lat="43.48556" lon="6.40037">
        <ele>123</ele>
        <time>2022-04-08T14:38:31Z</time>
      </trkpt>
      <trkpt lat="43.48555" lon="6.40036">
        <ele>123</ele>
        <time>2022-04-08T14:38:32Z</time>
      </trkpt>
      <trkpt lat="43.48555" lon="6.40036">
        <ele>123</ele>
        <time>2022-04-08T14:38:33Z</time>
      </trkpt>
      <trkpt lat="43.48555" lon="6.40035">
        <ele>123</ele>
        <time>2022-04-08T14:38:34Z</time>
      </trkpt>
      <trkpt lat="43.48555" lon="6.40035">
        <ele>123</ele>
        <time>2022-04-08T14:38:35Z</time>
      </trkpt>
      <trkpt lat="43.48554" lon="6.40035">
        <ele>123</ele>
        <time>2022-04-08T14:38:36Z</time>
      </trkpt>
      <trkpt lat="43.48554" lon="6.40035">
        <ele>124</ele>
        <time>2022-04-08T14:38:37Z</time>
      </trkpt>
      <trkpt lat="43.48554" lon="6.40035">
        <ele>124</ele>
        <time>2022-04-08T14:38:38Z</time>
      </trkpt>
      <trkpt lat="43.48554" lon="6.40035">
        <ele>124</ele>
        <time>2022-04-08T14:38:39Z</time>
      </trkpt>
      <trkpt lat="43.48554" lon="6.40035">
        <ele>124</ele>
        <time>2022-04-08T14:38:40Z</time>
      </trkpt>
      <trkpt lat="43.48554" lon="6.40035">
        <ele>124</ele>
        <time>2022-04-08T14:38:41Z</time>
      </trkpt>
      <trkpt lat="43.48554" lon="6.40033">
        <ele>124</ele>
        <time>2022-04-08T14:38:42Z</time>
      </trkpt>
      <trkpt lat="43.48554" lon="6.40033">
        <ele>124</ele>
        <time>2022-04-08T14:38:43Z</time>
      </trkpt>
      <trkpt lat="43.48554" lon="6.40032">
        <ele>124</ele>
        <time>2022-04-08T14:38:44Z</time>
      </trkpt>
      <trkpt lat="43.48554" lon="6.40031">
        <ele>124</ele>
        <time>2022-04-08T14:38:45Z</time>
      </trkpt>
      <trkpt lat="43.48554" lon="6.40029">
        <ele>124</ele>
        <time>2022-04-08T14:38:46Z</time>
      </trkpt>
      <trkpt lat="43.48554" lon="6.40027">
        <ele>124</ele>
        <time>2022-04-08T14:38:47Z</time>
      </trkpt>
      <trkpt lat="43.48554" lon="6.40026">
        <ele>124</ele>
        <time>2022-04-08T14:38:48Z</time>
      </trkpt>
      <trkpt lat="43.48553" lon="6.40025">
        <ele>125</ele>
        <time>2022-04-08T14:38:49Z</time>
      </trkpt>
      <trkpt lat="43.48553" lon="6.40024">
        <ele>125</ele>
        <time>2022-04-08T14:38:50Z</time>
      </trkpt>
      <trkpt lat="43.48553" lon="6.40023">
        <ele>125</ele>
        <time>2022-04-08T14:38:51Z</time>
      </trkpt>
      <trkpt lat="43.48553" lon="6.40021">
        <ele>125</ele>
        <time>2022-04-08T14:38:52Z</time>
      </trkpt>
      <trkpt lat="43.48553" lon="6.4002">
        <ele>125</ele>
        <time>2022-04-08T14:38:53Z</time>
      </trkpt>
      <trkpt lat="43.48552" lon="6.40019">
        <ele>125</ele>
        <time>2022-04-08T14:38:54Z</time>
      </trkpt>
      <trkpt lat="43.48552" lon="6.40018">
        <ele>125</ele>
        <time>2022-04-08T14:38:55Z</time>
      </trkpt>
      <trkpt lat="43.48552" lon="6.40017">
        <ele>125</ele>
        <time>2022-04-08T14:38:56Z</time>
      </trkpt>
      <trkpt lat="43.48552" lon="6.40016">
        <ele>125</ele>
        <time>2022-04-08T14:38:57Z</time>
      </trkpt>
      <trkpt lat="43.48552" lon="6.40015">
        <ele>125</ele>
        <time>2022-04-08T14:38:58Z</time>
      </trkpt>
      <trkpt lat="43.48551" lon="6.40014">
        <ele>125</ele>
        <time>2022-04-08T14:38:59Z</time>
      </trkpt>
      <trkpt lat="43.48551" lon="6.40012">
        <ele>125</ele>
        <time>2022-04-08T14:39:00Z</time>
      </trkpt>
      <trkpt lat="43.48551" lon="6.40011">
        <ele>125</ele>
        <time>2022-04-08T14:39:01Z</time>
      </trkpt>
      <trkpt lat="43.4855" lon="6.40009">
        <ele>125</ele>
        <time>2022-04-08T14:39:02Z</time>
      </trkpt>
      <trkpt lat="43.4855" lon="6.40007">
        <ele>125</ele>
        <time>2022-04-08T14:39:03Z</time>
      </trkpt>
      <trkpt lat="43.48549" lon="6.40006">
        <ele>125</ele>
        <time>2022-04-08T14:39:04Z</time>
      </trkpt>
      <trkpt lat="43.48549" lon="6.40003">
        <ele>125</ele>
        <time>2022-04-08T14:39:05Z</time>
      </trkpt>
      <trkpt lat="43.48549" lon="6.40002">
        <ele>125</ele>
        <time>2022-04-08T14:39:06Z</time>
      </trkpt>
      <trkpt lat="43.48548" lon="6.40001">
        <ele>125</ele>
        <time>2022-04-08T14:39:07Z</time>
      </trkpt>
      <trkpt lat="43.48548" lon="6.4">
        <ele>125</ele>
        <time>2022-04-08T14:39:08Z</time>
      </trkpt>
      <trkpt lat="43.48548" lon="6.39999">
        <ele>125</ele>
        <time>2022-04-08T14:39:09Z</time>
      </trkpt>
      <trkpt lat="43.48548" lon="6.39998">
        <ele>126</ele>
        <time>2022-04-08T14:39:10Z</time>
      </trkpt>
      <trkpt lat="43.48548" lon="6.39998">
        <ele>126</ele>
        <time>2022-04-08T14:39:11Z</time>
      </trkpt>
      <trkpt lat="43.48548" lon="6.39997">
        <ele>126</ele>
        <time>2022-04-08T14:39:12Z</time>
      </trkpt>
      <trkpt lat="43.48548" lon="6.39996">
        <ele>126</ele>
        <time>2022-04-08T14:39:13Z</time>
      </trkpt>
      <trkpt lat="43.48549" lon="6.39994">
        <ele>126</ele>
        <time>2022-04-08T14:39:14Z</time>
      </trkpt>
      <trkpt lat="43.48549" lon="6.39992">
        <ele>126</ele>
        <time>2022-04-08T14:39:15Z</time>
      </trkpt>
      <trkpt lat="43.48549" lon="6.39991">
        <ele>126</ele>
        <time>2022-04-08T14:39:16Z</time>
      </trkpt>
      <trkpt lat="43.48549" lon="6.3999">
        <ele>126</ele>
        <time>2022-04-08T14:39:17Z</time>
      </trkpt>
      <trkpt lat="43.48549" lon="6.39989">
        <ele>127</ele>
        <time>2022-04-08T14:39:18Z</time>
      </trkpt>
      <trkpt lat="43.48549" lon="6.39988">
        <ele>127</ele>
        <time>2022-04-08T14:39:19Z</time>
      </trkpt>
      <trkpt lat="43.48549" lon="6.39988">
        <ele>128</ele>
        <time>2022-04-08T14:39:20Z</time>
      </trkpt>
      <trkpt lat="43.48549" lon="6.39987">
        <ele>128</ele>
        <time>2022-04-08T14:39:21Z</time>
      </trkpt>
      <trkpt lat="43.48548" lon="6.39987">
        <ele>128</ele>
        <time>2022-04-08T14:39:22Z</time>
      </trkpt>
      <trkpt lat="43.48548" lon="6.39987">
        <ele>128</ele>
        <time>2022-04-08T14:39:23Z</time>
      </trkpt>
      <trkpt lat="43.48548" lon="6.39986">
        <ele>128</ele>
        <time>2022-04-08T14:39:24Z</time>
      </trkpt>
      <trkpt lat="43.48548" lon="6.39986">
        <ele>128</ele>
        <time>2022-04-08T14:39:25Z</time>
      </trkpt>
      <trkpt lat="43.48548" lon="6.39985">
        <ele>128</ele>
        <time>2022-04-08T14:39:26Z</time>
      </trkpt>
      <trkpt lat="43.48547" lon="6.39984">
        <ele>128</ele>
        <time>2022-04-08T14:39:27Z</time>
      </trkpt>
      <trkpt lat="43.48546" lon="6.39982">
        <ele>128</ele>
        <time>2022-04-08T14:39:28Z</time>
      </trkpt>
      <trkpt lat="43.48546" lon="6.3998">
        <ele>129</ele>
        <time>2022-04-08T14:39:29Z</time>
      </trkpt>
      <trkpt lat="43.48545" lon="6.39979">
        <ele>129</ele>
        <time>2022-04-08T14:39:30Z</time>
      </trkpt>
      <trkpt lat="43.48545" lon="6.39977">
        <ele>129</ele>
        <time>2022-04-08T14:39:31Z</time>
      </trkpt>
      <trkpt lat="43.48545" lon="6.39976">
        <ele>129</ele>
        <time>2022-04-08T14:39:32Z</time>
      </trkpt>
      <trkpt lat="43.48544" lon="6.39975">
        <ele>129</ele>
        <time>2022-04-08T14:39:33Z</time>
      </trkpt>
      <trkpt lat="43.48544" lon="6.39973">
        <ele>129</ele>
        <time>2022-04-08T14:39:34Z</time>
      </trkpt>
      <trkpt lat="43.48544" lon="6.39972">
        <ele>129</ele>
        <time>2022-04-08T14:39:35Z</time>
      </trkpt>
      <trkpt lat="43.48544" lon="6.39971">
        <ele>129</ele>
        <time>2022-04-08T14:39:36Z</time>
      </trkpt>
      <trkpt lat="43.48544" lon="6.39969">
        <ele>129</ele>
        <time>2022-04-08T14:39:37Z</time>
      </trkpt>
      <trkpt lat="43.48544" lon="6.39968">
        <ele>130</ele>
        <time>2022-04-08T14:39:38Z</time>
      </trkpt>
      <trkpt lat="43.48544" lon="6.39966">
        <ele>130</ele>
        <time>2022-04-08T14:39:39Z</time>
      </trkpt>
      <trkpt lat="43.48544" lon="6.39965">
        <ele>130</ele>
        <time>2022-04-08T14:39:40Z</time>
      </trkpt>
      <trkpt lat="43.48544" lon="6.39964">
        <ele>130</ele>
        <time>2022-04-08T14:39:41Z</time>
      </trkpt>
      <trkpt lat="43.48544" lon="6.39962">
        <ele>130</ele>
        <time>2022-04-08T14:39:42Z</time>
      </trkpt>
      <trkpt lat="43.48544" lon="6.39961">
        <ele>130</ele>
        <time>2022-04-08T14:39:43Z</time>
      </trkpt>
      <trkpt lat="43.48544" lon="6.39959">
        <ele>130</ele>
        <time>2022-04-08T14:39:44Z</time>
      </trkpt>
      <trkpt lat="43.48544" lon="6.39958">
        <ele>130</ele>
        <time>2022-04-08T14:39:45Z</time>
      </trkpt>
      <trkpt lat="43.48544" lon="6.39957">
        <ele>130</ele>
        <time>2022-04-08T14:39:46Z</time>
      </trkpt>
      <trkpt lat="43.48545" lon="6.39955">
        <ele>130</ele>
        <time>2022-04-08T14:39:47Z</time>
      </trkpt>
      <trkpt lat="43.48545" lon="6.39954">
        <ele>130</ele>
        <time>2022-04-08T14:39:48Z</time>
      </trkpt>
      <trkpt lat="43.48544" lon="6.39952">
        <ele>130</ele>
        <time>2022-04-08T14:39:49Z</time>
      </trkpt>
      <trkpt lat="43.48544" lon="6.39951">
        <ele>130</ele>
        <time>2022-04-08T14:39:50Z</time>
      </trkpt>
      <trkpt lat="43.48544" lon="6.3995">
        <ele>130</ele>
        <time>2022-04-08T14:39:51Z</time>
      </trkpt>
      <trkpt lat="43.48544" lon="6.39949">
        <ele>130</ele>
        <time>2022-04-08T14:39:52Z</time>
      </trkpt>
      <trkpt lat="43.48544" lon="6.39948">
        <ele>130</ele>
        <time>2022-04-08T14:39:53Z</time>
      </trkpt>
      <trkpt lat="43.48544" lon="6.39945">
        <ele>131</ele>
        <time>2022-04-08T14:39:54Z</time>
      </trkpt>
      <trkpt lat="43.48544" lon="6.39942">
        <ele>131</ele>
        <time>2022-04-08T14:39:55Z</time>
      </trkpt>
      <trkpt lat="43.48543" lon="6.3994">
        <ele>131</ele>
        <time>2022-04-08T14:39:56Z</time>
      </trkpt>
      <trkpt lat="43.48543" lon="6.39938">
        <ele>131</ele>
        <time>2022-04-08T14:39:57Z</time>
      </trkpt>
      <trkpt lat="43.48543" lon="6.39936">
        <ele>131</ele>
        <time>2022-04-08T14:39:58Z</time>
      </trkpt>
      <trkpt lat="43.48543" lon="6.39934">
        <ele>131</ele>
        <time>2022-04-08T14:39:59Z</time>
      </trkpt>
      <trkpt lat="43.48542" lon="6.39932">
        <ele>131</ele>
        <time>2022-04-08T14:40:00Z</time>
      </trkpt>
      <trkpt lat="43.48542" lon="6.3993">
        <ele>131</ele>
        <time>2022-04-08T14:40:01Z</time>
      </trkpt>
      <trkpt lat="43.48542" lon="6.39928">
        <ele>131</ele>
        <time>2022-04-08T14:40:02Z</time>
      </trkpt>
      <trkpt lat="43.48541" lon="6.39927">
        <ele>131</ele>
        <time>2022-04-08T14:40:03Z</time>
      </trkpt>
      <trkpt lat="43.48541" lon="6.39925">
        <ele>131</ele>
        <time>2022-04-08T14:40:04Z</time>
      </trkpt>
      <trkpt lat="43.48541" lon="6.39923">
        <ele>131</ele>
        <time>2022-04-08T14:40:05Z</time>
      </trkpt>
      <trkpt lat="43.4854" lon="6.39922">
        <ele>131</ele>
        <time>2022-04-08T14:40:06Z</time>
      </trkpt>
      <trkpt lat="43.4854" lon="6.3992">
        <ele>131</ele>
        <time>2022-04-08T14:40:07Z</time>
      </trkpt>
      <trkpt lat="43.48539" lon="6.39919">
        <ele>131</ele>
        <time>2022-04-08T14:40:08Z</time>
      </trkpt>
      <trkpt lat="43.48539" lon="6.39917">
        <ele>131</ele>
        <time>2022-04-08T14:40:09Z</time>
      </trkpt>
      <trkpt lat="43.48539" lon="6.39915">
        <ele>131</ele>
        <time>2022-04-08T14:40:10Z</time>
      </trkpt>
      <trkpt lat="43.48539" lon="6.39913">
        <ele>131</ele>
        <time>2022-04-08T14:40:11Z</time>
      </trkpt>
      <trkpt lat="43.48538" lon="6.39912">
        <ele>132</ele>
        <time>2022-04-08T14:40:12Z</time>
      </trkpt>
      <trkpt lat="43.48538" lon="6.3991">
        <ele>132</ele>
        <time>2022-04-08T14:40:13Z</time>
      </trkpt>
      <trkpt lat="43.48538" lon="6.39909">
        <ele>132</ele>
        <time>2022-04-08T14:40:14Z</time>
      </trkpt>
      <trkpt lat="43.48538" lon="6.39907">
        <ele>132</ele>
        <time>2022-04-08T14:40:15Z</time>
      </trkpt>
      <trkpt lat="43.48537" lon="6.39905">
        <ele>132</ele>
        <time>2022-04-08T14:40:16Z</time>
      </trkpt>
      <trkpt lat="43.48537" lon="6.39904">
        <ele>133</ele>
        <time>2022-04-08T14:40:17Z</time>
      </trkpt>
      <trkpt lat="43.48537" lon="6.39902">
        <ele>133</ele>
        <time>2022-04-08T14:40:18Z</time>
      </trkpt>
      <trkpt lat="43.48536" lon="6.399">
        <ele>133</ele>
        <time>2022-04-08T14:40:19Z</time>
      </trkpt>
      <trkpt lat="43.48536" lon="6.39899">
        <ele>133</ele>
        <time>2022-04-08T14:40:20Z</time>
      </trkpt>
      <trkpt lat="43.48536" lon="6.39897">
        <ele>133</ele>
        <time>2022-04-08T14:40:21Z</time>
      </trkpt>
      <trkpt lat="43.48536" lon="6.39896">
        <ele>133</ele>
        <time>2022-04-08T14:40:22Z</time>
      </trkpt>
      <trkpt lat="43.48536" lon="6.39895">
        <ele>133</ele>
        <time>2022-04-08T14:40:23Z</time>
      </trkpt>
      <trkpt lat="43.48535" lon="6.39893">
        <ele>134</ele>
        <time>2022-04-08T14:40:24Z</time>
      </trkpt>
      <trkpt lat="43.48535" lon="6.39892">
        <ele>134</ele>
        <time>2022-04-08T14:40:25Z</time>
      </trkpt>
      <trkpt lat="43.48535" lon="6.3989">
        <ele>135</ele>
        <time>2022-04-08T14:40:26Z</time>
      </trkpt>
      <trkpt lat="43.48535" lon="6.39889">
        <ele>135</ele>
        <time>2022-04-08T14:40:27Z</time>
      </trkpt>
      <trkpt lat="43.48536" lon="6.39888">
        <ele>135</ele>
        <time>2022-04-08T14:40:28Z</time>
      </trkpt>
      <trkpt lat="43.48536" lon="6.39887">
        <ele>135</ele>
        <time>2022-04-08T14:40:29Z</time>
      </trkpt>
      <trkpt lat="43.48536" lon="6.39885">
        <ele>135</ele>
        <time>2022-04-08T14:40:30Z</time>
      </trkpt>
      <trkpt lat="43.48536" lon="6.39884">
        <ele>135</ele>
        <time>2022-04-08T14:40:31Z</time>
      </trkpt>
      <trkpt lat="43.48536" lon="6.39883">
        <ele>135</ele>
        <time>2022-04-08T14:40:32Z</time>
      </trkpt>
      <trkpt lat="43.48536" lon="6.39882">
        <ele>135</ele>
        <time>2022-04-08T14:40:33Z</time>
      </trkpt>
      <trkpt lat="43.48536" lon="6.3988">
        <ele>135</ele>
        <time>2022-04-08T14:40:34Z</time>
      </trkpt>
      <trkpt lat="43.48536" lon="6.39879">
        <ele>135</ele>
        <time>2022-04-08T14:40:35Z</time>
      </trkpt>
      <trkpt lat="43.48536" lon="6.39878">
        <ele>135</ele>
        <time>2022-04-08T14:40:36Z</time>
      </trkpt>
      <trkpt lat="43.48536" lon="6.39876">
        <ele>135</ele>
        <time>2022-04-08T14:40:37Z</time>
      </trkpt>
      <trkpt lat="43.48536" lon="6.39875">
        <ele>135</ele>
        <time>2022-04-08T14:40:38Z</time>
      </trkpt>
      <trkpt lat="43.48536" lon="6.39873">
        <ele>135</ele>
        <time>2022-04-08T14:40:39Z</time>
      </trkpt>
      <trkpt lat="43.48536" lon="6.39871">
        <ele>135</ele>
        <time>2022-04-08T14:40:40Z</time>
      </trkpt>
      <trkpt lat="43.48536" lon="6.3987">
        <ele>135</ele>
        <time>2022-04-08T14:40:41Z</time>
      </trkpt>
      <trkpt lat="43.48536" lon="6.39869">
        <ele>135</ele>
        <time>2022-04-08T14:40:42Z</time>
      </trkpt>
      <trkpt lat="43.48535" lon="6.39867">
        <ele>135</ele>
        <time>2022-04-08T14:40:43Z</time>
      </trkpt>
      <trkpt lat="43.48535" lon="6.39866">
        <ele>135</ele>
        <time>2022-04-08T14:40:44Z</time>
      </trkpt>
      <trkpt lat="43.48535" lon="6.39864">
        <ele>135</ele>
        <time>2022-04-08T14:40:45Z</time>
      </trkpt>
      <trkpt lat="43.48534" lon="6.39862">
        <ele>135</ele>
        <time>2022-04-08T14:40:46Z</time>
      </trkpt>
      <trkpt lat="43.48534" lon="6.39861">
        <ele>135</ele>
        <time>2022-04-08T14:40:47Z</time>
      </trkpt>
      <trkpt lat="43.48534" lon="6.39859">
        <ele>135</ele>
        <time>2022-04-08T14:40:48Z</time>
      </trkpt>
      <trkpt lat="43.48533" lon="6.39857">
        <ele>135</ele>
        <time>2022-04-08T14:40:49Z</time>
      </trkpt>
      <trkpt lat="43.48533" lon="6.39856">
        <ele>136</ele>
        <time>2022-04-08T14:40:50Z</time>
      </trkpt>
      <trkpt lat="43.48533" lon="6.39854">
        <ele>136</ele>
        <time>2022-04-08T14:40:51Z</time>
      </trkpt>
      <trkpt lat="43.48533" lon="6.39853">
        <ele>136</ele>
        <time>2022-04-08T14:40:52Z</time>
      </trkpt>
      <trkpt lat="43.48533" lon="6.39851">
        <ele>137</ele>
        <time>2022-04-08T14:40:53Z</time>
      </trkpt>
      <trkpt lat="43.48533" lon="6.39849">
        <ele>137</ele>
        <time>2022-04-08T14:40:54Z</time>
      </trkpt>
      <trkpt lat="43.48533" lon="6.39847">
        <ele>137</ele>
        <time>2022-04-08T14:40:55Z</time>
      </trkpt>
      <trkpt lat="43.48532" lon="6.39846">
        <ele>137</ele>
        <time>2022-04-08T14:40:56Z</time>
      </trkpt>
      <trkpt lat="43.48532" lon="6.39844">
        <ele>137</ele>
        <time>2022-04-08T14:40:57Z</time>
      </trkpt>
      <trkpt lat="43.48532" lon="6.39842">
        <ele>137</ele>
        <time>2022-04-08T14:40:58Z</time>
      </trkpt>
      <trkpt lat="43.48532" lon="6.3984">
        <ele>138</ele>
        <time>2022-04-08T14:40:59Z</time>
      </trkpt>
      <trkpt lat="43.48532" lon="6.39838">
        <ele>138</ele>
        <time>2022-04-08T14:41:00Z</time>
      </trkpt>
      <trkpt lat="43.48532" lon="6.39837">
        <ele>138</ele>
        <time>2022-04-08T14:41:01Z</time>
      </trkpt>
      <trkpt lat="43.48532" lon="6.39835">
        <ele>138</ele>
        <time>2022-04-08T14:41:02Z</time>
      </trkpt>
      <trkpt lat="43.48532" lon="6.39834">
        <ele>138</ele>
        <time>2022-04-08T14:41:03Z</time>
      </trkpt>
      <trkpt lat="43.48532" lon="6.39832">
        <ele>138</ele>
        <time>2022-04-08T14:41:04Z</time>
      </trkpt>
      <trkpt lat="43.48532" lon="6.3983">
        <ele>139</ele>
        <time>2022-04-08T14:41:05Z</time>
      </trkpt>
      <trkpt lat="43.48532" lon="6.39828">
        <ele>139</ele>
        <time>2022-04-08T14:41:06Z</time>
      </trkpt>
      <trkpt lat="43.48531" lon="6.39826">
        <ele>139</ele>
        <time>2022-04-08T14:41:07Z</time>
      </trkpt>
      <trkpt lat="43.48531" lon="6.39825">
        <ele>139</ele>
        <time>2022-04-08T14:41:08Z</time>
      </trkpt>
      <trkpt lat="43.48531" lon="6.39823">
        <ele>139</ele>
        <time>2022-04-08T14:41:09Z</time>
      </trkpt>
      <trkpt lat="43.48531" lon="6.39821">
        <ele>139</ele>
        <time>2022-04-08T14:41:10Z</time>
      </trkpt>
      <trkpt lat="43.48531" lon="6.3982">
        <ele>139</ele>
        <time>2022-04-08T14:41:11Z</time>
      </trkpt>
      <trkpt lat="43.48531" lon="6.39818">
        <ele>139</ele>
        <time>2022-04-08T14:41:12Z</time>
      </trkpt>
      <trkpt lat="43.48531" lon="6.39817">
        <ele>139</ele>
        <time>2022-04-08T14:41:13Z</time>
      </trkpt>
      <trkpt lat="43.48531" lon="6.39815">
        <ele>139</ele>
        <time>2022-04-08T14:41:14Z</time>
      </trkpt>
      <trkpt lat="43.48532" lon="6.39814">
        <ele>139</ele>
        <time>2022-04-08T14:41:15Z</time>
      </trkpt>
      <trkpt lat="43.48532" lon="6.39812">
        <ele>139</ele>
        <time>2022-04-08T14:41:16Z</time>
      </trkpt>
      <trkpt lat="43.48532" lon="6.39811">
        <ele>139</ele>
        <time>2022-04-08T14:41:17Z</time>
      </trkpt>
      <trkpt lat="43.48533" lon="6.39809">
        <ele>139</ele>
        <time>2022-04-08T14:41:18Z</time>
      </trkpt>
      <trkpt lat="43.48533" lon="6.39808">
        <ele>139</ele>
        <time>2022-04-08T14:41:19Z</time>
      </trkpt>
      <trkpt lat="43.48533" lon="6.39807">
        <ele>139</ele>
        <time>2022-04-08T14:41:20Z</time>
      </trkpt>
      <trkpt lat="43.48533" lon="6.39806">
        <ele>139</ele>
        <time>2022-04-08T14:41:21Z</time>
      </trkpt>
      <trkpt lat="43.48533" lon="6.39805">
        <ele>139</ele>
        <time>2022-04-08T14:41:22Z</time>
      </trkpt>
      <trkpt lat="43.48533" lon="6.39804">
        <ele>139</ele>
        <time>2022-04-08T14:41:23Z</time>
      </trkpt>
      <trkpt lat="43.48533" lon="6.39802">
        <ele>139</ele>
        <time>2022-04-08T14:41:24Z</time>
      </trkpt>
      <trkpt lat="43.48533" lon="6.39802">
        <ele>139</ele>
        <time>2022-04-08T14:41:25Z</time>
      </trkpt>
      <trkpt lat="43.48532" lon="6.39801">
        <ele>139</ele>
        <time>2022-04-08T14:41:26Z</time>
      </trkpt>
      <trkpt lat="43.48532" lon="6.39801">
        <ele>139</ele>
        <time>2022-04-08T14:41:27Z</time>
      </trkpt>
      <trkpt lat="43.48532" lon="6.39801">
        <ele>139</ele>
        <time>2022-04-08T14:41:28Z</time>
      </trkpt>
      <trkpt lat="43.48532" lon="6.39801">
        <ele>139</ele>
        <time>2022-04-08T14:41:29Z</time>
      </trkpt>
      <trkpt lat="43.48532" lon="6.398">
        <ele>139</ele>
        <time>2022-04-08T14:41:30Z</time>
      </trkpt>
      <trkpt lat="43.48532" lon="6.39799">
        <ele>139</ele>
        <time>2022-04-08T14:41:31Z</time>
      </trkpt>
      <trkpt lat="43.48533" lon="6.39799">
        <ele>139</ele>
        <time>2022-04-08T14:41:32Z</time>
      </trkpt>
      <trkpt lat="43.48533" lon="6.39799">
        <ele>139</ele>
        <time>2022-04-08T14:41:33Z</time>
      </trkpt>
      <trkpt lat="43.48534" lon="6.39799">
        <ele>139</ele>
        <time>2022-04-08T14:41:34Z</time>
      </trkpt>
      <trkpt lat="43.48534" lon="6.39799">
        <ele>139</ele>
        <time>2022-04-08T14:41:35Z</time>
      </trkpt>
      <trkpt lat="43.48534" lon="6.39799">
        <ele>139</ele>
        <time>2022-04-08T14:41:36Z</time>
      </trkpt>
      <trkpt lat="43.48535" lon="6.39799">
        <ele>139</ele>
        <time>2022-04-08T14:41:37Z</time>
      </trkpt>
      <trkpt lat="43.48535" lon="6.39799">
        <ele>139</ele>
        <time>2022-04-08T14:41:38Z</time>
      </trkpt>
      <trkpt lat="43.48535" lon="6.39799">
        <ele>139</ele>
        <time>2022-04-08T14:41:39Z</time>
      </trkpt>
      <trkpt lat="43.48535" lon="6.39799">
        <ele>139</ele>
        <time>2022-04-08T14:41:40Z</time>
      </trkpt>
      <trkpt lat="43.48535" lon="6.39799">
        <ele>139</ele>
        <time>2022-04-08T14:41:41Z</time>
      </trkpt>
      <trkpt lat="43.48535" lon="6.39799">
        <ele>139</ele>
        <time>2022-04-08T14:41:42Z</time>
      </trkpt>
      <trkpt lat="43.48535" lon="6.39799">
        <ele>139</ele>
        <time>2022-04-08T14:41:43Z</time>
      </trkpt>
      <trkpt lat="43.48535" lon="6.39799">
        <ele>139</ele>
        <time>2022-04-08T14:41:44Z</time>
      </trkpt>
      <trkpt lat="43.48535" lon="6.39799">
        <ele>139</ele>
        <time>2022-04-08T14:41:45Z</time>
      </trkpt>
      <trkpt lat="43.48535" lon="6.39799">
        <ele>139</ele>
        <time>2022-04-08T14:41:46Z</time>
      </trkpt>
      <trkpt lat="43.48535" lon="6.39799">
        <ele>139</ele>
        <time>2022-04-08T14:41:47Z</time>
      </trkpt>
      <trkpt lat="43.48535" lon="6.39799">
        <ele>139</ele>
        <time>2022-04-08T14:41:48Z</time>
      </trkpt>
      <trkpt lat="43.48535" lon="6.39799">
        <ele>139</ele>
        <time>2022-04-08T14:41:49Z</time>
      </trkpt>
      <trkpt lat="43.48535" lon="6.39799">
        <ele>139</ele>
        <time>2022-04-08T14:41:50Z</time>
      </trkpt>
      <trkpt lat="43.48535" lon="6.39799">
        <ele>139</ele>
        <time>2022-04-08T14:41:51Z</time>
      </trkpt>
      <trkpt lat="43.48535" lon="6.39799">
        <ele>139</ele>
        <time>2022-04-08T14:41:52Z</time>
      </trkpt>
      <trkpt lat="43.48535" lon="6.39799">
        <ele>139</ele>
        <time>2022-04-08T14:41:53Z</time>
      </trkpt>
      <trkpt lat="43.48535" lon="6.39799">
        <ele>139</ele>
        <time>2022-04-08T14:41:54Z</time>
      </trkpt>
      <trkpt lat="43.48535" lon="6.39799">
        <ele>139</ele>
        <time>2022-04-08T14:41:55Z</time>
      </trkpt>
      <trkpt lat="43.48535" lon="6.39799">
        <ele>139</ele>
        <time>2022-04-08T14:41:56Z</time>
      </trkpt>
      <trkpt lat="43.48535" lon="6.39799">
        <ele>139</ele>
        <time>2022-04-08T14:41:57Z</time>
      </trkpt>
      <trkpt lat="43.48535" lon="6.39799">
        <ele>139</ele>
        <time>2022-04-08T14:41:58Z</time>
      </trkpt>
      <trkpt lat="43.48535" lon="6.39799">
        <ele>139</ele>
        <time>2022-04-08T14:41:59Z</time>
      </trkpt>
      <trkpt lat="43.48535" lon="6.39799">
        <ele>139</ele>
        <time>2022-04-08T14:42:00Z</time>
      </trkpt>
      <trkpt lat="43.48535" lon="6.39799">
        <ele>139</ele>
        <time>2022-04-08T14:42:01Z</time>
      </trkpt>
      <trkpt lat="43.48535" lon="6.39799">
        <ele>139</ele>
        <time>2022-04-08T14:42:02Z</time>
      </trkpt>
      <trkpt lat="43.48535" lon="6.39799">
        <ele>139</ele>
        <time>2022-04-08T14:42:03Z</time>
      </trkpt>
      <trkpt lat="43.48535" lon="6.39799">
        <ele>139</ele>
        <time>2022-04-08T14:42:04Z</time>
      </trkpt>
      <trkpt lat="43.48535" lon="6.39799">
        <ele>139</ele>
        <time>2022-04-08T14:42:05Z</time>
      </trkpt>
      <trkpt lat="43.48535" lon="6.39799">
        <ele>139</ele>
        <time>2022-04-08T14:42:06Z</time>
      </trkpt>
      <trkpt lat="43.48535" lon="6.39799">
        <ele>139</ele>
        <time>2022-04-08T14:42:07Z</time>
      </trkpt>
      <trkpt lat="43.48535" lon="6.39799">
        <ele>139</ele>
        <time>2022-04-08T14:42:08Z</time>
      </trkpt>
      <trkpt lat="43.48535" lon="6.39799">
        <ele>139</ele>
        <time>2022-04-08T14:42:09Z</time>
      </trkpt>
      <trkpt lat="43.48535" lon="6.39799">
        <ele>139</ele>
        <time>2022-04-08T14:42:10Z</time>
      </trkpt>
      <trkpt lat="43.48535" lon="6.39799">
        <ele>139</ele>
        <time>2022-04-08T14:42:11Z</time>
      </trkpt>
      <trkpt lat="43.48535" lon="6.39799">
        <ele>139</ele>
        <time>2022-04-08T14:42:12Z</time>
      </trkpt>
      <trkpt lat="43.48535" lon="6.39799">
        <ele>139</ele>
        <time>2022-04-08T14:42:13Z</time>
      </trkpt>
      <trkpt lat="43.48535" lon="6.39799">
        <ele>139</ele>
        <time>2022-04-08T14:42:14Z</time>
      </trkpt>
      <trkpt lat="43.48535" lon="6.39799">
        <ele>139</ele>
        <time>2022-04-08T14:42:15Z</time>
      </trkpt>
      <trkpt lat="43.48535" lon="6.39799">
        <ele>139</ele>
        <time>2022-04-08T14:42:16Z</time>
      </trkpt>
      <trkpt lat="43.48535" lon="6.39799">
        <ele>139</ele>
        <time>2022-04-08T14:42:17Z</time>
      </trkpt>
      <trkpt lat="43.48535" lon="6.39799">
        <ele>139</ele>
        <time>2022-04-08T14:42:18Z</time>
      </trkpt>
      <trkpt lat="43.48535" lon="6.39799">
        <ele>139</ele>
        <time>2022-04-08T14:42:19Z</time>
      </trkpt>
      <trkpt lat="43.48535" lon="6.39799">
        <ele>139</ele>
        <time>2022-04-08T14:42:20Z</time>
      </trkpt>
      <trkpt lat="43.48535" lon="6.39799">
        <ele>139</ele>
        <time>2022-04-08T14:42:21Z</time>
      </trkpt>
      <trkpt lat="43.48535" lon="6.39799">
        <ele>139</ele>
        <time>2022-04-08T14:42:22Z</time>
      </trkpt>
      <trkpt lat="43.48535" lon="6.39799">
        <ele>139</ele>
        <time>2022-04-08T14:42:23Z</time>
      </trkpt>
      <trkpt lat="43.48535" lon="6.39799">
        <ele>139</ele>
        <time>2022-04-08T14:42:24Z</time>
      </trkpt>
      <trkpt lat="43.48539" lon="6.39801">
        <ele>139</ele>
        <time>2022-04-08T14:42:25Z</time>
      </trkpt>
      <trkpt lat="43.4854" lon="6.39801">
        <ele>139</ele>
        <time>2022-04-08T14:42:26Z</time>
      </trkpt>
      <trkpt lat="43.4854" lon="6.39801">
        <ele>139</ele>
        <time>2022-04-08T14:42:27Z</time>
      </trkpt>
      <trkpt lat="43.48539" lon="6.39801">
        <ele>139</ele>
        <time>2022-04-08T14:42:28Z</time>
      </trkpt>
      <trkpt lat="43.48539" lon="6.39801">
        <ele>139</ele>
        <time>2022-04-08T14:42:29Z</time>
      </trkpt>
      <trkpt lat="43.48539" lon="6.39801">
        <ele>139</ele>
        <time>2022-04-08T14:42:30Z</time>
      </trkpt>
      <trkpt lat="43.48539" lon="6.39801">
        <ele>139</ele>
        <time>2022-04-08T14:42:31Z</time>
      </trkpt>
      <trkpt lat="43.48539" lon="6.39801">
        <ele>139</ele>
        <time>2022-04-08T14:42:32Z</time>
      </trkpt>
      <trkpt lat="43.48539" lon="6.39801">
        <ele>139</ele>
        <time>2022-04-08T14:42:33Z</time>
      </trkpt>
      <trkpt lat="43.48539" lon="6.39801">
        <ele>139</ele>
        <time>2022-04-08T14:42:34Z</time>
      </trkpt>
      <trkpt lat="43.48539" lon="6.39801">
        <ele>139</ele>
        <time>2022-04-08T14:42:35Z</time>
      </trkpt>
      <trkpt lat="43.48539" lon="6.39801">
        <ele>139</ele>
        <time>2022-04-08T14:42:36Z</time>
      </trkpt>
      <trkpt lat="43.48539" lon="6.39801">
        <ele>139</ele>
        <time>2022-04-08T14:42:37Z</time>
      </trkpt>
      <trkpt lat="43.48539" lon="6.39801">
        <ele>139</ele>
        <time>2022-04-08T14:42:38Z</time>
      </trkpt>
      <trkpt lat="43.48539" lon="6.39801">
        <ele>139</ele>
        <time>2022-04-08T14:42:39Z</time>
      </trkpt>
      <trkpt lat="43.48539" lon="6.39801">
        <ele>139</ele>
        <time>2022-04-08T14:42:40Z</time>
      </trkpt>
      <trkpt lat="43.48539" lon="6.39801">
        <ele>139</ele>
        <time>2022-04-08T14:42:41Z</time>
      </trkpt>
      <trkpt lat="43.48539" lon="6.39801">
        <ele>139</ele>
        <time>2022-04-08T14:42:42Z</time>
      </trkpt>
      <trkpt lat="43.48539" lon="6.39801">
        <ele>139</ele>
        <time>2022-04-08T14:42:43Z</time>
      </trkpt>
      <trkpt lat="43.48539" lon="6.39801">
        <ele>139</ele>
        <time>2022-04-08T14:42:44Z</time>
      </trkpt>
      <trkpt lat="43.48539" lon="6.39801">
        <ele>139</ele>
        <time>2022-04-08T14:42:45Z</time>
      </trkpt>
      <trkpt lat="43.48539" lon="6.39801">
        <ele>139</ele>
        <time>2022-04-08T14:42:46Z</time>
      </trkpt>
      <trkpt lat="43.48539" lon="6.39801">
        <ele>139</ele>
        <time>2022-04-08T14:42:47Z</time>
      </trkpt>
      <trkpt lat="43.48539" lon="6.39801">
        <ele>139</ele>
        <time>2022-04-08T14:42:48Z</time>
      </trkpt>
      <trkpt lat="43.48539" lon="6.39801">
        <ele>139</ele>
        <time>2022-04-08T14:42:49Z</time>
      </trkpt>
      <trkpt lat="43.48539" lon="6.39801">
        <ele>139</ele>
        <time>2022-04-08T14:42:50Z</time>
      </trkpt>
      <trkpt lat="43.48539" lon="6.39801">
        <ele>139</ele>
        <time>2022-04-08T14:42:51Z</time>
      </trkpt>
      <trkpt lat="43.48539" lon="6.39801">
        <ele>139</ele>
        <time>2022-04-08T14:42:52Z</time>
      </trkpt>
      <trkpt lat="43.48539" lon="6.39801">
        <ele>139</ele>
        <time>2022-04-08T14:42:53Z</time>
      </trkpt>
      <trkpt lat="43.48539" lon="6.39801">
        <ele>139</ele>
        <time>2022-04-08T14:42:54Z</time>
      </trkpt>
      <trkpt lat="43.48539" lon="6.39801">
        <ele>139</ele>
        <time>2022-04-08T14:42:55Z</time>
      </trkpt>
      <trkpt lat="43.48539" lon="6.39801">
        <ele>139</ele>
        <time>2022-04-08T14:42:56Z</time>
      </trkpt>
      <trkpt lat="43.48539" lon="6.39801">
        <ele>139</ele>
        <time>2022-04-08T14:42:57Z</time>
      </trkpt>
      <trkpt lat="43.48539" lon="6.39801">
        <ele>139</ele>
        <time>2022-04-08T14:42:58Z</time>
      </trkpt>
      <trkpt lat="43.48538" lon="6.398">
        <ele>139</ele>
        <time>2022-04-08T14:42:59Z</time>
      </trkpt>
      <trkpt lat="43.48538" lon="6.39799">
        <ele>139</ele>
        <time>2022-04-08T14:43:00Z</time>
      </trkpt>
      <trkpt lat="43.48537" lon="6.39799">
        <ele>139</ele>
        <time>2022-04-08T14:43:01Z</time>
      </trkpt>
      <trkpt lat="43.48537" lon="6.39799">
        <ele>139</ele>
        <time>2022-04-08T14:43:02Z</time>
      </trkpt>
      <trkpt lat="43.48537" lon="6.39799">
        <ele>139</ele>
        <time>2022-04-08T14:43:03Z</time>
      </trkpt>
      <trkpt lat="43.48537" lon="6.398">
        <ele>139</ele>
        <time>2022-04-08T14:43:04Z</time>
      </trkpt>
      <trkpt lat="43.48538" lon="6.398">
        <ele>139</ele>
        <time>2022-04-08T14:43:05Z</time>
      </trkpt>
      <trkpt lat="43.48538" lon="6.39801">
        <ele>139</ele>
        <time>2022-04-08T14:43:06Z</time>
      </trkpt>
      <trkpt lat="43.48538" lon="6.39801">
        <ele>139</ele>
        <time>2022-04-08T14:43:07Z</time>
      </trkpt>
      <trkpt lat="43.48539" lon="6.39803">
        <ele>139</ele>
        <time>2022-04-08T14:43:08Z</time>
      </trkpt>
      <trkpt lat="43.48539" lon="6.39803">
        <ele>139</ele>
        <time>2022-04-08T14:43:09Z</time>
      </trkpt>
      <trkpt lat="43.4854" lon="6.39804">
        <ele>139</ele>
        <time>2022-04-08T14:43:10Z</time>
      </trkpt>
      <trkpt lat="43.4854" lon="6.39804">
        <ele>139</ele>
        <time>2022-04-08T14:43:11Z</time>
      </trkpt>
      <trkpt lat="43.4854" lon="6.39804">
        <ele>139</ele>
        <time>2022-04-08T14:43:12Z</time>
      </trkpt>
      <trkpt lat="43.4854" lon="6.39804">
        <ele>139</ele>
        <time>2022-04-08T14:43:13Z</time>
      </trkpt>
      <trkpt lat="43.4854" lon="6.39804">
        <ele>139</ele>
        <time>2022-04-08T14:43:14Z</time>
      </trkpt>
      <trkpt lat="43.4854" lon="6.39804">
        <ele>139</ele>
        <time>2022-04-08T14:43:15Z</time>
      </trkpt>
      <trkpt lat="43.4854" lon="6.39804">
        <ele>139</ele>
        <time>2022-04-08T14:43:16Z</time>
      </trkpt>
      <trkpt lat="43.4854" lon="6.39804">
        <ele>139</ele>
        <time>2022-04-08T14:43:17Z</time>
      </trkpt>
      <trkpt lat="43.4854" lon="6.39804">
        <ele>139</ele>
        <time>2022-04-08T14:43:18Z</time>
      </trkpt>
      <trkpt lat="43.4854" lon="6.39804">
        <ele>139</ele>
        <time>2022-04-08T14:43:19Z</time>
      </trkpt>
      <trkpt lat="43.4854" lon="6.39804">
        <ele>139</ele>
        <time>2022-04-08T14:43:20Z</time>
      </trkpt>
      <trkpt lat="43.4854" lon="6.39804">
        <ele>139</ele>
        <time>2022-04-08T14:43:21Z</time>
      </trkpt>
      <trkpt lat="43.48541" lon="6.39804">
        <ele>139</ele>
        <time>2022-04-08T14:43:22Z</time>
      </trkpt>
      <trkpt lat="43.48541" lon="6.39804">
        <ele>139</ele>
        <time>2022-04-08T14:43:23Z</time>
      </trkpt>
      <trkpt lat="43.48541" lon="6.39804">
        <ele>139</ele>
        <time>2022-04-08T14:43:24Z</time>
      </trkpt>
      <trkpt lat="43.48541" lon="6.39803">
        <ele>139</ele>
        <time>2022-04-08T14:43:25Z</time>
      </trkpt>
      <trkpt lat="43.48541" lon="6.39802">
        <ele>139</ele>
        <time>2022-04-08T14:43:26Z</time>
      </trkpt>
      <trkpt lat="43.48541" lon="6.39801">
        <ele>139</ele>
        <time>2022-04-08T14:43:27Z</time>
      </trkpt>
      <trkpt lat="43.4854" lon="6.398">
        <ele>137</ele>
        <time>2022-04-08T14:43:28Z</time>
      </trkpt>
      <trkpt lat="43.4854" lon="6.398">
        <ele>137</ele>
        <time>2022-04-08T14:43:29Z</time>
      </trkpt>
      <trkpt lat="43.4854" lon="6.39799">
        <ele>137</ele>
        <time>2022-04-08T14:43:30Z</time>
      </trkpt>
      <trkpt lat="43.48539" lon="6.39798">
        <ele>137</ele>
        <time>2022-04-08T14:43:31Z</time>
      </trkpt>
      <trkpt lat="43.48538" lon="6.39797">
        <ele>137</ele>
        <time>2022-04-08T14:43:32Z</time>
      </trkpt>
      <trkpt lat="43.48536" lon="6.39796">
        <ele>137</ele>
        <time>2022-04-08T14:43:33Z</time>
      </trkpt>
      <trkpt lat="43.48534" lon="6.39795">
        <ele>137</ele>
        <time>2022-04-08T14:43:34Z</time>
      </trkpt>
      <trkpt lat="43.48533" lon="6.39794">
        <ele>137</ele>
        <time>2022-04-08T14:43:35Z</time>
      </trkpt>
      <trkpt lat="43.48532" lon="6.39794">
        <ele>137</ele>
        <time>2022-04-08T14:43:36Z</time>
      </trkpt>
      <trkpt lat="43.48531" lon="6.39793">
        <ele>137</ele>
        <time>2022-04-08T14:43:37Z</time>
      </trkpt>
      <trkpt lat="43.4853" lon="6.39793">
        <ele>137</ele>
        <time>2022-04-08T14:43:38Z</time>
      </trkpt>
      <trkpt lat="43.48528" lon="6.39793">
        <ele>137</ele>
        <time>2022-04-08T14:43:39Z</time>
      </trkpt>
      <trkpt lat="43.48527" lon="6.39793">
        <ele>137</ele>
        <time>2022-04-08T14:43:40Z</time>
      </trkpt>
      <trkpt lat="43.48526" lon="6.39792">
        <ele>137</ele>
        <time>2022-04-08T14:43:41Z</time>
      </trkpt>
      <trkpt lat="43.48526" lon="6.39792">
        <ele>137</ele>
        <time>2022-04-08T14:43:42Z</time>
      </trkpt>
      <trkpt lat="43.48526" lon="6.39792">
        <ele>137</ele>
        <time>2022-04-08T14:43:43Z</time>
      </trkpt>
      <trkpt lat="43.48525" lon="6.39792">
        <ele>137</ele>
        <time>2022-04-08T14:43:44Z</time>
      </trkpt>
      <trkpt lat="43.48525" lon="6.39792">
        <ele>137</ele>
        <time>2022-04-08T14:43:45Z</time>
      </trkpt>
      <trkpt lat="43.48525" lon="6.39792">
        <ele>137</ele>
        <time>2022-04-08T14:43:46Z</time>
      </trkpt>
      <trkpt lat="43.48525" lon="6.39792">
        <ele>137</ele>
        <time>2022-04-08T14:43:47Z</time>
      </trkpt>
      <trkpt lat="43.48525" lon="6.39792">
        <ele>137</ele>
        <time>2022-04-08T14:43:48Z</time>
      </trkpt>
      <trkpt lat="43.48525" lon="6.39792">
        <ele>137</ele>
        <time>2022-04-08T14:43:49Z</time>
      </trkpt>
      <trkpt lat="43.48525" lon="6.39792">
        <ele>137</ele>
        <time>2022-04-08T14:43:50Z</time>
      </trkpt>
      <trkpt lat="43.48525" lon="6.39792">
        <ele>137</ele>
        <time>2022-04-08T14:43:51Z</time>
      </trkpt>
      <trkpt lat="43.48525" lon="6.39792">
        <ele>137</ele>
        <time>2022-04-08T14:43:52Z</time>
      </trkpt>
      <trkpt lat="43.48525" lon="6.39792">
        <ele>137</ele>
        <time>2022-04-08T14:43:53Z</time>
      </trkpt>
      <trkpt lat="43.48525" lon="6.39792">
        <ele>137</ele>
        <time>2022-04-08T14:43:54Z</time>
      </trkpt>
      <trkpt lat="43.48525" lon="6.39792">
        <ele>137</ele>
        <time>2022-04-08T14:43:55Z</time>
      </trkpt>
      <trkpt lat="43.48522" lon="6.3979">
        <ele>137</ele>
        <time>2022-04-08T14:43:56Z</time>
      </trkpt>
      <trkpt lat="43.48521" lon="6.3979">
        <ele>137</ele>
        <time>2022-04-08T14:43:57Z</time>
      </trkpt>
      <trkpt lat="43.4852" lon="6.3979">
        <ele>138</ele>
        <time>2022-04-08T14:43:58Z</time>
      </trkpt>
      <trkpt lat="43.48519" lon="6.3979">
        <ele>138</ele>
        <time>2022-04-08T14:43:59Z</time>
      </trkpt>
      <trkpt lat="43.48518" lon="6.3979">
        <ele>138</ele>
        <time>2022-04-08T14:44:00Z</time>
      </trkpt>
      <trkpt lat="43.48517" lon="6.39791">
        <ele>138</ele>
        <time>2022-04-08T14:44:01Z</time>
      </trkpt>
      <trkpt lat="43.48516" lon="6.39791">
        <ele>138</ele>
        <time>2022-04-08T14:44:02Z</time>
      </trkpt>
      <trkpt lat="43.48515" lon="6.39791">
        <ele>138</ele>
        <time>2022-04-08T14:44:03Z</time>
      </trkpt>
      <trkpt lat="43.48515" lon="6.39791">
        <ele>138</ele>
        <time>2022-04-08T14:44:04Z</time>
      </trkpt>
      <trkpt lat="43.48514" lon="6.39792">
        <ele>138</ele>
        <time>2022-04-08T14:44:05Z</time>
      </trkpt>
      <trkpt lat="43.48513" lon="6.39792">
        <ele>138</ele>
        <time>2022-04-08T14:44:06Z</time>
      </trkpt>
      <trkpt lat="43.48512" lon="6.39792">
        <ele>138</ele>
        <time>2022-04-08T14:44:07Z</time>
      </trkpt>
      <trkpt lat="43.48511" lon="6.39792">
        <ele>138</ele>
        <time>2022-04-08T14:44:08Z</time>
      </trkpt>
      <trkpt lat="43.4851" lon="6.39792">
        <ele>139</ele>
        <time>2022-04-08T14:44:09Z</time>
      </trkpt>
      <trkpt lat="43.48509" lon="6.39792">
        <ele>139</ele>
        <time>2022-04-08T14:44:10Z</time>
      </trkpt>
      <trkpt lat="43.48508" lon="6.39792">
        <ele>139</ele>
        <time>2022-04-08T14:44:11Z</time>
      </trkpt>
      <trkpt lat="43.48507" lon="6.39792">
        <ele>139</ele>
        <time>2022-04-08T14:44:12Z</time>
      </trkpt>
      <trkpt lat="43.48506" lon="6.39792">
        <ele>139</ele>
        <time>2022-04-08T14:44:13Z</time>
      </trkpt>
      <trkpt lat="43.48506" lon="6.39791">
        <ele>139</ele>
        <time>2022-04-08T14:44:14Z</time>
      </trkpt>
      <trkpt lat="43.48505" lon="6.39791">
        <ele>139</ele>
        <time>2022-04-08T14:44:15Z</time>
      </trkpt>
      <trkpt lat="43.48504" lon="6.39791">
        <ele>139</ele>
        <time>2022-04-08T14:44:16Z</time>
      </trkpt>
      <trkpt lat="43.48504" lon="6.3979">
        <ele>139</ele>
        <time>2022-04-08T14:44:17Z</time>
      </trkpt>
      <trkpt lat="43.48502" lon="6.3979">
        <ele>140</ele>
        <time>2022-04-08T14:44:18Z</time>
      </trkpt>
      <trkpt lat="43.48501" lon="6.39789">
        <ele>140</ele>
        <time>2022-04-08T14:44:19Z</time>
      </trkpt>
      <trkpt lat="43.485" lon="6.39788">
        <ele>140</ele>
        <time>2022-04-08T14:44:20Z</time>
      </trkpt>
      <trkpt lat="43.48498" lon="6.39788">
        <ele>140</ele>
        <time>2022-04-08T14:44:21Z</time>
      </trkpt>
      <trkpt lat="43.48497" lon="6.39787">
        <ele>140</ele>
        <time>2022-04-08T14:44:22Z</time>
      </trkpt>
      <trkpt lat="43.48496" lon="6.39787">
        <ele>140</ele>
        <time>2022-04-08T14:44:23Z</time>
      </trkpt>
      <trkpt lat="43.48495" lon="6.39786">
        <ele>140</ele>
        <time>2022-04-08T14:44:24Z</time>
      </trkpt>
      <trkpt lat="43.48494" lon="6.39786">
        <ele>140</ele>
        <time>2022-04-08T14:44:25Z</time>
      </trkpt>
      <trkpt lat="43.48493" lon="6.39785">
        <ele>140</ele>
        <time>2022-04-08T14:44:26Z</time>
      </trkpt>
      <trkpt lat="43.48491" lon="6.39785">
        <ele>140</ele>
        <time>2022-04-08T14:44:27Z</time>
      </trkpt>
      <trkpt lat="43.48489" lon="6.39784">
        <ele>140</ele>
        <time>2022-04-08T14:44:28Z</time>
      </trkpt>
      <trkpt lat="43.48488" lon="6.39784">
        <ele>140</ele>
        <time>2022-04-08T14:44:29Z</time>
      </trkpt>
      <trkpt lat="43.48486" lon="6.39783">
        <ele>140</ele>
        <time>2022-04-08T14:44:30Z</time>
      </trkpt>
      <trkpt lat="43.48485" lon="6.39783">
        <ele>140</ele>
        <time>2022-04-08T14:44:31Z</time>
      </trkpt>
      <trkpt lat="43.48484" lon="6.39782">
        <ele>140</ele>
        <time>2022-04-08T14:44:32Z</time>
      </trkpt>
      <trkpt lat="43.48483" lon="6.39782">
        <ele>140</ele>
        <time>2022-04-08T14:44:33Z</time>
      </trkpt>
      <trkpt lat="43.48482" lon="6.39782">
        <ele>140</ele>
        <time>2022-04-08T14:44:34Z</time>
      </trkpt>
      <trkpt lat="43.48481" lon="6.39782">
        <ele>140</ele>
        <time>2022-04-08T14:44:35Z</time>
      </trkpt>
      <trkpt lat="43.4848" lon="6.39781">
        <ele>141</ele>
        <time>2022-04-08T14:44:36Z</time>
      </trkpt>
      <trkpt lat="43.48479" lon="6.39781">
        <ele>141</ele>
        <time>2022-04-08T14:44:37Z</time>
      </trkpt>
      <trkpt lat="43.48478" lon="6.39781">
        <ele>142</ele>
        <time>2022-04-08T14:44:38Z</time>
      </trkpt>
      <trkpt lat="43.48477" lon="6.39781">
        <ele>142</ele>
        <time>2022-04-08T14:44:39Z</time>
      </trkpt>
      <trkpt lat="43.48476" lon="6.39781">
        <ele>142</ele>
        <time>2022-04-08T14:44:40Z</time>
      </trkpt>
      <trkpt lat="43.48475" lon="6.39781">
        <ele>142</ele>
        <time>2022-04-08T14:44:41Z</time>
      </trkpt>
      <trkpt lat="43.48474" lon="6.39781">
        <ele>142</ele>
        <time>2022-04-08T14:44:42Z</time>
      </trkpt>
      <trkpt lat="43.48473" lon="6.39781">
        <ele>142</ele>
        <time>2022-04-08T14:44:43Z</time>
      </trkpt>
      <trkpt lat="43.48472" lon="6.39781">
        <ele>142</ele>
        <time>2022-04-08T14:44:44Z</time>
      </trkpt>
      <trkpt lat="43.4847" lon="6.39781">
        <ele>142</ele>
        <time>2022-04-08T14:44:45Z</time>
      </trkpt>
      <trkpt lat="43.48469" lon="6.39781">
        <ele>143</ele>
        <time>2022-04-08T14:44:46Z</time>
      </trkpt>
      <trkpt lat="43.48468" lon="6.39781">
        <ele>143</ele>
        <time>2022-04-08T14:44:47Z</time>
      </trkpt>
      <trkpt lat="43.48467" lon="6.39782">
        <ele>143</ele>
        <time>2022-04-08T14:44:48Z</time>
      </trkpt>
      <trkpt lat="43.48466" lon="6.39781">
        <ele>144</ele>
        <time>2022-04-08T14:44:49Z</time>
      </trkpt>
      <trkpt lat="43.48465" lon="6.39781">
        <ele>144</ele>
        <time>2022-04-08T14:44:50Z</time>
      </trkpt>
      <trkpt lat="43.48464" lon="6.39781">
        <ele>144</ele>
        <time>2022-04-08T14:44:51Z</time>
      </trkpt>
      <trkpt lat="43.48463" lon="6.39781">
        <ele>144</ele>
        <time>2022-04-08T14:44:52Z</time>
      </trkpt>
      <trkpt lat="43.48463" lon="6.39782">
        <ele>144</ele>
        <time>2022-04-08T14:44:53Z</time>
      </trkpt>
      <trkpt lat="43.48461" lon="6.39782">
        <ele>145</ele>
        <time>2022-04-08T14:44:54Z</time>
      </trkpt>
      <trkpt lat="43.48461" lon="6.39782">
        <ele>145</ele>
        <time>2022-04-08T14:44:55Z</time>
      </trkpt>
      <trkpt lat="43.4846" lon="6.39782">
        <ele>145</ele>
        <time>2022-04-08T14:44:56Z</time>
      </trkpt>
      <trkpt lat="43.4846" lon="6.39782">
        <ele>145</ele>
        <time>2022-04-08T14:44:57Z</time>
      </trkpt>
      <trkpt lat="43.48459" lon="6.39782">
        <ele>145</ele>
        <time>2022-04-08T14:44:58Z</time>
      </trkpt>
      <trkpt lat="43.48459" lon="6.39782">
        <ele>145</ele>
        <time>2022-04-08T14:44:59Z</time>
      </trkpt>
      <trkpt lat="43.4846" lon="6.39782">
        <ele>145</ele>
        <time>2022-04-08T14:45:00Z</time>
      </trkpt>
      <trkpt lat="43.4846" lon="6.39782">
        <ele>145</ele>
        <time>2022-04-08T14:45:01Z</time>
      </trkpt>
      <trkpt lat="43.4846" lon="6.39782">
        <ele>145</ele>
        <time>2022-04-08T14:45:02Z</time>
      </trkpt>
      <trkpt lat="43.4846" lon="6.39782">
        <ele>145</ele>
        <time>2022-04-08T14:45:03Z</time>
      </trkpt>
      <trkpt lat="43.4846" lon="6.39781">
        <ele>145</ele>
        <time>2022-04-08T14:45:04Z</time>
      </trkpt>
      <trkpt lat="43.4846" lon="6.39781">
        <ele>145</ele>
        <time>2022-04-08T14:45:05Z</time>
      </trkpt>
      <trkpt lat="43.4846" lon="6.39781">
        <ele>145</ele>
        <time>2022-04-08T14:45:06Z</time>
      </trkpt>
      <trkpt lat="43.48459" lon="6.3978">
        <ele>145</ele>
        <time>2022-04-08T14:45:07Z</time>
      </trkpt>
      <trkpt lat="43.48459" lon="6.3978">
        <ele>145</ele>
        <time>2022-04-08T14:45:08Z</time>
      </trkpt>
      <trkpt lat="43.48459" lon="6.3978">
        <ele>145</ele>
        <time>2022-04-08T14:45:09Z</time>
      </trkpt>
      <trkpt lat="43.48458" lon="6.3978">
        <ele>145</ele>
        <time>2022-04-08T14:45:10Z</time>
      </trkpt>
      <trkpt lat="43.48458" lon="6.39779">
        <ele>145</ele>
        <time>2022-04-08T14:45:11Z</time>
      </trkpt>
      <trkpt lat="43.48457" lon="6.39779">
        <ele>144</ele>
        <time>2022-04-08T14:45:12Z</time>
      </trkpt>
      <trkpt lat="43.48455" lon="6.39778">
        <ele>144</ele>
        <time>2022-04-08T14:45:13Z</time>
      </trkpt>
      <trkpt lat="43.48454" lon="6.39778">
        <ele>143</ele>
        <time>2022-04-08T14:45:14Z</time>
      </trkpt>
      <trkpt lat="43.48453" lon="6.39777">
        <ele>143</ele>
        <time>2022-04-08T14:45:15Z</time>
      </trkpt>
      <trkpt lat="43.48452" lon="6.39777">
        <ele>143</ele>
        <time>2022-04-08T14:45:16Z</time>
      </trkpt>
      <trkpt lat="43.48451" lon="6.39777">
        <ele>143</ele>
        <time>2022-04-08T14:45:17Z</time>
      </trkpt>
      <trkpt lat="43.4845" lon="6.39776">
        <ele>143</ele>
        <time>2022-04-08T14:45:18Z</time>
      </trkpt>
      <trkpt lat="43.48449" lon="6.39776">
        <ele>143</ele>
        <time>2022-04-08T14:45:19Z</time>
      </trkpt>
      <trkpt lat="43.48448" lon="6.39776">
        <ele>143</ele>
        <time>2022-04-08T14:45:20Z</time>
      </trkpt>
      <trkpt lat="43.48447" lon="6.39776">
        <ele>143</ele>
        <time>2022-04-08T14:45:21Z</time>
      </trkpt>
      <trkpt lat="43.48447" lon="6.39775">
        <ele>143</ele>
        <time>2022-04-08T14:45:22Z</time>
      </trkpt>
      <trkpt lat="43.48446" lon="6.39775">
        <ele>143</ele>
        <time>2022-04-08T14:45:23Z</time>
      </trkpt>
      <trkpt lat="43.48445" lon="6.39775">
        <ele>142</ele>
        <time>2022-04-08T14:45:24Z</time>
      </trkpt>
      <trkpt lat="43.48444" lon="6.39775">
        <ele>142</ele>
        <time>2022-04-08T14:45:25Z</time>
      </trkpt>
      <trkpt lat="43.48443" lon="6.39774">
        <ele>142</ele>
        <time>2022-04-08T14:45:26Z</time>
      </trkpt>
      <trkpt lat="43.48442" lon="6.39774">
        <ele>141</ele>
        <time>2022-04-08T14:45:27Z</time>
      </trkpt>
      <trkpt lat="43.48442" lon="6.39774">
        <ele>141</ele>
        <time>2022-04-08T14:45:28Z</time>
      </trkpt>
      <trkpt lat="43.4844" lon="6.39774">
        <ele>141</ele>
        <time>2022-04-08T14:45:29Z</time>
      </trkpt>
      <trkpt lat="43.48438" lon="6.39773">
        <ele>141</ele>
        <time>2022-04-08T14:45:30Z</time>
      </trkpt>
      <trkpt lat="43.48437" lon="6.39772">
        <ele>141</ele>
        <time>2022-04-08T14:45:31Z</time>
      </trkpt>
      <trkpt lat="43.48437" lon="6.39772">
        <ele>140</ele>
        <time>2022-04-08T14:45:32Z</time>
      </trkpt>
      <trkpt lat="43.48437" lon="6.39772">
        <ele>140</ele>
        <time>2022-04-08T14:45:33Z</time>
      </trkpt>
      <trkpt lat="43.48437" lon="6.39772">
        <ele>140</ele>
        <time>2022-04-08T14:45:34Z</time>
      </trkpt>
      <trkpt lat="43.48437" lon="6.39772">
        <ele>140</ele>
        <time>2022-04-08T14:45:35Z</time>
      </trkpt>
      <trkpt lat="43.48437" lon="6.39772">
        <ele>140</ele>
        <time>2022-04-08T14:45:36Z</time>
      </trkpt>
      <trkpt lat="43.48436" lon="6.39771">
        <ele>140</ele>
        <time>2022-04-08T14:45:37Z</time>
      </trkpt>
      <trkpt lat="43.48436" lon="6.39771">
        <ele>140</ele>
        <time>2022-04-08T14:45:38Z</time>
      </trkpt>
      <trkpt lat="43.48436" lon="6.39771">
        <ele>140</ele>
        <time>2022-04-08T14:45:39Z</time>
      </trkpt>
      <trkpt lat="43.48435" lon="6.39771">
        <ele>140</ele>
        <time>2022-04-08T14:45:40Z</time>
      </trkpt>
      <trkpt lat="43.48434" lon="6.3977">
        <ele>140</ele>
        <time>2022-04-08T14:45:41Z</time>
      </trkpt>
      <trkpt lat="43.48434" lon="6.3977">
        <ele>140</ele>
        <time>2022-04-08T14:45:42Z</time>
      </trkpt>
      <trkpt lat="43.48433" lon="6.3977">
        <ele>140</ele>
        <time>2022-04-08T14:45:43Z</time>
      </trkpt>
      <trkpt lat="43.48433" lon="6.3977">
        <ele>141</ele>
        <time>2022-04-08T14:45:44Z</time>
      </trkpt>
      <trkpt lat="43.48433" lon="6.3977">
        <ele>141</ele>
        <time>2022-04-08T14:45:45Z</time>
      </trkpt>
      <trkpt lat="43.48432" lon="6.39771">
        <ele>141</ele>
        <time>2022-04-08T14:45:46Z</time>
      </trkpt>
      <trkpt lat="43.48432" lon="6.3977">
        <ele>141</ele>
        <time>2022-04-08T14:45:47Z</time>
      </trkpt>
      <trkpt lat="43.48432" lon="6.3977">
        <ele>140</ele>
        <time>2022-04-08T14:45:48Z</time>
      </trkpt>
      <trkpt lat="43.48431" lon="6.3977">
        <ele>140</ele>
        <time>2022-04-08T14:45:49Z</time>
      </trkpt>
      <trkpt lat="43.48429" lon="6.39769">
        <ele>140</ele>
        <time>2022-04-08T14:45:50Z</time>
      </trkpt>
      <trkpt lat="43.48428" lon="6.39769">
        <ele>140</ele>
        <time>2022-04-08T14:45:51Z</time>
      </trkpt>
      <trkpt lat="43.48427" lon="6.39768">
        <ele>139</ele>
        <time>2022-04-08T14:45:52Z</time>
      </trkpt>
      <trkpt lat="43.48426" lon="6.39768">
        <ele>138</ele>
        <time>2022-04-08T14:45:53Z</time>
      </trkpt>
      <trkpt lat="43.48425" lon="6.39767">
        <ele>138</ele>
        <time>2022-04-08T14:45:54Z</time>
      </trkpt>
      <trkpt lat="43.48424" lon="6.39767">
        <ele>138</ele>
        <time>2022-04-08T14:45:55Z</time>
      </trkpt>
      <trkpt lat="43.48424" lon="6.39767">
        <ele>138</ele>
        <time>2022-04-08T14:45:56Z</time>
      </trkpt>
      <trkpt lat="43.48424" lon="6.39767">
        <ele>138</ele>
        <time>2022-04-08T14:45:57Z</time>
      </trkpt>
      <trkpt lat="43.48423" lon="6.39767">
        <ele>138</ele>
        <time>2022-04-08T14:45:58Z</time>
      </trkpt>
      <trkpt lat="43.48423" lon="6.39767">
        <ele>137</ele>
        <time>2022-04-08T14:45:59Z</time>
      </trkpt>
      <trkpt lat="43.48423" lon="6.39767">
        <ele>137</ele>
        <time>2022-04-08T14:46:00Z</time>
      </trkpt>
      <trkpt lat="43.48422" lon="6.39767">
        <ele>137</ele>
        <time>2022-04-08T14:46:01Z</time>
      </trkpt>
      <trkpt lat="43.48422" lon="6.39767">
        <ele>137</ele>
        <time>2022-04-08T14:46:02Z</time>
      </trkpt>
      <trkpt lat="43.48422" lon="6.39767">
        <ele>137</ele>
        <time>2022-04-08T14:46:03Z</time>
      </trkpt>
      <trkpt lat="43.48422" lon="6.39767">
        <ele>137</ele>
        <time>2022-04-08T14:46:04Z</time>
      </trkpt>
      <trkpt lat="43.48422" lon="6.39767">
        <ele>137</ele>
        <time>2022-04-08T14:46:05Z</time>
      </trkpt>
      <trkpt lat="43.48421" lon="6.39766">
        <ele>137</ele>
        <time>2022-04-08T14:46:06Z</time>
      </trkpt>
      <trkpt lat="43.48421" lon="6.39766">
        <ele>137</ele>
        <time>2022-04-08T14:46:07Z</time>
      </trkpt>
      <trkpt lat="43.4842" lon="6.39765">
        <ele>137</ele>
        <time>2022-04-08T14:46:08Z</time>
      </trkpt>
      <trkpt lat="43.48419" lon="6.39765">
        <ele>137</ele>
        <time>2022-04-08T14:46:09Z</time>
      </trkpt>
      <trkpt lat="43.48418" lon="6.39765">
        <ele>137</ele>
        <time>2022-04-08T14:46:10Z</time>
      </trkpt>
      <trkpt lat="43.48417" lon="6.39765">
        <ele>137</ele>
        <time>2022-04-08T14:46:11Z</time>
      </trkpt>
      <trkpt lat="43.48416" lon="6.39765">
        <ele>137</ele>
        <time>2022-04-08T14:46:12Z</time>
      </trkpt>
      <trkpt lat="43.48416" lon="6.39765">
        <ele>137</ele>
        <time>2022-04-08T14:46:13Z</time>
      </trkpt>
      <trkpt lat="43.48415" lon="6.39765">
        <ele>137</ele>
        <time>2022-04-08T14:46:14Z</time>
      </trkpt>
      <trkpt lat="43.48414" lon="6.39765">
        <ele>137</ele>
        <time>2022-04-08T14:46:15Z</time>
      </trkpt>
      <trkpt lat="43.48414" lon="6.39765">
        <ele>137</ele>
        <time>2022-04-08T14:46:16Z</time>
      </trkpt>
      <trkpt lat="43.48413" lon="6.39765">
        <ele>137</ele>
        <time>2022-04-08T14:46:17Z</time>
      </trkpt>
      <trkpt lat="43.48412" lon="6.39764">
        <ele>137</ele>
        <time>2022-04-08T14:46:18Z</time>
      </trkpt>
      <trkpt lat="43.48411" lon="6.39764">
        <ele>137</ele>
        <time>2022-04-08T14:46:19Z</time>
      </trkpt>
      <trkpt lat="43.4841" lon="6.39764">
        <ele>137</ele>
        <time>2022-04-08T14:46:20Z</time>
      </trkpt>
      <trkpt lat="43.48409" lon="6.39764">
        <ele>137</ele>
        <time>2022-04-08T14:46:21Z</time>
      </trkpt>
      <trkpt lat="43.48409" lon="6.39763">
        <ele>137</ele>
        <time>2022-04-08T14:46:22Z</time>
      </trkpt>
      <trkpt lat="43.48408" lon="6.39763">
        <ele>137</ele>
        <time>2022-04-08T14:46:23Z</time>
      </trkpt>
      <trkpt lat="43.48407" lon="6.39763">
        <ele>137</ele>
        <time>2022-04-08T14:46:24Z</time>
      </trkpt>
      <trkpt lat="43.48406" lon="6.39763">
        <ele>137</ele>
        <time>2022-04-08T14:46:25Z</time>
      </trkpt>
      <trkpt lat="43.48405" lon="6.39763">
        <ele>137</ele>
        <time>2022-04-08T14:46:26Z</time>
      </trkpt>
      <trkpt lat="43.48405" lon="6.39763">
        <ele>137</ele>
        <time>2022-04-08T14:46:27Z</time>
      </trkpt>
      <trkpt lat="43.48404" lon="6.39763">
        <ele>137</ele>
        <time>2022-04-08T14:46:28Z</time>
      </trkpt>
      <trkpt lat="43.48403" lon="6.39763">
        <ele>137</ele>
        <time>2022-04-08T14:46:29Z</time>
      </trkpt>
      <trkpt lat="43.48402" lon="6.39763">
        <ele>137</ele>
        <time>2022-04-08T14:46:30Z</time>
      </trkpt>
      <trkpt lat="43.48401" lon="6.39763">
        <ele>137</ele>
        <time>2022-04-08T14:46:31Z</time>
      </trkpt>
      <trkpt lat="43.484" lon="6.39763">
        <ele>137</ele>
        <time>2022-04-08T14:46:32Z</time>
      </trkpt>
      <trkpt lat="43.48398" lon="6.39763">
        <ele>136</ele>
        <time>2022-04-08T14:46:33Z</time>
      </trkpt>
      <trkpt lat="43.48397" lon="6.39762">
        <ele>136</ele>
        <time>2022-04-08T14:46:34Z</time>
      </trkpt>
      <trkpt lat="43.48396" lon="6.39762">
        <ele>136</ele>
        <time>2022-04-08T14:46:35Z</time>
      </trkpt>
      <trkpt lat="43.48395" lon="6.39762">
        <ele>136</ele>
        <time>2022-04-08T14:46:36Z</time>
      </trkpt>
      <trkpt lat="43.48395" lon="6.39762">
        <ele>136</ele>
        <time>2022-04-08T14:46:37Z</time>
      </trkpt>
      <trkpt lat="43.48395" lon="6.39762">
        <ele>136</ele>
        <time>2022-04-08T14:46:38Z</time>
      </trkpt>
      <trkpt lat="43.48394" lon="6.39762">
        <ele>136</ele>
        <time>2022-04-08T14:46:39Z</time>
      </trkpt>
      <trkpt lat="43.48394" lon="6.39762">
        <ele>136</ele>
        <time>2022-04-08T14:46:40Z</time>
      </trkpt>
      <trkpt lat="43.48393" lon="6.39762">
        <ele>136</ele>
        <time>2022-04-08T14:46:41Z</time>
      </trkpt>
      <trkpt lat="43.48392" lon="6.39761">
        <ele>136</ele>
        <time>2022-04-08T14:46:42Z</time>
      </trkpt>
      <trkpt lat="43.4839" lon="6.39761">
        <ele>136</ele>
        <time>2022-04-08T14:46:43Z</time>
      </trkpt>
      <trkpt lat="43.4839" lon="6.39761">
        <ele>136</ele>
        <time>2022-04-08T14:46:44Z</time>
      </trkpt>
      <trkpt lat="43.48389" lon="6.39761">
        <ele>136</ele>
        <time>2022-04-08T14:46:45Z</time>
      </trkpt>
      <trkpt lat="43.48388" lon="6.39761">
        <ele>136</ele>
        <time>2022-04-08T14:46:46Z</time>
      </trkpt>
      <trkpt lat="43.48388" lon="6.3976">
        <ele>136</ele>
        <time>2022-04-08T14:46:47Z</time>
      </trkpt>
      <trkpt lat="43.48386" lon="6.3976">
        <ele>136</ele>
        <time>2022-04-08T14:46:48Z</time>
      </trkpt>
      <trkpt lat="43.48385" lon="6.39759">
        <ele>136</ele>
        <time>2022-04-08T14:46:49Z</time>
      </trkpt>
      <trkpt lat="43.48384" lon="6.39759">
        <ele>136</ele>
        <time>2022-04-08T14:46:50Z</time>
      </trkpt>
      <trkpt lat="43.48383" lon="6.39759">
        <ele>136</ele>
        <time>2022-04-08T14:46:51Z</time>
      </trkpt>
      <trkpt lat="43.48382" lon="6.39758">
        <ele>136</ele>
        <time>2022-04-08T14:46:52Z</time>
      </trkpt>
      <trkpt lat="43.48381" lon="6.39758">
        <ele>137</ele>
        <time>2022-04-08T14:46:53Z</time>
      </trkpt>
      <trkpt lat="43.48379" lon="6.39758">
        <ele>137</ele>
        <time>2022-04-08T14:46:54Z</time>
      </trkpt>
      <trkpt lat="43.48377" lon="6.39758">
        <ele>137</ele>
        <time>2022-04-08T14:46:55Z</time>
      </trkpt>
      <trkpt lat="43.48375" lon="6.39757">
        <ele>137</ele>
        <time>2022-04-08T14:46:56Z</time>
      </trkpt>
      <trkpt lat="43.48374" lon="6.39757">
        <ele>137</ele>
        <time>2022-04-08T14:46:57Z</time>
      </trkpt>
      <trkpt lat="43.48372" lon="6.39757">
        <ele>138</ele>
        <time>2022-04-08T14:46:58Z</time>
      </trkpt>
      <trkpt lat="43.48371" lon="6.39757">
        <ele>138</ele>
        <time>2022-04-08T14:46:59Z</time>
      </trkpt>
      <trkpt lat="43.4837" lon="6.39756">
        <ele>138</ele>
        <time>2022-04-08T14:47:00Z</time>
      </trkpt>
      <trkpt lat="43.48369" lon="6.39756">
        <ele>138</ele>
        <time>2022-04-08T14:47:01Z</time>
      </trkpt>
      <trkpt lat="43.48367" lon="6.39755">
        <ele>138</ele>
        <time>2022-04-08T14:47:02Z</time>
      </trkpt>
      <trkpt lat="43.48366" lon="6.39755">
        <ele>138</ele>
        <time>2022-04-08T14:47:03Z</time>
      </trkpt>
      <trkpt lat="43.48365" lon="6.39755">
        <ele>138</ele>
        <time>2022-04-08T14:47:04Z</time>
      </trkpt>
      <trkpt lat="43.48364" lon="6.39755">
        <ele>138</ele>
        <time>2022-04-08T14:47:05Z</time>
      </trkpt>
      <trkpt lat="43.48363" lon="6.39755">
        <ele>137</ele>
        <time>2022-04-08T14:47:06Z</time>
      </trkpt>
      <trkpt lat="43.48362" lon="6.39755">
        <ele>137</ele>
        <time>2022-04-08T14:47:07Z</time>
      </trkpt>
      <trkpt lat="43.48361" lon="6.39755">
        <ele>137</ele>
        <time>2022-04-08T14:47:08Z</time>
      </trkpt>
      <trkpt lat="43.48359" lon="6.39755">
        <ele>137</ele>
        <time>2022-04-08T14:47:09Z</time>
      </trkpt>
      <trkpt lat="43.48358" lon="6.39755">
        <ele>137</ele>
        <time>2022-04-08T14:47:10Z</time>
      </trkpt>
      <trkpt lat="43.48357" lon="6.39755">
        <ele>137</ele>
        <time>2022-04-08T14:47:11Z</time>
      </trkpt>
      <trkpt lat="43.48356" lon="6.39755">
        <ele>136</ele>
        <time>2022-04-08T14:47:12Z</time>
      </trkpt>
      <trkpt lat="43.48355" lon="6.39755">
        <ele>135</ele>
        <time>2022-04-08T14:47:13Z</time>
      </trkpt>
      <trkpt lat="43.48353" lon="6.39756">
        <ele>135</ele>
        <time>2022-04-08T14:47:14Z</time>
      </trkpt>
      <trkpt lat="43.48352" lon="6.39756">
        <ele>135</ele>
        <time>2022-04-08T14:47:15Z</time>
      </trkpt>
      <trkpt lat="43.48351" lon="6.39756">
        <ele>135</ele>
        <time>2022-04-08T14:47:16Z</time>
      </trkpt>
      <trkpt lat="43.4835" lon="6.39756">
        <ele>134</ele>
        <time>2022-04-08T14:47:17Z</time>
      </trkpt>
      <trkpt lat="43.48349" lon="6.39757">
        <ele>134</ele>
        <time>2022-04-08T14:47:18Z</time>
      </trkpt>
      <trkpt lat="43.48348" lon="6.39757">
        <ele>134</ele>
        <time>2022-04-08T14:47:19Z</time>
      </trkpt>
      <trkpt lat="43.48347" lon="6.39757">
        <ele>134</ele>
        <time>2022-04-08T14:47:20Z</time>
      </trkpt>
      <trkpt lat="43.48346" lon="6.39758">
        <ele>134</ele>
        <time>2022-04-08T14:47:21Z</time>
      </trkpt>
      <trkpt lat="43.48345" lon="6.39758">
        <ele>134</ele>
        <time>2022-04-08T14:47:22Z</time>
      </trkpt>
      <trkpt lat="43.48344" lon="6.39758">
        <ele>133</ele>
        <time>2022-04-08T14:47:23Z</time>
      </trkpt>
      <trkpt lat="43.48343" lon="6.39759">
        <ele>132</ele>
        <time>2022-04-08T14:47:24Z</time>
      </trkpt>
      <trkpt lat="43.48342" lon="6.3976">
        <ele>132</ele>
        <time>2022-04-08T14:47:25Z</time>
      </trkpt>
      <trkpt lat="43.48341" lon="6.3976">
        <ele>132</ele>
        <time>2022-04-08T14:47:26Z</time>
      </trkpt>
      <trkpt lat="43.4834" lon="6.39761">
        <ele>132</ele>
        <time>2022-04-08T14:47:27Z</time>
      </trkpt>
      <trkpt lat="43.48339" lon="6.39762">
        <ele>132</ele>
        <time>2022-04-08T14:47:28Z</time>
      </trkpt>
      <trkpt lat="43.48338" lon="6.39763">
        <ele>131</ele>
        <time>2022-04-08T14:47:29Z</time>
      </trkpt>
      <trkpt lat="43.48337" lon="6.39762">
        <ele>131</ele>
        <time>2022-04-08T14:47:30Z</time>
      </trkpt>
      <trkpt lat="43.48336" lon="6.39761">
        <ele>131</ele>
        <time>2022-04-08T14:47:31Z</time>
      </trkpt>
      <trkpt lat="43.48335" lon="6.39761">
        <ele>131</ele>
        <time>2022-04-08T14:47:32Z</time>
      </trkpt>
      <trkpt lat="43.48335" lon="6.39762">
        <ele>131</ele>
        <time>2022-04-08T14:47:33Z</time>
      </trkpt>
      <trkpt lat="43.48334" lon="6.39763">
        <ele>130</ele>
        <time>2022-04-08T14:47:34Z</time>
      </trkpt>
      <trkpt lat="43.48333" lon="6.39763">
        <ele>130</ele>
        <time>2022-04-08T14:47:35Z</time>
      </trkpt>
      <trkpt lat="43.48332" lon="6.39764">
        <ele>130</ele>
        <time>2022-04-08T14:47:36Z</time>
      </trkpt>
      <trkpt lat="43.48331" lon="6.39765">
        <ele>130</ele>
        <time>2022-04-08T14:47:37Z</time>
      </trkpt>
      <trkpt lat="43.4833" lon="6.39765">
        <ele>130</ele>
        <time>2022-04-08T14:47:38Z</time>
      </trkpt>
      <trkpt lat="43.48329" lon="6.39766">
        <ele>130</ele>
        <time>2022-04-08T14:47:39Z</time>
      </trkpt>
      <trkpt lat="43.48329" lon="6.39767">
        <ele>130</ele>
        <time>2022-04-08T14:47:40Z</time>
      </trkpt>
      <trkpt lat="43.48328" lon="6.39767">
        <ele>130</ele>
        <time>2022-04-08T14:47:41Z</time>
      </trkpt>
      <trkpt lat="43.48327" lon="6.39768">
        <ele>130</ele>
        <time>2022-04-08T14:47:42Z</time>
      </trkpt>
      <trkpt lat="43.48326" lon="6.39769">
        <ele>130</ele>
        <time>2022-04-08T14:47:43Z</time>
      </trkpt>
      <trkpt lat="43.48325" lon="6.3977">
        <ele>130</ele>
        <time>2022-04-08T14:47:44Z</time>
      </trkpt>
      <trkpt lat="43.48325" lon="6.39771">
        <ele>129</ele>
        <time>2022-04-08T14:47:45Z</time>
      </trkpt>
      <trkpt lat="43.48324" lon="6.39771">
        <ele>128</ele>
        <time>2022-04-08T14:47:46Z</time>
      </trkpt>
      <trkpt lat="43.48324" lon="6.39772">
        <ele>128</ele>
        <time>2022-04-08T14:47:47Z</time>
      </trkpt>
    </trkseg>
  </trk>
</gpx>